<?xml version='1.0' encoding='UTF-8'?><gpx version="1.1" creator="JPX - https://github.com/jenetics/jpx" xmlns="http://www.topografix.com/GPX/1/1"><trk><trkseg><trkpt lat="38.10606385716388" lon="15.641159008542102"><ele>21.666666666666664</ele><time>2026-04-14T08:45:46.999Z</time></trkpt><trkpt lat="38.106123061425215" lon="15.641050453627166"><ele>21.333333333333332</ele><time>2026-04-14T08:45:48.999Z</time></trkpt><trkpt lat="38.106182440035404" lon="15.64095643834346"><ele>21.0</ele><time>2026-04-14T08:45:50.999Z</time></trkpt><trkpt lat="38.106225350118095" lon="15.64089084031982"><ele>20.666666666666668</ele><time>2026-04-14T08:45:52.999Z</time></trkpt><trkpt lat="38.10627582310288" lon="15.640806850371073"><ele>20.333333333333336</ele><time>2026-04-14T08:45:54.999Z</time></trkpt><trkpt lat="38.106315402070116" lon="15.640737262426649"><ele>20.0</ele><time>2026-04-14T08:45:55.999Z</time></trkpt><trkpt lat="38.10636378752161" lon="15.640662451822061"><ele>20.0</ele><time>2026-04-14T08:45:56.999Z</time></trkpt><trkpt lat="38.10640771099029" lon="15.640586095126427"><ele>20.0</ele><time>2026-04-14T08:45:57.999Z</time></trkpt><trkpt lat="38.10646776212727" lon="15.640493822724197"><ele>20.0</ele><time>2026-04-14T08:45:59.999Z</time></trkpt><trkpt lat="38.10653054296901" lon="15.640390053762932"><ele>20.0</ele><time>2026-04-14T08:46:01.999Z</time></trkpt><trkpt lat="38.10657562032184" lon="15.640315832554798"><ele>20.0</ele><time>2026-04-14T08:46:02.999Z</time></trkpt><trkpt lat="38.10662087538997" lon="15.64024801777712"><ele>20.0</ele><time>2026-04-14T08:46:03.999Z</time></trkpt><trkpt lat="38.106680527635085" lon="15.640145447561737"><ele>19.2</ele><time>2026-04-14T08:46:05.999Z</time></trkpt><trkpt lat="38.106758021466995" lon="15.64003787682275"><ele>18.4</ele><time>2026-04-14T08:46:07.999Z</time></trkpt><trkpt lat="38.10681636718148" lon="15.639943211338974"><ele>17.6</ele><time>2026-04-14T08:46:08.999Z</time></trkpt><trkpt lat="38.106876929336515" lon="15.639836059913149"><ele>16.8</ele><time>2026-04-14T08:46:09.999Z</time></trkpt><trkpt lat="38.10692798812347" lon="15.639748397478689"><ele>16.0</ele><time>2026-04-14T08:46:10.999Z</time></trkpt><trkpt lat="38.10698938004509" lon="15.639652918272704"><ele>16.0</ele><time>2026-04-14T08:46:12.999Z</time></trkpt><trkpt lat="38.10712764084326" lon="15.639787765892596"><ele>16.0</ele><time>2026-04-14T08:46:16.999Z</time></trkpt><trkpt lat="38.10719922771447" lon="15.63989696436848"><ele>16.0</ele><time>2026-04-14T08:46:17.999Z</time></trkpt><trkpt lat="38.10727248786681" lon="15.64000871525755"><ele>16.0</ele><time>2026-04-14T08:46:18.999Z</time></trkpt><trkpt lat="38.10734469450318" lon="15.640118859114363"><ele>15.0</ele><time>2026-04-14T08:46:19.999Z</time></trkpt><trkpt lat="38.10741530934177" lon="15.64022723499092"><ele>14.000000000000002</ele><time>2026-04-14T08:46:20.999Z</time></trkpt><trkpt lat="38.10748674938169" lon="15.640308103728753"><ele>13.0</ele><time>2026-04-14T08:46:21.999Z</time></trkpt><trkpt lat="38.107530391343545" lon="15.640383084137103"><ele>12.0</ele><time>2026-04-14T08:46:22.999Z</time></trkpt><trkpt lat="38.107590258550566" lon="15.640488528329186"><ele>11.0</ele><time>2026-04-14T08:46:24.999Z</time></trkpt><trkpt lat="38.10766638615962" lon="15.640330984095971"><ele>10.833333333333332</ele><time>2026-04-14T08:46:27.999Z</time></trkpt><trkpt lat="38.107633589340985" lon="15.64025429325918"><ele>10.666666666666666</ele><time>2026-04-14T08:46:28.999Z</time></trkpt><trkpt lat="38.10757267569361" lon="15.640172567550897"><ele>10.5</ele><time>2026-04-14T08:46:29.999Z</time></trkpt><trkpt lat="38.10750556353986" lon="15.6400875235994"><ele>10.333333333333334</ele><time>2026-04-14T08:46:30.999Z</time></trkpt><trkpt lat="38.10745050495284" lon="15.640012802635537"><ele>10.166666666666668</ele><time>2026-04-14T08:46:31.999Z</time></trkpt><trkpt lat="38.107413212628934" lon="15.639878344646293"><ele>10.0</ele><time>2026-04-14T08:46:33.999Z</time></trkpt><trkpt lat="38.107430820268334" lon="15.639773061479318"><ele>10.2</ele><time>2026-04-14T08:46:35.999Z</time></trkpt><trkpt lat="38.10738189785833" lon="15.63961787418378"><ele>10.4</ele><time>2026-04-14T08:46:38Z</time></trkpt><trkpt lat="38.107334079741214" lon="15.639533363933081"><ele>10.600000000000001</ele><time>2026-04-14T08:46:39Z</time></trkpt><trkpt lat="38.10728767728631" lon="15.639474564358762"><ele>10.8</ele><time>2026-04-14T08:46:40Z</time></trkpt><trkpt lat="38.10723256010768" lon="15.639429430578147"><ele>11.0</ele><time>2026-04-14T08:46:43Z</time></trkpt><trkpt lat="38.10714899631919" lon="15.639298500716013"><ele>11.0</ele><time>2026-04-14T08:46:45Z</time></trkpt><trkpt lat="38.107079552253325" lon="15.639197738209647"><ele>11.0</ele><time>2026-04-14T08:46:46Z</time></trkpt><trkpt lat="38.10698114934776" lon="15.639111340211965"><ele>11.0</ele><time>2026-04-14T08:46:47Z</time></trkpt><trkpt lat="38.106881388372976" lon="15.639028831932109"><ele>11.0</ele><time>2026-04-14T08:46:48Z</time></trkpt><trkpt lat="38.106801501835754" lon="15.638960930584103"><ele>11.0</ele><time>2026-04-14T08:46:49Z</time></trkpt><trkpt lat="38.10672830880577" lon="15.638897438924344"><ele>11.0</ele><time>2026-04-14T08:46:50Z</time></trkpt><trkpt lat="38.10665293112945" lon="15.638839653358684"><ele>11.0</ele><time>2026-04-14T08:46:51Z</time></trkpt><trkpt lat="38.1065817408272" lon="15.638788915381694"><ele>11.0</ele><time>2026-04-14T08:46:52Z</time></trkpt><trkpt lat="38.106517480522704" lon="15.638746261373758"><ele>11.0</ele><time>2026-04-14T08:46:53Z</time></trkpt><trkpt lat="38.10646008711986" lon="15.638708142246768"><ele>11.0</ele><time>2026-04-14T08:46:54Z</time></trkpt><trkpt lat="38.106389189633774" lon="15.638670628527047"><ele>11.0</ele><time>2026-04-14T08:46:55Z</time></trkpt><trkpt lat="38.10629813327883" lon="15.638615113995943"><ele>10.8</ele><time>2026-04-14T08:46:56Z</time></trkpt><trkpt lat="38.10620034014437" lon="15.638557258054366"><ele>10.600000000000001</ele><time>2026-04-14T08:46:57Z</time></trkpt><trkpt lat="38.10610148460893" lon="15.638508653477775"><ele>10.4</ele><time>2026-04-14T08:46:58Z</time></trkpt><trkpt lat="38.106003742467045" lon="15.63845671240651"><ele>10.2</ele><time>2026-04-14T08:46:59Z</time></trkpt><trkpt lat="38.105902489288766" lon="15.638405774206756"><ele>10.0</ele><time>2026-04-14T08:47:00Z</time></trkpt><trkpt lat="38.105803408473435" lon="15.638353707947182"><ele>10.2</ele><time>2026-04-14T08:47:01Z</time></trkpt><trkpt lat="38.105710475243036" lon="15.638293634897844"><ele>10.4</ele><time>2026-04-14T08:47:02Z</time></trkpt><trkpt lat="38.105625766529144" lon="15.63823929689878"><ele>10.600000000000001</ele><time>2026-04-14T08:47:03Z</time></trkpt><trkpt lat="38.10554584331482" lon="15.638191042477409"><ele>10.8</ele><time>2026-04-14T08:47:04Z</time></trkpt><trkpt lat="38.10546036292529" lon="15.638135086066164"><ele>11.0</ele><time>2026-04-14T08:47:05Z</time></trkpt><trkpt lat="38.105378380979246" lon="15.63807640805398"><ele>11.0</ele><time>2026-04-14T08:47:06Z</time></trkpt><trkpt lat="38.10529560098097" lon="15.638024982777315"><ele>11.0</ele><time>2026-04-14T08:47:07Z</time></trkpt><trkpt lat="38.10521625612926" lon="15.63796663870739"><ele>11.0</ele><time>2026-04-14T08:47:08Z</time></trkpt><trkpt lat="38.10514527032205" lon="15.63791548648448"><ele>11.0</ele><time>2026-04-14T08:47:09Z</time></trkpt><trkpt lat="38.10506470244407" lon="15.637844664649197"><ele>11.0</ele><time>2026-04-14T08:47:10Z</time></trkpt><trkpt lat="38.10499086303787" lon="15.63777819098721"><ele>10.666666666666666</ele><time>2026-04-14T08:47:11Z</time></trkpt><trkpt lat="38.104916342059106" lon="15.637712905785492"><ele>10.333333333333332</ele><time>2026-04-14T08:47:12Z</time></trkpt><trkpt lat="38.10485016134036" lon="15.637648326531703"><ele>10.0</ele><time>2026-04-14T08:47:13Z</time></trkpt><trkpt lat="38.104777807093065" lon="15.637588126071032"><ele>9.666666666666666</ele><time>2026-04-14T08:47:14Z</time></trkpt><trkpt lat="38.10469266308303" lon="15.637532939742538"><ele>9.333333333333334</ele><time>2026-04-14T08:47:15Z</time></trkpt><trkpt lat="38.104614683063055" lon="15.637492072832899"><ele>9.0</ele><time>2026-04-14T08:47:16Z</time></trkpt><trkpt lat="38.10453119841722" lon="15.6374502552595"><ele>10.2</ele><time>2026-04-14T08:47:17Z</time></trkpt><trkpt lat="38.1044504013023" lon="15.637407711795522"><ele>11.4</ele><time>2026-04-14T08:47:18Z</time></trkpt><trkpt lat="38.10436972611238" lon="15.637354929558544"><ele>12.6</ele><time>2026-04-14T08:47:18.999Z</time></trkpt><trkpt lat="38.10429659457891" lon="15.63728345454327"><ele>13.8</ele><time>2026-04-14T08:47:19.999Z</time></trkpt><trkpt lat="38.104221015124146" lon="15.637203809039777"><ele>15.0</ele><time>2026-04-14T08:47:20.999Z</time></trkpt><trkpt lat="38.10414982839326" lon="15.637118536011725"><ele>15.4</ele><time>2026-04-14T08:47:21.999Z</time></trkpt><trkpt lat="38.10407352471379" lon="15.637030433433546"><ele>15.8</ele><time>2026-04-14T08:47:22.999Z</time></trkpt><trkpt lat="38.1039916186963" lon="15.6369420668761"><ele>16.2</ele><time>2026-04-14T08:47:23.999Z</time></trkpt><trkpt lat="38.103913245834306" lon="15.63685831678629"><ele>16.6</ele><time>2026-04-14T08:47:24.999Z</time></trkpt><trkpt lat="38.103825572210205" lon="15.636775776643198"><ele>17.0</ele><time>2026-04-14T08:47:25.999Z</time></trkpt><trkpt lat="38.103744811770135" lon="15.636691122716368"><ele>15.8</ele><time>2026-04-14T08:47:26.999Z</time></trkpt><trkpt lat="38.103662176050115" lon="15.636606319789637"><ele>14.6</ele><time>2026-04-14T08:47:27.999Z</time></trkpt><trkpt lat="38.10357869179147" lon="15.636514812028155"><ele>13.4</ele><time>2026-04-14T08:47:28.999Z</time></trkpt><trkpt lat="38.10349408908753" lon="15.636418295853813"><ele>12.200000000000001</ele><time>2026-04-14T08:47:29.999Z</time></trkpt><trkpt lat="38.10340785029044" lon="15.63631937800865"><ele>11.0</ele><time>2026-04-14T08:47:30.999Z</time></trkpt><trkpt lat="38.10332155224929" lon="15.636215396947854"><ele>11.25</ele><time>2026-04-14T08:47:31.999Z</time></trkpt><trkpt lat="38.10323661126503" lon="15.636111612477572"><ele>11.5</ele><time>2026-04-14T08:47:32.999Z</time></trkpt><trkpt lat="38.10315149952919" lon="15.636011336973567"><ele>11.75</ele><time>2026-04-14T08:47:33.999Z</time></trkpt><trkpt lat="38.10306750333616" lon="15.635913602275302"><ele>12.0</ele><time>2026-04-14T08:47:34.999Z</time></trkpt><trkpt lat="38.10298207176572" lon="15.63581820679277"><ele>12.0</ele><time>2026-04-14T08:47:35.999Z</time></trkpt><trkpt lat="38.102900256078996" lon="15.635721585892009"><ele>12.0</ele><time>2026-04-14T08:47:36.999Z</time></trkpt><trkpt lat="38.102818115081206" lon="15.635618847007839"><ele>12.0</ele><time>2026-04-14T08:47:37.999Z</time></trkpt><trkpt lat="38.10273599138746" lon="15.635516174948226"><ele>12.0</ele><time>2026-04-14T08:47:38.999Z</time></trkpt><trkpt lat="38.10265196693697" lon="15.635420867978743"><ele>12.0</ele><time>2026-04-14T08:47:39.999Z</time></trkpt><trkpt lat="38.102567555520594" lon="15.63531648730528"><ele>12.0</ele><time>2026-04-14T08:47:40.999Z</time></trkpt><trkpt lat="38.10248301905413" lon="15.635214128358623"><ele>12.0</ele><time>2026-04-14T08:47:41.999Z</time></trkpt><trkpt lat="38.102397915562314" lon="15.635113903972137"><ele>12.0</ele><time>2026-04-14T08:47:42.999Z</time></trkpt><trkpt lat="38.102314276619474" lon="15.635012642517665"><ele>12.2</ele><time>2026-04-14T08:47:43.999Z</time></trkpt><trkpt lat="38.10222958488648" lon="15.63491532937691"><ele>12.399999999999999</ele><time>2026-04-14T08:47:44.999Z</time></trkpt><trkpt lat="38.10214421365137" lon="15.6348214126737"><ele>12.600000000000001</ele><time>2026-04-14T08:47:46Z</time></trkpt><trkpt lat="38.10206331338797" lon="15.634742678830364"><ele>12.8</ele><time>2026-04-14T08:47:47Z</time></trkpt><trkpt lat="38.10198864000116" lon="15.634682046287235"><ele>13.0</ele><time>2026-04-14T08:47:48Z</time></trkpt><trkpt lat="38.10191707095262" lon="15.634633927541929"><ele>13.0</ele><time>2026-04-14T08:47:49Z</time></trkpt><trkpt lat="38.10183549782008" lon="15.634674899838876"><ele>13.0</ele><time>2026-04-14T08:47:50Z</time></trkpt><trkpt lat="38.10175256953443" lon="15.634730392383073"><ele>13.0</ele><time>2026-04-14T08:47:51Z</time></trkpt><trkpt lat="38.101680304486635" lon="15.63480516435754"><ele>13.0</ele><time>2026-04-14T08:47:52Z</time></trkpt><trkpt lat="38.10160812510128" lon="15.634882762548289"><ele>13.0</ele><time>2026-04-14T08:47:53Z</time></trkpt><trkpt lat="38.101523453828925" lon="15.634950084108544"><ele>13.0</ele><time>2026-04-14T08:47:54Z</time></trkpt><trkpt lat="38.10144231657423" lon="15.63500660280895"><ele>13.0</ele><time>2026-04-14T08:47:55Z</time></trkpt><trkpt lat="38.101362728780124" lon="15.635034273392396"><ele>13.0</ele><time>2026-04-14T08:47:56Z</time></trkpt><trkpt lat="38.10129907399165" lon="15.63507040619104"><ele>13.0</ele><time>2026-04-14T08:47:57Z</time></trkpt><trkpt lat="38.10129609450882" lon="15.635250271693462"><ele>13.0</ele><time>2026-04-14T08:47:58Z</time></trkpt><trkpt lat="38.101280627740465" lon="15.635346228031809"><ele>13.0</ele><time>2026-04-14T08:47:59Z</time></trkpt><trkpt lat="38.10126330543243" lon="15.635433782136145"><ele>13.0</ele><time>2026-04-14T08:48:00Z</time></trkpt><trkpt lat="38.10123792104517" lon="15.63555517842804"><ele>13.0</ele><time>2026-04-14T08:48:01Z</time></trkpt><trkpt lat="38.10119741699974" lon="15.635751626208998"><ele>13.0</ele><time>2026-04-14T08:48:02Z</time></trkpt><trkpt lat="38.101146920385126" lon="15.6360074076202"><ele>14.666666666666666</ele><time>2026-04-14T08:48:03Z</time></trkpt><trkpt lat="38.10110127902009" lon="15.636271788794305"><ele>16.333333333333332</ele><time>2026-04-14T08:48:04Z</time></trkpt><trkpt lat="38.10108750399445" lon="15.63645976994584"><ele>18.0</ele><time>2026-04-14T08:48:05Z</time></trkpt><trkpt lat="38.10109133003307" lon="15.636605548020746"><ele>18.0</ele><time>2026-04-14T08:48:06Z</time></trkpt><trkpt lat="38.10108707753809" lon="15.636749793013168"><ele>18.0</ele><time>2026-04-14T08:48:07Z</time></trkpt><trkpt lat="38.10107063874544" lon="15.636884165360582"><ele>18.0</ele><time>2026-04-14T08:48:08Z</time></trkpt><trkpt lat="38.10105052385569" lon="15.637014967148259"><ele>18.0</ele><time>2026-04-14T08:48:09Z</time></trkpt><trkpt lat="38.10103851516956" lon="15.637151370716456"><ele>18.0</ele><time>2026-04-14T08:48:10Z</time></trkpt><trkpt lat="38.10103356451343" lon="15.63728658436362"><ele>17.8</ele><time>2026-04-14T08:48:11Z</time></trkpt><trkpt lat="38.10103029235557" lon="15.637417695075962"><ele>17.6</ele><time>2026-04-14T08:48:12Z</time></trkpt><trkpt lat="38.10102878458501" lon="15.637545324902783"><ele>17.4</ele><time>2026-04-14T08:48:13Z</time></trkpt><trkpt lat="38.10102496298428" lon="15.637671590689765"><ele>17.2</ele><time>2026-04-14T08:48:14Z</time></trkpt><trkpt lat="38.10101492681196" lon="15.637795810356154"><ele>17.0</ele><time>2026-04-14T08:48:15Z</time></trkpt><trkpt lat="38.101006692632104" lon="15.63790991955317"><ele>16.833333333333336</ele><time>2026-04-14T08:48:16Z</time></trkpt><trkpt lat="38.10099874753407" lon="15.637999584955809"><ele>16.666666666666668</ele><time>2026-04-14T08:48:17Z</time></trkpt><trkpt lat="38.1009714340525" lon="15.638162270481565"><ele>16.5</ele><time>2026-04-14T08:48:19Z</time></trkpt><trkpt lat="38.1009713466041" lon="15.638261273529679"><ele>16.333333333333332</ele><time>2026-04-14T08:48:20Z</time></trkpt><trkpt lat="38.10098725578822" lon="15.638355689453071"><ele>16.166666666666664</ele><time>2026-04-14T08:48:21Z</time></trkpt><trkpt lat="38.100997699873055" lon="15.638437509230739"><ele>16.0</ele><time>2026-04-14T08:48:22Z</time></trkpt><trkpt lat="38.10100642982778" lon="15.63859736893887"><ele>16.333333333333332</ele><time>2026-04-14T08:48:24Z</time></trkpt><trkpt lat="38.101016787177606" lon="15.63869083610983"><ele>16.666666666666664</ele><time>2026-04-14T08:48:25Z</time></trkpt><trkpt lat="38.10103280135452" lon="15.638777623470629"><ele>17.0</ele><time>2026-04-14T08:48:26Z</time></trkpt><trkpt lat="38.10103615424603" lon="15.638857640027412"><ele>17.333333333333332</ele><time>2026-04-14T08:48:27Z</time></trkpt><trkpt lat="38.10104751859526" lon="15.638988483698151"><ele>17.666666666666668</ele><time>2026-04-14T08:48:29Z</time></trkpt><trkpt lat="38.10105467812264" lon="15.639085942533795"><ele>18.0</ele><time>2026-04-14T08:48:31Z</time></trkpt><trkpt lat="38.101071230506605" lon="15.639222381385274"><ele>18.0</ele><time>2026-04-14T08:48:33Z</time></trkpt><trkpt lat="38.10107848268992" lon="15.639309903494839"><ele>18.0</ele><time>2026-04-14T08:48:34Z</time></trkpt><trkpt lat="38.10108040408419" lon="15.639404306197477"><ele>18.0</ele><time>2026-04-14T08:48:35Z</time></trkpt><trkpt lat="38.101082938263026" lon="15.639504759338974"><ele>18.0</ele><time>2026-04-14T08:48:36Z</time></trkpt><trkpt lat="38.10108877825643" lon="15.639585366785374"><ele>18.0</ele><time>2026-04-14T08:48:37Z</time></trkpt><trkpt lat="38.101122692046175" lon="15.639738639448007"><ele>18.0</ele><time>2026-04-14T08:48:39Z</time></trkpt><trkpt lat="38.10113878822283" lon="15.639845613512858"><ele>18.5</ele><time>2026-04-14T08:48:40Z</time></trkpt><trkpt lat="38.101145538437144" lon="15.639971674078225"><ele>19.0</ele><time>2026-04-14T08:48:41Z</time></trkpt><trkpt lat="38.10114780711148" lon="15.640100476794562"><ele>19.5</ele><time>2026-04-14T08:48:42Z</time></trkpt><trkpt lat="38.10115763752383" lon="15.640252882616867"><ele>20.0</ele><time>2026-04-14T08:48:43Z</time></trkpt><trkpt lat="38.101174061189276" lon="15.64045152584806"><ele>20.25</ele><time>2026-04-14T08:48:44Z</time></trkpt><trkpt lat="38.1011943846052" lon="15.640680046382021"><ele>20.5</ele><time>2026-04-14T08:48:45Z</time></trkpt><trkpt lat="38.10121089127114" lon="15.640872729895548"><ele>20.75</ele><time>2026-04-14T08:48:46Z</time></trkpt><trkpt lat="38.101205295611386" lon="15.641016926256347"><ele>21.0</ele><time>2026-04-14T08:48:47Z</time></trkpt><trkpt lat="38.10121989716296" lon="15.641164655104083"><ele>21.8</ele><time>2026-04-14T08:48:48Z</time></trkpt><trkpt lat="38.1012356066695" lon="15.641312371776644"><ele>22.6</ele><time>2026-04-14T08:48:49Z</time></trkpt><trkpt lat="38.101244236558934" lon="15.641440420689742"><ele>23.4</ele><time>2026-04-14T08:48:50Z</time></trkpt><trkpt lat="38.10125541521126" lon="15.641535564962886"><ele>24.2</ele><time>2026-04-14T08:48:51Z</time></trkpt><trkpt lat="38.10126819827891" lon="15.641626315191711"><ele>25.0</ele><time>2026-04-14T08:48:52Z</time></trkpt><trkpt lat="38.10128380381461" lon="15.641788899389464"><ele>25.000000000000004</ele><time>2026-04-14T08:48:54Z</time></trkpt><trkpt lat="38.10128890765526" lon="15.641872588506612"><ele>25.0</ele><time>2026-04-14T08:48:55Z</time></trkpt><trkpt lat="38.10130324639202" lon="15.641971631654663"><ele>25.0</ele><time>2026-04-14T08:48:56Z</time></trkpt><trkpt lat="38.10132840366134" lon="15.642073860470722"><ele>25.0</ele><time>2026-04-14T08:48:57Z</time></trkpt><trkpt lat="38.101348177958954" lon="15.642165901046656"><ele>25.000000000000004</ele><time>2026-04-14T08:48:58Z</time></trkpt><trkpt lat="38.10136520870485" lon="15.64227880685302"><ele>25.0</ele><time>2026-04-14T08:48:59Z</time></trkpt><trkpt lat="38.101378841630385" lon="15.64240238959592"><ele>26.5</ele><time>2026-04-14T08:49:00Z</time></trkpt><trkpt lat="38.1013836548374" lon="15.642537768657274"><ele>28.0</ele><time>2026-04-14T08:49:01Z</time></trkpt><trkpt lat="38.10139289605327" lon="15.642677016269962"><ele>29.5</ele><time>2026-04-14T08:49:02Z</time></trkpt><trkpt lat="38.10140534354627" lon="15.64282449661947"><ele>31.0</ele><time>2026-04-14T08:49:03Z</time></trkpt><trkpt lat="38.10142167584056" lon="15.642980679709241"><ele>32.0</ele><time>2026-04-14T08:49:04Z</time></trkpt><trkpt lat="38.101437181743556" lon="15.643146478814176"><ele>33.0</ele><time>2026-04-14T08:49:05Z</time></trkpt><trkpt lat="38.10145575730215" lon="15.6433209084784"><ele>34.0</ele><time>2026-04-14T08:49:06Z</time></trkpt><trkpt lat="38.10147396839337" lon="15.643510582214777"><ele>35.0</ele><time>2026-04-14T08:49:07Z</time></trkpt><trkpt lat="38.10149308118023" lon="15.643712463384118"><ele>35.33333333333333</ele><time>2026-04-14T08:49:08Z</time></trkpt><trkpt lat="38.101508839941985" lon="15.643920964030952"><ele>35.666666666666664</ele><time>2026-04-14T08:49:09Z</time></trkpt><trkpt lat="38.10152030784744" lon="15.644134003258188"><ele>36.0</ele><time>2026-04-14T08:49:10Z</time></trkpt><trkpt lat="38.10153237415934" lon="15.644347762600843"><ele>35.0</ele><time>2026-04-14T08:49:11Z</time></trkpt><trkpt lat="38.101543171584076" lon="15.644568098239418"><ele>34.0</ele><time>2026-04-14T08:49:12Z</time></trkpt><trkpt lat="38.101552227520045" lon="15.64478626936553"><ele>33.0</ele><time>2026-04-14T08:49:13Z</time></trkpt><trkpt lat="38.10156309026183" lon="15.645022188723134"><ele>33.0</ele><time>2026-04-14T08:49:14Z</time></trkpt><trkpt lat="38.10156834873488" lon="15.645269335854024"><ele>33.0</ele><time>2026-04-14T08:49:15Z</time></trkpt><trkpt lat="38.10156866998865" lon="15.645530242705885"><ele>33.0</ele><time>2026-04-14T08:49:16Z</time></trkpt><trkpt lat="38.1015659548401" lon="15.645777654559765"><ele>33.0</ele><time>2026-04-14T08:49:17Z</time></trkpt><trkpt lat="38.10155970432301" lon="15.646003406872804"><ele>33.0</ele><time>2026-04-14T08:49:18Z</time></trkpt><trkpt lat="38.101548965468155" lon="15.646235843893287"><ele>33.0</ele><time>2026-04-14T08:49:19Z</time></trkpt><trkpt lat="38.10153769536886" lon="15.64645290328914"><ele>33.666666666666664</ele><time>2026-04-14T08:49:20Z</time></trkpt><trkpt lat="38.10152907170889" lon="15.646668406219886"><ele>34.33333333333333</ele><time>2026-04-14T08:49:21Z</time></trkpt><trkpt lat="38.10151428267064" lon="15.646882268427666"><ele>35.0</ele><time>2026-04-14T08:49:22Z</time></trkpt><trkpt lat="38.10150209216106" lon="15.647086491030874"><ele>35.0</ele><time>2026-04-14T08:49:23Z</time></trkpt><trkpt lat="38.10148645756717" lon="15.647296582636848"><ele>35.0</ele><time>2026-04-14T08:49:24Z</time></trkpt><trkpt lat="38.10146884567239" lon="15.647508869606513"><ele>35.0</ele><time>2026-04-14T08:49:25Z</time></trkpt><trkpt lat="38.1014512925538" lon="15.647734223652455"><ele>36.33333333333333</ele><time>2026-04-14T08:49:26Z</time></trkpt><trkpt lat="38.10143275360327" lon="15.647966247747448"><ele>37.666666666666664</ele><time>2026-04-14T08:49:27Z</time></trkpt><trkpt lat="38.101411388232414" lon="15.64818394909736"><ele>39.0</ele><time>2026-04-14T08:49:28Z</time></trkpt><trkpt lat="38.10139195077671" lon="15.648411386056038"><ele>40.0</ele><time>2026-04-14T08:49:29Z</time></trkpt><trkpt lat="38.101369296747954" lon="15.648635800355574"><ele>41.0</ele><time>2026-04-14T08:49:30Z</time></trkpt><trkpt lat="38.10134387915707" lon="15.648857169899783"><ele>42.0</ele><time>2026-04-14T08:49:31Z</time></trkpt><trkpt lat="38.101320459890516" lon="15.649079203518678"><ele>42.0</ele><time>2026-04-14T08:49:32Z</time></trkpt><trkpt lat="38.10129947148898" lon="15.649305308873283"><ele>42.0</ele><time>2026-04-14T08:49:33Z</time></trkpt><trkpt lat="38.1012792777679" lon="15.649529553554023"><ele>42.0</ele><time>2026-04-14T08:49:34Z</time></trkpt><trkpt lat="38.10126072350874" lon="15.649760606158097"><ele>42.0</ele><time>2026-04-14T08:49:35Z</time></trkpt><trkpt lat="38.101237643755404" lon="15.649997879636441"><ele>42.0</ele><time>2026-04-14T08:49:36Z</time></trkpt><trkpt lat="38.101211190828955" lon="15.650240112153538"><ele>42.0</ele><time>2026-04-14T08:49:37Z</time></trkpt><trkpt lat="38.10118493635918" lon="15.650477291970043"><ele>41.666666666666664</ele><time>2026-04-14T08:49:38Z</time></trkpt><trkpt lat="38.10115752104884" lon="15.65069446139205"><ele>41.33333333333333</ele><time>2026-04-14T08:49:39Z</time></trkpt><trkpt lat="38.10112139198899" lon="15.650911560723525"><ele>41.0</ele><time>2026-04-14T08:49:40Z</time></trkpt><trkpt lat="38.10108798172002" lon="15.651136535307572"><ele>42.0</ele><time>2026-04-14T08:49:41Z</time></trkpt><trkpt lat="38.101053421608825" lon="15.651374600260974"><ele>43.0</ele><time>2026-04-14T08:49:42Z</time></trkpt><trkpt lat="38.101023828565445" lon="15.651602640843333"><ele>44.0</ele><time>2026-04-14T08:49:43Z</time></trkpt><trkpt lat="38.100983717203476" lon="15.651838903640597"><ele>44.33333333333333</ele><time>2026-04-14T08:49:44Z</time></trkpt><trkpt lat="38.10093652430876" lon="15.652076015363516"><ele>44.666666666666664</ele><time>2026-04-14T08:49:45Z</time></trkpt><trkpt lat="38.100888038618436" lon="15.65232139067709"><ele>45.0</ele><time>2026-04-14T08:49:46Z</time></trkpt><trkpt lat="38.10084164490862" lon="15.652560301759738"><ele>45.333333333333336</ele><time>2026-04-14T08:49:47Z</time></trkpt><trkpt lat="38.100796301754485" lon="15.652811662408785"><ele>45.66666666666667</ele><time>2026-04-14T08:49:48Z</time></trkpt><trkpt lat="38.100745285794" lon="15.653080452226979"><ele>46.0</ele><time>2026-04-14T08:49:49Z</time></trkpt><trkpt lat="38.100685998328764" lon="15.653368979810562"><ele>47.5</ele><time>2026-04-14T08:49:50Z</time></trkpt><trkpt lat="38.10062982388688" lon="15.653669119108427"><ele>49.0</ele><time>2026-04-14T08:49:51Z</time></trkpt><trkpt lat="38.10059993368344" lon="15.653930242858262"><ele>49.0</ele><time>2026-04-14T08:49:52Z</time></trkpt><trkpt lat="38.10051332167518" lon="15.654312014862937"><ele>49.0</ele><time>2026-04-14T08:49:53Z</time></trkpt><trkpt lat="38.10045342587968" lon="15.654617187950295"><ele>50.0</ele><time>2026-04-14T08:49:54Z</time></trkpt><trkpt lat="38.10039899412249" lon="15.654889608206133"><ele>51.0</ele><time>2026-04-14T08:49:55Z</time></trkpt><trkpt lat="38.10035320417997" lon="15.655123225182772"><ele>52.0</ele><time>2026-04-14T08:49:56Z</time></trkpt><trkpt lat="38.10031600983461" lon="15.65532071543866"><ele>53.5</ele><time>2026-04-14T08:49:57Z</time></trkpt><trkpt lat="38.10028102618448" lon="15.655493069172534"><ele>55.0</ele><time>2026-04-14T08:49:58Z</time></trkpt><trkpt lat="38.1002552386371" lon="15.655645393418425"><ele>56.5</ele><time>2026-04-14T08:49:59Z</time></trkpt><trkpt lat="38.10023240947899" lon="15.655770381042792"><ele>58.0</ele><time>2026-04-14T08:50:00Z</time></trkpt><trkpt lat="38.100225047711966" lon="15.655891475715938"><ele>57.99999999999999</ele><time>2026-04-14T08:50:01Z</time></trkpt><trkpt lat="38.10015754751921" lon="15.655972941208546"><ele>58.0</ele><time>2026-04-14T08:50:02Z</time></trkpt><trkpt lat="38.10009098629004" lon="15.656016942730993"><ele>58.0</ele><time>2026-04-14T08:50:03Z</time></trkpt><trkpt lat="38.10001392166194" lon="15.656042102825865"><ele>58.0</ele><time>2026-04-14T08:50:04Z</time></trkpt><trkpt lat="38.099938203116146" lon="15.65610484906482"><ele>57.99999999999999</ele><time>2026-04-14T08:50:06Z</time></trkpt><trkpt lat="38.09994376377814" lon="15.656185989532277"><ele>58.0</ele><time>2026-04-14T08:50:08Z</time></trkpt><trkpt lat="38.099921007271284" lon="15.656265666875248"><ele>58.666666666666664</ele><time>2026-04-14T08:52:33Z</time></trkpt><trkpt lat="38.09996614278108" lon="15.656338064878039"><ele>59.33333333333333</ele><time>2026-04-14T08:52:34Z</time></trkpt><trkpt lat="38.10002510301252" lon="15.656399397849036"><ele>60.0</ele><time>2026-04-14T08:52:35Z</time></trkpt><trkpt lat="38.100049537659814" lon="15.656493931817323"><ele>60.66666666666667</ele><time>2026-04-14T08:52:36Z</time></trkpt><trkpt lat="38.100054794372355" lon="15.65659993713308"><ele>61.333333333333336</ele><time>2026-04-14T08:52:37Z</time></trkpt><trkpt lat="38.10004471908416" lon="15.656718231825828"><ele>62.0</ele><time>2026-04-14T08:52:38Z</time></trkpt><trkpt lat="38.10001891029086" lon="15.656839939239568"><ele>62.0</ele><time>2026-04-14T08:52:39Z</time></trkpt><trkpt lat="38.09998313002841" lon="15.656959072135328"><ele>62.0</ele><time>2026-04-14T08:52:40Z</time></trkpt><trkpt lat="38.099948623897156" lon="15.657098106723426"><ele>62.0</ele><time>2026-04-14T08:52:40.999Z</time></trkpt><trkpt lat="38.09992005093905" lon="15.65726572002821"><ele>62.0</ele><time>2026-04-14T08:52:41.999Z</time></trkpt><trkpt lat="38.09988160367479" lon="15.65744360560504"><ele>61.333333333333336</ele><time>2026-04-14T08:52:42.999Z</time></trkpt><trkpt lat="38.099847192002144" lon="15.657629441079164"><ele>60.66666666666667</ele><time>2026-04-14T08:52:43.999Z</time></trkpt><trkpt lat="38.099817449240795" lon="15.657822963173592"><ele>60.0</ele><time>2026-04-14T08:52:44.999Z</time></trkpt><trkpt lat="38.099803771212045" lon="15.658017751050116"><ele>62.66666666666667</ele><time>2026-04-14T08:52:45.999Z</time></trkpt><trkpt lat="38.09981044012392" lon="15.658213932603692"><ele>65.33333333333334</ele><time>2026-04-14T08:52:46.999Z</time></trkpt><trkpt lat="38.099833012541" lon="15.658412208663638"><ele>68.0</ele><time>2026-04-14T08:52:47.999Z</time></trkpt><trkpt lat="38.0998539509077" lon="15.658601798122763"><ele>69.75</ele><time>2026-04-14T08:52:48.999Z</time></trkpt><trkpt lat="38.09987397283827" lon="15.658781163881237"><ele>71.5</ele><time>2026-04-14T08:52:49.999Z</time></trkpt><trkpt lat="38.09988656869317" lon="15.6589424489229"><ele>73.25</ele><time>2026-04-14T08:52:50.999Z</time></trkpt><trkpt lat="38.09987323310148" lon="15.65909053157032"><ele>75.0</ele><time>2026-04-14T08:52:51.999Z</time></trkpt><trkpt lat="38.099831709730196" lon="15.659229095292027"><ele>75.0</ele><time>2026-04-14T08:52:52.999Z</time></trkpt><trkpt lat="38.09976053965958" lon="15.65933500724662"><ele>75.0</ele><time>2026-04-14T08:52:53.999Z</time></trkpt><trkpt lat="38.09966443560483" lon="15.659410095570603"><ele>75.0</ele><time>2026-04-14T08:52:54.999Z</time></trkpt><trkpt lat="38.09954113729385" lon="15.659438946535143"><ele>75.0</ele><time>2026-04-14T08:52:56Z</time></trkpt><trkpt lat="38.099423856312846" lon="15.659458204322197"><ele>76.25</ele><time>2026-04-14T08:52:57Z</time></trkpt><trkpt lat="38.099305539797115" lon="15.659469802307168"><ele>77.5</ele><time>2026-04-14T08:52:58Z</time></trkpt><trkpt lat="38.09917939098232" lon="15.659487481933382"><ele>78.75</ele><time>2026-04-14T08:52:59Z</time></trkpt><trkpt lat="38.09904434201374" lon="15.659505997718666"><ele>80.0</ele><time>2026-04-14T08:53:00Z</time></trkpt><trkpt lat="38.09890391283671" lon="15.659521549036427"><ele>82.33333333333334</ele><time>2026-04-14T08:53:01Z</time></trkpt><trkpt lat="38.09875902661943" lon="15.659524904930022"><ele>84.66666666666667</ele><time>2026-04-14T08:53:02Z</time></trkpt><trkpt lat="38.098605404380024" lon="15.659514459133298"><ele>87.0</ele><time>2026-04-14T08:53:03Z</time></trkpt><trkpt lat="38.09844252924366" lon="15.65949786227436"><ele>87.0</ele><time>2026-04-14T08:53:04Z</time></trkpt><trkpt lat="38.09827393796497" lon="15.659476766549725"><ele>87.0</ele><time>2026-04-14T08:53:05Z</time></trkpt><trkpt lat="38.09810306194664" lon="15.659451476700589"><ele>87.0</ele><time>2026-04-14T08:53:06Z</time></trkpt><trkpt lat="38.097930000366446" lon="15.65942029793322"><ele>87.0</ele><time>2026-04-14T08:53:07Z</time></trkpt><trkpt lat="38.097752633392396" lon="15.659385916183757"><ele>87.0</ele><time>2026-04-14T08:53:08Z</time></trkpt><trkpt lat="38.09757240618694" lon="15.659345305063056"><ele>87.0</ele><time>2026-04-14T08:53:09Z</time></trkpt><trkpt lat="38.0973937591097" lon="15.659299080842592"><ele>90.0</ele><time>2026-04-14T08:53:10Z</time></trkpt><trkpt lat="38.097209201165676" lon="15.659250460283708"><ele>93.0</ele><time>2026-04-14T08:53:11Z</time></trkpt><trkpt lat="38.09702432615408" lon="15.659205991491064"><ele>96.0</ele><time>2026-04-14T08:53:12Z</time></trkpt><trkpt lat="38.09683558580158" lon="15.659162205402744"><ele>96.0</ele><time>2026-04-14T08:53:13Z</time></trkpt><trkpt lat="38.09664772120365" lon="15.659117996148991"><ele>96.0</ele><time>2026-04-14T08:53:14Z</time></trkpt><trkpt lat="38.096460583872116" lon="15.659074088241372"><ele>96.0</ele><time>2026-04-14T08:53:15Z</time></trkpt><trkpt lat="38.096272808899776" lon="15.659028192600685"><ele>97.0</ele><time>2026-04-14T08:53:16Z</time></trkpt><trkpt lat="38.09608349461314" lon="15.658986352231135"><ele>98.0</ele><time>2026-04-14T08:53:17Z</time></trkpt><trkpt lat="38.095892151684204" lon="15.658956465375551"><ele>99.0</ele><time>2026-04-14T08:53:18Z</time></trkpt><trkpt lat="38.095695005163485" lon="15.658937028123002"><ele>100.0</ele><time>2026-04-14T08:53:19Z</time></trkpt><trkpt lat="38.09549775437969" lon="15.658928455618565"><ele>101.0</ele><time>2026-04-14T08:53:20Z</time></trkpt><trkpt lat="38.0952964380647" lon="15.6589260944787"><ele>102.0</ele><time>2026-04-14T08:53:21Z</time></trkpt><trkpt lat="38.09509375991109" lon="15.658933672362835"><ele>101.33333333333334</ele><time>2026-04-14T08:53:22Z</time></trkpt><trkpt lat="38.094893520381305" lon="15.658948098389855"><ele>100.66666666666667</ele><time>2026-04-14T08:53:23Z</time></trkpt><trkpt lat="38.09469340184956" lon="15.65897067447939"><ele>100.0</ele><time>2026-04-14T08:53:24Z</time></trkpt><trkpt lat="38.09448840304269" lon="15.659002056963622"><ele>100.0</ele><time>2026-04-14T08:53:25Z</time></trkpt><trkpt lat="38.09427932288764" lon="15.659043172356961"><ele>100.0</ele><time>2026-04-14T08:53:26Z</time></trkpt><trkpt lat="38.094068740576866" lon="15.659101389229132"><ele>100.0</ele><time>2026-04-14T08:53:27Z</time></trkpt><trkpt lat="38.09385635472408" lon="15.659174491170521"><ele>99.66666666666667</ele><time>2026-04-14T08:53:28Z</time></trkpt><trkpt lat="38.093647410706545" lon="15.659250345012177"><ele>99.33333333333334</ele><time>2026-04-14T08:53:29Z</time></trkpt><trkpt lat="38.093433562673205" lon="15.659325335718979"><ele>99.0</ele><time>2026-04-14T08:53:30Z</time></trkpt><trkpt lat="38.09321588390955" lon="15.65940175421217"><ele>98.5</ele><time>2026-04-14T08:53:31Z</time></trkpt><trkpt lat="38.09299902798094" lon="15.659474676646306"><ele>98.0</ele><time>2026-04-14T08:53:32Z</time></trkpt><trkpt lat="38.09277993915947" lon="15.659544834074612"><ele>98.0</ele><time>2026-04-14T08:53:33Z</time></trkpt><trkpt lat="38.09255903263484" lon="15.65961012561907"><ele>98.0</ele><time>2026-04-14T08:53:34Z</time></trkpt><trkpt lat="38.09233802918342" lon="15.659684244648387"><ele>96.5</ele><time>2026-04-14T08:53:35Z</time></trkpt><trkpt lat="38.09211844981948" lon="15.65976985100902"><ele>95.0</ele><time>2026-04-14T08:53:36Z</time></trkpt><trkpt lat="38.091904921982476" lon="15.659865303608868"><ele>95.0</ele><time>2026-04-14T08:53:37Z</time></trkpt><trkpt lat="38.09169127904204" lon="15.659970535034057"><ele>95.0</ele><time>2026-04-14T08:53:38Z</time></trkpt><trkpt lat="38.09148391523399" lon="15.660081285838183"><ele>89.0</ele><time>2026-04-14T08:53:39Z</time></trkpt><trkpt lat="38.09127568832358" lon="15.660197599748086"><ele>83.0</ele><time>2026-04-14T08:53:40Z</time></trkpt><trkpt lat="38.091073468311855" lon="15.66031931376901"><ele>83.0</ele><time>2026-04-14T08:53:41Z</time></trkpt><trkpt lat="38.090873529289524" lon="15.660447009480567"><ele>83.0</ele><time>2026-04-14T08:53:42Z</time></trkpt><trkpt lat="38.09067680103884" lon="15.660575492952983"><ele>83.0</ele><time>2026-04-14T08:53:43Z</time></trkpt><trkpt lat="38.090480512046966" lon="15.660700101050342"><ele>81.33333333333334</ele><time>2026-04-14T08:53:44Z</time></trkpt><trkpt lat="38.09028397636714" lon="15.66082211815967"><ele>79.66666666666667</ele><time>2026-04-14T08:53:45Z</time></trkpt><trkpt lat="38.090084257130755" lon="15.660944965750609"><ele>78.0</ele><time>2026-04-14T08:53:46Z</time></trkpt><trkpt lat="38.08989045720431" lon="15.661068222304944"><ele>78.0</ele><time>2026-04-14T08:53:47Z</time></trkpt><trkpt lat="38.08969678724027" lon="15.661189653163788"><ele>78.0</ele><time>2026-04-14T08:53:48Z</time></trkpt><trkpt lat="38.08949858132726" lon="15.661311826340347"><ele>78.0</ele><time>2026-04-14T08:53:49Z</time></trkpt><trkpt lat="38.08930148888284" lon="15.661435504021888"><ele>78.0</ele><time>2026-04-14T08:53:50Z</time></trkpt><trkpt lat="38.08911154594775" lon="15.66155817138152"><ele>78.0</ele><time>2026-04-14T08:53:51Z</time></trkpt><trkpt lat="38.0889199436514" lon="15.66168007643004"><ele>78.0</ele><time>2026-04-14T08:53:52Z</time></trkpt><trkpt lat="38.088729194376725" lon="15.66180147602879"><ele>76.0</ele><time>2026-04-14T08:53:53Z</time></trkpt><trkpt lat="38.088538417703006" lon="15.66192338877008"><ele>74.0</ele><time>2026-04-14T08:53:54Z</time></trkpt><trkpt lat="38.08834828239426" lon="15.662043744242666"><ele>72.0</ele><time>2026-04-14T08:53:55Z</time></trkpt><trkpt lat="38.088159191555015" lon="15.662165134691515"><ele>71.33333333333333</ele><time>2026-04-14T08:53:56Z</time></trkpt><trkpt lat="38.087969737062515" lon="15.66228396300328"><ele>70.66666666666666</ele><time>2026-04-14T08:53:57Z</time></trkpt><trkpt lat="38.087782478613825" lon="15.662403363583703"><ele>70.0</ele><time>2026-04-14T08:53:58Z</time></trkpt><trkpt lat="38.0875963167007" lon="15.662521084663645"><ele>70.33333333333333</ele><time>2026-04-14T08:53:59Z</time></trkpt><trkpt lat="38.08741064115232" lon="15.662637995650481"><ele>70.66666666666667</ele><time>2026-04-14T08:54:00Z</time></trkpt><trkpt lat="38.08722571670503" lon="15.66275330745403"><ele>71.0</ele><time>2026-04-14T08:54:01Z</time></trkpt><trkpt lat="38.087041410378376" lon="15.662868476591763"><ele>71.0</ele><time>2026-04-14T08:54:02Z</time></trkpt><trkpt lat="38.08685656898175" lon="15.66298376309726"><ele>71.0</ele><time>2026-04-14T08:54:03Z</time></trkpt><trkpt lat="38.08667167230412" lon="15.66310041872891"><ele>71.0</ele><time>2026-04-14T08:54:04Z</time></trkpt><trkpt lat="38.0864871475439" lon="15.663219439673899"><ele>71.33333333333334</ele><time>2026-04-14T08:54:05Z</time></trkpt><trkpt lat="38.08630153550751" lon="15.66334054131481"><ele>71.66666666666667</ele><time>2026-04-14T08:54:06Z</time></trkpt><trkpt lat="38.08611672689686" lon="15.663460967042916"><ele>72.0</ele><time>2026-04-14T08:54:07Z</time></trkpt><trkpt lat="38.085928516089105" lon="15.663578501018874"><ele>75.0</ele><time>2026-04-14T08:54:08Z</time></trkpt><trkpt lat="38.08574073270094" lon="15.663691013170254"><ele>78.0</ele><time>2026-04-14T08:54:09Z</time></trkpt><trkpt lat="38.08554879418131" lon="15.663797988859104"><ele>81.0</ele><time>2026-04-14T08:54:10Z</time></trkpt><trkpt lat="38.08535545941945" lon="15.663891789109814"><ele>81.0</ele><time>2026-04-14T08:54:11Z</time></trkpt><trkpt lat="38.08515922377799" lon="15.663973598964157"><ele>81.0</ele><time>2026-04-14T08:54:12Z</time></trkpt><trkpt lat="38.084957598497716" lon="15.664040846610268"><ele>81.0</ele><time>2026-04-14T08:54:13Z</time></trkpt><trkpt lat="38.084756178138434" lon="15.664094796116768"><ele>80.0</ele><time>2026-04-14T08:54:14Z</time></trkpt><trkpt lat="38.08455150756647" lon="15.664145119220137"><ele>79.0</ele><time>2026-04-14T08:54:15Z</time></trkpt><trkpt lat="38.08435122996861" lon="15.664190356783068"><ele>78.0</ele><time>2026-04-14T08:54:16Z</time></trkpt><trkpt lat="38.08415345580155" lon="15.6642283906167"><ele>77.0</ele><time>2026-04-14T08:54:17Z</time></trkpt><trkpt lat="38.08395196609973" lon="15.664242569844584"><ele>76.0</ele><time>2026-04-14T08:54:18Z</time></trkpt><trkpt lat="38.08375174779528" lon="15.664240884641893"><ele>75.0</ele><time>2026-04-14T08:54:19Z</time></trkpt><trkpt lat="38.083556871767385" lon="15.664237624044516"><ele>75.0</ele><time>2026-04-14T08:54:20Z</time></trkpt><trkpt lat="38.08336300785796" lon="15.664238826237431"><ele>75.0</ele><time>2026-04-14T08:54:21Z</time></trkpt><trkpt lat="38.083168862881436" lon="15.664245317463584"><ele>75.0</ele><time>2026-04-14T08:54:22Z</time></trkpt><trkpt lat="38.08297778444707" lon="15.664251502044204"><ele>73.66666666666667</ele><time>2026-04-14T08:54:23Z</time></trkpt><trkpt lat="38.08278612081397" lon="15.66426304312062"><ele>72.33333333333334</ele><time>2026-04-14T08:54:24Z</time></trkpt><trkpt lat="38.08259879177943" lon="15.664279576486374"><ele>71.0</ele><time>2026-04-14T08:54:25Z</time></trkpt><trkpt lat="38.08240944085045" lon="15.66429189338112"><ele>70.66666666666667</ele><time>2026-04-14T08:54:26Z</time></trkpt><trkpt lat="38.082223664136336" lon="15.664297064101977"><ele>70.33333333333333</ele><time>2026-04-14T08:54:27Z</time></trkpt><trkpt lat="38.08203791145255" lon="15.66430212684677"><ele>70.0</ele><time>2026-04-14T08:54:28Z</time></trkpt><trkpt lat="38.081853410352586" lon="15.664311812966824"><ele>70.0</ele><time>2026-04-14T08:54:29Z</time></trkpt><trkpt lat="38.08167226863031" lon="15.664317278925477"><ele>70.0</ele><time>2026-04-14T08:54:30Z</time></trkpt><trkpt lat="38.081491942024826" lon="15.66432683054635"><ele>70.0</ele><time>2026-04-14T08:54:31Z</time></trkpt><trkpt lat="38.08131304533563" lon="15.664335507804797"><ele>69.66666666666666</ele><time>2026-04-14T08:54:32Z</time></trkpt><trkpt lat="38.081128828541765" lon="15.664343471062507"><ele>69.33333333333333</ele><time>2026-04-14T08:54:33Z</time></trkpt><trkpt lat="38.08094315392084" lon="15.66434828836965"><ele>69.0</ele><time>2026-04-14T08:54:34Z</time></trkpt><trkpt lat="38.08075786744661" lon="15.664353647995345"><ele>67.66666666666667</ele><time>2026-04-14T08:54:35Z</time></trkpt><trkpt lat="38.08056995759047" lon="15.664360680463087"><ele>66.33333333333334</ele><time>2026-04-14T08:54:36Z</time></trkpt><trkpt lat="38.080383036681546" lon="15.664367890963286"><ele>65.0</ele><time>2026-04-14T08:54:37Z</time></trkpt><trkpt lat="38.08019415452335" lon="15.664376307677346"><ele>65.0</ele><time>2026-04-14T08:54:38Z</time></trkpt><trkpt lat="38.08000668084985" lon="15.664386470742157"><ele>65.0</ele><time>2026-04-14T08:54:39Z</time></trkpt><trkpt lat="38.079817453129145" lon="15.664396704107931"><ele>65.0</ele><time>2026-04-14T08:54:40Z</time></trkpt><trkpt lat="38.07962788270094" lon="15.664403800001482"><ele>63.333333333333336</ele><time>2026-04-14T08:54:41Z</time></trkpt><trkpt lat="38.079440732539865" lon="15.664410202906502"><ele>61.66666666666667</ele><time>2026-04-14T08:54:42Z</time></trkpt><trkpt lat="38.07924995599107" lon="15.664412736520637"><ele>60.0</ele><time>2026-04-14T08:54:43Z</time></trkpt><trkpt lat="38.0790607804603" lon="15.664415894091471"><ele>58.66666666666667</ele><time>2026-04-14T08:54:44Z</time></trkpt><trkpt lat="38.078874078400915" lon="15.66442256558978"><ele>57.333333333333336</ele><time>2026-04-14T08:54:45Z</time></trkpt><trkpt lat="38.07868906268169" lon="15.664427812979064"><ele>56.0</ele><time>2026-04-14T08:54:46Z</time></trkpt><trkpt lat="38.07850622750009" lon="15.6644329457298"><ele>56.0</ele><time>2026-04-14T08:54:47Z</time></trkpt><trkpt lat="38.078324147665384" lon="15.664435948008721"><ele>56.0</ele><time>2026-04-14T08:54:48Z</time></trkpt><trkpt lat="38.07814466526183" lon="15.664438579946266"><ele>56.0</ele><time>2026-04-14T08:54:49Z</time></trkpt><trkpt lat="38.07797042672424" lon="15.664443029641237"><ele>57.0</ele><time>2026-04-14T08:54:50Z</time></trkpt><trkpt lat="38.07779697077562" lon="15.664449009589687"><ele>58.0</ele><time>2026-04-14T08:54:51Z</time></trkpt><trkpt lat="38.07762419900794" lon="15.664453146154075"><ele>59.0</ele><time>2026-04-14T08:54:52Z</time></trkpt><trkpt lat="38.07745272110743" lon="15.664457750623708"><ele>56.0</ele><time>2026-04-14T08:54:53Z</time></trkpt><trkpt lat="38.07727883777507" lon="15.664460620966109"><ele>53.0</ele><time>2026-04-14T08:54:54Z</time></trkpt><trkpt lat="38.07711470247769" lon="15.66445513559669"><ele>50.0</ele><time>2026-04-14T08:54:54.999Z</time></trkpt><trkpt lat="38.07694424378813" lon="15.6644509828156"><ele>50.66666666666667</ele><time>2026-04-14T08:54:55.999Z</time></trkpt><trkpt lat="38.07677119437799" lon="15.664440295251325"><ele>51.33333333333333</ele><time>2026-04-14T08:54:56.999Z</time></trkpt><trkpt lat="38.076599779051286" lon="15.66442828544584"><ele>52.0</ele><time>2026-04-14T08:54:57.999Z</time></trkpt><trkpt lat="38.07643405747561" lon="15.664411616581104"><ele>52.0</ele><time>2026-04-14T08:54:58.999Z</time></trkpt><trkpt lat="38.076275168709216" lon="15.66438900069476"><ele>52.0</ele><time>2026-04-14T08:54:59.999Z</time></trkpt><trkpt lat="38.076122292362086" lon="15.66436336987429"><ele>52.0</ele><time>2026-04-14T08:55:01Z</time></trkpt><trkpt lat="38.07597197981218" lon="15.66433294317217"><ele>52.0</ele><time>2026-04-14T08:55:02Z</time></trkpt><trkpt lat="38.07581902146107" lon="15.664299848725948"><ele>52.0</ele><time>2026-04-14T08:55:03Z</time></trkpt><trkpt lat="38.075665585860975" lon="15.664256969544889"><ele>52.0</ele><time>2026-04-14T08:55:04Z</time></trkpt><trkpt lat="38.07550651396624" lon="15.66421807944001"><ele>48.666666666666664</ele><time>2026-04-14T08:55:05Z</time></trkpt><trkpt lat="38.0753460572034" lon="15.664171779742729"><ele>45.33333333333333</ele><time>2026-04-14T08:55:06Z</time></trkpt><trkpt lat="38.07519209909763" lon="15.664122567028857"><ele>42.0</ele><time>2026-04-14T08:55:07Z</time></trkpt><trkpt lat="38.0750363924763" lon="15.664066480231556"><ele>40.0</ele><time>2026-04-14T08:55:08Z</time></trkpt><trkpt lat="38.07488221796231" lon="15.66399955063543"><ele>38.0</ele><time>2026-04-14T08:55:09Z</time></trkpt><trkpt lat="38.074732409380104" lon="15.663928800583822"><ele>36.0</ele><time>2026-04-14T08:55:10Z</time></trkpt><trkpt lat="38.07458173791465" lon="15.663855859146256"><ele>36.0</ele><time>2026-04-14T08:55:11Z</time></trkpt><trkpt lat="38.074435211904074" lon="15.663788499862637"><ele>36.0</ele><time>2026-04-14T08:55:12Z</time></trkpt><trkpt lat="38.07429175792395" lon="15.66373423483692"><ele>36.0</ele><time>2026-04-14T08:55:13Z</time></trkpt><trkpt lat="38.07415564932636" lon="15.66368537751022"><ele>36.0</ele><time>2026-04-14T08:55:14Z</time></trkpt><trkpt lat="38.074027081528186" lon="15.66364333509868"><ele>35.2</ele><time>2026-04-14T08:55:15Z</time></trkpt><trkpt lat="38.07391443039871" lon="15.663606806763921"><ele>34.400000000000006</ele><time>2026-04-14T08:55:16Z</time></trkpt><trkpt lat="38.07383177926533" lon="15.663574372206682"><ele>33.6</ele><time>2026-04-14T08:55:17Z</time></trkpt><trkpt lat="38.07377504776034" lon="15.663531306814393"><ele>32.800000000000004</ele><time>2026-04-14T08:55:18Z</time></trkpt><trkpt lat="38.07375060690596" lon="15.663407510520706"><ele>32.0</ele><time>2026-04-14T08:55:20Z</time></trkpt><trkpt lat="38.07384763918857" lon="15.663311666354433"><ele>32.0</ele><time>2026-04-14T08:55:22Z</time></trkpt><trkpt lat="38.07392290805096" lon="15.663278001139469"><ele>32.0</ele><time>2026-04-14T08:55:23Z</time></trkpt><trkpt lat="38.07400870645935" lon="15.66324910533784"><ele>32.0</ele><time>2026-04-14T08:55:24Z</time></trkpt><trkpt lat="38.07410004218444" lon="15.66323855989821"><ele>32.0</ele><time>2026-04-14T08:55:25Z</time></trkpt><trkpt lat="38.07420181439778" lon="15.663223185452642"><ele>32.0</ele><time>2026-04-14T08:55:26Z</time></trkpt><trkpt lat="38.07428674643176" lon="15.6631996263893"><ele>33.2</ele><time>2026-04-14T08:55:27Z</time></trkpt><trkpt lat="38.074375836465464" lon="15.663172643887851"><ele>34.400000000000006</ele><time>2026-04-14T08:55:28Z</time></trkpt><trkpt lat="38.074461044765755" lon="15.663148619255654"><ele>35.599999999999994</ele><time>2026-04-14T08:55:29Z</time></trkpt><trkpt lat="38.07454678350884" lon="15.663134454584167"><ele>36.8</ele><time>2026-04-14T08:55:30Z</time></trkpt><trkpt lat="38.074640291591685" lon="15.663133287029414"><ele>38.0</ele><time>2026-04-14T08:55:31Z</time></trkpt><trkpt lat="38.07474329064745" lon="15.663169190757438"><ele>38.0</ele><time>2026-04-14T08:55:32Z</time></trkpt><trkpt lat="38.07485192510566" lon="15.663188699188227"><ele>38.0</ele><time>2026-04-14T08:55:33Z</time></trkpt><trkpt lat="38.074954435174405" lon="15.663225704828031"><ele>38.0</ele><time>2026-04-14T08:55:34Z</time></trkpt><trkpt lat="38.07503823492453" lon="15.663251420415603"><ele>38.0</ele><time>2026-04-14T08:55:35Z</time></trkpt><trkpt lat="38.07510423392035" lon="15.663268770124022"><ele>38.0</ele><time>2026-04-14T08:55:36Z</time></trkpt><trkpt lat="38.07517960111107" lon="15.663280281642606"><ele>38.0</ele><time>2026-04-14T08:55:39Z</time></trkpt><trkpt lat="38.07513889203236" lon="15.663515463616866"><ele>38.8</ele><time>2026-04-14T08:55:47Z</time></trkpt><trkpt lat="38.07513897424096" lon="15.663653279204343"><ele>39.599999999999994</ele><time>2026-04-14T08:55:48Z</time></trkpt><trkpt lat="38.07514140365307" lon="15.663783774561164"><ele>40.400000000000006</ele><time>2026-04-14T08:55:49Z</time></trkpt><trkpt lat="38.07513481158823" lon="15.663916391245737"><ele>41.2</ele><time>2026-04-14T08:55:50Z</time></trkpt><trkpt lat="38.075128132197165" lon="15.664034158672386"><ele>42.0</ele><time>2026-04-14T08:55:51Z</time></trkpt><trkpt lat="38.07511702219557" lon="15.664147647175136"><ele>42.0</ele><time>2026-04-14T08:55:52Z</time></trkpt><trkpt lat="38.07509994547835" lon="15.664255653616097"><ele>42.0</ele><time>2026-04-14T08:55:53Z</time></trkpt><trkpt lat="38.07507883740292" lon="15.664363088712511"><ele>42.0</ele><time>2026-04-14T08:55:54Z</time></trkpt><trkpt lat="38.07505501702435" lon="15.664480949733122"><ele>42.0</ele><time>2026-04-14T08:55:55Z</time></trkpt><trkpt lat="38.07503416751404" lon="15.664610121227378"><ele>42.0</ele><time>2026-04-14T08:55:56Z</time></trkpt><trkpt lat="38.0750162319608" lon="15.664721189006647"><ele>41.666666666666664</ele><time>2026-04-14T08:55:57Z</time></trkpt><trkpt lat="38.07499179068377" lon="15.6648322280636"><ele>41.333333333333336</ele><time>2026-04-14T08:55:58Z</time></trkpt><trkpt lat="38.07500887458594" lon="15.66491819071342"><ele>41.0</ele><time>2026-04-14T08:55:59Z</time></trkpt><trkpt lat="38.074984053167114" lon="15.665059035949994"><ele>40.66666666666667</ele><time>2026-04-14T08:56:01Z</time></trkpt><trkpt lat="38.07496396755495" lon="15.665148244835288"><ele>40.333333333333336</ele><time>2026-04-14T08:56:02Z</time></trkpt><trkpt lat="38.07494974726111" lon="15.66524562517057"><ele>40.0</ele><time>2026-04-14T08:56:03Z</time></trkpt><trkpt lat="38.07494489205991" lon="15.665344757213433"><ele>41.16666666666667</ele><time>2026-04-14T08:56:04Z</time></trkpt><trkpt lat="38.0749623495265" lon="15.665443258314891"><ele>42.333333333333336</ele><time>2026-04-14T08:56:06Z</time></trkpt><trkpt lat="38.07496333743039" lon="15.665529584902728"><ele>43.5</ele><time>2026-04-14T08:56:10Z</time></trkpt><trkpt lat="38.074993009295895" lon="15.665623417775167"><ele>44.666666666666664</ele><time>2026-04-14T08:56:12Z</time></trkpt><trkpt lat="38.07499758089582" lon="15.665792833640712"><ele>45.83333333333333</ele><time>2026-04-14T08:56:14Z</time></trkpt><trkpt lat="38.07498437381541" lon="15.66589467564818"><ele>47.0</ele><time>2026-04-14T08:56:15Z</time></trkpt><trkpt lat="38.07497032532259" lon="15.666015163651117"><ele>48.5</ele><time>2026-04-14T08:56:16Z</time></trkpt><trkpt lat="38.0749592232194" lon="15.666145860230733"><ele>50.0</ele><time>2026-04-14T08:56:17Z</time></trkpt><trkpt lat="38.07492891209606" lon="15.666282322130758"><ele>51.5</ele><time>2026-04-14T08:56:18Z</time></trkpt><trkpt lat="38.07489299717298" lon="15.666429954694841"><ele>53.0</ele><time>2026-04-14T08:56:19Z</time></trkpt><trkpt lat="38.07483630621381" lon="15.6666011564677"><ele>53.25</ele><time>2026-04-14T08:56:20Z</time></trkpt><trkpt lat="38.074776385375486" lon="15.66678412689963"><ele>53.5</ele><time>2026-04-14T08:56:21Z</time></trkpt><trkpt lat="38.074748975073945" lon="15.666907544426993"><ele>53.75</ele><time>2026-04-14T08:56:22Z</time></trkpt><trkpt lat="38.07474161804308" lon="15.667022477434216"><ele>54.0</ele><time>2026-04-14T08:56:23Z</time></trkpt><trkpt lat="38.074758614291675" lon="15.667151067938864"><ele>56.6</ele><time>2026-04-14T08:56:24Z</time></trkpt><trkpt lat="38.07476910012437" lon="15.667288113389061"><ele>59.2</ele><time>2026-04-14T08:56:25Z</time></trkpt><trkpt lat="38.07474554437258" lon="15.667419645831044"><ele>61.800000000000004</ele><time>2026-04-14T08:56:26Z</time></trkpt><trkpt lat="38.07468870860139" lon="15.667555006841752"><ele>64.4</ele><time>2026-04-14T08:56:27Z</time></trkpt><trkpt lat="38.074626861319416" lon="15.667671106202652"><ele>67.0</ele><time>2026-04-14T08:56:28Z</time></trkpt><trkpt lat="38.07460719383092" lon="15.667806559265657"><ele>68.4</ele><time>2026-04-14T08:56:29Z</time></trkpt><trkpt lat="38.07463329336879" lon="15.667940816118033"><ele>69.80000000000001</ele><time>2026-04-14T08:56:30Z</time></trkpt><trkpt lat="38.07467041165726" lon="15.668065681217993"><ele>71.2</ele><time>2026-04-14T08:56:31Z</time></trkpt><trkpt lat="38.0746915515956" lon="15.668211335544179"><ele>72.60000000000001</ele><time>2026-04-14T08:56:32Z</time></trkpt><trkpt lat="38.07470153032528" lon="15.668358396757649"><ele>74.0</ele><time>2026-04-14T08:56:33Z</time></trkpt><trkpt lat="38.07470839818371" lon="15.668497649216244"><ele>75.80000000000001</ele><time>2026-04-14T08:56:34Z</time></trkpt><trkpt lat="38.074722340304504" lon="15.6686427546351"><ele>77.60000000000001</ele><time>2026-04-14T08:56:35Z</time></trkpt><trkpt lat="38.074743249975796" lon="15.668774006090137"><ele>79.4</ele><time>2026-04-14T08:56:36Z</time></trkpt><trkpt lat="38.07477273285584" lon="15.668907723711316"><ele>81.2</ele><time>2026-04-14T08:56:37Z</time></trkpt><trkpt lat="38.074833891900745" lon="15.669021063555947"><ele>83.0</ele><time>2026-04-14T08:56:38Z</time></trkpt><trkpt lat="38.07488586152488" lon="15.6691372136296"><ele>83.5</ele><time>2026-04-14T08:56:39Z</time></trkpt><trkpt lat="38.07494058635808" lon="15.669266626344557"><ele>84.0</ele><time>2026-04-14T08:56:40Z</time></trkpt><trkpt lat="38.0749948230356" lon="15.66939370897049"><ele>84.5</ele><time>2026-04-14T08:56:41Z</time></trkpt><trkpt lat="38.075024900119644" lon="15.669537082889462"><ele>85.0</ele><time>2026-04-14T08:56:42Z</time></trkpt><trkpt lat="38.0750835845525" lon="15.6696682452498"><ele>86.6</ele><time>2026-04-14T08:56:43Z</time></trkpt><trkpt lat="38.07510603150387" lon="15.669789585305711"><ele>88.2</ele><time>2026-04-14T08:56:43.999Z</time></trkpt><trkpt lat="38.07511370278941" lon="15.669898126100593"><ele>89.80000000000001</ele><time>2026-04-14T08:56:44.999Z</time></trkpt><trkpt lat="38.07509420299488" lon="15.670013328849599"><ele>91.4</ele><time>2026-04-14T08:56:45.999Z</time></trkpt><trkpt lat="38.07504031637247" lon="15.670138628029074"><ele>93.0</ele><time>2026-04-14T08:56:46.999Z</time></trkpt><trkpt lat="38.075018443333455" lon="15.670287271990563"><ele>95.0</ele><time>2026-04-14T08:56:47.999Z</time></trkpt><trkpt lat="38.07498562959489" lon="15.670437653474595"><ele>97.0</ele><time>2026-04-14T08:56:48.999Z</time></trkpt><trkpt lat="38.074931133910525" lon="15.670600876636257"><ele>99.0</ele><time>2026-04-14T08:56:49.999Z</time></trkpt><trkpt lat="38.07490847533526" lon="15.670748992932845"><ele>101.0</ele><time>2026-04-14T08:56:50.999Z</time></trkpt><trkpt lat="38.074911683528676" lon="15.670877276897055"><ele>101.0</ele><time>2026-04-14T08:56:51.999Z</time></trkpt><trkpt lat="38.07496865177974" lon="15.670979882234823"><ele>101.0</ele><time>2026-04-14T08:56:52.999Z</time></trkpt><trkpt lat="38.075018208181106" lon="15.671102730818129"><ele>101.0</ele><time>2026-04-14T08:56:53.999Z</time></trkpt><trkpt lat="38.07511595025313" lon="15.671178491961086"><ele>101.0</ele><time>2026-04-14T08:56:54.999Z</time></trkpt><trkpt lat="38.075194587111945" lon="15.671240135490338"><ele>101.0</ele><time>2026-04-14T08:56:55.999Z</time></trkpt><trkpt lat="38.07525177849719" lon="15.671296696069083"><ele>104.19999999999999</ele><time>2026-04-14T08:56:56.999Z</time></trkpt><trkpt lat="38.07525872721029" lon="15.671389657308977"><ele>107.39999999999999</ele><time>2026-04-14T08:56:57.999Z</time></trkpt><trkpt lat="38.075293968522956" lon="15.671461809258293"><ele>110.6</ele><time>2026-04-14T08:56:58.999Z</time></trkpt><trkpt lat="38.075381987956995" lon="15.671560341664803"><ele>113.8</ele><time>2026-04-14T08:57:00.999Z</time></trkpt><trkpt lat="38.07546191287685" lon="15.67152196741243"><ele>117.0</ele><time>2026-04-14T08:57:01.999Z</time></trkpt><trkpt lat="38.07557829952265" lon="15.67143626875809"><ele>117.0</ele><time>2026-04-14T08:57:03.999Z</time></trkpt><trkpt lat="38.07564055080748" lon="15.67137101190329"><ele>116.99999999999999</ele><time>2026-04-14T08:57:04.999Z</time></trkpt><trkpt lat="38.07571987764599" lon="15.671310106167589"><ele>116.99999999999999</ele><time>2026-04-14T08:57:06Z</time></trkpt><trkpt lat="38.075812717075756" lon="15.671252885368249"><ele>117.0</ele><time>2026-04-14T08:57:07Z</time></trkpt><trkpt lat="38.075897176760044" lon="15.671178920676798"><ele>117.0</ele><time>2026-04-14T08:57:08Z</time></trkpt><trkpt lat="38.07594087743269" lon="15.671056673060612"><ele>114.83333333333333</ele><time>2026-04-14T08:57:09Z</time></trkpt><trkpt lat="38.075986611908895" lon="15.670945595095471"><ele>112.66666666666666</ele><time>2026-04-14T08:57:10Z</time></trkpt><trkpt lat="38.076046559147365" lon="15.670863561355265"><ele>110.5</ele><time>2026-04-14T08:57:11Z</time></trkpt><trkpt lat="38.07609415157839" lon="15.67080721461995"><ele>108.33333333333333</ele><time>2026-04-14T08:57:12Z</time></trkpt><trkpt lat="38.07617212529974" lon="15.670874225222985"><ele>106.16666666666666</ele><time>2026-04-14T08:57:15Z</time></trkpt><trkpt lat="38.07614921149849" lon="15.670983064521678"><ele>104.0</ele><time>2026-04-14T08:57:16Z</time></trkpt><trkpt lat="38.07615007110906" lon="15.671094834504565"><ele>106.2</ele><time>2026-04-14T08:57:17Z</time></trkpt><trkpt lat="38.07616582211005" lon="15.671210796331604"><ele>108.4</ele><time>2026-04-14T08:57:18Z</time></trkpt><trkpt lat="38.07617305975055" lon="15.671339342740326"><ele>110.6</ele><time>2026-04-14T08:57:19Z</time></trkpt><trkpt lat="38.07618048688414" lon="15.671465878813228"><ele>112.8</ele><time>2026-04-14T08:57:20Z</time></trkpt><trkpt lat="38.07619326311344" lon="15.671589493807092"><ele>115.0</ele><time>2026-04-14T08:57:21Z</time></trkpt><trkpt lat="38.07618943395333" lon="15.671698891853413"><ele>115.0</ele><time>2026-04-14T08:57:22Z</time></trkpt><trkpt lat="38.07617218756349" lon="15.671784954043085"><ele>115.0</ele><time>2026-04-14T08:57:23Z</time></trkpt><trkpt lat="38.076154240629876" lon="15.671909846184441"><ele>115.0</ele><time>2026-04-14T08:57:25Z</time></trkpt><trkpt lat="38.07611452136509" lon="15.672065690419076"><ele>115.0</ele><time>2026-04-14T08:57:27Z</time></trkpt><trkpt lat="38.07616610961986" lon="15.672183887115278"><ele>115.0</ele><time>2026-04-14T08:57:28Z</time></trkpt><trkpt lat="38.07615811978098" lon="15.67226362278466"><ele>118.00000000000001</ele><time>2026-04-14T08:57:29Z</time></trkpt><trkpt lat="38.07617421957137" lon="15.672358790095075"><ele>121.0</ele><time>2026-04-14T08:57:30Z</time></trkpt><trkpt lat="38.07619279658021" lon="15.672443393024519"><ele>124.0</ele><time>2026-04-14T08:57:31Z</time></trkpt><trkpt lat="38.07621733768707" lon="15.672536538084"><ele>127.0</ele><time>2026-04-14T08:57:32Z</time></trkpt><trkpt lat="38.07625352330082" lon="15.672633143692925"><ele>130.0</ele><time>2026-04-14T08:57:33Z</time></trkpt><trkpt lat="38.07628870995415" lon="15.672730369764508"><ele>133.0</ele><time>2026-04-14T08:57:34Z</time></trkpt><trkpt lat="38.07633214965716" lon="15.672822359365654"><ele>136.33333333333334</ele><time>2026-04-14T08:57:35Z</time></trkpt><trkpt lat="38.07637575611271" lon="15.672908036617352"><ele>139.66666666666669</ele><time>2026-04-14T08:57:36Z</time></trkpt><trkpt lat="38.07641673036139" lon="15.672979117950817"><ele>143.0</ele><time>2026-04-14T08:57:37Z</time></trkpt><trkpt lat="38.076460997289864" lon="15.673065461836952"><ele>146.33333333333334</ele><time>2026-04-14T08:57:38Z</time></trkpt><trkpt lat="38.0764855378176" lon="15.673150541324967"><ele>149.66666666666666</ele><time>2026-04-14T08:57:39Z</time></trkpt><trkpt lat="38.07648413980728" lon="15.673246666984987"><ele>153.0</ele><time>2026-04-14T08:57:40Z</time></trkpt><trkpt lat="38.07645348347954" lon="15.673330486146229"><ele>153.0</ele><time>2026-04-14T08:57:41Z</time></trkpt><trkpt lat="38.076406023924356" lon="15.673410556520926"><ele>153.0</ele><time>2026-04-14T08:57:42Z</time></trkpt><trkpt lat="38.0763374175501" lon="15.673494139516919"><ele>153.0</ele><time>2026-04-14T08:57:43Z</time></trkpt><trkpt lat="38.07627469230724" lon="15.673569764837941"><ele>153.0</ele><time>2026-04-14T08:57:44Z</time></trkpt><trkpt lat="38.076200725875765" lon="15.673651060743646"><ele>153.0</ele><time>2026-04-14T08:57:45Z</time></trkpt><trkpt lat="38.07613981311122" lon="15.673724471307741"><ele>153.0</ele><time>2026-04-14T08:57:46Z</time></trkpt><trkpt lat="38.076089279174425" lon="15.673792756213892"><ele>151.0</ele><time>2026-04-14T08:57:47Z</time></trkpt><trkpt lat="38.076029847293526" lon="15.673880732629948"><ele>149.0</ele><time>2026-04-14T08:57:48Z</time></trkpt><trkpt lat="38.07600446674412" lon="15.673958904161454"><ele>147.0</ele><time>2026-04-14T08:57:49Z</time></trkpt><trkpt lat="38.07598913353895" lon="15.674062357499752"><ele>145.0</ele><time>2026-04-14T08:57:50Z</time></trkpt><trkpt lat="38.075973439831664" lon="15.674160366071956"><ele>143.0</ele><time>2026-04-14T08:57:51Z</time></trkpt><trkpt lat="38.07593174196313" lon="15.674248336603348"><ele>141.0</ele><time>2026-04-14T08:57:52Z</time></trkpt><trkpt lat="38.07586969038004" lon="15.674322040864611"><ele>141.0</ele><time>2026-04-14T08:57:53Z</time></trkpt><trkpt lat="38.075799945859025" lon="15.674397260886455"><ele>141.0</ele><time>2026-04-14T08:57:54Z</time></trkpt><trkpt lat="38.0757496867851" lon="15.674473635743535"><ele>141.0</ele><time>2026-04-14T08:57:55Z</time></trkpt><trkpt lat="38.0757136896519" lon="15.674551826863727"><ele>141.0</ele><time>2026-04-14T08:57:56Z</time></trkpt><trkpt lat="38.0756998821911" lon="15.674636288303173"><ele>141.0</ele><time>2026-04-14T08:57:57Z</time></trkpt><trkpt lat="38.07570122793376" lon="15.674716637159879"><ele>141.0</ele><time>2026-04-14T08:57:58Z</time></trkpt><trkpt lat="38.075766814560495" lon="15.674857742896245"><ele>140.5</ele><time>2026-04-14T08:58:00Z</time></trkpt><trkpt lat="38.0758236860863" lon="15.674942622884375"><ele>140.0</ele><time>2026-04-14T08:58:01Z</time></trkpt><trkpt lat="38.07586246044226" lon="15.675044188311613"><ele>139.5</ele><time>2026-04-14T08:58:02Z</time></trkpt><trkpt lat="38.07587456340106" lon="15.675142001828469"><ele>139.0</ele><time>2026-04-14T08:58:03Z</time></trkpt><trkpt lat="38.07586923066799" lon="15.675244745577327"><ele>138.5</ele><time>2026-04-14T08:58:04Z</time></trkpt><trkpt lat="38.07583918904225" lon="15.675334266953701"><ele>138.0</ele><time>2026-04-14T08:58:05Z</time></trkpt><trkpt lat="38.075791815785024" lon="15.67543139000273"><ele>142.8</ele><time>2026-04-14T08:58:06Z</time></trkpt><trkpt lat="38.07574966407404" lon="15.675540015451885"><ele>147.60000000000002</ele><time>2026-04-14T08:58:07Z</time></trkpt><trkpt lat="38.0757257998504" lon="15.675656717914768"><ele>152.39999999999998</ele><time>2026-04-14T08:58:08Z</time></trkpt><trkpt lat="38.075715830190056" lon="15.67576046461827"><ele>157.2</ele><time>2026-04-14T08:58:09Z</time></trkpt><trkpt lat="38.07571113088099" lon="15.675884071534979"><ele>162.0</ele><time>2026-04-14T08:58:10Z</time></trkpt><trkpt lat="38.07572019449871" lon="15.676007739435477"><ele>161.8</ele><time>2026-04-14T08:58:11Z</time></trkpt><trkpt lat="38.07572563851667" lon="15.676139257711592"><ele>161.6</ele><time>2026-04-14T08:58:12Z</time></trkpt><trkpt lat="38.07571674668236" lon="15.676285440685522"><ele>161.4</ele><time>2026-04-14T08:58:13Z</time></trkpt><trkpt lat="38.07572000974685" lon="15.676406519721201"><ele>161.20000000000002</ele><time>2026-04-14T08:58:14Z</time></trkpt><trkpt lat="38.075734400293" lon="15.67650176211982"><ele>161.0</ele><time>2026-04-14T08:58:15Z</time></trkpt><trkpt lat="38.075764237545464" lon="15.67660267079763"><ele>155.60000000000002</ele><time>2026-04-14T08:58:16Z</time></trkpt><trkpt lat="38.075807005295836" lon="15.676720627013497"><ele>150.20000000000002</ele><time>2026-04-14T08:58:17Z</time></trkpt><trkpt lat="38.07583973800264" lon="15.676832712135678"><ele>144.8</ele><time>2026-04-14T08:58:18Z</time></trkpt><trkpt lat="38.0758624311984" lon="15.676947557760938"><ele>139.4</ele><time>2026-04-14T08:58:19Z</time></trkpt><trkpt lat="38.07585951909646" lon="15.677067714108386"><ele>134.0</ele><time>2026-04-14T08:58:20Z</time></trkpt><trkpt lat="38.0758439900953" lon="15.677179940521542"><ele>134.0</ele><time>2026-04-14T08:58:21Z</time></trkpt><trkpt lat="38.07582319646958" lon="15.677295765651523"><ele>134.0</ele><time>2026-04-14T08:58:22Z</time></trkpt><trkpt lat="38.075799497823915" lon="15.67741525050523"><ele>134.0</ele><time>2026-04-14T08:58:23Z</time></trkpt><trkpt lat="38.075771623157" lon="15.67752384106585"><ele>134.0</ele><time>2026-04-14T08:58:24Z</time></trkpt><trkpt lat="38.07572700428247" lon="15.677618449210287"><ele>134.0</ele><time>2026-04-14T08:58:25Z</time></trkpt><trkpt lat="38.07566777519232" lon="15.677684032753378"><ele>134.0</ele><time>2026-04-14T08:58:26Z</time></trkpt><trkpt lat="38.075587051548936" lon="15.6777397684233"><ele>140.0</ele><time>2026-04-14T08:58:27Z</time></trkpt><trkpt lat="38.075490017753715" lon="15.677782599634353"><ele>146.0</ele><time>2026-04-14T08:58:28.999Z</time></trkpt><trkpt lat="38.0754210218276" lon="15.677680057534008"><ele>152.0</ele><time>2026-04-14T08:58:31.999Z</time></trkpt><trkpt lat="38.07540038858201" lon="15.67756554801919"><ele>158.0</ele><time>2026-04-14T08:58:32.999Z</time></trkpt><trkpt lat="38.075371187896735" lon="15.677440450537604"><ele>164.0</ele><time>2026-04-14T08:58:33.999Z</time></trkpt><trkpt lat="38.075340254649994" lon="15.677308341698293"><ele>164.0</ele><time>2026-04-14T08:58:34.999Z</time></trkpt><trkpt lat="38.07532840085719" lon="15.677194051018297"><ele>164.0</ele><time>2026-04-14T08:58:35.999Z</time></trkpt><trkpt lat="38.0753315989794" lon="15.677072801401238"><ele>164.0</ele><time>2026-04-14T08:58:36.999Z</time></trkpt><trkpt lat="38.07534807481945" lon="15.676942217351256"><ele>164.0</ele><time>2026-04-14T08:58:37.999Z</time></trkpt><trkpt lat="38.07535945735137" lon="15.676820767480436"><ele>164.0</ele><time>2026-04-14T08:58:38.999Z</time></trkpt><trkpt lat="38.075352753328154" lon="15.676717148003776"><ele>163.6</ele><time>2026-04-14T08:58:39.999Z</time></trkpt><trkpt lat="38.07533586189996" lon="15.676590909653832"><ele>163.2</ele><time>2026-04-14T08:58:40.999Z</time></trkpt><trkpt lat="38.075319892629956" lon="15.676468590338905"><ele>162.79999999999998</ele><time>2026-04-14T08:58:41.999Z</time></trkpt><trkpt lat="38.07529960137193" lon="15.6763404101615"><ele>162.39999999999998</ele><time>2026-04-14T08:58:42.999Z</time></trkpt><trkpt lat="38.075284851912215" lon="15.67620737325256"><ele>162.0</ele><time>2026-04-14T08:58:43.999Z</time></trkpt><trkpt lat="38.07528452098815" lon="15.676077116019854"><ele>162.0</ele><time>2026-04-14T08:58:44.999Z</time></trkpt><trkpt lat="38.07530080516747" lon="15.67595391768936"><ele>162.0</ele><time>2026-04-14T08:58:45.999Z</time></trkpt><trkpt lat="38.075316613402194" lon="15.675849151875187"><ele>162.0</ele><time>2026-04-14T08:58:46.999Z</time></trkpt><trkpt lat="38.075317780436635" lon="15.675745983999256"><ele>162.0</ele><time>2026-04-14T08:58:47.999Z</time></trkpt><trkpt lat="38.07531182712134" lon="15.675636658581002"><ele>162.0</ele><time>2026-04-14T08:58:48.999Z</time></trkpt><trkpt lat="38.07530303838048" lon="15.675490915872109"><ele>162.0</ele><time>2026-04-14T08:58:49.999Z</time></trkpt><trkpt lat="38.07528745248395" lon="15.6753421800224"><ele>162.0</ele><time>2026-04-14T08:58:50.999Z</time></trkpt><trkpt lat="38.07529317150802" lon="15.67519564841211"><ele>162.0</ele><time>2026-04-14T08:58:51.999Z</time></trkpt><trkpt lat="38.075312249194575" lon="15.675055199487726"><ele>162.0</ele><time>2026-04-14T08:58:52.999Z</time></trkpt><trkpt lat="38.075323736701336" lon="15.674929685436728"><ele>162.0</ele><time>2026-04-14T08:58:53.999Z</time></trkpt><trkpt lat="38.075309868065006" lon="15.67481924939683"><ele>162.0</ele><time>2026-04-14T08:58:55.999Z</time></trkpt><trkpt lat="38.07522251308125" lon="15.674817014736744"><ele>162.0</ele><time>2026-04-14T08:58:57.999Z</time></trkpt><trkpt lat="38.075165864420846" lon="15.67496605723829"><ele>162.0</ele><time>2026-04-14T08:58:59.999Z</time></trkpt><trkpt lat="38.07515510300188" lon="15.675082164703209"><ele>162.0</ele><time>2026-04-14T08:59:00.999Z</time></trkpt><trkpt lat="38.075147141590264" lon="15.675204414635127"><ele>162.0</ele><time>2026-04-14T08:59:01.999Z</time></trkpt><trkpt lat="38.07513912070901" lon="15.67532507004652"><ele>162.0</ele><time>2026-04-14T08:59:02.999Z</time></trkpt><trkpt lat="38.07512506885552" lon="15.675449451120553"><ele>162.0</ele><time>2026-04-14T08:59:03.999Z</time></trkpt><trkpt lat="38.0751120233076" lon="15.675570708019109"><ele>162.0</ele><time>2026-04-14T08:59:04.999Z</time></trkpt><trkpt lat="38.07509947323406" lon="15.675697383924147"><ele>162.0</ele><time>2026-04-14T08:59:05.999Z</time></trkpt><trkpt lat="38.07509116715203" lon="15.675832671246724"><ele>162.0</ele><time>2026-04-14T08:59:06.999Z</time></trkpt><trkpt lat="38.07508629851298" lon="15.675956304314381"><ele>162.0</ele><time>2026-04-14T08:59:07.999Z</time></trkpt><trkpt lat="38.07506789553579" lon="15.676042648017368"><ele>162.0</ele><time>2026-04-14T08:59:08.999Z</time></trkpt><trkpt lat="38.074992600241984" lon="15.676100475456138"><ele>162.0</ele><time>2026-04-14T08:59:10.999Z</time></trkpt><trkpt lat="38.07490565469595" lon="15.676057173323331"><ele>162.0</ele><time>2026-04-14T08:59:13Z</time></trkpt><trkpt lat="38.074876277071766" lon="15.67598583648577"><ele>162.0</ele><time>2026-04-14T08:59:14Z</time></trkpt><trkpt lat="38.07487540714618" lon="15.675894840381417"><ele>162.0</ele><time>2026-04-14T08:59:15Z</time></trkpt><trkpt lat="38.074912865766386" lon="15.675803116723609"><ele>162.0</ele><time>2026-04-14T08:59:16Z</time></trkpt><trkpt lat="38.07494666736615" lon="15.675704113119894"><ele>162.0</ele><time>2026-04-14T08:59:17Z</time></trkpt><trkpt lat="38.07495690467416" lon="15.675596019261132"><ele>162.0</ele><time>2026-04-14T08:59:18Z</time></trkpt><trkpt lat="38.0749474842732" lon="15.67545963094436"><ele>162.0</ele><time>2026-04-14T08:59:19Z</time></trkpt><trkpt lat="38.07493819518373" lon="15.675317404979173"><ele>162.0</ele><time>2026-04-14T08:59:20Z</time></trkpt><trkpt lat="38.074921891495784" lon="15.675208599203735"><ele>164.16666666666666</ele><time>2026-04-14T08:59:21Z</time></trkpt><trkpt lat="38.074896399392685" lon="15.675100780697797"><ele>166.33333333333334</ele><time>2026-04-14T08:59:22Z</time></trkpt><trkpt lat="38.07485329115705" lon="15.674988643082994"><ele>168.5</ele><time>2026-04-14T08:59:23Z</time></trkpt><trkpt lat="38.07481727824368" lon="15.674884035896298"><ele>170.66666666666669</ele><time>2026-04-14T08:59:24Z</time></trkpt><trkpt lat="38.07479446342688" lon="15.674800334213844"><ele>172.83333333333334</ele><time>2026-04-14T08:59:25Z</time></trkpt><trkpt lat="38.07471817947098" lon="15.67474674352091"><ele>175.0</ele><time>2026-04-14T08:59:27Z</time></trkpt><trkpt lat="38.074626424110534" lon="15.67484799367828"><ele>175.0</ele><time>2026-04-14T08:59:29Z</time></trkpt><trkpt lat="38.074587373236994" lon="15.674943753714219"><ele>175.0</ele><time>2026-04-14T08:59:30Z</time></trkpt><trkpt lat="38.074551437680064" lon="15.675056945239552"><ele>175.0</ele><time>2026-04-14T08:59:31Z</time></trkpt><trkpt lat="38.07453836623306" lon="15.675179273855447"><ele>175.0</ele><time>2026-04-14T08:59:32Z</time></trkpt><trkpt lat="38.07453678101913" lon="15.675312678306549"><ele>175.0</ele><time>2026-04-14T08:59:33Z</time></trkpt><trkpt lat="38.07453927751118" lon="15.67547145030741"><ele>175.6</ele><time>2026-04-14T08:59:34Z</time></trkpt><trkpt lat="38.074530864043815" lon="15.675620197359343"><ele>176.2</ele><time>2026-04-14T08:59:35Z</time></trkpt><trkpt lat="38.074529725919454" lon="15.675722273681798"><ele>176.8</ele><time>2026-04-14T08:59:36Z</time></trkpt><trkpt lat="38.074481886287316" lon="15.675834960962026"><ele>177.4</ele><time>2026-04-14T08:59:38Z</time></trkpt><trkpt lat="38.07440401660115" lon="15.675873485112435"><ele>178.0</ele><time>2026-04-14T08:59:40Z</time></trkpt><trkpt lat="38.074330906162125" lon="15.675933130221726"><ele>177.99999999999997</ele><time>2026-04-14T08:59:42Z</time></trkpt><trkpt lat="38.07428279497518" lon="15.675989954859752"><ele>178.0</ele><time>2026-04-14T08:59:45Z</time></trkpt><trkpt lat="38.07422854947066" lon="15.676045212592234"><ele>178.0</ele><time>2026-04-14T09:00:12Z</time></trkpt><trkpt lat="38.0741661709745" lon="15.676073031203778"><ele>178.0</ele><time>2026-04-14T09:00:13Z</time></trkpt><trkpt lat="38.07411703241357" lon="15.676134584596173"><ele>178.0</ele><time>2026-04-14T09:00:14Z</time></trkpt><trkpt lat="38.07405672980079" lon="15.676190892581108"><ele>177.99999999999997</ele><time>2026-04-14T09:00:15Z</time></trkpt><trkpt lat="38.07400456128017" lon="15.676274205817126"><ele>178.0</ele><time>2026-04-14T09:00:16Z</time></trkpt><trkpt lat="38.07396541918489" lon="15.67636087857495"><ele>174.4</ele><time>2026-04-14T09:00:17Z</time></trkpt><trkpt lat="38.0739300199502" lon="15.676453833331887"><ele>170.8</ele><time>2026-04-14T09:00:18Z</time></trkpt><trkpt lat="38.07390011992722" lon="15.67655219057585"><ele>167.2</ele><time>2026-04-14T09:00:19Z</time></trkpt><trkpt lat="38.0738709443642" lon="15.67665073964702"><ele>163.6</ele><time>2026-04-14T09:00:20Z</time></trkpt><trkpt lat="38.07384580627433" lon="15.676743710210037"><ele>160.0</ele><time>2026-04-14T09:00:21Z</time></trkpt><trkpt lat="38.07384556830549" lon="15.67690442371396"><ele>161.33333333333334</ele><time>2026-04-14T09:00:23Z</time></trkpt><trkpt lat="38.07388907599802" lon="15.67698043937897"><ele>162.66666666666669</ele><time>2026-04-14T09:00:24Z</time></trkpt><trkpt lat="38.07397205909621" lon="15.677028783248906"><ele>164.0</ele><time>2026-04-14T09:00:25Z</time></trkpt><trkpt lat="38.07405114483483" lon="15.677088699687598"><ele>165.33333333333334</ele><time>2026-04-14T09:00:26Z</time></trkpt><trkpt lat="38.07413108939435" lon="15.677153738590237"><ele>166.66666666666666</ele><time>2026-04-14T09:00:26.999Z</time></trkpt><trkpt lat="38.07420497188046" lon="15.677231231066076"><ele>168.0</ele><time>2026-04-14T09:00:27.999Z</time></trkpt><trkpt lat="38.074264073218885" lon="15.677340873943326"><ele>169.0</ele><time>2026-04-14T09:00:28.999Z</time></trkpt><trkpt lat="38.07433475847163" lon="15.677447488307058"><ele>170.0</ele><time>2026-04-14T09:00:29.999Z</time></trkpt><trkpt lat="38.074393369342445" lon="15.677551391554077"><ele>171.0</ele><time>2026-04-14T09:00:30.999Z</time></trkpt><trkpt lat="38.074461043527926" lon="15.677655267488287"><ele>172.0</ele><time>2026-04-14T09:00:31.999Z</time></trkpt><trkpt lat="38.07451224029067" lon="15.67778745296038"><ele>173.0</ele><time>2026-04-14T09:00:32.999Z</time></trkpt><trkpt lat="38.074563774621375" lon="15.677924528653678"><ele>174.0</ele><time>2026-04-14T09:00:33.999Z</time></trkpt><trkpt lat="38.07462414791918" lon="15.678053969034364"><ele>175.0</ele><time>2026-04-14T09:00:34.999Z</time></trkpt><trkpt lat="38.074686533075216" lon="15.678162624890128"><ele>176.0</ele><time>2026-04-14T09:00:35.999Z</time></trkpt><trkpt lat="38.0747308846136" lon="15.678256896458663"><ele>177.0</ele><time>2026-04-14T09:00:36.999Z</time></trkpt><trkpt lat="38.074747404143324" lon="15.678361608694523"><ele>178.0</ele><time>2026-04-14T09:00:37.999Z</time></trkpt><trkpt lat="38.07473660818618" lon="15.678497672065614"><ele>179.60000000000002</ele><time>2026-04-14T09:00:38.999Z</time></trkpt><trkpt lat="38.074699524159044" lon="15.678626195417879"><ele>181.20000000000002</ele><time>2026-04-14T09:00:39.999Z</time></trkpt><trkpt lat="38.074660756240156" lon="15.678765546508474"><ele>182.8</ele><time>2026-04-14T09:00:40.999Z</time></trkpt><trkpt lat="38.07462721982633" lon="15.678904821867578"><ele>184.4</ele><time>2026-04-14T09:00:41.999Z</time></trkpt><trkpt lat="38.07459432202089" lon="15.679031370348156"><ele>186.0</ele><time>2026-04-14T09:00:42.999Z</time></trkpt><trkpt lat="38.07455974972976" lon="15.679134139944587"><ele>186.0</ele><time>2026-04-14T09:00:43.999Z</time></trkpt><trkpt lat="38.07452077179607" lon="15.679201538220486"><ele>186.0</ele><time>2026-04-14T09:00:44.999Z</time></trkpt><trkpt lat="38.07443339004535" lon="15.679202685580798"><ele>186.0</ele><time>2026-04-14T09:00:46.999Z</time></trkpt><trkpt lat="38.07435119965695" lon="15.679046507955244"><ele>186.0</ele><time>2026-04-14T09:00:48.999Z</time></trkpt><trkpt lat="38.07428136951499" lon="15.678929060605624"><ele>186.0</ele><time>2026-04-14T09:00:49.999Z</time></trkpt><trkpt lat="38.07420511516329" lon="15.678804755568486"><ele>186.0</ele><time>2026-04-14T09:00:50.999Z</time></trkpt><trkpt lat="38.07412713590525" lon="15.678681023717768"><ele>186.0</ele><time>2026-04-14T09:00:51.999Z</time></trkpt><trkpt lat="38.07404914771571" lon="15.678578199663377"><ele>186.0</ele><time>2026-04-14T09:00:52.999Z</time></trkpt><trkpt lat="38.073971605408914" lon="15.678506221400278"><ele>186.0</ele><time>2026-04-14T09:00:53.999Z</time></trkpt><trkpt lat="38.07389639219709" lon="15.678473685476908"><ele>186.0</ele><time>2026-04-14T09:00:54.999Z</time></trkpt><trkpt lat="38.07382642966804" lon="15.678503316497137"><ele>184.33333333333334</ele><time>2026-04-14T09:00:55.999Z</time></trkpt><trkpt lat="38.073791038452505" lon="15.678587687618943"><ele>182.66666666666666</ele><time>2026-04-14T09:00:56.999Z</time></trkpt><trkpt lat="38.07378677585578" lon="15.67874875893642"><ele>181.0</ele><time>2026-04-14T09:00:58.999Z</time></trkpt><trkpt lat="38.07381870622787" lon="15.678842241474886"><ele>179.33333333333331</ele><time>2026-04-14T09:00:59.999Z</time></trkpt><trkpt lat="38.073856970041675" lon="15.678941443487489"><ele>177.66666666666666</ele><time>2026-04-14T09:01:00.999Z</time></trkpt><trkpt lat="38.07388864932243" lon="15.67903268877083"><ele>176.0</ele><time>2026-04-14T09:01:01.999Z</time></trkpt><trkpt lat="38.07385335258929" lon="15.67893438633386"><ele>176.0</ele><time>2026-04-14T09:01:08.999Z</time></trkpt><trkpt lat="38.07382905564478" lon="15.678845423687937"><ele>176.0</ele><time>2026-04-14T09:01:09.999Z</time></trkpt><trkpt lat="38.0737933182175" lon="15.678752207637114"><ele>176.0</ele><time>2026-04-14T09:01:10.999Z</time></trkpt><trkpt lat="38.073782867553916" lon="15.6786689511158"><ele>176.0</ele><time>2026-04-14T09:01:11.999Z</time></trkpt><trkpt lat="38.073747116543416" lon="15.678573747145828"><ele>176.0</ele><time>2026-04-14T09:01:13.999Z</time></trkpt><trkpt lat="38.07371278740566" lon="15.678465777591626"><ele>176.0</ele><time>2026-04-14T09:01:15.999Z</time></trkpt><trkpt lat="38.073639752344306" lon="15.678485747780542"><ele>176.0</ele><time>2026-04-14T09:01:19Z</time></trkpt><trkpt lat="38.07363945339994" lon="15.678596375405144"><ele>176.0</ele><time>2026-04-14T09:01:21Z</time></trkpt><trkpt lat="38.07364711631143" lon="15.678677663251511"><ele>176.0</ele><time>2026-04-14T09:01:22Z</time></trkpt><trkpt lat="38.073647572726045" lon="15.678808150273978"><ele>176.0</ele><time>2026-04-14T09:01:24Z</time></trkpt><trkpt lat="38.07364673059636" lon="15.67891603770276"><ele>176.0</ele><time>2026-04-14T09:01:26Z</time></trkpt><trkpt lat="38.073625063053484" lon="15.679004439675767"><ele>176.0</ele><time>2026-04-14T09:01:28Z</time></trkpt><trkpt lat="38.0735889596033" lon="15.679122649492824"><ele>175.8</ele><time>2026-04-14T09:01:30Z</time></trkpt><trkpt lat="38.073550428163855" lon="15.679243826591737"><ele>175.60000000000002</ele><time>2026-04-14T09:01:32Z</time></trkpt><trkpt lat="38.07349812135477" lon="15.679366595820783"><ele>175.4</ele><time>2026-04-14T09:01:34Z</time></trkpt><trkpt lat="38.07343211285064" lon="15.679495333975078"><ele>175.2</ele><time>2026-04-14T09:01:36Z</time></trkpt><trkpt lat="38.073360154464055" lon="15.679605039847758"><ele>175.0</ele><time>2026-04-14T09:01:38Z</time></trkpt><trkpt lat="38.07328139548998" lon="15.67972386755209"><ele>167.2</ele><time>2026-04-14T09:01:40Z</time></trkpt><trkpt lat="38.073216883625435" lon="15.679827222905375"><ele>159.4</ele><time>2026-04-14T09:01:42Z</time></trkpt><trkpt lat="38.073166537820974" lon="15.679944582182106"><ele>151.6</ele><time>2026-04-14T09:01:44Z</time></trkpt><trkpt lat="38.073133950069845" lon="15.680055036961969"><ele>143.8</ele><time>2026-04-14T09:01:46Z</time></trkpt><trkpt lat="38.073117016581" lon="15.680169923098493"><ele>136.0</ele><time>2026-04-14T09:01:48Z</time></trkpt><trkpt lat="38.07310551840905" lon="15.68028953820975"><ele>136.0</ele><time>2026-04-14T09:01:50Z</time></trkpt><trkpt lat="38.073089073914645" lon="15.680424750497352"><ele>136.0</ele><time>2026-04-14T09:01:52Z</time></trkpt><trkpt lat="38.0730732273457" lon="15.680551044508018"><ele>136.0</ele><time>2026-04-14T09:01:54Z</time></trkpt><trkpt lat="38.07302350697828" lon="15.680630817836164"><ele>136.0</ele><time>2026-04-14T09:01:56Z</time></trkpt><trkpt lat="38.07296160613422" lon="15.680696831709295"><ele>136.0</ele><time>2026-04-14T09:01:58Z</time></trkpt><trkpt lat="38.07290703357305" lon="15.680772368897811"><ele>136.0</ele><time>2026-04-14T09:02:00Z</time></trkpt><trkpt lat="38.0728826147043" lon="15.680867495424094"><ele>136.0</ele><time>2026-04-14T09:02:02Z</time></trkpt><trkpt lat="38.07287829035755" lon="15.680993273750007"><ele>136.0</ele><time>2026-04-14T09:02:04Z</time></trkpt><trkpt lat="38.07289105468448" lon="15.681137678154663"><ele>136.0</ele><time>2026-04-14T09:02:06Z</time></trkpt><trkpt lat="38.07291154702651" lon="15.681260272992516"><ele>136.0</ele><time>2026-04-14T09:02:08Z</time></trkpt><trkpt lat="38.07291699507316" lon="15.681340526208864"><ele>136.2</ele><time>2026-04-14T09:02:09Z</time></trkpt><trkpt lat="38.07287225687636" lon="15.681462622910981"><ele>136.39999999999998</ele><time>2026-04-14T09:02:11Z</time></trkpt><trkpt lat="38.07284685955219" lon="15.681578213357142"><ele>136.6</ele><time>2026-04-14T09:02:13Z</time></trkpt><trkpt lat="38.07280856930758" lon="15.68172076410379"><ele>136.79999999999998</ele><time>2026-04-14T09:02:15Z</time></trkpt><trkpt lat="38.072790346390754" lon="15.68186097072051"><ele>137.0</ele><time>2026-04-14T09:02:17Z</time></trkpt><trkpt lat="38.07281501657566" lon="15.681968583672825"><ele>137.33333333333331</ele><time>2026-04-14T09:02:19Z</time></trkpt><trkpt lat="38.07283527659312" lon="15.682044799331583"><ele>137.66666666666666</ele><time>2026-04-14T09:02:20Z</time></trkpt><trkpt lat="38.072873424923934" lon="15.682152327809662"><ele>138.0</ele><time>2026-04-14T09:02:22Z</time></trkpt><trkpt lat="38.072853585164864" lon="15.682268750741256"><ele>138.33333333333334</ele><time>2026-04-14T09:02:23.999Z</time></trkpt><trkpt lat="38.07280674863108" lon="15.682373552950626"><ele>138.66666666666669</ele><time>2026-04-14T09:02:25.999Z</time></trkpt><trkpt lat="38.072805368280015" lon="15.682500182860178"><ele>139.0</ele><time>2026-04-14T09:02:27.999Z</time></trkpt><trkpt lat="38.07285725934406" lon="15.68262794447682"><ele>139.0</ele><time>2026-04-14T09:02:29.999Z</time></trkpt><trkpt lat="38.07287423067939" lon="15.682715878082522"><ele>139.0</ele><time>2026-04-14T09:02:31.999Z</time></trkpt><trkpt lat="38.07278953955397" lon="15.682816492498826"><ele>139.0</ele><time>2026-04-14T09:02:33.999Z</time></trkpt><trkpt lat="38.072741172510305" lon="15.682929057326934"><ele>139.0</ele><time>2026-04-14T09:02:35.999Z</time></trkpt><trkpt lat="38.07274781624444" lon="15.683060567003588"><ele>139.0</ele><time>2026-04-14T09:02:37.999Z</time></trkpt><trkpt lat="38.07273987241433" lon="15.68318223362123"><ele>139.6</ele><time>2026-04-14T09:02:39.999Z</time></trkpt><trkpt lat="38.07269839704351" lon="15.683289664856517"><ele>140.2</ele><time>2026-04-14T09:02:41.999Z</time></trkpt><trkpt lat="38.07266486766689" lon="15.683392831374139"><ele>140.79999999999998</ele><time>2026-04-14T09:02:43.999Z</time></trkpt><trkpt lat="38.07267022479523" lon="15.683483316473104"><ele>141.4</ele><time>2026-04-14T09:02:45.999Z</time></trkpt><trkpt lat="38.07269545570185" lon="15.68363107125689"><ele>142.0</ele><time>2026-04-14T09:02:47.999Z</time></trkpt><trkpt lat="38.07269084450062" lon="15.683751968393972"><ele>143.5</ele><time>2026-04-14T09:02:49.999Z</time></trkpt><trkpt lat="38.072657195274125" lon="15.683862280700975"><ele>145.0</ele><time>2026-04-14T09:02:52.999Z</time></trkpt><trkpt lat="38.07258777332661" lon="15.683883136067738"><ele>146.5</ele><time>2026-04-14T09:02:54.999Z</time></trkpt><trkpt lat="38.07249613034827" lon="15.683855610111467"><ele>148.0</ele><time>2026-04-14T09:02:56.999Z</time></trkpt><trkpt lat="38.07239810903421" lon="15.683872263292967"><ele>149.5</ele><time>2026-04-14T09:02:58.999Z</time></trkpt><trkpt lat="38.0723406198162" lon="15.68383762939727"><ele>151.0</ele><time>2026-04-14T09:03:00.999Z</time></trkpt><trkpt lat="38.07229202653098" lon="15.683781431217431"><ele>156.33333333333334</ele><time>2026-04-14T09:03:02.999Z</time></trkpt><trkpt lat="38.072239572992714" lon="15.683733108363818"><ele>161.66666666666669</ele><time>2026-04-14T09:03:27Z</time></trkpt><trkpt lat="38.07217691863444" lon="15.68368890777422"><ele>167.0</ele><time>2026-04-14T09:03:33Z</time></trkpt><trkpt lat="38.072192621097244" lon="15.683775061059691"><ele>172.33333333333334</ele><time>2026-04-14T09:03:37Z</time></trkpt><trkpt lat="38.07223269348363" lon="15.683893378222583"><ele>177.66666666666666</ele><time>2026-04-14T09:03:39Z</time></trkpt><trkpt lat="38.07226717709525" lon="15.68401425117628"><ele>183.0</ele><time>2026-04-14T09:03:41Z</time></trkpt><trkpt lat="38.072323217303264" lon="15.68413294668042"><ele>183.0</ele><time>2026-04-14T09:03:43Z</time></trkpt><trkpt lat="38.0723429756145" lon="15.684214739138254"><ele>183.0</ele><time>2026-04-14T09:03:44Z</time></trkpt><trkpt lat="38.072344166986056" lon="15.684319876324068"><ele>183.0</ele><time>2026-04-14T09:03:45Z</time></trkpt><trkpt lat="38.07237501833742" lon="15.684406080289682"><ele>183.0</ele><time>2026-04-14T09:03:46Z</time></trkpt><trkpt lat="38.07241235963611" lon="15.684482547099897"><ele>183.0</ele><time>2026-04-14T09:03:47Z</time></trkpt><trkpt lat="38.072457429564984" lon="15.684566180619521"><ele>183.0</ele><time>2026-04-14T09:03:48Z</time></trkpt><trkpt lat="38.072510422003376" lon="15.6846536845384"><ele>179.28571428571428</ele><time>2026-04-14T09:03:49Z</time></trkpt><trkpt lat="38.0725603862994" lon="15.684727761893761"><ele>175.57142857142858</ele><time>2026-04-14T09:03:50Z</time></trkpt><trkpt lat="38.072601046535276" lon="15.684805925104671"><ele>171.85714285714283</ele><time>2026-04-14T09:03:51Z</time></trkpt><trkpt lat="38.07263258278185" lon="15.684876863245243"><ele>168.14285714285714</ele><time>2026-04-14T09:03:52Z</time></trkpt><trkpt lat="38.07266173623831" lon="15.684951678786739"><ele>164.42857142857142</ele><time>2026-04-14T09:03:53Z</time></trkpt><trkpt lat="38.07268502434751" lon="15.685031382800192"><ele>160.7142857142857</ele><time>2026-04-14T09:03:54Z</time></trkpt><trkpt lat="38.07268239610812" lon="15.68512189546769"><ele>157.0</ele><time>2026-04-14T09:03:56Z</time></trkpt><trkpt lat="38.07264047342066" lon="15.685192040187639"><ele>158.0</ele><time>2026-04-14T09:03:58Z</time></trkpt><trkpt lat="38.07259101624317" lon="15.685297618876348"><ele>159.0</ele><time>2026-04-14T09:04:00Z</time></trkpt><trkpt lat="38.07254670890768" lon="15.685372040467156"><ele>160.0</ele><time>2026-04-14T09:04:01Z</time></trkpt><trkpt lat="38.072497967614666" lon="15.685457763390104"><ele>161.0</ele><time>2026-04-14T09:04:02Z</time></trkpt><trkpt lat="38.072445413919816" lon="15.68551799985463"><ele>162.0</ele><time>2026-04-14T09:04:03Z</time></trkpt><trkpt lat="38.072413343071965" lon="15.685643013480993"><ele>163.0</ele><time>2026-04-14T09:04:05Z</time></trkpt><trkpt lat="38.07244158052813" lon="15.685785505445661"><ele>163.0</ele><time>2026-04-14T09:04:07Z</time></trkpt><trkpt lat="38.07247733252967" lon="15.685864157840175"><ele>163.0</ele><time>2026-04-14T09:04:08Z</time></trkpt><trkpt lat="38.07251985218119" lon="15.685945774273051"><ele>163.0</ele><time>2026-04-14T09:04:09Z</time></trkpt><trkpt lat="38.072562974137725" lon="15.686031393772048"><ele>163.0</ele><time>2026-04-14T09:04:10Z</time></trkpt><trkpt lat="38.07260766200833" lon="15.6861245107937"><ele>163.0</ele><time>2026-04-14T09:04:11Z</time></trkpt><trkpt lat="38.07264717728613" lon="15.686207176753573"><ele>163.0</ele><time>2026-04-14T09:04:12Z</time></trkpt><trkpt lat="38.072685153112005" lon="15.686292545531062"><ele>163.66666666666669</ele><time>2026-04-14T09:04:13Z</time></trkpt><trkpt lat="38.072716079241125" lon="15.686366904335983"><ele>164.33333333333334</ele><time>2026-04-14T09:04:14Z</time></trkpt><trkpt lat="38.07274068411449" lon="15.686441962257069"><ele>165.0</ele><time>2026-04-14T09:04:15Z</time></trkpt><trkpt lat="38.072770189776946" lon="15.686537210424458"><ele>165.66666666666666</ele><time>2026-04-14T09:04:16Z</time></trkpt><trkpt lat="38.072801260160404" lon="15.686638389710021"><ele>166.33333333333331</ele><time>2026-04-14T09:04:17Z</time></trkpt><trkpt lat="38.07285225632604" lon="15.686727338627943"><ele>167.0</ele><time>2026-04-14T09:04:18Z</time></trkpt><trkpt lat="38.07288200848776" lon="15.686820288286253"><ele>167.0</ele><time>2026-04-14T09:04:19Z</time></trkpt><trkpt lat="38.072900023053066" lon="15.686923309759553"><ele>167.0</ele><time>2026-04-14T09:04:20Z</time></trkpt><trkpt lat="38.07291792265848" lon="15.68703610590852"><ele>167.0</ele><time>2026-04-14T09:04:21Z</time></trkpt><trkpt lat="38.07297118719788" lon="15.687126406812336"><ele>167.0</ele><time>2026-04-14T09:04:22Z</time></trkpt><trkpt lat="38.07300340190646" lon="15.687230044360037"><ele>167.0</ele><time>2026-04-14T09:04:23Z</time></trkpt><trkpt lat="38.07302981048525" lon="15.687350949772016"><ele>167.0</ele><time>2026-04-14T09:04:24Z</time></trkpt><trkpt lat="38.07304411678746" lon="15.687464477487213"><ele>168.39999999999998</ele><time>2026-04-14T09:04:24.999Z</time></trkpt><trkpt lat="38.07306656868913" lon="15.687589814521791"><ele>169.79999999999998</ele><time>2026-04-14T09:04:25.999Z</time></trkpt><trkpt lat="38.07308772574509" lon="15.687705753812363"><ele>171.2</ele><time>2026-04-14T09:04:26.999Z</time></trkpt><trkpt lat="38.07310316065721" lon="15.687804415076195"><ele>172.6</ele><time>2026-04-14T09:04:27.999Z</time></trkpt><trkpt lat="38.07312673386267" lon="15.687904743694046"><ele>174.0</ele><time>2026-04-14T09:04:28.999Z</time></trkpt><trkpt lat="38.073155937082454" lon="15.68801923701171"><ele>175.0</ele><time>2026-04-14T09:04:29.999Z</time></trkpt><trkpt lat="38.07319672452476" lon="15.68812598231625"><ele>176.0</ele><time>2026-04-14T09:04:30.999Z</time></trkpt><trkpt lat="38.07323657841751" lon="15.688242510204992"><ele>177.0</ele><time>2026-04-14T09:04:31.999Z</time></trkpt><trkpt lat="38.0732581366837" lon="15.688362357010243"><ele>178.0</ele><time>2026-04-14T09:04:32.999Z</time></trkpt><trkpt lat="38.073287809554536" lon="15.688472237124202"><ele>179.0</ele><time>2026-04-14T09:04:33.999Z</time></trkpt><trkpt lat="38.07331924089813" lon="15.688590287133481"><ele>177.66666666666666</ele><time>2026-04-14T09:04:34.999Z</time></trkpt><trkpt lat="38.07336192948832" lon="15.688689609241665"><ele>176.33333333333331</ele><time>2026-04-14T09:04:35.999Z</time></trkpt><trkpt lat="38.073388951901485" lon="15.688807744604896"><ele>175.0</ele><time>2026-04-14T09:04:36.999Z</time></trkpt><trkpt lat="38.073418515537504" lon="15.68891644755786"><ele>173.66666666666666</ele><time>2026-04-14T09:04:37.999Z</time></trkpt><trkpt lat="38.07344734001017" lon="15.689007848938582"><ele>172.33333333333334</ele><time>2026-04-14T09:04:38.999Z</time></trkpt><trkpt lat="38.07349870022697" lon="15.689092081922912"><ele>171.0</ele><time>2026-04-14T09:04:39.999Z</time></trkpt><trkpt lat="38.07353245865173" lon="15.689176344446336"><ele>171.0</ele><time>2026-04-14T09:04:40.999Z</time></trkpt><trkpt lat="38.073583978146495" lon="15.68926278234436"><ele>171.0</ele><time>2026-04-14T09:04:41.999Z</time></trkpt><trkpt lat="38.07365614572715" lon="15.689346147346123"><ele>171.0</ele><time>2026-04-14T09:04:42.999Z</time></trkpt><trkpt lat="38.07372585033754" lon="15.689416328589354"><ele>171.0</ele><time>2026-04-14T09:04:43.999Z</time></trkpt><trkpt lat="38.073773864215184" lon="15.689490449044117"><ele>171.0</ele><time>2026-04-14T09:04:44.999Z</time></trkpt><trkpt lat="38.07381753687445" lon="15.689568039912238"><ele>171.0</ele><time>2026-04-14T09:04:46.999Z</time></trkpt><trkpt lat="38.073877507918596" lon="15.689655654774066"><ele>174.16666666666666</ele><time>2026-04-14T09:04:49.999Z</time></trkpt><trkpt lat="38.073916551637666" lon="15.689815560569462"><ele>177.33333333333334</ele><time>2026-04-14T09:04:51.999Z</time></trkpt><trkpt lat="38.07394804673816" lon="15.689898711052674"><ele>180.5</ele><time>2026-04-14T09:04:52.999Z</time></trkpt><trkpt lat="38.07397804884616" lon="15.689989414825945"><ele>183.66666666666669</ele><time>2026-04-14T09:04:53.999Z</time></trkpt><trkpt lat="38.07401942691904" lon="15.690069055075233"><ele>186.83333333333334</ele><time>2026-04-14T09:04:54.999Z</time></trkpt><trkpt lat="38.07403228460896" lon="15.690168635785419"><ele>190.0</ele><time>2026-04-14T09:04:55.999Z</time></trkpt><trkpt lat="38.0740551869248" lon="15.690253449454886"><ele>191.33333333333334</ele><time>2026-04-14T09:04:56.999Z</time></trkpt><trkpt lat="38.074076987203334" lon="15.690334392895075"><ele>192.66666666666669</ele><time>2026-04-14T09:04:57.999Z</time></trkpt><trkpt lat="38.07408190343927" lon="15.690449095386587"><ele>194.0</ele><time>2026-04-14T09:04:59.999Z</time></trkpt><trkpt lat="38.074040942722924" lon="15.690580402821682"><ele>195.33333333333334</ele><time>2026-04-14T09:05:01.999Z</time></trkpt><trkpt lat="38.073997992590506" lon="15.690653128595144"><ele>196.66666666666666</ele><time>2026-04-14T09:05:02.999Z</time></trkpt><trkpt lat="38.07394977291129" lon="15.690741512564955"><ele>198.0</ele><time>2026-04-14T09:05:03.999Z</time></trkpt><trkpt lat="38.07390059060829" lon="15.690827533890428"><ele>198.0</ele><time>2026-04-14T09:05:04.999Z</time></trkpt><trkpt lat="38.07384097874938" lon="15.690922724707262"><ele>198.0</ele><time>2026-04-14T09:05:05.999Z</time></trkpt><trkpt lat="38.073792770501164" lon="15.69100781142004"><ele>198.0</ele><time>2026-04-14T09:05:06.999Z</time></trkpt><trkpt lat="38.07373674758006" lon="15.6910961646669"><ele>198.0</ele><time>2026-04-14T09:05:07.999Z</time></trkpt><trkpt lat="38.07367758954564" lon="15.691169074689292"><ele>198.0</ele><time>2026-04-14T09:05:08.999Z</time></trkpt><trkpt lat="38.0736218225728" lon="15.691235717568178"><ele>198.0</ele><time>2026-04-14T09:05:09.999Z</time></trkpt><trkpt lat="38.07357496790368" lon="15.69130623618207"><ele>196.66666666666666</ele><time>2026-04-14T09:05:10.999Z</time></trkpt><trkpt lat="38.07351308459399" lon="15.691363403724893"><ele>195.33333333333334</ele><time>2026-04-14T09:05:11.999Z</time></trkpt><trkpt lat="38.07346424046982" lon="15.691441176475118"><ele>194.0</ele><time>2026-04-14T09:05:12.999Z</time></trkpt><trkpt lat="38.07344724267251" lon="15.691548012008523"><ele>192.66666666666669</ele><time>2026-04-14T09:05:13.999Z</time></trkpt><trkpt lat="38.07342106882542" lon="15.691650683797693"><ele>191.33333333333334</ele><time>2026-04-14T09:05:14.999Z</time></trkpt><trkpt lat="38.07340551952488" lon="15.691759590147837"><ele>190.0</ele><time>2026-04-14T09:05:15.999Z</time></trkpt><trkpt lat="38.073391373858975" lon="15.691859560198365"><ele>189.66666666666669</ele><time>2026-04-14T09:05:16.999Z</time></trkpt><trkpt lat="38.07334529999399" lon="15.691939519334616"><ele>189.33333333333334</ele><time>2026-04-14T09:05:17.999Z</time></trkpt><trkpt lat="38.073315663200155" lon="15.692065802308644"><ele>189.0</ele><time>2026-04-14T09:05:19.999Z</time></trkpt><trkpt lat="38.07330694386972" lon="15.692202572460355"><ele>188.66666666666666</ele><time>2026-04-14T09:05:21.999Z</time></trkpt><trkpt lat="38.07332847501035" lon="15.692290737176691"><ele>188.33333333333331</ele><time>2026-04-14T09:05:22.999Z</time></trkpt><trkpt lat="38.0733447002742" lon="15.69237181845219"><ele>188.0</ele><time>2026-04-14T09:05:23.999Z</time></trkpt><trkpt lat="38.07335953333717" lon="15.69251109690763"><ele>188.0</ele><time>2026-04-14T09:05:25.999Z</time></trkpt><trkpt lat="38.07338672998146" lon="15.692596147513504"><ele>188.0</ele><time>2026-04-14T09:05:26.999Z</time></trkpt><trkpt lat="38.07340728604511" lon="15.692674857278043"><ele>188.0</ele><time>2026-04-14T09:05:28Z</time></trkpt><trkpt lat="38.07341981060288" lon="15.692761561576821"><ele>188.0</ele><time>2026-04-14T09:05:29Z</time></trkpt><trkpt lat="38.07343378671556" lon="15.692840168940737"><ele>188.0</ele><time>2026-04-14T09:05:30Z</time></trkpt><trkpt lat="38.07344762156446" lon="15.692919038471889"><ele>188.0</ele><time>2026-04-14T09:05:31Z</time></trkpt><trkpt lat="38.07345819070468" lon="15.693073244346243"><ele>188.66666666666666</ele><time>2026-04-14T09:05:33Z</time></trkpt><trkpt lat="38.07345957054167" lon="15.693154821981473"><ele>189.33333333333331</ele><time>2026-04-14T09:05:34Z</time></trkpt><trkpt lat="38.073456733486516" lon="15.69326079707329"><ele>190.0</ele><time>2026-04-14T09:05:35Z</time></trkpt><trkpt lat="38.0734799172708" lon="15.693350247513026"><ele>190.66666666666666</ele><time>2026-04-14T09:05:36Z</time></trkpt><trkpt lat="38.07351348797973" lon="15.69348995516866"><ele>191.33333333333334</ele><time>2026-04-14T09:05:38Z</time></trkpt><trkpt lat="38.073527541312934" lon="15.69359295623298"><ele>192.0</ele><time>2026-04-14T09:05:39Z</time></trkpt><trkpt lat="38.07355509391552" lon="15.69369187490469"><ele>193.2</ele><time>2026-04-14T09:05:40Z</time></trkpt><trkpt lat="38.073585098097865" lon="15.69380428213743"><ele>194.39999999999998</ele><time>2026-04-14T09:05:41Z</time></trkpt><trkpt lat="38.07361190992435" lon="15.693914848549763"><ele>195.60000000000002</ele><time>2026-04-14T09:05:42Z</time></trkpt><trkpt lat="38.073626442061084" lon="15.694027067549229"><ele>196.8</ele><time>2026-04-14T09:05:43Z</time></trkpt><trkpt lat="38.07365316000405" lon="15.694135675542723"><ele>198.0</ele><time>2026-04-14T09:05:44Z</time></trkpt><trkpt lat="38.073659417049264" lon="15.694248834124757"><ele>198.0</ele><time>2026-04-14T09:05:45Z</time></trkpt><trkpt lat="38.073669311992965" lon="15.694358280215688"><ele>198.0</ele><time>2026-04-14T09:05:46Z</time></trkpt><trkpt lat="38.07369518980921" lon="15.69447480942722"><ele>198.0</ele><time>2026-04-14T09:05:47Z</time></trkpt><trkpt lat="38.07370504852953" lon="15.694587652111018"><ele>198.0</ele><time>2026-04-14T09:05:48Z</time></trkpt><trkpt lat="38.07368693350363" lon="15.694677335480002"><ele>198.0</ele><time>2026-04-14T09:05:49Z</time></trkpt><trkpt lat="38.073672387520396" lon="15.694830721269422"><ele>198.75</ele><time>2026-04-14T09:05:51Z</time></trkpt><trkpt lat="38.07363933846054" lon="15.694973925406375"><ele>199.5</ele><time>2026-04-14T09:05:53Z</time></trkpt><trkpt lat="38.07357777677944" lon="15.695092640866768"><ele>200.25</ele><time>2026-04-14T09:05:55Z</time></trkpt><trkpt lat="38.07352118726927" lon="15.695252440676441"><ele>201.0</ele><time>2026-04-14T09:05:57Z</time></trkpt><trkpt lat="38.073472585059875" lon="15.695339632876387"><ele>201.0</ele><time>2026-04-14T09:05:58Z</time></trkpt><trkpt lat="38.07342936922555" lon="15.695420387545038"><ele>201.0</ele><time>2026-04-14T09:05:59Z</time></trkpt><trkpt lat="38.073387738403106" lon="15.695501401603108"><ele>201.0</ele><time>2026-04-14T09:06:00Z</time></trkpt><trkpt lat="38.073352804235526" lon="15.695577937276083"><ele>201.0</ele><time>2026-04-14T09:06:01Z</time></trkpt><trkpt lat="38.07331247829084" lon="15.695720842862254"><ele>201.0</ele><time>2026-04-14T09:06:03Z</time></trkpt><trkpt lat="38.07327770515497" lon="15.695791739575675"><ele>201.0</ele><time>2026-04-14T09:06:04Z</time></trkpt><trkpt lat="38.07322796368272" lon="15.695867078616356"><ele>202.5</ele><time>2026-04-14T09:06:05Z</time></trkpt><trkpt lat="38.07318437561901" lon="15.695940347561642"><ele>204.0</ele><time>2026-04-14T09:06:06Z</time></trkpt><trkpt lat="38.07313995642148" lon="15.696011336771324"><ele>205.5</ele><time>2026-04-14T09:06:07Z</time></trkpt><trkpt lat="38.07304128676795" lon="15.696140158957324"><ele>207.0</ele><time>2026-04-14T09:06:09Z</time></trkpt><trkpt lat="38.07300169494953" lon="15.696215972082241"><ele>208.5</ele><time>2026-04-14T09:06:10Z</time></trkpt><trkpt lat="38.07295516152896" lon="15.696290153477461"><ele>210.0</ele><time>2026-04-14T09:06:11Z</time></trkpt><trkpt lat="38.072905583493615" lon="15.696356071177398"><ele>210.0</ele><time>2026-04-14T09:06:12Z</time></trkpt><trkpt lat="38.07285354446114" lon="15.696407794914693"><ele>210.0</ele><time>2026-04-14T09:06:13Z</time></trkpt><trkpt lat="38.07279845607587" lon="15.696450930549805"><ele>210.0</ele><time>2026-04-14T09:06:14Z</time></trkpt><trkpt lat="38.0727394261538" lon="15.69649737304261"><ele>210.0</ele><time>2026-04-14T09:06:15Z</time></trkpt><trkpt lat="38.072676627246764" lon="15.696544226050966"><ele>210.0</ele><time>2026-04-14T09:06:16Z</time></trkpt><trkpt lat="38.07261854677577" lon="15.696594797148878"><ele>210.0</ele><time>2026-04-14T09:06:17Z</time></trkpt><trkpt lat="38.072565257575555" lon="15.696639051027082"><ele>210.0</ele><time>2026-04-14T09:06:18Z</time></trkpt><trkpt lat="38.07247288139996" lon="15.69675327442978"><ele>211.8</ele><time>2026-04-14T09:06:19.999Z</time></trkpt><trkpt lat="38.07238977517084" lon="15.696840828224778"><ele>213.6</ele><time>2026-04-14T09:06:21.999Z</time></trkpt><trkpt lat="38.072288418256875" lon="15.696908703807313"><ele>215.39999999999998</ele><time>2026-04-14T09:06:23.999Z</time></trkpt><trkpt lat="38.072212851657326" lon="15.69704491415482"><ele>217.2</ele><time>2026-04-14T09:06:25.999Z</time></trkpt><trkpt lat="38.07218645073449" lon="15.697120505259763"><ele>219.0</ele><time>2026-04-14T09:06:26.999Z</time></trkpt><trkpt lat="38.07216913150955" lon="15.697205985755904"><ele>219.0</ele><time>2026-04-14T09:06:27.999Z</time></trkpt><trkpt lat="38.07213810895113" lon="15.697375899485738"><ele>218.99999999999997</ele><time>2026-04-14T09:06:29.999Z</time></trkpt><trkpt lat="38.07212653436201" lon="15.697458431447885"><ele>218.99999999999997</ele><time>2026-04-14T09:06:30.999Z</time></trkpt><trkpt lat="38.072055937498575" lon="15.69758546404384"><ele>219.0</ele><time>2026-04-14T09:06:32.999Z</time></trkpt><trkpt lat="38.07197313758882" lon="15.697640571498397"><ele>219.0</ele><time>2026-04-14T09:06:34.999Z</time></trkpt><trkpt lat="38.07188853367604" lon="15.697691481289853"><ele>217.79999999999998</ele><time>2026-04-14T09:06:36.999Z</time></trkpt><trkpt lat="38.0718045692227" lon="15.697761162512734"><ele>216.59999999999997</ele><time>2026-04-14T09:06:38.999Z</time></trkpt><trkpt lat="38.07177395583712" lon="15.697851922872053"><ele>215.4</ele><time>2026-04-14T09:06:40.999Z</time></trkpt><trkpt lat="38.07177260382323" lon="15.697992923264941"><ele>214.2</ele><time>2026-04-14T09:06:42.999Z</time></trkpt><trkpt lat="38.07175965929904" lon="15.698142524624785"><ele>213.0</ele><time>2026-04-14T09:06:44.999Z</time></trkpt><trkpt lat="38.071745491896976" lon="15.698234131459378"><ele>213.0</ele><time>2026-04-14T09:06:45.999Z</time></trkpt><trkpt lat="38.07172113225458" lon="15.69830839272706"><ele>213.0</ele><time>2026-04-14T09:06:46.999Z</time></trkpt><trkpt lat="38.07168730308644" lon="15.698379865117158"><ele>213.0</ele><time>2026-04-14T09:06:47.999Z</time></trkpt><trkpt lat="38.07165306015854" lon="15.698468607628838"><ele>213.0</ele><time>2026-04-14T09:06:49.999Z</time></trkpt><trkpt lat="38.071613568986926" lon="15.698569754698083"><ele>213.0</ele><time>2026-04-14T09:06:51.999Z</time></trkpt><trkpt lat="38.07158248790823" lon="15.698647649071505"><ele>213.0</ele><time>2026-04-14T09:06:53.999Z</time></trkpt><trkpt lat="38.07155878148856" lon="15.698783306988537"><ele>214.0</ele><time>2026-04-14T09:06:55.999Z</time></trkpt><trkpt lat="38.0716576096119" lon="15.69884720531915"><ele>215.0</ele><time>2026-04-14T09:06:57.999Z</time></trkpt><trkpt lat="38.07165187415856" lon="15.699011792342267"><ele>216.0</ele><time>2026-04-14T09:06:59.999Z</time></trkpt><trkpt lat="38.071666833561885" lon="15.699142451518528"><ele>217.0</ele><time>2026-04-14T09:07:01.999Z</time></trkpt><trkpt lat="38.07171771635185" lon="15.699237289843028"><ele>218.0</ele><time>2026-04-14T09:07:03.999Z</time></trkpt><trkpt lat="38.07179029252749" lon="15.699334657308055"><ele>219.66666666666669</ele><time>2026-04-14T09:07:05.999Z</time></trkpt><trkpt lat="38.07184722421059" lon="15.699451168463273"><ele>221.33333333333334</ele><time>2026-04-14T09:07:07.999Z</time></trkpt><trkpt lat="38.07184859138158" lon="15.69954258872773"><ele>223.0</ele><time>2026-04-14T09:07:09.999Z</time></trkpt><trkpt lat="38.07185136681378" lon="15.699629303359622"><ele>224.66666666666669</ele><time>2026-04-14T09:07:11.999Z</time></trkpt><trkpt lat="38.0718979356364" lon="15.699725054853891"><ele>226.33333333333334</ele><time>2026-04-14T09:07:14.999Z</time></trkpt><trkpt lat="38.07197399457806" lon="15.699748394180634"><ele>228.0</ele><time>2026-04-14T09:07:16.999Z</time></trkpt><trkpt lat="38.07204158613346" lon="15.699825528686342"><ele>228.0</ele><time>2026-04-14T09:07:18.999Z</time></trkpt><trkpt lat="38.07209689204995" lon="15.699921800962363"><ele>228.0</ele><time>2026-04-14T09:07:20.999Z</time></trkpt><trkpt lat="38.072139170164334" lon="15.699985354692387"><ele>228.0</ele><time>2026-04-14T09:07:21.999Z</time></trkpt><trkpt lat="38.07222160034382" lon="15.70006855736388"><ele>228.0</ele><time>2026-04-14T09:07:23.999Z</time></trkpt><trkpt lat="38.07228282626337" lon="15.70010469241858"><ele>228.0</ele><time>2026-04-14T09:07:24.999Z</time></trkpt><trkpt lat="38.07233871420605" lon="15.70014246711629"><ele>228.0</ele><time>2026-04-14T09:07:25.999Z</time></trkpt><trkpt lat="38.07240320058055" lon="15.700181785854834"><ele>228.4</ele><time>2026-04-14T09:07:26.999Z</time></trkpt><trkpt lat="38.07247698024244" lon="15.700288459033882"><ele>228.8</ele><time>2026-04-14T09:07:28.999Z</time></trkpt><trkpt lat="38.07252117517301" lon="15.700418512402386"><ele>229.2</ele><time>2026-04-14T09:07:30.999Z</time></trkpt><trkpt lat="38.07257119704163" lon="15.700580341699576"><ele>229.6</ele><time>2026-04-14T09:07:32.999Z</time></trkpt><trkpt lat="38.07260362872657" lon="15.700668280698281"><ele>230.0</ele><time>2026-04-14T09:07:33.999Z</time></trkpt><trkpt lat="38.07264819512355" lon="15.7007948525526"><ele>230.00000000000003</ele><time>2026-04-14T09:07:34.999Z</time></trkpt><trkpt lat="38.0727192601906" lon="15.70081995809271"><ele>230.0</ele><time>2026-04-14T09:07:36.999Z</time></trkpt><trkpt lat="38.072759331788895" lon="15.700882984298678"><ele>230.0</ele><time>2026-04-14T09:07:37.999Z</time></trkpt><trkpt lat="38.07279614100749" lon="15.701037055858695"><ele>230.0</ele><time>2026-04-14T09:07:39.999Z</time></trkpt><trkpt lat="38.07280104041494" lon="15.701131272675953"><ele>230.00000000000003</ele><time>2026-04-14T09:07:40.999Z</time></trkpt><trkpt lat="38.07280199985864" lon="15.701232526242645"><ele>230.0</ele><time>2026-04-14T09:07:41.999Z</time></trkpt><trkpt lat="38.0727948414828" lon="15.701343796488544"><ele>230.83333333333334</ele><time>2026-04-14T09:07:42.999Z</time></trkpt><trkpt lat="38.072788835728886" lon="15.701459266165175"><ele>231.66666666666669</ele><time>2026-04-14T09:07:43.999Z</time></trkpt><trkpt lat="38.07278693006298" lon="15.70155987861972"><ele>232.5</ele><time>2026-04-14T09:07:44.999Z</time></trkpt><trkpt lat="38.07276763981131" lon="15.701653067864383"><ele>233.33333333333331</ele><time>2026-04-14T09:07:45.999Z</time></trkpt><trkpt lat="38.072730534843814" lon="15.701740051550965"><ele>234.16666666666666</ele><time>2026-04-14T09:07:46.999Z</time></trkpt><trkpt lat="38.07269120826183" lon="15.701841763532082"><ele>235.0</ele><time>2026-04-14T09:07:47.999Z</time></trkpt><trkpt lat="38.0726622383594" lon="15.701923343085653"><ele>235.49999999999997</ele><time>2026-04-14T09:07:48.999Z</time></trkpt><trkpt lat="38.07266159170812" lon="15.702041393813728"><ele>236.0</ele><time>2026-04-14T09:07:50.999Z</time></trkpt><trkpt lat="38.07267605856467" lon="15.702194370238423"><ele>236.5</ele><time>2026-04-14T09:07:52.999Z</time></trkpt><trkpt lat="38.072638563584185" lon="15.70226131697364"><ele>237.0</ele><time>2026-04-14T09:07:53.999Z</time></trkpt><trkpt lat="38.072574342098235" lon="15.702328178169585"><ele>237.49999999999997</ele><time>2026-04-14T09:07:54.999Z</time></trkpt><trkpt lat="38.072522385049375" lon="15.702415401003444"><ele>238.0</ele><time>2026-04-14T09:07:55.999Z</time></trkpt><trkpt lat="38.072460005637694" lon="15.702522309926843"><ele>240.2</ele><time>2026-04-14T09:07:56.999Z</time></trkpt><trkpt lat="38.07241359232068" lon="15.70258365732978"><ele>242.4</ele><time>2026-04-14T09:07:57.999Z</time></trkpt><trkpt lat="38.07233966417717" lon="15.70270752105567"><ele>244.59999999999997</ele><time>2026-04-14T09:07:59.999Z</time></trkpt><trkpt lat="38.072305186273574" lon="15.70280673765615"><ele>246.79999999999998</ele><time>2026-04-14T09:08:00.999Z</time></trkpt><trkpt lat="38.072259586834306" lon="15.702920774288401"><ele>249.0</ele><time>2026-04-14T09:08:01.999Z</time></trkpt><trkpt lat="38.072213385879664" lon="15.703037514654772"><ele>249.16666666666666</ele><time>2026-04-14T09:08:02.999Z</time></trkpt><trkpt lat="38.0721904147872" lon="15.703152263519147"><ele>249.33333333333331</ele><time>2026-04-14T09:08:03.999Z</time></trkpt><trkpt lat="38.072177766939035" lon="15.703260067424337"><ele>249.5</ele><time>2026-04-14T09:08:04.999Z</time></trkpt><trkpt lat="38.072166344403286" lon="15.703347137046704"><ele>249.66666666666666</ele><time>2026-04-14T09:08:05.999Z</time></trkpt><trkpt lat="38.072174599709065" lon="15.703460886115357"><ele>249.83333333333331</ele><time>2026-04-14T09:08:07.999Z</time></trkpt><trkpt lat="38.072187520256335" lon="15.703546166078636"><ele>250.0</ele><time>2026-04-14T09:08:08.999Z</time></trkpt><trkpt lat="38.07216078513134" lon="15.703650876568252"><ele>250.2</ele><time>2026-04-14T09:08:09.999Z</time></trkpt><trkpt lat="38.07215962158277" lon="15.703767125707117"><ele>250.4</ele><time>2026-04-14T09:08:10.999Z</time></trkpt><trkpt lat="38.07217197651845" lon="15.703879850552209"><ele>250.60000000000002</ele><time>2026-04-14T09:08:11.999Z</time></trkpt><trkpt lat="38.07218332367362" lon="15.703999058975542"><ele>250.8</ele><time>2026-04-14T09:08:12.999Z</time></trkpt><trkpt lat="38.072203243744845" lon="15.704113955129177"><ele>251.0</ele><time>2026-04-14T09:08:13.999Z</time></trkpt><trkpt lat="38.072217900493115" lon="15.704230958997949"><ele>251.0</ele><time>2026-04-14T09:08:14.999Z</time></trkpt><trkpt lat="38.072241509421744" lon="15.704338844740915"><ele>251.00000000000003</ele><time>2026-04-14T09:08:15.999Z</time></trkpt><trkpt lat="38.072231601714634" lon="15.704451733264357"><ele>251.00000000000003</ele><time>2026-04-14T09:08:16.999Z</time></trkpt><trkpt lat="38.0722303681812" lon="15.704573943085663"><ele>251.0</ele><time>2026-04-14T09:08:17.999Z</time></trkpt><trkpt lat="38.072246810063334" lon="15.704694571274946"><ele>251.0</ele><time>2026-04-14T09:08:18.999Z</time></trkpt><trkpt lat="38.072239231715905" lon="15.704824265100473"><ele>252.4</ele><time>2026-04-14T09:08:19.999Z</time></trkpt><trkpt lat="38.07224262148785" lon="15.704960585481496"><ele>253.8</ele><time>2026-04-14T09:08:20.999Z</time></trkpt><trkpt lat="38.072248494430944" lon="15.705095848173563"><ele>255.20000000000002</ele><time>2026-04-14T09:08:21.999Z</time></trkpt><trkpt lat="38.07227273633541" lon="15.705213652940522"><ele>256.6</ele><time>2026-04-14T09:08:22.999Z</time></trkpt><trkpt lat="38.0722898319873" lon="15.705313888155704"><ele>258.0</ele><time>2026-04-14T09:08:23.999Z</time></trkpt><trkpt lat="38.07231724561791" lon="15.705416325502226"><ele>258.3333333333333</ele><time>2026-04-14T09:08:24.999Z</time></trkpt><trkpt lat="38.07234787533972" lon="15.705522207068814"><ele>258.6666666666667</ele><time>2026-04-14T09:08:25.999Z</time></trkpt><trkpt lat="38.072378120415976" lon="15.705628428845424"><ele>259.0</ele><time>2026-04-14T09:08:26.999Z</time></trkpt><trkpt lat="38.0724067186445" lon="15.705732582876418"><ele>259.33333333333337</ele><time>2026-04-14T09:08:27.999Z</time></trkpt><trkpt lat="38.072432334666594" lon="15.705840774837249"><ele>259.6666666666667</ele><time>2026-04-14T09:08:28.999Z</time></trkpt><trkpt lat="38.072449709192824" lon="15.705952504867511"><ele>260.0</ele><time>2026-04-14T09:08:29.999Z</time></trkpt><trkpt lat="38.07245355307521" lon="15.706072296796773"><ele>259.0</ele><time>2026-04-14T09:08:30.999Z</time></trkpt><trkpt lat="38.07245626775112" lon="15.706191294039984"><ele>258.0</ele><time>2026-04-14T09:08:31.999Z</time></trkpt><trkpt lat="38.07246008759933" lon="15.706305892758744"><ele>257.0</ele><time>2026-04-14T09:08:32.999Z</time></trkpt><trkpt lat="38.07246620933615" lon="15.706423235641932"><ele>256.0</ele><time>2026-04-14T09:08:33.999Z</time></trkpt><trkpt lat="38.07247386109945" lon="15.706536068202956"><ele>255.0</ele><time>2026-04-14T09:08:34.999Z</time></trkpt><trkpt lat="38.07248191299174" lon="15.706654801052558"><ele>255.0</ele><time>2026-04-14T09:08:35.999Z</time></trkpt><trkpt lat="38.07248970966952" lon="15.706769770517672"><ele>255.0</ele><time>2026-04-14T09:08:36.999Z</time></trkpt><trkpt lat="38.07249705776607" lon="15.706878125218816"><ele>255.0</ele><time>2026-04-14T09:08:37.999Z</time></trkpt><trkpt lat="38.07250444732658" lon="15.706987091350936"><ele>255.0</ele><time>2026-04-14T09:08:38.999Z</time></trkpt><trkpt lat="38.07252645639407" lon="15.70708618172774"><ele>255.0</ele><time>2026-04-14T09:08:39.999Z</time></trkpt><trkpt lat="38.072527330122234" lon="15.70719014882223"><ele>255.0</ele><time>2026-04-14T09:08:40.999Z</time></trkpt><trkpt lat="38.072536131742346" lon="15.70729194095785"><ele>256.3333333333333</ele><time>2026-04-14T09:08:41.999Z</time></trkpt><trkpt lat="38.07254541932198" lon="15.70739603997541"><ele>257.6666666666667</ele><time>2026-04-14T09:08:42.999Z</time></trkpt><trkpt lat="38.072556301717874" lon="15.707493259167267"><ele>259.0</ele><time>2026-04-14T09:08:43.999Z</time></trkpt><trkpt lat="38.07256310186991" lon="15.707599223123907"><ele>260.33333333333337</ele><time>2026-04-14T09:08:44.999Z</time></trkpt><trkpt lat="38.072571623466246" lon="15.7077045148942"><ele>261.6666666666667</ele><time>2026-04-14T09:08:45.999Z</time></trkpt><trkpt lat="38.07257040993718" lon="15.707821336553126"><ele>263.0</ele><time>2026-04-14T09:08:46.999Z</time></trkpt><trkpt lat="38.0725727599293" lon="15.707936182844872"><ele>263.6666666666667</ele><time>2026-04-14T09:08:47.999Z</time></trkpt><trkpt lat="38.072585583651566" lon="15.708047806364574"><ele>264.33333333333337</ele><time>2026-04-14T09:08:48.999Z</time></trkpt><trkpt lat="38.07258312880482" lon="15.70815923444319"><ele>265.0</ele><time>2026-04-14T09:08:49.999Z</time></trkpt><trkpt lat="38.07258185042229" lon="15.708266438424294"><ele>265.6666666666667</ele><time>2026-04-14T09:08:50.999Z</time></trkpt><trkpt lat="38.07258547510215" lon="15.708372800065632"><ele>266.3333333333333</ele><time>2026-04-14T09:08:51.999Z</time></trkpt><trkpt lat="38.07259149213821" lon="15.708491757617319"><ele>267.0</ele><time>2026-04-14T09:08:52.999Z</time></trkpt><trkpt lat="38.072600671849855" lon="15.708604817350844"><ele>267.6666666666667</ele><time>2026-04-14T09:08:53.999Z</time></trkpt><trkpt lat="38.07261017084708" lon="15.708714485623188"><ele>268.3333333333333</ele><time>2026-04-14T09:08:54.999Z</time></trkpt><trkpt lat="38.07261930106684" lon="15.708807453902565"><ele>269.0</ele><time>2026-04-14T09:08:55.999Z</time></trkpt><trkpt lat="38.072627180459456" lon="15.708907527205636"><ele>269.66666666666663</ele><time>2026-04-14T09:08:56.999Z</time></trkpt><trkpt lat="38.07262914701279" lon="15.709009972719437"><ele>270.3333333333333</ele><time>2026-04-14T09:08:57.999Z</time></trkpt><trkpt lat="38.072623532614266" lon="15.709119834952514"><ele>271.0</ele><time>2026-04-14T09:08:58.999Z</time></trkpt><trkpt lat="38.07260985698801" lon="15.709234617858401"><ele>271.0</ele><time>2026-04-14T09:08:59.999Z</time></trkpt><trkpt lat="38.07260102845118" lon="15.709357904750503"><ele>271.0</ele><time>2026-04-14T09:09:00.999Z</time></trkpt><trkpt lat="38.072554012952565" lon="15.709471435521793"><ele>271.0</ele><time>2026-04-14T09:09:01.999Z</time></trkpt><trkpt lat="38.072526174019245" lon="15.709572862424071"><ele>271.0</ele><time>2026-04-14T09:09:02.999Z</time></trkpt><trkpt lat="38.07250019170689" lon="15.70966744158859"><ele>271.0</ele><time>2026-04-14T09:09:03.999Z</time></trkpt><trkpt lat="38.07248078690287" lon="15.709743590131994"><ele>271.0</ele><time>2026-04-14T09:09:04.999Z</time></trkpt><trkpt lat="38.07245778661382" lon="15.709833848121546"><ele>272.0</ele><time>2026-04-14T09:09:06.999Z</time></trkpt><trkpt lat="38.07261354493233" lon="15.709937693966541"><ele>273.0</ele><time>2026-04-14T09:14:57.999Z</time></trkpt><trkpt lat="38.072673611169726" lon="15.710018330154913"><ele>274.0</ele><time>2026-04-14T09:14:59.999Z</time></trkpt><trkpt lat="38.07266797501498" lon="15.710099025485944"><ele>275.0</ele><time>2026-04-14T09:15:01.999Z</time></trkpt><trkpt lat="38.072703605246765" lon="15.710203687858753"><ele>276.0</ele><time>2026-04-14T09:15:03.999Z</time></trkpt><trkpt lat="38.07275325989694" lon="15.710260715694575"><ele>277.1666666666667</ele><time>2026-04-14T09:15:04.999Z</time></trkpt><trkpt lat="38.07279859025033" lon="15.710337810558908"><ele>278.3333333333333</ele><time>2026-04-14T09:15:05.999Z</time></trkpt><trkpt lat="38.07285024131246" lon="15.710423802756171"><ele>279.5</ele><time>2026-04-14T09:15:06.999Z</time></trkpt><trkpt lat="38.07290853716727" lon="15.71050434539882"><ele>280.66666666666663</ele><time>2026-04-14T09:15:07.999Z</time></trkpt><trkpt lat="38.0729687652344" lon="15.71057915557551"><ele>281.8333333333333</ele><time>2026-04-14T09:15:08.999Z</time></trkpt><trkpt lat="38.07303231165808" lon="15.710649200838946"><ele>283.0</ele><time>2026-04-14T09:15:09.999Z</time></trkpt><trkpt lat="38.073092792550156" lon="15.710721474595815"><ele>283.0</ele><time>2026-04-14T09:15:10.999Z</time></trkpt><trkpt lat="38.07315292290756" lon="15.71078783939278"><ele>283.0</ele><time>2026-04-14T09:15:11.999Z</time></trkpt><trkpt lat="38.07325503025275" lon="15.710856453915536"><ele>283.0</ele><time>2026-04-14T09:15:13.999Z</time></trkpt><trkpt lat="38.07335221600813" lon="15.710864142126187"><ele>283.0</ele><time>2026-04-14T09:15:16Z</time></trkpt><trkpt lat="38.07341594952587" lon="15.710877315507837"><ele>283.0</ele><time>2026-04-14T09:15:18Z</time></trkpt><trkpt lat="38.07347742279343" lon="15.710915302690932"><ele>283.0</ele><time>2026-04-14T09:15:29Z</time></trkpt><trkpt lat="38.07371473356077" lon="15.710647073821333"><ele>284.6</ele><time>2026-04-14T09:15:37Z</time></trkpt><trkpt lat="38.073741728418355" lon="15.710557513524348"><ele>286.20000000000005</ele><time>2026-04-14T09:15:39Z</time></trkpt><trkpt lat="38.07368557128317" lon="15.710439146029264"><ele>287.8</ele><time>2026-04-14T09:15:41Z</time></trkpt><trkpt lat="38.07361355552563" lon="15.710335345651364"><ele>289.40000000000003</ele><time>2026-04-14T09:15:43Z</time></trkpt><trkpt lat="38.07350804253909" lon="15.71027558591239"><ele>291.0</ele><time>2026-04-14T09:15:45Z</time></trkpt><trkpt lat="38.0734534281802" lon="15.710189815105714"><ele>291.0</ele><time>2026-04-14T09:15:47Z</time></trkpt><trkpt lat="38.073418912147815" lon="15.710076290209175"><ele>291.0</ele><time>2026-04-14T09:15:49Z</time></trkpt><trkpt lat="38.07341485684707" lon="15.709925932119326"><ele>291.0</ele><time>2026-04-14T09:15:51Z</time></trkpt><trkpt lat="38.073428604103725" lon="15.709794668305"><ele>291.0</ele><time>2026-04-14T09:15:53Z</time></trkpt><trkpt lat="38.073447460944074" lon="15.709684540707524"><ele>291.0</ele><time>2026-04-14T09:15:55Z</time></trkpt><trkpt lat="38.07351629351646" lon="15.709572694693229"><ele>291.0</ele><time>2026-04-14T09:15:57Z</time></trkpt><trkpt lat="38.07356146997507" lon="15.709511660819361"><ele>291.0</ele><time>2026-04-14T09:15:58Z</time></trkpt><trkpt lat="38.07359472616651" lon="15.709441754416774"><ele>291.0</ele><time>2026-04-14T09:15:59Z</time></trkpt><trkpt lat="38.07362583808425" lon="15.70930802623141"><ele>291.0</ele><time>2026-04-14T09:16:01Z</time></trkpt><trkpt lat="38.073629207223284" lon="15.709184056920913"><ele>291.0</ele><time>2026-04-14T09:16:03Z</time></trkpt><trkpt lat="38.0735806806471" lon="15.709091473381235"><ele>291.0</ele><time>2026-04-14T09:16:05Z</time></trkpt><trkpt lat="38.073553789353404" lon="15.708934959250424"><ele>291.0</ele><time>2026-04-14T09:16:07Z</time></trkpt><trkpt lat="38.07354616852308" lon="15.70883259747825"><ele>291.0</ele><time>2026-04-14T09:16:08Z</time></trkpt><trkpt lat="38.07352853756823" lon="15.708727428864174"><ele>291.0</ele><time>2026-04-14T09:16:09Z</time></trkpt><trkpt lat="38.07351462709809" lon="15.708615665161563"><ele>291.0</ele><time>2026-04-14T09:16:10Z</time></trkpt><trkpt lat="38.073520375652386" lon="15.708508475251076"><ele>291.0</ele><time>2026-04-14T09:16:11Z</time></trkpt><trkpt lat="38.0735470239804" lon="15.708403103572026"><ele>291.0</ele><time>2026-04-14T09:16:12Z</time></trkpt><trkpt lat="38.073574548862936" lon="15.708303546726002"><ele>289.8333333333333</ele><time>2026-04-14T09:16:13Z</time></trkpt><trkpt lat="38.073594514803105" lon="15.708207403321802"><ele>288.6666666666667</ele><time>2026-04-14T09:16:14Z</time></trkpt><trkpt lat="38.07361438785857" lon="15.708116146728702"><ele>287.5</ele><time>2026-04-14T09:16:15Z</time></trkpt><trkpt lat="38.07364961642574" lon="15.70802975201528"><ele>286.33333333333337</ele><time>2026-04-14T09:16:16Z</time></trkpt><trkpt lat="38.073686732844855" lon="15.707925518198344"><ele>285.1666666666667</ele><time>2026-04-14T09:16:17Z</time></trkpt><trkpt lat="38.07371999982354" lon="15.707835339575137"><ele>284.0</ele><time>2026-04-14T09:16:18Z</time></trkpt><trkpt lat="38.07375941397801" lon="15.707725381655104"><ele>282.2</ele><time>2026-04-14T09:16:19Z</time></trkpt><trkpt lat="38.073806236457614" lon="15.707611326953865"><ele>280.4</ele><time>2026-04-14T09:16:20Z</time></trkpt><trkpt lat="38.073862104034156" lon="15.707504126557387"><ele>278.6</ele><time>2026-04-14T09:16:21Z</time></trkpt><trkpt lat="38.07392835038715" lon="15.707401137848594"><ele>276.8</ele><time>2026-04-14T09:16:22Z</time></trkpt><trkpt lat="38.07398884015955" lon="15.70731674089244"><ele>275.0</ele><time>2026-04-14T09:16:23Z</time></trkpt><trkpt lat="38.07406074169312" lon="15.707229297787418"><ele>283.6</ele><time>2026-04-14T09:16:24Z</time></trkpt><trkpt lat="38.07413812418657" lon="15.707153837376456"><ele>292.2</ele><time>2026-04-14T09:16:25Z</time></trkpt><trkpt lat="38.07421597665422" lon="15.707095514167218"><ele>300.8</ele><time>2026-04-14T09:16:26Z</time></trkpt><trkpt lat="38.074309525060634" lon="15.707070595433855"><ele>309.4</ele><time>2026-04-14T09:16:27Z</time></trkpt><trkpt lat="38.07439867153327" lon="15.707028806080096"><ele>318.0</ele><time>2026-04-14T09:16:28Z</time></trkpt><trkpt lat="38.07448965209917" lon="15.706990566969438"><ele>318.0</ele><time>2026-04-14T09:16:29Z</time></trkpt><trkpt lat="38.07457751662063" lon="15.706932748483775"><ele>318.0</ele><time>2026-04-14T09:16:30Z</time></trkpt><trkpt lat="38.074653406023316" lon="15.706877579374714"><ele>318.0</ele><time>2026-04-14T09:16:31Z</time></trkpt><trkpt lat="38.0747295690665" lon="15.70684337809453"><ele>318.0</ele><time>2026-04-14T09:16:32Z</time></trkpt><trkpt lat="38.07481889281942" lon="15.706797211256582"><ele>318.0</ele><time>2026-04-14T09:16:33Z</time></trkpt><trkpt lat="38.074905698282194" lon="15.706789963569793"><ele>321.2</ele><time>2026-04-14T09:16:34Z</time></trkpt><trkpt lat="38.074990255965936" lon="15.706778613528288"><ele>324.4</ele><time>2026-04-14T09:16:35Z</time></trkpt><trkpt lat="38.07507423723444" lon="15.706776174197953"><ele>327.59999999999997</ele><time>2026-04-14T09:16:36Z</time></trkpt><trkpt lat="38.07516491862256" lon="15.706760575374794"><ele>330.8</ele><time>2026-04-14T09:16:37Z</time></trkpt><trkpt lat="38.07526000476865" lon="15.706770575028315"><ele>334.0</ele><time>2026-04-14T09:16:38Z</time></trkpt><trkpt lat="38.075354236886" lon="15.706795114412406"><ele>334.0</ele><time>2026-04-14T09:16:39Z</time></trkpt><trkpt lat="38.07543074964892" lon="15.706815146175279"><ele>334.0</ele><time>2026-04-14T09:16:40Z</time></trkpt><trkpt lat="38.07554825994999" lon="15.70677838014871"><ele>334.0</ele><time>2026-04-14T09:16:42Z</time></trkpt><trkpt lat="38.07557064630711" lon="15.706674971434058"><ele>334.0</ele><time>2026-04-14T09:16:43Z</time></trkpt><trkpt lat="38.075589680602384" lon="15.706557843926971"><ele>334.0</ele><time>2026-04-14T09:16:44Z</time></trkpt><trkpt lat="38.07561134928527" lon="15.706461555434464"><ele>334.0</ele><time>2026-04-14T09:16:45Z</time></trkpt><trkpt lat="38.07565057278593" lon="15.706323564436087"><ele>334.0</ele><time>2026-04-14T09:16:47Z</time></trkpt><trkpt lat="38.07563080709821" lon="15.706188353750285"><ele>334.0</ele><time>2026-04-14T09:16:48Z</time></trkpt><trkpt lat="38.075621619560415" lon="15.70606978580266"><ele>334.0</ele><time>2026-04-14T09:16:49Z</time></trkpt><trkpt lat="38.07561356086517" lon="15.70596578593376"><ele>334.0</ele><time>2026-04-14T09:16:50Z</time></trkpt><trkpt lat="38.07560879593237" lon="15.705862543384665"><ele>334.57142857142856</ele><time>2026-04-14T09:16:51Z</time></trkpt><trkpt lat="38.07561144956574" lon="15.705776131178373"><ele>335.14285714285717</ele><time>2026-04-14T09:16:52Z</time></trkpt><trkpt lat="38.07562338951698" lon="15.70569264674816"><ele>335.7142857142857</ele><time>2026-04-14T09:16:53Z</time></trkpt><trkpt lat="38.07565198541197" lon="15.705613740282466"><ele>336.2857142857143</ele><time>2026-04-14T09:16:54Z</time></trkpt><trkpt lat="38.07569213451583" lon="15.705526854814327"><ele>336.85714285714283</ele><time>2026-04-14T09:16:55Z</time></trkpt><trkpt lat="38.07573940738144" lon="15.705446403705684"><ele>337.42857142857144</ele><time>2026-04-14T09:16:56Z</time></trkpt><trkpt lat="38.07579514245917" lon="15.705377038113378"><ele>338.0</ele><time>2026-04-14T09:16:57Z</time></trkpt><trkpt lat="38.0758504766893" lon="15.705300578967535"><ele>339.2</ele><time>2026-04-14T09:16:58Z</time></trkpt><trkpt lat="38.075898030157006" lon="15.705220529847553"><ele>340.4</ele><time>2026-04-14T09:16:59Z</time></trkpt><trkpt lat="38.075943226958" lon="15.705129360693086"><ele>341.59999999999997</ele><time>2026-04-14T09:17:00Z</time></trkpt><trkpt lat="38.07597760208883" lon="15.705024107960918"><ele>342.79999999999995</ele><time>2026-04-14T09:17:01Z</time></trkpt><trkpt lat="38.07600431266237" lon="15.704913557121051"><ele>344.0</ele><time>2026-04-14T09:17:02Z</time></trkpt><trkpt lat="38.0760285763956" lon="15.704781935471242"><ele>344.0</ele><time>2026-04-14T09:17:03Z</time></trkpt><trkpt lat="38.07604859831663" lon="15.704636325788305"><ele>344.0</ele><time>2026-04-14T09:17:04Z</time></trkpt><trkpt lat="38.07606600717074" lon="15.704489619422441"><ele>344.0</ele><time>2026-04-14T09:17:05Z</time></trkpt><trkpt lat="38.0760833297329" lon="15.704343640266728"><ele>344.0</ele><time>2026-04-14T09:17:06Z</time></trkpt><trkpt lat="38.07609948347539" lon="15.704207510840538"><ele>343.0</ele><time>2026-04-14T09:17:07Z</time></trkpt><trkpt lat="38.07611400164304" lon="15.704076906682449"><ele>342.0</ele><time>2026-04-14T09:17:08Z</time></trkpt><trkpt lat="38.07612506267212" lon="15.703957447590524"><ele>341.0</ele><time>2026-04-14T09:17:09Z</time></trkpt><trkpt lat="38.07613352811271" lon="15.703834432193553"><ele>340.0</ele><time>2026-04-14T09:17:10Z</time></trkpt><trkpt lat="38.07612732741317" lon="15.703705714968299"><ele>339.0</ele><time>2026-04-14T09:17:11Z</time></trkpt><trkpt lat="38.076091589804946" lon="15.703564812575253"><ele>337.6</ele><time>2026-04-14T09:17:12Z</time></trkpt><trkpt lat="38.07605642597147" lon="15.703445001721528"><ele>336.2</ele><time>2026-04-14T09:17:13Z</time></trkpt><trkpt lat="38.076028930135905" lon="15.703324671239029"><ele>334.8</ele><time>2026-04-14T09:17:14Z</time></trkpt><trkpt lat="38.07600116349748" lon="15.703203155624397"><ele>333.40000000000003</ele><time>2026-04-14T09:17:15Z</time></trkpt><trkpt lat="38.075998599070246" lon="15.703094755671628"><ele>332.0</ele><time>2026-04-14T09:17:16Z</time></trkpt><trkpt lat="38.07600618864585" lon="15.702965883669602"><ele>332.0</ele><time>2026-04-14T09:17:17Z</time></trkpt><trkpt lat="38.07602496996759" lon="15.70283127900403"><ele>332.0</ele><time>2026-04-14T09:17:18Z</time></trkpt><trkpt lat="38.07605670305844" lon="15.702704987625483"><ele>332.0</ele><time>2026-04-14T09:17:19Z</time></trkpt><trkpt lat="38.076085798188856" lon="15.70257660795271"><ele>332.0</ele><time>2026-04-14T09:17:20Z</time></trkpt><trkpt lat="38.07610048700424" lon="15.702469080392067"><ele>332.0</ele><time>2026-04-14T09:17:21Z</time></trkpt><trkpt lat="38.076082863413646" lon="15.702312996925325"><ele>330.57142857142856</ele><time>2026-04-14T09:17:23Z</time></trkpt><trkpt lat="38.076037013896205" lon="15.70219529101261"><ele>329.14285714285717</ele><time>2026-04-14T09:17:25Z</time></trkpt><trkpt lat="38.076096889358055" lon="15.702238899306941"><ele>327.7142857142857</ele><time>2026-04-14T09:17:30Z</time></trkpt><trkpt lat="38.0761457033747" lon="15.702301940047482"><ele>326.2857142857143</ele><time>2026-04-14T09:17:31Z</time></trkpt><trkpt lat="38.0761982916244" lon="15.702354429394322"><ele>324.8571428571429</ele><time>2026-04-14T09:17:32Z</time></trkpt><trkpt lat="38.07625024939657" lon="15.70240050900519"><ele>323.42857142857144</ele><time>2026-04-14T09:17:33Z</time></trkpt><trkpt lat="38.076296352151026" lon="15.70245725640233"><ele>322.0</ele><time>2026-04-14T09:17:34Z</time></trkpt><trkpt lat="38.0763374186635" lon="15.702612131922796"><ele>322.0</ele><time>2026-04-14T09:17:36Z</time></trkpt><trkpt lat="38.076427867594454" lon="15.702685102588836"><ele>322.0</ele><time>2026-04-14T09:17:38Z</time></trkpt><trkpt lat="38.07649142205033" lon="15.702694727272755"><ele>322.0</ele><time>2026-04-14T09:17:39Z</time></trkpt><trkpt lat="38.07655307589354" lon="15.70271281105218"><ele>322.0</ele><time>2026-04-14T09:17:40Z</time></trkpt><trkpt lat="38.07666998608779" lon="15.702760057325468"><ele>322.0</ele><time>2026-04-14T09:17:42Z</time></trkpt><trkpt lat="38.076753521957336" lon="15.702812485064154"><ele>321.8</ele><time>2026-04-14T09:17:44Z</time></trkpt><trkpt lat="38.076808479270746" lon="15.702937650324829"><ele>321.6</ele><time>2026-04-14T09:17:46Z</time></trkpt><trkpt lat="38.07688791623734" lon="15.703073567916801"><ele>321.40000000000003</ele><time>2026-04-14T09:17:48Z</time></trkpt><trkpt lat="38.07695606774691" lon="15.70314124569975"><ele>321.20000000000005</ele><time>2026-04-14T09:17:49Z</time></trkpt><trkpt lat="38.0770170776589" lon="15.703194260844922"><ele>321.0</ele><time>2026-04-14T09:17:50Z</time></trkpt><trkpt lat="38.077060119937485" lon="15.703258805465712"><ele>321.0</ele><time>2026-04-14T09:17:51Z</time></trkpt><trkpt lat="38.077105426062" lon="15.703409529878915"><ele>321.0</ele><time>2026-04-14T09:17:53Z</time></trkpt><trkpt lat="38.07714340689467" lon="15.7035119285738"><ele>321.0</ele><time>2026-04-14T09:17:54Z</time></trkpt><trkpt lat="38.07721024505731" lon="15.703615898544431"><ele>321.0</ele><time>2026-04-14T09:17:55Z</time></trkpt><trkpt lat="38.0772509627553" lon="15.703698058676487"><ele>321.0</ele><time>2026-04-14T09:17:56Z</time></trkpt><trkpt lat="38.07727032334554" lon="15.70377835028022"><ele>323.0</ele><time>2026-04-14T09:17:57Z</time></trkpt><trkpt lat="38.07727823266132" lon="15.703876621341177"><ele>325.0</ele><time>2026-04-14T09:17:58Z</time></trkpt><trkpt lat="38.077287481831355" lon="15.703977740763815"><ele>327.0</ele><time>2026-04-14T09:17:59Z</time></trkpt><trkpt lat="38.07730850016786" lon="15.704070026981414"><ele>329.0</ele><time>2026-04-14T09:18:00Z</time></trkpt><trkpt lat="38.07732759418743" lon="15.704149892606752"><ele>331.0</ele><time>2026-04-14T09:18:01Z</time></trkpt><trkpt lat="38.07734513292894" lon="15.704290193284038"><ele>333.0</ele><time>2026-04-14T09:18:03Z</time></trkpt><trkpt lat="38.077402479046604" lon="15.704399156331526"><ele>333.0</ele><time>2026-04-14T09:18:05Z</time></trkpt><trkpt lat="38.077423925841956" lon="15.704479334093673"><ele>333.0</ele><time>2026-04-14T09:18:06Z</time></trkpt><trkpt lat="38.07744064748664" lon="15.704613649694833"><ele>333.0</ele><time>2026-04-14T09:18:08Z</time></trkpt><trkpt lat="38.077457597124024" lon="15.70478626498725"><ele>333.0</ele><time>2026-04-14T09:18:10Z</time></trkpt><trkpt lat="38.07748710716408" lon="15.704882112818991"><ele>333.0</ele><time>2026-04-14T09:18:11Z</time></trkpt><trkpt lat="38.07752903347224" lon="15.704952349742626"><ele>327.2</ele><time>2026-04-14T09:18:12Z</time></trkpt><trkpt lat="38.07762110980072" lon="15.705016364697096"><ele>321.4</ele><time>2026-04-14T09:18:14Z</time></trkpt><trkpt lat="38.07774006425101" lon="15.705048285427502"><ele>315.59999999999997</ele><time>2026-04-14T09:18:16Z</time></trkpt><trkpt lat="38.07780189196172" lon="15.705115900326785"><ele>309.79999999999995</ele><time>2026-04-14T09:18:17Z</time></trkpt><trkpt lat="38.07787045779598" lon="15.705143233766108"><ele>304.0</ele><time>2026-04-14T09:18:18Z</time></trkpt><trkpt lat="38.077900707520826" lon="15.705224818427556"><ele>304.3333333333333</ele><time>2026-04-14T09:18:19Z</time></trkpt><trkpt lat="38.07801397968896" lon="15.705283586898496"><ele>304.66666666666663</ele><time>2026-04-14T09:18:21Z</time></trkpt><trkpt lat="38.078086004183994" lon="15.705300257687362"><ele>305.0</ele><time>2026-04-14T09:18:22Z</time></trkpt><trkpt lat="38.078155473034386" lon="15.705319635899764"><ele>305.3333333333333</ele><time>2026-04-14T09:18:23Z</time></trkpt><trkpt lat="38.078220816888646" lon="15.705361018498458"><ele>305.6666666666667</ele><time>2026-04-14T09:18:24Z</time></trkpt><trkpt lat="38.07829648819211" lon="15.70536633189486"><ele>306.0</ele><time>2026-04-14T09:18:25Z</time></trkpt><trkpt lat="38.07836061486086" lon="15.7053918235544"><ele>306.40000000000003</ele><time>2026-04-14T09:18:26Z</time></trkpt><trkpt lat="38.07845607262685" lon="15.705406078331933"><ele>306.8</ele><time>2026-04-14T09:18:27Z</time></trkpt><trkpt lat="38.07856745671877" lon="15.705436316777641"><ele>307.20000000000005</ele><time>2026-04-14T09:18:29Z</time></trkpt><trkpt lat="38.07864354871981" lon="15.70550737243657"><ele>307.6</ele><time>2026-04-14T09:18:35Z</time></trkpt><trkpt lat="38.078693664453695" lon="15.705568819849463"><ele>308.0</ele><time>2026-04-14T09:19:43Z</time></trkpt><trkpt lat="38.07878282769824" lon="15.705659719533976"><ele>308.0</ele><time>2026-04-14T09:19:45Z</time></trkpt><trkpt lat="38.07889889056629" lon="15.705638408187163"><ele>308.0</ele><time>2026-04-14T09:19:47Z</time></trkpt><trkpt lat="38.0789694759828" lon="15.705650264908467"><ele>308.0</ele><time>2026-04-14T09:19:48Z</time></trkpt><trkpt lat="38.079037727131556" lon="15.705641495538533"><ele>308.0</ele><time>2026-04-14T09:19:49Z</time></trkpt><trkpt lat="38.07910802314902" lon="15.70564110702401"><ele>308.0</ele><time>2026-04-14T09:19:50Z</time></trkpt><trkpt lat="38.07921765037817" lon="15.705640300141502"><ele>308.0</ele><time>2026-04-14T09:19:52Z</time></trkpt><trkpt lat="38.079306885474665" lon="15.705669917984808"><ele>310.5</ele><time>2026-04-14T09:19:54Z</time></trkpt><trkpt lat="38.07941309119445" lon="15.705699760306365"><ele>313.0</ele><time>2026-04-14T09:19:56Z</time></trkpt><trkpt lat="38.079466615545" lon="15.70577031615711"><ele>315.5</ele><time>2026-04-14T09:19:58Z</time></trkpt><trkpt lat="38.0795220700986" lon="15.705813972173091"><ele>318.0</ele><time>2026-04-14T09:19:59Z</time></trkpt><trkpt lat="38.07954312407989" lon="15.705908689889796"><ele>320.5</ele><time>2026-04-14T09:20:01Z</time></trkpt><trkpt lat="38.07957227555514" lon="15.70599892296533"><ele>323.0</ele><time>2026-04-14T09:20:02Z</time></trkpt><trkpt lat="38.0796055745595" lon="15.70606912712527"><ele>326.1666666666667</ele><time>2026-04-14T09:20:03Z</time></trkpt><trkpt lat="38.07970017795276" lon="15.706162037320624"><ele>329.33333333333337</ele><time>2026-04-14T09:20:05Z</time></trkpt><trkpt lat="38.079742413090784" lon="15.706235206122559"><ele>332.5</ele><time>2026-04-14T09:20:09Z</time></trkpt><trkpt lat="38.079813516988374" lon="15.70629477957361"><ele>335.6666666666667</ele><time>2026-04-14T09:20:11Z</time></trkpt><trkpt lat="38.07985919375402" lon="15.706361114802139"><ele>338.8333333333333</ele><time>2026-04-14T09:20:24Z</time></trkpt><trkpt lat="38.079891374982786" lon="15.70646662318427"><ele>342.0</ele><time>2026-04-14T09:20:27Z</time></trkpt><trkpt lat="38.07991243960213" lon="15.706548996993675"><ele>342.1666666666667</ele><time>2026-04-14T09:20:28Z</time></trkpt><trkpt lat="38.07994118856215" lon="15.706641120547017"><ele>342.3333333333333</ele><time>2026-04-14T09:20:29Z</time></trkpt><trkpt lat="38.07996817652074" lon="15.70674528568648"><ele>342.5</ele><time>2026-04-14T09:20:30Z</time></trkpt><trkpt lat="38.07999768287542" lon="15.706857025160012"><ele>342.66666666666663</ele><time>2026-04-14T09:20:31Z</time></trkpt><trkpt lat="38.08004949865578" lon="15.706949749829617"><ele>342.8333333333333</ele><time>2026-04-14T09:20:32Z</time></trkpt><trkpt lat="38.08011033547974" lon="15.707017657441588"><ele>343.0</ele><time>2026-04-14T09:20:33Z</time></trkpt><trkpt lat="38.080161642104336" lon="15.70708300488684"><ele>343.0</ele><time>2026-04-14T09:20:34Z</time></trkpt><trkpt lat="38.08018723358036" lon="15.707159790747902"><ele>343.0</ele><time>2026-04-14T09:20:35Z</time></trkpt><trkpt lat="38.080200166015324" lon="15.707257360809688"><ele>343.0</ele><time>2026-04-14T09:20:36Z</time></trkpt><trkpt lat="38.08021401421995" lon="15.707361672207952"><ele>343.0</ele><time>2026-04-14T09:20:37Z</time></trkpt><trkpt lat="38.08022961525827" lon="15.707466758650112"><ele>343.0</ele><time>2026-04-14T09:20:38Z</time></trkpt><trkpt lat="38.08024138281897" lon="15.707575232864444"><ele>343.0</ele><time>2026-04-14T09:20:39Z</time></trkpt><trkpt lat="38.08023732078231" lon="15.707686436265952"><ele>342.79999999999995</ele><time>2026-04-14T09:20:40Z</time></trkpt><trkpt lat="38.0802453792304" lon="15.707786159433587"><ele>342.6</ele><time>2026-04-14T09:20:41Z</time></trkpt><trkpt lat="38.080267003066886" lon="15.707872139037974"><ele>342.4</ele><time>2026-04-14T09:20:42Z</time></trkpt><trkpt lat="38.08029174565777" lon="15.708000298033804"><ele>342.20000000000005</ele><time>2026-04-14T09:20:44Z</time></trkpt><trkpt lat="38.08022491097959" lon="15.708112573018612"><ele>342.0</ele><time>2026-04-14T09:20:46Z</time></trkpt><trkpt lat="38.08018396435031" lon="15.708236403290185"><ele>342.0</ele><time>2026-04-14T09:20:48Z</time></trkpt><trkpt lat="38.08016281632071" lon="15.708402617527732"><ele>342.0</ele><time>2026-04-14T09:20:50Z</time></trkpt><trkpt lat="38.08016206982079" lon="15.708487248583635"><ele>342.0</ele><time>2026-04-14T09:20:51Z</time></trkpt><trkpt lat="38.08013258641863" lon="15.7086244571177"><ele>342.0</ele><time>2026-04-14T09:20:53Z</time></trkpt><trkpt lat="38.080141197967286" lon="15.708727997070158"><ele>342.0</ele><time>2026-04-14T09:20:55Z</time></trkpt><trkpt lat="38.080197210746846" lon="15.708772515309636"><ele>342.8333333333333</ele><time>2026-04-14T09:20:56Z</time></trkpt><trkpt lat="38.08026175367268" lon="15.708809946128504"><ele>343.6666666666667</ele><time>2026-04-14T09:20:57Z</time></trkpt><trkpt lat="38.08033658254968" lon="15.708846511741097"><ele>344.5</ele><time>2026-04-14T09:20:58Z</time></trkpt><trkpt lat="38.08040324777074" lon="15.708868245887592"><ele>345.33333333333337</ele><time>2026-04-14T09:20:59Z</time></trkpt><trkpt lat="38.080471163875096" lon="15.708826231821277"><ele>346.1666666666667</ele><time>2026-04-14T09:21:00Z</time></trkpt><trkpt lat="38.08056224400347" lon="15.708906708799475"><ele>347.0</ele><time>2026-04-14T09:21:02Z</time></trkpt><trkpt lat="38.0806152049248" lon="15.708967627422286"><ele>347.0</ele><time>2026-04-14T09:21:03Z</time></trkpt><trkpt lat="38.080672184888684" lon="15.709037097057154"><ele>347.0</ele><time>2026-04-14T09:21:04Z</time></trkpt><trkpt lat="38.08069224342028" lon="15.709144731938292"><ele>347.0</ele><time>2026-04-14T09:21:05Z</time></trkpt><trkpt lat="38.0807481388211" lon="15.709237766541714"><ele>347.0</ele><time>2026-04-14T09:21:06Z</time></trkpt><trkpt lat="38.08081300408212" lon="15.709317843638095"><ele>347.0</ele><time>2026-04-14T09:21:07Z</time></trkpt><trkpt lat="38.080864351588076" lon="15.709396327234685"><ele>347.0</ele><time>2026-04-14T09:21:08Z</time></trkpt><trkpt lat="38.08091017399784" lon="15.70948087980832"><ele>347.5</ele><time>2026-04-14T09:21:09Z</time></trkpt><trkpt lat="38.0809489838169" lon="15.709566297686914"><ele>348.0</ele><time>2026-04-14T09:21:10Z</time></trkpt><trkpt lat="38.080986836330325" lon="15.709646336637464"><ele>348.5</ele><time>2026-04-14T09:21:11Z</time></trkpt><trkpt lat="38.081036263610436" lon="15.709718649718257"><ele>349.0</ele><time>2026-04-14T09:21:12Z</time></trkpt><trkpt lat="38.081059375981326" lon="15.709817512190778"><ele>349.5</ele><time>2026-04-14T09:21:13Z</time></trkpt><trkpt lat="38.08110730723271" lon="15.709895977693877"><ele>350.0</ele><time>2026-04-14T09:21:14Z</time></trkpt><trkpt lat="38.081136658900625" lon="15.709982999157312"><ele>350.0</ele><time>2026-04-14T09:21:15Z</time></trkpt><trkpt lat="38.08117338545781" lon="15.71008654467274"><ele>350.0</ele><time>2026-04-14T09:21:17Z</time></trkpt><trkpt lat="38.08107032559489" lon="15.710224544095134"><ele>350.0</ele><time>2026-04-14T09:21:18Z</time></trkpt><trkpt lat="38.08104930489171" lon="15.710304808855865"><ele>350.0</ele><time>2026-04-14T09:21:19Z</time></trkpt><trkpt lat="38.0810434657968" lon="15.710393086043354"><ele>350.0</ele><time>2026-04-14T09:21:20Z</time></trkpt><trkpt lat="38.08105180230739" lon="15.710483969096492"><ele>350.0</ele><time>2026-04-14T09:21:21Z</time></trkpt><trkpt lat="38.081057106701245" lon="15.71057968270875"><ele>349.2857142857143</ele><time>2026-04-14T09:21:22Z</time></trkpt><trkpt lat="38.08105754548296" lon="15.71065998083701"><ele>348.57142857142856</ele><time>2026-04-14T09:21:23Z</time></trkpt><trkpt lat="38.08104560869954" lon="15.710746745531432"><ele>347.8571428571429</ele><time>2026-04-14T09:21:24Z</time></trkpt><trkpt lat="38.08100413501983" lon="15.710843642119311"><ele>347.1428571428571</ele><time>2026-04-14T09:21:25Z</time></trkpt><trkpt lat="38.08095338838739" lon="15.710916725164154"><ele>346.42857142857144</ele><time>2026-04-14T09:21:26Z</time></trkpt><trkpt lat="38.08089525559572" lon="15.710975406466332"><ele>345.7142857142857</ele><time>2026-04-14T09:21:27Z</time></trkpt><trkpt lat="38.08083390788266" lon="15.711025729083989"><ele>345.0</ele><time>2026-04-14T09:21:28Z</time></trkpt><trkpt lat="38.080777200623714" lon="15.711069174230515"><ele>341.8</ele><time>2026-04-14T09:21:29Z</time></trkpt><trkpt lat="38.080746320293294" lon="15.711181864400885"><ele>338.6</ele><time>2026-04-14T09:21:31Z</time></trkpt><trkpt lat="38.08078278484506" lon="15.711321185691762"><ele>335.4</ele><time>2026-04-14T09:21:33Z</time></trkpt><trkpt lat="38.08071045867388" lon="15.711456535128452"><ele>332.2</ele><time>2026-04-14T09:21:35Z</time></trkpt><trkpt lat="38.08065246603229" lon="15.711531386947131"><ele>329.0</ele><time>2026-04-14T09:21:36Z</time></trkpt><trkpt lat="38.08057850850318" lon="15.711589704320458"><ele>335.83333333333337</ele><time>2026-04-14T09:21:37Z</time></trkpt><trkpt lat="38.080504145595015" lon="15.711618452440662"><ele>342.6666666666667</ele><time>2026-04-14T09:21:38Z</time></trkpt><trkpt lat="38.08042498682203" lon="15.711633527196733"><ele>349.5</ele><time>2026-04-14T09:21:39Z</time></trkpt><trkpt lat="38.080346966505296" lon="15.71164361726789"><ele>356.3333333333333</ele><time>2026-04-14T09:21:40Z</time></trkpt><trkpt lat="38.08028223300099" lon="15.71165840392125"><ele>363.16666666666663</ele><time>2026-04-14T09:21:41Z</time></trkpt><trkpt lat="38.08017483179973" lon="15.711721772504164"><ele>370.0</ele><time>2026-04-14T09:21:43Z</time></trkpt><trkpt lat="38.080140249178015" lon="15.71179118392405"><ele>369.99999999999994</ele><time>2026-04-14T09:21:44Z</time></trkpt><trkpt lat="38.08012574813305" lon="15.711873211973515"><ele>370.0</ele><time>2026-04-14T09:21:45Z</time></trkpt><trkpt lat="38.08014167088072" lon="15.711955217293111"><ele>370.0</ele><time>2026-04-14T09:21:46Z</time></trkpt><trkpt lat="38.08018996933085" lon="15.712028121611059"><ele>370.0</ele><time>2026-04-14T09:21:47Z</time></trkpt><trkpt lat="38.08024719781585" lon="15.71208342608924"><ele>370.0</ele><time>2026-04-14T09:21:48Z</time></trkpt><trkpt lat="38.08030591396008" lon="15.712144638019378"><ele>369.99999999999994</ele><time>2026-04-14T09:21:49Z</time></trkpt><trkpt lat="38.080348508547104" lon="15.712222489000624"><ele>370.0</ele><time>2026-04-14T09:21:50Z</time></trkpt><trkpt lat="38.080350056810765" lon="15.712375864193834"><ele>368.3333333333333</ele><time>2026-04-14T09:21:52Z</time></trkpt><trkpt lat="38.08032973398015" lon="15.712467437834915"><ele>366.66666666666663</ele><time>2026-04-14T09:21:53Z</time></trkpt><trkpt lat="38.08030090511747" lon="15.712554028845728"><ele>365.0</ele><time>2026-04-14T09:21:54Z</time></trkpt><trkpt lat="38.08024197975667" lon="15.71265968897374"><ele>363.3333333333333</ele><time>2026-04-14T09:21:56Z</time></trkpt><trkpt lat="38.08017829112205" lon="15.712723804298111"><ele>361.6666666666667</ele><time>2026-04-14T09:21:58Z</time></trkpt><trkpt lat="38.080128384194595" lon="15.712777835168977"><ele>360.0</ele><time>2026-04-14T09:21:59Z</time></trkpt><trkpt lat="38.0800656771072" lon="15.712851519253878"><ele>359.0</ele><time>2026-04-14T09:22:00Z</time></trkpt><trkpt lat="38.08000632908692" lon="15.712929601159074"><ele>358.0</ele><time>2026-04-14T09:22:01Z</time></trkpt><trkpt lat="38.07995147341326" lon="15.712997239367361"><ele>357.0</ele><time>2026-04-14T09:22:02Z</time></trkpt><trkpt lat="38.07988210642181" lon="15.713100776207064"><ele>356.0</ele><time>2026-04-14T09:22:04Z</time></trkpt><trkpt lat="38.07988637267965" lon="15.713227950847198"><ele>355.0</ele><time>2026-04-14T09:22:06Z</time></trkpt><trkpt lat="38.07991923266054" lon="15.713300977289048"><ele>354.0</ele><time>2026-04-14T09:22:07Z</time></trkpt><trkpt lat="38.07995387478032" lon="15.713381600648711"><ele>354.0</ele><time>2026-04-14T09:22:08Z</time></trkpt><trkpt lat="38.08002325592609" lon="15.713481120679672"><ele>354.0</ele><time>2026-04-14T09:22:10Z</time></trkpt><trkpt lat="38.08006919077853" lon="15.71357127748167"><ele>354.0</ele><time>2026-04-14T09:22:12Z</time></trkpt><trkpt lat="38.080067128810356" lon="15.713695222499384"><ele>354.0</ele><time>2026-04-14T09:22:15Z</time></trkpt><trkpt lat="38.080034452031384" lon="15.7137908848344"><ele>354.0</ele><time>2026-04-14T09:22:18Z</time></trkpt><trkpt lat="38.079973822015745" lon="15.71385051504984"><ele>354.0</ele><time>2026-04-14T09:22:21Z</time></trkpt><trkpt lat="38.079928375728265" lon="15.71392715062735"><ele>359.4</ele><time>2026-04-14T09:22:23Z</time></trkpt><trkpt lat="38.07986094296815" lon="15.713990232975377"><ele>364.79999999999995</ele><time>2026-04-14T09:22:25Z</time></trkpt><trkpt lat="38.079793148947815" lon="15.714074842821576"><ele>370.20000000000005</ele><time>2026-04-14T09:22:27Z</time></trkpt><trkpt lat="38.07976961438845" lon="15.714195039595724"><ele>375.6</ele><time>2026-04-14T09:22:29Z</time></trkpt><trkpt lat="38.07980470698043" lon="15.714339589644938"><ele>381.0</ele><time>2026-04-14T09:22:31Z</time></trkpt><trkpt lat="38.0798716054701" lon="15.714468736626051"><ele>381.3333333333333</ele><time>2026-04-14T09:22:33Z</time></trkpt><trkpt lat="38.07985692956068" lon="15.714613591137892"><ele>381.6666666666667</ele><time>2026-04-14T09:22:35Z</time></trkpt><trkpt lat="38.07982412929917" lon="15.714688900350124"><ele>382.0</ele><time>2026-04-14T09:22:36Z</time></trkpt><trkpt lat="38.0797753970193" lon="15.714759147729886"><ele>382.33333333333337</ele><time>2026-04-14T09:22:37Z</time></trkpt><trkpt lat="38.07971407392433" lon="15.714801692002165"><ele>382.6666666666667</ele><time>2026-04-14T09:22:38Z</time></trkpt><trkpt lat="38.07965720719431" lon="15.714847342699324"><ele>383.0</ele><time>2026-04-14T09:22:39Z</time></trkpt><trkpt lat="38.07960352334751" lon="15.714895034935118"><ele>383.0</ele><time>2026-04-14T09:22:40Z</time></trkpt><trkpt lat="38.07952709776706" lon="15.714983888678502"><ele>383.0</ele><time>2026-04-14T09:22:42Z</time></trkpt><trkpt lat="38.07958764102789" lon="15.715115749066026"><ele>383.0</ele><time>2026-04-14T09:22:44Z</time></trkpt><trkpt lat="38.079621349307" lon="15.715201817584587"><ele>383.0</ele><time>2026-04-14T09:22:45Z</time></trkpt><trkpt lat="38.079645210345625" lon="15.715301993676007"><ele>383.0</ele><time>2026-04-14T09:22:46Z</time></trkpt><trkpt lat="38.079674118590404" lon="15.715395624688826"><ele>381.59999999999997</ele><time>2026-04-14T09:22:47Z</time></trkpt><trkpt lat="38.07970518651836" lon="15.715483474375917"><ele>380.2</ele><time>2026-04-14T09:22:48Z</time></trkpt><trkpt lat="38.07973629922742" lon="15.71556637970509"><ele>378.8</ele><time>2026-04-14T09:22:49Z</time></trkpt><trkpt lat="38.079796471125796" lon="15.715691528328865"><ele>377.4</ele><time>2026-04-14T09:22:51Z</time></trkpt><trkpt lat="38.079891617453754" lon="15.715755138396549"><ele>376.0</ele><time>2026-04-14T09:22:53Z</time></trkpt><trkpt lat="38.079941801016744" lon="15.715857740874926"><ele>376.0</ele><time>2026-04-14T09:22:55Z</time></trkpt><trkpt lat="38.07993853846773" lon="15.715947514227004"><ele>376.0</ele><time>2026-04-14T09:22:56Z</time></trkpt><trkpt lat="38.07991499013674" lon="15.716046243543964"><ele>376.0</ele><time>2026-04-14T09:22:57Z</time></trkpt><trkpt lat="38.07988586017508" lon="15.716141538707607"><ele>376.0</ele><time>2026-04-14T09:22:58Z</time></trkpt><trkpt lat="38.07984973654663" lon="15.716239632982743"><ele>376.0</ele><time>2026-04-14T09:22:59Z</time></trkpt><trkpt lat="38.07982229421053" lon="15.716325515431233"><ele>376.0</ele><time>2026-04-14T09:23:00Z</time></trkpt><trkpt lat="38.07981104264236" lon="15.716414937272168"><ele>373.16666666666663</ele><time>2026-04-14T09:23:01Z</time></trkpt><trkpt lat="38.07980982403149" lon="15.716503609417241"><ele>370.3333333333333</ele><time>2026-04-14T09:23:02Z</time></trkpt><trkpt lat="38.079812417869604" lon="15.71658548036773"><ele>367.5</ele><time>2026-04-14T09:23:03Z</time></trkpt><trkpt lat="38.07981921020164" lon="15.716668405388246"><ele>364.6666666666667</ele><time>2026-04-14T09:23:04Z</time></trkpt><trkpt lat="38.079773605818076" lon="15.716782382008395"><ele>361.83333333333337</ele><time>2026-04-14T09:23:06Z</time></trkpt><trkpt lat="38.0796539157031" lon="15.716822454721768"><ele>359.0</ele><time>2026-04-14T09:23:08Z</time></trkpt><trkpt lat="38.079559723463156" lon="15.716803679399224"><ele>359.0</ele><time>2026-04-14T09:23:10Z</time></trkpt><trkpt lat="38.07942771525552" lon="15.716743111731574"><ele>359.0</ele><time>2026-04-14T09:23:12Z</time></trkpt><trkpt lat="38.07930746144536" lon="15.716751657445075"><ele>359.0</ele><time>2026-04-14T09:23:14Z</time></trkpt><trkpt lat="38.07921503002364" lon="15.716836441069404"><ele>359.0</ele><time>2026-04-14T09:23:16Z</time></trkpt><trkpt lat="38.07919608543024" lon="15.716979942619792"><ele>357.0</ele><time>2026-04-14T09:23:18Z</time></trkpt><trkpt lat="38.079178715309254" lon="15.717084073425326"><ele>355.0</ele><time>2026-04-14T09:23:20Z</time></trkpt><trkpt lat="38.07918026580513" lon="15.717192975884071"><ele>353.0</ele><time>2026-04-14T09:23:22Z</time></trkpt><trkpt lat="38.07922298936752" lon="15.71729419878137"><ele>351.0</ele><time>2026-04-14T09:23:24Z</time></trkpt><trkpt lat="38.07930069375665" lon="15.717398585633742"><ele>349.0</ele><time>2026-04-14T09:23:26Z</time></trkpt><trkpt lat="38.07934242043194" lon="15.717459386339428"><ele>347.0</ele><time>2026-04-14T09:23:27Z</time></trkpt><trkpt lat="38.07938387295462" lon="15.717529762976213"><ele>347.0</ele><time>2026-04-14T09:23:28Z</time></trkpt><trkpt lat="38.07942142621835" lon="15.717612213896608"><ele>347.0</ele><time>2026-04-14T09:23:29Z</time></trkpt><trkpt lat="38.07945642826551" lon="15.717688307176255"><ele>347.0</ele><time>2026-04-14T09:23:30Z</time></trkpt><trkpt lat="38.07950894139103" lon="15.717742070214639"><ele>347.0</ele><time>2026-04-14T09:23:31Z</time></trkpt><trkpt lat="38.07957927532345" lon="15.717772385649846"><ele>347.0</ele><time>2026-04-14T09:23:32Z</time></trkpt><trkpt lat="38.07965573588923" lon="15.717787955866775"><ele>347.0</ele><time>2026-04-14T09:23:33Z</time></trkpt><trkpt lat="38.079728440996725" lon="15.717799230776805"><ele>347.0</ele><time>2026-04-14T09:23:34Z</time></trkpt><trkpt lat="38.07980246208208" lon="15.71780021098001"><ele>347.1666666666667</ele><time>2026-04-14T09:23:35Z</time></trkpt><trkpt lat="38.07987765025587" lon="15.717788876844747"><ele>347.33333333333337</ele><time>2026-04-14T09:23:36Z</time></trkpt><trkpt lat="38.079952896357476" lon="15.717775542206569"><ele>347.5</ele><time>2026-04-14T09:23:37Z</time></trkpt><trkpt lat="38.08002681665024" lon="15.7177676508797"><ele>347.6666666666667</ele><time>2026-04-14T09:23:38Z</time></trkpt><trkpt lat="38.08010370610245" lon="15.717771829553778"><ele>347.8333333333333</ele><time>2026-04-14T09:23:39Z</time></trkpt><trkpt lat="38.080178436010826" lon="15.717780460911957"><ele>348.0</ele><time>2026-04-14T09:23:40Z</time></trkpt><trkpt lat="38.0802568127197" lon="15.717781568196228"><ele>346.8333333333333</ele><time>2026-04-14T09:23:41Z</time></trkpt><trkpt lat="38.080334850620325" lon="15.717792706552785"><ele>345.6666666666667</ele><time>2026-04-14T09:23:42Z</time></trkpt><trkpt lat="38.08042026317869" lon="15.717823211398938"><ele>344.5</ele><time>2026-04-14T09:23:43Z</time></trkpt><trkpt lat="38.08049918684587" lon="15.71786547368358"><ele>343.33333333333337</ele><time>2026-04-14T09:23:44Z</time></trkpt><trkpt lat="38.080563843095" lon="15.71793195922448"><ele>342.1666666666667</ele><time>2026-04-14T09:23:45Z</time></trkpt><trkpt lat="38.08060696475363" lon="15.718010383518935"><ele>341.0</ele><time>2026-04-14T09:23:46Z</time></trkpt><trkpt lat="38.08063392593861" lon="15.71811240799106"><ele>341.0</ele><time>2026-04-14T09:23:47Z</time></trkpt><trkpt lat="38.080641633663454" lon="15.718214893842644"><ele>341.0</ele><time>2026-04-14T09:23:48Z</time></trkpt><trkpt lat="38.08063532993231" lon="15.718326202441817"><ele>341.0</ele><time>2026-04-14T09:23:49Z</time></trkpt><trkpt lat="38.08061550282577" lon="15.718435431168308"><ele>341.0</ele><time>2026-04-14T09:23:50Z</time></trkpt><trkpt lat="38.08058065493417" lon="15.718543171957828"><ele>341.0</ele><time>2026-04-14T09:23:51Z</time></trkpt><trkpt lat="38.0805420810335" lon="15.718653041829183"><ele>341.0</ele><time>2026-04-14T09:23:52Z</time></trkpt><trkpt lat="38.08050801096368" lon="15.718763984301756"><ele>339.6666666666667</ele><time>2026-04-14T09:23:53Z</time></trkpt><trkpt lat="38.08048495433403" lon="15.718868928500413"><ele>338.33333333333337</ele><time>2026-04-14T09:23:54Z</time></trkpt><trkpt lat="38.08047035367125" lon="15.718977249873154"><ele>337.0</ele><time>2026-04-14T09:23:55Z</time></trkpt><trkpt lat="38.0804428992391" lon="15.719082686251383"><ele>335.6666666666667</ele><time>2026-04-14T09:23:56Z</time></trkpt><trkpt lat="38.08039776511215" lon="15.719164339833764"><ele>334.3333333333333</ele><time>2026-04-14T09:23:57Z</time></trkpt><trkpt lat="38.080336574089245" lon="15.719219857117487"><ele>333.0</ele><time>2026-04-14T09:23:58Z</time></trkpt><trkpt lat="38.08025470531631" lon="15.719255092038921"><ele>333.0</ele><time>2026-04-14T09:23:59Z</time></trkpt><trkpt lat="38.08016978793699" lon="15.719204256514512"><ele>333.0</ele><time>2026-04-14T09:24:00Z</time></trkpt><trkpt lat="38.08008906691125" lon="15.719207361133057"><ele>333.0</ele><time>2026-04-14T09:24:01Z</time></trkpt><trkpt lat="38.08000323770094" lon="15.719237050806678"><ele>333.0</ele><time>2026-04-14T09:24:02Z</time></trkpt><trkpt lat="38.07994390296681" lon="15.719326299369289"><ele>333.0</ele><time>2026-04-14T09:24:03Z</time></trkpt><trkpt lat="38.07986473618506" lon="15.719387563875967"><ele>333.0</ele><time>2026-04-14T09:24:04Z</time></trkpt><trkpt lat="38.07977988320617" lon="15.719447759607887"><ele>329.8333333333333</ele><time>2026-04-14T09:24:05Z</time></trkpt><trkpt lat="38.079686139839204" lon="15.719480557247458"><ele>326.6666666666667</ele><time>2026-04-14T09:24:06Z</time></trkpt><trkpt lat="38.07961698690389" lon="15.719550025880496"><ele>323.5</ele><time>2026-04-14T09:24:07Z</time></trkpt><trkpt lat="38.07954927474322" lon="15.719592640393424"><ele>320.33333333333337</ele><time>2026-04-14T09:24:08Z</time></trkpt><trkpt lat="38.07948107259569" lon="15.719616572331919"><ele>317.1666666666667</ele><time>2026-04-14T09:24:09Z</time></trkpt><trkpt lat="38.079414080473036" lon="15.719616932563897"><ele>314.0</ele><time>2026-04-14T09:24:10Z</time></trkpt><trkpt lat="38.07933813271617" lon="15.719583990303313"><ele>314.0</ele><time>2026-04-14T09:24:11Z</time></trkpt><trkpt lat="38.07925399902253" lon="15.719531020365816"><ele>314.0</ele><time>2026-04-14T09:24:12Z</time></trkpt><trkpt lat="38.079167319532644" lon="15.719465175497584"><ele>314.0</ele><time>2026-04-14T09:24:13Z</time></trkpt><trkpt lat="38.07905565897579" lon="15.719473711688789"><ele>314.0</ele><time>2026-04-14T09:24:14Z</time></trkpt><trkpt lat="38.07894680658135" lon="15.719462243190636"><ele>314.0</ele><time>2026-04-14T09:24:15Z</time></trkpt><trkpt lat="38.07885805989133" lon="15.719446900076367"><ele>318.5</ele><time>2026-04-14T09:24:16Z</time></trkpt><trkpt lat="38.07879272966969" lon="15.719399373330555"><ele>323.0</ele><time>2026-04-14T09:24:17Z</time></trkpt><trkpt lat="38.07874147322295" lon="15.719336753626944"><ele>327.5</ele><time>2026-04-14T09:24:18Z</time></trkpt><trkpt lat="38.078716589388904" lon="15.71925185904662"><ele>332.0</ele><time>2026-04-14T09:24:19Z</time></trkpt><trkpt lat="38.078687787844935" lon="15.719173552799647"><ele>336.5</ele><time>2026-04-14T09:24:21Z</time></trkpt><trkpt lat="38.078622144123024" lon="15.719146149024516"><ele>341.0</ele><time>2026-04-14T09:24:24Z</time></trkpt><trkpt lat="38.078554348929735" lon="15.71923584640606"><ele>339.83333333333337</ele><time>2026-04-14T09:24:39Z</time></trkpt><trkpt lat="38.07854823790495" lon="15.719401334977288"><ele>338.6666666666667</ele><time>2026-04-14T09:24:41Z</time></trkpt><trkpt lat="38.07854691009364" lon="15.719491229751005"><ele>337.5</ele><time>2026-04-14T09:24:42Z</time></trkpt><trkpt lat="38.078534471545346" lon="15.719586367047292"><ele>336.3333333333333</ele><time>2026-04-14T09:24:43Z</time></trkpt><trkpt lat="38.07849129899415" lon="15.719677539021143"><ele>335.16666666666663</ele><time>2026-04-14T09:24:44Z</time></trkpt><trkpt lat="38.07845827641062" lon="15.719776286126633"><ele>334.0</ele><time>2026-04-14T09:24:45Z</time></trkpt><trkpt lat="38.07842424562537" lon="15.719873658685803"><ele>334.0</ele><time>2026-04-14T09:24:46Z</time></trkpt><trkpt lat="38.078400600438975" lon="15.719979042452977"><ele>334.0</ele><time>2026-04-14T09:24:47Z</time></trkpt><trkpt lat="38.078364998618106" lon="15.720070916359719"><ele>334.0</ele><time>2026-04-14T09:24:48Z</time></trkpt><trkpt lat="38.078307172067376" lon="15.72014098988358"><ele>334.0</ele><time>2026-04-14T09:24:49Z</time></trkpt><trkpt lat="38.07826381996528" lon="15.720210175852845"><ele>334.0</ele><time>2026-04-14T09:24:50Z</time></trkpt><trkpt lat="38.078223089324" lon="15.720275467629413"><ele>334.0</ele><time>2026-04-14T09:24:51Z</time></trkpt><trkpt lat="38.07818464911121" lon="15.720385353238507"><ele>333.16666666666663</ele><time>2026-04-14T09:24:53Z</time></trkpt><trkpt lat="38.07826463631287" lon="15.720483936631005"><ele>332.3333333333333</ele><time>2026-04-14T09:24:55Z</time></trkpt><trkpt lat="38.07833725873001" lon="15.720525645449584"><ele>331.5</ele><time>2026-04-14T09:24:56Z</time></trkpt><trkpt lat="38.07839574268871" lon="15.720590798949203"><ele>330.6666666666667</ele><time>2026-04-14T09:24:57Z</time></trkpt><trkpt lat="38.07841904829061" lon="15.720679412985502"><ele>329.83333333333337</ele><time>2026-04-14T09:24:58Z</time></trkpt><trkpt lat="38.078413076995226" lon="15.720761318522461"><ele>329.0</ele><time>2026-04-14T09:24:59Z</time></trkpt><trkpt lat="38.07830502885611" lon="15.720824103987383"><ele>329.1666666666667</ele><time>2026-04-14T09:25:01Z</time></trkpt><trkpt lat="38.07824999933457" lon="15.720889290589053"><ele>329.33333333333337</ele><time>2026-04-14T09:25:02Z</time></trkpt><trkpt lat="38.078213119729774" lon="15.720965672112303"><ele>329.5</ele><time>2026-04-14T09:25:03Z</time></trkpt><trkpt lat="38.07820789552911" lon="15.7211114347355"><ele>329.6666666666667</ele><time>2026-04-14T09:25:05Z</time></trkpt><trkpt lat="38.07822924636626" lon="15.721204676483486"><ele>329.8333333333333</ele><time>2026-04-14T09:25:06Z</time></trkpt><trkpt lat="38.07826137671076" lon="15.721300590350305"><ele>330.0</ele><time>2026-04-14T09:25:07Z</time></trkpt><trkpt lat="38.07829944739923" lon="15.721398045481813"><ele>330.00000000000006</ele><time>2026-04-14T09:25:08Z</time></trkpt><trkpt lat="38.07834175063447" lon="15.72148222814073"><ele>330.0</ele><time>2026-04-14T09:25:09Z</time></trkpt><trkpt lat="38.07837483883142" lon="15.721558655844161"><ele>330.0</ele><time>2026-04-14T09:25:10Z</time></trkpt><trkpt lat="38.0783895852804" lon="15.721636686021757"><ele>330.0</ele><time>2026-04-14T09:25:11Z</time></trkpt><trkpt lat="38.07835614317627" lon="15.721714129236473"><ele>330.0</ele><time>2026-04-14T09:25:12Z</time></trkpt><trkpt lat="38.078337042978255" lon="15.721808852978956"><ele>330.00000000000006</ele><time>2026-04-14T09:25:13Z</time></trkpt><trkpt lat="38.07833565500516" lon="15.721911026538011"><ele>330.0</ele><time>2026-04-14T09:25:14Z</time></trkpt><trkpt lat="38.078312521179306" lon="15.722013434373093"><ele>329.8333333333333</ele><time>2026-04-14T09:25:15Z</time></trkpt><trkpt lat="38.07828391828141" lon="15.722116391080327"><ele>329.6666666666667</ele><time>2026-04-14T09:25:16Z</time></trkpt><trkpt lat="38.07825405937908" lon="15.7222219056858"><ele>329.5</ele><time>2026-04-14T09:25:17Z</time></trkpt><trkpt lat="38.07821752037446" lon="15.722318325809894"><ele>329.33333333333337</ele><time>2026-04-14T09:25:18Z</time></trkpt><trkpt lat="38.07815971042527" lon="15.722387409182943"><ele>329.1666666666667</ele><time>2026-04-14T09:25:19Z</time></trkpt><trkpt lat="38.07813243803716" lon="15.722507967809143"><ele>329.0</ele><time>2026-04-14T09:25:21Z</time></trkpt><trkpt lat="38.07824666412596" lon="15.722582863762845"><ele>329.0</ele><time>2026-04-14T09:25:23Z</time></trkpt><trkpt lat="38.078372800648935" lon="15.722419346557315"><ele>329.0</ele><time>2026-04-14T09:25:25Z</time></trkpt><trkpt lat="38.07841189474125" lon="15.722305512702361"><ele>329.0</ele><time>2026-04-14T09:25:26Z</time></trkpt><trkpt lat="38.07844584134669" lon="15.72216600371543"><ele>329.0</ele><time>2026-04-14T09:25:27Z</time></trkpt><trkpt lat="38.078512421431775" lon="15.722014567460754"><ele>329.2</ele><time>2026-04-14T09:25:28Z</time></trkpt><trkpt lat="38.07855610101472" lon="15.72189699192845"><ele>329.4</ele><time>2026-04-14T09:25:29Z</time></trkpt><trkpt lat="38.07859807990565" lon="15.721772581941387"><ele>329.6</ele><time>2026-04-14T09:25:30Z</time></trkpt><trkpt lat="38.07865777995954" lon="15.721659344671382"><ele>329.8</ele><time>2026-04-14T09:25:31Z</time></trkpt><trkpt lat="38.07871374470977" lon="15.721537656272181"><ele>330.0</ele><time>2026-04-14T09:25:32Z</time></trkpt><trkpt lat="38.07878576931322" lon="15.721436618451934"><ele>330.0</ele><time>2026-04-14T09:25:33Z</time></trkpt><trkpt lat="38.07885840315011" lon="15.721338305195827"><ele>330.0</ele><time>2026-04-14T09:25:34Z</time></trkpt><trkpt lat="38.07892809888831" lon="15.721253129300669"><ele>330.0</ele><time>2026-04-14T09:25:35Z</time></trkpt><trkpt lat="38.07899273577284" lon="15.721183296725986"><ele>330.0</ele><time>2026-04-14T09:25:36Z</time></trkpt><trkpt lat="38.079054525365116" lon="15.721121264744124"><ele>330.0</ele><time>2026-04-14T09:25:37Z</time></trkpt><trkpt lat="38.0791200984517" lon="15.721060492263588"><ele>330.0</ele><time>2026-04-14T09:25:38Z</time></trkpt><trkpt lat="38.07918347594767" lon="15.72100112666983"><ele>325.2</ele><time>2026-04-14T09:25:39Z</time></trkpt><trkpt lat="38.07924852909413" lon="15.72093659632825"><ele>320.4</ele><time>2026-04-14T09:25:40Z</time></trkpt><trkpt lat="38.07932706429722" lon="15.720894825424187"><ele>315.6</ele><time>2026-04-14T09:25:41Z</time></trkpt><trkpt lat="38.079403929497936" lon="15.72083336879808"><ele>310.8</ele><time>2026-04-14T09:25:42Z</time></trkpt><trkpt lat="38.07948243514615" lon="15.720772719636466"><ele>306.0</ele><time>2026-04-14T09:25:43Z</time></trkpt><trkpt lat="38.07956217284069" lon="15.720694212364014"><ele>306.0</ele><time>2026-04-14T09:25:44Z</time></trkpt><trkpt lat="38.07964524465002" lon="15.7206306945209"><ele>306.0</ele><time>2026-04-14T09:25:45Z</time></trkpt><trkpt lat="38.07972609972474" lon="15.720560072454727"><ele>306.0</ele><time>2026-04-14T09:25:46Z</time></trkpt><trkpt lat="38.07980285553233" lon="15.72048944796147"><ele>306.0</ele><time>2026-04-14T09:25:47Z</time></trkpt><trkpt lat="38.07989436648268" lon="15.72043961203782"><ele>306.0</ele><time>2026-04-14T09:25:48Z</time></trkpt><trkpt lat="38.079982868273746" lon="15.72037191829117"><ele>305.40000000000003</ele><time>2026-04-14T09:25:49Z</time></trkpt><trkpt lat="38.080069364015436" lon="15.720305317649876"><ele>304.8</ele><time>2026-04-14T09:25:50Z</time></trkpt><trkpt lat="38.08014809273937" lon="15.720225157325729"><ele>304.20000000000005</ele><time>2026-04-14T09:25:51Z</time></trkpt><trkpt lat="38.080240688721005" lon="15.72018239378511"><ele>303.6</ele><time>2026-04-14T09:25:52Z</time></trkpt><trkpt lat="38.080319428202856" lon="15.720130782677948"><ele>303.0</ele><time>2026-04-14T09:25:53Z</time></trkpt><trkpt lat="38.08039475697288" lon="15.720066225278249"><ele>303.0</ele><time>2026-04-14T09:25:54Z</time></trkpt><trkpt lat="38.08048018268299" lon="15.720021173263403"><ele>303.0</ele><time>2026-04-14T09:25:55Z</time></trkpt><trkpt lat="38.08056767103612" lon="15.719986983343704"><ele>303.0</ele><time>2026-04-14T09:25:56Z</time></trkpt><trkpt lat="38.08065514936686" lon="15.719960255594822"><ele>303.0</ele><time>2026-04-14T09:25:57Z</time></trkpt><trkpt lat="38.08074500201097" lon="15.7199420643862"><ele>303.0</ele><time>2026-04-14T09:25:58Z</time></trkpt><trkpt lat="38.08083436716556" lon="15.71994797359177"><ele>300.8333333333333</ele><time>2026-04-14T09:25:59Z</time></trkpt><trkpt lat="38.08091618218686" lon="15.719939920073964"><ele>298.6666666666667</ele><time>2026-04-14T09:26:00Z</time></trkpt><trkpt lat="38.08100153065691" lon="15.719939684374557"><ele>296.5</ele><time>2026-04-14T09:26:01Z</time></trkpt><trkpt lat="38.08107922514356" lon="15.7199422281826"><ele>294.33333333333337</ele><time>2026-04-14T09:26:02Z</time></trkpt><trkpt lat="38.08115983486603" lon="15.719950370472187"><ele>292.1666666666667</ele><time>2026-04-14T09:26:03Z</time></trkpt><trkpt lat="38.08124306918554" lon="15.719966189196368"><ele>290.0</ele><time>2026-04-14T09:26:04Z</time></trkpt><trkpt lat="38.08132463039478" lon="15.719999666179943"><ele>290.0</ele><time>2026-04-14T09:26:05Z</time></trkpt><trkpt lat="38.08139386622436" lon="15.720028150062163"><ele>290.0</ele><time>2026-04-14T09:26:06Z</time></trkpt><trkpt lat="38.081473575341654" lon="15.720062905165879"><ele>290.0</ele><time>2026-04-14T09:26:07Z</time></trkpt><trkpt lat="38.08155013300195" lon="15.720097928642454"><ele>290.0</ele><time>2026-04-14T09:26:08Z</time></trkpt><trkpt lat="38.08161881768966" lon="15.720132232256375"><ele>290.0</ele><time>2026-04-14T09:26:09Z</time></trkpt><trkpt lat="38.08169518072544" lon="15.720156918594293"><ele>290.0</ele><time>2026-04-14T09:26:10Z</time></trkpt><trkpt lat="38.081771232202136" lon="15.720210013137471"><ele>287.33333333333337</ele><time>2026-04-14T09:26:11Z</time></trkpt><trkpt lat="38.08184085872744" lon="15.720263104112794"><ele>284.6666666666667</ele><time>2026-04-14T09:26:12Z</time></trkpt><trkpt lat="38.08191712478138" lon="15.720308907026299"><ele>282.0</ele><time>2026-04-14T09:26:13Z</time></trkpt><trkpt lat="38.08199214883129" lon="15.720344615339952"><ele>279.3333333333333</ele><time>2026-04-14T09:26:14Z</time></trkpt><trkpt lat="38.08205379575633" lon="15.720400225053016"><ele>276.66666666666663</ele><time>2026-04-14T09:26:15Z</time></trkpt><trkpt lat="38.08211392866651" lon="15.720444009756456"><ele>274.0</ele><time>2026-04-14T09:26:16Z</time></trkpt><trkpt lat="38.08219735159077" lon="15.720548782186075"><ele>274.0</ele><time>2026-04-14T09:26:18Z</time></trkpt><trkpt lat="38.08225295919009" lon="15.72069973227747"><ele>274.0</ele><time>2026-04-14T09:26:20Z</time></trkpt><trkpt lat="38.08229256448067" lon="15.720779240276952"><ele>274.0</ele><time>2026-04-14T09:26:21Z</time></trkpt><trkpt lat="38.082342253276124" lon="15.720859935918574"><ele>274.0</ele><time>2026-04-14T09:26:22Z</time></trkpt><trkpt lat="38.08238827336742" lon="15.720947570265507"><ele>274.0</ele><time>2026-04-14T09:26:23Z</time></trkpt><trkpt lat="38.08243279845748" lon="15.721038313142685"><ele>273.3333333333333</ele><time>2026-04-14T09:26:24Z</time></trkpt><trkpt lat="38.082494687446705" lon="15.721100401908734"><ele>272.66666666666663</ele><time>2026-04-14T09:26:25Z</time></trkpt><trkpt lat="38.08256453718102" lon="15.721152541717652"><ele>272.0</ele><time>2026-04-14T09:26:26Z</time></trkpt><trkpt lat="38.08265519536875" lon="15.721195287828488"><ele>271.3333333333333</ele><time>2026-04-14T09:26:27Z</time></trkpt><trkpt lat="38.08274865315556" lon="15.721228303921947"><ele>270.6666666666667</ele><time>2026-04-14T09:26:28Z</time></trkpt><trkpt lat="38.08283851840043" lon="15.721252361111647"><ele>270.0</ele><time>2026-04-14T09:26:29Z</time></trkpt><trkpt lat="38.0829485420462" lon="15.721261955880413"><ele>270.0</ele><time>2026-04-14T09:26:30Z</time></trkpt><trkpt lat="38.0830635790664" lon="15.721250036291492"><ele>270.0</ele><time>2026-04-14T09:26:31Z</time></trkpt><trkpt lat="38.083159818687655" lon="15.721252179058263"><ele>270.0</ele><time>2026-04-14T09:26:32Z</time></trkpt><trkpt lat="38.08323858305121" lon="15.721249266352359"><ele>270.0</ele><time>2026-04-14T09:26:33Z</time></trkpt><trkpt lat="38.08332520464292" lon="15.72122937453263"><ele>270.0</ele><time>2026-04-14T09:26:35Z</time></trkpt><trkpt lat="38.083394283938176" lon="15.72117792082268"><ele>269.25</ele><time>2026-04-14T09:26:37Z</time></trkpt><trkpt lat="38.08338673771477" lon="15.72108953479627"><ele>268.5</ele><time>2026-04-14T09:26:38Z</time></trkpt><trkpt lat="38.08350933767473" lon="15.721059229237795"><ele>267.75</ele><time>2026-04-14T09:26:40Z</time></trkpt><trkpt lat="38.0833942554909" lon="15.721320627890625"><ele>267.0</ele><time>2026-04-14T09:26:41Z</time></trkpt><trkpt lat="38.08344883528235" lon="15.721434498520173"><ele>267.0</ele><time>2026-04-14T09:26:43Z</time></trkpt><trkpt lat="38.08381356784506" lon="15.72123456621094"><ele>267.0</ele><time>2026-04-14T09:26:45Z</time></trkpt><trkpt lat="38.08388013262547" lon="15.721223368813984"><ele>267.0</ele><time>2026-04-14T09:26:46Z</time></trkpt><trkpt lat="38.08398945581062" lon="15.72123020016635"><ele>267.0</ele><time>2026-04-14T09:26:48Z</time></trkpt><trkpt lat="38.0839948634915" lon="15.721317725347069"><ele>267.0</ele><time>2026-04-14T09:26:52Z</time></trkpt><trkpt lat="38.08396804794799" lon="15.721422876694044"><ele>267.0</ele><time>2026-04-14T09:29:31Z</time></trkpt><trkpt lat="38.08392088824914" lon="15.721482150727997"><ele>267.0</ele><time>2026-04-14T09:29:32Z</time></trkpt><trkpt lat="38.083896408787666" lon="15.721563986902664"><ele>267.0</ele><time>2026-04-14T09:29:33Z</time></trkpt><trkpt lat="38.08386116159096" lon="15.721686423234232"><ele>267.0</ele><time>2026-04-14T09:29:35Z</time></trkpt><trkpt lat="38.08383671530027" lon="15.721771340664954"><ele>267.0</ele><time>2026-04-14T09:29:37Z</time></trkpt><trkpt lat="38.08381325478163" lon="15.721852834260112"><ele>267.0</ele><time>2026-04-14T09:29:39Z</time></trkpt><trkpt lat="38.08378868002123" lon="15.721938198173058"><ele>267.0</ele><time>2026-04-14T09:29:41Z</time></trkpt><trkpt lat="38.083765399381825" lon="15.722022034700077"><ele>267.0</ele><time>2026-04-14T09:29:43Z</time></trkpt><trkpt lat="38.08374624963149" lon="15.722149116353425"><ele>267.0</ele><time>2026-04-14T09:29:46Z</time></trkpt><trkpt lat="38.083699839016994" lon="15.722281853795854"><ele>267.2</ele><time>2026-04-14T09:29:48Z</time></trkpt><trkpt lat="38.083663846618386" lon="15.72243607187953"><ele>267.4</ele><time>2026-04-14T09:29:50Z</time></trkpt><trkpt lat="38.08363942299022" lon="15.722580578473023"><ele>267.6</ele><time>2026-04-14T09:29:52Z</time></trkpt><trkpt lat="38.083620685371216" lon="15.722662437166928"><ele>267.8</ele><time>2026-04-14T09:29:53Z</time></trkpt><trkpt lat="38.08360020481177" lon="15.722751218615027"><ele>268.0</ele><time>2026-04-14T09:29:54Z</time></trkpt><trkpt lat="38.083582861837435" lon="15.72284971637507"><ele>268.5</ele><time>2026-04-14T09:29:55Z</time></trkpt><trkpt lat="38.08357004316415" lon="15.722935313905545"><ele>269.0</ele><time>2026-04-14T09:29:56Z</time></trkpt><trkpt lat="38.08355824885992" lon="15.723098828523836"><ele>269.5</ele><time>2026-04-14T09:29:58Z</time></trkpt><trkpt lat="38.08353129797272" lon="15.723184171340916"><ele>270.0</ele><time>2026-04-14T09:29:59Z</time></trkpt><trkpt lat="38.08349418574601" lon="15.723263498143362"><ele>270.5</ele><time>2026-04-14T09:30:00Z</time></trkpt><trkpt lat="38.08347578753406" lon="15.723343986810487"><ele>271.0</ele><time>2026-04-14T09:30:01Z</time></trkpt><trkpt lat="38.083444895161186" lon="15.723489124722224"><ele>271.5</ele><time>2026-04-14T09:30:03Z</time></trkpt><trkpt lat="38.08340639004406" lon="15.72357622010004"><ele>272.0</ele><time>2026-04-14T09:30:04Z</time></trkpt><trkpt lat="38.083385059507506" lon="15.723666165988883"><ele>272.5</ele><time>2026-04-14T09:30:05Z</time></trkpt><trkpt lat="38.08336243936257" lon="15.723767294286148"><ele>273.0</ele><time>2026-04-14T09:30:06Z</time></trkpt><trkpt lat="38.08335396266924" lon="15.723877572890034"><ele>273.5</ele><time>2026-04-14T09:30:07Z</time></trkpt><trkpt lat="38.0833302833967" lon="15.723952078794161"><ele>274.0</ele><time>2026-04-14T09:30:08Z</time></trkpt><trkpt lat="38.083308963125546" lon="15.724053084963119"><ele>274.0</ele><time>2026-04-14T09:30:10Z</time></trkpt><trkpt lat="38.083277892426445" lon="15.724162555583751"><ele>274.0</ele><time>2026-04-14T09:30:12Z</time></trkpt><trkpt lat="38.08327425884631" lon="15.724293673268907"><ele>274.0</ele><time>2026-04-14T09:30:14Z</time></trkpt><trkpt lat="38.083269460080444" lon="15.724442876392116"><ele>274.0</ele><time>2026-04-14T09:30:16Z</time></trkpt><trkpt lat="38.08325322236418" lon="15.724570720613938"><ele>274.0</ele><time>2026-04-14T09:30:18Z</time></trkpt><trkpt lat="38.08320440628121" lon="15.724690251682976"><ele>275.59999999999997</ele><time>2026-04-14T09:30:20Z</time></trkpt><trkpt lat="38.08313204356918" lon="15.724792997856706"><ele>277.2</ele><time>2026-04-14T09:30:22Z</time></trkpt><trkpt lat="38.08309389241172" lon="15.724875637604457"><ele>278.79999999999995</ele><time>2026-04-14T09:30:24Z</time></trkpt><trkpt lat="38.0830783363114" lon="15.725000260877414"><ele>280.4</ele><time>2026-04-14T09:30:26Z</time></trkpt><trkpt lat="38.08301689996735" lon="15.725113416969613"><ele>282.0</ele><time>2026-04-14T09:30:28Z</time></trkpt><trkpt lat="38.082969495216304" lon="15.725261626718979"><ele>282.3333333333333</ele><time>2026-04-14T09:30:30Z</time></trkpt><trkpt lat="38.08296194941894" lon="15.72534732192038"><ele>282.6666666666667</ele><time>2026-04-14T09:30:31Z</time></trkpt><trkpt lat="38.0829216868469" lon="15.725489273057411"><ele>283.0</ele><time>2026-04-14T09:30:33Z</time></trkpt><trkpt lat="38.08290211061718" lon="15.725571478574203"><ele>283.33333333333337</ele><time>2026-04-14T09:30:34Z</time></trkpt><trkpt lat="38.082874672664154" lon="15.725660231402928"><ele>283.6666666666667</ele><time>2026-04-14T09:30:35Z</time></trkpt><trkpt lat="38.08284129531568" lon="15.725754389749346"><ele>284.0</ele><time>2026-04-14T09:30:36Z</time></trkpt><trkpt lat="38.08281070414374" lon="15.725863153421132"><ele>284.0</ele><time>2026-04-14T09:30:37Z</time></trkpt><trkpt lat="38.08279845767194" lon="15.725961861892035"><ele>284.0</ele><time>2026-04-14T09:30:38Z</time></trkpt><trkpt lat="38.08280401930007" lon="15.726059726382333"><ele>284.0</ele><time>2026-04-14T09:30:39Z</time></trkpt><trkpt lat="38.08281509039887" lon="15.72617246010962"><ele>284.0</ele><time>2026-04-14T09:30:40Z</time></trkpt><trkpt lat="38.082809800043954" lon="15.726268453117395"><ele>284.0</ele><time>2026-04-14T09:30:41Z</time></trkpt><trkpt lat="38.08276639884358" lon="15.726352565223667"><ele>284.0</ele><time>2026-04-14T09:30:42Z</time></trkpt><trkpt lat="38.082754658731844" lon="15.726457402102417"><ele>284.59999999999997</ele><time>2026-04-14T09:30:43Z</time></trkpt><trkpt lat="38.08270168985506" lon="15.726546898090948"><ele>285.2</ele><time>2026-04-14T09:30:44Z</time></trkpt><trkpt lat="38.08263561193433" lon="15.726649377663678"><ele>285.79999999999995</ele><time>2026-04-14T09:30:45Z</time></trkpt><trkpt lat="38.082550753973884" lon="15.726738372411479"><ele>286.4</ele><time>2026-04-14T09:30:46Z</time></trkpt><trkpt lat="38.0824885779487" lon="15.72685137023252"><ele>287.0</ele><time>2026-04-14T09:30:47Z</time></trkpt><trkpt lat="38.08243778091403" lon="15.726962598705287"><ele>290.75</ele><time>2026-04-14T09:30:48Z</time></trkpt><trkpt lat="38.08238690269561" lon="15.727112678396093"><ele>294.5</ele><time>2026-04-14T09:30:49Z</time></trkpt><trkpt lat="38.0823304690234" lon="15.727305001658026"><ele>298.25</ele><time>2026-04-14T09:30:50Z</time></trkpt><trkpt lat="38.082303846873806" lon="15.727432734547522"><ele>302.0</ele><time>2026-04-14T09:30:51Z</time></trkpt><trkpt lat="38.082274680920584" lon="15.727562057192996"><ele>302.0</ele><time>2026-04-14T09:30:52Z</time></trkpt><trkpt lat="38.082244143390156" lon="15.727693832422505"><ele>302.0</ele><time>2026-04-14T09:30:53Z</time></trkpt><trkpt lat="38.08220013128048" lon="15.727844305442286"><ele>302.0</ele><time>2026-04-14T09:30:54Z</time></trkpt><trkpt lat="38.0821899028379" lon="15.727950307026312"><ele>302.0</ele><time>2026-04-14T09:30:55Z</time></trkpt><trkpt lat="38.08218375627869" lon="15.728057653435913"><ele>302.0</ele><time>2026-04-14T09:30:56Z</time></trkpt><trkpt lat="38.08216512184299" lon="15.728164331910296"><ele>301.6</ele><time>2026-04-14T09:30:57Z</time></trkpt><trkpt lat="38.08216309851268" lon="15.728295846411607"><ele>301.2</ele><time>2026-04-14T09:30:58Z</time></trkpt><trkpt lat="38.08214596365758" lon="15.72841748636925"><ele>300.8</ele><time>2026-04-14T09:30:59Z</time></trkpt><trkpt lat="38.082154368711016" lon="15.728539481551138"><ele>300.4</ele><time>2026-04-14T09:31:00Z</time></trkpt><trkpt lat="38.08217458427667" lon="15.72865346982917"><ele>300.0</ele><time>2026-04-14T09:31:01Z</time></trkpt><trkpt lat="38.082167841397066" lon="15.728765667116194"><ele>300.0</ele><time>2026-04-14T09:31:02Z</time></trkpt><trkpt lat="38.08212449924664" lon="15.728876135320366"><ele>300.0</ele><time>2026-04-14T09:31:03Z</time></trkpt><trkpt lat="38.0820859675402" lon="15.729026337157869"><ele>300.0</ele><time>2026-04-14T09:31:04Z</time></trkpt><trkpt lat="38.082082310928534" lon="15.729185686725193"><ele>300.0</ele><time>2026-04-14T09:31:05Z</time></trkpt><trkpt lat="38.08208472931631" lon="15.729320980571405"><ele>300.2</ele><time>2026-04-14T09:31:06Z</time></trkpt><trkpt lat="38.08209142884561" lon="15.729435856509937"><ele>300.4</ele><time>2026-04-14T09:31:07Z</time></trkpt><trkpt lat="38.08209123859667" lon="15.729529860738326"><ele>300.6</ele><time>2026-04-14T09:31:08Z</time></trkpt><trkpt lat="38.082076309310686" lon="15.729616783552963"><ele>300.8</ele><time>2026-04-14T09:31:09Z</time></trkpt><trkpt lat="38.082068964501474" lon="15.729826123544408"><ele>301.0</ele><time>2026-04-14T09:31:10Z</time></trkpt><trkpt lat="38.08207225944655" lon="15.729999463658078"><ele>301.0</ele><time>2026-04-14T09:31:11Z</time></trkpt><trkpt lat="38.08206418066174" lon="15.730195227954304"><ele>301.0</ele><time>2026-04-14T09:31:12Z</time></trkpt><trkpt lat="38.082056658614945" lon="15.7303305183342"><ele>301.0</ele><time>2026-04-14T09:31:13Z</time></trkpt><trkpt lat="38.08205587628767" lon="15.730430502020862"><ele>301.0</ele><time>2026-04-14T09:31:14Z</time></trkpt><trkpt lat="38.08206712776017" lon="15.730518215310038"><ele>301.0</ele><time>2026-04-14T09:31:15Z</time></trkpt><trkpt lat="38.0820774396131" lon="15.73062158534891"><ele>302.0</ele><time>2026-04-14T09:31:16Z</time></trkpt><trkpt lat="38.082090085859924" lon="15.730748984139863"><ele>303.0</ele><time>2026-04-14T09:31:17Z</time></trkpt><trkpt lat="38.082096721835995" lon="15.730871565671075"><ele>304.0</ele><time>2026-04-14T09:31:18Z</time></trkpt><trkpt lat="38.08209351300028" lon="15.731018645924348"><ele>305.0</ele><time>2026-04-14T09:31:19Z</time></trkpt><trkpt lat="38.08210113410131" lon="15.731157228319294"><ele>306.0</ele><time>2026-04-14T09:31:20Z</time></trkpt><trkpt lat="38.08210870566406" lon="15.731273513269327"><ele>306.8</ele><time>2026-04-14T09:31:21Z</time></trkpt><trkpt lat="38.08212435272101" lon="15.73142304698798"><ele>307.6</ele><time>2026-04-14T09:31:22Z</time></trkpt><trkpt lat="38.08212816010031" lon="15.73156436680055"><ele>308.4</ele><time>2026-04-14T09:31:23Z</time></trkpt><trkpt lat="38.08211424910172" lon="15.731671984004278"><ele>309.2</ele><time>2026-04-14T09:31:24Z</time></trkpt><trkpt lat="38.082094213124435" lon="15.731791965173677"><ele>310.0</ele><time>2026-04-14T09:31:25Z</time></trkpt><trkpt lat="38.08207691471894" lon="15.731922979519718"><ele>310.8</ele><time>2026-04-14T09:31:26Z</time></trkpt><trkpt lat="38.082071889209445" lon="15.732007925632221"><ele>311.6</ele><time>2026-04-14T09:31:27Z</time></trkpt><trkpt lat="38.08209263662534" lon="15.732131805950987"><ele>312.4</ele><time>2026-04-14T09:31:28Z</time></trkpt><trkpt lat="38.08210466979834" lon="15.73229546782625"><ele>313.2</ele><time>2026-04-14T09:31:29Z</time></trkpt><trkpt lat="38.082117943943274" lon="15.732468795687616"><ele>314.0</ele><time>2026-04-14T09:31:30Z</time></trkpt><trkpt lat="38.08212417814694" lon="15.73257938826472"><ele>314.0</ele><time>2026-04-14T09:31:31Z</time></trkpt><trkpt lat="38.08211158273741" lon="15.732694017629917"><ele>314.0</ele><time>2026-04-14T09:31:32Z</time></trkpt><trkpt lat="38.08214263307474" lon="15.732796457980541"><ele>314.0</ele><time>2026-04-14T09:31:33Z</time></trkpt><trkpt lat="38.08218112683641" lon="15.732913556034505"><ele>314.0</ele><time>2026-04-14T09:31:34Z</time></trkpt><trkpt lat="38.08221859991893" lon="15.733051007542528"><ele>314.0</ele><time>2026-04-14T09:31:35Z</time></trkpt><trkpt lat="38.08222275910352" lon="15.733200345128736"><ele>315.5</ele><time>2026-04-14T09:31:36Z</time></trkpt><trkpt lat="38.08221863686712" lon="15.733358194367163"><ele>317.0</ele><time>2026-04-14T09:31:37Z</time></trkpt><trkpt lat="38.08222255398941" lon="15.73350618858636"><ele>318.5</ele><time>2026-04-14T09:31:38Z</time></trkpt><trkpt lat="38.082240295293076" lon="15.733642952214383"><ele>320.0</ele><time>2026-04-14T09:31:39Z</time></trkpt><trkpt lat="38.08227056895447" lon="15.73378164578804"><ele>324.5</ele><time>2026-04-14T09:31:40Z</time></trkpt><trkpt lat="38.082289045944684" lon="15.733942605358472"><ele>329.0</ele><time>2026-04-14T09:31:41Z</time></trkpt><trkpt lat="38.08227794515638" lon="15.734083635444447"><ele>333.5</ele><time>2026-04-14T09:31:42Z</time></trkpt><trkpt lat="38.08227295013601" lon="15.734240901567647"><ele>338.0</ele><time>2026-04-14T09:31:43Z</time></trkpt><trkpt lat="38.0822796304097" lon="15.734387533020888"><ele>341.2</ele><time>2026-04-14T09:31:44Z</time></trkpt><trkpt lat="38.08227670104162" lon="15.734535755605226"><ele>344.4</ele><time>2026-04-14T09:31:45Z</time></trkpt><trkpt lat="38.08223867505696" lon="15.73463870269539"><ele>347.59999999999997</ele><time>2026-04-14T09:31:46Z</time></trkpt><trkpt lat="38.082205761455675" lon="15.734764655206359"><ele>350.79999999999995</ele><time>2026-04-14T09:31:47Z</time></trkpt><trkpt lat="38.08216943898969" lon="15.734913529545848"><ele>354.0</ele><time>2026-04-14T09:31:48Z</time></trkpt><trkpt lat="38.08214310028554" lon="15.735053972726611"><ele>354.0</ele><time>2026-04-14T09:31:49Z</time></trkpt><trkpt lat="38.08211365937834" lon="15.735181026899088"><ele>354.0</ele><time>2026-04-14T09:31:50Z</time></trkpt><trkpt lat="38.0820945794879" lon="15.735301379802358"><ele>354.0</ele><time>2026-04-14T09:31:51Z</time></trkpt><trkpt lat="38.082071096172534" lon="15.735453915126739"><ele>354.0</ele><time>2026-04-14T09:31:52Z</time></trkpt><trkpt lat="38.08204358269843" lon="15.73560733091527"><ele>354.0</ele><time>2026-04-14T09:31:53Z</time></trkpt><trkpt lat="38.08202971280928" lon="15.735763443858858"><ele>353.6</ele><time>2026-04-14T09:31:54Z</time></trkpt><trkpt lat="38.08200689420843" lon="15.73585659922809"><ele>353.2</ele><time>2026-04-14T09:31:55Z</time></trkpt><trkpt lat="38.081930563227125" lon="15.735891609233942"><ele>352.8</ele><time>2026-04-14T09:31:58Z</time></trkpt><trkpt lat="38.081895788564616" lon="15.735815163884114"><ele>352.40000000000003</ele><time>2026-04-14T09:32:00Z</time></trkpt><trkpt lat="38.08193969898324" lon="15.735675947219509"><ele>352.0</ele><time>2026-04-14T09:32:02Z</time></trkpt><trkpt lat="38.08194494933136" lon="15.735537399946221"><ele>352.0</ele><time>2026-04-14T09:32:03Z</time></trkpt><trkpt lat="38.08191415439241" lon="15.735392378460636"><ele>352.0</ele><time>2026-04-14T09:32:04Z</time></trkpt><trkpt lat="38.08190871982623" lon="15.735246536600625"><ele>352.0</ele><time>2026-04-14T09:32:05Z</time></trkpt><trkpt lat="38.08190139455816" lon="15.735124837674345"><ele>352.0</ele><time>2026-04-14T09:32:06Z</time></trkpt><trkpt lat="38.081884888354644" lon="15.735024359248305"><ele>352.0</ele><time>2026-04-14T09:32:07Z</time></trkpt><trkpt lat="38.0818587968384" lon="15.734932441307645"><ele>352.3333333333333</ele><time>2026-04-14T09:32:08Z</time></trkpt><trkpt lat="38.08182224659367" lon="15.73483781220382"><ele>352.66666666666663</ele><time>2026-04-14T09:32:09Z</time></trkpt><trkpt lat="38.08174579407903" lon="15.734780287949727"><ele>353.0</ele><time>2026-04-14T09:32:10Z</time></trkpt><trkpt lat="38.08169338009227" lon="15.734710921865355"><ele>353.3333333333333</ele><time>2026-04-14T09:32:11Z</time></trkpt><trkpt lat="38.081619285798396" lon="15.73461004745749"><ele>353.6666666666667</ele><time>2026-04-14T09:32:12Z</time></trkpt><trkpt lat="38.081564544517704" lon="15.734529772378421"><ele>354.0</ele><time>2026-04-14T09:32:13Z</time></trkpt><trkpt lat="38.08152165542962" lon="15.734462742292349"><ele>359.6666666666667</ele><time>2026-04-14T09:32:14Z</time></trkpt><trkpt lat="38.08143986349394" lon="15.734403243922875"><ele>365.33333333333337</ele><time>2026-04-14T09:32:16Z</time></trkpt><trkpt lat="38.081391425548404" lon="15.734466376606274"><ele>371.0</ele><time>2026-04-14T09:32:17Z</time></trkpt><trkpt lat="38.08140209554344" lon="15.734579831675065"><ele>376.6666666666667</ele><time>2026-04-14T09:32:18Z</time></trkpt><trkpt lat="38.081456448091075" lon="15.734678717386236"><ele>382.33333333333337</ele><time>2026-04-14T09:32:19Z</time></trkpt><trkpt lat="38.08148768356151" lon="15.734789971921629"><ele>388.0</ele><time>2026-04-14T09:32:20Z</time></trkpt><trkpt lat="38.081503762803266" lon="15.734882477375146"><ele>388.0</ele><time>2026-04-14T09:32:21Z</time></trkpt><trkpt lat="38.08152035520128" lon="15.734960855595665"><ele>388.0</ele><time>2026-04-14T09:32:22Z</time></trkpt><trkpt lat="38.081541222417144" lon="15.735039129148996"><ele>388.0</ele><time>2026-04-14T09:32:23Z</time></trkpt><trkpt lat="38.08155615221777" lon="15.73511956525793"><ele>388.0</ele><time>2026-04-14T09:32:24Z</time></trkpt><trkpt lat="38.08157040882272" lon="15.735201621810965"><ele>388.0</ele><time>2026-04-14T09:32:25Z</time></trkpt><trkpt lat="38.081583904509785" lon="15.735283467787717"><ele>388.0</ele><time>2026-04-14T09:32:26Z</time></trkpt><trkpt lat="38.081592268981005" lon="15.735365220234678"><ele>388.0</ele><time>2026-04-14T09:32:27Z</time></trkpt><trkpt lat="38.08155581907027" lon="15.73553039643973"><ele>388.50000000000006</ele><time>2026-04-14T09:32:29Z</time></trkpt><trkpt lat="38.08152667688269" lon="15.735611807990397"><ele>389.0</ele><time>2026-04-14T09:32:30Z</time></trkpt><trkpt lat="38.08148069196569" lon="15.735675008304337"><ele>389.5</ele><time>2026-04-14T09:32:31Z</time></trkpt><trkpt lat="38.081425970772585" lon="15.73572509552848"><ele>390.0</ele><time>2026-04-14T09:32:32Z</time></trkpt><trkpt lat="38.08136130734854" lon="15.735759511486416"><ele>390.50000000000006</ele><time>2026-04-14T09:32:33Z</time></trkpt><trkpt lat="38.081240133708135" lon="15.735753574451127"><ele>391.0</ele><time>2026-04-14T09:32:35Z</time></trkpt><trkpt lat="38.081180107403874" lon="15.735799823114638"><ele>391.0</ele><time>2026-04-14T09:32:36Z</time></trkpt><trkpt lat="38.08109035907917" lon="15.735898831092406"><ele>391.0</ele><time>2026-04-14T09:32:38Z</time></trkpt><trkpt lat="38.08106726317177" lon="15.735993651134597"><ele>391.0</ele><time>2026-04-14T09:32:39Z</time></trkpt><trkpt lat="38.08103263522068" lon="15.736108222018947"><ele>391.0</ele><time>2026-04-14T09:32:40Z</time></trkpt><trkpt lat="38.081001133552505" lon="15.736201494004174"><ele>391.0</ele><time>2026-04-14T09:32:41Z</time></trkpt><trkpt lat="38.0809216117541" lon="15.736228233555904"><ele>391.0</ele><time>2026-04-14T09:32:43Z</time></trkpt><trkpt lat="38.08085226824234" lon="15.7361029196203"><ele>391.0</ele><time>2026-04-14T09:32:45Z</time></trkpt><trkpt lat="38.08077029439297" lon="15.735944431089496"><ele>391.0</ele><time>2026-04-14T09:32:47Z</time></trkpt><trkpt lat="38.080725246942634" lon="15.735836979351665"><ele>391.0</ele><time>2026-04-14T09:32:48Z</time></trkpt><trkpt lat="38.08067759422062" lon="15.735776292838523"><ele>391.0</ele><time>2026-04-14T09:32:49Z</time></trkpt><trkpt lat="38.08055788628961" lon="15.735840195390857"><ele>397.8</ele><time>2026-04-14T09:32:52Z</time></trkpt><trkpt lat="38.080578325913365" lon="15.735942089528544"><ele>404.6</ele><time>2026-04-14T09:32:53Z</time></trkpt><trkpt lat="38.08058669544472" lon="15.73606791596164"><ele>411.4</ele><time>2026-04-14T09:32:54Z</time></trkpt><trkpt lat="38.080628271682485" lon="15.736210895938537"><ele>418.2</ele><time>2026-04-14T09:32:55Z</time></trkpt><trkpt lat="38.08065947864686" lon="15.736318922919798"><ele>425.0</ele><time>2026-04-14T09:32:56Z</time></trkpt><trkpt lat="38.08066678785976" lon="15.736426097072561"><ele>425.99999999999994</ele><time>2026-04-14T09:32:57Z</time></trkpt><trkpt lat="38.080677474613324" lon="15.736509905136193"><ele>427.0</ele><time>2026-04-14T09:32:58Z</time></trkpt><trkpt lat="38.080665908571206" lon="15.736614875744152"><ele>428.0</ele><time>2026-04-14T09:32:59Z</time></trkpt><trkpt lat="38.080644342201865" lon="15.736706966970155"><ele>429.0</ele><time>2026-04-14T09:33:00Z</time></trkpt><trkpt lat="38.080599496154285" lon="15.736770836910715"><ele>429.99999999999994</ele><time>2026-04-14T09:33:01Z</time></trkpt><trkpt lat="38.08047674103441" lon="15.73682840140126"><ele>431.0</ele><time>2026-04-14T09:33:03Z</time></trkpt><trkpt lat="38.08038137426048" lon="15.736874336394848"><ele>428.8</ele><time>2026-04-14T09:33:04Z</time></trkpt><trkpt lat="38.08028348399725" lon="15.736922317623451"><ele>426.6</ele><time>2026-04-14T09:33:05Z</time></trkpt><trkpt lat="38.0801947192526" lon="15.736962419420296"><ele>424.4</ele><time>2026-04-14T09:33:06Z</time></trkpt><trkpt lat="38.08010681578317" lon="15.736995306193018"><ele>422.2</ele><time>2026-04-14T09:33:07Z</time></trkpt><trkpt lat="38.08003348903279" lon="15.737038635160427"><ele>420.0</ele><time>2026-04-14T09:33:08Z</time></trkpt><trkpt lat="38.07997422765594" lon="15.737119256657792"><ele>428.8</ele><time>2026-04-14T09:33:09Z</time></trkpt><trkpt lat="38.07988907561402" lon="15.737265380248058"><ele>437.6</ele><time>2026-04-14T09:33:11Z</time></trkpt><trkpt lat="38.0798521005457" lon="15.737340556537735"><ele>446.4</ele><time>2026-04-14T09:33:12Z</time></trkpt><trkpt lat="38.079783871623654" lon="15.737279470559011"><ele>455.2</ele><time>2026-04-14T09:33:15Z</time></trkpt><trkpt lat="38.0798040679048" lon="15.737147712361603"><ele>464.0</ele><time>2026-04-14T09:33:17Z</time></trkpt><trkpt lat="38.07982848261334" lon="15.73702642771264"><ele>464.0</ele><time>2026-04-14T09:33:18Z</time></trkpt><trkpt lat="38.079897330661616" lon="15.736965881252855"><ele>464.0</ele><time>2026-04-14T09:33:19Z</time></trkpt><trkpt lat="38.07999580466424" lon="15.73688945433936"><ele>464.0</ele><time>2026-04-14T09:33:21Z</time></trkpt><trkpt lat="38.080071262084545" lon="15.736849079346692"><ele>464.0</ele><time>2026-04-14T09:33:22Z</time></trkpt><trkpt lat="38.08014323215978" lon="15.736805895589923"><ele>464.0</ele><time>2026-04-14T09:33:23Z</time></trkpt><trkpt lat="38.080134050785446" lon="15.73661776145523"><ele>458.49999999999994</ele><time>2026-04-14T09:33:25Z</time></trkpt><trkpt lat="38.08012636315672" lon="15.736524814143513"><ele>453.0</ele><time>2026-04-14T09:33:26Z</time></trkpt><trkpt lat="38.08009066802522" lon="15.736457559312248"><ele>447.5</ele><time>2026-04-14T09:33:27Z</time></trkpt><trkpt lat="38.08002572062646" lon="15.736437567234681"><ele>442.0</ele><time>2026-04-14T09:33:28Z</time></trkpt><trkpt lat="38.07995757879135" lon="15.736532430283283"><ele>436.49999999999994</ele><time>2026-04-14T09:33:30Z</time></trkpt><trkpt lat="38.07995263649165" lon="15.736637883383437"><ele>431.0</ele><time>2026-04-14T09:33:31Z</time></trkpt><trkpt lat="38.0799422182269" lon="15.736723800151719"><ele>437.6</ele><time>2026-04-14T09:33:32Z</time></trkpt><trkpt lat="38.07985624690675" lon="15.736816956962814"><ele>444.20000000000005</ele><time>2026-04-14T09:33:34Z</time></trkpt><trkpt lat="38.07978782762125" lon="15.736846901325741"><ele>450.79999999999995</ele><time>2026-04-14T09:33:35Z</time></trkpt><trkpt lat="38.07970083780452" lon="15.736871288154674"><ele>457.4</ele><time>2026-04-14T09:33:36Z</time></trkpt><trkpt lat="38.07962375749258" lon="15.736963224874003"><ele>464.0</ele><time>2026-04-14T09:33:37Z</time></trkpt><trkpt lat="38.07956974710596" lon="15.73702827277618"><ele>463.99999999999994</ele><time>2026-04-14T09:33:38Z</time></trkpt><trkpt lat="38.07951000483563" lon="15.737082474607421"><ele>464.0</ele><time>2026-04-14T09:33:39Z</time></trkpt><trkpt lat="38.07945029777474" lon="15.737158428842875"><ele>464.0</ele><time>2026-04-14T09:33:40Z</time></trkpt><trkpt lat="38.0794055794145" lon="15.73722539901135"><ele>464.0</ele><time>2026-04-14T09:33:41Z</time></trkpt><trkpt lat="38.079355967341606" lon="15.737319932834744"><ele>463.99999999999994</ele><time>2026-04-14T09:33:42Z</time></trkpt><trkpt lat="38.079336529223404" lon="15.737421371484142"><ele>464.0</ele><time>2026-04-14T09:33:43Z</time></trkpt><trkpt lat="38.07931733221842" lon="15.737526451342033"><ele>464.0</ele><time>2026-04-14T09:33:44Z</time></trkpt><trkpt lat="38.07929439320025" lon="15.73764088853146"><ele>464.0</ele><time>2026-04-14T09:33:45Z</time></trkpt><trkpt lat="38.07929444353799" lon="15.737743471661013"><ele>464.0</ele><time>2026-04-14T09:33:46Z</time></trkpt><trkpt lat="38.07931879912243" lon="15.737833361240652"><ele>464.0</ele><time>2026-04-14T09:33:47Z</time></trkpt><trkpt lat="38.079317462458825" lon="15.73797597594508"><ele>464.0</ele><time>2026-04-14T09:33:48Z</time></trkpt><trkpt lat="38.079310647724675" lon="15.738121640301687"><ele>463.79999999999995</ele><time>2026-04-14T09:33:49Z</time></trkpt><trkpt lat="38.07927859928073" lon="15.738196056405815"><ele>463.59999999999997</ele><time>2026-04-14T09:33:50Z</time></trkpt><trkpt lat="38.07921568106334" lon="15.738305235012149"><ele>463.4</ele><time>2026-04-14T09:33:52Z</time></trkpt><trkpt lat="38.07913945563952" lon="15.738218100436361"><ele>463.2</ele><time>2026-04-14T09:33:54Z</time></trkpt><trkpt lat="38.079050214892845" lon="15.738083081303206"><ele>463.0</ele><time>2026-04-14T09:33:56Z</time></trkpt><trkpt lat="38.07899515843003" lon="15.737977625848051"><ele>471.4</ele><time>2026-04-14T09:33:57Z</time></trkpt><trkpt lat="38.07897739015147" lon="15.73787869922708"><ele>479.79999999999995</ele><time>2026-04-14T09:33:58Z</time></trkpt><trkpt lat="38.07897335278812" lon="15.737770553066634"><ele>488.2</ele><time>2026-04-14T09:33:59Z</time></trkpt><trkpt lat="38.07897688038313" lon="15.737641822197602"><ele>496.6</ele><time>2026-04-14T09:34:00Z</time></trkpt><trkpt lat="38.07898991911803" lon="15.737502845043295"><ele>505.0</ele><time>2026-04-14T09:34:01Z</time></trkpt><trkpt lat="38.07901584734868" lon="15.737339666354183"><ele>506.4</ele><time>2026-04-14T09:34:02Z</time></trkpt><trkpt lat="38.079037667464085" lon="15.73722867004501"><ele>507.8</ele><time>2026-04-14T09:34:03Z</time></trkpt><trkpt lat="38.079065230421016" lon="15.737140224395374"><ele>509.20000000000005</ele><time>2026-04-14T09:34:04Z</time></trkpt><trkpt lat="38.07910766822284" lon="15.736958190636209"><ele>510.6</ele><time>2026-04-14T09:34:06Z</time></trkpt><trkpt lat="38.07912368610531" lon="15.736839133264116"><ele>512.0</ele><time>2026-04-14T09:34:07Z</time></trkpt><trkpt lat="38.079127926776714" lon="15.736712235818542"><ele>513.0</ele><time>2026-04-14T09:34:08Z</time></trkpt><trkpt lat="38.07910881261525" lon="15.736586124389277"><ele>514.0</ele><time>2026-04-14T09:34:09Z</time></trkpt><trkpt lat="38.07908750671202" lon="15.736472154817069"><ele>515.0</ele><time>2026-04-14T09:34:10Z</time></trkpt><trkpt lat="38.07905861329819" lon="15.736369445405964"><ele>516.0</ele><time>2026-04-14T09:34:11Z</time></trkpt><trkpt lat="38.07901368705281" lon="15.736272826286184"><ele>517.0</ele><time>2026-04-14T09:34:12Z</time></trkpt><trkpt lat="38.07895167563148" lon="15.736171179298815"><ele>517.0</ele><time>2026-04-14T09:34:13Z</time></trkpt><trkpt lat="38.07886074659801" lon="15.736061585442398"><ele>517.0</ele><time>2026-04-14T09:34:14Z</time></trkpt><trkpt lat="38.07879537327698" lon="15.735966220542798"><ele>517.0</ele><time>2026-04-14T09:34:15Z</time></trkpt><trkpt lat="38.07876025215718" lon="15.735874232220489"><ele>517.0</ele><time>2026-04-14T09:34:16Z</time></trkpt><trkpt lat="38.078715586993724" lon="15.735794680950782"><ele>517.0</ele><time>2026-04-14T09:34:17Z</time></trkpt><trkpt lat="38.078646804313905" lon="15.73574390260886"><ele>514.8333333333334</ele><time>2026-04-14T09:34:18Z</time></trkpt><trkpt lat="38.07856168444636" lon="15.735719185696993"><ele>512.6666666666667</ele><time>2026-04-14T09:34:19Z</time></trkpt><trkpt lat="38.07847158361246" lon="15.735713224403968"><ele>510.5</ele><time>2026-04-14T09:34:20Z</time></trkpt><trkpt lat="38.07840697231699" lon="15.73569741930565"><ele>508.33333333333337</ele><time>2026-04-14T09:34:21Z</time></trkpt><trkpt lat="38.07837223994427" lon="15.73557059632212"><ele>506.1666666666667</ele><time>2026-04-14T09:34:23Z</time></trkpt><trkpt lat="38.07836328273809" lon="15.735465147899047"><ele>504.0</ele><time>2026-04-14T09:34:24Z</time></trkpt><trkpt lat="38.07834360906305" lon="15.735329331602593"><ele>503.1666666666667</ele><time>2026-04-14T09:34:25Z</time></trkpt><trkpt lat="38.07833304364464" lon="15.73520198756791"><ele>502.33333333333337</ele><time>2026-04-14T09:34:26Z</time></trkpt><trkpt lat="38.07835386065249" lon="15.735108139734788"><ele>501.5</ele><time>2026-04-14T09:34:27Z</time></trkpt><trkpt lat="38.078392028799264" lon="15.73501065521359"><ele>500.6666666666667</ele><time>2026-04-14T09:34:28Z</time></trkpt><trkpt lat="38.07844749661878" lon="15.73490270773264"><ele>499.83333333333337</ele><time>2026-04-14T09:34:29Z</time></trkpt><trkpt lat="38.0784610388716" lon="15.734818457426583"><ele>499.0</ele><time>2026-04-14T09:34:30Z</time></trkpt><trkpt lat="38.07839825808202" lon="15.734685528577037"><ele>499.0</ele><time>2026-04-14T09:34:32Z</time></trkpt><trkpt lat="38.0783329383158" lon="15.734666221993267"><ele>499.0</ele><time>2026-04-14T09:34:33Z</time></trkpt><trkpt lat="38.07825276324794" lon="15.73474934721883"><ele>499.0</ele><time>2026-04-14T09:34:35Z</time></trkpt><trkpt lat="38.07825152918603" lon="15.734831358474139"><ele>499.0</ele><time>2026-04-14T09:34:36Z</time></trkpt><trkpt lat="38.0783224761269" lon="15.734904646605367"><ele>499.0</ele><time>2026-04-14T09:34:38Z</time></trkpt><trkpt lat="38.07829617545706" lon="15.735080809480948"><ele>505.33333333333337</ele><time>2026-04-14T09:34:40Z</time></trkpt><trkpt lat="38.0782502993407" lon="15.735173431314086"><ele>511.6666666666667</ele><time>2026-04-14T09:34:41Z</time></trkpt><trkpt lat="38.07819196009427" lon="15.735266963951211"><ele>518.0</ele><time>2026-04-14T09:34:42Z</time></trkpt><trkpt lat="38.07814833734032" lon="15.73538385806474"><ele>524.3333333333334</ele><time>2026-04-14T09:34:43Z</time></trkpt><trkpt lat="38.078124305354706" lon="15.735468333527406"><ele>530.6666666666666</ele><time>2026-04-14T09:34:44Z</time></trkpt><trkpt lat="38.078125819276714" lon="15.735583590628258"><ele>537.0</ele><time>2026-04-14T09:34:45Z</time></trkpt><trkpt lat="38.07812026900044" lon="15.735709077775018"><ele>539.8000000000001</ele><time>2026-04-14T09:34:46Z</time></trkpt><trkpt lat="38.07812224170552" lon="15.735811885063605"><ele>542.6</ele><time>2026-04-14T09:34:47Z</time></trkpt><trkpt lat="38.078112855750696" lon="15.735946622662857"><ele>545.4000000000001</ele><time>2026-04-14T09:34:48Z</time></trkpt><trkpt lat="38.078149339636006" lon="15.736071563686117"><ele>548.2</ele><time>2026-04-14T09:34:49Z</time></trkpt><trkpt lat="38.07820984211024" lon="15.736171799831958"><ele>551.0</ele><time>2026-04-14T09:34:51Z</time></trkpt><trkpt lat="38.07823557600654" lon="15.736278661495003"><ele>551.1428571428571</ele><time>2026-04-14T09:34:52Z</time></trkpt><trkpt lat="38.07825617682266" lon="15.736380944487427"><ele>551.2857142857142</ele><time>2026-04-14T09:34:53Z</time></trkpt><trkpt lat="38.0782709073356" lon="15.736476173820655"><ele>551.4285714285714</ele><time>2026-04-14T09:34:54Z</time></trkpt><trkpt lat="38.078278225018295" lon="15.736558595831994"><ele>551.5714285714286</ele><time>2026-04-14T09:34:55Z</time></trkpt><trkpt lat="38.0782635874443" lon="15.73664549599754"><ele>551.7142857142858</ele><time>2026-04-14T09:34:56Z</time></trkpt><trkpt lat="38.07823116932646" lon="15.73672567182569"><ele>551.8571428571429</ele><time>2026-04-14T09:34:57Z</time></trkpt><trkpt lat="38.078197590412195" lon="15.73681687096574"><ele>552.0</ele><time>2026-04-14T09:34:58Z</time></trkpt><trkpt lat="38.07815893983273" lon="15.736904137605201"><ele>552.0</ele><time>2026-04-14T09:34:59Z</time></trkpt><trkpt lat="38.07810301807061" lon="15.736999615503164"><ele>552.0</ele><time>2026-04-14T09:35:00Z</time></trkpt><trkpt lat="38.07803770225661" lon="15.737099987280287"><ele>552.0</ele><time>2026-04-14T09:35:01Z</time></trkpt><trkpt lat="38.07799568957554" lon="15.737174704687135"><ele>552.0</ele><time>2026-04-14T09:35:02Z</time></trkpt><trkpt lat="38.07798577036779" lon="15.73726460705938"><ele>552.0</ele><time>2026-04-14T09:35:03Z</time></trkpt><trkpt lat="38.077982378488564" lon="15.737407732819879"><ele>552.0</ele><time>2026-04-14T09:35:05Z</time></trkpt><trkpt lat="38.077985542801805" lon="15.737553117311503"><ele>552.0</ele><time>2026-04-14T09:35:07Z</time></trkpt><trkpt lat="38.07797737462904" lon="15.737636384866583"><ele>552.0</ele><time>2026-04-14T09:35:08Z</time></trkpt><trkpt lat="38.077943704698896" lon="15.737717590463571"><ele>552.0</ele><time>2026-04-14T09:35:09Z</time></trkpt><trkpt lat="38.07791318107408" lon="15.737799894539453"><ele>552.0</ele><time>2026-04-14T09:35:10Z</time></trkpt><trkpt lat="38.077892188918455" lon="15.737884948210688"><ele>552.0</ele><time>2026-04-14T09:35:11Z</time></trkpt><trkpt lat="38.077894274210145" lon="15.738018437277875"><ele>551.8000000000001</ele><time>2026-04-14T09:35:12Z</time></trkpt><trkpt lat="38.077867978681695" lon="15.738142314589751"><ele>551.6</ele><time>2026-04-14T09:35:13Z</time></trkpt><trkpt lat="38.0778281163913" lon="15.738279816632824"><ele>551.4000000000001</ele><time>2026-04-14T09:35:15Z</time></trkpt><trkpt lat="38.07776466978173" lon="15.738329680402138"><ele>551.2</ele><time>2026-04-14T09:35:16Z</time></trkpt><trkpt lat="38.077708049530926" lon="15.738421736072516"><ele>551.0</ele><time>2026-04-14T09:35:17Z</time></trkpt><trkpt lat="38.07766719934291" lon="15.738528608351073"><ele>550.8333333333333</ele><time>2026-04-14T09:35:18Z</time></trkpt><trkpt lat="38.077628869592914" lon="15.73862344074012"><ele>550.6666666666666</ele><time>2026-04-14T09:35:19Z</time></trkpt><trkpt lat="38.07762109374014" lon="15.738722597693743"><ele>550.5</ele><time>2026-04-14T09:35:20Z</time></trkpt><trkpt lat="38.07765266833689" lon="15.738820048180392"><ele>550.3333333333334</ele><time>2026-04-14T09:35:22Z</time></trkpt><trkpt lat="38.07770360468092" lon="15.738907570649072"><ele>550.1666666666667</ele><time>2026-04-14T09:35:23Z</time></trkpt><trkpt lat="38.07774637670273" lon="15.738978043988014"><ele>550.0</ele><time>2026-04-14T09:35:24Z</time></trkpt><trkpt lat="38.07769805622468" lon="15.739059261344668"><ele>550.0</ele><time>2026-04-14T09:35:26Z</time></trkpt><trkpt lat="38.0776329849061" lon="15.73906217291124"><ele>550.0</ele><time>2026-04-14T09:35:27Z</time></trkpt><trkpt lat="38.07757117158796" lon="15.738988698676737"><ele>550.0</ele><time>2026-04-14T09:35:29Z</time></trkpt><trkpt lat="38.07753281846671" lon="15.738844910211956"><ele>550.0</ele><time>2026-04-14T09:35:31Z</time></trkpt><trkpt lat="38.07751251335042" lon="15.738728461602374"><ele>550.0</ele><time>2026-04-14T09:35:32Z</time></trkpt><trkpt lat="38.07748232653409" lon="15.738607162422822"><ele>550.2</ele><time>2026-04-14T09:35:33Z</time></trkpt><trkpt lat="38.07746101536957" lon="15.738512833446894"><ele>550.4</ele><time>2026-04-14T09:35:34Z</time></trkpt><trkpt lat="38.077456231838696" lon="15.73838949099203"><ele>550.6</ele><time>2026-04-14T09:35:35Z</time></trkpt><trkpt lat="38.07744764301852" lon="15.73825046298115"><ele>550.8</ele><time>2026-04-14T09:35:36Z</time></trkpt><trkpt lat="38.07745216464751" lon="15.738078793695353"><ele>551.0</ele><time>2026-04-14T09:35:37Z</time></trkpt><trkpt lat="38.07744785580345" lon="15.737917069740668"><ele>556.8333333333333</ele><time>2026-04-14T09:35:38Z</time></trkpt><trkpt lat="38.07742411812428" lon="15.737791098551096"><ele>562.6666666666666</ele><time>2026-04-14T09:35:39Z</time></trkpt><trkpt lat="38.07739840511999" lon="15.737673941878784"><ele>568.5</ele><time>2026-04-14T09:35:40Z</time></trkpt><trkpt lat="38.07737003137838" lon="15.737570875665917"><ele>574.3333333333334</ele><time>2026-04-14T09:35:41Z</time></trkpt><trkpt lat="38.077322391149785" lon="15.737484400892319"><ele>580.1666666666667</ele><time>2026-04-14T09:35:42Z</time></trkpt><trkpt lat="38.077266739426825" lon="15.737425322608932"><ele>586.0</ele><time>2026-04-14T09:35:43Z</time></trkpt><trkpt lat="38.0772512375848" lon="15.737332340839153"><ele>586.3333333333334</ele><time>2026-04-14T09:35:44Z</time></trkpt><trkpt lat="38.077233171830954" lon="15.737188460050978"><ele>586.6666666666667</ele><time>2026-04-14T09:35:46Z</time></trkpt><trkpt lat="38.077233794729416" lon="15.737108329510818"><ele>587.0</ele><time>2026-04-14T09:35:47Z</time></trkpt><trkpt lat="38.07723261202469" lon="15.737011649978456"><ele>587.3333333333334</ele><time>2026-04-14T09:35:49Z</time></trkpt><trkpt lat="38.07722242049327" lon="15.736881678186709"><ele>587.6666666666666</ele><time>2026-04-14T09:35:51Z</time></trkpt><trkpt lat="38.07721599135987" lon="15.7367936175955"><ele>588.0</ele><time>2026-04-14T09:35:52Z</time></trkpt><trkpt lat="38.0772025641835" lon="15.7366985086997"><ele>590.4</ele><time>2026-04-14T09:35:53Z</time></trkpt><trkpt lat="38.07719023013999" lon="15.736586121816583"><ele>592.8</ele><time>2026-04-14T09:35:54Z</time></trkpt><trkpt lat="38.077151719896996" lon="15.736469570123317"><ele>595.2</ele><time>2026-04-14T09:35:55Z</time></trkpt><trkpt lat="38.07710740193681" lon="15.736381373726028"><ele>597.6</ele><time>2026-04-14T09:35:56Z</time></trkpt><trkpt lat="38.07710367628327" lon="15.73629975804563"><ele>600.0</ele><time>2026-04-14T09:35:57Z</time></trkpt><trkpt lat="38.07710738882003" lon="15.736121826043917"><ele>600.0</ele><time>2026-04-14T09:35:59Z</time></trkpt><trkpt lat="38.07712486190657" lon="15.736004677993598"><ele>600.0</ele><time>2026-04-14T09:36:00Z</time></trkpt><trkpt lat="38.07713970785548" lon="15.735917598902594"><ele>600.0</ele><time>2026-04-14T09:36:01Z</time></trkpt><trkpt lat="38.07721199849305" lon="15.73578697925918"><ele>600.0</ele><time>2026-04-14T09:36:03Z</time></trkpt><trkpt lat="38.07723569753546" lon="15.73570622534175"><ele>600.0</ele><time>2026-04-14T09:36:04Z</time></trkpt><trkpt lat="38.077224019685815" lon="15.735619301029361"><ele>600.0</ele><time>2026-04-14T09:36:05Z</time></trkpt><trkpt lat="38.07719523232414" lon="15.735532930241067"><ele>600.0</ele><time>2026-04-14T09:36:06Z</time></trkpt><trkpt lat="38.07707708567064" lon="15.735575207521034"><ele>600.0</ele><time>2026-04-14T09:36:08Z</time></trkpt><trkpt lat="38.077061621661585" lon="15.735751221365108"><ele>600.0</ele><time>2026-04-14T09:36:10Z</time></trkpt><trkpt lat="38.077039518948716" lon="15.735853399328079"><ele>600.0</ele><time>2026-04-14T09:36:11Z</time></trkpt><trkpt lat="38.07698977163505" lon="15.735933779194095"><ele>600.0</ele><time>2026-04-14T09:36:12Z</time></trkpt><trkpt lat="38.07694174827739" lon="15.736053026500137"><ele>600.0</ele><time>2026-04-14T09:36:13Z</time></trkpt><trkpt lat="38.076917438999764" lon="15.73617477312246"><ele>600.0</ele><time>2026-04-14T09:36:14Z</time></trkpt><trkpt lat="38.07690659775593" lon="15.736256974552001"><ele>600.0</ele><time>2026-04-14T09:36:15Z</time></trkpt><trkpt lat="38.07690389550663" lon="15.736490131272552"><ele>600.0</ele><time>2026-04-14T09:36:17Z</time></trkpt><trkpt lat="38.076919261745076" lon="15.736600059412645"><ele>600.0</ele><time>2026-04-14T09:36:18Z</time></trkpt><trkpt lat="38.076929348397606" lon="15.736751240258709"><ele>597.6</ele><time>2026-04-14T09:36:20Z</time></trkpt><trkpt lat="38.07685945405627" lon="15.73691048798732"><ele>595.2</ele><time>2026-04-14T09:36:22Z</time></trkpt><trkpt lat="38.07680817459108" lon="15.737009350943307"><ele>592.8</ele><time>2026-04-14T09:36:23Z</time></trkpt><trkpt lat="38.076751481580224" lon="15.737124429046759"><ele>590.4</ele><time>2026-04-14T09:36:25Z</time></trkpt><trkpt lat="38.07669397317413" lon="15.73715843042012"><ele>588.0</ele><time>2026-04-14T09:36:26Z</time></trkpt><trkpt lat="38.07661989045669" lon="15.73720272433886"><ele>594.8</ele><time>2026-04-14T09:36:27Z</time></trkpt><trkpt lat="38.07653893581198" lon="15.737262024107546"><ele>601.5999999999999</ele><time>2026-04-14T09:36:28Z</time></trkpt><trkpt lat="38.076465522935706" lon="15.737350825948706"><ele>608.4000000000001</ele><time>2026-04-14T09:36:29Z</time></trkpt><trkpt lat="38.07639182455923" lon="15.737459469670993"><ele>615.2</ele><time>2026-04-14T09:36:30Z</time></trkpt><trkpt lat="38.07631562050594" lon="15.737581146631022"><ele>622.0</ele><time>2026-04-14T09:36:31Z</time></trkpt><trkpt lat="38.07624798131637" lon="15.737705552593626"><ele>620.0</ele><time>2026-04-14T09:36:32Z</time></trkpt><trkpt lat="38.0761781542001" lon="15.737799434441257"><ele>618.0</ele><time>2026-04-14T09:36:33Z</time></trkpt><trkpt lat="38.07612585151114" lon="15.737866868289775"><ele>616.0</ele><time>2026-04-14T09:36:34Z</time></trkpt><trkpt lat="38.07600946440704" lon="15.737897593097948"><ele>614.0</ele><time>2026-04-14T09:36:36Z</time></trkpt><trkpt lat="38.07594041312393" lon="15.738032476552249"><ele>612.0</ele><time>2026-04-14T09:36:38Z</time></trkpt><trkpt lat="38.07593244070031" lon="15.738152062908295"><ele>612.0</ele><time>2026-04-14T09:36:39Z</time></trkpt><trkpt lat="38.075933005782254" lon="15.738305259063615"><ele>612.0</ele><time>2026-04-14T09:36:40Z</time></trkpt><trkpt lat="38.07595466107782" lon="15.738449435178062"><ele>612.0</ele><time>2026-04-14T09:36:41Z</time></trkpt><trkpt lat="38.07599468285553" lon="15.738577162393028"><ele>612.0</ele><time>2026-04-14T09:36:42Z</time></trkpt><trkpt lat="38.07603660048663" lon="15.738679632458702"><ele>612.0</ele><time>2026-04-14T09:36:43Z</time></trkpt><trkpt lat="38.076056142701844" lon="15.73879540446046"><ele>611.75</ele><time>2026-04-14T09:36:44Z</time></trkpt><trkpt lat="38.07603849230777" lon="15.738924870451129"><ele>611.5</ele><time>2026-04-14T09:36:45Z</time></trkpt><trkpt lat="38.07599249288207" lon="15.739043866701756"><ele>611.25</ele><time>2026-04-14T09:36:46Z</time></trkpt><trkpt lat="38.07592268346816" lon="15.739169886384783"><ele>611.0</ele><time>2026-04-14T09:36:47Z</time></trkpt><trkpt lat="38.07587600210346" lon="15.739315291149396"><ele>612.1666666666666</ele><time>2026-04-14T09:36:48Z</time></trkpt><trkpt lat="38.07585449144107" lon="15.739415126187334"><ele>613.3333333333333</ele><time>2026-04-14T09:36:49Z</time></trkpt><trkpt lat="38.075815859558055" lon="15.739492133172154"><ele>614.5</ele><time>2026-04-14T09:36:50Z</time></trkpt><trkpt lat="38.07575502091032" lon="15.739556044041587"><ele>615.6666666666666</ele><time>2026-04-14T09:36:51Z</time></trkpt><trkpt lat="38.07569068344461" lon="15.739583513502009"><ele>616.8333333333334</ele><time>2026-04-14T09:36:52Z</time></trkpt><trkpt lat="38.075632937905006" lon="15.739622071273638"><ele>618.0</ele><time>2026-04-14T09:36:53Z</time></trkpt><trkpt lat="38.0756291112622" lon="15.73975043012045"><ele>618.0000000000001</ele><time>2026-04-14T09:36:55Z</time></trkpt><trkpt lat="38.07567774667812" lon="15.739801536488446"><ele>618.0</ele><time>2026-04-14T09:36:56Z</time></trkpt><trkpt lat="38.07574371636115" lon="15.739848805878669"><ele>618.0</ele><time>2026-04-14T09:36:57Z</time></trkpt><trkpt lat="38.07579536590275" lon="15.739900468956803"><ele>618.0</ele><time>2026-04-14T09:36:58Z</time></trkpt><trkpt lat="38.07580906262647" lon="15.739982679990119"><ele>618.0</ele><time>2026-04-14T09:36:59Z</time></trkpt><trkpt lat="38.07583157788939" lon="15.740059620484393"><ele>618.0000000000001</ele><time>2026-04-14T09:37:00Z</time></trkpt><trkpt lat="38.075864132305696" lon="15.740152974077024"><ele>618.0</ele><time>2026-04-14T09:37:01Z</time></trkpt><trkpt lat="38.07589556484004" lon="15.740259860370827"><ele>621.0</ele><time>2026-04-14T09:37:02Z</time></trkpt><trkpt lat="38.07592851086582" lon="15.74036552148121"><ele>624.0</ele><time>2026-04-14T09:37:03Z</time></trkpt><trkpt lat="38.07597264146027" lon="15.74046937635516"><ele>627.0</ele><time>2026-04-14T09:37:04Z</time></trkpt><trkpt lat="38.076023997016044" lon="15.740577350718551"><ele>630.0</ele><time>2026-04-14T09:37:05Z</time></trkpt><trkpt lat="38.07606079929443" lon="15.740708936233467"><ele>633.0</ele><time>2026-04-14T09:37:06Z</time></trkpt><trkpt lat="38.076094319448224" lon="15.740830570431067"><ele>633.0</ele><time>2026-04-14T09:37:07Z</time></trkpt><trkpt lat="38.076105027497825" lon="15.740951862170343"><ele>633.0</ele><time>2026-04-14T09:37:08Z</time></trkpt><trkpt lat="38.076107169130914" lon="15.741089479075304"><ele>633.0</ele><time>2026-04-14T09:37:09Z</time></trkpt><trkpt lat="38.07609497438221" lon="15.741207956631381"><ele>633.0</ele><time>2026-04-14T09:37:10Z</time></trkpt><trkpt lat="38.07608355779835" lon="15.741327883129717"><ele>633.0</ele><time>2026-04-14T09:37:11Z</time></trkpt><trkpt lat="38.07607616618888" lon="15.741468474437449"><ele>635.2</ele><time>2026-04-14T09:37:13Z</time></trkpt><trkpt lat="38.0760987687976" lon="15.741570156763723"><ele>637.4</ele><time>2026-04-14T09:37:14Z</time></trkpt><trkpt lat="38.07610695157664" lon="15.741677965263731"><ele>639.6</ele><time>2026-04-14T09:37:15Z</time></trkpt><trkpt lat="38.076087833354435" lon="15.741818135098145"><ele>641.8000000000001</ele><time>2026-04-14T09:37:17Z</time></trkpt><trkpt lat="38.07608752740639" lon="15.741962831491017"><ele>644.0</ele><time>2026-04-14T09:37:19Z</time></trkpt><trkpt lat="38.076061034357004" lon="15.7420598452335"><ele>645.0</ele><time>2026-04-14T09:37:20Z</time></trkpt><trkpt lat="38.07603311239635" lon="15.742139626790246"><ele>646.0</ele><time>2026-04-14T09:37:21Z</time></trkpt><trkpt lat="38.076000166859295" lon="15.74223795318229"><ele>647.0</ele><time>2026-04-14T09:37:22Z</time></trkpt><trkpt lat="38.07597860621915" lon="15.742335033638803"><ele>648.0</ele><time>2026-04-14T09:37:23Z</time></trkpt><trkpt lat="38.07596628954891" lon="15.742422412190976"><ele>649.0</ele><time>2026-04-14T09:37:24Z</time></trkpt><trkpt lat="38.075930454240115" lon="15.74252653673151"><ele>650.0</ele><time>2026-04-14T09:37:25Z</time></trkpt><trkpt lat="38.07593617523225" lon="15.742626204544143"><ele>650.0</ele><time>2026-04-14T09:37:26Z</time></trkpt><trkpt lat="38.07592392737981" lon="15.742709504633275"><ele>650.0</ele><time>2026-04-14T09:37:27Z</time></trkpt><trkpt lat="38.075894138617684" lon="15.742807183925605"><ele>650.0</ele><time>2026-04-14T09:37:29Z</time></trkpt><trkpt lat="38.07588644125356" lon="15.742902472107296"><ele>650.0</ele><time>2026-04-14T09:37:30Z</time></trkpt><trkpt lat="38.075872461569986" lon="15.74300284119296"><ele>650.0</ele><time>2026-04-14T09:37:31Z</time></trkpt><trkpt lat="38.07582545228517" lon="15.743101591840128"><ele>650.0</ele><time>2026-04-14T09:37:33Z</time></trkpt><trkpt lat="38.07575734063205" lon="15.743052154330803"><ele>650.75</ele><time>2026-04-14T09:37:35Z</time></trkpt><trkpt lat="38.075777518505134" lon="15.742860346219135"><ele>651.5</ele><time>2026-04-14T09:37:39Z</time></trkpt><trkpt lat="38.075783518531004" lon="15.742728335219846"><ele>652.25</ele><time>2026-04-14T09:37:40Z</time></trkpt><trkpt lat="38.07576427239221" lon="15.742577510707994"><ele>653.0</ele><time>2026-04-14T09:37:41Z</time></trkpt><trkpt lat="38.07573933963336" lon="15.742452053585506"><ele>659.8</ele><time>2026-04-14T09:37:42Z</time></trkpt><trkpt lat="38.07570420364419" lon="15.742332618986461"><ele>666.5999999999999</ele><time>2026-04-14T09:37:43Z</time></trkpt><trkpt lat="38.07567428356506" lon="15.742222554953322"><ele>673.4000000000001</ele><time>2026-04-14T09:37:44Z</time></trkpt><trkpt lat="38.075642841663985" lon="15.742141911969668"><ele>680.2</ele><time>2026-04-14T09:37:45Z</time></trkpt><trkpt lat="38.07552694872574" lon="15.742130584808542"><ele>687.0</ele><time>2026-04-14T09:37:48Z</time></trkpt><trkpt lat="38.07554170205238" lon="15.742297082971804"><ele>687.0</ele><time>2026-04-14T09:37:50Z</time></trkpt><trkpt lat="38.07555653748572" lon="15.742416040891523"><ele>687.0</ele><time>2026-04-14T09:37:51Z</time></trkpt><trkpt lat="38.07554153971531" lon="15.742554034670688"><ele>687.0</ele><time>2026-04-14T09:37:53Z</time></trkpt><trkpt lat="38.07550490555716" lon="15.742693732552656"><ele>687.0</ele><time>2026-04-14T09:37:55Z</time></trkpt><trkpt lat="38.07547268295515" lon="15.7427671598297"><ele>687.0</ele><time>2026-04-14T09:37:56Z</time></trkpt><trkpt lat="38.075395414703216" lon="15.742889191871303"><ele>688.6</ele><time>2026-04-14T09:37:58Z</time></trkpt><trkpt lat="38.07535089219776" lon="15.742975130635264"><ele>690.2</ele><time>2026-04-14T09:37:59Z</time></trkpt><trkpt lat="38.075320044559405" lon="15.743089704877297"><ele>691.8</ele><time>2026-04-14T09:38:00Z</time></trkpt><trkpt lat="38.07530907822795" lon="15.743199861905403"><ele>693.4</ele><time>2026-04-14T09:38:01Z</time></trkpt><trkpt lat="38.075275003924645" lon="15.743338606624071"><ele>695.0</ele><time>2026-04-14T09:38:03Z</time></trkpt><trkpt lat="38.07525799471139" lon="15.74348356986834"><ele>695.0</ele><time>2026-04-14T09:38:05Z</time></trkpt><trkpt lat="38.07527130752825" lon="15.743590816071409"><ele>695.0</ele><time>2026-04-14T09:38:07Z</time></trkpt><trkpt lat="38.07518279511306" lon="15.74359146717696"><ele>695.0</ele><time>2026-04-14T09:38:09Z</time></trkpt><trkpt lat="38.07515478535522" lon="15.74351260213073"><ele>695.0</ele><time>2026-04-14T09:38:10Z</time></trkpt><trkpt lat="38.07511396722868" lon="15.74336599505952"><ele>695.0</ele><time>2026-04-14T09:38:12Z</time></trkpt><trkpt lat="38.0750729130877" lon="15.743293661425515"><ele>695.0</ele><time>2026-04-14T09:38:13Z</time></trkpt><trkpt lat="38.07503802360093" lon="15.743214760302482"><ele>695.0000000000001</ele><time>2026-04-14T09:38:14Z</time></trkpt><trkpt lat="38.075001619087566" lon="15.743144821781936"><ele>695.0</ele><time>2026-04-14T09:38:15Z</time></trkpt><trkpt lat="38.074962581451516" lon="15.743063040074302"><ele>695.0</ele><time>2026-04-14T09:38:16Z</time></trkpt><trkpt lat="38.07492347295842" lon="15.742978897049941"><ele>695.0</ele><time>2026-04-14T09:38:17Z</time></trkpt><trkpt lat="38.07489140185042" lon="15.742896530324604"><ele>695.0</ele><time>2026-04-14T09:38:18Z</time></trkpt><trkpt lat="38.07486923590841" lon="15.742803651967854"><ele>695.0000000000001</ele><time>2026-04-14T09:38:19Z</time></trkpt><trkpt lat="38.07487095458711" lon="15.742710146221038"><ele>695.0</ele><time>2026-04-14T09:38:20Z</time></trkpt><trkpt lat="38.07487435705684" lon="15.742605587784329"><ele>699.8333333333333</ele><time>2026-04-14T09:38:21Z</time></trkpt><trkpt lat="38.07485230701124" lon="15.742525639700924"><ele>704.6666666666666</ele><time>2026-04-14T09:38:22Z</time></trkpt><trkpt lat="38.07481365808239" lon="15.742372649373824"><ele>709.5</ele><time>2026-04-14T09:38:24Z</time></trkpt><trkpt lat="38.07476984745895" lon="15.742285207160464"><ele>714.3333333333334</ele><time>2026-04-14T09:38:25Z</time></trkpt><trkpt lat="38.07473718152862" lon="15.742199394796112"><ele>719.1666666666667</ele><time>2026-04-14T09:38:26Z</time></trkpt><trkpt lat="38.07472567619845" lon="15.742111966529794"><ele>724.0</ele><time>2026-04-14T09:38:27Z</time></trkpt><trkpt lat="38.07470523303376" lon="15.741931512815578"><ele>722.3333333333334</ele><time>2026-04-14T09:38:29Z</time></trkpt><trkpt lat="38.074689001596056" lon="15.74183108556411"><ele>720.6666666666667</ele><time>2026-04-14T09:38:30Z</time></trkpt><trkpt lat="38.07466426413112" lon="15.74173509946833"><ele>719.0</ele><time>2026-04-14T09:38:31Z</time></trkpt><trkpt lat="38.07463624311072" lon="15.74164436186882"><ele>717.3333333333334</ele><time>2026-04-14T09:38:32Z</time></trkpt><trkpt lat="38.074604001546824" lon="15.741556347016383"><ele>715.6666666666666</ele><time>2026-04-14T09:38:33Z</time></trkpt><trkpt lat="38.074566564861456" lon="15.741460603693165"><ele>714.0</ele><time>2026-04-14T09:38:34Z</time></trkpt><trkpt lat="38.0745169246748" lon="15.741363373082118"><ele>714.0</ele><time>2026-04-14T09:38:35Z</time></trkpt><trkpt lat="38.074453474578576" lon="15.741257577009893"><ele>714.0</ele><time>2026-04-14T09:38:36Z</time></trkpt><trkpt lat="38.074389126071964" lon="15.741165333309162"><ele>714.0</ele><time>2026-04-14T09:38:37Z</time></trkpt><trkpt lat="38.07433592970823" lon="15.741102641907858"><ele>714.0</ele><time>2026-04-14T09:38:38Z</time></trkpt><trkpt lat="38.074275224754636" lon="15.74105835235161"><ele>714.0</ele><time>2026-04-14T09:38:39Z</time></trkpt><trkpt lat="38.07418194925779" lon="15.741066654407138"><ele>714.0</ele><time>2026-04-14T09:38:40Z</time></trkpt><trkpt lat="38.074101349911686" lon="15.741053760402094"><ele>719.8333333333334</ele><time>2026-04-14T09:38:41Z</time></trkpt><trkpt lat="38.07401077517054" lon="15.741034321623921"><ele>725.6666666666666</ele><time>2026-04-14T09:38:42Z</time></trkpt><trkpt lat="38.07392291844383" lon="15.740999847608919"><ele>731.5</ele><time>2026-04-14T09:38:43Z</time></trkpt><trkpt lat="38.07384911107536" lon="15.740963030642014"><ele>737.3333333333333</ele><time>2026-04-14T09:38:44Z</time></trkpt><trkpt lat="38.073795100945894" lon="15.740915835767135"><ele>743.1666666666666</ele><time>2026-04-14T09:38:45Z</time></trkpt><trkpt lat="38.07375211972109" lon="15.740775231775475"><ele>749.0</ele><time>2026-04-14T09:38:47Z</time></trkpt><trkpt lat="38.07374873820405" lon="15.740669995715455"><ele>749.0</ele><time>2026-04-14T09:38:48Z</time></trkpt><trkpt lat="38.073746665133164" lon="15.740558972436757"><ele>749.0</ele><time>2026-04-14T09:38:49Z</time></trkpt><trkpt lat="38.07377942706977" lon="15.74046365292893"><ele>749.0</ele><time>2026-04-14T09:38:50Z</time></trkpt><trkpt lat="38.07382847780754" lon="15.74035008618572"><ele>749.0</ele><time>2026-04-14T09:38:51Z</time></trkpt><trkpt lat="38.07387975813568" lon="15.740247650888476"><ele>749.0</ele><time>2026-04-14T09:38:52Z</time></trkpt><trkpt lat="38.07390562233497" lon="15.740172854341278"><ele>749.0</ele><time>2026-04-14T09:38:53Z</time></trkpt><trkpt lat="38.07390853737777" lon="15.740087079806202"><ele>750.25</ele><time>2026-04-14T09:38:54Z</time></trkpt><trkpt lat="38.07389594219678" lon="15.739955964530411"><ele>751.5</ele><time>2026-04-14T09:38:55Z</time></trkpt><trkpt lat="38.07389664602053" lon="15.739798286247618"><ele>752.75</ele><time>2026-04-14T09:38:56Z</time></trkpt><trkpt lat="38.07389854743352" lon="15.73963472338726"><ele>754.0</ele><time>2026-04-14T09:38:57Z</time></trkpt><trkpt lat="38.07388446298407" lon="15.739500658459557"><ele>754.6</ele><time>2026-04-14T09:38:57.999Z</time></trkpt><trkpt lat="38.073861332316866" lon="15.739364701478666"><ele>755.2</ele><time>2026-04-14T09:38:58.999Z</time></trkpt><trkpt lat="38.073877007091845" lon="15.739234025070449"><ele>755.8000000000001</ele><time>2026-04-14T09:38:59.999Z</time></trkpt><trkpt lat="38.073939234792945" lon="15.739134246583992"><ele>756.4000000000001</ele><time>2026-04-14T09:39:00.999Z</time></trkpt><trkpt lat="38.073968945257505" lon="15.739030066311976"><ele>757.0</ele><time>2026-04-14T09:39:01.999Z</time></trkpt><trkpt lat="38.073980500677145" lon="15.73893994659992"><ele>757.0</ele><time>2026-04-14T09:39:02.999Z</time></trkpt><trkpt lat="38.07397468963184" lon="15.738828816961755"><ele>757.0</ele><time>2026-04-14T09:39:04Z</time></trkpt><trkpt lat="38.07397362055757" lon="15.738694036085192"><ele>757.0</ele><time>2026-04-14T09:39:05Z</time></trkpt><trkpt lat="38.07397316419489" lon="15.73857476506996"><ele>757.0</ele><time>2026-04-14T09:39:06Z</time></trkpt><trkpt lat="38.07395752526431" lon="15.738471090222026"><ele>757.0</ele><time>2026-04-14T09:39:07Z</time></trkpt><trkpt lat="38.07391989759236" lon="15.738379955453206"><ele>756.0</ele><time>2026-04-14T09:39:08Z</time></trkpt><trkpt lat="38.07388074510538" lon="15.738290767590463"><ele>755.0</ele><time>2026-04-14T09:39:09Z</time></trkpt><trkpt lat="38.073830737982746" lon="15.738192379873482"><ele>754.0</ele><time>2026-04-14T09:39:10Z</time></trkpt><trkpt lat="38.073803992957764" lon="15.738103092489439"><ele>753.0</ele><time>2026-04-14T09:39:11Z</time></trkpt><trkpt lat="38.07381530422262" lon="15.737990471653275"><ele>752.0</ele><time>2026-04-14T09:39:12Z</time></trkpt><trkpt lat="38.07383230284516" lon="15.737866568981186"><ele>751.0</ele><time>2026-04-14T09:39:13Z</time></trkpt><trkpt lat="38.07384547588249" lon="15.737725580447616"><ele>747.5999999999999</ele><time>2026-04-14T09:39:14Z</time></trkpt><trkpt lat="38.073840568379744" lon="15.737607429967223"><ele>744.2</ele><time>2026-04-14T09:39:15Z</time></trkpt><trkpt lat="38.073840520583275" lon="15.737483199770994"><ele>740.8</ele><time>2026-04-14T09:39:16Z</time></trkpt><trkpt lat="38.07379630949516" lon="15.73737019626532"><ele>737.4000000000001</ele><time>2026-04-14T09:39:17Z</time></trkpt><trkpt lat="38.073746081650214" lon="15.737272168311307"><ele>734.0</ele><time>2026-04-14T09:39:18Z</time></trkpt><trkpt lat="38.07365615576132" lon="15.737230579743201"><ele>734.0</ele><time>2026-04-14T09:39:19Z</time></trkpt><trkpt lat="38.07356707566309" lon="15.737206348417166"><ele>734.0</ele><time>2026-04-14T09:39:20Z</time></trkpt><trkpt lat="38.07345967404684" lon="15.737189824583723"><ele>734.0</ele><time>2026-04-14T09:39:21Z</time></trkpt><trkpt lat="38.07336995623667" lon="15.737226741207689"><ele>734.0</ele><time>2026-04-14T09:39:22Z</time></trkpt><trkpt lat="38.07327337751749" lon="15.7372365366035"><ele>734.0</ele><time>2026-04-14T09:39:23Z</time></trkpt><trkpt lat="38.073188028520015" lon="15.73725616884935"><ele>737.1666666666666</ele><time>2026-04-14T09:39:24Z</time></trkpt><trkpt lat="38.0731062960478" lon="15.737212793845158"><ele>740.3333333333333</ele><time>2026-04-14T09:39:26Z</time></trkpt><trkpt lat="38.07303680302985" lon="15.737115601509423"><ele>743.5</ele><time>2026-04-14T09:39:28Z</time></trkpt><trkpt lat="38.073030684598905" lon="15.736989370282771"><ele>746.6666666666666</ele><time>2026-04-14T09:39:30Z</time></trkpt><trkpt lat="38.073036717049504" lon="15.736906060278093"><ele>749.8333333333334</ele><time>2026-04-14T09:39:31Z</time></trkpt><trkpt lat="38.07304833228356" lon="15.736817828252919"><ele>753.0</ele><time>2026-04-14T09:39:32Z</time></trkpt><trkpt lat="38.0730655754272" lon="15.736720678166227"><ele>753.0</ele><time>2026-04-14T09:39:33Z</time></trkpt><trkpt lat="38.07308965127454" lon="15.736620991196315"><ele>753.0</ele><time>2026-04-14T09:39:34Z</time></trkpt><trkpt lat="38.073110389583185" lon="15.736536070141032"><ele>753.0</ele><time>2026-04-14T09:39:35Z</time></trkpt><trkpt lat="38.07312382309331" lon="15.736455683285069"><ele>753.0</ele><time>2026-04-14T09:39:36Z</time></trkpt><trkpt lat="38.07314041067934" lon="15.736370946762738"><ele>753.0</ele><time>2026-04-14T09:39:37Z</time></trkpt><trkpt lat="38.07320631645837" lon="15.736325457987393"><ele>753.0</ele><time>2026-04-14T09:39:38Z</time></trkpt><trkpt lat="38.073242732849494" lon="15.736246978076181"><ele>753.0</ele><time>2026-04-14T09:39:39Z</time></trkpt><trkpt lat="38.073292750740755" lon="15.736182684105556"><ele>753.0</ele><time>2026-04-14T09:39:40Z</time></trkpt><trkpt lat="38.07334208692219" lon="15.736118976428157"><ele>753.0</ele><time>2026-04-14T09:39:41Z</time></trkpt><trkpt lat="38.07337197162929" lon="15.736032806629424"><ele>753.0</ele><time>2026-04-14T09:39:43Z</time></trkpt><trkpt lat="38.073289757469006" lon="15.735953177983752"><ele>753.0</ele><time>2026-04-14T09:39:54Z</time></trkpt><trkpt lat="38.07318524398989" lon="15.736026238615743"><ele>753.0</ele><time>2026-04-14T09:39:56Z</time></trkpt><trkpt lat="38.07307977979927" lon="15.736110863816041"><ele>753.0</ele><time>2026-04-14T09:39:58Z</time></trkpt><trkpt lat="38.07301525720349" lon="15.73610283918348"><ele>753.0</ele><time>2026-04-14T09:39:59Z</time></trkpt><trkpt lat="38.07294958540742" lon="15.73611657349255"><ele>753.0</ele><time>2026-04-14T09:40:00Z</time></trkpt><trkpt lat="38.07287937379029" lon="15.736131235054671"><ele>753.0</ele><time>2026-04-14T09:40:01Z</time></trkpt><trkpt lat="38.07275616382506" lon="15.736170390511317"><ele>753.0</ele><time>2026-04-14T09:40:03Z</time></trkpt><trkpt lat="38.072677007319754" lon="15.736197569988548"><ele>753.0</ele><time>2026-04-14T09:40:04Z</time></trkpt><trkpt lat="38.072605542292315" lon="15.736210527849796"><ele>753.0</ele><time>2026-04-14T09:40:05Z</time></trkpt><trkpt lat="38.07252664062431" lon="15.736217863868784"><ele>753.0</ele><time>2026-04-14T09:40:06Z</time></trkpt><trkpt lat="38.072452410421654" lon="15.736237206774657"><ele>753.0</ele><time>2026-04-14T09:40:07Z</time></trkpt><trkpt lat="38.072364028824" lon="15.736267118903823"><ele>753.0</ele><time>2026-04-14T09:40:08Z</time></trkpt><trkpt lat="38.07227013929886" lon="15.736323901021464"><ele>753.0</ele><time>2026-04-14T09:40:09Z</time></trkpt><trkpt lat="38.072144317439694" lon="15.736348336253174"><ele>756.75</ele><time>2026-04-14T09:40:10Z</time></trkpt><trkpt lat="38.07202228452455" lon="15.736362858608908"><ele>760.5</ele><time>2026-04-14T09:40:11Z</time></trkpt><trkpt lat="38.07187852792909" lon="15.736380482923522"><ele>764.25</ele><time>2026-04-14T09:40:12Z</time></trkpt><trkpt lat="38.07171398635128" lon="15.736395115254592"><ele>768.0</ele><time>2026-04-14T09:40:13Z</time></trkpt><trkpt lat="38.071588766603085" lon="15.736393532924689"><ele>770.0</ele><time>2026-04-14T09:40:14Z</time></trkpt><trkpt lat="38.071490099633685" lon="15.736373671211426"><ele>772.0</ele><time>2026-04-14T09:40:15Z</time></trkpt><trkpt lat="38.07138763264351" lon="15.736357716550208"><ele>774.0</ele><time>2026-04-14T09:40:16Z</time></trkpt><trkpt lat="38.07128668677263" lon="15.736345949756346"><ele>776.0</ele><time>2026-04-14T09:40:17Z</time></trkpt><trkpt lat="38.07116254470276" lon="15.736355273987547"><ele>778.0</ele><time>2026-04-14T09:40:18Z</time></trkpt><trkpt lat="38.07103561202312" lon="15.736328217222313"><ele>778.0</ele><time>2026-04-14T09:40:19Z</time></trkpt><trkpt lat="38.07094643094538" lon="15.736317361660005"><ele>778.0</ele><time>2026-04-14T09:40:20Z</time></trkpt><trkpt lat="38.07083831342429" lon="15.736258979680818"><ele>778.0</ele><time>2026-04-14T09:40:21.999Z</time></trkpt><trkpt lat="38.07078083861676" lon="15.736184223478016"><ele>778.0</ele><time>2026-04-14T09:40:22.999Z</time></trkpt><trkpt lat="38.070703765640886" lon="15.736135617027033"><ele>778.0</ele><time>2026-04-14T09:40:23.999Z</time></trkpt><trkpt lat="38.07061656329918" lon="15.736131565017377"><ele>779.4</ele><time>2026-04-14T09:40:24.999Z</time></trkpt><trkpt lat="38.07053565626989" lon="15.736140976711349"><ele>780.8</ele><time>2026-04-14T09:40:25.999Z</time></trkpt><trkpt lat="38.07046377358059" lon="15.736164418754356"><ele>782.2</ele><time>2026-04-14T09:40:26.999Z</time></trkpt><trkpt lat="38.07039719523278" lon="15.736149572812"><ele>783.6</ele><time>2026-04-14T09:40:27.999Z</time></trkpt><trkpt lat="38.07031089768023" lon="15.736015349657864"><ele>785.0</ele><time>2026-04-14T09:40:29.999Z</time></trkpt><trkpt lat="38.07023594922693" lon="15.735942015020239"><ele>785.0</ele><time>2026-04-14T09:40:30.999Z</time></trkpt><trkpt lat="38.07017382969902" lon="15.735894049926012"><ele>785.0</ele><time>2026-04-14T09:40:31.999Z</time></trkpt><trkpt lat="38.07012878869845" lon="15.73574912054746"><ele>785.0</ele><time>2026-04-14T09:40:33.999Z</time></trkpt><trkpt lat="38.07014135591961" lon="15.7356387043058"><ele>785.0</ele><time>2026-04-14T09:40:34.999Z</time></trkpt><trkpt lat="38.070127872219786" lon="15.735495904525276"><ele>785.0</ele><time>2026-04-14T09:40:35.999Z</time></trkpt><trkpt lat="38.070073917973424" lon="15.73536409284547"><ele>785.0000000000001</ele><time>2026-04-14T09:40:36.999Z</time></trkpt><trkpt lat="38.070075953894786" lon="15.73525859572719"><ele>785.0</ele><time>2026-04-14T09:40:37.999Z</time></trkpt><trkpt lat="38.07008211332662" lon="15.73514992278849"><ele>785.0</ele><time>2026-04-14T09:40:38.999Z</time></trkpt><trkpt lat="38.07012518261295" lon="15.735033890174536"><ele>785.0</ele><time>2026-04-14T09:40:39.999Z</time></trkpt><trkpt lat="38.070131308695984" lon="15.734947834378273"><ele>785.0000000000001</ele><time>2026-04-14T09:40:40.999Z</time></trkpt><trkpt lat="38.070089321291235" lon="15.73487685876466"><ele>785.0</ele><time>2026-04-14T09:40:41.999Z</time></trkpt><trkpt lat="38.07007384067802" lon="15.734799104796133"><ele>784.2</ele><time>2026-04-14T09:40:42.999Z</time></trkpt><trkpt lat="38.07015467264146" lon="15.734648987320703"><ele>783.4</ele><time>2026-04-14T09:40:44.999Z</time></trkpt><trkpt lat="38.07018309783192" lon="15.734556030620709"><ele>782.5999999999999</ele><time>2026-04-14T09:40:45.999Z</time></trkpt><trkpt lat="38.070158506403715" lon="15.734420999927066"><ele>781.8</ele><time>2026-04-14T09:40:46.999Z</time></trkpt><trkpt lat="38.07017960494651" lon="15.734283144574103"><ele>781.0</ele><time>2026-04-14T09:40:47.999Z</time></trkpt><trkpt lat="38.070232097359884" lon="15.734187202333919"><ele>783.5999999999999</ele><time>2026-04-14T09:40:48.999Z</time></trkpt><trkpt lat="38.07026794667077" lon="15.734076914534285"><ele>786.2</ele><time>2026-04-14T09:40:49.999Z</time></trkpt><trkpt lat="38.070309739666314" lon="15.733948341960424"><ele>788.8</ele><time>2026-04-14T09:40:50.999Z</time></trkpt><trkpt lat="38.07041790238711" lon="15.733888579524919"><ele>791.4000000000001</ele><time>2026-04-14T09:40:51.999Z</time></trkpt><trkpt lat="38.07048254365616" lon="15.73379910091058"><ele>794.0</ele><time>2026-04-14T09:40:52.999Z</time></trkpt><trkpt lat="38.070511081641186" lon="15.733627632892278"><ele>794.3333333333334</ele><time>2026-04-14T09:40:53.999Z</time></trkpt><trkpt lat="38.07055934202637" lon="15.733525412820205"><ele>794.6666666666667</ele><time>2026-04-14T09:40:54.999Z</time></trkpt><trkpt lat="38.07059507081684" lon="15.733437127324278"><ele>795.0</ele><time>2026-04-14T09:40:55.999Z</time></trkpt><trkpt lat="38.070591964670044" lon="15.73334408529905"><ele>795.3333333333333</ele><time>2026-04-14T09:40:56.999Z</time></trkpt><trkpt lat="38.07055768099273" lon="15.73325255436407"><ele>795.6666666666666</ele><time>2026-04-14T09:40:57.999Z</time></trkpt><trkpt lat="38.07049692183776" lon="15.733162864081494"><ele>796.0</ele><time>2026-04-14T09:40:58.999Z</time></trkpt><trkpt lat="38.07042081865306" lon="15.73308820025372"><ele>796.0</ele><time>2026-04-14T09:40:59.999Z</time></trkpt><trkpt lat="38.07032925183294" lon="15.733049488664776"><ele>796.0</ele><time>2026-04-14T09:41:00.999Z</time></trkpt><trkpt lat="38.07022927475253" lon="15.733046583920213"><ele>796.0</ele><time>2026-04-14T09:41:01.999Z</time></trkpt><trkpt lat="38.070128387498684" lon="15.733054553004063"><ele>796.0</ele><time>2026-04-14T09:41:02.999Z</time></trkpt><trkpt lat="38.070041572453206" lon="15.732990778278014"><ele>796.0</ele><time>2026-04-14T09:41:03.999Z</time></trkpt><trkpt lat="38.06996629037784" lon="15.732899371229081"><ele>800.8</ele><time>2026-04-14T09:41:04.999Z</time></trkpt><trkpt lat="38.06989395612866" lon="15.732804035993352"><ele>805.5999999999999</ele><time>2026-04-14T09:41:05.999Z</time></trkpt><trkpt lat="38.06980896401594" lon="15.732707689745373"><ele>810.4</ele><time>2026-04-14T09:41:06.999Z</time></trkpt><trkpt lat="38.06972889826902" lon="15.732618353286478"><ele>815.2</ele><time>2026-04-14T09:41:07.999Z</time></trkpt><trkpt lat="38.069649368980706" lon="15.73253605820577"><ele>820.0</ele><time>2026-04-14T09:41:08.999Z</time></trkpt><trkpt lat="38.06955042108425" lon="15.73248026735071"><ele>820.0</ele><time>2026-04-14T09:41:10Z</time></trkpt><trkpt lat="38.069464177321294" lon="15.73247808308812"><ele>820.0</ele><time>2026-04-14T09:41:11Z</time></trkpt><trkpt lat="38.06940255916878" lon="15.732369359282599"><ele>820.0</ele><time>2026-04-14T09:41:13Z</time></trkpt><trkpt lat="38.06946630526046" lon="15.732219761760986"><ele>820.0</ele><time>2026-04-14T09:41:15Z</time></trkpt><trkpt lat="38.06953789283407" lon="15.732147317047701"><ele>820.0</ele><time>2026-04-14T09:41:16Z</time></trkpt><trkpt lat="38.06962550330836" lon="15.732066869288976"><ele>820.0</ele><time>2026-04-14T09:41:17Z</time></trkpt><trkpt lat="38.06971020178569" lon="15.731978299365567"><ele>820.0</ele><time>2026-04-14T09:41:18Z</time></trkpt><trkpt lat="38.06977734413925" lon="15.73187674282378"><ele>820.0</ele><time>2026-04-14T09:41:19Z</time></trkpt><trkpt lat="38.06981760533529" lon="15.73176720462679"><ele>820.0</ele><time>2026-04-14T09:41:20Z</time></trkpt><trkpt lat="38.06981969645283" lon="15.731653843172055"><ele>820.0</ele><time>2026-04-14T09:41:21Z</time></trkpt><trkpt lat="38.069784903660285" lon="15.7315553236267"><ele>817.2</ele><time>2026-04-14T09:41:22Z</time></trkpt><trkpt lat="38.06971317123001" lon="15.73147259865317"><ele>814.4</ele><time>2026-04-14T09:41:23Z</time></trkpt><trkpt lat="38.06963428254714" lon="15.731412400054449"><ele>811.5999999999999</ele><time>2026-04-14T09:41:24Z</time></trkpt><trkpt lat="38.06955001026067" lon="15.731381329537134"><ele>808.8</ele><time>2026-04-14T09:41:25Z</time></trkpt><trkpt lat="38.06945551740388" lon="15.731375826677489"><ele>806.0</ele><time>2026-04-14T09:41:26Z</time></trkpt><trkpt lat="38.069349457772596" lon="15.731383428770744"><ele>806.0</ele><time>2026-04-14T09:41:27Z</time></trkpt><trkpt lat="38.069239904677204" lon="15.731377222108385"><ele>806.0</ele><time>2026-04-14T09:41:28Z</time></trkpt><trkpt lat="38.06912740938069" lon="15.731375508030872"><ele>806.0</ele><time>2026-04-14T09:41:29Z</time></trkpt><trkpt lat="38.06901084523538" lon="15.73136400066804"><ele>806.0</ele><time>2026-04-14T09:41:30Z</time></trkpt><trkpt lat="38.06891026909828" lon="15.731303160159175"><ele>805.75</ele><time>2026-04-14T09:41:31Z</time></trkpt><trkpt lat="38.06881877496001" lon="15.731226274714933"><ele>805.5</ele><time>2026-04-14T09:41:32Z</time></trkpt><trkpt lat="38.06869773943359" lon="15.731127729671211"><ele>805.25</ele><time>2026-04-14T09:41:33Z</time></trkpt><trkpt lat="38.06858208635869" lon="15.73103783968274"><ele>805.0</ele><time>2026-04-14T09:41:34Z</time></trkpt><trkpt lat="38.06848162439564" lon="15.730941895067089"><ele>805.0</ele><time>2026-04-14T09:41:35Z</time></trkpt><trkpt lat="38.06840283656493" lon="15.730839193145687"><ele>805.0</ele><time>2026-04-14T09:41:36Z</time></trkpt><trkpt lat="38.06833275805018" lon="15.730745551582414"><ele>805.0</ele><time>2026-04-14T09:41:37Z</time></trkpt><trkpt lat="38.068251927203406" lon="15.730676375053127"><ele>805.0</ele><time>2026-04-14T09:41:38Z</time></trkpt><trkpt lat="38.06816697103567" lon="15.730627055669618"><ele>805.0</ele><time>2026-04-14T09:41:39Z</time></trkpt><trkpt lat="38.0680829936807" lon="15.730576597021448"><ele>806.2</ele><time>2026-04-14T09:41:40Z</time></trkpt><trkpt lat="38.06800866576813" lon="15.7305037643261"><ele>807.4</ele><time>2026-04-14T09:41:41Z</time></trkpt><trkpt lat="38.067948215765206" lon="15.730403085098613"><ele>808.5999999999999</ele><time>2026-04-14T09:41:42Z</time></trkpt><trkpt lat="38.06790910537799" lon="15.73029045670925"><ele>809.8</ele><time>2026-04-14T09:41:43Z</time></trkpt><trkpt lat="38.06789205009375" lon="15.73016433501781"><ele>811.0</ele><time>2026-04-14T09:41:44Z</time></trkpt><trkpt lat="38.067861047454144" lon="15.73002662703657"><ele>811.1999999999999</ele><time>2026-04-14T09:41:45Z</time></trkpt><trkpt lat="38.067807705979064" lon="15.729893510906125"><ele>811.4</ele><time>2026-04-14T09:41:46Z</time></trkpt><trkpt lat="38.06774536413545" lon="15.72977405177151"><ele>811.6</ele><time>2026-04-14T09:41:47Z</time></trkpt><trkpt lat="38.067687882687636" lon="15.72966529897444"><ele>811.8</ele><time>2026-04-14T09:41:48Z</time></trkpt><trkpt lat="38.06762952690451" lon="15.729574161818494"><ele>812.0</ele><time>2026-04-14T09:41:49Z</time></trkpt><trkpt lat="38.06754574696807" lon="15.729547793025565"><ele>812.0</ele><time>2026-04-14T09:41:50Z</time></trkpt><trkpt lat="38.06747641786168" lon="15.729543893931789"><ele>812.0</ele><time>2026-04-14T09:41:51Z</time></trkpt><trkpt lat="38.06738647439736" lon="15.72958278724525"><ele>812.0</ele><time>2026-04-14T09:41:52Z</time></trkpt><trkpt lat="38.06729573843373" lon="15.729644046072302"><ele>812.0</ele><time>2026-04-14T09:41:53Z</time></trkpt><trkpt lat="38.06721131552425" lon="15.729724961401168"><ele>812.0</ele><time>2026-04-14T09:41:54Z</time></trkpt><trkpt lat="38.06716318952025" lon="15.7298182419302"><ele>807.6</ele><time>2026-04-14T09:41:55Z</time></trkpt><trkpt lat="38.06715757072423" lon="15.729919289190699"><ele>803.2</ele><time>2026-04-14T09:41:56Z</time></trkpt><trkpt lat="38.067181008817045" lon="15.730037401374297"><ele>798.8</ele><time>2026-04-14T09:41:57Z</time></trkpt><trkpt lat="38.06721993666217" lon="15.730169260250134"><ele>794.4</ele><time>2026-04-14T09:41:58Z</time></trkpt><trkpt lat="38.067258898802386" lon="15.73029731296814"><ele>790.0</ele><time>2026-04-14T09:41:59Z</time></trkpt><trkpt lat="38.06730791293207" lon="15.730403051813566"><ele>795.25</ele><time>2026-04-14T09:42:00Z</time></trkpt><trkpt lat="38.067385991515174" lon="15.730475702598918"><ele>800.5</ele><time>2026-04-14T09:42:01Z</time></trkpt><trkpt lat="38.06749259224533" lon="15.730533027890052"><ele>805.75</ele><time>2026-04-14T09:42:02Z</time></trkpt><trkpt lat="38.06761975681796" lon="15.730612944567557"><ele>811.0</ele><time>2026-04-14T09:42:03Z</time></trkpt><trkpt lat="38.06776060055814" lon="15.730739959622863"><ele>811.0</ele><time>2026-04-14T09:42:04Z</time></trkpt><trkpt lat="38.0678998300591" lon="15.730861887190592"><ele>811.0</ele><time>2026-04-14T09:42:05Z</time></trkpt><trkpt lat="38.06801289508616" lon="15.730955390021467"><ele>811.0</ele><time>2026-04-14T09:42:06Z</time></trkpt><trkpt lat="38.06809728580629" lon="15.731057424504744"><ele>811.0</ele><time>2026-04-14T09:42:07Z</time></trkpt><trkpt lat="38.06816743396632" lon="15.73118372221786"><ele>814.5</ele><time>2026-04-14T09:42:08Z</time></trkpt><trkpt lat="38.06823454662292" lon="15.731322627189916"><ele>818.0</ele><time>2026-04-14T09:42:09Z</time></trkpt><trkpt lat="38.06829847287656" lon="15.731463371496156"><ele>821.5</ele><time>2026-04-14T09:42:10Z</time></trkpt><trkpt lat="38.06835232886823" lon="15.731605788372635"><ele>825.0</ele><time>2026-04-14T09:42:11Z</time></trkpt><trkpt lat="38.06838553843961" lon="15.731743943025055"><ele>825.0</ele><time>2026-04-14T09:42:12Z</time></trkpt><trkpt lat="38.068392122784054" lon="15.731879306750782"><ele>825.0</ele><time>2026-04-14T09:42:13Z</time></trkpt><trkpt lat="38.068376376927034" lon="15.732012617379587"><ele>825.0</ele><time>2026-04-14T09:42:14Z</time></trkpt><trkpt lat="38.06837795225713" lon="15.732193918405951"><ele>825.0</ele><time>2026-04-14T09:42:15Z</time></trkpt><trkpt lat="38.068389146610535" lon="15.732351855650947"><ele>826.25</ele><time>2026-04-14T09:42:16Z</time></trkpt><trkpt lat="38.06841663092418" lon="15.73250470396137"><ele>827.5</ele><time>2026-04-14T09:42:17Z</time></trkpt><trkpt lat="38.06844560350556" lon="15.732648153213553"><ele>828.75</ele><time>2026-04-14T09:42:18Z</time></trkpt><trkpt lat="38.06849079005768" lon="15.73278151448065"><ele>830.0</ele><time>2026-04-14T09:42:19Z</time></trkpt><trkpt lat="38.068556646785844" lon="15.732901989913207"><ele>834.5</ele><time>2026-04-14T09:42:20Z</time></trkpt><trkpt lat="38.06863247765782" lon="15.733014032717985"><ele>839.0</ele><time>2026-04-14T09:42:20.999Z</time></trkpt><trkpt lat="38.06870888743072" lon="15.733129400206977"><ele>843.5</ele><time>2026-04-14T09:42:21.999Z</time></trkpt><trkpt lat="38.06877847568058" lon="15.733251332839336"><ele>848.0</ele><time>2026-04-14T09:42:22.999Z</time></trkpt><trkpt lat="38.06883922496686" lon="15.733349486355358"><ele>848.0000000000001</ele><time>2026-04-14T09:42:23.999Z</time></trkpt><trkpt lat="38.06888631576832" lon="15.733409766050087"><ele>848.0</ele><time>2026-04-14T09:42:24.999Z</time></trkpt><trkpt lat="38.06897134923383" lon="15.733468296757353"><ele>848.0</ele><time>2026-04-14T09:43:17.001Z</time></trkpt><trkpt lat="38.06907100052871" lon="15.733553087781454"><ele>848.0</ele><time>2026-04-14T09:43:19.001Z</time></trkpt><trkpt lat="38.0691289635659" lon="15.733602197740874"><ele>848.0000000000001</ele><time>2026-04-14T09:43:20.001Z</time></trkpt><trkpt lat="38.069173447641255" lon="15.733661240310589"><ele>848.0</ele><time>2026-04-14T09:43:21.001Z</time></trkpt><trkpt lat="38.069186059677584" lon="15.733745213540574"><ele>848.0</ele><time>2026-04-14T09:43:23.001Z</time></trkpt><trkpt lat="38.06913822025216" lon="15.733571542278158"><ele>848.0</ele><time>2026-04-14T09:51:57.999Z</time></trkpt><trkpt lat="38.06906911421946" lon="15.733511108862198"><ele>848.0</ele><time>2026-04-14T09:51:58.999Z</time></trkpt><trkpt lat="38.0689986006898" lon="15.733450520855616"><ele>848.0</ele><time>2026-04-14T09:51:59.999Z</time></trkpt><trkpt lat="38.06894005860139" lon="15.733399496334302"><ele>848.0</ele><time>2026-04-14T09:52:00.999Z</time></trkpt><trkpt lat="38.06888755340956" lon="15.733351225517035"><ele>848.0</ele><time>2026-04-14T09:52:01.999Z</time></trkpt><trkpt lat="38.06882673731842" lon="15.733264962846128"><ele>848.0</ele><time>2026-04-14T09:52:03.999Z</time></trkpt><trkpt lat="38.06876702399783" lon="15.733143881747193"><ele>848.0</ele><time>2026-04-14T09:52:05.999Z</time></trkpt><trkpt lat="38.06868322108558" lon="15.733056584696406"><ele>848.0</ele><time>2026-04-14T09:52:07.999Z</time></trkpt><trkpt lat="38.06842618994726" lon="15.73348996663128"><ele>850.7142857142858</ele><time>2026-04-14T09:52:10.999Z</time></trkpt><trkpt lat="38.06842839555874" lon="15.733582441025243"><ele>853.4285714285713</ele><time>2026-04-14T09:52:11.999Z</time></trkpt><trkpt lat="38.06841548013124" lon="15.73367055104788"><ele>856.1428571428571</ele><time>2026-04-14T09:52:12.999Z</time></trkpt><trkpt lat="38.06841321006976" lon="15.733765299588839"><ele>858.8571428571429</ele><time>2026-04-14T09:52:13.999Z</time></trkpt><trkpt lat="38.068409047035374" lon="15.733856775017776"><ele>861.5714285714287</ele><time>2026-04-14T09:52:14.999Z</time></trkpt><trkpt lat="38.06839025842373" lon="15.733950887546014"><ele>864.2857142857142</ele><time>2026-04-14T09:52:15.999Z</time></trkpt><trkpt lat="38.06836957591708" lon="15.734042931395717"><ele>867.0</ele><time>2026-04-14T09:52:16.999Z</time></trkpt><trkpt lat="38.068344299943476" lon="15.734136386485249"><ele>867.0</ele><time>2026-04-14T09:52:17.999Z</time></trkpt><trkpt lat="38.06831457162895" lon="15.734234083440338"><ele>867.0</ele><time>2026-04-14T09:52:18.999Z</time></trkpt><trkpt lat="38.06828130308996" lon="15.7343294920759"><ele>867.0</ele><time>2026-04-14T09:52:19.999Z</time></trkpt><trkpt lat="38.06823817026294" lon="15.734420871596413"><ele>867.0</ele><time>2026-04-14T09:52:20.999Z</time></trkpt><trkpt lat="38.06818882900673" lon="15.73451344500219"><ele>867.0</ele><time>2026-04-14T09:52:21.999Z</time></trkpt><trkpt lat="38.06813197640371" lon="15.734593430930884"><ele>867.0</ele><time>2026-04-14T09:52:22.999Z</time></trkpt><trkpt lat="38.06806967449139" lon="15.734652496292428"><ele>867.6666666666666</ele><time>2026-04-14T09:52:23.999Z</time></trkpt><trkpt lat="38.06800099457473" lon="15.734674683123625"><ele>868.3333333333333</ele><time>2026-04-14T09:52:24.999Z</time></trkpt><trkpt lat="38.06791607772522" lon="15.734672989936985"><ele>869.0</ele><time>2026-04-14T09:52:25.999Z</time></trkpt><trkpt lat="38.06782753281792" lon="15.734689810153455"><ele>869.6666666666666</ele><time>2026-04-14T09:52:26.999Z</time></trkpt><trkpt lat="38.067744335807326" lon="15.734727639948549"><ele>870.3333333333333</ele><time>2026-04-14T09:52:27.999Z</time></trkpt><trkpt lat="38.0676698370975" lon="15.734783553545716"><ele>871.0</ele><time>2026-04-14T09:52:28.999Z</time></trkpt><trkpt lat="38.06760656990668" lon="15.734856768288386"><ele>870.9999999999999</ele><time>2026-04-14T09:52:29.999Z</time></trkpt><trkpt lat="38.06754190881385" lon="15.734936738549706"><ele>871.0</ele><time>2026-04-14T09:52:30.999Z</time></trkpt><trkpt lat="38.06747370773004" lon="15.735015724074401"><ele>871.0</ele><time>2026-04-14T09:52:31.999Z</time></trkpt><trkpt lat="38.06741509166038" lon="15.735101602605049"><ele>871.0</ele><time>2026-04-14T09:52:32.999Z</time></trkpt><trkpt lat="38.06738309959921" lon="15.735203664918501"><ele>870.9999999999999</ele><time>2026-04-14T09:52:33.999Z</time></trkpt><trkpt lat="38.06738043175453" lon="15.735311391845208"><ele>871.0</ele><time>2026-04-14T09:52:34.999Z</time></trkpt><trkpt lat="38.067396330008805" lon="15.73542836987152"><ele>872.5999999999999</ele><time>2026-04-14T09:52:35.999Z</time></trkpt><trkpt lat="38.06741168153323" lon="15.735560861270406"><ele>874.1999999999999</ele><time>2026-04-14T09:52:36.999Z</time></trkpt><trkpt lat="38.067414218130175" lon="15.735701457862813"><ele>875.8000000000001</ele><time>2026-04-14T09:52:37.999Z</time></trkpt><trkpt lat="38.067402456539256" lon="15.735846290497625"><ele>877.4000000000001</ele><time>2026-04-14T09:52:38.999Z</time></trkpt><trkpt lat="38.06739884424627" lon="15.735995456050377"><ele>879.0</ele><time>2026-04-14T09:52:39.999Z</time></trkpt><trkpt lat="38.06740785215121" lon="15.736143732979736"><ele>879.0</ele><time>2026-04-14T09:52:40.999Z</time></trkpt><trkpt lat="38.06740359481089" lon="15.736279858112058"><ele>879.0000000000001</ele><time>2026-04-14T09:52:41.999Z</time></trkpt><trkpt lat="38.067338563351434" lon="15.736396821135509"><ele>879.0000000000001</ele><time>2026-04-14T09:52:42.999Z</time></trkpt><trkpt lat="38.06732659769169" lon="15.736527422444315"><ele>879.0</ele><time>2026-04-14T09:52:43.999Z</time></trkpt><trkpt lat="38.067296849500366" lon="15.736647532185561"><ele>879.0</ele><time>2026-04-14T09:52:44.999Z</time></trkpt><trkpt lat="38.0672690774105" lon="15.736760391883767"><ele>879.0</ele><time>2026-04-14T09:52:45.999Z</time></trkpt><trkpt lat="38.06722363847195" lon="15.736837310785758"><ele>879.0</ele><time>2026-04-14T09:52:46.999Z</time></trkpt><trkpt lat="38.06715507941344" lon="15.736892557114412"><ele>879.0</ele><time>2026-04-14T09:52:47.999Z</time></trkpt><trkpt lat="38.06706957416265" lon="15.736921409262903"><ele>879.0</ele><time>2026-04-14T09:52:48.999Z</time></trkpt><trkpt lat="38.06698028426771" lon="15.736937923046163"><ele>879.0</ele><time>2026-04-14T09:52:49.999Z</time></trkpt><trkpt lat="38.066888699501014" lon="15.736962595688025"><ele>879.0</ele><time>2026-04-14T09:52:50.999Z</time></trkpt><trkpt lat="38.06680325369656" lon="15.737008648017975"><ele>886.8000000000001</ele><time>2026-04-14T09:52:51.999Z</time></trkpt><trkpt lat="38.066723762187024" lon="15.737075759304016"><ele>894.6000000000001</ele><time>2026-04-14T09:52:52.999Z</time></trkpt><trkpt lat="38.06665186141481" lon="15.737144351114432"><ele>902.4</ele><time>2026-04-14T09:52:53.999Z</time></trkpt><trkpt lat="38.06656879928137" lon="15.737190050475546"><ele>910.2</ele><time>2026-04-14T09:52:54.999Z</time></trkpt><trkpt lat="38.06647523341209" lon="15.737202431588324"><ele>918.0</ele><time>2026-04-14T09:52:55.999Z</time></trkpt><trkpt lat="38.066379146287524" lon="15.737204792995891"><ele>918.0</ele><time>2026-04-14T09:52:56.999Z</time></trkpt><trkpt lat="38.06629113242362" lon="15.737252480733959"><ele>918.0</ele><time>2026-04-14T09:52:57.999Z</time></trkpt><trkpt lat="38.06621904974949" lon="15.737336372482975"><ele>918.0</ele><time>2026-04-14T09:52:58.999Z</time></trkpt><trkpt lat="38.066132004382915" lon="15.737388873215535"><ele>918.0</ele><time>2026-04-14T09:52:59.999Z</time></trkpt><trkpt lat="38.066047319180925" lon="15.737404081950894"><ele>918.0</ele><time>2026-04-14T09:53:00.999Z</time></trkpt><trkpt lat="38.065967551757915" lon="15.737374342871316"><ele>918.0</ele><time>2026-04-14T09:53:01.999Z</time></trkpt><trkpt lat="38.06591896412307" lon="15.737277596294073"><ele>918.0</ele><time>2026-04-14T09:53:02.999Z</time></trkpt><trkpt lat="38.065856144374195" lon="15.737210035740912"><ele>918.0</ele><time>2026-04-14T09:53:03.999Z</time></trkpt><trkpt lat="38.065779421441476" lon="15.737167842635436"><ele>918.0</ele><time>2026-04-14T09:53:04.999Z</time></trkpt><trkpt lat="38.065690546213986" lon="15.737133211593461"><ele>918.0</ele><time>2026-04-14T09:53:05.999Z</time></trkpt><trkpt lat="38.06559906522367" lon="15.737085262951904"><ele>918.0</ele><time>2026-04-14T09:53:06.999Z</time></trkpt><trkpt lat="38.065501169408336" lon="15.737040420001172"><ele>919.0</ele><time>2026-04-14T09:53:07.999Z</time></trkpt><trkpt lat="38.065404031987484" lon="15.737003984436473"><ele>920.0</ele><time>2026-04-14T09:53:08.999Z</time></trkpt><trkpt lat="38.0653056531615" lon="15.736994384573773"><ele>921.0</ele><time>2026-04-14T09:53:09.999Z</time></trkpt><trkpt lat="38.0652054102909" lon="15.737013345056859"><ele>922.0</ele><time>2026-04-14T09:53:10.999Z</time></trkpt><trkpt lat="38.065100656689225" lon="15.737044276848652"><ele>923.0</ele><time>2026-04-14T09:53:12Z</time></trkpt><trkpt lat="38.06499822012953" lon="15.737072830320411"><ele>917.0000000000001</ele><time>2026-04-14T09:53:13Z</time></trkpt><trkpt lat="38.06489386153673" lon="15.737087900517793"><ele>911.0</ele><time>2026-04-14T09:53:14Z</time></trkpt><trkpt lat="38.06481157219405" lon="15.737126803218505"><ele>905.0</ele><time>2026-04-14T09:53:15Z</time></trkpt><trkpt lat="38.06475991626596" lon="15.737196847493966"><ele>899.0</ele><time>2026-04-14T09:53:16Z</time></trkpt><trkpt lat="38.06473614581256" lon="15.737288408418044"><ele>893.0000000000001</ele><time>2026-04-14T09:53:17Z</time></trkpt><trkpt lat="38.06473460436304" lon="15.737392263462375"><ele>887.0</ele><time>2026-04-14T09:53:18Z</time></trkpt><trkpt lat="38.06474086829514" lon="15.737504270898716"><ele>887.0</ele><time>2026-04-14T09:53:19Z</time></trkpt><trkpt lat="38.064741442349415" lon="15.737620968430436"><ele>887.0</ele><time>2026-04-14T09:53:20Z</time></trkpt><trkpt lat="38.0647278543719" lon="15.737740082409605"><ele>887.0</ele><time>2026-04-14T09:53:21Z</time></trkpt><trkpt lat="38.064702038830966" lon="15.73786104976998"><ele>887.0</ele><time>2026-04-14T09:53:22Z</time></trkpt><trkpt lat="38.0646601551535" lon="15.737961900856064"><ele>887.0</ele><time>2026-04-14T09:53:23Z</time></trkpt><trkpt lat="38.06459936790917" lon="15.738044003291643"><ele>886.3333333333334</ele><time>2026-04-14T09:53:24Z</time></trkpt><trkpt lat="38.064522678775525" lon="15.738100104209481"><ele>885.6666666666667</ele><time>2026-04-14T09:53:25Z</time></trkpt><trkpt lat="38.064439581118116" lon="15.738131658279322"><ele>885.0</ele><time>2026-04-14T09:53:26Z</time></trkpt><trkpt lat="38.064356288426595" lon="15.738160147559222"><ele>884.3333333333333</ele><time>2026-04-14T09:53:27Z</time></trkpt><trkpt lat="38.06426980758776" lon="15.738202285199971"><ele>883.6666666666666</ele><time>2026-04-14T09:53:28Z</time></trkpt><trkpt lat="38.064183198858444" lon="15.73825161961875"><ele>883.0</ele><time>2026-04-14T09:53:29Z</time></trkpt><trkpt lat="38.06410185227262" lon="15.73830590926693"><ele>883.0</ele><time>2026-04-14T09:53:30Z</time></trkpt><trkpt lat="38.06402788428791" lon="15.738370685309159"><ele>883.0</ele><time>2026-04-14T09:53:31Z</time></trkpt><trkpt lat="38.06396543906618" lon="15.738453164293134"><ele>883.0</ele><time>2026-04-14T09:53:32Z</time></trkpt><trkpt lat="38.06392423954793" lon="15.738554856336131"><ele>883.0</ele><time>2026-04-14T09:53:33Z</time></trkpt><trkpt lat="38.0639096620121" lon="15.738664864309657"><ele>883.0</ele><time>2026-04-14T09:53:34Z</time></trkpt><trkpt lat="38.06390890090289" lon="15.738782631425535"><ele>884.8</ele><time>2026-04-14T09:53:35Z</time></trkpt><trkpt lat="38.06389989931625" lon="15.738901942597805"><ele>886.5999999999999</ele><time>2026-04-14T09:53:36Z</time></trkpt><trkpt lat="38.06387041040344" lon="15.73902370932782"><ele>888.4000000000001</ele><time>2026-04-14T09:53:37Z</time></trkpt><trkpt lat="38.06382879287191" lon="15.739137952205184"><ele>890.2</ele><time>2026-04-14T09:53:38Z</time></trkpt><trkpt lat="38.063809901558535" lon="15.739252211798274"><ele>892.0</ele><time>2026-04-14T09:53:39Z</time></trkpt><trkpt lat="38.06381657453665" lon="15.739373438995425"><ele>894.0</ele><time>2026-04-14T09:53:39.999Z</time></trkpt><trkpt lat="38.063845301889515" lon="15.73949195959628"><ele>896.0</ele><time>2026-04-14T09:53:40.999Z</time></trkpt><trkpt lat="38.06387768009752" lon="15.739610231190845"><ele>898.0</ele><time>2026-04-14T09:53:41.999Z</time></trkpt><trkpt lat="38.06389780399036" lon="15.739728051332422"><ele>900.0</ele><time>2026-04-14T09:53:42.999Z</time></trkpt><trkpt lat="38.06389098808076" lon="15.739839532073193"><ele>902.0</ele><time>2026-04-14T09:53:43.999Z</time></trkpt><trkpt lat="38.063866374176655" lon="15.739959944288389"><ele>902.0</ele><time>2026-04-14T09:53:44.999Z</time></trkpt><trkpt lat="38.063837308159655" lon="15.740079400239184"><ele>902.0</ele><time>2026-04-14T09:53:45.999Z</time></trkpt><trkpt lat="38.06380820036162" lon="15.740200875379491"><ele>902.0</ele><time>2026-04-14T09:53:46.999Z</time></trkpt><trkpt lat="38.063770668917094" lon="15.740331994332417"><ele>902.0</ele><time>2026-04-14T09:53:47.999Z</time></trkpt><trkpt lat="38.06372437563997" lon="15.740464481859046"><ele>902.0</ele><time>2026-04-14T09:53:48.999Z</time></trkpt><trkpt lat="38.06367319185326" lon="15.740598045308467"><ele>901.6</ele><time>2026-04-14T09:53:49.999Z</time></trkpt><trkpt lat="38.06361998949911" lon="15.7407279552583"><ele>901.2</ele><time>2026-04-14T09:53:50.999Z</time></trkpt><trkpt lat="38.063570953700804" lon="15.740849309448256"><ele>900.8</ele><time>2026-04-14T09:53:51.999Z</time></trkpt><trkpt lat="38.06353015931331" lon="15.740964254451487"><ele>900.4</ele><time>2026-04-14T09:53:52.999Z</time></trkpt><trkpt lat="38.06351626070764" lon="15.741072549553515"><ele>900.0</ele><time>2026-04-14T09:53:53.999Z</time></trkpt><trkpt lat="38.0635297214451" lon="15.741175980484734"><ele>900.0</ele><time>2026-04-14T09:53:54.999Z</time></trkpt><trkpt lat="38.06357113349695" lon="15.741276602537155"><ele>900.0</ele><time>2026-04-14T09:53:55.999Z</time></trkpt><trkpt lat="38.06362309514428" lon="15.741383134082922"><ele>900.0</ele><time>2026-04-14T09:53:56.999Z</time></trkpt><trkpt lat="38.06365408899721" lon="15.741494345145272"><ele>900.0</ele><time>2026-04-14T09:53:57.999Z</time></trkpt><trkpt lat="38.06365208600881" lon="15.741624364929969"><ele>900.0</ele><time>2026-04-14T09:53:58.999Z</time></trkpt><trkpt lat="38.063631589091884" lon="15.741762681025875"><ele>900.25</ele><time>2026-04-14T09:53:59.999Z</time></trkpt><trkpt lat="38.0636070677491" lon="15.741907402638745"><ele>900.5</ele><time>2026-04-14T09:54:00.999Z</time></trkpt><trkpt lat="38.06359161337299" lon="15.742060027640026"><ele>900.75</ele><time>2026-04-14T09:54:01.999Z</time></trkpt><trkpt lat="38.06358346569094" lon="15.742218832700622"><ele>901.0</ele><time>2026-04-14T09:54:02.999Z</time></trkpt><trkpt lat="38.06357832155099" lon="15.742370968303376"><ele>900.9999999999999</ele><time>2026-04-14T09:54:03.999Z</time></trkpt><trkpt lat="38.063568520610055" lon="15.742499842437748"><ele>901.0</ele><time>2026-04-14T09:54:04.999Z</time></trkpt><trkpt lat="38.06357032834147" lon="15.742600488721614"><ele>901.0</ele><time>2026-04-14T09:54:05.999Z</time></trkpt><trkpt lat="38.06356369023297" lon="15.74268340109967"><ele>901.0</ele><time>2026-04-14T09:54:06.999Z</time></trkpt><trkpt lat="38.06351127672551" lon="15.742784160183918"><ele>900.9999999999999</ele><time>2026-04-14T09:54:09Z</time></trkpt><trkpt lat="38.06344816083725" lon="15.74286965492891"><ele>901.0</ele><time>2026-04-14T09:54:11Z</time></trkpt><trkpt lat="38.0633763826989" lon="15.742965024455584"><ele>899.9999999999999</ele><time>2026-04-14T09:54:26Z</time></trkpt><trkpt lat="38.063334525302984" lon="15.743032848275378"><ele>899.0</ele><time>2026-04-14T09:54:27Z</time></trkpt><trkpt lat="38.0632356963884" lon="15.74315105045676"><ele>898.0</ele><time>2026-04-14T09:54:29Z</time></trkpt><trkpt lat="38.063171322627916" lon="15.743223064193439"><ele>897.0</ele><time>2026-04-14T09:54:30Z</time></trkpt><trkpt lat="38.06312604063755" lon="15.743310945801765"><ele>895.9999999999999</ele><time>2026-04-14T09:54:31Z</time></trkpt><trkpt lat="38.063075478302906" lon="15.743381573063143"><ele>895.0</ele><time>2026-04-14T09:54:32Z</time></trkpt><trkpt lat="38.06304566805727" lon="15.743461534288919"><ele>897.3333333333333</ele><time>2026-04-14T09:54:33Z</time></trkpt><trkpt lat="38.06303016566613" lon="15.743557255115682"><ele>899.6666666666666</ele><time>2026-04-14T09:54:34Z</time></trkpt><trkpt lat="38.06303246378542" lon="15.743654212706097"><ele>902.0</ele><time>2026-04-14T09:54:35Z</time></trkpt><trkpt lat="38.063021463304906" lon="15.74374483622495"><ele>904.3333333333333</ele><time>2026-04-14T09:54:36Z</time></trkpt><trkpt lat="38.06292304470749" lon="15.743830754361744"><ele>906.6666666666666</ele><time>2026-04-14T09:54:38Z</time></trkpt><trkpt lat="38.06284553196486" lon="15.743852272548086"><ele>909.0</ele><time>2026-04-14T09:54:39Z</time></trkpt><trkpt lat="38.062761345164795" lon="15.74386012247844"><ele>909.0</ele><time>2026-04-14T09:54:40Z</time></trkpt><trkpt lat="38.06268838926995" lon="15.743873677196836"><ele>909.0000000000001</ele><time>2026-04-14T09:54:41Z</time></trkpt><trkpt lat="38.062580376997715" lon="15.74391659512677"><ele>909.0000000000001</ele><time>2026-04-14T09:54:43Z</time></trkpt><trkpt lat="38.0625583350346" lon="15.744060678741805"><ele>909.0</ele><time>2026-04-14T09:54:45Z</time></trkpt><trkpt lat="38.062565537790775" lon="15.744147797850099"><ele>909.0</ele><time>2026-04-14T09:54:46Z</time></trkpt><trkpt lat="38.06255507850827" lon="15.744288817256148"><ele>909.0</ele><time>2026-04-14T09:54:48Z</time></trkpt><trkpt lat="38.06252184575732" lon="15.744362040847765"><ele>909.0</ele><time>2026-04-14T09:54:49Z</time></trkpt><trkpt lat="38.06246908587251" lon="15.744408213732912"><ele>909.0</ele><time>2026-04-14T09:54:50Z</time></trkpt><trkpt lat="38.062395994766675" lon="15.744448053500166"><ele>909.0</ele><time>2026-04-14T09:54:51Z</time></trkpt><trkpt lat="38.06231007676442" lon="15.744458272571066"><ele>909.0</ele><time>2026-04-14T09:54:52Z</time></trkpt><trkpt lat="38.062220875482794" lon="15.744476840998118"><ele>909.0</ele><time>2026-04-14T09:54:53Z</time></trkpt><trkpt lat="38.06213503980597" lon="15.744510724735152"><ele>906.6666666666666</ele><time>2026-04-14T09:54:54Z</time></trkpt><trkpt lat="38.062061157864065" lon="15.744533700878309"><ele>904.3333333333333</ele><time>2026-04-14T09:54:55Z</time></trkpt><trkpt lat="38.06199727574469" lon="15.744574555905313"><ele>902.0</ele><time>2026-04-14T09:54:56Z</time></trkpt><trkpt lat="38.06193543419611" lon="15.744722812247112"><ele>899.6666666666666</ele><time>2026-04-14T09:54:58Z</time></trkpt><trkpt lat="38.06189798471899" lon="15.744819949465592"><ele>897.3333333333333</ele><time>2026-04-14T09:54:59Z</time></trkpt><trkpt lat="38.0618513072488" lon="15.74490745670988"><ele>895.0</ele><time>2026-04-14T09:55:00Z</time></trkpt><trkpt lat="38.061815923259225" lon="15.7449898251716"><ele>894.9999999999999</ele><time>2026-04-14T09:55:01Z</time></trkpt><trkpt lat="38.06179920534669" lon="15.745084644649706"><ele>895.0</ele><time>2026-04-14T09:55:02Z</time></trkpt><trkpt lat="38.061797872846405" lon="15.745177280401972"><ele>895.0</ele><time>2026-04-14T09:55:03Z</time></trkpt><trkpt lat="38.061809672341404" lon="15.745328568089242"><ele>895.0</ele><time>2026-04-14T09:55:05Z</time></trkpt><trkpt lat="38.06181989100272" lon="15.745411423700302"><ele>894.9999999999999</ele><time>2026-04-14T09:55:06Z</time></trkpt><trkpt lat="38.06181122177905" lon="15.745502100669071"><ele>895.0</ele><time>2026-04-14T09:55:07Z</time></trkpt><trkpt lat="38.061811654861884" lon="15.745592080553301"><ele>897.2</ele><time>2026-04-14T09:55:08Z</time></trkpt><trkpt lat="38.06177654653116" lon="15.745755806628654"><ele>899.4</ele><time>2026-04-14T09:55:10Z</time></trkpt><trkpt lat="38.06174782713779" lon="15.74585621220592"><ele>901.5999999999999</ele><time>2026-04-14T09:55:11Z</time></trkpt><trkpt lat="38.061730350791294" lon="15.745967879731019"><ele>903.8</ele><time>2026-04-14T09:55:12Z</time></trkpt><trkpt lat="38.06170493695967" lon="15.746063406103783"><ele>906.0</ele><time>2026-04-14T09:55:13Z</time></trkpt><trkpt lat="38.06167168409906" lon="15.74616491862718"><ele>907.5714285714284</ele><time>2026-04-14T09:55:14Z</time></trkpt><trkpt lat="38.06164223610893" lon="15.74625684270423"><ele>909.1428571428571</ele><time>2026-04-14T09:55:15Z</time></trkpt><trkpt lat="38.06162949466135" lon="15.746346125339628"><ele>910.7142857142857</ele><time>2026-04-14T09:55:16Z</time></trkpt><trkpt lat="38.06160850483678" lon="15.746437468114214"><ele>912.2857142857142</ele><time>2026-04-14T09:55:17Z</time></trkpt><trkpt lat="38.06158698682926" lon="15.746524285899708"><ele>913.8571428571429</ele><time>2026-04-14T09:55:18Z</time></trkpt><trkpt lat="38.061574056571494" lon="15.746602767924426"><ele>915.4285714285714</ele><time>2026-04-14T09:55:19Z</time></trkpt><trkpt lat="38.06155781433495" lon="15.746701352462717"><ele>917.0</ele><time>2026-04-14T09:55:21Z</time></trkpt><trkpt lat="38.06153959358623" lon="15.746811945818202"><ele>914.8333333333334</ele><time>2026-04-14T09:55:23Z</time></trkpt><trkpt lat="38.06160729735533" lon="15.746881962077689"><ele>912.6666666666667</ele><time>2026-04-14T09:55:24Z</time></trkpt><trkpt lat="38.06153603694737" lon="15.746904295184498"><ele>910.5</ele><time>2026-04-14T09:55:26Z</time></trkpt><trkpt lat="38.0614586605899" lon="15.746853205846014"><ele>908.3333333333333</ele><time>2026-04-14T09:55:29Z</time></trkpt><trkpt lat="38.06138478551593" lon="15.746886595999577"><ele>906.1666666666666</ele><time>2026-04-14T09:55:32Z</time></trkpt><trkpt lat="38.06135168922922" lon="15.747020417115213"><ele>904.0</ele><time>2026-04-14T09:55:34Z</time></trkpt><trkpt lat="38.0613184612432" lon="15.747139184973893"><ele>903.9999999999999</ele><time>2026-04-14T09:55:36Z</time></trkpt><trkpt lat="38.06127169607132" lon="15.747237960522813"><ele>904.0</ele><time>2026-04-14T09:55:38Z</time></trkpt><trkpt lat="38.06121367380041" lon="15.74731693466583"><ele>904.0</ele><time>2026-04-14T09:55:40Z</time></trkpt><trkpt lat="38.061203178896946" lon="15.747401241493273"><ele>904.0</ele><time>2026-04-14T09:55:43Z</time></trkpt><trkpt lat="38.061221890187014" lon="15.747511817710025"><ele>903.9999999999999</ele><time>2026-04-14T09:55:45Z</time></trkpt><trkpt lat="38.06115783118446" lon="15.747554690235187"><ele>904.0</ele><time>2026-04-14T09:55:48Z</time></trkpt><trkpt lat="38.06106523089601" lon="15.747482751429375"><ele>903.9999999999999</ele><time>2026-04-14T09:55:50Z</time></trkpt><trkpt lat="38.06103511596929" lon="15.747395328195092"><ele>904.0</ele><time>2026-04-14T09:55:52Z</time></trkpt><trkpt lat="38.06100163620611" lon="15.747326977841361"><ele>904.0</ele><time>2026-04-14T09:55:54Z</time></trkpt><trkpt lat="38.06093502212873" lon="15.747315346230113"><ele>904.0</ele><time>2026-04-14T09:55:56Z</time></trkpt><trkpt lat="38.060882520734545" lon="15.747389625187903"><ele>903.9999999999999</ele><time>2026-04-14T09:55:58Z</time></trkpt><trkpt lat="38.0608585489249" lon="15.747520957522992"><ele>904.0</ele><time>2026-04-14T09:56:00Z</time></trkpt><trkpt lat="38.06082146118005" lon="15.747587836917392"><ele>905.4999999999999</ele><time>2026-04-14T09:56:02Z</time></trkpt><trkpt lat="38.06075775251729" lon="15.747658129627286"><ele>907.0</ele><time>2026-04-14T09:56:04Z</time></trkpt><trkpt lat="38.06073464096697" lon="15.747733494078737"><ele>908.5</ele><time>2026-04-14T09:56:06Z</time></trkpt><trkpt lat="38.060721157201726" lon="15.747857627661347"><ele>910.0</ele><time>2026-04-14T09:56:08Z</time></trkpt><trkpt lat="38.06072407126428" lon="15.747965288477783"><ele>911.4999999999999</ele><time>2026-04-14T09:56:10Z</time></trkpt><trkpt lat="38.06065292667775" lon="15.748044736467866"><ele>913.0</ele><time>2026-04-14T09:56:12Z</time></trkpt><trkpt lat="38.0605610368009" lon="15.748106025187454"><ele>913.0</ele><time>2026-04-14T09:56:14Z</time></trkpt><trkpt lat="38.06044877120808" lon="15.748029786838705"><ele>913.0</ele><time>2026-04-14T09:56:15Z</time></trkpt><trkpt lat="38.06038144811884" lon="15.74807338639185"><ele>913.0</ele><time>2026-04-14T09:56:16Z</time></trkpt><trkpt lat="38.06030884207934" lon="15.748213910337203"><ele>913.0</ele><time>2026-04-14T09:56:18Z</time></trkpt><trkpt lat="38.060235760251445" lon="15.748300622419016"><ele>913.0</ele><time>2026-04-14T09:56:21Z</time></trkpt><trkpt lat="38.0601787963771" lon="15.748424589018228"><ele>916.3333333333333</ele><time>2026-04-14T09:56:23Z</time></trkpt><trkpt lat="38.06010965517934" lon="15.748547615684224"><ele>919.6666666666666</ele><time>2026-04-14T09:56:25Z</time></trkpt><trkpt lat="38.060079537501984" lon="15.748644320312133"><ele>923.0</ele><time>2026-04-14T09:56:26Z</time></trkpt><trkpt lat="38.06005660004886" lon="15.748740560798842"><ele>926.3333333333333</ele><time>2026-04-14T09:56:27Z</time></trkpt><trkpt lat="38.060038982479" lon="15.748837609487104"><ele>929.6666666666666</ele><time>2026-04-14T09:56:28Z</time></trkpt><trkpt lat="38.06003311210665" lon="15.748923130577179"><ele>933.0</ele><time>2026-04-14T09:56:29Z</time></trkpt><trkpt lat="38.06001727657095" lon="15.749049063679438"><ele>933.0</ele><time>2026-04-14T09:56:31Z</time></trkpt><trkpt lat="38.05999482962046" lon="15.749155436575993"><ele>933.0</ele><time>2026-04-14T09:56:33Z</time></trkpt><trkpt lat="38.05992829260083" lon="15.74925336845083"><ele>933.0</ele><time>2026-04-14T09:56:35Z</time></trkpt><trkpt lat="38.05987484169374" lon="15.749394485702679"><ele>933.0</ele><time>2026-04-14T09:56:37Z</time></trkpt><trkpt lat="38.05981733654629" lon="15.749523020897215"><ele>933.0</ele><time>2026-04-14T09:56:39Z</time></trkpt><trkpt lat="38.059747533863636" lon="15.7496272440782"><ele>933.8</ele><time>2026-04-14T09:56:41Z</time></trkpt><trkpt lat="38.05971683955774" lon="15.749772417932192"><ele>934.5999999999999</ele><time>2026-04-14T09:56:43Z</time></trkpt><trkpt lat="38.05972168645535" lon="15.749895404329134"><ele>935.4000000000001</ele><time>2026-04-14T09:56:45Z</time></trkpt><trkpt lat="38.05975386262389" lon="15.750045083410663"><ele>936.2</ele><time>2026-04-14T09:56:47Z</time></trkpt><trkpt lat="38.059792806578635" lon="15.750148151699326"><ele>937.0</ele><time>2026-04-14T09:56:49Z</time></trkpt><trkpt lat="38.059727842235844" lon="15.750229967668549"><ele>938.6666666666666</ele><time>2026-04-14T09:56:51Z</time></trkpt><trkpt lat="38.05967362546226" lon="15.750298041669845"><ele>940.3333333333333</ele><time>2026-04-14T09:56:52Z</time></trkpt><trkpt lat="38.05960843535247" lon="15.750372408145644"><ele>942.0</ele><time>2026-04-14T09:56:53Z</time></trkpt><trkpt lat="38.05952908292354" lon="15.750432539347077"><ele>943.6666666666667</ele><time>2026-04-14T09:56:54Z</time></trkpt><trkpt lat="38.0594437808608" lon="15.75049308546483"><ele>945.3333333333334</ele><time>2026-04-14T09:56:55Z</time></trkpt><trkpt lat="38.05936813599724" lon="15.750563465615866"><ele>947.0</ele><time>2026-04-14T09:56:56Z</time></trkpt><trkpt lat="38.0672690774105" lon="15.736760391883767"><ele>942.1666666666667</ele><time>2026-04-14T09:52:45.999Z</time></trkpt><trkpt lat="38.06722363847195" lon="15.736837310785758"><ele>937.3333333333334</ele><time>2026-04-14T09:52:46.999Z</time></trkpt><trkpt lat="38.06715507941344" lon="15.736892557114412"><ele>932.5</ele><time>2026-04-14T09:52:47.999Z</time></trkpt><trkpt lat="38.06706957416265" lon="15.736921409262903"><ele>927.6666666666667</ele><time>2026-04-14T09:52:48.999Z</time></trkpt><trkpt lat="38.06698028426771" lon="15.736937923046163"><ele>922.8333333333334</ele><time>2026-04-14T09:52:49.999Z</time></trkpt><trkpt lat="38.066888699501014" lon="15.736962595688025"><ele>918.0</ele><time>2026-04-14T09:52:50.999Z</time></trkpt><trkpt lat="38.06680325369656" lon="15.737008648017975"><ele>918.0</ele><time>2026-04-14T09:52:51.999Z</time></trkpt><trkpt lat="38.066723762187024" lon="15.737075759304016"><ele>918.0</ele><time>2026-04-14T09:52:52.999Z</time></trkpt><trkpt lat="38.06665186141481" lon="15.737144351114432"><ele>918.0</ele><time>2026-04-14T09:52:53.999Z</time></trkpt><trkpt lat="38.06656879928137" lon="15.737190050475546"><ele>918.0</ele><time>2026-04-14T09:52:54.999Z</time></trkpt><trkpt lat="38.06647523341209" lon="15.737202431588324"><ele>918.0</ele><time>2026-04-14T09:52:55.999Z</time></trkpt><trkpt lat="38.066379146287524" lon="15.737204792995891"><ele>918.0</ele><time>2026-04-14T09:52:56.999Z</time></trkpt><trkpt lat="38.06629113242362" lon="15.737252480733959"><ele>918.0</ele><time>2026-04-14T09:52:57.999Z</time></trkpt><trkpt lat="38.06621904974949" lon="15.737336372482975"><ele>918.0</ele><time>2026-04-14T09:52:58.999Z</time></trkpt><trkpt lat="38.066132004382915" lon="15.737388873215535"><ele>918.0</ele><time>2026-04-14T09:52:59.999Z</time></trkpt><trkpt lat="38.066047319180925" lon="15.737404081950894"><ele>918.0</ele><time>2026-04-14T09:53:00.999Z</time></trkpt><trkpt lat="38.065967551757915" lon="15.737374342871316"><ele>918.0</ele><time>2026-04-14T09:53:01.999Z</time></trkpt><trkpt lat="38.06591896412307" lon="15.737277596294073"><ele>918.0</ele><time>2026-04-14T09:53:02.999Z</time></trkpt><trkpt lat="38.065856144374195" lon="15.737210035740912"><ele>918.0</ele><time>2026-04-14T09:53:03.999Z</time></trkpt><trkpt lat="38.065779421441476" lon="15.737167842635436"><ele>918.0</ele><time>2026-04-14T09:53:04.999Z</time></trkpt><trkpt lat="38.065690546213986" lon="15.737133211593461"><ele>918.0</ele><time>2026-04-14T09:53:05.999Z</time></trkpt><trkpt lat="38.06559906522367" lon="15.737085262951904"><ele>918.0</ele><time>2026-04-14T09:53:06.999Z</time></trkpt><trkpt lat="38.065501169408336" lon="15.737040420001172"><ele>919.0</ele><time>2026-04-14T09:53:07.999Z</time></trkpt><trkpt lat="38.065404031987484" lon="15.737003984436473"><ele>920.0</ele><time>2026-04-14T09:53:08.999Z</time></trkpt><trkpt lat="38.0653056531615" lon="15.736994384573773"><ele>921.0</ele><time>2026-04-14T09:53:09.999Z</time></trkpt><trkpt lat="38.0652054102909" lon="15.737013345056859"><ele>922.0</ele><time>2026-04-14T09:53:10.999Z</time></trkpt><trkpt lat="38.065100656689225" lon="15.737044276848652"><ele>923.0</ele><time>2026-04-14T09:53:12Z</time></trkpt><trkpt lat="38.06499822012953" lon="15.737072830320411"><ele>917.0000000000001</ele><time>2026-04-14T09:53:13Z</time></trkpt><trkpt lat="38.06489386153673" lon="15.737087900517793"><ele>911.0</ele><time>2026-04-14T09:53:14Z</time></trkpt><trkpt lat="38.06481157219405" lon="15.737126803218505"><ele>905.0</ele><time>2026-04-14T09:53:15Z</time></trkpt><trkpt lat="38.06475991626596" lon="15.737196847493966"><ele>899.0</ele><time>2026-04-14T09:53:16Z</time></trkpt><trkpt lat="38.06473614581256" lon="15.737288408418044"><ele>893.0000000000001</ele><time>2026-04-14T09:53:17Z</time></trkpt><trkpt lat="38.06473460436304" lon="15.737392263462375"><ele>887.0</ele><time>2026-04-14T09:53:18Z</time></trkpt><trkpt lat="38.06474086829514" lon="15.737504270898716"><ele>887.0</ele><time>2026-04-14T09:53:19Z</time></trkpt><trkpt lat="38.064741442349415" lon="15.737620968430436"><ele>887.0</ele><time>2026-04-14T09:53:20Z</time></trkpt><trkpt lat="38.0647278543719" lon="15.737740082409605"><ele>887.0</ele><time>2026-04-14T09:53:21Z</time></trkpt><trkpt lat="38.064702038830966" lon="15.73786104976998"><ele>887.0</ele><time>2026-04-14T09:53:22Z</time></trkpt><trkpt lat="38.0646601551535" lon="15.737961900856064"><ele>887.0</ele><time>2026-04-14T09:53:23Z</time></trkpt><trkpt lat="38.06459936790917" lon="15.738044003291643"><ele>886.3333333333334</ele><time>2026-04-14T09:53:24Z</time></trkpt><trkpt lat="38.064522678775525" lon="15.738100104209481"><ele>885.6666666666667</ele><time>2026-04-14T09:53:25Z</time></trkpt><trkpt lat="38.064439581118116" lon="15.738131658279322"><ele>885.0</ele><time>2026-04-14T09:53:26Z</time></trkpt><trkpt lat="38.064356288426595" lon="15.738160147559222"><ele>884.3333333333333</ele><time>2026-04-14T09:53:27Z</time></trkpt><trkpt lat="38.06426980758776" lon="15.738202285199971"><ele>883.6666666666666</ele><time>2026-04-14T09:53:28Z</time></trkpt><trkpt lat="38.064183198858444" lon="15.73825161961875"><ele>883.0</ele><time>2026-04-14T09:53:29Z</time></trkpt><trkpt lat="38.06410185227262" lon="15.73830590926693"><ele>883.0</ele><time>2026-04-14T09:53:30Z</time></trkpt><trkpt lat="38.06402788428791" lon="15.738370685309159"><ele>883.0</ele><time>2026-04-14T09:53:31Z</time></trkpt><trkpt lat="38.06396543906618" lon="15.738453164293134"><ele>883.0</ele><time>2026-04-14T09:53:32Z</time></trkpt><trkpt lat="38.06392423954793" lon="15.738554856336131"><ele>883.0</ele><time>2026-04-14T09:53:33Z</time></trkpt><trkpt lat="38.0639096620121" lon="15.738664864309657"><ele>883.0</ele><time>2026-04-14T09:53:34Z</time></trkpt><trkpt lat="38.06390890090289" lon="15.738782631425535"><ele>884.8</ele><time>2026-04-14T09:53:35Z</time></trkpt><trkpt lat="38.06389989931625" lon="15.738901942597805"><ele>886.5999999999999</ele><time>2026-04-14T09:53:36Z</time></trkpt><trkpt lat="38.06387041040344" lon="15.73902370932782"><ele>888.4000000000001</ele><time>2026-04-14T09:53:37Z</time></trkpt><trkpt lat="38.06382879287191" lon="15.739137952205184"><ele>890.2</ele><time>2026-04-14T09:53:38Z</time></trkpt><trkpt lat="38.063809901558535" lon="15.739252211798274"><ele>892.0</ele><time>2026-04-14T09:53:39Z</time></trkpt><trkpt lat="38.06381657453665" lon="15.739373438995425"><ele>894.0</ele><time>2026-04-14T09:53:39.999Z</time></trkpt><trkpt lat="38.063845301889515" lon="15.73949195959628"><ele>896.0</ele><time>2026-04-14T09:53:40.999Z</time></trkpt><trkpt lat="38.06387768009752" lon="15.739610231190845"><ele>898.0</ele><time>2026-04-14T09:53:41.999Z</time></trkpt><trkpt lat="38.06389780399036" lon="15.739728051332422"><ele>900.0</ele><time>2026-04-14T09:53:42.999Z</time></trkpt><trkpt lat="38.06389098808076" lon="15.739839532073193"><ele>902.0</ele><time>2026-04-14T09:53:43.999Z</time></trkpt><trkpt lat="38.063866374176655" lon="15.739959944288389"><ele>902.0</ele><time>2026-04-14T09:53:44.999Z</time></trkpt><trkpt lat="38.063837308159655" lon="15.740079400239184"><ele>902.0</ele><time>2026-04-14T09:53:45.999Z</time></trkpt><trkpt lat="38.06380820036162" lon="15.740200875379491"><ele>902.0</ele><time>2026-04-14T09:53:46.999Z</time></trkpt><trkpt lat="38.063770668917094" lon="15.740331994332417"><ele>902.0</ele><time>2026-04-14T09:53:47.999Z</time></trkpt><trkpt lat="38.06372437563997" lon="15.740464481859046"><ele>902.0</ele><time>2026-04-14T09:53:48.999Z</time></trkpt><trkpt lat="38.06367319185326" lon="15.740598045308467"><ele>901.6</ele><time>2026-04-14T09:53:49.999Z</time></trkpt><trkpt lat="38.06361998949911" lon="15.7407279552583"><ele>901.2</ele><time>2026-04-14T09:53:50.999Z</time></trkpt><trkpt lat="38.063570953700804" lon="15.740849309448256"><ele>900.8</ele><time>2026-04-14T09:53:51.999Z</time></trkpt><trkpt lat="38.06353015931331" lon="15.740964254451487"><ele>900.4</ele><time>2026-04-14T09:53:52.999Z</time></trkpt><trkpt lat="38.06351626070764" lon="15.741072549553515"><ele>900.0</ele><time>2026-04-14T09:53:53.999Z</time></trkpt><trkpt lat="38.0635297214451" lon="15.741175980484734"><ele>900.0</ele><time>2026-04-14T09:53:54.999Z</time></trkpt><trkpt lat="38.06357113349695" lon="15.741276602537155"><ele>900.0</ele><time>2026-04-14T09:53:55.999Z</time></trkpt><trkpt lat="38.06362309514428" lon="15.741383134082922"><ele>900.0</ele><time>2026-04-14T09:53:56.999Z</time></trkpt><trkpt lat="38.06365408899721" lon="15.741494345145272"><ele>900.0</ele><time>2026-04-14T09:53:57.999Z</time></trkpt><trkpt lat="38.06365208600881" lon="15.741624364929969"><ele>900.0</ele><time>2026-04-14T09:53:58.999Z</time></trkpt><trkpt lat="38.063631589091884" lon="15.741762681025875"><ele>900.25</ele><time>2026-04-14T09:53:59.999Z</time></trkpt><trkpt lat="38.0636070677491" lon="15.741907402638745"><ele>900.5</ele><time>2026-04-14T09:54:00.999Z</time></trkpt><trkpt lat="38.06359161337299" lon="15.742060027640026"><ele>900.75</ele><time>2026-04-14T09:54:01.999Z</time></trkpt><trkpt lat="38.06358346569094" lon="15.742218832700622"><ele>901.0</ele><time>2026-04-14T09:54:02.999Z</time></trkpt><trkpt lat="38.06357832155099" lon="15.742370968303376"><ele>900.9999999999999</ele><time>2026-04-14T09:54:03.999Z</time></trkpt><trkpt lat="38.063568520610055" lon="15.742499842437748"><ele>901.0</ele><time>2026-04-14T09:54:04.999Z</time></trkpt><trkpt lat="38.06357032834147" lon="15.742600488721614"><ele>901.0</ele><time>2026-04-14T09:54:05.999Z</time></trkpt><trkpt lat="38.06356369023297" lon="15.74268340109967"><ele>901.0</ele><time>2026-04-14T09:54:06.999Z</time></trkpt><trkpt lat="38.06351127672551" lon="15.742784160183918"><ele>900.9999999999999</ele><time>2026-04-14T09:54:09Z</time></trkpt><trkpt lat="38.06344816083725" lon="15.74286965492891"><ele>901.0</ele><time>2026-04-14T09:54:11Z</time></trkpt><trkpt lat="38.0633763826989" lon="15.742965024455584"><ele>899.9999999999999</ele><time>2026-04-14T09:54:26Z</time></trkpt><trkpt lat="38.063334525302984" lon="15.743032848275378"><ele>899.0</ele><time>2026-04-14T09:54:27Z</time></trkpt><trkpt lat="38.0632356963884" lon="15.74315105045676"><ele>898.0</ele><time>2026-04-14T09:54:29Z</time></trkpt><trkpt lat="38.063171322627916" lon="15.743223064193439"><ele>897.0</ele><time>2026-04-14T09:54:30Z</time></trkpt><trkpt lat="38.06312604063755" lon="15.743310945801765"><ele>895.9999999999999</ele><time>2026-04-14T09:54:31Z</time></trkpt><trkpt lat="38.063075478302906" lon="15.743381573063143"><ele>895.0</ele><time>2026-04-14T09:54:32Z</time></trkpt><trkpt lat="38.06304566805727" lon="15.743461534288919"><ele>897.3333333333333</ele><time>2026-04-14T09:54:33Z</time></trkpt><trkpt lat="38.06303016566613" lon="15.743557255115682"><ele>899.6666666666666</ele><time>2026-04-14T09:54:34Z</time></trkpt><trkpt lat="38.06303246378542" lon="15.743654212706097"><ele>902.0</ele><time>2026-04-14T09:54:35Z</time></trkpt><trkpt lat="38.063021463304906" lon="15.74374483622495"><ele>904.3333333333333</ele><time>2026-04-14T09:54:36Z</time></trkpt><trkpt lat="38.06292304470749" lon="15.743830754361744"><ele>906.6666666666666</ele><time>2026-04-14T09:54:38Z</time></trkpt><trkpt lat="38.06284553196486" lon="15.743852272548086"><ele>909.0</ele><time>2026-04-14T09:54:39Z</time></trkpt><trkpt lat="38.062761345164795" lon="15.74386012247844"><ele>909.0</ele><time>2026-04-14T09:54:40Z</time></trkpt><trkpt lat="38.06268838926995" lon="15.743873677196836"><ele>909.0000000000001</ele><time>2026-04-14T09:54:41Z</time></trkpt><trkpt lat="38.062580376997715" lon="15.74391659512677"><ele>909.0000000000001</ele><time>2026-04-14T09:54:43Z</time></trkpt><trkpt lat="38.0625583350346" lon="15.744060678741805"><ele>909.0</ele><time>2026-04-14T09:54:45Z</time></trkpt><trkpt lat="38.062565537790775" lon="15.744147797850099"><ele>909.0</ele><time>2026-04-14T09:54:46Z</time></trkpt><trkpt lat="38.06255507850827" lon="15.744288817256148"><ele>909.0</ele><time>2026-04-14T09:54:48Z</time></trkpt><trkpt lat="38.06252184575732" lon="15.744362040847765"><ele>909.0</ele><time>2026-04-14T09:54:49Z</time></trkpt><trkpt lat="38.06246908587251" lon="15.744408213732912"><ele>909.0</ele><time>2026-04-14T09:54:50Z</time></trkpt><trkpt lat="38.062395994766675" lon="15.744448053500166"><ele>909.0</ele><time>2026-04-14T09:54:51Z</time></trkpt><trkpt lat="38.06231007676442" lon="15.744458272571066"><ele>909.0</ele><time>2026-04-14T09:54:52Z</time></trkpt><trkpt lat="38.062220875482794" lon="15.744476840998118"><ele>909.0</ele><time>2026-04-14T09:54:53Z</time></trkpt><trkpt lat="38.06213503980597" lon="15.744510724735152"><ele>906.6666666666666</ele><time>2026-04-14T09:54:54Z</time></trkpt><trkpt lat="38.062061157864065" lon="15.744533700878309"><ele>904.3333333333333</ele><time>2026-04-14T09:54:55Z</time></trkpt><trkpt lat="38.06199727574469" lon="15.744574555905313"><ele>902.0</ele><time>2026-04-14T09:54:56Z</time></trkpt><trkpt lat="38.06193543419611" lon="15.744722812247112"><ele>899.6666666666666</ele><time>2026-04-14T09:54:58Z</time></trkpt><trkpt lat="38.06189798471899" lon="15.744819949465592"><ele>897.3333333333333</ele><time>2026-04-14T09:54:59Z</time></trkpt><trkpt lat="38.0618513072488" lon="15.74490745670988"><ele>895.0</ele><time>2026-04-14T09:55:00Z</time></trkpt><trkpt lat="38.061815923259225" lon="15.7449898251716"><ele>894.9999999999999</ele><time>2026-04-14T09:55:01Z</time></trkpt><trkpt lat="38.06179920534669" lon="15.745084644649706"><ele>895.0</ele><time>2026-04-14T09:55:02Z</time></trkpt><trkpt lat="38.061797872846405" lon="15.745177280401972"><ele>895.0</ele><time>2026-04-14T09:55:03Z</time></trkpt><trkpt lat="38.061809672341404" lon="15.745328568089242"><ele>895.0</ele><time>2026-04-14T09:55:05Z</time></trkpt><trkpt lat="38.06181989100272" lon="15.745411423700302"><ele>894.9999999999999</ele><time>2026-04-14T09:55:06Z</time></trkpt><trkpt lat="38.06181122177905" lon="15.745502100669071"><ele>895.0</ele><time>2026-04-14T09:55:07Z</time></trkpt><trkpt lat="38.061811654861884" lon="15.745592080553301"><ele>897.2</ele><time>2026-04-14T09:55:08Z</time></trkpt><trkpt lat="38.06177654653116" lon="15.745755806628654"><ele>899.4</ele><time>2026-04-14T09:55:10Z</time></trkpt><trkpt lat="38.06174782713779" lon="15.74585621220592"><ele>901.5999999999999</ele><time>2026-04-14T09:55:11Z</time></trkpt><trkpt lat="38.061730350791294" lon="15.745967879731019"><ele>903.8</ele><time>2026-04-14T09:55:12Z</time></trkpt><trkpt lat="38.06170493695967" lon="15.746063406103783"><ele>906.0</ele><time>2026-04-14T09:55:13Z</time></trkpt><trkpt lat="38.06167168409906" lon="15.74616491862718"><ele>907.5714285714284</ele><time>2026-04-14T09:55:14Z</time></trkpt><trkpt lat="38.06164223610893" lon="15.74625684270423"><ele>909.1428571428571</ele><time>2026-04-14T09:55:15Z</time></trkpt><trkpt lat="38.06162949466135" lon="15.746346125339628"><ele>910.7142857142857</ele><time>2026-04-14T09:55:16Z</time></trkpt><trkpt lat="38.06160850483678" lon="15.746437468114214"><ele>912.2857142857142</ele><time>2026-04-14T09:55:17Z</time></trkpt><trkpt lat="38.06158698682926" lon="15.746524285899708"><ele>913.8571428571429</ele><time>2026-04-14T09:55:18Z</time></trkpt><trkpt lat="38.061574056571494" lon="15.746602767924426"><ele>915.4285714285714</ele><time>2026-04-14T09:55:19Z</time></trkpt><trkpt lat="38.06155781433495" lon="15.746701352462717"><ele>917.0</ele><time>2026-04-14T09:55:21Z</time></trkpt><trkpt lat="38.06153959358623" lon="15.746811945818202"><ele>914.8333333333334</ele><time>2026-04-14T09:55:23Z</time></trkpt><trkpt lat="38.06160729735533" lon="15.746881962077689"><ele>912.6666666666667</ele><time>2026-04-14T09:55:24Z</time></trkpt><trkpt lat="38.06153603694737" lon="15.746904295184498"><ele>910.5</ele><time>2026-04-14T09:55:26Z</time></trkpt><trkpt lat="38.0614586605899" lon="15.746853205846014"><ele>908.3333333333333</ele><time>2026-04-14T09:55:29Z</time></trkpt><trkpt lat="38.06138478551593" lon="15.746886595999577"><ele>906.1666666666666</ele><time>2026-04-14T09:55:32Z</time></trkpt><trkpt lat="38.06135168922922" lon="15.747020417115213"><ele>904.0</ele><time>2026-04-14T09:55:34Z</time></trkpt><trkpt lat="38.0613184612432" lon="15.747139184973893"><ele>903.9999999999999</ele><time>2026-04-14T09:55:36Z</time></trkpt><trkpt lat="38.06127169607132" lon="15.747237960522813"><ele>904.0</ele><time>2026-04-14T09:55:38Z</time></trkpt><trkpt lat="38.06121367380041" lon="15.74731693466583"><ele>904.0</ele><time>2026-04-14T09:55:40Z</time></trkpt><trkpt lat="38.061203178896946" lon="15.747401241493273"><ele>904.0</ele><time>2026-04-14T09:55:43Z</time></trkpt><trkpt lat="38.061221890187014" lon="15.747511817710025"><ele>903.9999999999999</ele><time>2026-04-14T09:55:45Z</time></trkpt><trkpt lat="38.06115783118446" lon="15.747554690235187"><ele>904.0</ele><time>2026-04-14T09:55:48Z</time></trkpt><trkpt lat="38.06106523089601" lon="15.747482751429375"><ele>903.9999999999999</ele><time>2026-04-14T09:55:50Z</time></trkpt><trkpt lat="38.06103511596929" lon="15.747395328195092"><ele>904.0</ele><time>2026-04-14T09:55:52Z</time></trkpt><trkpt lat="38.06100163620611" lon="15.747326977841361"><ele>904.0</ele><time>2026-04-14T09:55:54Z</time></trkpt><trkpt lat="38.06093502212873" lon="15.747315346230113"><ele>904.0</ele><time>2026-04-14T09:55:56Z</time></trkpt><trkpt lat="38.060882520734545" lon="15.747389625187903"><ele>903.9999999999999</ele><time>2026-04-14T09:55:58Z</time></trkpt><trkpt lat="38.0608585489249" lon="15.747520957522992"><ele>904.0</ele><time>2026-04-14T09:56:00Z</time></trkpt><trkpt lat="38.06082146118005" lon="15.747587836917392"><ele>905.4999999999999</ele><time>2026-04-14T09:56:02Z</time></trkpt><trkpt lat="38.06075775251729" lon="15.747658129627286"><ele>907.0</ele><time>2026-04-14T09:56:04Z</time></trkpt><trkpt lat="38.06073464096697" lon="15.747733494078737"><ele>908.5</ele><time>2026-04-14T09:56:06Z</time></trkpt><trkpt lat="38.060721157201726" lon="15.747857627661347"><ele>910.0</ele><time>2026-04-14T09:56:08Z</time></trkpt><trkpt lat="38.06072407126428" lon="15.747965288477783"><ele>911.4999999999999</ele><time>2026-04-14T09:56:10Z</time></trkpt><trkpt lat="38.06065292667775" lon="15.748044736467866"><ele>913.0</ele><time>2026-04-14T09:56:12Z</time></trkpt><trkpt lat="38.0605610368009" lon="15.748106025187454"><ele>913.0</ele><time>2026-04-14T09:56:14Z</time></trkpt><trkpt lat="38.06044877120808" lon="15.748029786838705"><ele>913.0</ele><time>2026-04-14T09:56:15Z</time></trkpt><trkpt lat="38.06038144811884" lon="15.74807338639185"><ele>913.0</ele><time>2026-04-14T09:56:16Z</time></trkpt><trkpt lat="38.06030884207934" lon="15.748213910337203"><ele>913.0</ele><time>2026-04-14T09:56:18Z</time></trkpt><trkpt lat="38.060235760251445" lon="15.748300622419016"><ele>913.0</ele><time>2026-04-14T09:56:21Z</time></trkpt><trkpt lat="38.0601787963771" lon="15.748424589018228"><ele>916.3333333333333</ele><time>2026-04-14T09:56:23Z</time></trkpt><trkpt lat="38.06010965517934" lon="15.748547615684224"><ele>919.6666666666666</ele><time>2026-04-14T09:56:25Z</time></trkpt><trkpt lat="38.060079537501984" lon="15.748644320312133"><ele>923.0</ele><time>2026-04-14T09:56:26Z</time></trkpt><trkpt lat="38.06005660004886" lon="15.748740560798842"><ele>926.3333333333333</ele><time>2026-04-14T09:56:27Z</time></trkpt><trkpt lat="38.060038982479" lon="15.748837609487104"><ele>929.6666666666666</ele><time>2026-04-14T09:56:28Z</time></trkpt><trkpt lat="38.06003311210665" lon="15.748923130577179"><ele>933.0</ele><time>2026-04-14T09:56:29Z</time></trkpt><trkpt lat="38.06001727657095" lon="15.749049063679438"><ele>933.0</ele><time>2026-04-14T09:56:31Z</time></trkpt><trkpt lat="38.05999482962046" lon="15.749155436575993"><ele>933.0</ele><time>2026-04-14T09:56:33Z</time></trkpt><trkpt lat="38.05992829260083" lon="15.74925336845083"><ele>933.0</ele><time>2026-04-14T09:56:35Z</time></trkpt><trkpt lat="38.05987484169374" lon="15.749394485702679"><ele>933.0</ele><time>2026-04-14T09:56:37Z</time></trkpt><trkpt lat="38.05981733654629" lon="15.749523020897215"><ele>933.0</ele><time>2026-04-14T09:56:39Z</time></trkpt><trkpt lat="38.059747533863636" lon="15.7496272440782"><ele>933.8</ele><time>2026-04-14T09:56:41Z</time></trkpt><trkpt lat="38.05971683955774" lon="15.749772417932192"><ele>934.5999999999999</ele><time>2026-04-14T09:56:43Z</time></trkpt><trkpt lat="38.05972168645535" lon="15.749895404329134"><ele>935.4000000000001</ele><time>2026-04-14T09:56:45Z</time></trkpt><trkpt lat="38.05975386262389" lon="15.750045083410663"><ele>936.2</ele><time>2026-04-14T09:56:47Z</time></trkpt><trkpt lat="38.059792806578635" lon="15.750148151699326"><ele>937.0</ele><time>2026-04-14T09:56:49Z</time></trkpt><trkpt lat="38.059727842235844" lon="15.750229967668549"><ele>938.6666666666666</ele><time>2026-04-14T09:56:51Z</time></trkpt><trkpt lat="38.05967362546226" lon="15.750298041669845"><ele>940.3333333333333</ele><time>2026-04-14T09:56:52Z</time></trkpt><trkpt lat="38.05960843535247" lon="15.750372408145644"><ele>942.0</ele><time>2026-04-14T09:56:53Z</time></trkpt><trkpt lat="38.05952908292354" lon="15.750432539347077"><ele>943.6666666666667</ele><time>2026-04-14T09:56:54Z</time></trkpt><trkpt lat="38.0594437808608" lon="15.75049308546483"><ele>945.3333333333334</ele><time>2026-04-14T09:56:55Z</time></trkpt><trkpt lat="38.05936813599724" lon="15.750563465615866"><ele>947.0</ele><time>2026-04-14T09:56:56Z</time></trkpt><trkpt lat="38.05928920033573" lon="15.750649751243449"><ele>947.0</ele><time>2026-04-14T09:56:57Z</time></trkpt><trkpt lat="38.059214721136904" lon="15.75072305257888"><ele>947.0</ele><time>2026-04-14T09:56:58Z</time></trkpt><trkpt lat="38.05917002794437" lon="15.750797641597723"><ele>947.0</ele><time>2026-04-14T09:56:59Z</time></trkpt><trkpt lat="38.05912756892165" lon="15.750882905793436"><ele>947.0</ele><time>2026-04-14T09:57:00Z</time></trkpt><trkpt lat="38.05902227281362" lon="15.751014105823515"><ele>947.0</ele><time>2026-04-14T09:57:01Z</time></trkpt><trkpt lat="38.058907896330346" lon="15.75107021059777"><ele>946.0</ele><time>2026-04-14T09:57:02Z</time></trkpt><trkpt lat="38.05883590978255" lon="15.751135356929858"><ele>945.0</ele><time>2026-04-14T09:57:03Z</time></trkpt><trkpt lat="38.05877794566385" lon="15.751194433983695"><ele>944.0</ele><time>2026-04-14T09:57:04Z</time></trkpt><trkpt lat="38.058667217815575" lon="15.751234576861522"><ele>943.0</ele><time>2026-04-14T09:57:06Z</time></trkpt><trkpt lat="38.05861484926253" lon="15.751130903868905"><ele>942.0</ele><time>2026-04-14T09:57:08Z</time></trkpt><trkpt lat="38.05857993755016" lon="15.751035919367764"><ele>942.0</ele><time>2026-04-14T09:57:09Z</time></trkpt><trkpt lat="38.05852807673289" lon="15.750908786695977"><ele>942.0</ele><time>2026-04-14T09:57:09.999Z</time></trkpt><trkpt lat="38.05847746277109" lon="15.750753549322152"><ele>942.0</ele><time>2026-04-14T09:57:10.999Z</time></trkpt><trkpt lat="38.058435989590684" lon="15.750603022914648"><ele>942.0</ele><time>2026-04-14T09:57:11.999Z</time></trkpt><trkpt lat="38.058433254330645" lon="15.750471261276761"><ele>942.0</ele><time>2026-04-14T09:57:12.999Z</time></trkpt><trkpt lat="38.058429622947465" lon="15.750353063329637"><ele>942.0</ele><time>2026-04-14T09:57:13.999Z</time></trkpt><trkpt lat="38.058432228892684" lon="15.750212683158258"><ele>942.0</ele><time>2026-04-14T09:57:14.999Z</time></trkpt><trkpt lat="38.05844195302343" lon="15.750039100206898"><ele>942.0</ele><time>2026-04-14T09:57:15.999Z</time></trkpt><trkpt lat="38.05846986065721" lon="15.749823255296597"><ele>942.75</ele><time>2026-04-14T09:57:16.999Z</time></trkpt><trkpt lat="38.05849717435458" lon="15.749608474715874"><ele>943.5</ele><time>2026-04-14T09:57:17.999Z</time></trkpt><trkpt lat="38.05850922256771" lon="15.749420657487192"><ele>944.25</ele><time>2026-04-14T09:57:18.999Z</time></trkpt><trkpt lat="38.05850771815639" lon="15.749260375866168"><ele>945.0</ele><time>2026-04-14T09:57:19.999Z</time></trkpt><trkpt lat="38.05850186724607" lon="15.749115988715388"><ele>945.0</ele><time>2026-04-14T09:57:20.999Z</time></trkpt><trkpt lat="38.058492495130096" lon="15.748986660290438"><ele>945.0</ele><time>2026-04-14T09:57:21.999Z</time></trkpt><trkpt lat="38.05847821934103" lon="15.748856463145835"><ele>945.0</ele><time>2026-04-14T09:57:23Z</time></trkpt><trkpt lat="38.058459839962026" lon="15.748725053183257"><ele>945.0</ele><time>2026-04-14T09:57:24Z</time></trkpt><trkpt lat="38.058431332876225" lon="15.748581667501584"><ele>945.0</ele><time>2026-04-14T09:57:25Z</time></trkpt><trkpt lat="38.058396373235915" lon="15.748452372590743"><ele>944.4</ele><time>2026-04-14T09:57:26Z</time></trkpt><trkpt lat="38.0583520988435" lon="15.748336053409728"><ele>943.8</ele><time>2026-04-14T09:57:27Z</time></trkpt><trkpt lat="38.058281771499686" lon="15.748237267717268"><ele>943.2</ele><time>2026-04-14T09:57:28Z</time></trkpt><trkpt lat="38.05819817666139" lon="15.748178398303152"><ele>942.6</ele><time>2026-04-14T09:57:29Z</time></trkpt><trkpt lat="38.0581577046086" lon="15.748085595463401"><ele>942.0</ele><time>2026-04-14T09:57:30Z</time></trkpt><trkpt lat="38.05815289107893" lon="15.748003131506382"><ele>943.8</ele><time>2026-04-14T09:57:31Z</time></trkpt><trkpt lat="38.05816588299813" lon="15.747913758040518"><ele>945.6</ele><time>2026-04-14T09:57:32Z</time></trkpt><trkpt lat="38.058158251507066" lon="15.747799242034677"><ele>947.3999999999999</ele><time>2026-04-14T09:57:33Z</time></trkpt><trkpt lat="38.058152215910305" lon="15.747675138739742"><ele>949.1999999999999</ele><time>2026-04-14T09:57:34Z</time></trkpt><trkpt lat="38.05813858412481" lon="15.747533026531634"><ele>951.0</ele><time>2026-04-14T09:57:35Z</time></trkpt><trkpt lat="38.05811307836261" lon="15.747393697511312"><ele>951.0</ele><time>2026-04-14T09:57:36Z</time></trkpt><trkpt lat="38.05807129331739" lon="15.747264125077104"><ele>950.9999999999999</ele><time>2026-04-14T09:57:37Z</time></trkpt><trkpt lat="38.05802384044276" lon="15.747143471476923"><ele>950.9999999999999</ele><time>2026-04-14T09:57:38Z</time></trkpt><trkpt lat="38.057974892307335" lon="15.74702928344146"><ele>951.0</ele><time>2026-04-14T09:57:39Z</time></trkpt><trkpt lat="38.05793135945274" lon="15.746933882625658"><ele>951.0</ele><time>2026-04-14T09:57:40Z</time></trkpt><trkpt lat="38.05788639543416" lon="15.746835345413881"><ele>950.0</ele><time>2026-04-14T09:57:41Z</time></trkpt><trkpt lat="38.05782251090411" lon="15.74674003686074"><ele>948.9999999999999</ele><time>2026-04-14T09:57:42Z</time></trkpt><trkpt lat="38.057775222028695" lon="15.746623886322748"><ele>947.9999999999999</ele><time>2026-04-14T09:57:43Z</time></trkpt><trkpt lat="38.05771928203315" lon="15.746503046443214"><ele>947.0</ele><time>2026-04-14T09:57:44Z</time></trkpt><trkpt lat="38.057649547167635" lon="15.746386560072363"><ele>946.0</ele><time>2026-04-14T09:57:45Z</time></trkpt><trkpt lat="38.057595017098976" lon="15.746246277049536"><ele>946.0</ele><time>2026-04-14T09:57:46Z</time></trkpt><trkpt lat="38.05751951513059" lon="15.746122675539777"><ele>946.0</ele><time>2026-04-14T09:57:47Z</time></trkpt><trkpt lat="38.05743535609837" lon="15.746016562308094"><ele>946.0</ele><time>2026-04-14T09:57:48Z</time></trkpt><trkpt lat="38.05734703457634" lon="15.745934145774488"><ele>946.0</ele><time>2026-04-14T09:57:49Z</time></trkpt><trkpt lat="38.057276522926045" lon="15.745828308750953"><ele>945.0</ele><time>2026-04-14T09:57:50Z</time></trkpt><trkpt lat="38.05722435630851" lon="15.745685334598974"><ele>944.0</ele><time>2026-04-14T09:57:51Z</time></trkpt><trkpt lat="38.05715740724913" lon="15.745561917377806"><ele>943.0</ele><time>2026-04-14T09:57:52Z</time></trkpt><trkpt lat="38.05709465970712" lon="15.745452041674143"><ele>942.0</ele><time>2026-04-14T09:57:53Z</time></trkpt><trkpt lat="38.05703371066084" lon="15.745345315251296"><ele>942.0</ele><time>2026-04-14T09:57:54Z</time></trkpt><trkpt lat="38.05697828231419" lon="15.745242892333287"><ele>942.0</ele><time>2026-04-14T09:57:55Z</time></trkpt><trkpt lat="38.056920181464115" lon="15.745128502037447"><ele>942.0</ele><time>2026-04-14T09:57:56Z</time></trkpt><trkpt lat="38.056869773138594" lon="15.745013372009964"><ele>942.0</ele><time>2026-04-14T09:57:57Z</time></trkpt><trkpt lat="38.056823688826604" lon="15.744909338799589"><ele>942.0</ele><time>2026-04-14T09:57:58Z</time></trkpt><trkpt lat="38.056785863960336" lon="15.744756089650187"><ele>941.25</ele><time>2026-04-14T09:57:59Z</time></trkpt><trkpt lat="38.05673255544538" lon="15.744587700772097"><ele>940.5</ele><time>2026-04-14T09:58:00Z</time></trkpt><trkpt lat="38.05666246528031" lon="15.744414776710403"><ele>939.75</ele><time>2026-04-14T09:58:01Z</time></trkpt><trkpt lat="38.05659851497943" lon="15.74426694357786"><ele>939.0</ele><time>2026-04-14T09:58:02Z</time></trkpt><trkpt lat="38.0565314143095" lon="15.74411932588535"><ele>937.25</ele><time>2026-04-14T09:58:03Z</time></trkpt><trkpt lat="38.05645066443746" lon="15.74394383764169"><ele>935.5</ele><time>2026-04-14T09:58:04Z</time></trkpt><trkpt lat="38.05637457509632" lon="15.743784081408782"><ele>933.75</ele><time>2026-04-14T09:58:05Z</time></trkpt><trkpt lat="38.05632108803955" lon="15.74367345452881"><ele>932.0</ele><time>2026-04-14T09:58:06Z</time></trkpt><trkpt lat="38.0562640921916" lon="15.743562144128802"><ele>930.5</ele><time>2026-04-14T09:58:07Z</time></trkpt><trkpt lat="38.056206789187016" lon="15.743462110252118"><ele>929.0</ele><time>2026-04-14T09:58:08Z</time></trkpt><trkpt lat="38.0561449078477" lon="15.743354995714697"><ele>927.5</ele><time>2026-04-14T09:58:09Z</time></trkpt><trkpt lat="38.05607753803776" lon="15.743227045774685"><ele>926.0</ele><time>2026-04-14T09:58:10Z</time></trkpt><trkpt lat="38.05599832541093" lon="15.743078929299225"><ele>926.0</ele><time>2026-04-14T09:58:11Z</time></trkpt><trkpt lat="38.05591372019894" lon="15.742931357385537"><ele>926.0</ele><time>2026-04-14T09:58:12Z</time></trkpt><trkpt lat="38.05583587913051" lon="15.742802176575413"><ele>926.0</ele><time>2026-04-14T09:58:13Z</time></trkpt><trkpt lat="38.05575546948081" lon="15.742695918664989"><ele>926.0</ele><time>2026-04-14T09:58:14Z</time></trkpt><trkpt lat="38.05568994472147" lon="15.742593506325258"><ele>922.5000000000001</ele><time>2026-04-14T09:58:15Z</time></trkpt><trkpt lat="38.05563691673269" lon="15.742502326671234"><ele>919.0</ele><time>2026-04-14T09:58:16Z</time></trkpt><trkpt lat="38.055589436061524" lon="15.742435600641416"><ele>915.5</ele><time>2026-04-14T09:58:17Z</time></trkpt><trkpt lat="38.05553975791027" lon="15.742373230210836"><ele>912.0</ele><time>2026-04-14T09:58:19Z</time></trkpt><trkpt lat="38.05545463464756" lon="15.742330686959507"><ele>908.5000000000001</ele><time>2026-04-14T09:58:22Z</time></trkpt><trkpt lat="38.0553929895352" lon="15.742291059967098"><ele>905.0</ele><time>2026-04-14T09:58:24Z</time></trkpt><trkpt lat="38.05531561268079" lon="15.742232771432052"><ele>905.0</ele><time>2026-04-14T09:58:26Z</time></trkpt><trkpt lat="38.05520824615625" lon="15.74224613608154"><ele>905.0</ele><time>2026-04-14T09:58:28Z</time></trkpt><trkpt lat="38.05514477968071" lon="15.742242654527233"><ele>905.0</ele><time>2026-04-14T09:58:29Z</time></trkpt><trkpt lat="38.05507698524686" lon="15.742244366398856"><ele>905.0</ele><time>2026-04-14T09:58:30Z</time></trkpt><trkpt lat="38.054967086389965" lon="15.74222495041281"><ele>905.0</ele><time>2026-04-14T09:58:32Z</time></trkpt><trkpt lat="38.05486483016545" lon="15.742223393044947"><ele>901.5714285714286</ele><time>2026-04-14T09:58:34Z</time></trkpt><trkpt lat="38.054810550808725" lon="15.742266412702978"><ele>898.1428571428571</ele><time>2026-04-14T09:58:35Z</time></trkpt><trkpt lat="38.05472112150103" lon="15.742287386008003"><ele>894.7142857142857</ele><time>2026-04-14T09:58:37Z</time></trkpt><trkpt lat="38.05464418971941" lon="15.742225941197995"><ele>891.2857142857142</ele><time>2026-04-14T09:58:39Z</time></trkpt><trkpt lat="38.054584598539805" lon="15.742191886837773"><ele>887.8571428571429</ele><time>2026-04-14T09:58:41Z</time></trkpt><trkpt lat="38.054560844524104" lon="15.742272086935438"><ele>884.4285714285713</ele><time>2026-04-14T09:58:44Z</time></trkpt><trkpt lat="38.05450606439823" lon="15.742317019948924"><ele>881.0</ele><time>2026-04-14T09:58:49Z</time></trkpt><trkpt lat="38.054489055739914" lon="15.742414386508976"><ele>881.0000000000001</ele><time>2026-04-14T09:58:52Z</time></trkpt><trkpt lat="38.05445041024173" lon="15.742500616095267"><ele>881.0</ele><time>2026-04-14T09:58:54Z</time></trkpt><trkpt lat="38.05438414274756" lon="15.742586493914045"><ele>881.0</ele><time>2026-04-14T09:58:56Z</time></trkpt><trkpt lat="38.05433494597876" lon="15.742645599839157"><ele>881.0</ele><time>2026-04-14T09:58:57Z</time></trkpt><trkpt lat="38.05424207616084" lon="15.742723891792389"><ele>881.0000000000001</ele><time>2026-04-14T09:58:58.999Z</time></trkpt><trkpt lat="38.054171955583215" lon="15.74273803573543"><ele>881.0</ele><time>2026-04-14T09:59:00.999Z</time></trkpt><trkpt lat="38.054090856374096" lon="15.742718324429287"><ele>877.3333333333334</ele><time>2026-04-14T09:59:03.999Z</time></trkpt><trkpt lat="38.054017193934484" lon="15.742657393643908"><ele>873.6666666666667</ele><time>2026-04-14T09:59:06.999Z</time></trkpt><trkpt lat="38.05396748338067" lon="15.742602480129216"><ele>870.0</ele><time>2026-04-14T09:59:08.999Z</time></trkpt><trkpt lat="38.05389646521659" lon="15.742580446834818"><ele>866.3333333333333</ele><time>2026-04-14T09:59:09.999Z</time></trkpt><trkpt lat="38.05382339738801" lon="15.742569345784071"><ele>862.6666666666666</ele><time>2026-04-14T09:59:10.999Z</time></trkpt><trkpt lat="38.05376411639852" lon="15.742603231921166"><ele>859.0</ele><time>2026-04-14T09:59:11.999Z</time></trkpt><trkpt lat="38.053696173839704" lon="15.742678482315013"><ele>857.0</ele><time>2026-04-14T09:59:12.999Z</time></trkpt><trkpt lat="38.053604810025305" lon="15.74276404093491"><ele>855.0000000000001</ele><time>2026-04-14T09:59:13.999Z</time></trkpt><trkpt lat="38.05352673921042" lon="15.742810682731088"><ele>853.0</ele><time>2026-04-14T09:59:14.999Z</time></trkpt><trkpt lat="38.05344725609309" lon="15.742844878550697"><ele>851.0</ele><time>2026-04-14T09:59:15.999Z</time></trkpt><trkpt lat="38.0533837768859" lon="15.742807886818225"><ele>849.0</ele><time>2026-04-14T09:59:16.999Z</time></trkpt><trkpt lat="38.05328381039968" lon="15.742837968701082"><ele>849.0</ele><time>2026-04-14T09:59:18.999Z</time></trkpt><trkpt lat="38.05326459121452" lon="15.742944915441901"><ele>849.0</ele><time>2026-04-14T09:59:20.999Z</time></trkpt><trkpt lat="38.05336035309847" lon="15.743067328999807"><ele>849.0</ele><time>2026-04-14T09:59:22.999Z</time></trkpt><trkpt lat="38.05344333028233" lon="15.743165863009938"><ele>849.0</ele><time>2026-04-14T09:59:23.999Z</time></trkpt><trkpt lat="38.05353643361496" lon="15.74328761404771"><ele>849.0</ele><time>2026-04-14T09:59:24.999Z</time></trkpt><trkpt lat="38.05360041756147" lon="15.743371991866635"><ele>849.0</ele><time>2026-04-14T09:59:25.999Z</time></trkpt><trkpt lat="38.05365549169071" lon="15.743452356772789"><ele>849.0</ele><time>2026-04-14T09:59:26.999Z</time></trkpt><trkpt lat="38.0537140983903" lon="15.743547363977449"><ele>849.0</ele><time>2026-04-14T09:59:27.999Z</time></trkpt><trkpt lat="38.05378256417711" lon="15.743663312861836"><ele>849.0</ele><time>2026-04-14T09:59:30Z</time></trkpt><trkpt lat="38.053767833286294" lon="15.743758475876175"><ele>849.0</ele><time>2026-04-14T09:59:33Z</time></trkpt><trkpt lat="38.053683585928226" lon="15.74375697793741"><ele>849.0</ele><time>2026-04-14T09:59:35Z</time></trkpt><trkpt lat="38.053669100168754" lon="15.743640615405798"><ele>849.0</ele><time>2026-04-14T09:59:36Z</time></trkpt><trkpt lat="38.053586771384886" lon="15.743556841735526"><ele>849.0</ele><time>2026-04-14T09:59:37Z</time></trkpt><trkpt lat="38.053500103518616" lon="15.743485631988161"><ele>849.0</ele><time>2026-04-14T09:59:38Z</time></trkpt><trkpt lat="38.05341418955262" lon="15.743426282544402"><ele>849.0</ele><time>2026-04-14T09:59:39Z</time></trkpt><trkpt lat="38.05332910834222" lon="15.743378462188039"><ele>849.0</ele><time>2026-04-14T09:59:40Z</time></trkpt><trkpt lat="38.053251519074045" lon="15.743344626780944"><ele>849.0</ele><time>2026-04-14T09:59:41Z</time></trkpt><trkpt lat="38.0531439729864" lon="15.743355122197942"><ele>849.0</ele><time>2026-04-14T09:59:42Z</time></trkpt><trkpt lat="38.05306361920861" lon="15.74331811013668"><ele>849.0</ele><time>2026-04-14T09:59:43Z</time></trkpt><trkpt lat="38.052987328322985" lon="15.743290655783007"><ele>849.0</ele><time>2026-04-14T09:59:44Z</time></trkpt><trkpt lat="38.05291382048516" lon="15.743260675432685"><ele>843.0</ele><time>2026-04-14T09:59:45Z</time></trkpt><trkpt lat="38.05281227478096" lon="15.74317233977355"><ele>837.0</ele><time>2026-04-14T09:59:47Z</time></trkpt><trkpt lat="38.05278871215416" lon="15.743082787690366"><ele>831.0</ele><time>2026-04-14T09:59:49Z</time></trkpt><trkpt lat="38.052667521381096" lon="15.743119451815254"><ele>825.0</ele><time>2026-04-14T09:59:52Z</time></trkpt><trkpt lat="38.05262907884887" lon="15.743223210210859"><ele>819.0</ele><time>2026-04-14T09:59:54Z</time></trkpt><trkpt lat="38.05272619646408" lon="15.743360159892635"><ele>819.0</ele><time>2026-04-14T09:59:55Z</time></trkpt><trkpt lat="38.05278155256295" lon="15.743435094410584"><ele>819.0</ele><time>2026-04-14T09:59:56Z</time></trkpt><trkpt lat="38.05283616552819" lon="15.743504014696265"><ele>819.0</ele><time>2026-04-14T09:59:57Z</time></trkpt><trkpt lat="38.05288483546214" lon="15.743568519435168"><ele>819.0</ele><time>2026-04-14T09:59:58Z</time></trkpt><trkpt lat="38.05292751767702" lon="15.743632018155138"><ele>819.0</ele><time>2026-04-14T09:59:59Z</time></trkpt><trkpt lat="38.05300094643737" lon="15.743737698587237"><ele>819.0</ele><time>2026-04-14T10:00:01Z</time></trkpt><trkpt lat="38.0530686770807" lon="15.743810438704399"><ele>816.0</ele><time>2026-04-14T10:00:03Z</time></trkpt><trkpt lat="38.05311050939999" lon="15.743904074378287"><ele>813.0</ele><time>2026-04-14T10:00:06Z</time></trkpt><trkpt lat="38.05301645440348" lon="15.743820786218732"><ele>810.0</ele><time>2026-04-14T10:00:09Z</time></trkpt><trkpt lat="38.052940174124586" lon="15.743805831371402"><ele>807.0</ele><time>2026-04-14T10:00:11Z</time></trkpt><trkpt lat="38.052873511418774" lon="15.743838406974227"><ele>804.0</ele><time>2026-04-14T10:00:12Z</time></trkpt><trkpt lat="38.05277472986148" lon="15.743888971531922"><ele>804.0</ele><time>2026-04-14T10:00:14Z</time></trkpt><trkpt lat="38.05269967946923" lon="15.743899339463121"><ele>804.0</ele><time>2026-04-14T10:00:16Z</time></trkpt><trkpt lat="38.05263161212197" lon="15.74384847272309"><ele>804.0</ele><time>2026-04-14T10:00:18Z</time></trkpt><trkpt lat="38.052543772102915" lon="15.743934858618173"><ele>804.0</ele><time>2026-04-14T10:00:20Z</time></trkpt><trkpt lat="38.052583277617266" lon="15.744019113368571"><ele>804.0</ele><time>2026-04-14T10:00:21Z</time></trkpt><trkpt lat="38.05264283598184" lon="15.744065276056897"><ele>804.0</ele><time>2026-04-14T10:00:23Z</time></trkpt><trkpt lat="38.052747805622246" lon="15.744088136917005"><ele>804.0</ele><time>2026-04-14T10:00:25Z</time></trkpt><trkpt lat="38.052826529929625" lon="15.744187383106757"><ele>804.0</ele><time>2026-04-14T10:00:27Z</time></trkpt><trkpt lat="38.05284771253446" lon="15.744272821481427"><ele>804.0</ele><time>2026-04-14T10:00:28Z</time></trkpt><trkpt lat="38.05287379499444" lon="15.744349306480773"><ele>804.0</ele><time>2026-04-14T10:00:29Z</time></trkpt><trkpt lat="38.05293642907595" lon="15.74443414758935"><ele>804.0</ele><time>2026-04-14T10:00:31Z</time></trkpt><trkpt lat="38.053022325236704" lon="15.744459262684986"><ele>804.0</ele><time>2026-04-14T10:00:33Z</time></trkpt><trkpt lat="38.053113838677575" lon="15.744442700431037"><ele>802.4000000000001</ele><time>2026-04-14T10:00:35Z</time></trkpt><trkpt lat="38.0531362134782" lon="15.744540120586215"><ele>800.8</ele><time>2026-04-14T10:00:37Z</time></trkpt><trkpt lat="38.05308795255562" lon="15.744673629496688"><ele>799.2</ele><time>2026-04-14T10:00:39Z</time></trkpt><trkpt lat="38.05302787273453" lon="15.744697707485905"><ele>797.5999999999999</ele><time>2026-04-14T10:00:40Z</time></trkpt><trkpt lat="38.05292461976534" lon="15.744711822036068"><ele>796.0</ele><time>2026-04-14T10:00:42Z</time></trkpt><trkpt lat="38.0528301596382" lon="15.744772078889797"><ele>796.0</ele><time>2026-04-14T10:00:44Z</time></trkpt><trkpt lat="38.052744378167596" lon="15.74484261872672"><ele>796.0</ele><time>2026-04-14T10:00:46Z</time></trkpt><trkpt lat="38.05267275732152" lon="15.74492821999772"><ele>796.0</ele><time>2026-04-14T10:00:48Z</time></trkpt><trkpt lat="38.052568153971336" lon="15.745002521633818"><ele>796.0</ele><time>2026-04-14T10:00:50Z</time></trkpt><trkpt lat="38.0524805266022" lon="15.745079886414054"><ele>796.0</ele><time>2026-04-14T10:00:52Z</time></trkpt><trkpt lat="38.0524035396332" lon="15.74517349987528"><ele>790.4</ele><time>2026-04-14T10:00:54Z</time></trkpt><trkpt lat="38.05230777597304" lon="15.745254382990636"><ele>784.8</ele><time>2026-04-14T10:00:56Z</time></trkpt><trkpt lat="38.052208095676654" lon="15.745291423370615"><ele>779.1999999999999</ele><time>2026-04-14T10:00:58Z</time></trkpt><trkpt lat="38.05212529953243" lon="15.745326577369035"><ele>773.5999999999999</ele><time>2026-04-14T10:01:00Z</time></trkpt><trkpt lat="38.052040019985895" lon="15.74536451530893"><ele>768.0</ele><time>2026-04-14T10:01:02Z</time></trkpt><trkpt lat="38.05198140291679" lon="15.74545119040485"><ele>768.0</ele><time>2026-04-14T10:01:04Z</time></trkpt><trkpt lat="38.05191075151435" lon="15.745561096995665"><ele>768.0</ele><time>2026-04-14T10:01:05.999Z</time></trkpt><trkpt lat="38.05184264915988" lon="15.74565204929476"><ele>768.0</ele><time>2026-04-14T10:01:07.999Z</time></trkpt><trkpt lat="38.05176780070058" lon="15.745730856366807"><ele>768.0</ele><time>2026-04-14T10:01:09.999Z</time></trkpt><trkpt lat="38.0517629331256" lon="15.74581135367389"><ele>768.0</ele><time>2026-04-14T10:01:10.999Z</time></trkpt><trkpt lat="38.05175430446638" lon="15.745944621689452"><ele>768.4</ele><time>2026-04-14T10:01:12.999Z</time></trkpt><trkpt lat="38.05175506429927" lon="15.746101872294492"><ele>768.8</ele><time>2026-04-14T10:01:14.999Z</time></trkpt><trkpt lat="38.05176201334501" lon="15.746237408270238"><ele>769.2</ele><time>2026-04-14T10:01:16.999Z</time></trkpt><trkpt lat="38.05172141539909" lon="15.7463367159831"><ele>769.6</ele><time>2026-04-14T10:01:18.999Z</time></trkpt><trkpt lat="38.051669987179224" lon="15.746435889309982"><ele>770.0</ele><time>2026-04-14T10:01:20.999Z</time></trkpt><trkpt lat="38.05161252307139" lon="15.74638403301418"><ele>763.8</ele><time>2026-04-14T10:01:24.999Z</time></trkpt><trkpt lat="38.051597705011204" lon="15.746286809631195"><ele>757.6</ele><time>2026-04-14T10:01:26.999Z</time></trkpt><trkpt lat="38.05159244118357" lon="15.746154510184532"><ele>751.4000000000001</ele><time>2026-04-14T10:01:28.999Z</time></trkpt><trkpt lat="38.05151780625192" lon="15.746085043987087"><ele>745.2</ele><time>2026-04-14T10:01:30.999Z</time></trkpt><trkpt lat="38.05142893378775" lon="15.746005661029018"><ele>739.0</ele><time>2026-04-14T10:01:32.999Z</time></trkpt><trkpt lat="38.05135380217027" lon="15.745902290317531"><ele>737.6666666666667</ele><time>2026-04-14T10:01:35Z</time></trkpt><trkpt lat="38.05131873444711" lon="15.745824810032582"><ele>736.3333333333334</ele><time>2026-04-14T10:01:36Z</time></trkpt><trkpt lat="38.05132355232082" lon="15.745723900778271"><ele>735.0</ele><time>2026-04-14T10:01:37Z</time></trkpt><trkpt lat="38.05130615718346" lon="15.745587681957229"><ele>733.6666666666666</ele><time>2026-04-14T10:01:39Z</time></trkpt><trkpt lat="38.05127462038812" lon="15.745483389818963"><ele>732.3333333333333</ele><time>2026-04-14T10:01:41Z</time></trkpt><trkpt lat="38.051198936050454" lon="15.745494223966341"><ele>731.0</ele><time>2026-04-14T10:01:43Z</time></trkpt><trkpt lat="38.05117899201839" lon="15.745595490342536"><ele>731.0</ele><time>2026-04-14T10:01:45Z</time></trkpt><trkpt lat="38.051197320338474" lon="15.745735654485038"><ele>731.0</ele><time>2026-04-14T10:01:47Z</time></trkpt><trkpt lat="38.051200149480294" lon="15.74585881452124"><ele>731.0</ele><time>2026-04-14T10:01:49Z</time></trkpt><trkpt lat="38.0511230206188" lon="15.74595125176168"><ele>731.0</ele><time>2026-04-14T10:01:51Z</time></trkpt><trkpt lat="38.05106452715717" lon="15.745980930414557"><ele>731.0</ele><time>2026-04-14T10:01:52Z</time></trkpt><trkpt lat="38.05099305040469" lon="15.74597205555136"><ele>731.0</ele><time>2026-04-14T10:01:53Z</time></trkpt><trkpt lat="38.05089358902524" lon="15.746043951869337"><ele>731.0</ele><time>2026-04-14T10:01:55Z</time></trkpt><trkpt lat="38.05080584488244" lon="15.746112153547793"><ele>731.0</ele><time>2026-04-14T10:01:57Z</time></trkpt><trkpt lat="38.050736757074596" lon="15.746206917556249"><ele>731.0</ele><time>2026-04-14T10:01:59Z</time></trkpt><trkpt lat="38.05068857763631" lon="15.746297660441403"><ele>731.0</ele><time>2026-04-14T10:02:01Z</time></trkpt><trkpt lat="38.05069095370898" lon="15.746379363874297"><ele>732.5999999999999</ele><time>2026-04-14T10:02:02Z</time></trkpt><trkpt lat="38.050751987996364" lon="15.746487080928869"><ele>734.2</ele><time>2026-04-14T10:02:04Z</time></trkpt><trkpt lat="38.050806761290346" lon="15.746558160510254"><ele>735.8</ele><time>2026-04-14T10:02:06Z</time></trkpt><trkpt lat="38.05076749967966" lon="15.746643026635459"><ele>737.4000000000001</ele><time>2026-04-14T10:02:08Z</time></trkpt><trkpt lat="38.05066506316856" lon="15.74670938124571"><ele>739.0</ele><time>2026-04-14T10:02:10Z</time></trkpt><trkpt lat="38.050562206930444" lon="15.746768747422871"><ele>735.3333333333334</ele><time>2026-04-14T10:02:12Z</time></trkpt><trkpt lat="38.05055298892667" lon="15.746883989945514"><ele>731.6666666666667</ele><time>2026-04-14T10:02:14Z</time></trkpt><trkpt lat="38.050573195775875" lon="15.747025731498034"><ele>728.0</ele><time>2026-04-14T10:02:16Z</time></trkpt><trkpt lat="38.050586481145565" lon="15.74710506470209"><ele>724.3333333333334</ele><time>2026-04-14T10:02:17Z</time></trkpt><trkpt lat="38.05056813488152" lon="15.747184055985342"><ele>720.6666666666666</ele><time>2026-04-14T10:02:18Z</time></trkpt><trkpt lat="38.05058666223257" lon="15.747303558371666"><ele>717.0</ele><time>2026-04-14T10:02:20Z</time></trkpt><trkpt lat="38.05060927067579" lon="15.7474242869297"><ele>717.0</ele><time>2026-04-14T10:02:22Z</time></trkpt><trkpt lat="38.0505358883188" lon="15.747525560663085"><ele>717.0</ele><time>2026-04-14T10:02:24Z</time></trkpt><trkpt lat="38.05045198428389" lon="15.747622053825571"><ele>717.0</ele><time>2026-04-14T10:02:26Z</time></trkpt><trkpt lat="38.05037990478313" lon="15.747643786214908"><ele>717.0</ele><time>2026-04-14T10:02:28Z</time></trkpt><trkpt lat="38.05031257549699" lon="15.747560026322999"><ele>717.0</ele><time>2026-04-14T10:02:30Z</time></trkpt><trkpt lat="38.050207031278845" lon="15.747518312266271"><ele>717.0</ele><time>2026-04-14T10:02:32Z</time></trkpt><trkpt lat="38.05009675312421" lon="15.747534832795235"><ele>717.0</ele><time>2026-04-14T10:02:34Z</time></trkpt><trkpt lat="38.050016475653415" lon="15.747523441696643"><ele>717.0</ele><time>2026-04-14T10:02:36Z</time></trkpt><trkpt lat="38.04996957115861" lon="15.7474516127095"><ele>717.0</ele><time>2026-04-14T10:02:38Z</time></trkpt><trkpt lat="38.04992634556278" lon="15.747354118942697"><ele>717.0</ele><time>2026-04-14T10:02:40Z</time></trkpt><trkpt lat="38.04981749471095" lon="15.747360464375822"><ele>712.3333333333334</ele><time>2026-04-14T10:02:42Z</time></trkpt><trkpt lat="38.04977025530723" lon="15.747482843341775"><ele>707.6666666666666</ele><time>2026-04-14T10:02:44Z</time></trkpt><trkpt lat="38.04974539687582" lon="15.747584970983326"><ele>703.0</ele><time>2026-04-14T10:02:46Z</time></trkpt><trkpt lat="38.04970842268914" lon="15.747672642732443"><ele>698.3333333333333</ele><time>2026-04-14T10:02:48Z</time></trkpt><trkpt lat="38.04963477769382" lon="15.74763892522088"><ele>693.6666666666666</ele><time>2026-04-14T10:02:51Z</time></trkpt><trkpt lat="38.04958947202512" lon="15.747541741802959"><ele>689.0</ele><time>2026-04-14T10:02:53Z</time></trkpt><trkpt lat="38.04959486520149" lon="15.747444847581324"><ele>689.0</ele><time>2026-04-14T10:02:55Z</time></trkpt><trkpt lat="38.0496212337992" lon="15.747315114778841"><ele>689.0</ele><time>2026-04-14T10:02:57Z</time></trkpt><trkpt lat="38.049617388001394" lon="15.747235101361468"><ele>689.0</ele><time>2026-04-14T10:02:58Z</time></trkpt><trkpt lat="38.04963918685501" lon="15.74714897262857"><ele>689.0</ele><time>2026-04-14T10:02:59Z</time></trkpt><trkpt lat="38.04965387081985" lon="15.747067123193577"><ele>689.0</ele><time>2026-04-14T10:03:00Z</time></trkpt><trkpt lat="38.049685544422225" lon="15.746993642195235"><ele>689.0</ele><time>2026-04-14T10:03:01Z</time></trkpt><trkpt lat="38.04970628629232" lon="15.746899892641181"><ele>689.0</ele><time>2026-04-14T10:03:02Z</time></trkpt><trkpt lat="38.04973085799644" lon="15.746741984427269"><ele>686.1666666666666</ele><time>2026-04-14T10:03:03.999Z</time></trkpt><trkpt lat="38.04976076656104" lon="15.746670327393382"><ele>683.3333333333333</ele><time>2026-04-14T10:03:04.999Z</time></trkpt><trkpt lat="38.04979134070071" lon="15.74653094296274"><ele>680.5</ele><time>2026-04-14T10:03:06.999Z</time></trkpt><trkpt lat="38.04984789990747" lon="15.746451584566916"><ele>677.6666666666666</ele><time>2026-04-14T10:03:08.999Z</time></trkpt><trkpt lat="38.04991976196884" lon="15.746418261564395"><ele>674.8333333333334</ele><time>2026-04-14T10:03:10.999Z</time></trkpt><trkpt lat="38.04999817244989" lon="15.746342691700075"><ele>672.0</ele><time>2026-04-14T10:03:12.999Z</time></trkpt><trkpt lat="38.05000914482274" lon="15.746262088462853"><ele>672.0</ele><time>2026-04-14T10:03:13.999Z</time></trkpt><trkpt lat="38.04997890823629" lon="15.746185867851088"><ele>672.0</ele><time>2026-04-14T10:03:14.999Z</time></trkpt><trkpt lat="38.04993141552893" lon="15.746115498520433"><ele>672.0</ele><time>2026-04-14T10:03:15.999Z</time></trkpt><trkpt lat="38.04987302197981" lon="15.745983265078598"><ele>672.0</ele><time>2026-04-14T10:03:17.999Z</time></trkpt><trkpt lat="38.049845325821835" lon="15.745869948637122"><ele>672.0</ele><time>2026-04-14T10:03:19.999Z</time></trkpt><trkpt lat="38.049869131702266" lon="15.745723728553731"><ele>674.75</ele><time>2026-04-14T10:03:21.999Z</time></trkpt><trkpt lat="38.04987813651613" lon="15.745564635591913"><ele>677.5</ele><time>2026-04-14T10:03:23.999Z</time></trkpt><trkpt lat="38.049897850940965" lon="15.745420398881572"><ele>680.25</ele><time>2026-04-14T10:03:25.999Z</time></trkpt><trkpt lat="38.04994129737964" lon="15.745284511840085"><ele>683.0</ele><time>2026-04-14T10:03:27.999Z</time></trkpt><trkpt lat="38.049935420561" lon="15.745158040426785"><ele>683.0</ele><time>2026-04-14T10:03:29.999Z</time></trkpt><trkpt lat="38.049872233179904" lon="15.74510323533728"><ele>683.0</ele><time>2026-04-14T10:03:31.999Z</time></trkpt><trkpt lat="38.04976451735794" lon="15.745199524879078"><ele>683.0</ele><time>2026-04-14T10:03:39.999Z</time></trkpt><trkpt lat="38.04969995362441" lon="15.745241336990814"><ele>683.0</ele><time>2026-04-14T10:03:42Z</time></trkpt><trkpt lat="38.04964542831679" lon="15.745292855084585"><ele>683.0</ele><time>2026-04-14T10:03:44Z</time></trkpt><trkpt lat="38.04963382824528" lon="15.745400212592118"><ele>683.0</ele><time>2026-04-14T10:03:46Z</time></trkpt><trkpt lat="38.049645154915304" lon="15.745516176387769"><ele>678.3333333333333</ele><time>2026-04-14T10:03:48Z</time></trkpt><trkpt lat="38.04964612947636" lon="15.745623121152558"><ele>673.6666666666666</ele><time>2026-04-14T10:03:50Z</time></trkpt><trkpt lat="38.049635465230956" lon="15.74571393030091"><ele>669.0</ele><time>2026-04-14T10:03:52Z</time></trkpt><trkpt lat="38.04961172492399" lon="15.745791132884813"><ele>664.3333333333334</ele><time>2026-04-14T10:03:54Z</time></trkpt><trkpt lat="38.049557493022235" lon="15.745857155693946"><ele>659.6666666666667</ele><time>2026-04-14T10:03:56Z</time></trkpt><trkpt lat="38.04949485087479" lon="15.745916568503954"><ele>655.0</ele><time>2026-04-14T10:03:58Z</time></trkpt><trkpt lat="38.04942103867759" lon="15.745984351627381"><ele>658.4</ele><time>2026-04-14T10:04:00Z</time></trkpt><trkpt lat="38.04932953606658" lon="15.746048312589888"><ele>661.8</ele><time>2026-04-14T10:04:02Z</time></trkpt><trkpt lat="38.049268687091775" lon="15.746151088506904"><ele>665.2</ele><time>2026-04-14T10:04:04Z</time></trkpt><trkpt lat="38.04918911567784" lon="15.746167979296278"><ele>668.6</ele><time>2026-04-14T10:04:06Z</time></trkpt><trkpt lat="38.0491011982377" lon="15.746158863029025"><ele>672.0</ele><time>2026-04-14T10:04:08Z</time></trkpt><trkpt lat="38.048989792921425" lon="15.746173707917201"><ele>666.1666666666666</ele><time>2026-04-14T10:04:10Z</time></trkpt><trkpt lat="38.048922087305236" lon="15.746270146152378"><ele>660.3333333333334</ele><time>2026-04-14T10:04:12Z</time></trkpt><trkpt lat="38.04885495104119" lon="15.746316324894343"><ele>654.5</ele><time>2026-04-14T10:04:14Z</time></trkpt><trkpt lat="38.04879650875183" lon="15.746252173542207"><ele>648.6666666666667</ele><time>2026-04-14T10:04:18Z</time></trkpt><trkpt lat="38.04884575675566" lon="15.746154154116264"><ele>642.8333333333334</ele><time>2026-04-14T10:04:20Z</time></trkpt><trkpt lat="38.04892887353025" lon="15.746099479482314"><ele>637.0</ele><time>2026-04-14T10:04:22Z</time></trkpt><trkpt lat="38.048993676981766" lon="15.746036560459347"><ele>637.0</ele><time>2026-04-14T10:04:24Z</time></trkpt><trkpt lat="38.049061837744425" lon="15.74597871696613"><ele>637.0</ele><time>2026-04-14T10:04:26Z</time></trkpt><trkpt lat="38.049115590794436" lon="15.745935049626691"><ele>637.0</ele><time>2026-04-14T10:04:28Z</time></trkpt><trkpt lat="38.04912486538762" lon="15.745836224060053"><ele>637.0</ele><time>2026-04-14T10:04:30Z</time></trkpt><trkpt lat="38.04902529932381" lon="15.745753550116556"><ele>637.0</ele><time>2026-04-14T10:04:32Z</time></trkpt><trkpt lat="38.04895565191716" lon="15.745775046609202"><ele>637.0</ele><time>2026-04-14T10:04:33Z</time></trkpt><trkpt lat="38.048841196049295" lon="15.745785464396294"><ele>637.0</ele><time>2026-04-14T10:04:35Z</time></trkpt><trkpt lat="38.0487261350255" lon="15.745811419983793"><ele>637.0</ele><time>2026-04-14T10:04:37Z</time></trkpt><trkpt lat="38.048660274702115" lon="15.745822748466848"><ele>637.0</ele><time>2026-04-14T10:04:38Z</time></trkpt><trkpt lat="38.04859682702746" lon="15.745828607191925"><ele>637.0</ele><time>2026-04-14T10:04:39Z</time></trkpt><trkpt lat="38.048529381997604" lon="15.745828218754559"><ele>637.0</ele><time>2026-04-14T10:04:40Z</time></trkpt><trkpt lat="38.04840935540256" lon="15.745857865147464"><ele>637.0</ele><time>2026-04-14T10:04:42Z</time></trkpt><trkpt lat="38.04835074897726" lon="15.745887306326043"><ele>636.8000000000001</ele><time>2026-04-14T10:04:43Z</time></trkpt><trkpt lat="38.04828849500091" lon="15.745924705212142"><ele>636.6</ele><time>2026-04-14T10:04:44Z</time></trkpt><trkpt lat="38.048191871769745" lon="15.745988415246122"><ele>636.4000000000001</ele><time>2026-04-14T10:04:46Z</time></trkpt><trkpt lat="38.048100861258966" lon="15.746046216886732"><ele>636.2</ele><time>2026-04-14T10:04:48Z</time></trkpt><trkpt lat="38.04799358189784" lon="15.746115474837605"><ele>636.0</ele><time>2026-04-14T10:04:50Z</time></trkpt><trkpt lat="38.047938371201795" lon="15.74615977433985"><ele>630.6</ele><time>2026-04-14T10:04:51Z</time></trkpt><trkpt lat="38.047887244657545" lon="15.746208374351212"><ele>625.2</ele><time>2026-04-14T10:04:52Z</time></trkpt><trkpt lat="38.04779642967192" lon="15.74630883506362"><ele>619.8</ele><time>2026-04-14T10:04:53.999Z</time></trkpt><trkpt lat="38.047728193894436" lon="15.746424995882435"><ele>614.4</ele><time>2026-04-14T10:04:55.999Z</time></trkpt><trkpt lat="38.047664749251226" lon="15.74652986370603"><ele>609.0</ele><time>2026-04-14T10:04:57.999Z</time></trkpt><trkpt lat="38.047590040100665" lon="15.746617744717762"><ele>609.0</ele><time>2026-04-14T10:04:59.999Z</time></trkpt><trkpt lat="38.04749508501102" lon="15.746694675003342"><ele>609.0</ele><time>2026-04-14T10:05:01.999Z</time></trkpt><trkpt lat="38.047387800043445" lon="15.746767773734273"><ele>609.0</ele><time>2026-04-14T10:05:03.999Z</time></trkpt><trkpt lat="38.04728378208296" lon="15.746861053893786"><ele>609.0</ele><time>2026-04-14T10:05:05.999Z</time></trkpt><trkpt lat="38.04723100587748" lon="15.746906139571108"><ele>609.0</ele><time>2026-04-14T10:05:06.999Z</time></trkpt><trkpt lat="38.0471277639546" lon="15.746965149004637"><ele>602.75</ele><time>2026-04-14T10:05:08.999Z</time></trkpt><trkpt lat="38.04702602358697" lon="15.747042097646462"><ele>596.5</ele><time>2026-04-14T10:05:10.999Z</time></trkpt><trkpt lat="38.046946060723535" lon="15.747123184732121"><ele>590.25</ele><time>2026-04-14T10:05:12.999Z</time></trkpt><trkpt lat="38.046848430191474" lon="15.747191493403495"><ele>584.0</ele><time>2026-04-14T10:05:14.999Z</time></trkpt><trkpt lat="38.046734098374735" lon="15.747247466956765"><ele>584.0</ele><time>2026-04-14T10:05:16.999Z</time></trkpt><trkpt lat="38.04666819435382" lon="15.747298138644723"><ele>584.0</ele><time>2026-04-14T10:05:17.999Z</time></trkpt><trkpt lat="38.04660675335777" lon="15.747346002662717"><ele>584.0</ele><time>2026-04-14T10:05:18.999Z</time></trkpt><trkpt lat="38.04654319593786" lon="15.747392210395494"><ele>584.0</ele><time>2026-04-14T10:05:19.999Z</time></trkpt><trkpt lat="38.046488729902144" lon="15.74744009372865"><ele>584.0</ele><time>2026-04-14T10:05:20.999Z</time></trkpt><trkpt lat="38.046433033377696" lon="15.747487317599322"><ele>584.0</ele><time>2026-04-14T10:05:21.999Z</time></trkpt><trkpt lat="38.04637179767987" lon="15.747525808717846"><ele>584.0</ele><time>2026-04-14T10:05:22.999Z</time></trkpt><trkpt lat="38.04625319121344" lon="15.747561217708405"><ele>578.8</ele><time>2026-04-14T10:05:24.999Z</time></trkpt><trkpt lat="38.04614026113601" lon="15.747593938215335"><ele>573.5999999999999</ele><time>2026-04-14T10:05:26.999Z</time></trkpt><trkpt lat="38.046034400360234" lon="15.747622048235852"><ele>568.4</ele><time>2026-04-14T10:05:28.999Z</time></trkpt><trkpt lat="38.04593496233225" lon="15.747674348863148"><ele>563.1999999999999</ele><time>2026-04-14T10:05:30.999Z</time></trkpt><trkpt lat="38.045836662018736" lon="15.747680882088648"><ele>558.0</ele><time>2026-04-14T10:05:32.999Z</time></trkpt><trkpt lat="38.04575168513443" lon="15.747677572087579"><ele>557.3333333333334</ele><time>2026-04-14T10:05:34.999Z</time></trkpt><trkpt lat="38.04569556863973" lon="15.747756615621768"><ele>556.6666666666666</ele><time>2026-04-14T10:05:36.999Z</time></trkpt><trkpt lat="38.045712453385335" lon="15.747835399415665"><ele>556.0</ele><time>2026-04-14T10:05:37.999Z</time></trkpt><trkpt lat="38.04568288988135" lon="15.747929064070727"><ele>555.3333333333333</ele><time>2026-04-14T10:05:39.999Z</time></trkpt><trkpt lat="38.04558345710952" lon="15.747961235741833"><ele>554.6666666666666</ele><time>2026-04-14T10:05:41.999Z</time></trkpt><trkpt lat="38.04552105504502" lon="15.74797244310739"><ele>554.0</ele><time>2026-04-14T10:05:42.999Z</time></trkpt><trkpt lat="38.04545633682531" lon="15.747969464721447"><ele>554.0</ele><time>2026-04-14T10:05:43.999Z</time></trkpt><trkpt lat="38.04533968722469" lon="15.747972529333536"><ele>554.0</ele><time>2026-04-14T10:05:45.999Z</time></trkpt><trkpt lat="38.04528222058678" lon="15.74793595783332"><ele>554.0</ele><time>2026-04-14T10:05:47Z</time></trkpt><trkpt lat="38.045236671149326" lon="15.747869582526361"><ele>554.0</ele><time>2026-04-14T10:05:48Z</time></trkpt><trkpt lat="38.045123591366526" lon="15.74781688897036"><ele>554.0</ele><time>2026-04-14T10:05:50Z</time></trkpt><trkpt lat="38.04500415033602" lon="15.74776947308913"><ele>552.7142857142857</ele><time>2026-04-14T10:05:52Z</time></trkpt><trkpt lat="38.044945528982986" lon="15.747720660619144"><ele>551.4285714285713</ele><time>2026-04-14T10:05:53Z</time></trkpt><trkpt lat="38.04488036356446" lon="15.747690305234535"><ele>550.1428571428571</ele><time>2026-04-14T10:05:54Z</time></trkpt><trkpt lat="38.04481934188251" lon="15.747652907109556"><ele>548.8571428571429</ele><time>2026-04-14T10:05:55Z</time></trkpt><trkpt lat="38.044734780062406" lon="15.747585177793715"><ele>547.5714285714287</ele><time>2026-04-14T10:05:57Z</time></trkpt><trkpt lat="38.04469195444425" lon="15.747524832467265"><ele>546.2857142857143</ele><time>2026-04-14T10:06:00Z</time></trkpt><trkpt lat="38.04475257513055" lon="15.747473160721514"><ele>545.0</ele><time>2026-04-14T10:06:01Z</time></trkpt><trkpt lat="38.04468756522412" lon="15.74744099629296"><ele>543.3333333333333</ele><time>2026-04-14T10:09:33.999Z</time></trkpt><trkpt lat="38.04475794990763" lon="15.747347005894172"><ele>541.6666666666666</ele><time>2026-04-14T10:17:35.999Z</time></trkpt><trkpt lat="38.044798777332964" lon="15.747265162455625"><ele>540.0</ele><time>2026-04-14T10:17:36.999Z</time></trkpt><trkpt lat="38.04482360017896" lon="15.747172459694914"><ele>538.3333333333334</ele><time>2026-04-14T10:17:37.999Z</time></trkpt><trkpt lat="38.044836253063316" lon="15.747071393446229"><ele>536.6666666666667</ele><time>2026-04-14T10:17:38.999Z</time></trkpt><trkpt lat="38.04487609669177" lon="15.746973985714407"><ele>535.0</ele><time>2026-04-14T10:17:39.999Z</time></trkpt><trkpt lat="38.04488473676898" lon="15.746863591316249"><ele>534.2</ele><time>2026-04-14T10:17:40.999Z</time></trkpt><trkpt lat="38.044911602620786" lon="15.746754555609128"><ele>533.4</ele><time>2026-04-14T10:17:41.999Z</time></trkpt><trkpt lat="38.044930526339755" lon="15.746638790515961"><ele>532.6</ele><time>2026-04-14T10:17:42.999Z</time></trkpt><trkpt lat="38.04495963677022" lon="15.746524486808406"><ele>531.8</ele><time>2026-04-14T10:17:43.999Z</time></trkpt><trkpt lat="38.04496322437682" lon="15.746407975686115"><ele>531.0</ele><time>2026-04-14T10:17:44.999Z</time></trkpt><trkpt lat="38.04494191333248" lon="15.746285657518772"><ele>530.0</ele><time>2026-04-14T10:17:45.999Z</time></trkpt><trkpt lat="38.04493322934964" lon="15.746159745896858"><ele>529.0</ele><time>2026-04-14T10:17:46.999Z</time></trkpt><trkpt lat="38.044915573325234" lon="15.746040204140511"><ele>528.0</ele><time>2026-04-14T10:17:47.999Z</time></trkpt><trkpt lat="38.04488586020005" lon="15.745920807380116"><ele>527.0</ele><time>2026-04-14T10:17:48.999Z</time></trkpt><trkpt lat="38.04484721018495" lon="15.745805969028439"><ele>526.0</ele><time>2026-04-14T10:17:49.999Z</time></trkpt><trkpt lat="38.044818935019016" lon="15.7456818290484"><ele>524.8</ele><time>2026-04-14T10:17:50.999Z</time></trkpt><trkpt lat="38.0447662290316" lon="15.745568766306667"><ele>523.6</ele><time>2026-04-14T10:17:51.999Z</time></trkpt><trkpt lat="38.044698669720596" lon="15.745469034809494"><ele>522.4</ele><time>2026-04-14T10:17:52.999Z</time></trkpt><trkpt lat="38.044615565571796" lon="15.745381145996163"><ele>521.2</ele><time>2026-04-14T10:17:53.999Z</time></trkpt><trkpt lat="38.04452995127297" lon="15.745307909438688"><ele>520.0</ele><time>2026-04-14T10:17:54.999Z</time></trkpt><trkpt lat="38.044442693986525" lon="15.745227364313793"><ele>519.4</ele><time>2026-04-14T10:17:55.999Z</time></trkpt><trkpt lat="38.04436168967995" lon="15.74514927558877"><ele>518.8</ele><time>2026-04-14T10:17:56.999Z</time></trkpt><trkpt lat="38.044282371993965" lon="15.745057980903374"><ele>518.2</ele><time>2026-04-14T10:17:57.999Z</time></trkpt><trkpt lat="38.044201128470654" lon="15.744963840852195"><ele>517.6</ele><time>2026-04-14T10:17:58.999Z</time></trkpt><trkpt lat="38.04415444323959" lon="15.744829407927428"><ele>517.0</ele><time>2026-04-14T10:17:59.999Z</time></trkpt><trkpt lat="38.04409897185506" lon="15.744702553606345"><ele>516.75</ele><time>2026-04-14T10:18:00.999Z</time></trkpt><trkpt lat="38.04404110125938" lon="15.744568945970599"><ele>516.5</ele><time>2026-04-14T10:18:01.999Z</time></trkpt><trkpt lat="38.043973581056534" lon="15.74442585187977"><ele>516.25</ele><time>2026-04-14T10:18:02.999Z</time></trkpt><trkpt lat="38.04390438513067" lon="15.744282564508074"><ele>516.0</ele><time>2026-04-14T10:18:03.999Z</time></trkpt><trkpt lat="38.04383797197495" lon="15.74413249924916"><ele>514.25</ele><time>2026-04-14T10:18:04.999Z</time></trkpt><trkpt lat="38.04376950009788" lon="15.74397005751675"><ele>512.5</ele><time>2026-04-14T10:18:05.999Z</time></trkpt><trkpt lat="38.04370328797471" lon="15.74380642750343"><ele>510.75</ele><time>2026-04-14T10:18:06.999Z</time></trkpt><trkpt lat="38.04363964687216" lon="15.743647708622834"><ele>509.0</ele><time>2026-04-14T10:18:07.999Z</time></trkpt><trkpt lat="38.04357596759304" lon="15.7434916684614"><ele>509.0</ele><time>2026-04-14T10:18:08.999Z</time></trkpt><trkpt lat="38.04351704667579" lon="15.743348242039223"><ele>509.0</ele><time>2026-04-14T10:18:09.999Z</time></trkpt><trkpt lat="38.04345936227326" lon="15.743206468670214"><ele>509.0</ele><time>2026-04-14T10:18:10.999Z</time></trkpt><trkpt lat="38.04340306629193" lon="15.743068107588202"><ele>509.0</ele><time>2026-04-14T10:18:11.999Z</time></trkpt><trkpt lat="38.04334553168993" lon="15.74292952997371"><ele>507.25</ele><time>2026-04-14T10:18:12.999Z</time></trkpt><trkpt lat="38.043290788733884" lon="15.742797025523632"><ele>505.5</ele><time>2026-04-14T10:18:13.999Z</time></trkpt><trkpt lat="38.043241574377205" lon="15.742661570918276"><ele>503.75</ele><time>2026-04-14T10:18:14.999Z</time></trkpt><trkpt lat="38.04320710579926" lon="15.742518597437638"><ele>502.0</ele><time>2026-04-14T10:18:15.999Z</time></trkpt><trkpt lat="38.04319607725191" lon="15.742355082435056"><ele>502.0</ele><time>2026-04-14T10:18:16.999Z</time></trkpt><trkpt lat="38.0431914639225" lon="15.742175208835924"><ele>502.0</ele><time>2026-04-14T10:18:17.999Z</time></trkpt><trkpt lat="38.043189568093936" lon="15.741991076139794"><ele>502.0</ele><time>2026-04-14T10:18:18.999Z</time></trkpt><trkpt lat="38.0431745793904" lon="15.74180146322045"><ele>502.0</ele><time>2026-04-14T10:18:19.999Z</time></trkpt><trkpt lat="38.04317446450356" lon="15.741611869555333"><ele>501.0</ele><time>2026-04-14T10:18:20.999Z</time></trkpt><trkpt lat="38.04317449944824" lon="15.741421930748746"><ele>500.0</ele><time>2026-04-14T10:18:21.999Z</time></trkpt><trkpt lat="38.043190661075" lon="15.741231870515632"><ele>499.0</ele><time>2026-04-14T10:18:22.999Z</time></trkpt><trkpt lat="38.04319668137249" lon="15.741041431570796"><ele>497.5</ele><time>2026-04-14T10:18:23.999Z</time></trkpt><trkpt lat="38.04321202097446" lon="15.74085515860365"><ele>496.0</ele><time>2026-04-14T10:18:24.999Z</time></trkpt><trkpt lat="38.04323277361273" lon="15.740670944756769"><ele>494.5</ele><time>2026-04-14T10:18:25.999Z</time></trkpt><trkpt lat="38.043238279953066" lon="15.740481106880344"><ele>493.0</ele><time>2026-04-14T10:18:26.999Z</time></trkpt><trkpt lat="38.04326213682242" lon="15.740297318664313"><ele>494.0</ele><time>2026-04-14T10:18:27.999Z</time></trkpt><trkpt lat="38.04327697089695" lon="15.740114956729286"><ele>495.0</ele><time>2026-04-14T10:18:28.999Z</time></trkpt><trkpt lat="38.04329753503482" lon="15.739931418959129"><ele>496.0</ele><time>2026-04-14T10:18:29.999Z</time></trkpt><trkpt lat="38.0433028283353" lon="15.739747502226264"><ele>497.0</ele><time>2026-04-14T10:18:30.999Z</time></trkpt><trkpt lat="38.04331964495099" lon="15.739575581712405"><ele>497.25</ele><time>2026-04-14T10:18:31.999Z</time></trkpt><trkpt lat="38.04335321401472" lon="15.739403268831472"><ele>497.5</ele><time>2026-04-14T10:18:32.999Z</time></trkpt><trkpt lat="38.04338595645017" lon="15.739240457772228"><ele>497.75</ele><time>2026-04-14T10:18:33.999Z</time></trkpt><trkpt lat="38.043384447065534" lon="15.73906060153128"><ele>498.0</ele><time>2026-04-14T10:18:34.999Z</time></trkpt><trkpt lat="38.04337020745198" lon="15.738883194654324"><ele>496.25</ele><time>2026-04-14T10:18:35.999Z</time></trkpt><trkpt lat="38.043360771157396" lon="15.738704663732786"><ele>494.5</ele><time>2026-04-14T10:18:36.999Z</time></trkpt><trkpt lat="38.043360865813725" lon="15.738529998802333"><ele>492.75</ele><time>2026-04-14T10:18:37.999Z</time></trkpt><trkpt lat="38.04336888693319" lon="15.738360712892906"><ele>491.0</ele><time>2026-04-14T10:18:38.999Z</time></trkpt><trkpt lat="38.04338509983349" lon="15.738183970427752"><ele>488.25</ele><time>2026-04-14T10:18:39.999Z</time></trkpt><trkpt lat="38.043405033386584" lon="15.738018468141618"><ele>485.5</ele><time>2026-04-14T10:18:40.999Z</time></trkpt><trkpt lat="38.04341126030323" lon="15.737856126623265"><ele>482.75</ele><time>2026-04-14T10:18:41.999Z</time></trkpt><trkpt lat="38.04341632170395" lon="15.73769640036288"><ele>480.0</ele><time>2026-04-14T10:18:42.999Z</time></trkpt><trkpt lat="38.04340182419418" lon="15.73752548050213"><ele>479.75</ele><time>2026-04-14T10:18:43.999Z</time></trkpt><trkpt lat="38.04339911573937" lon="15.737347804592837"><ele>479.5</ele><time>2026-04-14T10:18:44.999Z</time></trkpt><trkpt lat="38.043380373627265" lon="15.737162975166935"><ele>479.25</ele><time>2026-04-14T10:18:45.999Z</time></trkpt><trkpt lat="38.04335953424788" lon="15.736973283745264"><ele>479.0</ele><time>2026-04-14T10:18:46.999Z</time></trkpt><trkpt lat="38.04332422524873" lon="15.736782852078845"><ele>475.66666666666663</ele><time>2026-04-14T10:18:47.999Z</time></trkpt><trkpt lat="38.043278570530305" lon="15.736593819779875"><ele>472.33333333333337</ele><time>2026-04-14T10:18:48.999Z</time></trkpt><trkpt lat="38.04323120895715" lon="15.736397888486824"><ele>469.0</ele><time>2026-04-14T10:18:49.999Z</time></trkpt><trkpt lat="38.043182630027275" lon="15.736195017395872"><ele>466.33333333333337</ele><time>2026-04-14T10:18:50.999Z</time></trkpt><trkpt lat="38.04313381112232" lon="15.735988264946876"><ele>463.66666666666663</ele><time>2026-04-14T10:18:51.999Z</time></trkpt><trkpt lat="38.043086509669145" lon="15.735784182423794"><ele>461.0</ele><time>2026-04-14T10:18:52.999Z</time></trkpt><trkpt lat="38.043045466287076" lon="15.735573961255037"><ele>461.0</ele><time>2026-04-14T10:18:53.999Z</time></trkpt><trkpt lat="38.04299896895539" lon="15.73536787113046"><ele>461.0</ele><time>2026-04-14T10:18:54.999Z</time></trkpt><trkpt lat="38.04292607893647" lon="15.735181925778365"><ele>461.0</ele><time>2026-04-14T10:18:55.999Z</time></trkpt><trkpt lat="38.04286042201327" lon="15.734998436361082"><ele>460.0</ele><time>2026-04-14T10:18:56.999Z</time></trkpt><trkpt lat="38.04278690511324" lon="15.734823490140519"><ele>459.0</ele><time>2026-04-14T10:18:57.999Z</time></trkpt><trkpt lat="38.042724187207185" lon="15.734633525820056"><ele>458.0</ele><time>2026-04-14T10:18:58.999Z</time></trkpt><trkpt lat="38.04264554120828" lon="15.73445564705553"><ele>458.5</ele><time>2026-04-14T10:18:59.999Z</time></trkpt><trkpt lat="38.042565669556815" lon="15.734279279059372"><ele>459.0</ele><time>2026-04-14T10:19:00.999Z</time></trkpt><trkpt lat="38.04218251506181" lon="15.733479719518026"><ele>456.5</ele><time>2026-04-14T10:19:05.999Z</time></trkpt><trkpt lat="38.0421048764496" lon="15.733345385177447"><ele>454.0</ele><time>2026-04-14T10:19:06.999Z</time></trkpt><trkpt lat="38.04202780151176" lon="15.733219756725271"><ele>451.5</ele><time>2026-04-14T10:19:07.999Z</time></trkpt><trkpt lat="38.04195538589882" lon="15.733095444063306"><ele>449.0</ele><time>2026-04-14T10:19:08.999Z</time></trkpt><trkpt lat="38.04188928247319" lon="15.732971550301691"><ele>449.0</ele><time>2026-04-14T10:19:09.999Z</time></trkpt><trkpt lat="38.04183954923565" lon="15.732839203749618"><ele>449.0</ele><time>2026-04-14T10:19:10.999Z</time></trkpt><trkpt lat="38.041814193382336" lon="15.732699579079435"><ele>449.0</ele><time>2026-04-14T10:19:11.999Z</time></trkpt><trkpt lat="38.041826823099896" lon="15.732562107409663"><ele>449.0</ele><time>2026-04-14T10:19:12.999Z</time></trkpt><trkpt lat="38.04186054098161" lon="15.732418275784813"><ele>447.5</ele><time>2026-04-14T10:19:13.999Z</time></trkpt><trkpt lat="38.04191476925324" lon="15.732272499599802"><ele>446.0</ele><time>2026-04-14T10:19:14.999Z</time></trkpt><trkpt lat="38.041984122233735" lon="15.732128298954384"><ele>444.5</ele><time>2026-04-14T10:19:15.999Z</time></trkpt><trkpt lat="38.04206713663095" lon="15.73199846586981"><ele>443.0</ele><time>2026-04-14T10:19:16.999Z</time></trkpt><trkpt lat="38.042154201202464" lon="15.731873175128984"><ele>441.5</ele><time>2026-04-14T10:19:17.999Z</time></trkpt><trkpt lat="38.04225950109021" lon="15.731787191709161"><ele>440.0</ele><time>2026-04-14T10:19:18.999Z</time></trkpt><trkpt lat="38.042374256420665" lon="15.731726792018668"><ele>438.5</ele><time>2026-04-14T10:19:19.999Z</time></trkpt><trkpt lat="38.04250119182968" lon="15.731687750371698"><ele>437.0</ele><time>2026-04-14T10:19:20.999Z</time></trkpt><trkpt lat="38.042626882502255" lon="15.731651186793117"><ele>437.0</ele><time>2026-04-14T10:19:21.999Z</time></trkpt><trkpt lat="38.04273733216727" lon="15.731600692025484"><ele>437.0</ele><time>2026-04-14T10:19:22.999Z</time></trkpt><trkpt lat="38.04282821933628" lon="15.731518274783703"><ele>437.0</ele><time>2026-04-14T10:19:23.999Z</time></trkpt><trkpt lat="38.04292214910049" lon="15.73142614525209"><ele>437.0</ele><time>2026-04-14T10:19:24.999Z</time></trkpt><trkpt lat="38.04296084804564" lon="15.731263208907405"><ele>437.0</ele><time>2026-04-14T10:19:25.999Z</time></trkpt><trkpt lat="38.04300222023251" lon="15.731104046148486"><ele>437.0</ele><time>2026-04-14T10:19:26.999Z</time></trkpt><trkpt lat="38.043050422373426" lon="15.730945504619347"><ele>437.0</ele><time>2026-04-14T10:19:27.999Z</time></trkpt><trkpt lat="38.04314350883478" lon="15.730825567353246"><ele>437.0</ele><time>2026-04-14T10:19:28.999Z</time></trkpt><trkpt lat="38.043216573443814" lon="15.73069315283439"><ele>436.25</ele><time>2026-04-14T10:19:29.999Z</time></trkpt><trkpt lat="38.043291508220115" lon="15.7305741433696"><ele>435.5</ele><time>2026-04-14T10:19:30.999Z</time></trkpt><trkpt lat="38.043351935577235" lon="15.730442606667921"><ele>434.75</ele><time>2026-04-14T10:19:31.999Z</time></trkpt><trkpt lat="38.043400111531625" lon="15.73029874668172"><ele>434.0</ele><time>2026-04-14T10:19:32.999Z</time></trkpt><trkpt lat="38.04344915580223" lon="15.730156362641331"><ele>431.75</ele><time>2026-04-14T10:19:34Z</time></trkpt><trkpt lat="38.04345279357477" lon="15.729995947305952"><ele>429.5</ele><time>2026-04-14T10:19:35Z</time></trkpt><trkpt lat="38.0434553016702" lon="15.72983471325287"><ele>427.25</ele><time>2026-04-14T10:19:36Z</time></trkpt><trkpt lat="38.04346750985447" lon="15.72966893931468"><ele>425.0</ele><time>2026-04-14T10:19:37Z</time></trkpt><trkpt lat="38.04346646597531" lon="15.729506806133333"><ele>422.75</ele><time>2026-04-14T10:19:38Z</time></trkpt><trkpt lat="38.04346646597788" lon="15.729348463252261"><ele>420.5</ele><time>2026-04-14T10:19:39Z</time></trkpt><trkpt lat="38.04346852298893" lon="15.729190033853788"><ele>418.25</ele><time>2026-04-14T10:19:40Z</time></trkpt><trkpt lat="38.04347249282959" lon="15.729027441050471"><ele>416.0</ele><time>2026-04-14T10:19:41Z</time></trkpt><trkpt lat="38.04347931878762" lon="15.728877809570287"><ele>416.0</ele><time>2026-04-14T10:19:42Z</time></trkpt><trkpt lat="38.04345802579091" lon="15.72873752841879"><ele>416.0</ele><time>2026-04-14T10:19:43Z</time></trkpt><trkpt lat="38.0434475313866" lon="15.728602951544215"><ele>416.0</ele><time>2026-04-14T10:19:44Z</time></trkpt><trkpt lat="38.04338850617033" lon="15.728488004674574"><ele>416.0</ele><time>2026-04-14T10:19:45Z</time></trkpt><trkpt lat="38.04331935953016" lon="15.728393285854345"><ele>416.0</ele><time>2026-04-14T10:19:46Z</time></trkpt><trkpt lat="38.043232091268166" lon="15.728323762865399"><ele>415.6</ele><time>2026-04-14T10:19:47Z</time></trkpt><trkpt lat="38.04313129879897" lon="15.72829672515231"><ele>415.20000000000005</ele><time>2026-04-14T10:19:48Z</time></trkpt><trkpt lat="38.04303370708679" lon="15.728269037451767"><ele>414.79999999999995</ele><time>2026-04-14T10:19:49Z</time></trkpt><trkpt lat="38.04293033681584" lon="15.728237320306572"><ele>414.4</ele><time>2026-04-14T10:19:50Z</time></trkpt><trkpt lat="38.04282035198039" lon="15.728209407809596"><ele>414.0</ele><time>2026-04-14T10:19:51Z</time></trkpt><trkpt lat="38.0427126016091" lon="15.72817246098585"><ele>414.0</ele><time>2026-04-14T10:19:52Z</time></trkpt><trkpt lat="38.042621764311164" lon="15.728111617161373"><ele>414.0</ele><time>2026-04-14T10:19:53Z</time></trkpt><trkpt lat="38.04253925880635" lon="15.728028469245894"><ele>414.0</ele><time>2026-04-14T10:19:54Z</time></trkpt><trkpt lat="38.04244315820495" lon="15.727945792857154"><ele>414.0</ele><time>2026-04-14T10:19:55Z</time></trkpt><trkpt lat="38.04233613259761" lon="15.727889070725691"><ele>414.0</ele><time>2026-04-14T10:19:56Z</time></trkpt><trkpt lat="38.042217370899714" lon="15.727886600950661"><ele>411.75</ele><time>2026-04-14T10:19:57Z</time></trkpt><trkpt lat="38.04209906532733" lon="15.727889066780154"><ele>409.5</ele><time>2026-04-14T10:19:58Z</time></trkpt><trkpt lat="38.0419810814529" lon="15.727897719546542"><ele>407.25</ele><time>2026-04-14T10:19:59Z</time></trkpt><trkpt lat="38.0418518136118" lon="15.727879982140688"><ele>405.0</ele><time>2026-04-14T10:20:00Z</time></trkpt><trkpt lat="38.04172612768038" lon="15.7278733904517"><ele>405.5</ele><time>2026-04-14T10:20:01Z</time></trkpt><trkpt lat="38.04159971626745" lon="15.727857157713736"><ele>406.0</ele><time>2026-04-14T10:20:02Z</time></trkpt><trkpt lat="38.04147291675179" lon="15.727829335852716"><ele>406.5</ele><time>2026-04-14T10:20:03Z</time></trkpt><trkpt lat="38.0413450096653" lon="15.727801025908233"><ele>407.0</ele><time>2026-04-14T10:20:04Z</time></trkpt><trkpt lat="38.04122250902142" lon="15.727783928050922"><ele>407.0</ele><time>2026-04-14T10:20:05Z</time></trkpt><trkpt lat="38.04111158146608" lon="15.727741912705849"><ele>407.0</ele><time>2026-04-14T10:20:06Z</time></trkpt><trkpt lat="38.041008185571364" lon="15.72768600650804"><ele>407.0</ele><time>2026-04-14T10:20:07Z</time></trkpt><trkpt lat="38.04092181838222" lon="15.727583601633551"><ele>407.0</ele><time>2026-04-14T10:20:08Z</time></trkpt><trkpt lat="38.04082995300546" lon="15.727474948458042"><ele>404.75</ele><time>2026-04-14T10:20:09Z</time></trkpt><trkpt lat="38.04074130217895" lon="15.72735328920646"><ele>402.5</ele><time>2026-04-14T10:20:10Z</time></trkpt><trkpt lat="38.04064033915406" lon="15.727235920093754"><ele>400.25</ele><time>2026-04-14T10:20:11Z</time></trkpt><trkpt lat="38.040551114228755" lon="15.727107765458017"><ele>398.0</ele><time>2026-04-14T10:20:12Z</time></trkpt><trkpt lat="38.04045278712358" lon="15.726991082322769"><ele>396.75</ele><time>2026-04-14T10:20:13Z</time></trkpt><trkpt lat="38.04034986769308" lon="15.726876440658856"><ele>395.5</ele><time>2026-04-14T10:20:14Z</time></trkpt><trkpt lat="38.040252978987255" lon="15.72676243299856"><ele>394.25</ele><time>2026-04-14T10:20:15Z</time></trkpt><trkpt lat="38.04015449709439" lon="15.726656101975953"><ele>393.0</ele><time>2026-04-14T10:20:16Z</time></trkpt><trkpt lat="38.04005914341268" lon="15.726561539146841"><ele>392.59999999999997</ele><time>2026-04-14T10:20:17Z</time></trkpt><trkpt lat="38.039962765039704" lon="15.726486659563383"><ele>392.2</ele><time>2026-04-14T10:20:18Z</time></trkpt><trkpt lat="38.03987190828344" lon="15.726430370695557"><ele>391.8</ele><time>2026-04-14T10:20:19Z</time></trkpt><trkpt lat="38.03981390531797" lon="15.726350152013174"><ele>391.4</ele><time>2026-04-14T10:20:20Z</time></trkpt><trkpt lat="38.039766054765394" lon="15.726285509355053"><ele>391.0</ele><time>2026-04-14T10:20:21Z</time></trkpt><trkpt lat="38.03979208451013" lon="15.726182862630415"><ele>391.00000000000006</ele><time>2026-04-14T10:20:22Z</time></trkpt><trkpt lat="38.03981774470069" lon="15.726079038142341"><ele>391.0</ele><time>2026-04-14T10:20:23Z</time></trkpt><trkpt lat="38.039848580834" lon="15.72596462806472"><ele>391.0</ele><time>2026-04-14T10:20:24Z</time></trkpt><trkpt lat="38.03988489676233" lon="15.72587380098442"><ele>391.0</ele><time>2026-04-14T10:20:25Z</time></trkpt><trkpt lat="38.039931810960084" lon="15.725806261316654"><ele>391.00000000000006</ele><time>2026-04-14T10:20:26Z</time></trkpt><trkpt lat="38.03997163364958" lon="15.725739590906317"><ele>391.0</ele><time>2026-04-14T10:20:27Z</time></trkpt><trkpt lat="38.04006517531536" lon="15.725623552118192"><ele>390.0</ele><time>2026-04-14T10:20:29Z</time></trkpt><trkpt lat="38.0401202690432" lon="15.725553553844943"><ele>389.0</ele><time>2026-04-14T10:20:30Z</time></trkpt><trkpt lat="38.0401825239527" lon="15.72547391711102"><ele>388.0</ele><time>2026-04-14T10:20:31Z</time></trkpt><trkpt lat="38.04026275692701" lon="15.725411215731418"><ele>387.0</ele><time>2026-04-14T10:20:31.999Z</time></trkpt><trkpt lat="38.040357269362126" lon="15.725369994256031"><ele>386.0</ele><time>2026-04-14T10:20:32.999Z</time></trkpt><trkpt lat="38.04046630198085" lon="15.725380269114556"><ele>386.0</ele><time>2026-04-14T10:20:33.999Z</time></trkpt><trkpt lat="38.040580204354214" lon="15.725360425747393"><ele>386.0</ele><time>2026-04-14T10:20:34.999Z</time></trkpt><trkpt lat="38.040700941752306" lon="15.72536433067054"><ele>386.0</ele><time>2026-04-14T10:20:35.999Z</time></trkpt><trkpt lat="38.04082177284696" lon="15.725357505517277"><ele>386.0</ele><time>2026-04-14T10:20:36.999Z</time></trkpt><trkpt lat="38.04094318288098" lon="15.725346854552944"><ele>384.5</ele><time>2026-04-14T10:20:37.999Z</time></trkpt><trkpt lat="38.04106295703105" lon="15.725329018473477"><ele>383.0</ele><time>2026-04-14T10:20:38.999Z</time></trkpt><trkpt lat="38.04117353305939" lon="15.72530045715417"><ele>381.5</ele><time>2026-04-14T10:20:39.999Z</time></trkpt><trkpt lat="38.04127723074004" lon="15.725253021464145"><ele>380.0</ele><time>2026-04-14T10:20:40.999Z</time></trkpt><trkpt lat="38.04138030522518" lon="15.725178687149693"><ele>378.4</ele><time>2026-04-14T10:20:41.999Z</time></trkpt><trkpt lat="38.04146818243523" lon="15.725088481740803"><ele>376.8</ele><time>2026-04-14T10:20:42.999Z</time></trkpt><trkpt lat="38.04154152292298" lon="15.725000606465805"><ele>375.20000000000005</ele><time>2026-04-14T10:20:43.999Z</time></trkpt><trkpt lat="38.0415941178792" lon="15.724916163248118"><ele>373.6</ele><time>2026-04-14T10:20:44.999Z</time></trkpt><trkpt lat="38.04166769938553" lon="15.724846486374018"><ele>372.0</ele><time>2026-04-14T10:20:46.999Z</time></trkpt><trkpt lat="38.04154988893668" lon="15.724675876499928"><ele>372.0</ele><time>2026-04-14T10:20:47.999Z</time></trkpt><trkpt lat="38.04148218599927" lon="15.724597154485252"><ele>372.0</ele><time>2026-04-14T10:20:48.999Z</time></trkpt><trkpt lat="38.041413747788575" lon="15.724518131701096"><ele>372.0</ele><time>2026-04-14T10:20:49.999Z</time></trkpt><trkpt lat="38.04134416740304" lon="15.724424884019559"><ele>372.0</ele><time>2026-04-14T10:20:50.999Z</time></trkpt><trkpt lat="38.04127128616025" lon="15.724336911681165"><ele>372.0</ele><time>2026-04-14T10:20:51.999Z</time></trkpt><trkpt lat="38.0412159131596" lon="15.72424616819931"><ele>371.8</ele><time>2026-04-14T10:20:52.999Z</time></trkpt><trkpt lat="38.04115918001051" lon="15.724174890637476"><ele>371.6</ele><time>2026-04-14T10:20:54Z</time></trkpt><trkpt lat="38.04113434650495" lon="15.724085825974559"><ele>371.40000000000003</ele><time>2026-04-14T10:20:56Z</time></trkpt><trkpt lat="38.04120597107494" lon="15.724044468242989"><ele>371.20000000000005</ele><time>2026-04-14T10:20:57Z</time></trkpt><trkpt lat="38.0412730083002" lon="15.723943440309963"><ele>371.0</ele><time>2026-04-14T10:20:58Z</time></trkpt><trkpt lat="38.0413400685804" lon="15.723821122398185"><ele>371.0</ele><time>2026-04-14T10:20:59Z</time></trkpt><trkpt lat="38.04142629457261" lon="15.723702899651165"><ele>371.0</ele><time>2026-04-14T10:21:00Z</time></trkpt><trkpt lat="38.0415122485635" lon="15.723569527927186"><ele>371.0</ele><time>2026-04-14T10:21:01Z</time></trkpt><trkpt lat="38.04159636679608" lon="15.723432642434725"><ele>371.0</ele><time>2026-04-14T10:21:02Z</time></trkpt><trkpt lat="38.041684964254905" lon="15.723291195929058"><ele>369.0</ele><time>2026-04-14T10:21:03Z</time></trkpt><trkpt lat="38.04177547437966" lon="15.723151648055836"><ele>367.0</ele><time>2026-04-14T10:21:04Z</time></trkpt><trkpt lat="38.041863508155934" lon="15.723011048589724"><ele>365.0</ele><time>2026-04-14T10:21:05Z</time></trkpt><trkpt lat="38.04194600359439" lon="15.72286703982431"><ele>363.0</ele><time>2026-04-14T10:21:06Z</time></trkpt><trkpt lat="38.04203006006007" lon="15.722725737643154"><ele>361.5</ele><time>2026-04-14T10:21:07Z</time></trkpt><trkpt lat="38.04212068336314" lon="15.722593835176003"><ele>360.0</ele><time>2026-04-14T10:21:08Z</time></trkpt><trkpt lat="38.04220860308627" lon="15.722460797128962"><ele>358.5</ele><time>2026-04-14T10:21:09Z</time></trkpt><trkpt lat="38.042284450993954" lon="15.722331938005498"><ele>357.0</ele><time>2026-04-14T10:21:10Z</time></trkpt><trkpt lat="38.042352157314205" lon="15.722189989994227"><ele>357.0</ele><time>2026-04-14T10:21:11Z</time></trkpt><trkpt lat="38.04240295253388" lon="15.722027386914348"><ele>357.0</ele><time>2026-04-14T10:21:12Z</time></trkpt><trkpt lat="38.042446247234224" lon="15.721855329699205"><ele>357.0</ele><time>2026-04-14T10:21:13Z</time></trkpt><trkpt lat="38.04248667062375" lon="15.721694795144677"><ele>357.0</ele><time>2026-04-14T10:21:14Z</time></trkpt><trkpt lat="38.04253047439421" lon="15.721540123054824"><ele>354.75</ele><time>2026-04-14T10:21:15Z</time></trkpt><trkpt lat="38.042572081540804" lon="15.721394552642423"><ele>352.5</ele><time>2026-04-14T10:21:16Z</time></trkpt><trkpt lat="38.04260375885123" lon="15.721243774962955"><ele>350.25</ele><time>2026-04-14T10:21:17Z</time></trkpt><trkpt lat="38.04261551207331" lon="15.72109349107725"><ele>348.0</ele><time>2026-04-14T10:21:18Z</time></trkpt><trkpt lat="38.04261932854709" lon="15.720921335643446"><ele>346.75</ele><time>2026-04-14T10:21:19Z</time></trkpt><trkpt lat="38.04260667317605" lon="15.720741639035957"><ele>345.5</ele><time>2026-04-14T10:21:20Z</time></trkpt><trkpt lat="38.04259322422699" lon="15.720569474825378"><ele>344.25</ele><time>2026-04-14T10:21:21Z</time></trkpt><trkpt lat="38.04258128428038" lon="15.72040267124893"><ele>343.0</ele><time>2026-04-14T10:21:22Z</time></trkpt><trkpt lat="38.04256992226715" lon="15.720245742119477"><ele>341.75</ele><time>2026-04-14T10:21:23Z</time></trkpt><trkpt lat="38.04252210158284" lon="15.720082514410018"><ele>340.5</ele><time>2026-04-14T10:21:24Z</time></trkpt><trkpt lat="38.04247683747542" lon="15.719912943759166"><ele>339.25</ele><time>2026-04-14T10:21:25Z</time></trkpt><trkpt lat="38.04244483827107" lon="15.719729426807682"><ele>338.0</ele><time>2026-04-14T10:21:26Z</time></trkpt><trkpt lat="38.04239157408073" lon="15.719550536303467"><ele>336.25</ele><time>2026-04-14T10:21:27Z</time></trkpt><trkpt lat="38.0423341447305" lon="15.719381060628487"><ele>334.5</ele><time>2026-04-14T10:21:28Z</time></trkpt><trkpt lat="38.04227668364451" lon="15.719205522797974"><ele>332.75</ele><time>2026-04-14T10:21:29Z</time></trkpt><trkpt lat="38.042225136289915" lon="15.719032760635741"><ele>331.0</ele><time>2026-04-14T10:21:30Z</time></trkpt><trkpt lat="38.04217969521869" lon="15.718856498905241"><ele>331.0</ele><time>2026-04-14T10:21:31Z</time></trkpt><trkpt lat="38.04212793409303" lon="15.71868507236445"><ele>331.0</ele><time>2026-04-14T10:21:32Z</time></trkpt><trkpt lat="38.04208816591457" lon="15.71850859924268"><ele>331.0</ele><time>2026-04-14T10:21:33Z</time></trkpt><trkpt lat="38.042046910007066" lon="15.718332041501311"><ele>331.0</ele><time>2026-04-14T10:21:34Z</time></trkpt><trkpt lat="38.0420085085624" lon="15.71815667461657"><ele>330.5</ele><time>2026-04-14T10:21:35Z</time></trkpt><trkpt lat="38.041991426549295" lon="15.717978319791492"><ele>330.0</ele><time>2026-04-14T10:21:36Z</time></trkpt><trkpt lat="38.041949292643096" lon="15.717796652474888"><ele>329.5</ele><time>2026-04-14T10:21:37Z</time></trkpt><trkpt lat="38.041929479911765" lon="15.717607191882058"><ele>329.0</ele><time>2026-04-14T10:21:38Z</time></trkpt><trkpt lat="38.0419123560361" lon="15.717417856599901"><ele>328.6</ele><time>2026-04-14T10:21:39Z</time></trkpt><trkpt lat="38.04189640096205" lon="15.717244514487788"><ele>328.2</ele><time>2026-04-14T10:21:40Z</time></trkpt><trkpt lat="38.041883468996254" lon="15.717088704972797"><ele>327.8</ele><time>2026-04-14T10:21:41Z</time></trkpt><trkpt lat="38.04187347117837" lon="15.716965613315578"><ele>327.40000000000003</ele><time>2026-04-14T10:21:42Z</time></trkpt><trkpt lat="38.04187270044966" lon="15.716885470368279"><ele>327.0</ele><time>2026-04-14T10:21:43Z</time></trkpt><trkpt lat="38.04190603247691" lon="15.71681018427789"><ele>327.0</ele><time>2026-04-14T10:21:45Z</time></trkpt><trkpt lat="38.041996132745126" lon="15.716786386602642"><ele>327.0</ele><time>2026-04-14T10:21:46Z</time></trkpt><trkpt lat="38.042083835895895" lon="15.716739237897443"><ele>327.0</ele><time>2026-04-14T10:21:47Z</time></trkpt><trkpt lat="38.04218419998655" lon="15.716683324637854"><ele>327.0</ele><time>2026-04-14T10:21:48Z</time></trkpt><trkpt lat="38.042296247289066" lon="15.716623947744335"><ele>327.0</ele><time>2026-04-14T10:21:49Z</time></trkpt><trkpt lat="38.04240812114326" lon="15.716569718752707"><ele>325.20000000000005</ele><time>2026-04-14T10:21:50Z</time></trkpt><trkpt lat="38.04248114824774" lon="15.716536233076111"><ele>323.40000000000003</ele><time>2026-04-14T10:21:51Z</time></trkpt><trkpt lat="38.04255390323115" lon="15.716502873298554"><ele>321.6</ele><time>2026-04-14T10:21:54Z</time></trkpt><trkpt lat="38.042557773567474" lon="15.716247633899608"><ele>319.8</ele><time>2026-04-14T10:21:57Z</time></trkpt><trkpt lat="38.04260032823908" lon="15.71617114151328"><ele>318.0</ele><time>2026-04-14T10:21:59Z</time></trkpt><trkpt lat="38.042639495205336" lon="15.716081963569788"><ele>317.6</ele><time>2026-04-14T10:22:01Z</time></trkpt><trkpt lat="38.042637667505375" lon="15.715951678485416"><ele>317.20000000000005</ele><time>2026-04-14T10:22:04Z</time></trkpt><trkpt lat="38.042702157302536" lon="15.715865733171952"><ele>316.8</ele><time>2026-04-14T10:22:08Z</time></trkpt><trkpt lat="38.04276396482387" lon="15.715777421885425"><ele>316.40000000000003</ele><time>2026-04-14T10:22:10Z</time></trkpt><trkpt lat="38.0427962863382" lon="15.715685734758578"><ele>316.0</ele><time>2026-04-14T10:22:11Z</time></trkpt><trkpt lat="38.04283233366953" lon="15.715575575299042"><ele>316.0</ele><time>2026-04-14T10:22:12Z</time></trkpt><trkpt lat="38.04286911770752" lon="15.715470717907646"><ele>316.0</ele><time>2026-04-14T10:22:13Z</time></trkpt><trkpt lat="38.04291319316935" lon="15.715366110885121"><ele>316.0</ele><time>2026-04-14T10:22:14Z</time></trkpt><trkpt lat="38.04296946148001" lon="15.715254404329643"><ele>316.0</ele><time>2026-04-14T10:22:15Z</time></trkpt><trkpt lat="38.04303024782096" lon="15.715143480265647"><ele>316.0</ele><time>2026-04-14T10:22:16Z</time></trkpt><trkpt lat="38.043090137825665" lon="15.715039287004718"><ele>316.0</ele><time>2026-04-14T10:22:17Z</time></trkpt><trkpt lat="38.04313572491435" lon="15.714940414487186"><ele>316.0</ele><time>2026-04-14T10:22:18Z</time></trkpt><trkpt lat="38.04317647453329" lon="15.714847076326953"><ele>316.0</ele><time>2026-04-14T10:22:19Z</time></trkpt><trkpt lat="38.043208015664895" lon="15.714758262441663"><ele>316.0</ele><time>2026-04-14T10:22:21Z</time></trkpt><trkpt lat="38.04323684578876" lon="15.71466985918317"><ele>316.0</ele><time>2026-04-14T10:22:25.001Z</time></trkpt><trkpt lat="38.0433049766415" lon="15.714636273996883"><ele>316.0</ele><time>2026-04-14T10:22:28.001Z</time></trkpt><trkpt lat="38.04338753239643" lon="15.714628132958003"><ele>313.8333333333333</ele><time>2026-04-14T10:22:32.001Z</time></trkpt><trkpt lat="38.04344323647574" lon="15.714563983168023"><ele>311.66666666666663</ele><time>2026-04-14T10:22:33.001Z</time></trkpt><trkpt lat="38.04348949602072" lon="15.714480996732872"><ele>309.5</ele><time>2026-04-14T10:22:34.001Z</time></trkpt><trkpt lat="38.04352919649336" lon="15.714396629726087"><ele>307.3333333333333</ele><time>2026-04-14T10:22:35.001Z</time></trkpt><trkpt lat="38.04357779691763" lon="15.714291429631865"><ele>305.1666666666667</ele><time>2026-04-14T10:22:36.001Z</time></trkpt><trkpt lat="38.0436342537929" lon="15.71419332252477"><ele>303.0</ele><time>2026-04-14T10:22:37.001Z</time></trkpt><trkpt lat="38.0436920098814" lon="15.714109787723917"><ele>303.0</ele><time>2026-04-14T10:22:38.001Z</time></trkpt><trkpt lat="38.04375225380022" lon="15.714025861056482"><ele>303.0</ele><time>2026-04-14T10:22:39.001Z</time></trkpt><trkpt lat="38.04379828549751" lon="15.71396047999437"><ele>303.0</ele><time>2026-04-14T10:22:40.001Z</time></trkpt><trkpt lat="38.04385032971493" lon="15.713905505487144"><ele>303.0</ele><time>2026-04-14T10:22:41.001Z</time></trkpt><trkpt lat="38.04390260321437" lon="15.713858613458958"><ele>303.0</ele><time>2026-04-14T10:22:42.001Z</time></trkpt><trkpt lat="38.04395425365516" lon="15.713801504266847"><ele>303.0</ele><time>2026-04-14T10:22:43.001Z</time></trkpt><trkpt lat="38.04400956829546" lon="15.713747902568263"><ele>303.0</ele><time>2026-04-14T10:22:44.001Z</time></trkpt><trkpt lat="38.044075261630105" lon="15.713689198419672"><ele>303.0</ele><time>2026-04-14T10:22:45.001Z</time></trkpt><trkpt lat="38.04412399568686" lon="15.71362950833504"><ele>303.0</ele><time>2026-04-14T10:22:46.001Z</time></trkpt><trkpt lat="38.04417059793558" lon="15.713573491563313"><ele>303.0</ele><time>2026-04-14T10:22:47.001Z</time></trkpt><trkpt lat="38.044255065189716" lon="15.713509293621525"><ele>303.0</ele><time>2026-04-14T10:22:49.001Z</time></trkpt><trkpt lat="38.04432913875093" lon="15.713475974989079"><ele>303.0</ele><time>2026-04-14T10:22:51.001Z</time></trkpt><trkpt lat="38.044439918218586" lon="15.713410007561187"><ele>303.0</ele><time>2026-04-14T10:22:53.001Z</time></trkpt><trkpt lat="38.044508572557696" lon="15.71337139537241"><ele>301.0</ele><time>2026-04-14T10:22:54.001Z</time></trkpt><trkpt lat="38.044605616335105" lon="15.713263977063985"><ele>299.0</ele><time>2026-04-14T10:22:56.001Z</time></trkpt><trkpt lat="38.044643267595724" lon="15.71318998991522"><ele>297.0</ele><time>2026-04-14T10:22:57.001Z</time></trkpt><trkpt lat="38.044709782203974" lon="15.713097053460519"><ele>295.0</ele><time>2026-04-14T10:22:59.001Z</time></trkpt><trkpt lat="38.044736136507865" lon="15.712964525224239"><ele>293.0</ele><time>2026-04-14T10:23:01.001Z</time></trkpt><trkpt lat="38.04473658082426" lon="15.712852572623586"><ele>293.0</ele><time>2026-04-14T10:23:02.001Z</time></trkpt><trkpt lat="38.04475232290329" lon="15.712747947657233"><ele>293.0</ele><time>2026-04-14T10:23:03.001Z</time></trkpt><trkpt lat="38.044769759339545" lon="15.71265343749506"><ele>293.0</ele><time>2026-04-14T10:23:04.001Z</time></trkpt><trkpt lat="38.044785087515045" lon="15.71257352864403"><ele>293.0</ele><time>2026-04-14T10:23:05.001Z</time></trkpt><trkpt lat="38.04481857038226" lon="15.712451455379023"><ele>293.0</ele><time>2026-04-14T10:23:07.001Z</time></trkpt><trkpt lat="38.04486581185614" lon="15.712365594205322"><ele>293.0</ele><time>2026-04-14T10:23:09.001Z</time></trkpt><trkpt lat="38.044905619566684" lon="15.712265509344661"><ele>292.5</ele><time>2026-04-14T10:23:10.001Z</time></trkpt><trkpt lat="38.04493818177734" lon="15.71218690109497"><ele>292.0</ele><time>2026-04-14T10:23:11.001Z</time></trkpt><trkpt lat="38.044975340869" lon="15.712082577343853"><ele>291.5</ele><time>2026-04-14T10:23:12.001Z</time></trkpt><trkpt lat="38.04502216616138" lon="15.711981895588684"><ele>291.0</ele><time>2026-04-14T10:23:13.001Z</time></trkpt><trkpt lat="38.04507224680879" lon="15.711892961681142"><ele>290.5</ele><time>2026-04-14T10:23:14.001Z</time></trkpt><trkpt lat="38.04513051658831" lon="15.711799884876068"><ele>290.0</ele><time>2026-04-14T10:23:15.001Z</time></trkpt><trkpt lat="38.0451965135127" lon="15.711701535876399"><ele>288.6</ele><time>2026-04-14T10:23:16.001Z</time></trkpt><trkpt lat="38.04523149139622" lon="15.71162305112176"><ele>287.2</ele><time>2026-04-14T10:23:17.001Z</time></trkpt><trkpt lat="38.04528487073976" lon="15.71149408481034"><ele>285.8</ele><time>2026-04-14T10:23:19.001Z</time></trkpt><trkpt lat="38.045311276711764" lon="15.711354795800403"><ele>284.4</ele><time>2026-04-14T10:23:21.001Z</time></trkpt><trkpt lat="38.04531398084425" lon="15.711255931142475"><ele>283.0</ele><time>2026-04-14T10:23:22.001Z</time></trkpt><trkpt lat="38.04532456485563" lon="15.71114174817897"><ele>282.5</ele><time>2026-04-14T10:23:23.001Z</time></trkpt><trkpt lat="38.04534895336389" lon="15.711030623274329"><ele>282.0</ele><time>2026-04-14T10:23:24.001Z</time></trkpt><trkpt lat="38.04538311569809" lon="15.710929151282592"><ele>281.5</ele><time>2026-04-14T10:23:25.001Z</time></trkpt><trkpt lat="38.045423112462885" lon="15.710839332831526"><ele>281.0</ele><time>2026-04-14T10:23:26.001Z</time></trkpt><trkpt lat="38.04543606255001" lon="15.710713484320117"><ele>280.5</ele><time>2026-04-14T10:23:28.001Z</time></trkpt><trkpt lat="38.045413699598775" lon="15.710636805565017"><ele>280.0</ele><time>2026-04-14T10:23:29.001Z</time></trkpt><trkpt lat="38.045383428568826" lon="15.710537276968985"><ele>280.0</ele><time>2026-04-14T10:23:30.001Z</time></trkpt><trkpt lat="38.045372507135475" lon="15.710434326347507"><ele>280.0</ele><time>2026-04-14T10:23:31.001Z</time></trkpt><trkpt lat="38.04537455880596" lon="15.710276361845832"><ele>280.0</ele><time>2026-04-14T10:23:32.001Z</time></trkpt><trkpt lat="38.045379273908004" lon="15.710117002409907"><ele>280.0</ele><time>2026-04-14T10:23:33.001Z</time></trkpt><trkpt lat="38.04539187751977" lon="15.709921066585178"><ele>278.75</ele><time>2026-04-14T10:23:34.001Z</time></trkpt><trkpt lat="38.045404549939875" lon="15.709736948303368"><ele>277.5</ele><time>2026-04-14T10:23:35.001Z</time></trkpt><trkpt lat="38.04539908778224" lon="15.70958032980553"><ele>276.25</ele><time>2026-04-14T10:23:36.001Z</time></trkpt><trkpt lat="38.04539754956993" lon="15.709434772326256"><ele>275.0</ele><time>2026-04-14T10:23:37.001Z</time></trkpt><trkpt lat="38.04541647217643" lon="15.709270638508729"><ele>273.75</ele><time>2026-04-14T10:23:38.001Z</time></trkpt><trkpt lat="38.04544091164724" lon="15.70911511737031"><ele>272.5</ele><time>2026-04-14T10:23:39.001Z</time></trkpt><trkpt lat="38.045456201166" lon="15.70897090415905"><ele>271.25</ele><time>2026-04-14T10:23:40.001Z</time></trkpt><trkpt lat="38.04547314350651" lon="15.708803198793092"><ele>270.0</ele><time>2026-04-14T10:23:41.001Z</time></trkpt><trkpt lat="38.045639174772866" lon="15.708639067214255"><ele>269.3333333333333</ele><time>2026-04-14T10:23:42.001Z</time></trkpt><trkpt lat="38.0456411330038" lon="15.708499212883275"><ele>268.6666666666667</ele><time>2026-04-14T10:23:43.001Z</time></trkpt><trkpt lat="38.04564292514402" lon="15.708386685106314"><ele>268.0</ele><time>2026-04-14T10:23:44.001Z</time></trkpt><trkpt lat="38.045645488822245" lon="15.708289091995695"><ele>267.33333333333337</ele><time>2026-04-14T10:23:45.001Z</time></trkpt><trkpt lat="38.04564790005305" lon="15.708197302362167"><ele>266.6666666666667</ele><time>2026-04-14T10:23:46.001Z</time></trkpt><trkpt lat="38.0456505692081" lon="15.70809569308652"><ele>266.0</ele><time>2026-04-14T10:23:47.001Z</time></trkpt><trkpt lat="38.04564706397504" lon="15.707969795109445"><ele>266.0</ele><time>2026-04-14T10:23:48.001Z</time></trkpt><trkpt lat="38.045643995138064" lon="15.707835112017356"><ele>266.0</ele><time>2026-04-14T10:23:49.001Z</time></trkpt><trkpt lat="38.045608738792254" lon="15.707689156369705"><ele>266.0</ele><time>2026-04-14T10:23:50.001Z</time></trkpt><trkpt lat="38.04560527728611" lon="15.707528592680744"><ele>266.0</ele><time>2026-04-14T10:23:51.001Z</time></trkpt><trkpt lat="38.045586536817204" lon="15.707338748715578"><ele>264.75</ele><time>2026-04-14T10:23:52.001Z</time></trkpt><trkpt lat="38.04556956727173" lon="15.707166845036102"><ele>263.5</ele><time>2026-04-14T10:23:53.001Z</time></trkpt><trkpt lat="38.04555434765433" lon="15.706995247510811"><ele>262.25</ele><time>2026-04-14T10:23:54.001Z</time></trkpt><trkpt lat="38.04553906544747" lon="15.706816028771376"><ele>261.0</ele><time>2026-04-14T10:23:55.001Z</time></trkpt><trkpt lat="38.045526726875856" lon="15.70665321709861"><ele>259.75</ele><time>2026-04-14T10:23:56.001Z</time></trkpt><trkpt lat="38.04550313318405" lon="15.70650385647501"><ele>258.5</ele><time>2026-04-14T10:23:57.001Z</time></trkpt><trkpt lat="38.04550508089861" lon="15.706359987141493"><ele>257.25</ele><time>2026-04-14T10:23:58.001Z</time></trkpt><trkpt lat="38.04549263941546" lon="15.70619144708722"><ele>256.0</ele><time>2026-04-14T10:23:59.001Z</time></trkpt><trkpt lat="38.045479896815166" lon="15.706018827639275"><ele>255.0</ele><time>2026-04-14T10:24:00.001Z</time></trkpt><trkpt lat="38.04546716317504" lon="15.705846132876207"><ele>254.0</ele><time>2026-04-14T10:24:01.001Z</time></trkpt><trkpt lat="38.04545227894021" lon="15.70566121563587"><ele>253.0</ele><time>2026-04-14T10:24:02.001Z</time></trkpt><trkpt lat="38.04542207514054" lon="15.70547683901606"><ele>252.0</ele><time>2026-04-14T10:24:03.001Z</time></trkpt><trkpt lat="38.04540945928048" lon="15.705290112089113"><ele>251.25</ele><time>2026-04-14T10:24:04.001Z</time></trkpt><trkpt lat="38.045415276782876" lon="15.705114866885202"><ele>250.5</ele><time>2026-04-14T10:24:05.001Z</time></trkpt><trkpt lat="38.045410066405864" lon="15.704961481057447"><ele>249.75</ele><time>2026-04-14T10:24:06.001Z</time></trkpt><trkpt lat="38.04541300828454" lon="15.704822304160167"><ele>249.0</ele><time>2026-04-14T10:24:07.001Z</time></trkpt><trkpt lat="38.045424373004494" lon="15.704699068474692"><ele>249.0</ele><time>2026-04-14T10:24:08.001Z</time></trkpt><trkpt lat="38.04544329553236" lon="15.704566679237159"><ele>248.99999999999997</ele><time>2026-04-14T10:24:09.001Z</time></trkpt><trkpt lat="38.04545226798428" lon="15.704428286828902"><ele>248.99999999999997</ele><time>2026-04-14T10:24:10.001Z</time></trkpt><trkpt lat="38.04549295873289" lon="15.704287053993182"><ele>249.0</ele><time>2026-04-14T10:24:11.001Z</time></trkpt><trkpt lat="38.04550779224371" lon="15.704142142142281"><ele>249.0</ele><time>2026-04-14T10:24:12.001Z</time></trkpt><trkpt lat="38.04553636201267" lon="15.704007356151747"><ele>248.2</ele><time>2026-04-14T10:24:13.001Z</time></trkpt><trkpt lat="38.0455570240526" lon="15.703885433553001"><ele>247.39999999999998</ele><time>2026-04-14T10:24:14.001Z</time></trkpt><trkpt lat="38.0455817191251" lon="15.703767739914852"><ele>246.6</ele><time>2026-04-14T10:24:15.001Z</time></trkpt><trkpt lat="38.045597783802414" lon="15.703658649113258"><ele>245.8</ele><time>2026-04-14T10:24:16.001Z</time></trkpt><trkpt lat="38.04563032901401" lon="15.703570174564808"><ele>245.0</ele><time>2026-04-14T10:24:17.001Z</time></trkpt><trkpt lat="38.04569816289097" lon="15.703483337583432"><ele>244.4</ele><time>2026-04-14T10:24:19.001Z</time></trkpt><trkpt lat="38.045710739186326" lon="15.70339293524094"><ele>243.8</ele><time>2026-04-14T10:24:21.001Z</time></trkpt><trkpt lat="38.04563152601353" lon="15.703394705701436"><ele>243.2</ele><time>2026-04-14T10:24:22.001Z</time></trkpt><trkpt lat="38.04553576903374" lon="15.703388579866566"><ele>242.6</ele><time>2026-04-14T10:24:23.001Z</time></trkpt><trkpt lat="38.045422811569146" lon="15.703350926731487"><ele>242.0</ele><time>2026-04-14T10:24:24.001Z</time></trkpt><trkpt lat="38.04532654821813" lon="15.703333903736608"><ele>242.00000000000003</ele><time>2026-04-14T10:24:25.001Z</time></trkpt><trkpt lat="38.045263233031456" lon="15.703322707096657"><ele>242.0</ele><time>2026-04-14T10:24:26.001Z</time></trkpt><trkpt lat="38.045187188201744" lon="15.703299258911132"><ele>242.0</ele><time>2026-04-14T10:24:28.001Z</time></trkpt><trkpt lat="38.04509608380214" lon="15.703285485871552"><ele>242.0</ele><time>2026-04-14T10:24:31.001Z</time></trkpt><trkpt lat="38.04500676222307" lon="15.703316887677966"><ele>242.00000000000003</ele><time>2026-04-14T10:24:33.001Z</time></trkpt><trkpt lat="38.04495620298205" lon="15.703365250847089"><ele>242.0</ele><time>2026-04-14T10:24:34.001Z</time></trkpt><trkpt lat="38.04490800594143" lon="15.70343573766006"><ele>243.33333333333334</ele><time>2026-04-14T10:24:35.001Z</time></trkpt><trkpt lat="38.04485118818974" lon="15.703490960935113"><ele>244.66666666666669</ele><time>2026-04-14T10:24:36.001Z</time></trkpt><trkpt lat="38.04477286281121" lon="15.703482758842945"><ele>246.0</ele><time>2026-04-14T10:24:37.001Z</time></trkpt><trkpt lat="38.044686912904595" lon="15.703487898366227"><ele>247.33333333333331</ele><time>2026-04-14T10:24:38.001Z</time></trkpt><trkpt lat="38.04460756741137" lon="15.703495169400739"><ele>248.66666666666666</ele><time>2026-04-14T10:24:39.001Z</time></trkpt><trkpt lat="38.04452576926368" lon="15.703505574239216"><ele>250.0</ele><time>2026-04-14T10:24:40.001Z</time></trkpt><trkpt lat="38.044440666588976" lon="15.703523098449612"><ele>250.0</ele><time>2026-04-14T10:24:41.001Z</time></trkpt><trkpt lat="38.04434810335795" lon="15.703540948036899"><ele>250.0</ele><time>2026-04-14T10:24:42.001Z</time></trkpt><trkpt lat="38.044251274116895" lon="15.703559620261833"><ele>250.0</ele><time>2026-04-14T10:24:43.001Z</time></trkpt><trkpt lat="38.04415220291837" lon="15.703578630233187"><ele>250.0</ele><time>2026-04-14T10:24:44.001Z</time></trkpt><trkpt lat="38.04404971814068" lon="15.703597205027936"><ele>250.0</ele><time>2026-04-14T10:24:45.001Z</time></trkpt><trkpt lat="38.043936919011514" lon="15.703614032813308"><ele>255.0</ele><time>2026-04-14T10:24:46.001Z</time></trkpt><trkpt lat="38.04382787558253" lon="15.703627237201616"><ele>260.0</ele><time>2026-04-14T10:24:47.001Z</time></trkpt><trkpt lat="38.04370965718044" lon="15.70363636764526"><ele>265.0</ele><time>2026-04-14T10:24:48.001Z</time></trkpt><trkpt lat="38.043587838340336" lon="15.703642881448907"><ele>270.0</ele><time>2026-04-14T10:24:49.001Z</time></trkpt><trkpt lat="38.04346693475134" lon="15.703646724967758"><ele>270.0</ele><time>2026-04-14T10:24:50.001Z</time></trkpt><trkpt lat="38.0433500619114" lon="15.703646724972558"><ele>270.0</ele><time>2026-04-14T10:24:51.001Z</time></trkpt><trkpt lat="38.0432356728739" lon="15.703660724348337"><ele>270.0</ele><time>2026-04-14T10:24:52.001Z</time></trkpt><trkpt lat="38.04312344637589" lon="15.703658198322454"><ele>270.0</ele><time>2026-04-14T10:24:53.001Z</time></trkpt><trkpt lat="38.043008327576" lon="15.703656060004"><ele>273.2</ele><time>2026-04-14T10:24:54.001Z</time></trkpt><trkpt lat="38.04289212606708" lon="15.703634338724749"><ele>276.4</ele><time>2026-04-14T10:24:55.001Z</time></trkpt><trkpt lat="38.04279292952164" lon="15.703657455309024"><ele>279.6</ele><time>2026-04-14T10:24:56.001Z</time></trkpt><trkpt lat="38.0427204219007" lon="15.70363849487774"><ele>282.8</ele><time>2026-04-14T10:24:57.001Z</time></trkpt><trkpt lat="38.042653942038086" lon="15.703623480953633"><ele>286.0</ele><time>2026-04-14T10:24:58.001Z</time></trkpt><trkpt lat="38.04257785596773" lon="15.70370939416615"><ele>286.0</ele><time>2026-04-14T10:25:00.001Z</time></trkpt><trkpt lat="38.0425243709583" lon="15.703787392674725"><ele>286.0</ele><time>2026-04-14T10:25:01.001Z</time></trkpt><trkpt lat="38.04241877730548" lon="15.703830361460874"><ele>286.0</ele><time>2026-04-14T10:25:03.001Z</time></trkpt><trkpt lat="38.0423321560003" lon="15.70381362106753"><ele>286.0</ele><time>2026-04-14T10:25:04.001Z</time></trkpt><trkpt lat="38.04223177247763" lon="15.703795114039494"><ele>286.0</ele><time>2026-04-14T10:25:05.001Z</time></trkpt><trkpt lat="38.04213706300364" lon="15.703775102160652"><ele>289.40000000000003</ele><time>2026-04-14T10:25:06.001Z</time></trkpt><trkpt lat="38.04204817937773" lon="15.70378456836793"><ele>292.8</ele><time>2026-04-14T10:25:07.001Z</time></trkpt><trkpt lat="38.04194719650121" lon="15.703848601535865"><ele>296.20000000000005</ele><time>2026-04-14T10:25:09.001Z</time></trkpt><trkpt lat="38.04195289975284" lon="15.703984421182655"><ele>299.6</ele><time>2026-04-14T10:25:11.001Z</time></trkpt><trkpt lat="38.042027443003235" lon="15.704052580495015"><ele>303.0</ele><time>2026-04-14T10:25:12.001Z</time></trkpt><trkpt lat="38.04207145943779" lon="15.70415197919845"><ele>303.0</ele><time>2026-04-14T10:25:13.001Z</time></trkpt><trkpt lat="38.04210195618345" lon="15.704244926393772"><ele>303.0</ele><time>2026-04-14T10:25:14.001Z</time></trkpt><trkpt lat="38.042139864999974" lon="15.704336123614695"><ele>303.0</ele><time>2026-04-14T10:25:15.001Z</time></trkpt><trkpt lat="38.04219841444143" lon="15.704390521642804"><ele>303.0</ele><time>2026-04-14T10:25:16.001Z</time></trkpt><trkpt lat="38.04225709510764" lon="15.704428036387457"><ele>303.0</ele><time>2026-04-14T10:25:17.001Z</time></trkpt><trkpt lat="38.042343870688235" lon="15.704468747297634"><ele>303.0</ele><time>2026-04-14T10:25:18.001Z</time></trkpt><trkpt lat="38.0424279731804" lon="15.704489713728337"><ele>303.3333333333333</ele><time>2026-04-14T10:25:19.001Z</time></trkpt><trkpt lat="38.04251012291079" lon="15.70446389818103"><ele>303.6666666666667</ele><time>2026-04-14T10:25:20.001Z</time></trkpt><trkpt lat="38.04259479557617" lon="15.704418295950935"><ele>304.0</ele><time>2026-04-14T10:25:21.001Z</time></trkpt><trkpt lat="38.04267584860781" lon="15.704422435172244"><ele>304.33333333333337</ele><time>2026-04-14T10:25:22.001Z</time></trkpt><trkpt lat="38.04274641522988" lon="15.704428642236431"><ele>304.6666666666667</ele><time>2026-04-14T10:25:23.001Z</time></trkpt><trkpt lat="38.04285175524318" lon="15.704488602905277"><ele>305.0</ele><time>2026-04-14T10:25:25.001Z</time></trkpt><trkpt lat="38.042906628270565" lon="15.704536579098022"><ele>305.0</ele><time>2026-04-14T10:25:26.001Z</time></trkpt><trkpt lat="38.04298333667285" lon="15.704596182006494"><ele>305.0</ele><time>2026-04-14T10:25:27.001Z</time></trkpt><trkpt lat="38.04303355757105" lon="15.704665450673799"><ele>305.0</ele><time>2026-04-14T10:25:28.001Z</time></trkpt><trkpt lat="38.043013111605376" lon="15.704815920216"><ele>305.0</ele><time>2026-04-14T10:25:30.001Z</time></trkpt><trkpt lat="38.04293544521569" lon="15.704853981773924"><ele>305.0</ele><time>2026-04-14T10:25:32.001Z</time></trkpt><trkpt lat="38.04289565255985" lon="15.70473210268239"><ele>305.0</ele><time>2026-04-14T10:25:34.001Z</time></trkpt><trkpt lat="38.04282970635655" lon="15.704656220688719"><ele>305.0</ele><time>2026-04-14T10:25:35.001Z</time></trkpt><trkpt lat="38.0427062889211" lon="15.704643412380399"><ele>305.0</ele><time>2026-04-14T10:25:37.001Z</time></trkpt><trkpt lat="38.04265054048639" lon="15.704683474180557"><ele>305.0</ele><time>2026-04-14T10:25:38.001Z</time></trkpt><trkpt lat="38.042565581759476" lon="15.70474578510243"><ele>305.0</ele><time>2026-04-14T10:25:39.001Z</time></trkpt><trkpt lat="38.042478161139954" lon="15.704821171153677"><ele>305.0</ele><time>2026-04-14T10:25:40.001Z</time></trkpt><trkpt lat="38.042468795551024" lon="15.70491908986365"><ele>305.0</ele><time>2026-04-14T10:25:42.001Z</time></trkpt><trkpt lat="38.04248287733681" lon="15.705004311317166"><ele>305.0</ele><time>2026-04-14T10:25:43.001Z</time></trkpt><trkpt lat="38.042483695367125" lon="15.70509609434212"><ele>305.0</ele><time>2026-04-14T10:25:44.001Z</time></trkpt><trkpt lat="38.04242880700903" lon="15.705165572976451"><ele>305.0</ele><time>2026-04-14T10:25:45.001Z</time></trkpt><trkpt lat="38.04237553682358" lon="15.705270861906495"><ele>305.0</ele><time>2026-04-14T10:25:46.001Z</time></trkpt><trkpt lat="38.04230733339868" lon="15.705396724253163"><ele>314.8</ele><time>2026-04-14T10:25:47.001Z</time></trkpt><trkpt lat="38.04224541557012" lon="15.705527117088943"><ele>324.6</ele><time>2026-04-14T10:25:48.001Z</time></trkpt><trkpt lat="38.042197516672246" lon="15.705629109896188"><ele>334.4</ele><time>2026-04-14T10:25:49.001Z</time></trkpt><trkpt lat="38.042120365310026" lon="15.705698874627826"><ele>344.2</ele><time>2026-04-14T10:25:50.001Z</time></trkpt><trkpt lat="38.04205988363688" lon="15.705800730108683"><ele>354.0</ele><time>2026-04-14T10:25:51.001Z</time></trkpt><trkpt lat="38.04204409474391" lon="15.705916660048915"><ele>355.0</ele><time>2026-04-14T10:25:52.001Z</time></trkpt><trkpt lat="38.04208282524933" lon="15.70609905984822"><ele>356.0</ele><time>2026-04-14T10:25:54.001Z</time></trkpt><trkpt lat="38.04204544292102" lon="15.706182353990412"><ele>357.0</ele><time>2026-04-14T10:25:55.001Z</time></trkpt><trkpt lat="38.04203698484244" lon="15.7062633123756"><ele>358.0</ele><time>2026-04-14T10:25:56.001Z</time></trkpt><trkpt lat="38.04208695295751" lon="15.70635154005405"><ele>359.0</ele><time>2026-04-14T10:25:58.001Z</time></trkpt><trkpt lat="38.0421544205325" lon="15.706350325023182"><ele>360.0</ele><time>2026-04-14T10:25:59.001Z</time></trkpt><trkpt lat="38.042235851958104" lon="15.706395930132686"><ele>360.0</ele><time>2026-04-14T10:26:01.001Z</time></trkpt><trkpt lat="38.042274353833776" lon="15.706535006394594"><ele>360.0</ele><time>2026-04-14T10:26:03.001Z</time></trkpt><trkpt lat="38.04224358884942" lon="15.706611119038811"><ele>360.0</ele><time>2026-04-14T10:26:04.001Z</time></trkpt><trkpt lat="38.04221670664851" lon="15.706700861661496"><ele>360.0</ele><time>2026-04-14T10:26:05.001Z</time></trkpt><trkpt lat="38.04218420903654" lon="15.706804853595095"><ele>360.0</ele><time>2026-04-14T10:26:06.001Z</time></trkpt><trkpt lat="38.042132781269586" lon="15.706948847854191"><ele>362.0</ele><time>2026-04-14T10:26:08.001Z</time></trkpt><trkpt lat="38.04209584299921" lon="15.707021729242078"><ele>364.0</ele><time>2026-04-14T10:26:09.001Z</time></trkpt><trkpt lat="38.04205837100428" lon="15.707099154317811"><ele>366.0</ele><time>2026-04-14T10:26:10.001Z</time></trkpt><trkpt lat="38.042029692793314" lon="15.707222570741136"><ele>368.0</ele><time>2026-04-14T10:26:12.001Z</time></trkpt><trkpt lat="38.042139740392265" lon="15.707325416998085"><ele>370.0</ele><time>2026-04-14T10:26:14.001Z</time></trkpt><trkpt lat="38.04222823535569" lon="15.707290238772174"><ele>369.99999999999994</ele><time>2026-04-14T10:26:15.001Z</time></trkpt><trkpt lat="38.042293755516766" lon="15.707282353575568"><ele>370.0</ele><time>2026-04-14T10:26:16.001Z</time></trkpt><trkpt lat="38.042363762902944" lon="15.707279534362973"><ele>370.0</ele><time>2026-04-14T10:26:17.001Z</time></trkpt><trkpt lat="38.04243639512194" lon="15.707283233596923"><ele>370.0</ele><time>2026-04-14T10:26:18.001Z</time></trkpt><trkpt lat="38.04250564878452" lon="15.707297250386938"><ele>370.0</ele><time>2026-04-14T10:26:19.001Z</time></trkpt><trkpt lat="38.04257165593985" lon="15.707330463545333"><ele>369.99999999999994</ele><time>2026-04-14T10:26:20.001Z</time></trkpt><trkpt lat="38.042631135014126" lon="15.707415701296405"><ele>370.0</ele><time>2026-04-14T10:26:22.001Z</time></trkpt><trkpt lat="38.04265010327743" lon="15.707547700157093"><ele>367.8</ele><time>2026-04-14T10:26:24.001Z</time></trkpt><trkpt lat="38.042601658615446" lon="15.707669159529058"><ele>365.6</ele><time>2026-04-14T10:26:26.001Z</time></trkpt><trkpt lat="38.04255642295455" lon="15.707807403609332"><ele>363.4</ele><time>2026-04-14T10:26:28.001Z</time></trkpt><trkpt lat="38.04249606294794" lon="15.70791740216061"><ele>361.2</ele><time>2026-04-14T10:26:30.001Z</time></trkpt><trkpt lat="38.04243540812945" lon="15.707997752794952"><ele>359.0</ele><time>2026-04-14T10:26:32.001Z</time></trkpt><trkpt lat="38.04238175052013" lon="15.707904725176455"><ele>361.2</ele><time>2026-04-14T10:26:34.001Z</time></trkpt><trkpt lat="38.04240558373477" lon="15.707824141841796"><ele>363.4</ele><time>2026-04-14T10:26:35.001Z</time></trkpt><trkpt lat="38.04234128428319" lon="15.707680700018273"><ele>365.6</ele><time>2026-04-14T10:26:37.001Z</time></trkpt><trkpt lat="38.042277940518055" lon="15.70763281829891"><ele>367.8</ele><time>2026-04-14T10:26:38.001Z</time></trkpt><trkpt lat="38.04217906263138" lon="15.707648877926625"><ele>370.0</ele><time>2026-04-14T10:26:40.001Z</time></trkpt><trkpt lat="38.04219375089735" lon="15.70776791765981"><ele>372.66666666666663</ele><time>2026-04-14T10:26:42.001Z</time></trkpt><trkpt lat="38.042266828064996" lon="15.707865365530436"><ele>375.3333333333333</ele><time>2026-04-14T10:26:44.001Z</time></trkpt><trkpt lat="38.04224964959173" lon="15.707965276628357"><ele>378.0</ele><time>2026-04-14T10:26:45.001Z</time></trkpt><trkpt lat="38.04224093143028" lon="15.708052958345618"><ele>380.66666666666663</ele><time>2026-04-14T10:26:46.001Z</time></trkpt><trkpt lat="38.0422248459203" lon="15.70814979298975"><ele>383.3333333333333</ele><time>2026-04-14T10:26:47.001Z</time></trkpt><trkpt lat="38.04219517275075" lon="15.70822667304884"><ele>386.0</ele><time>2026-04-14T10:26:48.001Z</time></trkpt><trkpt lat="38.04211533233746" lon="15.708300341107515"><ele>385.99999999999994</ele><time>2026-04-14T10:26:50.001Z</time></trkpt><trkpt lat="38.04202479091999" lon="15.70833148273109"><ele>386.0</ele><time>2026-04-14T10:26:52.001Z</time></trkpt><trkpt lat="38.042012224603106" lon="15.708200688784034"><ele>386.0</ele><time>2026-04-14T10:26:55.001Z</time></trkpt><trkpt lat="38.04201078255825" lon="15.70811281741194"><ele>386.0</ele><time>2026-04-14T10:26:56.001Z</time></trkpt><trkpt lat="38.04199939988722" lon="15.708012666734364"><ele>385.99999999999994</ele><time>2026-04-14T10:26:57.001Z</time></trkpt><trkpt lat="38.04195724715331" lon="15.707948258512268"><ele>386.0</ele><time>2026-04-14T10:26:58.001Z</time></trkpt><trkpt lat="38.04185800449372" lon="15.707928159830534"><ele>386.0</ele><time>2026-04-14T10:26:59.001Z</time></trkpt><trkpt lat="38.04178602747552" lon="15.707863358064339"><ele>386.0</ele><time>2026-04-14T10:27:00.001Z</time></trkpt><trkpt lat="38.04170393728401" lon="15.70779788109489"><ele>386.0</ele><time>2026-04-14T10:27:01.001Z</time></trkpt><trkpt lat="38.04161932099396" lon="15.70772051052441"><ele>386.0</ele><time>2026-04-14T10:27:02.001Z</time></trkpt><trkpt lat="38.04155752596956" lon="15.707658188570905"><ele>386.0</ele><time>2026-04-14T10:27:03.001Z</time></trkpt><trkpt lat="38.04147620560081" lon="15.707576386427707"><ele>391.99999999999994</ele><time>2026-04-14T10:27:05.001Z</time></trkpt><trkpt lat="38.04145222487532" lon="15.707495887200126"><ele>398.0</ele><time>2026-04-14T10:27:06.001Z</time></trkpt><trkpt lat="38.04142888538013" lon="15.707391661501738"><ele>404.0</ele><time>2026-04-14T10:27:07.001Z</time></trkpt><trkpt lat="38.04143099192149" lon="15.7072838672049"><ele>410.0</ele><time>2026-04-14T10:27:08.001Z</time></trkpt><trkpt lat="38.041407346717804" lon="15.707179467342069"><ele>415.99999999999994</ele><time>2026-04-14T10:27:09.001Z</time></trkpt><trkpt lat="38.04138097003193" lon="15.707091905629852"><ele>422.0</ele><time>2026-04-14T10:27:10.001Z</time></trkpt><trkpt lat="38.04133628416689" lon="15.706995729738413"><ele>418.8</ele><time>2026-04-14T10:27:11.001Z</time></trkpt><trkpt lat="38.04128313152442" lon="15.706900911413"><ele>415.6</ele><time>2026-04-14T10:27:12.001Z</time></trkpt><trkpt lat="38.04122490038871" lon="15.706786159315957"><ele>412.40000000000003</ele><time>2026-04-14T10:27:13.001Z</time></trkpt><trkpt lat="38.04117817272709" lon="15.706682563492102"><ele>409.20000000000005</ele><time>2026-04-14T10:27:14.001Z</time></trkpt><trkpt lat="38.041196893279704" lon="15.706597929822191"><ele>406.0</ele><time>2026-04-14T10:27:15.001Z</time></trkpt><trkpt lat="38.04116452923271" lon="15.70648560425272"><ele>406.00000000000006</ele><time>2026-04-14T10:27:16.001Z</time></trkpt><trkpt lat="38.041119687655204" lon="15.706410203067904"><ele>406.0</ele><time>2026-04-14T10:27:17.001Z</time></trkpt><trkpt lat="38.041052434993226" lon="15.706358534351653"><ele>406.0</ele><time>2026-04-14T10:27:18.001Z</time></trkpt><trkpt lat="38.040992847847306" lon="15.706277688473795"><ele>406.0</ele><time>2026-04-14T10:27:19.001Z</time></trkpt><trkpt lat="38.04091765483672" lon="15.706207968701266"><ele>406.00000000000006</ele><time>2026-04-14T10:27:20.001Z</time></trkpt><trkpt lat="38.04082793306164" lon="15.706148182496802"><ele>406.0</ele><time>2026-04-14T10:27:22.001Z</time></trkpt><trkpt lat="38.040762734732745" lon="15.706164972490383"><ele>406.0</ele><time>2026-04-14T10:27:23.001Z</time></trkpt><trkpt lat="38.040730393640075" lon="15.706277604456012"><ele>406.0</ele><time>2026-04-14T10:27:24.001Z</time></trkpt><trkpt lat="38.040817867884904" lon="15.706409352098309"><ele>406.0</ele><time>2026-04-14T10:27:25.001Z</time></trkpt><trkpt lat="38.04086267523278" lon="15.7065032516834"><ele>406.0</ele><time>2026-04-14T10:27:26.001Z</time></trkpt><trkpt lat="38.040931088898624" lon="15.706644000948655"><ele>406.0</ele><time>2026-04-14T10:27:28.001Z</time></trkpt><trkpt lat="38.040933847520606" lon="15.706754785817914"><ele>406.00000000000006</ele><time>2026-04-14T10:27:29.001Z</time></trkpt><trkpt lat="38.04094669595235" lon="15.706873386254237"><ele>406.0</ele><time>2026-04-14T10:27:30.001Z</time></trkpt><trkpt lat="38.040962923345866" lon="15.706975140010059"><ele>406.0</ele><time>2026-04-14T10:27:32.001Z</time></trkpt><trkpt lat="38.041000417759705" lon="15.707070574998694"><ele>406.0</ele><time>2026-04-14T10:27:33.001Z</time></trkpt><trkpt lat="38.041016449921074" lon="15.707180672257651"><ele>406.00000000000006</ele><time>2026-04-14T10:27:34.001Z</time></trkpt><trkpt lat="38.041018154210725" lon="15.707285350265233"><ele>406.0</ele><time>2026-04-14T10:27:35.001Z</time></trkpt><trkpt lat="38.04097194636106" lon="15.70742935853508"><ele>408.6666666666667</ele><time>2026-04-14T10:27:37.001Z</time></trkpt><trkpt lat="38.04091557798182" lon="15.707558912823792"><ele>411.33333333333337</ele><time>2026-04-14T10:27:39.001Z</time></trkpt><trkpt lat="38.04092906925582" lon="15.707652845734717"><ele>414.0</ele><time>2026-04-14T10:27:40.001Z</time></trkpt><trkpt lat="38.040936188035985" lon="15.70773701399699"><ele>416.66666666666663</ele><time>2026-04-14T10:27:41.001Z</time></trkpt><trkpt lat="38.04096192533708" lon="15.707860927775915"><ele>419.3333333333333</ele><time>2026-04-14T10:27:43.001Z</time></trkpt><trkpt lat="38.04100846536954" lon="15.707930211612585"><ele>422.0</ele><time>2026-04-14T10:27:44.001Z</time></trkpt><trkpt lat="38.04103639563612" lon="15.70805300494027"><ele>424.16666666666663</ele><time>2026-04-14T10:27:45.001Z</time></trkpt><trkpt lat="38.04106344963761" lon="15.708147030798996"><ele>426.3333333333333</ele><time>2026-04-14T10:27:46.001Z</time></trkpt><trkpt lat="38.041089399604445" lon="15.708228139091219"><ele>428.5</ele><time>2026-04-14T10:27:47.001Z</time></trkpt><trkpt lat="38.04106107635404" lon="15.708392121037258"><ele>430.66666666666663</ele><time>2026-04-14T10:27:49.001Z</time></trkpt><trkpt lat="38.04105195172259" lon="15.7084720358153"><ele>432.8333333333333</ele><time>2026-04-14T10:27:50.001Z</time></trkpt><trkpt lat="38.04098869093377" lon="15.708579430683866"><ele>435.0</ele><time>2026-04-14T10:27:52.001Z</time></trkpt><trkpt lat="38.04091903739409" lon="15.708562137052189"><ele>435.0</ele><time>2026-04-14T10:27:54.001Z</time></trkpt><trkpt lat="38.04091574689467" lon="15.708474423264096"><ele>435.0</ele><time>2026-04-14T10:27:55.001Z</time></trkpt><trkpt lat="38.040967350952165" lon="15.708385862869672"><ele>435.0</ele><time>2026-04-14T10:27:56.001Z</time></trkpt><trkpt lat="38.04095153128249" lon="15.708281489830641"><ele>435.0</ele><time>2026-04-14T10:27:57.001Z</time></trkpt><trkpt lat="38.04093826290592" lon="15.70817335625382"><ele>435.0</ele><time>2026-04-14T10:27:58.001Z</time></trkpt><trkpt lat="38.04088969522704" lon="15.70807894989492"><ele>435.0</ele><time>2026-04-14T10:27:59.001Z</time></trkpt><trkpt lat="38.04083260976605" lon="15.70794833202519"><ele>441.2</ele><time>2026-04-14T10:28:00.001Z</time></trkpt><trkpt lat="38.04077683716298" lon="15.707821030862988"><ele>447.4</ele><time>2026-04-14T10:28:01.001Z</time></trkpt><trkpt lat="38.04073287059162" lon="15.707705036538819"><ele>453.6</ele><time>2026-04-14T10:28:02.001Z</time></trkpt><trkpt lat="38.04070432156292" lon="15.70759558339674"><ele>459.8</ele><time>2026-04-14T10:28:03.001Z</time></trkpt><trkpt lat="38.04068532744284" lon="15.707471187290833"><ele>466.0</ele><time>2026-04-14T10:28:04.001Z</time></trkpt><trkpt lat="38.040651198406195" lon="15.707359111906516"><ele>466.0</ele><time>2026-04-14T10:28:05.001Z</time></trkpt><trkpt lat="38.04059964090097" lon="15.707279619587236"><ele>466.0</ele><time>2026-04-14T10:28:06.001Z</time></trkpt><trkpt lat="38.040544918469536" lon="15.707201645241987"><ele>466.0</ele><time>2026-04-14T10:28:07.001Z</time></trkpt><trkpt lat="38.0404789784735" lon="15.707112511762668"><ele>466.0</ele><time>2026-04-14T10:28:08.001Z</time></trkpt><trkpt lat="38.0404216876512" lon="15.707004519226055"><ele>466.0</ele><time>2026-04-14T10:28:09.001Z</time></trkpt><trkpt lat="38.04035191643986" lon="15.706906413360997"><ele>460.50000000000006</ele><time>2026-04-14T10:28:10.001Z</time></trkpt><trkpt lat="38.040284668583105" lon="15.70681468989741"><ele>455.0</ele><time>2026-04-14T10:28:11.001Z</time></trkpt><trkpt lat="38.04021145279965" lon="15.706736823228654"><ele>449.5</ele><time>2026-04-14T10:28:12.001Z</time></trkpt><trkpt lat="38.04014314825046" lon="15.706703648133411"><ele>444.0</ele><time>2026-04-14T10:28:13.001Z</time></trkpt><trkpt lat="38.04006021425237" lon="15.70666532926332"><ele>438.50000000000006</ele><time>2026-04-14T10:28:15.001Z</time></trkpt><trkpt lat="38.04001693786435" lon="15.706729189558487"><ele>433.0</ele><time>2026-04-14T10:28:16.001Z</time></trkpt><trkpt lat="38.04003104488207" lon="15.706819964797626"><ele>433.00000000000006</ele><time>2026-04-14T10:28:17.001Z</time></trkpt><trkpt lat="38.04009252388279" lon="15.706885591618144"><ele>433.0</ele><time>2026-04-14T10:28:18.001Z</time></trkpt><trkpt lat="38.04012387754258" lon="15.70703051063658"><ele>433.0</ele><time>2026-04-14T10:28:20.001Z</time></trkpt><trkpt lat="38.04016374527568" lon="15.707101961734324"><ele>433.0</ele><time>2026-04-14T10:28:21.001Z</time></trkpt><trkpt lat="38.04017849439006" lon="15.70718474861114"><ele>433.00000000000006</ele><time>2026-04-14T10:28:22.001Z</time></trkpt><trkpt lat="38.04022286740226" lon="15.707279783177219"><ele>433.0</ele><time>2026-04-14T10:28:23.001Z</time></trkpt><trkpt lat="38.040276913133866" lon="15.70734574393257"><ele>438.50000000000006</ele><time>2026-04-14T10:28:24.001Z</time></trkpt><trkpt lat="38.040325485101654" lon="15.707459516478378"><ele>444.0</ele><time>2026-04-14T10:28:26.001Z</time></trkpt><trkpt lat="38.04036511146227" lon="15.707544550107654"><ele>449.5</ele><time>2026-04-14T10:28:27.001Z</time></trkpt><trkpt lat="38.040363972440794" lon="15.707635571822397"><ele>455.0</ele><time>2026-04-14T10:28:28.001Z</time></trkpt><trkpt lat="38.04037910326074" lon="15.707725148850265"><ele>460.50000000000006</ele><time>2026-04-14T10:28:29.001Z</time></trkpt><trkpt lat="38.04041181406602" lon="15.70781426350045"><ele>466.0</ele><time>2026-04-14T10:28:30.001Z</time></trkpt><trkpt lat="38.04043056181506" lon="15.707917770627265"><ele>469.1666666666667</ele><time>2026-04-14T10:28:31.001Z</time></trkpt><trkpt lat="38.04044886004563" lon="15.708022429915658"><ele>472.33333333333337</ele><time>2026-04-14T10:28:32.001Z</time></trkpt><trkpt lat="38.04047312013613" lon="15.70811064031933"><ele>475.5</ele><time>2026-04-14T10:28:33.001Z</time></trkpt><trkpt lat="38.04048713679572" lon="15.708193002653944"><ele>478.66666666666663</ele><time>2026-04-14T10:28:34.001Z</time></trkpt><trkpt lat="38.04048891638886" lon="15.708344578547397"><ele>481.8333333333333</ele><time>2026-04-14T10:28:36.001Z</time></trkpt><trkpt lat="38.040475478839944" lon="15.708433222386349"><ele>485.0</ele><time>2026-04-14T10:28:37.001Z</time></trkpt><trkpt lat="38.04045249263883" lon="15.708520927592726"><ele>486.49999999999994</ele><time>2026-04-14T10:28:38.001Z</time></trkpt><trkpt lat="38.04041672663747" lon="15.708593926728797"><ele>488.0</ele><time>2026-04-14T10:28:39.001Z</time></trkpt><trkpt lat="38.040385064129104" lon="15.708668951536113"><ele>489.5</ele><time>2026-04-14T10:28:40.001Z</time></trkpt><trkpt lat="38.040363563558394" lon="15.708752782409547"><ele>491.0</ele><time>2026-04-14T10:28:41.001Z</time></trkpt><trkpt lat="38.04031407859336" lon="15.70881364552345"><ele>492.49999999999994</ele><time>2026-04-14T10:28:42.001Z</time></trkpt><trkpt lat="38.04026988162338" lon="15.708914365173294"><ele>494.0</ele><time>2026-04-14T10:28:44.001Z</time></trkpt><trkpt lat="38.04034907943617" lon="15.70905973717439"><ele>493.99999999999994</ele><time>2026-04-14T10:28:46.001Z</time></trkpt><trkpt lat="38.04039783714663" lon="15.709142935254388"><ele>494.0</ele><time>2026-04-14T10:28:47.001Z</time></trkpt><trkpt lat="38.04047534117739" lon="15.709208256219696"><ele>494.0</ele><time>2026-04-14T10:28:48.001Z</time></trkpt><trkpt lat="38.04056564282362" lon="15.709254163348119"><ele>494.0</ele><time>2026-04-14T10:28:49.001Z</time></trkpt><trkpt lat="38.04062666659228" lon="15.709286015246015"><ele>493.99999999999994</ele><time>2026-04-14T10:28:50.001Z</time></trkpt><trkpt lat="38.040654066507535" lon="15.709402265964364"><ele>494.0</ele><time>2026-04-14T10:28:52.001Z</time></trkpt><trkpt lat="38.04063424406004" lon="15.709574052450064"><ele>495.66666666666663</ele><time>2026-04-14T10:28:54.001Z</time></trkpt><trkpt lat="38.04064233414382" lon="15.709655413348013"><ele>497.3333333333333</ele><time>2026-04-14T10:28:55.001Z</time></trkpt><trkpt lat="38.04058816652109" lon="15.709749971659623"><ele>499.0</ele><time>2026-04-14T10:28:58.001Z</time></trkpt><trkpt lat="38.04048802031798" lon="15.709814207221166"><ele>500.66666666666663</ele><time>2026-04-14T10:29:00.001Z</time></trkpt><trkpt lat="38.0404289564695" lon="15.709842978164133"><ele>502.3333333333333</ele><time>2026-04-14T10:29:01.001Z</time></trkpt><trkpt lat="38.04038399180259" lon="15.709725794980743"><ele>504.0</ele><time>2026-04-14T10:29:03.001Z</time></trkpt><trkpt lat="38.040389340190266" lon="15.709631066698973"><ele>504.0</ele><time>2026-04-14T10:29:04.001Z</time></trkpt><trkpt lat="38.04036491922804" lon="15.709548833041381"><ele>504.0</ele><time>2026-04-14T10:29:05.001Z</time></trkpt><trkpt lat="38.040314249699875" lon="15.709486817558854"><ele>504.0</ele><time>2026-04-14T10:29:06.001Z</time></trkpt><trkpt lat="38.04025273614312" lon="15.709454263882442"><ele>504.0</ele><time>2026-04-14T10:29:07.001Z</time></trkpt><trkpt lat="38.040168968922245" lon="15.709406882299197"><ele>504.0</ele><time>2026-04-14T10:29:08.001Z</time></trkpt><trkpt lat="38.04011162126978" lon="15.709347691529128"><ele>504.0</ele><time>2026-04-14T10:29:09.001Z</time></trkpt><trkpt lat="38.04005305525458" lon="15.709270889532226"><ele>502.3333333333333</ele><time>2026-04-14T10:29:10.001Z</time></trkpt><trkpt lat="38.04001516630884" lon="15.709165966682141"><ele>500.66666666666663</ele><time>2026-04-14T10:29:11.001Z</time></trkpt><trkpt lat="38.039944358584776" lon="15.709094069453425"><ele>499.0</ele><time>2026-04-14T10:29:13.001Z</time></trkpt><trkpt lat="38.03987138519619" lon="15.709176280514685"><ele>497.3333333333333</ele><time>2026-04-14T10:29:15.001Z</time></trkpt><trkpt lat="38.0398734599191" lon="15.709272750918924"><ele>495.66666666666663</ele><time>2026-04-14T10:29:16.001Z</time></trkpt><trkpt lat="38.03990512049836" lon="15.709368996280372"><ele>494.0</ele><time>2026-04-14T10:29:17.001Z</time></trkpt><trkpt lat="38.039946700717984" lon="15.709437555972269"><ele>495.66666666666663</ele><time>2026-04-14T10:29:18.001Z</time></trkpt><trkpt lat="38.03999693956088" lon="15.70950945434079"><ele>497.3333333333333</ele><time>2026-04-14T10:29:19.001Z</time></trkpt><trkpt lat="38.0400260733322" lon="15.709599104614755"><ele>499.0</ele><time>2026-04-14T10:29:20.001Z</time></trkpt><trkpt lat="38.04004511096997" lon="15.709687256309238"><ele>500.66666666666663</ele><time>2026-04-14T10:29:21.001Z</time></trkpt><trkpt lat="38.040045641740704" lon="15.709778839341087"><ele>502.3333333333333</ele><time>2026-04-14T10:29:22.001Z</time></trkpt><trkpt lat="38.04001583522999" lon="15.709855644216322"><ele>504.0</ele><time>2026-04-14T10:29:23.001Z</time></trkpt><trkpt lat="38.039969335740395" lon="15.70999910290514"><ele>505.1666666666667</ele><time>2026-04-14T10:29:25.001Z</time></trkpt><trkpt lat="38.039907277727906" lon="15.710058510684277"><ele>506.33333333333337</ele><time>2026-04-14T10:29:26.001Z</time></trkpt><trkpt lat="38.03986364762139" lon="15.710165274197081"><ele>507.5</ele><time>2026-04-14T10:29:28.001Z</time></trkpt><trkpt lat="38.03987643423757" lon="15.710250439017639"><ele>508.6666666666667</ele><time>2026-04-14T10:29:29.001Z</time></trkpt><trkpt lat="38.03994650556971" lon="15.710306873470332"><ele>509.83333333333337</ele><time>2026-04-14T10:29:30.001Z</time></trkpt><trkpt lat="38.040021842028075" lon="15.710343003804129"><ele>511.0</ele><time>2026-04-14T10:29:31.001Z</time></trkpt><trkpt lat="38.040075674384894" lon="15.710419128123629"><ele>511.00000000000006</ele><time>2026-04-14T10:29:32.001Z</time></trkpt><trkpt lat="38.04003743040104" lon="15.710551205345633"><ele>511.0</ele><time>2026-04-14T10:29:34.001Z</time></trkpt><trkpt lat="38.04000578250777" lon="15.710631474810494"><ele>511.0</ele><time>2026-04-14T10:29:35.001Z</time></trkpt><trkpt lat="38.039973647554085" lon="15.710714647794706"><ele>511.0</ele><time>2026-04-14T10:29:36.001Z</time></trkpt><trkpt lat="38.03993014047299" lon="15.710785974111323"><ele>511.00000000000006</ele><time>2026-04-14T10:29:37.001Z</time></trkpt><trkpt lat="38.03990004424173" lon="15.710865805747359"><ele>511.0</ele><time>2026-04-14T10:29:38.001Z</time></trkpt><trkpt lat="38.03992655807796" lon="15.710957355086324"><ele>519.1666666666667</ele><time>2026-04-14T10:29:39.001Z</time></trkpt><trkpt lat="38.03992296111961" lon="15.71105663360472"><ele>527.3333333333334</ele><time>2026-04-14T10:29:40.001Z</time></trkpt><trkpt lat="38.03990298414978" lon="15.711148012847659"><ele>535.5</ele><time>2026-04-14T10:29:41.001Z</time></trkpt><trkpt lat="38.03987674953113" lon="15.711232408710687"><ele>543.6666666666666</ele><time>2026-04-14T10:29:42.001Z</time></trkpt><trkpt lat="38.039853851420986" lon="15.711386679703374"><ele>551.8333333333333</ele><time>2026-04-14T10:29:44.001Z</time></trkpt><trkpt lat="38.039840685769974" lon="15.7114767164818"><ele>560.0</ele><time>2026-04-14T10:29:45.001Z</time></trkpt><trkpt lat="38.0398554320208" lon="15.71159774015949"><ele>560.6</ele><time>2026-04-14T10:29:46.001Z</time></trkpt><trkpt lat="38.039872772365136" lon="15.71174667275038"><ele>561.2</ele><time>2026-04-14T10:29:47.001Z</time></trkpt><trkpt lat="38.03988869365707" lon="15.711912044805649"><ele>561.8</ele><time>2026-04-14T10:29:48.001Z</time></trkpt><trkpt lat="38.03987828247271" lon="15.712028035323076"><ele>562.4</ele><time>2026-04-14T10:29:49.001Z</time></trkpt><trkpt lat="38.03988074283206" lon="15.712138579718296"><ele>563.0</ele><time>2026-04-14T10:29:50.001Z</time></trkpt><trkpt lat="38.039878720434466" lon="15.71223575563406"><ele>563.0</ele><time>2026-04-14T10:29:51.001Z</time></trkpt><trkpt lat="38.039814115318556" lon="15.71225756983522"><ele>563.0</ele><time>2026-04-14T10:29:54.001Z</time></trkpt><trkpt lat="38.03979482739089" lon="15.712138175724993"><ele>563.0</ele><time>2026-04-14T10:29:56.001Z</time></trkpt><trkpt lat="38.03976797215472" lon="15.712052359886828"><ele>563.0</ele><time>2026-04-14T10:29:57.001Z</time></trkpt><trkpt lat="38.03972768497081" lon="15.711943530556988"><ele>563.0</ele><time>2026-04-14T10:29:58.001Z</time></trkpt><trkpt lat="38.03967335070935" lon="15.711835042202418"><ele>563.0</ele><time>2026-04-14T10:29:59.001Z</time></trkpt><trkpt lat="38.03964356908021" lon="15.711722603791118"><ele>563.0</ele><time>2026-04-14T10:30:00.001Z</time></trkpt><trkpt lat="38.03961014381858" lon="15.711601369320707"><ele>563.0</ele><time>2026-04-14T10:30:01.001Z</time></trkpt><trkpt lat="38.03959997933843" lon="15.711516914667477"><ele>563.0</ele><time>2026-04-14T10:30:02.001Z</time></trkpt><trkpt lat="38.03958651754551" lon="15.711418228503673"><ele>563.0</ele><time>2026-04-14T10:30:03.001Z</time></trkpt><trkpt lat="38.039604453371545" lon="15.711320090611581"><ele>563.0</ele><time>2026-04-14T10:30:04.001Z</time></trkpt><trkpt lat="38.0395620386315" lon="15.71118539539527"><ele>563.0</ele><time>2026-04-14T10:30:06.001Z</time></trkpt><trkpt lat="38.0394926404164" lon="15.711142154967831"><ele>563.0</ele><time>2026-04-14T10:30:07.001Z</time></trkpt><trkpt lat="38.03943481763503" lon="15.71108489929903"><ele>563.0</ele><time>2026-04-14T10:30:08.001Z</time></trkpt><trkpt lat="38.039376127888325" lon="15.710965542652124"><ele>563.0</ele><time>2026-04-14T10:30:10.001Z</time></trkpt><trkpt lat="38.03938773729425" lon="15.7108310056802"><ele>563.0</ele><time>2026-04-14T10:30:12.001Z</time></trkpt><trkpt lat="38.039397829779816" lon="15.710727205606306"><ele>563.0</ele><time>2026-04-14T10:30:13.001Z</time></trkpt><trkpt lat="38.03938916717167" lon="15.71063737964209"><ele>563.0</ele><time>2026-04-14T10:30:14.001Z</time></trkpt><trkpt lat="38.03937493301542" lon="15.71055867635122"><ele>562.4</ele><time>2026-04-14T10:30:15.001Z</time></trkpt><trkpt lat="38.039330464887634" lon="15.710480483632997"><ele>561.8</ele><time>2026-04-14T10:30:16.001Z</time></trkpt><trkpt lat="38.03928303205355" lon="15.710401848489216"><ele>561.2</ele><time>2026-04-14T10:30:17.001Z</time></trkpt><trkpt lat="38.039283979789715" lon="15.710228095837975"><ele>560.6</ele><time>2026-04-14T10:30:19.001Z</time></trkpt><trkpt lat="38.03925285628905" lon="15.710127810554878"><ele>560.0</ele><time>2026-04-14T10:30:20.001Z</time></trkpt><trkpt lat="38.03922669066474" lon="15.71003826218229"><ele>558.1666666666666</ele><time>2026-04-14T10:30:21.001Z</time></trkpt><trkpt lat="38.039188339732746" lon="15.70997297083242"><ele>556.3333333333333</ele><time>2026-04-14T10:30:22.001Z</time></trkpt><trkpt lat="38.03915915933824" lon="15.709889856008768"><ele>554.5</ele><time>2026-04-14T10:30:23.001Z</time></trkpt><trkpt lat="38.0390966194816" lon="15.709829657540032"><ele>552.6666666666666</ele><time>2026-04-14T10:30:24.001Z</time></trkpt><trkpt lat="38.039033853315004" lon="15.709748911676629"><ele>550.8333333333334</ele><time>2026-04-14T10:30:26.001Z</time></trkpt><trkpt lat="38.03900255663953" lon="15.709855520099461"><ele>549.0</ele><time>2026-04-14T10:30:28.001Z</time></trkpt><trkpt lat="38.039038071446726" lon="15.709931369814056"><ele>560.0</ele><time>2026-04-14T10:30:30Z</time></trkpt><trkpt lat="38.039058414279516" lon="15.710011724990038"><ele>571.0</ele><time>2026-04-14T10:30:31Z</time></trkpt><trkpt lat="38.03907435564172" lon="15.710106363541557"><ele>582.0</ele><time>2026-04-14T10:30:32Z</time></trkpt><trkpt lat="38.03905295569467" lon="15.710259345413807"><ele>593.0</ele><time>2026-04-14T10:30:34Z</time></trkpt><trkpt lat="38.0390352230614" lon="15.710361795772464"><ele>604.0</ele><time>2026-04-14T10:30:35Z</time></trkpt><trkpt lat="38.03901256627534" lon="15.710492123421334"><ele>606.75</ele><time>2026-04-14T10:30:36Z</time></trkpt><trkpt lat="38.03893467549523" lon="15.710593523967935"><ele>609.5</ele><time>2026-04-14T10:30:37Z</time></trkpt><trkpt lat="38.03890819137894" lon="15.710762358587179"><ele>612.25</ele><time>2026-04-14T10:30:40Z</time></trkpt><trkpt lat="38.03891059453992" lon="15.71094412440652"><ele>615.0</ele><time>2026-04-14T10:30:42Z</time></trkpt><trkpt lat="38.03890426993146" lon="15.711056962667492"><ele>611.3333333333334</ele><time>2026-04-14T10:30:43Z</time></trkpt><trkpt lat="38.03890197904643" lon="15.71117444899341"><ele>607.6666666666666</ele><time>2026-04-14T10:30:44.001Z</time></trkpt><trkpt lat="38.03890262319032" lon="15.711290970261405"><ele>604.0</ele><time>2026-04-14T10:30:45Z</time></trkpt><trkpt lat="38.038914739792" lon="15.711372608504572"><ele>600.3333333333333</ele><time>2026-04-14T10:30:46Z</time></trkpt><trkpt lat="38.03886455041436" lon="15.711433105806032"><ele>596.6666666666666</ele><time>2026-04-14T10:30:49Z</time></trkpt><trkpt lat="38.03885053276967" lon="15.711327392519625"><ele>593.0</ele><time>2026-04-14T10:30:51Z</time></trkpt><trkpt lat="38.03885017057048" lon="15.711245395164052"><ele>593.0</ele><time>2026-04-14T10:30:52Z</time></trkpt><trkpt lat="38.03882972074484" lon="15.711135006594999"><ele>593.0</ele><time>2026-04-14T10:30:53Z</time></trkpt><trkpt lat="38.038787451749485" lon="15.711028984175835"><ele>593.0</ele><time>2026-04-14T10:30:54Z</time></trkpt><trkpt lat="38.03877448824173" lon="15.710905602701812"><ele>593.0</ele><time>2026-04-14T10:30:55Z</time></trkpt><trkpt lat="38.03874544221256" lon="15.710783950736376"><ele>593.0</ele><time>2026-04-14T10:30:56Z</time></trkpt><trkpt lat="38.03872750208787" lon="15.710672680913552"><ele>594.8333333333333</ele><time>2026-04-14T10:30:57Z</time></trkpt><trkpt lat="38.038749161852046" lon="15.710581787873753"><ele>596.6666666666666</ele><time>2026-04-14T10:30:58Z</time></trkpt><trkpt lat="38.0387588112855" lon="15.710466185550871"><ele>598.5</ele><time>2026-04-14T10:30:59.001Z</time></trkpt><trkpt lat="38.038762480721815" lon="15.710374365237344"><ele>600.3333333333334</ele><time>2026-04-14T10:31:00.001Z</time></trkpt><trkpt lat="38.038712948019175" lon="15.710278316442626"><ele>602.1666666666667</ele><time>2026-04-14T10:31:01.001Z</time></trkpt><trkpt lat="38.03867738020674" lon="15.710198147316222"><ele>604.0</ele><time>2026-04-14T10:31:02.001Z</time></trkpt><trkpt lat="38.038628167178516" lon="15.710124924579771"><ele>604.0</ele><time>2026-04-14T10:31:03.001Z</time></trkpt><trkpt lat="38.038555785986" lon="15.71005029112929"><ele>604.0</ele><time>2026-04-14T10:31:04.001Z</time></trkpt><trkpt lat="38.038484861023726" lon="15.7099629229892"><ele>604.0</ele><time>2026-04-14T10:31:05.001Z</time></trkpt><trkpt lat="38.038425971916915" lon="15.709851555945168"><ele>604.0</ele><time>2026-04-14T10:31:06.001Z</time></trkpt><trkpt lat="38.03836338376183" lon="15.709733379092656"><ele>604.0</ele><time>2026-04-14T10:31:07.001Z</time></trkpt><trkpt lat="38.03830678387373" lon="15.70966226677202"><ele>610.8</ele><time>2026-04-14T10:31:08.001Z</time></trkpt><trkpt lat="38.03823700663433" lon="15.70961590527387"><ele>617.5999999999999</ele><time>2026-04-14T10:31:09.001Z</time></trkpt><trkpt lat="38.038159263297544" lon="15.709551161644958"><ele>624.4</ele><time>2026-04-14T10:31:11.001Z</time></trkpt><trkpt lat="38.03807512504071" lon="15.709609055439014"><ele>631.1999999999999</ele><time>2026-04-14T10:31:13.001Z</time></trkpt><trkpt lat="38.038157412014954" lon="15.709751734856948"><ele>638.0</ele><time>2026-04-14T10:31:15.001Z</time></trkpt><trkpt lat="38.038218217417786" lon="15.709834736219706"><ele>638.0</ele><time>2026-04-14T10:31:16.001Z</time></trkpt><trkpt lat="38.038230424233184" lon="15.70991521803815"><ele>638.0</ele><time>2026-04-14T10:31:17.001Z</time></trkpt><trkpt lat="38.03824494529621" lon="15.710027012714221"><ele>638.0</ele><time>2026-04-14T10:31:18.001Z</time></trkpt><trkpt lat="38.03825194108283" lon="15.710150558594151"><ele>638.0</ele><time>2026-04-14T10:31:19.001Z</time></trkpt><trkpt lat="38.038269074539514" lon="15.710277170641845"><ele>638.0</ele><time>2026-04-14T10:31:20.001Z</time></trkpt><trkpt lat="38.038280579807754" lon="15.71042580545264"><ele>636.8333333333333</ele><time>2026-04-14T10:31:21.001Z</time></trkpt><trkpt lat="38.0382973660461" lon="15.710591045953674"><ele>635.6666666666666</ele><time>2026-04-14T10:31:22.001Z</time></trkpt><trkpt lat="38.03830488947852" lon="15.710705675238511"><ele>634.5</ele><time>2026-04-14T10:31:23.001Z</time></trkpt><trkpt lat="38.03827033411357" lon="15.710798247550347"><ele>633.3333333333334</ele><time>2026-04-14T10:31:25.001Z</time></trkpt><trkpt lat="38.03820079024588" lon="15.710774681616297"><ele>632.1666666666667</ele><time>2026-04-14T10:31:28.001Z</time></trkpt><trkpt lat="38.03818642999838" lon="15.710696225555496"><ele>631.0</ele><time>2026-04-14T10:31:29.001Z</time></trkpt><trkpt lat="38.03818963983004" lon="15.710609647283452"><ele>631.0</ele><time>2026-04-14T10:31:30.001Z</time></trkpt><trkpt lat="38.03814602297337" lon="15.710497994132002"><ele>631.0</ele><time>2026-04-14T10:31:31.001Z</time></trkpt><trkpt lat="38.03806889134351" lon="15.71040636782049"><ele>631.0</ele><time>2026-04-14T10:31:32.001Z</time></trkpt><trkpt lat="38.038002319481315" lon="15.710292103442649"><ele>631.0</ele><time>2026-04-14T10:31:33.001Z</time></trkpt><trkpt lat="38.037921295321866" lon="15.710198360977566"><ele>631.0</ele><time>2026-04-14T10:31:34.001Z</time></trkpt><trkpt lat="38.03785076918586" lon="15.710130163246339"><ele>632.4</ele><time>2026-04-14T10:31:35.001Z</time></trkpt><trkpt lat="38.037743515142175" lon="15.710104383954205"><ele>633.8</ele><time>2026-04-14T10:31:36.001Z</time></trkpt><trkpt lat="38.03766121363694" lon="15.710036859790794"><ele>635.1999999999999</ele><time>2026-04-14T10:31:37Z</time></trkpt><trkpt lat="38.03759585676445" lon="15.709972347920534"><ele>636.6</ele><time>2026-04-14T10:31:38Z</time></trkpt><trkpt lat="38.03752939219501" lon="15.709901967979125"><ele>638.0</ele><time>2026-04-14T10:31:39Z</time></trkpt><trkpt lat="38.037457606018464" lon="15.709824466813387"><ele>642.5</ele><time>2026-04-14T10:31:40Z</time></trkpt><trkpt lat="38.03736790070202" lon="15.709727619940152"><ele>647.0</ele><time>2026-04-14T10:31:41Z</time></trkpt><trkpt lat="38.03727427714708" lon="15.709623041344821"><ele>651.5</ele><time>2026-04-14T10:31:42Z</time></trkpt><trkpt lat="38.03719387942741" lon="15.709507490311147"><ele>656.0</ele><time>2026-04-14T10:31:43Z</time></trkpt><trkpt lat="38.03713367949878" lon="15.709393204488329"><ele>657.5999999999999</ele><time>2026-04-14T10:31:44Z</time></trkpt><trkpt lat="38.03705437361054" lon="15.709282248260097"><ele>659.2</ele><time>2026-04-14T10:31:45Z</time></trkpt><trkpt lat="38.036996462543705" lon="15.709181379988388"><ele>660.8</ele><time>2026-04-14T10:31:46Z</time></trkpt><trkpt lat="38.03695859430451" lon="15.709086785815053"><ele>662.4000000000001</ele><time>2026-04-14T10:31:47Z</time></trkpt><trkpt lat="38.0369161174987" lon="15.708977053228358"><ele>664.0</ele><time>2026-04-14T10:31:48Z</time></trkpt><trkpt lat="38.03686724703546" lon="15.708893160036872"><ele>664.0</ele><time>2026-04-14T10:31:49Z</time></trkpt><trkpt lat="38.03680064584805" lon="15.70879955483476"><ele>664.0</ele><time>2026-04-14T10:31:50Z</time></trkpt><trkpt lat="38.036728663860224" lon="15.708689069320478"><ele>664.0</ele><time>2026-04-14T10:31:51Z</time></trkpt><trkpt lat="38.036676843490454" lon="15.708575797907551"><ele>664.0</ele><time>2026-04-14T10:31:52Z</time></trkpt><trkpt lat="38.03663154380331" lon="15.708473285911682"><ele>664.0</ele><time>2026-04-14T10:31:53Z</time></trkpt><trkpt lat="38.03658110340522" lon="15.708403119855"><ele>665.0</ele><time>2026-04-14T10:31:54Z</time></trkpt><trkpt lat="38.03652530056974" lon="15.708297442509519"><ele>666.0</ele><time>2026-04-14T10:31:56Z</time></trkpt><trkpt lat="38.036459896340446" lon="15.708282598743022"><ele>667.0</ele><time>2026-04-14T10:31:57Z</time></trkpt><trkpt lat="38.03636877603455" lon="15.708347845070692"><ele>668.0</ele><time>2026-04-14T10:31:58Z</time></trkpt><trkpt lat="38.03629410149891" lon="15.708287680726066"><ele>669.0</ele><time>2026-04-14T10:31:59Z</time></trkpt><trkpt lat="38.03621976469497" lon="15.708238599798513"><ele>670.0</ele><time>2026-04-14T10:32:00Z</time></trkpt><trkpt lat="38.03614113580015" lon="15.70816719582978"><ele>670.0</ele><time>2026-04-14T10:32:01Z</time></trkpt><trkpt lat="38.0360623494308" lon="15.708095316942746"><ele>670.0</ele><time>2026-04-14T10:32:02Z</time></trkpt><trkpt lat="38.03597797135728" lon="15.70803610098143"><ele>670.0</ele><time>2026-04-14T10:32:03Z</time></trkpt><trkpt lat="38.03588138502089" lon="15.707977826827639"><ele>670.0</ele><time>2026-04-14T10:32:04Z</time></trkpt><trkpt lat="38.03578445808131" lon="15.707932791487895"><ele>670.0</ele><time>2026-04-14T10:32:05Z</time></trkpt><trkpt lat="38.035700712459075" lon="15.707921817293002"><ele>668.0</ele><time>2026-04-14T10:32:06Z</time></trkpt><trkpt lat="38.03562251389319" lon="15.707902730052911"><ele>666.0</ele><time>2026-04-14T10:32:07Z</time></trkpt><trkpt lat="38.03553179557471" lon="15.70783991859751"><ele>664.0</ele><time>2026-04-14T10:32:08Z</time></trkpt><trkpt lat="38.035441789245056" lon="15.70775853656144"><ele>662.0</ele><time>2026-04-14T10:32:09Z</time></trkpt><trkpt lat="38.035371386922726" lon="15.707683337206877"><ele>660.0</ele><time>2026-04-14T10:32:10Z</time></trkpt><trkpt lat="38.03526585528881" lon="15.707603967957658"><ele>660.0</ele><time>2026-04-14T10:32:12Z</time></trkpt><trkpt lat="38.035194815672355" lon="15.70759594474751"><ele>660.0</ele><time>2026-04-14T10:32:13Z</time></trkpt><trkpt lat="38.035122362912986" lon="15.707615413228366"><ele>660.0</ele><time>2026-04-14T10:32:14Z</time></trkpt><trkpt lat="38.03504539256227" lon="15.707650228459807"><ele>660.0</ele><time>2026-04-14T10:32:15Z</time></trkpt><trkpt lat="38.034973910638485" lon="15.707693012129152"><ele>660.0</ele><time>2026-04-14T10:32:16Z</time></trkpt><trkpt lat="38.03490075945919" lon="15.707747547844587"><ele>660.0</ele><time>2026-04-14T10:32:17Z</time></trkpt><trkpt lat="38.03482510517962" lon="15.70780130657476"><ele>663.3333333333334</ele><time>2026-04-14T10:32:18Z</time></trkpt><trkpt lat="38.03474648546464" lon="15.707846427185045"><ele>666.6666666666666</ele><time>2026-04-14T10:32:19Z</time></trkpt><trkpt lat="38.03467318514863" lon="15.707866407310407"><ele>670.0</ele><time>2026-04-14T10:32:20Z</time></trkpt><trkpt lat="38.03459045957993" lon="15.70786242960241"><ele>673.3333333333333</ele><time>2026-04-14T10:32:21Z</time></trkpt><trkpt lat="38.03451580061101" lon="15.70788047037921"><ele>676.6666666666666</ele><time>2026-04-14T10:32:22Z</time></trkpt><trkpt lat="38.034444736261825" lon="15.707925813716137"><ele>680.0</ele><time>2026-04-14T10:32:23Z</time></trkpt><trkpt lat="38.034385428119876" lon="15.707991274128064"><ele>680.0</ele><time>2026-04-14T10:32:24Z</time></trkpt><trkpt lat="38.03433106007023" lon="15.70805699043459"><ele>680.0</ele><time>2026-04-14T10:32:25Z</time></trkpt><trkpt lat="38.034272924558564" lon="15.708133514730205"><ele>680.0</ele><time>2026-04-14T10:32:26Z</time></trkpt><trkpt lat="38.03422162515896" lon="15.708213244099722"><ele>680.0</ele><time>2026-04-14T10:32:27Z</time></trkpt><trkpt lat="38.03417679802002" lon="15.708291846687377"><ele>680.0</ele><time>2026-04-14T10:32:28Z</time></trkpt><trkpt lat="38.03411483196732" lon="15.708371778322796"><ele>680.0</ele><time>2026-04-14T10:32:29Z</time></trkpt><trkpt lat="38.03403398037744" lon="15.708420532339971"><ele>680.5</ele><time>2026-04-14T10:32:30Z</time></trkpt><trkpt lat="38.0339804509688" lon="15.708501134067332"><ele>681.0</ele><time>2026-04-14T10:32:31Z</time></trkpt><trkpt lat="38.033955224879" lon="15.708577950837219"><ele>681.5</ele><time>2026-04-14T10:32:32Z</time></trkpt><trkpt lat="38.03397366692923" lon="15.708667088596318"><ele>682.0</ele><time>2026-04-14T10:32:33Z</time></trkpt><trkpt lat="38.03398311208502" lon="15.708768274524104"><ele>682.5</ele><time>2026-04-14T10:32:34Z</time></trkpt><trkpt lat="38.033964344583254" lon="15.708869990476488"><ele>683.0</ele><time>2026-04-14T10:32:35Z</time></trkpt><trkpt lat="38.03394766733173" lon="15.70897909555829"><ele>683.0</ele><time>2026-04-14T10:32:36Z</time></trkpt><trkpt lat="38.033923590168854" lon="15.709095049463588"><ele>683.0</ele><time>2026-04-14T10:32:37Z</time></trkpt><trkpt lat="38.03390216488342" lon="15.709203975763828"><ele>683.0</ele><time>2026-04-14T10:32:38Z</time></trkpt><trkpt lat="38.03388766644434" lon="15.709343592623577"><ele>683.0</ele><time>2026-04-14T10:32:39Z</time></trkpt><trkpt lat="38.0338594910905" lon="15.709468002753049"><ele>683.0</ele><time>2026-04-14T10:32:40Z</time></trkpt><trkpt lat="38.033842208936036" lon="15.709585198342554"><ele>684.4</ele><time>2026-04-14T10:32:41Z</time></trkpt><trkpt lat="38.03380409117101" lon="15.709656087705655"><ele>685.8</ele><time>2026-04-14T10:32:42Z</time></trkpt><trkpt lat="38.03373691657758" lon="15.70978129455409"><ele>687.2</ele><time>2026-04-14T10:32:44Z</time></trkpt><trkpt lat="38.03363225072173" lon="15.709856835581126"><ele>688.6</ele><time>2026-04-14T10:32:46Z</time></trkpt><trkpt lat="38.03356802928675" lon="15.709911714482484"><ele>690.0</ele><time>2026-04-14T10:32:48Z</time></trkpt><trkpt lat="38.03358912402292" lon="15.710016076976453"><ele>690.0</ele><time>2026-04-14T10:32:50Z</time></trkpt><trkpt lat="38.03359015516067" lon="15.710156403788082"><ele>690.0</ele><time>2026-04-14T10:38:18Z</time></trkpt><trkpt lat="38.03357730751472" lon="15.71031428745143"><ele>690.0</ele><time>2026-04-14T10:38:20Z</time></trkpt><trkpt lat="38.03356197803569" lon="15.710419786917731"><ele>690.0</ele><time>2026-04-14T10:38:21Z</time></trkpt><trkpt lat="38.03358939567319" lon="15.710513071081897"><ele>690.0</ele><time>2026-04-14T10:38:22Z</time></trkpt><trkpt lat="38.033646210938095" lon="15.710586938366097"><ele>690.1666666666666</ele><time>2026-04-14T10:38:23Z</time></trkpt><trkpt lat="38.03368181786294" lon="15.710671832021353"><ele>690.3333333333334</ele><time>2026-04-14T10:38:24Z</time></trkpt><trkpt lat="38.03371391020311" lon="15.710759448084506"><ele>690.5</ele><time>2026-04-14T10:38:25Z</time></trkpt><trkpt lat="38.03372060806293" lon="15.71085848452166"><ele>690.6666666666667</ele><time>2026-04-14T10:38:26Z</time></trkpt><trkpt lat="38.033734386761196" lon="15.710950407848204"><ele>690.8333333333334</ele><time>2026-04-14T10:38:27Z</time></trkpt><trkpt lat="38.03373877163521" lon="15.711043651862282"><ele>691.0</ele><time>2026-04-14T10:38:28Z</time></trkpt><trkpt lat="38.033732959852706" lon="15.711135199576821"><ele>692.8</ele><time>2026-04-14T10:38:29Z</time></trkpt><trkpt lat="38.033711487271205" lon="15.711228204769304"><ele>694.5999999999999</ele><time>2026-04-14T10:38:30Z</time></trkpt><trkpt lat="38.03370011041433" lon="15.71132459417815"><ele>696.4</ele><time>2026-04-14T10:38:31Z</time></trkpt><trkpt lat="38.03366583475258" lon="15.711492928026061"><ele>698.2</ele><time>2026-04-14T10:38:33Z</time></trkpt><trkpt lat="38.03369313263836" lon="15.71159335097149"><ele>700.0</ele><time>2026-04-14T10:38:34Z</time></trkpt><trkpt lat="38.03372978925305" lon="15.711686411165047"><ele>700.0</ele><time>2026-04-14T10:38:35Z</time></trkpt><trkpt lat="38.03378358234799" lon="15.711776796422154"><ele>700.0</ele><time>2026-04-14T10:38:36Z</time></trkpt><trkpt lat="38.03381751795115" lon="15.711898604503764"><ele>700.0</ele><time>2026-04-14T10:38:37Z</time></trkpt><trkpt lat="38.03386115625905" lon="15.712030188150079"><ele>700.0</ele><time>2026-04-14T10:38:38Z</time></trkpt><trkpt lat="38.03390953562136" lon="15.712172018763278"><ele>700.0</ele><time>2026-04-14T10:38:39Z</time></trkpt><trkpt lat="38.033960956306565" lon="15.712314341720905"><ele>697.25</ele><time>2026-04-14T10:38:40Z</time></trkpt><trkpt lat="38.03401220378902" lon="15.71245497153054"><ele>694.5</ele><time>2026-04-14T10:38:41Z</time></trkpt><trkpt lat="38.03406417571266" lon="15.71259637272779"><ele>691.75</ele><time>2026-04-14T10:38:42Z</time></trkpt><trkpt lat="38.0341147908365" lon="15.712730564171109"><ele>689.0</ele><time>2026-04-14T10:38:43Z</time></trkpt><trkpt lat="38.03415477207808" lon="15.712865867666741"><ele>689.0</ele><time>2026-04-14T10:38:44Z</time></trkpt><trkpt lat="38.03418680299726" lon="15.713002811708519"><ele>689.0</ele><time>2026-04-14T10:38:45Z</time></trkpt><trkpt lat="38.03421634177014" lon="15.713143211538243"><ele>689.0</ele><time>2026-04-14T10:38:46Z</time></trkpt><trkpt lat="38.034240146132625" lon="15.713273756275987"><ele>689.0</ele><time>2026-04-14T10:38:47Z</time></trkpt><trkpt lat="38.03427066975125" lon="15.713415668784096"><ele>689.0</ele><time>2026-04-14T10:38:48Z</time></trkpt><trkpt lat="38.03431115803333" lon="15.713546135162531"><ele>691.6</ele><time>2026-04-14T10:38:49Z</time></trkpt><trkpt lat="38.034338787402156" lon="15.713683308487097"><ele>694.2</ele><time>2026-04-14T10:38:50Z</time></trkpt><trkpt lat="38.034371250581565" lon="15.713824930196726"><ele>696.8000000000001</ele><time>2026-04-14T10:38:51Z</time></trkpt><trkpt lat="38.03440840867698" lon="15.713952148603267"><ele>699.4000000000001</ele><time>2026-04-14T10:38:52Z</time></trkpt><trkpt lat="38.034440114766504" lon="15.7140708966084"><ele>702.0</ele><time>2026-04-14T10:38:53Z</time></trkpt><trkpt lat="38.03445915395576" lon="15.714181151069543"><ele>702.0</ele><time>2026-04-14T10:38:54Z</time></trkpt><trkpt lat="38.03446484986072" lon="15.714278962566057"><ele>702.0</ele><time>2026-04-14T10:38:55Z</time></trkpt><trkpt lat="38.03445201422305" lon="15.714363770792662"><ele>702.0</ele><time>2026-04-14T10:38:56Z</time></trkpt><trkpt lat="38.03442870630622" lon="15.714476151933386"><ele>702.0</ele><time>2026-04-14T10:38:57Z</time></trkpt><trkpt lat="38.034416447923945" lon="15.714597621724813"><ele>702.0</ele><time>2026-04-14T10:38:58Z</time></trkpt><trkpt lat="38.03441863189283" lon="15.714729291361314"><ele>702.0</ele><time>2026-04-14T10:38:59Z</time></trkpt><trkpt lat="38.03439429224645" lon="15.71485756340908"><ele>702.6666666666666</ele><time>2026-04-14T10:39:00Z</time></trkpt><trkpt lat="38.03438167915843" lon="15.714984593630422"><ele>703.3333333333334</ele><time>2026-04-14T10:39:01Z</time></trkpt><trkpt lat="38.03435934294767" lon="15.715111040699805"><ele>704.0</ele><time>2026-04-14T10:39:02Z</time></trkpt><trkpt lat="38.03435785007424" lon="15.715218812320783"><ele>704.6666666666667</ele><time>2026-04-14T10:39:03Z</time></trkpt><trkpt lat="38.03434702760133" lon="15.715308049588796"><ele>705.3333333333334</ele><time>2026-04-14T10:39:04Z</time></trkpt><trkpt lat="38.03430103904789" lon="15.71538468523054"><ele>706.0</ele><time>2026-04-14T10:39:05Z</time></trkpt><trkpt lat="38.034257463865984" lon="15.715485060597802"><ele>706.0</ele><time>2026-04-14T10:39:06Z</time></trkpt><trkpt lat="38.03423207769528" lon="15.715594169841465"><ele>706.0</ele><time>2026-04-14T10:39:07Z</time></trkpt><trkpt lat="38.034196040490734" lon="15.715670436375358"><ele>706.0</ele><time>2026-04-14T10:39:08Z</time></trkpt><trkpt lat="38.03414154308215" lon="15.715814571976383"><ele>706.0</ele><time>2026-04-14T10:39:10Z</time></trkpt><trkpt lat="38.03409346576813" lon="15.715898369595276"><ele>706.0</ele><time>2026-04-14T10:39:11Z</time></trkpt><trkpt lat="38.03404140612203" lon="15.71596663185698"><ele>706.0</ele><time>2026-04-14T10:39:12Z</time></trkpt><trkpt lat="38.03401616325482" lon="15.716072850937632"><ele>703.0</ele><time>2026-04-14T10:39:13Z</time></trkpt><trkpt lat="38.03399096119909" lon="15.71617051453212"><ele>700.0</ele><time>2026-04-14T10:39:14Z</time></trkpt><trkpt lat="38.033985567434875" lon="15.716267706495904"><ele>697.0</ele><time>2026-04-14T10:39:15Z</time></trkpt><trkpt lat="38.03397792608987" lon="15.716371175103651"><ele>694.0</ele><time>2026-04-14T10:39:16Z</time></trkpt><trkpt lat="38.03397549231875" lon="15.716464644184391"><ele>691.0</ele><time>2026-04-14T10:39:17Z</time></trkpt><trkpt lat="38.033973111380696" lon="15.71656133581366"><ele>688.0</ele><time>2026-04-14T10:39:18Z</time></trkpt><trkpt lat="38.033967276599874" lon="15.716645963617765"><ele>688.0</ele><time>2026-04-14T10:39:19Z</time></trkpt><trkpt lat="38.03397576060653" lon="15.716729096519428"><ele>688.0</ele><time>2026-04-14T10:39:20Z</time></trkpt><trkpt lat="38.03395703275172" lon="15.716889988860013"><ele>688.0</ele><time>2026-04-14T10:39:22Z</time></trkpt><trkpt lat="38.03392882238328" lon="15.717018615596901"><ele>688.0</ele><time>2026-04-14T10:39:24Z</time></trkpt><trkpt lat="38.033856127278526" lon="15.717112106116186"><ele>688.0</ele><time>2026-04-14T10:39:26Z</time></trkpt><trkpt lat="38.033762739898336" lon="15.717187426541694"><ele>686.0</ele><time>2026-04-14T10:39:28Z</time></trkpt><trkpt lat="38.03365822773253" lon="15.717256135525297"><ele>684.0</ele><time>2026-04-14T10:39:30Z</time></trkpt><trkpt lat="38.0335931826818" lon="15.717254736943692"><ele>682.0</ele><time>2026-04-14T10:39:31Z</time></trkpt><trkpt lat="38.033545644281666" lon="15.717196561575301"><ele>680.0</ele><time>2026-04-14T10:39:32Z</time></trkpt><trkpt lat="38.0334567335648" lon="15.717185237735254"><ele>678.0</ele><time>2026-04-14T10:39:34Z</time></trkpt><trkpt lat="38.03340753756551" lon="15.717257181341166"><ele>676.0</ele><time>2026-04-14T10:39:36Z</time></trkpt><trkpt lat="38.03346844477694" lon="15.717359740071121"><ele>676.0</ele><time>2026-04-14T10:39:38Z</time></trkpt><trkpt lat="38.033567660829796" lon="15.717436751753732"><ele>676.0</ele><time>2026-04-14T10:39:40Z</time></trkpt><trkpt lat="38.033632394998435" lon="15.71750801558655"><ele>676.0</ele><time>2026-04-14T10:39:42Z</time></trkpt><trkpt lat="38.033640642364475" lon="15.717605440936527"><ele>676.0</ele><time>2026-04-14T10:39:44Z</time></trkpt><trkpt lat="38.03361722589137" lon="15.717763727514784"><ele>676.0</ele><time>2026-04-14T10:39:46Z</time></trkpt><trkpt lat="38.03360375835069" lon="15.71785910558779"><ele>674.6666666666667</ele><time>2026-04-14T10:39:47Z</time></trkpt><trkpt lat="38.033589208829454" lon="15.717962102701819"><ele>673.3333333333334</ele><time>2026-04-14T10:39:48Z</time></trkpt><trkpt lat="38.03356837086757" lon="15.718061545555319"><ele>672.0</ele><time>2026-04-14T10:39:49Z</time></trkpt><trkpt lat="38.033535696436566" lon="15.718156864072958"><ele>670.6666666666666</ele><time>2026-04-14T10:39:50Z</time></trkpt><trkpt lat="38.03348884246129" lon="15.718250768681054"><ele>669.3333333333333</ele><time>2026-04-14T10:39:51Z</time></trkpt><trkpt lat="38.03342822405076" lon="15.718327056569153"><ele>668.0</ele><time>2026-04-14T10:39:52Z</time></trkpt><trkpt lat="38.03335894050873" lon="15.718386608015942"><ele>668.7142857142857</ele><time>2026-04-14T10:39:53Z</time></trkpt><trkpt lat="38.033297165846484" lon="15.718448803817768"><ele>669.4285714285714</ele><time>2026-04-14T10:39:54Z</time></trkpt><trkpt lat="38.03326637801831" lon="15.718518912752014"><ele>670.1428571428571</ele><time>2026-04-14T10:39:55Z</time></trkpt><trkpt lat="38.0332606590466" lon="15.718606457127258"><ele>670.8571428571429</ele><time>2026-04-14T10:39:56Z</time></trkpt><trkpt lat="38.03326746176504" lon="15.718696449304217"><ele>671.5714285714286</ele><time>2026-04-14T10:39:57Z</time></trkpt><trkpt lat="38.03327479792945" lon="15.718784529835434"><ele>672.2857142857143</ele><time>2026-04-14T10:39:58Z</time></trkpt><trkpt lat="38.03326887836627" lon="15.718875468786775"><ele>673.0</ele><time>2026-04-14T10:39:59Z</time></trkpt><trkpt lat="38.03325803648665" lon="15.718983080849675"><ele>673.0</ele><time>2026-04-14T10:40:00Z</time></trkpt><trkpt lat="38.033243427018846" lon="15.719100979948017"><ele>673.0</ele><time>2026-04-14T10:40:01Z</time></trkpt><trkpt lat="38.03322653614111" lon="15.719212953562124"><ele>673.0</ele><time>2026-04-14T10:40:02Z</time></trkpt><trkpt lat="38.03320877132072" lon="15.719330165257176"><ele>673.0</ele><time>2026-04-14T10:40:03Z</time></trkpt><trkpt lat="38.03318459241993" lon="15.719441815806114"><ele>673.0</ele><time>2026-04-14T10:40:04Z</time></trkpt><trkpt lat="38.03315403304129" lon="15.71953415639781"><ele>673.0</ele><time>2026-04-14T10:40:05Z</time></trkpt><trkpt lat="38.033131085202896" lon="15.719668826109995"><ele>675.5999999999999</ele><time>2026-04-14T10:40:07Z</time></trkpt><trkpt lat="38.033182334911935" lon="15.719826021626139"><ele>678.1999999999999</ele><time>2026-04-14T10:40:09Z</time></trkpt><trkpt lat="38.03323790292334" lon="15.719908936058028"><ele>680.8</ele><time>2026-04-14T10:40:10Z</time></trkpt><trkpt lat="38.03326097559538" lon="15.72001238066168"><ele>683.4</ele><time>2026-04-14T10:40:11Z</time></trkpt><trkpt lat="38.03325267472936" lon="15.720121083997629"><ele>686.0</ele><time>2026-04-14T10:40:12Z</time></trkpt><trkpt lat="38.03321410254482" lon="15.72022211484611"><ele>686.0</ele><time>2026-04-14T10:40:13Z</time></trkpt><trkpt lat="38.033128004083736" lon="15.720292473218338"><ele>686.0</ele><time>2026-04-14T10:40:14Z</time></trkpt><trkpt lat="38.033090347097904" lon="15.720366636124005"><ele>686.0</ele><time>2026-04-14T10:40:15Z</time></trkpt><trkpt lat="38.03301865341612" lon="15.720352996081894"><ele>686.0</ele><time>2026-04-14T10:40:18Z</time></trkpt><trkpt lat="38.033020988179445" lon="15.720253816458635"><ele>686.0</ele><time>2026-04-14T10:40:20Z</time></trkpt><trkpt lat="38.0330565681499" lon="15.720141005722084"><ele>686.0</ele><time>2026-04-14T10:40:22Z</time></trkpt><trkpt lat="38.03299932783076" lon="15.720017667528165"><ele>686.0</ele><time>2026-04-14T10:40:24Z</time></trkpt><trkpt lat="38.03293936671305" lon="15.719958345741553"><ele>686.0</ele><time>2026-04-14T10:40:25Z</time></trkpt><trkpt lat="38.03286809202289" lon="15.719881463238147"><ele>686.0</ele><time>2026-04-14T10:40:26Z</time></trkpt><trkpt lat="38.03279779663361" lon="15.719814381396493"><ele>686.0</ele><time>2026-04-14T10:40:27Z</time></trkpt><trkpt lat="38.032729214121986" lon="15.719746805573873"><ele>686.0</ele><time>2026-04-14T10:40:28Z</time></trkpt><trkpt lat="38.03267053112034" lon="15.719668723703325"><ele>686.0</ele><time>2026-04-14T10:40:29Z</time></trkpt><trkpt lat="38.03263702884473" lon="15.719556242488101"><ele>686.0</ele><time>2026-04-14T10:40:30Z</time></trkpt><trkpt lat="38.03258670961557" lon="15.71949273345519"><ele>686.0</ele><time>2026-04-14T10:40:31Z</time></trkpt><trkpt lat="38.03254162999251" lon="15.71942574295696"><ele>686.0</ele><time>2026-04-14T10:40:32Z</time></trkpt><trkpt lat="38.03248985595356" lon="15.71933896891102"><ele>686.0</ele><time>2026-04-14T10:40:33Z</time></trkpt><trkpt lat="38.03243575558621" lon="15.719285816654692"><ele>686.0</ele><time>2026-04-14T10:40:34Z</time></trkpt><trkpt lat="38.03247171905717" lon="15.719184087418157"><ele>686.0</ele><time>2026-04-14T10:40:36Z</time></trkpt><trkpt lat="38.03255701418758" lon="15.719161216119153"><ele>684.1428571428571</ele><time>2026-04-14T10:40:37Z</time></trkpt><trkpt lat="38.03261198466057" lon="15.719093147892536"><ele>682.2857142857142</ele><time>2026-04-14T10:40:38Z</time></trkpt><trkpt lat="38.032671710701216" lon="15.719007993790273"><ele>680.4285714285714</ele><time>2026-04-14T10:40:40Z</time></trkpt><trkpt lat="38.032644401332895" lon="15.718932249090498"><ele>678.5714285714286</ele><time>2026-04-14T10:40:41Z</time></trkpt><trkpt lat="38.032612805741074" lon="15.71884523125303"><ele>676.7142857142857</ele><time>2026-04-14T10:40:42Z</time></trkpt><trkpt lat="38.0325682378914" lon="15.718775696492147"><ele>674.8571428571429</ele><time>2026-04-14T10:40:43Z</time></trkpt><trkpt lat="38.03252839843574" lon="15.718704418387237"><ele>673.0</ele><time>2026-04-14T10:40:44Z</time></trkpt><trkpt lat="38.03247717642111" lon="15.718636099109824"><ele>678.5</ele><time>2026-04-14T10:40:45Z</time></trkpt><trkpt lat="38.03242200194818" lon="15.718561679030387"><ele>684.0</ele><time>2026-04-14T10:40:46Z</time></trkpt><trkpt lat="38.032364148757004" lon="15.718504563330315"><ele>689.5</ele><time>2026-04-14T10:40:47Z</time></trkpt><trkpt lat="38.03232389520903" lon="15.718407389850693"><ele>695.0</ele><time>2026-04-14T10:40:48Z</time></trkpt><trkpt lat="38.03231134113495" lon="15.718312243711969"><ele>700.5</ele><time>2026-04-14T10:40:49Z</time></trkpt><trkpt lat="38.03234533472875" lon="15.71815577493397"><ele>706.0</ele><time>2026-04-14T10:40:51Z</time></trkpt><trkpt lat="38.03234270062566" lon="15.718059844372396"><ele>706.0</ele><time>2026-04-14T10:40:52Z</time></trkpt><trkpt lat="38.03228591281823" lon="15.717920263197936"><ele>706.0</ele><time>2026-04-14T10:40:54Z</time></trkpt><trkpt lat="38.032235496360045" lon="15.71782259465597"><ele>706.0</ele><time>2026-04-14T10:40:55Z</time></trkpt><trkpt lat="38.03218901268743" lon="15.717740508098515"><ele>706.0</ele><time>2026-04-14T10:40:56Z</time></trkpt><trkpt lat="38.03214509778372" lon="15.717662957805427"><ele>706.0</ele><time>2026-04-14T10:40:57Z</time></trkpt><trkpt lat="38.0320960530999" lon="15.717578151299769"><ele>704.1666666666667</ele><time>2026-04-14T10:40:58Z</time></trkpt><trkpt lat="38.032050069067374" lon="15.717499578903118"><ele>702.3333333333334</ele><time>2026-04-14T10:40:59Z</time></trkpt><trkpt lat="38.03200304444097" lon="15.717432033293917"><ele>700.5</ele><time>2026-04-14T10:41:00Z</time></trkpt><trkpt lat="38.03193729402023" lon="15.717378240384596"><ele>698.6666666666666</ele><time>2026-04-14T10:41:01Z</time></trkpt><trkpt lat="38.03186615426057" lon="15.717368796881079"><ele>696.8333333333333</ele><time>2026-04-14T10:41:02Z</time></trkpt><trkpt lat="38.03179891407915" lon="15.717370444603533"><ele>695.0</ele><time>2026-04-14T10:41:03Z</time></trkpt><trkpt lat="38.031672553677836" lon="15.717375576267367"><ele>700.2</ele><time>2026-04-14T10:41:05Z</time></trkpt><trkpt lat="38.031600263865066" lon="15.717377822297793"><ele>705.4</ele><time>2026-04-14T10:41:06Z</time></trkpt><trkpt lat="38.03148332896571" lon="15.717397099821525"><ele>710.5999999999999</ele><time>2026-04-14T10:41:08Z</time></trkpt><trkpt lat="38.031411451712806" lon="15.717326734578243"><ele>715.8</ele><time>2026-04-14T10:41:10Z</time></trkpt><trkpt lat="38.03145705825103" lon="15.717198662192528"><ele>721.0</ele><time>2026-04-14T10:41:12Z</time></trkpt><trkpt lat="38.03147384651338" lon="15.71711327156889"><ele>721.0</ele><time>2026-04-14T10:41:13Z</time></trkpt><trkpt lat="38.03148566824729" lon="15.717015672510614"><ele>721.0</ele><time>2026-04-14T10:41:14Z</time></trkpt><trkpt lat="38.03148696527292" lon="15.716919016183697"><ele>721.0</ele><time>2026-04-14T10:41:15Z</time></trkpt><trkpt lat="38.03147336840862" lon="15.716835441733615"><ele>721.0</ele><time>2026-04-14T10:41:16Z</time></trkpt><trkpt lat="38.03141417782723" lon="15.716782654048677"><ele>721.0</ele><time>2026-04-14T10:41:17Z</time></trkpt><trkpt lat="38.031371167037534" lon="15.716709873709492"><ele>721.0</ele><time>2026-04-14T10:41:18Z</time></trkpt><trkpt lat="38.03128119376609" lon="15.716688888831044"><ele>719.3333333333334</ele><time>2026-04-14T10:41:19Z</time></trkpt><trkpt lat="38.03121195940002" lon="15.716674310001848"><ele>717.6666666666667</ele><time>2026-04-14T10:41:20Z</time></trkpt><trkpt lat="38.03114014500643" lon="15.716689815315286"><ele>716.0</ele><time>2026-04-14T10:41:21Z</time></trkpt><trkpt lat="38.03107717714225" lon="15.71666290789319"><ele>714.3333333333334</ele><time>2026-04-14T10:41:22Z</time></trkpt><trkpt lat="38.030995437802815" lon="15.71660585376494"><ele>712.6666666666666</ele><time>2026-04-14T10:41:24Z</time></trkpt><trkpt lat="38.030994874966005" lon="15.716453050807276"><ele>711.0</ele><time>2026-04-14T10:41:26Z</time></trkpt><trkpt lat="38.030929902049785" lon="15.716310740264044"><ele>711.0</ele><time>2026-04-14T10:41:28Z</time></trkpt><trkpt lat="38.03085589608378" lon="15.716253363468184"><ele>711.0</ele><time>2026-04-14T10:41:29Z</time></trkpt><trkpt lat="38.030783814352866" lon="15.716242241167011"><ele>711.0</ele><time>2026-04-14T10:41:30Z</time></trkpt><trkpt lat="38.03071399442869" lon="15.716223896362749"><ele>711.0</ele><time>2026-04-14T10:41:31Z</time></trkpt><trkpt lat="38.030637406746415" lon="15.716215700535646"><ele>711.0</ele><time>2026-04-14T10:41:32Z</time></trkpt><trkpt lat="38.03056043304829" lon="15.71620229048981"><ele>711.0</ele><time>2026-04-14T10:41:33Z</time></trkpt><trkpt lat="38.03048132503564" lon="15.716203549631812"><ele>711.3333333333334</ele><time>2026-04-14T10:41:34Z</time></trkpt><trkpt lat="38.030403212551725" lon="15.716217206440994"><ele>711.6666666666666</ele><time>2026-04-14T10:41:35Z</time></trkpt><trkpt lat="38.030328233517395" lon="15.71617562250511"><ele>712.0</ele><time>2026-04-14T10:41:37Z</time></trkpt><trkpt lat="38.03028923615802" lon="15.716105666575213"><ele>712.3333333333333</ele><time>2026-04-14T10:41:38Z</time></trkpt><trkpt lat="38.03028594592658" lon="15.715986876550698"><ele>712.6666666666666</ele><time>2026-04-14T10:41:39Z</time></trkpt><trkpt lat="38.0302520275448" lon="15.715862515199834"><ele>713.0</ele><time>2026-04-14T10:41:40Z</time></trkpt><trkpt lat="38.0302074199112" lon="15.715770941832242"><ele>713.0</ele><time>2026-04-14T10:41:41Z</time></trkpt><trkpt lat="38.03017375062517" lon="15.715661757267457"><ele>713.0</ele><time>2026-04-14T10:41:42Z</time></trkpt><trkpt lat="38.03012825856062" lon="15.715564580699722"><ele>713.0</ele><time>2026-04-14T10:41:43Z</time></trkpt><trkpt lat="38.0300943310096" lon="15.715461242144473"><ele>713.0</ele><time>2026-04-14T10:41:44Z</time></trkpt><trkpt lat="38.03004545659654" lon="15.715359932048337"><ele>713.0</ele><time>2026-04-14T10:41:45Z</time></trkpt><trkpt lat="38.02999513079511" lon="15.715267878477235"><ele>713.0</ele><time>2026-04-14T10:41:46Z</time></trkpt><trkpt lat="38.02994306288063" lon="15.715221530517123"><ele>713.0</ele><time>2026-04-14T10:41:47Z</time></trkpt><trkpt lat="38.02986174470801" lon="15.715258414995125"><ele>713.0</ele><time>2026-04-14T10:41:50Z</time></trkpt><trkpt lat="38.02992528202387" lon="15.715394830774938"><ele>713.0</ele><time>2026-04-14T10:41:52Z</time></trkpt><trkpt lat="38.02997028113916" lon="15.71546415347639"><ele>713.0</ele><time>2026-04-14T10:41:53Z</time></trkpt><trkpt lat="38.03003814067368" lon="15.71571867779586"><ele>713.0</ele><time>2026-04-14T10:41:55Z</time></trkpt><trkpt lat="38.03006314435422" lon="15.715886108720355"><ele>713.0</ele><time>2026-04-14T10:41:56Z</time></trkpt><trkpt lat="38.03008524633738" lon="15.716047422020468"><ele>713.0</ele><time>2026-04-14T10:41:57Z</time></trkpt><trkpt lat="38.03009644423994" lon="15.716149664374127"><ele>713.0</ele><time>2026-04-14T10:41:58Z</time></trkpt><trkpt lat="38.0300894005842" lon="15.716273674046942"><ele>713.0</ele><time>2026-04-14T10:41:59Z</time></trkpt><trkpt lat="38.03007146967588" lon="15.716351851485868"><ele>713.4</ele><time>2026-04-14T10:42:00Z</time></trkpt><trkpt lat="38.0300731408294" lon="15.716531679203692"><ele>713.8</ele><time>2026-04-14T10:42:01Z</time></trkpt><trkpt lat="38.03011419426682" lon="15.716612937864952"><ele>714.2</ele><time>2026-04-14T10:42:02Z</time></trkpt><trkpt lat="38.03018566293061" lon="15.716707196845416"><ele>714.6</ele><time>2026-04-14T10:42:03Z</time></trkpt><trkpt lat="38.030239111918796" lon="15.716839193815282"><ele>715.0</ele><time>2026-04-14T10:42:04Z</time></trkpt><trkpt lat="38.030294949863894" lon="15.717000583719262"><ele>715.0</ele><time>2026-04-14T10:42:05Z</time></trkpt><trkpt lat="38.03038186016948" lon="15.717172933295693"><ele>715.0</ele><time>2026-04-14T10:42:06Z</time></trkpt><trkpt lat="38.03045391456034" lon="15.717309250858786"><ele>715.0</ele><time>2026-04-14T10:42:07Z</time></trkpt><trkpt lat="38.03048688076306" lon="15.717434142200629"><ele>715.0</ele><time>2026-04-14T10:42:08Z</time></trkpt><trkpt lat="38.03051234414404" lon="15.717534929677047"><ele>715.0</ele><time>2026-04-14T10:42:09Z</time></trkpt><trkpt lat="38.030523036392474" lon="15.71763959559632"><ele>715.0</ele><time>2026-04-14T10:42:10Z</time></trkpt><trkpt lat="38.03047989104383" lon="15.717750187055652"><ele>715.0</ele><time>2026-04-14T10:42:11Z</time></trkpt><trkpt lat="38.03047276152655" lon="15.717883275842928"><ele>715.0</ele><time>2026-04-14T10:42:12Z</time></trkpt><trkpt lat="38.03048134022322" lon="15.718023120164304"><ele>715.0</ele><time>2026-04-14T10:42:13Z</time></trkpt><trkpt lat="38.03045243986874" lon="15.718152606450026"><ele>716.6</ele><time>2026-04-14T10:42:14Z</time></trkpt><trkpt lat="38.03039378770961" lon="15.718255844114152"><ele>718.2</ele><time>2026-04-14T10:42:15Z</time></trkpt><trkpt lat="38.030327908662436" lon="15.718369524708384"><ele>719.8</ele><time>2026-04-14T10:42:16Z</time></trkpt><trkpt lat="38.03025684132258" lon="15.71849711120841"><ele>721.4</ele><time>2026-04-14T10:42:17Z</time></trkpt><trkpt lat="38.0302020565862" lon="15.718614839971094"><ele>723.0</ele><time>2026-04-14T10:42:18Z</time></trkpt><trkpt lat="38.03015231071299" lon="15.718737904422223"><ele>723.8333333333334</ele><time>2026-04-14T10:42:19Z</time></trkpt><trkpt lat="38.03011479209124" lon="15.71885623595814"><ele>724.6666666666666</ele><time>2026-04-14T10:42:20Z</time></trkpt><trkpt lat="38.03012077270997" lon="15.718967206082407"><ele>725.5</ele><time>2026-04-14T10:42:21Z</time></trkpt><trkpt lat="38.03008322055994" lon="15.719064911825514"><ele>726.3333333333333</ele><time>2026-04-14T10:42:22Z</time></trkpt><trkpt lat="38.03004226691612" lon="15.719145104609646"><ele>727.1666666666666</ele><time>2026-04-14T10:42:23Z</time></trkpt><trkpt lat="38.029981571796405" lon="15.71921933191497"><ele>728.0</ele><time>2026-04-14T10:42:24Z</time></trkpt><trkpt lat="38.02992749037289" lon="15.719316973520323"><ele>731.2</ele><time>2026-04-14T10:42:24.999Z</time></trkpt><trkpt lat="38.02987928503247" lon="15.719423639801049"><ele>734.4</ele><time>2026-04-14T10:42:25.999Z</time></trkpt><trkpt lat="38.02984854539467" lon="15.719527917808314"><ele>737.6</ele><time>2026-04-14T10:42:26.999Z</time></trkpt><trkpt lat="38.02982224098426" lon="15.71963332626796"><ele>740.8000000000001</ele><time>2026-04-14T10:42:27.999Z</time></trkpt><trkpt lat="38.02981435618662" lon="15.719742313370675"><ele>744.0</ele><time>2026-04-14T10:42:28.999Z</time></trkpt><trkpt lat="38.02982342952341" lon="15.719858296619579"><ele>744.0</ele><time>2026-04-14T10:42:29.999Z</time></trkpt><trkpt lat="38.02981303851594" lon="15.71997803787916"><ele>744.0</ele><time>2026-04-14T10:42:30.999Z</time></trkpt><trkpt lat="38.02981852813793" lon="15.720081876465875"><ele>744.0</ele><time>2026-04-14T10:42:31.999Z</time></trkpt><trkpt lat="38.02982967601686" lon="15.720192726359981"><ele>744.0</ele><time>2026-04-14T10:42:32.999Z</time></trkpt><trkpt lat="38.02982477598526" lon="15.720298396792606"><ele>744.0</ele><time>2026-04-14T10:42:33.999Z</time></trkpt><trkpt lat="38.0298082997918" lon="15.720404567264353"><ele>744.0</ele><time>2026-04-14T10:42:34.999Z</time></trkpt><trkpt lat="38.0297621086522" lon="15.720476990324148"><ele>744.8000000000001</ele><time>2026-04-14T10:42:35.999Z</time></trkpt><trkpt lat="38.02970010921888" lon="15.720525240963829"><ele>745.6</ele><time>2026-04-14T10:42:36.999Z</time></trkpt><trkpt lat="38.029630084891046" lon="15.720576662848568"><ele>746.4</ele><time>2026-04-14T10:42:37.999Z</time></trkpt><trkpt lat="38.029550661970084" lon="15.720643765862249"><ele>747.2</ele><time>2026-04-14T10:42:38.999Z</time></trkpt><trkpt lat="38.029444199704606" lon="15.720682491731095"><ele>748.0</ele><time>2026-04-14T10:42:39.999Z</time></trkpt><trkpt lat="38.0293299695251" lon="15.720702571503548"><ele>748.0</ele><time>2026-04-14T10:42:40.999Z</time></trkpt><trkpt lat="38.02921575547412" lon="15.720747450461587"><ele>748.0</ele><time>2026-04-14T10:42:41.999Z</time></trkpt><trkpt lat="38.02911208362597" lon="15.720816192100456"><ele>748.0</ele><time>2026-04-14T10:42:42.999Z</time></trkpt><trkpt lat="38.02901045687818" lon="15.720852630307155"><ele>748.0</ele><time>2026-04-14T10:42:43.999Z</time></trkpt><trkpt lat="38.028950013731794" lon="15.720926107770504"><ele>748.0</ele><time>2026-04-14T10:42:44.999Z</time></trkpt><trkpt lat="38.02890576525236" lon="15.720988787020474"><ele>748.0</ele><time>2026-04-14T10:42:45.999Z</time></trkpt><trkpt lat="38.02886639250902" lon="15.721061284558166"><ele>748.0</ele><time>2026-04-14T10:42:46.999Z</time></trkpt><trkpt lat="38.028825266845686" lon="15.721153360919956"><ele>748.0</ele><time>2026-04-14T10:42:47.999Z</time></trkpt><trkpt lat="38.02880107720745" lon="15.721262935930639"><ele>748.0</ele><time>2026-04-14T10:42:48.999Z</time></trkpt><trkpt lat="38.02878598531381" lon="15.721375036242264"><ele>748.0</ele><time>2026-04-14T10:42:49.999Z</time></trkpt><trkpt lat="38.02878737892019" lon="15.721489525336342"><ele>748.0</ele><time>2026-04-14T10:42:50.999Z</time></trkpt><trkpt lat="38.02881106477922" lon="15.721604892972083"><ele>749.2</ele><time>2026-04-14T10:42:51.999Z</time></trkpt><trkpt lat="38.028830022261396" lon="15.721724969108758"><ele>750.4</ele><time>2026-04-14T10:42:52.999Z</time></trkpt><trkpt lat="38.02880857019553" lon="15.721840508990457"><ele>751.6</ele><time>2026-04-14T10:42:53.999Z</time></trkpt><trkpt lat="38.02875220030694" lon="15.721969562816177"><ele>752.8000000000001</ele><time>2026-04-14T10:42:54.999Z</time></trkpt><trkpt lat="38.028697133750775" lon="15.722104494626407"><ele>754.0</ele><time>2026-04-14T10:42:55.999Z</time></trkpt><trkpt lat="38.02866263580282" lon="15.722229709864168"><ele>756.4000000000001</ele><time>2026-04-14T10:42:56.999Z</time></trkpt><trkpt lat="38.028644577397884" lon="15.722354245477163"><ele>758.8</ele><time>2026-04-14T10:42:57.999Z</time></trkpt><trkpt lat="38.02863695784815" lon="15.722480386098342"><ele>761.2</ele><time>2026-04-14T10:42:58.999Z</time></trkpt><trkpt lat="38.028650689461" lon="15.722598615386504"><ele>763.5999999999999</ele><time>2026-04-14T10:42:59.999Z</time></trkpt><trkpt lat="38.0286790406639" lon="15.722715012714993"><ele>766.0</ele><time>2026-04-14T10:43:00.999Z</time></trkpt><trkpt lat="38.02871197240682" lon="15.722852602353248"><ele>767.5999999999999</ele><time>2026-04-14T10:43:01.999Z</time></trkpt><trkpt lat="38.02873085755771" lon="15.722971575298727"><ele>769.2</ele><time>2026-04-14T10:43:02.999Z</time></trkpt><trkpt lat="38.028749389658515" lon="15.72307791378382"><ele>770.8</ele><time>2026-04-14T10:43:03.999Z</time></trkpt><trkpt lat="38.02874656631925" lon="15.723177777179176"><ele>772.4000000000001</ele><time>2026-04-14T10:43:04.999Z</time></trkpt><trkpt lat="38.028711557092315" lon="15.723296044912397"><ele>774.0</ele><time>2026-04-14T10:43:05.999Z</time></trkpt><trkpt lat="38.02869248730639" lon="15.723464202622175"><ele>775.4000000000001</ele><time>2026-04-14T10:43:06.999Z</time></trkpt><trkpt lat="38.028671158550615" lon="15.723613974119758"><ele>776.8</ele><time>2026-04-14T10:43:07.999Z</time></trkpt><trkpt lat="38.028655180894184" lon="15.72375052278441"><ele>778.2</ele><time>2026-04-14T10:43:08.999Z</time></trkpt><trkpt lat="38.0286570947706" lon="15.723876223306423"><ele>779.5999999999999</ele><time>2026-04-14T10:43:09.999Z</time></trkpt><trkpt lat="38.02864333492536" lon="15.724006257118587"><ele>781.0</ele><time>2026-04-14T10:43:10.999Z</time></trkpt><trkpt lat="38.02864607430504" lon="15.724121481448755"><ele>781.0</ele><time>2026-04-14T10:43:11.999Z</time></trkpt><trkpt lat="38.028660244613775" lon="15.724220420842837"><ele>781.0</ele><time>2026-04-14T10:43:12.999Z</time></trkpt><trkpt lat="38.028711058558386" lon="15.724324834698118"><ele>781.0</ele><time>2026-04-14T10:43:13.999Z</time></trkpt><trkpt lat="38.028777984001884" lon="15.724444976961504"><ele>781.0</ele><time>2026-04-14T10:43:14.999Z</time></trkpt><trkpt lat="38.0288241298341" lon="15.724626643693606"><ele>781.0</ele><time>2026-04-14T10:43:15.999Z</time></trkpt><trkpt lat="38.028855528117774" lon="15.724807774195488"><ele>782.1999999999999</ele><time>2026-04-14T10:43:16.999Z</time></trkpt><trkpt lat="38.028865765692586" lon="15.724930047552153"><ele>783.4</ele><time>2026-04-14T10:43:17.999Z</time></trkpt><trkpt lat="38.02887421838877" lon="15.725044626500459"><ele>784.6</ele><time>2026-04-14T10:43:19.999Z</time></trkpt><trkpt lat="38.028811692032086" lon="15.725148515905179"><ele>785.8</ele><time>2026-04-14T10:43:21.999Z</time></trkpt><trkpt lat="38.02871855456042" lon="15.72518870323474"><ele>787.0</ele><time>2026-04-14T10:43:22.999Z</time></trkpt><trkpt lat="38.02861263890214" lon="15.725253646013034"><ele>787.4000000000001</ele><time>2026-04-14T10:43:23.999Z</time></trkpt><trkpt lat="38.02855785273359" lon="15.725334323735426"><ele>787.8000000000001</ele><time>2026-04-14T10:43:24.999Z</time></trkpt><trkpt lat="38.028524852171216" lon="15.725432082967354"><ele>788.2</ele><time>2026-04-14T10:43:25.999Z</time></trkpt><trkpt lat="38.02848905122869" lon="15.725545548701406"><ele>788.6</ele><time>2026-04-14T10:43:26.999Z</time></trkpt><trkpt lat="38.02842798705588" lon="15.725691332190042"><ele>789.0</ele><time>2026-04-14T10:43:27.999Z</time></trkpt><trkpt lat="38.028356647032524" lon="15.725848953333003"><ele>788.6</ele><time>2026-04-14T10:43:28.999Z</time></trkpt><trkpt lat="38.028307904663755" lon="15.72596331573509"><ele>788.2</ele><time>2026-04-14T10:43:29.999Z</time></trkpt><trkpt lat="38.02826759924081" lon="15.726068697296935"><ele>787.8000000000001</ele><time>2026-04-14T10:43:30.999Z</time></trkpt><trkpt lat="38.028243285156385" lon="15.72618577917349"><ele>787.4000000000001</ele><time>2026-04-14T10:43:31.999Z</time></trkpt><trkpt lat="38.028234391352186" lon="15.726312698824367"><ele>787.0</ele><time>2026-04-14T10:43:32.999Z</time></trkpt><trkpt lat="38.02824624126845" lon="15.72641710513853"><ele>788.2</ele><time>2026-04-14T10:43:33.999Z</time></trkpt><trkpt lat="38.02827839719777" lon="15.726487947444646"><ele>789.4000000000001</ele><time>2026-04-14T10:43:34.999Z</time></trkpt><trkpt lat="38.02834515675439" lon="15.726566033243643"><ele>790.5999999999999</ele><time>2026-04-14T10:43:35.999Z</time></trkpt><trkpt lat="38.028411764069844" lon="15.726674734021286"><ele>791.8</ele><time>2026-04-14T10:43:36.999Z</time></trkpt><trkpt lat="38.02847122626786" lon="15.726799234251242"><ele>793.0</ele><time>2026-04-14T10:43:37.999Z</time></trkpt><trkpt lat="38.028498846036946" lon="15.726921799418268"><ele>794.0</ele><time>2026-04-14T10:43:38.999Z</time></trkpt><trkpt lat="38.02849823736269" lon="15.727040878371604"><ele>795.0</ele><time>2026-04-14T10:43:39.999Z</time></trkpt><trkpt lat="38.02848441634532" lon="15.727172707585197"><ele>796.0</ele><time>2026-04-14T10:43:40.999Z</time></trkpt><trkpt lat="38.0284606018543" lon="15.727308579770304"><ele>797.0</ele><time>2026-04-14T10:43:41.999Z</time></trkpt><trkpt lat="38.028448642770016" lon="15.72745640382973"><ele>798.0</ele><time>2026-04-14T10:43:42.999Z</time></trkpt><trkpt lat="38.028437558342" lon="15.727603132726603"><ele>798.0</ele><time>2026-04-14T10:43:43.999Z</time></trkpt><trkpt lat="38.02843142722685" lon="15.727696953140756"><ele>798.0</ele><time>2026-04-14T10:43:44.999Z</time></trkpt><trkpt lat="38.02839284983211" lon="15.727802354814823"><ele>798.0</ele><time>2026-04-14T10:43:45.999Z</time></trkpt><trkpt lat="38.02832845429464" lon="15.727908044277864"><ele>798.0</ele><time>2026-04-14T10:43:46.999Z</time></trkpt><trkpt lat="38.02826272629758" lon="15.728005358275091"><ele>798.0</ele><time>2026-04-14T10:43:47.999Z</time></trkpt><trkpt lat="38.02819917439927" lon="15.728089728969735"><ele>800.0</ele><time>2026-04-14T10:43:49Z</time></trkpt><trkpt lat="38.0281171323165" lon="15.728147840389019"><ele>802.0</ele><time>2026-04-14T10:43:50Z</time></trkpt><trkpt lat="38.02802231290586" lon="15.728180816831532"><ele>804.0</ele><time>2026-04-14T10:43:51Z</time></trkpt><trkpt lat="38.02792126471423" lon="15.728210549349642"><ele>806.0</ele><time>2026-04-14T10:43:52Z</time></trkpt><trkpt lat="38.027824754453334" lon="15.728257006288054"><ele>808.0</ele><time>2026-04-14T10:43:53Z</time></trkpt><trkpt lat="38.02773366327868" lon="15.728313633439795"><ele>808.0</ele><time>2026-04-14T10:43:54Z</time></trkpt><trkpt lat="38.02765462784341" lon="15.72838465474039"><ele>808.0</ele><time>2026-04-14T10:43:55Z</time></trkpt><trkpt lat="38.02759157528139" lon="15.728469927312842"><ele>808.0</ele><time>2026-04-14T10:43:56Z</time></trkpt><trkpt lat="38.027559738045824" lon="15.72857713898373"><ele>808.0</ele><time>2026-04-14T10:43:57Z</time></trkpt><trkpt lat="38.027568495905506" lon="15.7286930879872"><ele>808.0</ele><time>2026-04-14T10:43:58Z</time></trkpt><trkpt lat="38.02759142600113" lon="15.72880803901384"><ele>808.4</ele><time>2026-04-14T10:43:59Z</time></trkpt><trkpt lat="38.02762401973817" lon="15.728919775010802"><ele>808.8</ele><time>2026-04-14T10:44:00Z</time></trkpt><trkpt lat="38.02767817428838" lon="15.729021847175959"><ele>809.2</ele><time>2026-04-14T10:44:01Z</time></trkpt><trkpt lat="38.0277505166831" lon="15.729108058581486"><ele>809.6</ele><time>2026-04-14T10:44:02Z</time></trkpt><trkpt lat="38.02782688562435" lon="15.72919031637384"><ele>810.0</ele><time>2026-04-14T10:44:03Z</time></trkpt><trkpt lat="38.02789614859384" lon="15.729282400863333"><ele>810.0</ele><time>2026-04-14T10:44:04Z</time></trkpt><trkpt lat="38.027967804430126" lon="15.72936936307834"><ele>810.0</ele><time>2026-04-14T10:44:05Z</time></trkpt><trkpt lat="38.02804886195372" lon="15.729434075571112"><ele>810.0</ele><time>2026-04-14T10:44:06Z</time></trkpt><trkpt lat="38.028140709978935" lon="15.729464942453022"><ele>810.0</ele><time>2026-04-14T10:44:07Z</time></trkpt><trkpt lat="38.02822949756058" lon="15.72950774051792"><ele>810.0</ele><time>2026-04-14T10:44:08Z</time></trkpt><trkpt lat="38.02831369720734" lon="15.729538331621198"><ele>809.8</ele><time>2026-04-14T10:44:08.999Z</time></trkpt><trkpt lat="38.02838170154981" lon="15.72962934857827"><ele>809.6</ele><time>2026-04-14T10:44:09.999Z</time></trkpt><trkpt lat="38.02843194888233" lon="15.729741289860565"><ele>809.4000000000001</ele><time>2026-04-14T10:44:10.999Z</time></trkpt><trkpt lat="38.02846007530167" lon="15.729861441771675"><ele>809.2</ele><time>2026-04-14T10:44:11.999Z</time></trkpt><trkpt lat="38.028479832461834" lon="15.729988832636684"><ele>809.0</ele><time>2026-04-14T10:44:12.999Z</time></trkpt><trkpt lat="38.028483657787454" lon="15.730108128467373"><ele>809.0000000000001</ele><time>2026-04-14T10:44:13.999Z</time></trkpt><trkpt lat="38.02849363653822" lon="15.730213708577509"><ele>809.0</ele><time>2026-04-14T10:44:14.999Z</time></trkpt><trkpt lat="38.02849285898197" lon="15.730314993497576"><ele>809.0</ele><time>2026-04-14T10:44:15.999Z</time></trkpt><trkpt lat="38.02846434412275" lon="15.730417169595988"><ele>809.0</ele><time>2026-04-14T10:44:16.999Z</time></trkpt><trkpt lat="38.028415855671994" lon="15.730515672977269"><ele>809.0000000000001</ele><time>2026-04-14T10:44:17.999Z</time></trkpt><trkpt lat="38.028391241182874" lon="15.73061611999234"><ele>809.0</ele><time>2026-04-14T10:44:18.999Z</time></trkpt><trkpt lat="38.02840691314309" lon="15.730747444274222"><ele>808.0</ele><time>2026-04-14T10:44:19.999Z</time></trkpt><trkpt lat="38.0284321414164" lon="15.730885914850914"><ele>807.0</ele><time>2026-04-14T10:44:20.999Z</time></trkpt><trkpt lat="38.02844941991438" lon="15.731004063689328"><ele>806.0</ele><time>2026-04-14T10:44:21.999Z</time></trkpt><trkpt lat="38.02847058475197" lon="15.731110246478114"><ele>805.0</ele><time>2026-04-14T10:44:22.999Z</time></trkpt><trkpt lat="38.028514993898376" lon="15.731199836690449"><ele>804.0</ele><time>2026-04-14T10:44:23.999Z</time></trkpt><trkpt lat="38.02858606886047" lon="15.73126689624916"><ele>802.8000000000001</ele><time>2026-04-14T10:44:24.999Z</time></trkpt><trkpt lat="38.02867203038921" lon="15.731324112421197"><ele>801.6</ele><time>2026-04-14T10:44:25.999Z</time></trkpt><trkpt lat="38.02873660719612" lon="15.73141943701158"><ele>800.4</ele><time>2026-04-14T10:44:26.999Z</time></trkpt><trkpt lat="38.02877681348497" lon="15.73154617317698"><ele>799.2</ele><time>2026-04-14T10:44:27.999Z</time></trkpt><trkpt lat="38.02881792422705" lon="15.731674795081846"><ele>798.0</ele><time>2026-04-14T10:44:28.999Z</time></trkpt><trkpt lat="38.02885739410427" lon="15.731783783303232"><ele>798.8</ele><time>2026-04-14T10:44:29.999Z</time></trkpt><trkpt lat="38.028862499378874" lon="15.731895565253156"><ele>799.5999999999999</ele><time>2026-04-14T10:44:30.999Z</time></trkpt><trkpt lat="38.02884421606153" lon="15.73200552108878"><ele>800.4000000000001</ele><time>2026-04-14T10:44:31.999Z</time></trkpt><trkpt lat="38.0288127396859" lon="15.732122587353778"><ele>801.2</ele><time>2026-04-14T10:44:32.999Z</time></trkpt><trkpt lat="38.02877258389796" lon="15.732243573860703"><ele>802.0</ele><time>2026-04-14T10:44:33.999Z</time></trkpt><trkpt lat="38.02873271370588" lon="15.73236821203165"><ele>802.0</ele><time>2026-04-14T10:44:34.999Z</time></trkpt><trkpt lat="38.028673464487554" lon="15.732482049397621"><ele>802.0</ele><time>2026-04-14T10:44:35.999Z</time></trkpt><trkpt lat="38.02860487864608" lon="15.732596711137653"><ele>802.0</ele><time>2026-04-14T10:44:36.999Z</time></trkpt><trkpt lat="38.02854556914243" lon="15.732696157676346"><ele>802.0</ele><time>2026-04-14T10:44:37.999Z</time></trkpt><trkpt lat="38.02849417666659" lon="15.732785975854755"><ele>802.0</ele><time>2026-04-14T10:44:38.999Z</time></trkpt><trkpt lat="38.02844491003994" lon="15.732878007305354"><ele>802.4000000000001</ele><time>2026-04-14T10:44:39.999Z</time></trkpt><trkpt lat="38.02838996009654" lon="15.732946094944804"><ele>802.8000000000001</ele><time>2026-04-14T10:44:40.999Z</time></trkpt><trkpt lat="38.02830228784832" lon="15.733003615783637"><ele>803.2</ele><time>2026-04-14T10:44:41.999Z</time></trkpt><trkpt lat="38.02820475572912" lon="15.73304584552011"><ele>803.6</ele><time>2026-04-14T10:44:42.999Z</time></trkpt><trkpt lat="38.028118119640965" lon="15.73308353476029"><ele>804.0</ele><time>2026-04-14T10:44:43.999Z</time></trkpt><trkpt lat="38.02804071985392" lon="15.733132001530489"><ele>802.5</ele><time>2026-04-14T10:44:44.999Z</time></trkpt><trkpt lat="38.02796577017285" lon="15.733190177803023"><ele>801.0</ele><time>2026-04-14T10:44:45.999Z</time></trkpt><trkpt lat="38.027890327650894" lon="15.73325042236031"><ele>799.5</ele><time>2026-04-14T10:44:46.999Z</time></trkpt><trkpt lat="38.027821920382515" lon="15.73332064252311"><ele>798.0</ele><time>2026-04-14T10:44:47.999Z</time></trkpt><trkpt lat="38.02775604359445" lon="15.733393702776157"><ele>796.5</ele><time>2026-04-14T10:44:48.999Z</time></trkpt><trkpt lat="38.02769580769263" lon="15.733469221639249"><ele>795.0</ele><time>2026-04-14T10:44:49.999Z</time></trkpt><trkpt lat="38.027632982895106" lon="15.733541191180214"><ele>794.4</ele><time>2026-04-14T10:44:50.999Z</time></trkpt><trkpt lat="38.027563519084325" lon="15.73360832636122"><ele>793.8</ele><time>2026-04-14T10:44:51.999Z</time></trkpt><trkpt lat="38.02747871087384" lon="15.73367074378746"><ele>793.2</ele><time>2026-04-14T10:44:52.999Z</time></trkpt><trkpt lat="38.027384773549166" lon="15.733721684338667"><ele>792.6</ele><time>2026-04-14T10:44:53.999Z</time></trkpt><trkpt lat="38.02728341387313" lon="15.73377063174778"><ele>792.0</ele><time>2026-04-14T10:44:54.999Z</time></trkpt><trkpt lat="38.02718144576232" lon="15.733827897522996"><ele>789.75</ele><time>2026-04-14T10:44:55.999Z</time></trkpt><trkpt lat="38.027079612385435" lon="15.733893561561041"><ele>787.5</ele><time>2026-04-14T10:44:56.999Z</time></trkpt><trkpt lat="38.02697833506196" lon="15.733962539066681"><ele>785.25</ele><time>2026-04-14T10:44:57.999Z</time></trkpt><trkpt lat="38.0268820495737" lon="15.734046077880043"><ele>783.0</ele><time>2026-04-14T10:44:58.999Z</time></trkpt><trkpt lat="38.02679715097953" lon="15.73414163914464"><ele>783.0</ele><time>2026-04-14T10:44:59.999Z</time></trkpt><trkpt lat="38.0267182760186" lon="15.734240337601092"><ele>783.0</ele><time>2026-04-14T10:45:00.999Z</time></trkpt><trkpt lat="38.026637824962236" lon="15.734344996100798"><ele>783.0</ele><time>2026-04-14T10:45:01.999Z</time></trkpt><trkpt lat="38.0265543632879" lon="15.734419511674893"><ele>783.0</ele><time>2026-04-14T10:45:02.999Z</time></trkpt><trkpt lat="38.026473880824476" lon="15.73448594720881"><ele>783.0</ele><time>2026-04-14T10:45:03.999Z</time></trkpt><trkpt lat="38.026408941123904" lon="15.734549224444647"><ele>785.8</ele><time>2026-04-14T10:45:04.999Z</time></trkpt><trkpt lat="38.02633743995004" lon="15.734611308860242"><ele>788.5999999999999</ele><time>2026-04-14T10:45:05.999Z</time></trkpt><trkpt lat="38.02626322805641" lon="15.734671884890266"><ele>791.4000000000001</ele><time>2026-04-14T10:45:06.999Z</time></trkpt><trkpt lat="38.02618321127929" lon="15.734716309157056"><ele>794.2</ele><time>2026-04-14T10:45:07.999Z</time></trkpt><trkpt lat="38.02608951592395" lon="15.734724358217344"><ele>797.0</ele><time>2026-04-14T10:45:08.999Z</time></trkpt><trkpt lat="38.025964875697404" lon="15.734706330199755"><ele>797.0</ele><time>2026-04-14T10:45:09.999Z</time></trkpt><trkpt lat="38.02584285724006" lon="15.73470436078952"><ele>797.0</ele><time>2026-04-14T10:45:10.999Z</time></trkpt><trkpt lat="38.02575460057279" lon="15.734737857021894"><ele>797.0</ele><time>2026-04-14T10:45:11.999Z</time></trkpt><trkpt lat="38.02570835700767" lon="15.734817708341673"><ele>797.0</ele><time>2026-04-14T10:45:12.999Z</time></trkpt><trkpt lat="38.025681199634114" lon="15.734926191759625"><ele>797.0</ele><time>2026-04-14T10:45:13.999Z</time></trkpt><trkpt lat="38.025642238156706" lon="15.735041376063378"><ele>797.25</ele><time>2026-04-14T10:45:14.999Z</time></trkpt><trkpt lat="38.0255731485784" lon="15.735144758966506"><ele>797.5</ele><time>2026-04-14T10:45:15.999Z</time></trkpt><trkpt lat="38.02547641061021" lon="15.735221007179483"><ele>797.75</ele><time>2026-04-14T10:45:16.999Z</time></trkpt><trkpt lat="38.02536809498564" lon="15.73528001996753"><ele>798.0</ele><time>2026-04-14T10:45:17.999Z</time></trkpt><trkpt lat="38.025254845893016" lon="15.735327985327848"><ele>798.25</ele><time>2026-04-14T10:45:18.999Z</time></trkpt><trkpt lat="38.025150510588624" lon="15.735393994946744"><ele>798.5</ele><time>2026-04-14T10:45:19.999Z</time></trkpt><trkpt lat="38.02505625378517" lon="15.735482782240235"><ele>798.75</ele><time>2026-04-14T10:45:20.999Z</time></trkpt><trkpt lat="38.024968163933366" lon="15.735574069445093"><ele>799.0</ele><time>2026-04-14T10:45:21.999Z</time></trkpt><trkpt lat="38.02489120917723" lon="15.735666831646805"><ele>799.0</ele><time>2026-04-14T10:45:22.999Z</time></trkpt><trkpt lat="38.02482689241477" lon="15.7357619150423"><ele>799.0</ele><time>2026-04-14T10:45:23.999Z</time></trkpt><trkpt lat="38.02478089324862" lon="15.735848428903083"><ele>799.0</ele><time>2026-04-14T10:45:24.999Z</time></trkpt><trkpt lat="38.02475148312355" lon="15.735940336093876"><ele>799.0</ele><time>2026-04-14T10:45:25.999Z</time></trkpt><trkpt lat="38.02473325927309" lon="15.736062165270338"><ele>799.0</ele><time>2026-04-14T10:45:26.999Z</time></trkpt><trkpt lat="38.02470850262679" lon="15.73621567335878"><ele>800.6</ele><time>2026-04-14T10:45:27.999Z</time></trkpt><trkpt lat="38.024691922399505" lon="15.73637986500547"><ele>802.2</ele><time>2026-04-14T10:45:28.999Z</time></trkpt><trkpt lat="38.02467201427666" lon="15.736503162824235"><ele>803.8000000000001</ele><time>2026-04-14T10:45:29.999Z</time></trkpt><trkpt lat="38.0246321295576" lon="15.736586225756302"><ele>805.4000000000001</ele><time>2026-04-14T10:45:30.999Z</time></trkpt><trkpt lat="38.024549546919154" lon="15.736652810499372"><ele>807.0</ele><time>2026-04-14T10:45:31.999Z</time></trkpt><trkpt lat="38.02444219420175" lon="15.736691987325228"><ele>807.0</ele><time>2026-04-14T10:45:32.999Z</time></trkpt><trkpt lat="38.02434225152794" lon="15.7367515468476"><ele>807.0</ele><time>2026-04-14T10:45:33.999Z</time></trkpt><trkpt lat="38.02424973864665" lon="15.736845421957263"><ele>807.0</ele><time>2026-04-14T10:45:34.999Z</time></trkpt><trkpt lat="38.02413788922903" lon="15.736961410770432"><ele>807.0</ele><time>2026-04-14T10:45:35.999Z</time></trkpt><trkpt lat="38.02402580219933" lon="15.737042571088717"><ele>809.6</ele><time>2026-04-14T10:45:36.999Z</time></trkpt><trkpt lat="38.02395614739513" lon="15.737098136146043"><ele>812.2</ele><time>2026-04-14T10:45:37.999Z</time></trkpt><trkpt lat="38.02389948850424" lon="15.737167264998536"><ele>814.8</ele><time>2026-04-14T10:45:38.999Z</time></trkpt><trkpt lat="38.023851036389864" lon="15.737261388927354"><ele>817.4</ele><time>2026-04-14T10:45:39.999Z</time></trkpt><trkpt lat="38.02380046996113" lon="15.737332286560402"><ele>820.0</ele><time>2026-04-14T10:45:40.999Z</time></trkpt><trkpt lat="38.02365100969516" lon="15.73733246318918"><ele>820.0</ele><time>2026-04-14T10:45:42.999Z</time></trkpt><trkpt lat="38.02354082576155" lon="15.737315016792252"><ele>820.0</ele><time>2026-04-14T10:45:43.999Z</time></trkpt><trkpt lat="38.02343856686657" lon="15.737302818974689"><ele>820.0</ele><time>2026-04-14T10:45:44.999Z</time></trkpt><trkpt lat="38.02332984578693" lon="15.737247070764697"><ele>820.0</ele><time>2026-04-14T10:45:45.999Z</time></trkpt><trkpt lat="38.02320956037024" lon="15.737169021351356"><ele>818.4</ele><time>2026-04-14T10:45:46.999Z</time></trkpt><trkpt lat="38.02309497808251" lon="15.737111466303986"><ele>816.8</ele><time>2026-04-14T10:45:47.999Z</time></trkpt><trkpt lat="38.02299840291791" lon="15.73708023255304"><ele>815.2</ele><time>2026-04-14T10:45:48.999Z</time></trkpt><trkpt lat="38.02292148112802" lon="15.737061704238842"><ele>813.6</ele><time>2026-04-14T10:45:49.999Z</time></trkpt><trkpt lat="38.02284999146423" lon="15.737058443812892"><ele>812.0</ele><time>2026-04-14T10:45:50.999Z</time></trkpt><trkpt lat="38.022761618251366" lon="15.737064487404103"><ele>812.0000000000001</ele><time>2026-04-14T10:45:51.999Z</time></trkpt><trkpt lat="38.02268413587452" lon="15.737044752954692"><ele>812.0</ele><time>2026-04-14T10:45:52.999Z</time></trkpt><trkpt lat="38.02261939773452" lon="15.736998504276768"><ele>812.0</ele><time>2026-04-14T10:45:53.999Z</time></trkpt><trkpt lat="38.02256892683813" lon="15.736917926928985"><ele>812.0</ele><time>2026-04-14T10:45:54.999Z</time></trkpt><trkpt lat="38.022515461638804" lon="15.736834517176398"><ele>812.0000000000001</ele><time>2026-04-14T10:45:55.999Z</time></trkpt><trkpt lat="38.02243802522208" lon="15.73677564168168"><ele>812.0</ele><time>2026-04-14T10:45:56.999Z</time></trkpt><trkpt lat="38.02235803862451" lon="15.736735985885392"><ele>810.0</ele><time>2026-04-14T10:45:57.999Z</time></trkpt><trkpt lat="38.02227871123798" lon="15.736695710933716"><ele>808.0</ele><time>2026-04-14T10:45:58.999Z</time></trkpt><trkpt lat="38.022168769506465" lon="15.736683836096532"><ele>806.0</ele><time>2026-04-14T10:45:59.999Z</time></trkpt><trkpt lat="38.02204994341634" lon="15.736678750623524"><ele>804.0</ele><time>2026-04-14T10:46:00.999Z</time></trkpt><trkpt lat="38.02195827713812" lon="15.736664328494188"><ele>802.0</ele><time>2026-04-14T10:46:01.999Z</time></trkpt><trkpt lat="38.021865234806896" lon="15.736664435745244"><ele>802.0</ele><time>2026-04-14T10:46:02.999Z</time></trkpt><trkpt lat="38.02179752119131" lon="15.736672816859345"><ele>802.0</ele><time>2026-04-14T10:46:03.999Z</time></trkpt><trkpt lat="38.021662690747114" lon="15.736733449986813"><ele>802.0</ele><time>2026-04-14T10:46:05.999Z</time></trkpt><trkpt lat="38.02159781089919" lon="15.736792861987215"><ele>802.0</ele><time>2026-04-14T10:46:06.999Z</time></trkpt><trkpt lat="38.0215174316582" lon="15.736861168266405"><ele>802.0</ele><time>2026-04-14T10:46:07.999Z</time></trkpt><trkpt lat="38.021442038808054" lon="15.736926594640211"><ele>801.0</ele><time>2026-04-14T10:46:08.999Z</time></trkpt><trkpt lat="38.021369319632086" lon="15.736977477692065"><ele>800.0</ele><time>2026-04-14T10:46:09.999Z</time></trkpt><trkpt lat="38.02130713427815" lon="15.737024220254183"><ele>799.0</ele><time>2026-04-14T10:46:10.999Z</time></trkpt><trkpt lat="38.021261252148314" lon="15.737096291418183"><ele>798.0</ele><time>2026-04-14T10:46:11.999Z</time></trkpt><trkpt lat="38.02124859835682" lon="15.737185120007098"><ele>797.0</ele><time>2026-04-14T10:46:12.999Z</time></trkpt><trkpt lat="38.021240921803575" lon="15.737275727270902"><ele>796.0</ele><time>2026-04-14T10:46:13.999Z</time></trkpt><trkpt lat="38.02123037342248" lon="15.737358224597406"><ele>795.0</ele><time>2026-04-14T10:46:14.999Z</time></trkpt><trkpt lat="38.021209506322556" lon="15.737435645064794"><ele>795.0</ele><time>2026-04-14T10:46:15.999Z</time></trkpt><trkpt lat="38.0211501402864" lon="15.737504544098629"><ele>795.0</ele><time>2026-04-14T10:46:16.999Z</time></trkpt><trkpt lat="38.0210665913106" lon="15.737532325271133"><ele>795.0</ele><time>2026-04-14T10:46:17.999Z</time></trkpt><trkpt lat="38.02098142151558" lon="15.737533908926586"><ele>795.0</ele><time>2026-04-14T10:46:18.999Z</time></trkpt><trkpt lat="38.020890182460356" lon="15.73750182606004"><ele>795.0</ele><time>2026-04-14T10:46:19.999Z</time></trkpt><trkpt lat="38.02080456442695" lon="15.737468997836391"><ele>795.0</ele><time>2026-04-14T10:46:20.999Z</time></trkpt><trkpt lat="38.020725799242264" lon="15.737431732247831"><ele>796.8333333333334</ele><time>2026-04-14T10:46:21.999Z</time></trkpt><trkpt lat="38.020647523230316" lon="15.737396423016943"><ele>798.6666666666667</ele><time>2026-04-14T10:46:22.999Z</time></trkpt><trkpt lat="38.020568676184965" lon="15.737385921612368"><ele>800.5</ele><time>2026-04-14T10:46:23.999Z</time></trkpt><trkpt lat="38.020497063062344" lon="15.737390083270396"><ele>802.3333333333334</ele><time>2026-04-14T10:46:24.999Z</time></trkpt><trkpt lat="38.02042025548898" lon="15.73739886992115"><ele>804.1666666666667</ele><time>2026-04-14T10:46:25.999Z</time></trkpt><trkpt lat="38.02035385183485" lon="15.737446029534386"><ele>806.0</ele><time>2026-04-14T10:46:26.999Z</time></trkpt><trkpt lat="38.020311192095114" lon="15.737537670887443"><ele>806.0</ele><time>2026-04-14T10:46:27.999Z</time></trkpt><trkpt lat="38.0202790600621" lon="15.737644036148579"><ele>806.0</ele><time>2026-04-14T10:46:28.999Z</time></trkpt><trkpt lat="38.020235613084076" lon="15.73774895610929"><ele>806.0</ele><time>2026-04-14T10:46:29.999Z</time></trkpt><trkpt lat="38.0201793645305" lon="15.737845248685751"><ele>806.0</ele><time>2026-04-14T10:46:30.999Z</time></trkpt><trkpt lat="38.020113925988305" lon="15.737939237601404"><ele>806.0</ele><time>2026-04-14T10:46:31.999Z</time></trkpt><trkpt lat="38.02004355187906" lon="15.738031606617303"><ele>806.4</ele><time>2026-04-14T10:46:32.999Z</time></trkpt><trkpt lat="38.019970598437276" lon="15.738123795681997"><ele>806.8</ele><time>2026-04-14T10:46:33.999Z</time></trkpt><trkpt lat="38.01990157084246" lon="15.73822276479974"><ele>807.1999999999999</ele><time>2026-04-14T10:46:34.999Z</time></trkpt><trkpt lat="38.0198385688711" lon="15.738319152548108"><ele>807.5999999999999</ele><time>2026-04-14T10:46:35.999Z</time></trkpt><trkpt lat="38.0197590964079" lon="15.73839636649094"><ele>808.0</ele><time>2026-04-14T10:46:36.999Z</time></trkpt><trkpt lat="38.01966879271882" lon="15.7384622354553"><ele>808.0</ele><time>2026-04-14T10:46:37.999Z</time></trkpt><trkpt lat="38.019574313107746" lon="15.738516853811738"><ele>808.0</ele><time>2026-04-14T10:46:38.999Z</time></trkpt><trkpt lat="38.01948319191707" lon="15.73856484703918"><ele>808.0</ele><time>2026-04-14T10:46:39.999Z</time></trkpt><trkpt lat="38.01940060211852" lon="15.738632010631079"><ele>808.0</ele><time>2026-04-14T10:46:40.999Z</time></trkpt><trkpt lat="38.01933792676288" lon="15.738717789862548"><ele>808.0</ele><time>2026-04-14T10:46:41.999Z</time></trkpt><trkpt lat="38.01929325550698" lon="15.73883254685988"><ele>807.9999999999999</ele><time>2026-04-14T10:46:42.999Z</time></trkpt><trkpt lat="38.019226445403085" lon="15.738915143182505"><ele>808.0</ele><time>2026-04-14T10:46:43.999Z</time></trkpt><trkpt lat="38.019153001300886" lon="15.738974330503055"><ele>808.0</ele><time>2026-04-14T10:46:44.999Z</time></trkpt><trkpt lat="38.01907923288168" lon="15.73900114792424"><ele>808.0</ele><time>2026-04-14T10:46:45.999Z</time></trkpt><trkpt lat="38.01900290837037" lon="15.738979035237419"><ele>807.9999999999999</ele><time>2026-04-14T10:46:46.999Z</time></trkpt><trkpt lat="38.01893342001817" lon="15.738919525726534"><ele>808.0</ele><time>2026-04-14T10:46:47.999Z</time></trkpt><trkpt lat="38.01886241762736" lon="15.738830352961447"><ele>811.5999999999999</ele><time>2026-04-14T10:46:48.999Z</time></trkpt><trkpt lat="38.018799179917394" lon="15.738773466047748"><ele>815.1999999999999</ele><time>2026-04-14T10:46:49.999Z</time></trkpt><trkpt lat="38.018706030220585" lon="15.738718066177997"><ele>818.8</ele><time>2026-04-14T10:46:50.999Z</time></trkpt><trkpt lat="38.01860280407863" lon="15.738684530318373"><ele>822.4</ele><time>2026-04-14T10:46:51.999Z</time></trkpt><trkpt lat="38.018498727644406" lon="15.738662617672036"><ele>826.0</ele><time>2026-04-14T10:46:52.999Z</time></trkpt><trkpt lat="38.018398687137406" lon="15.738640966787795"><ele>828.4999999999999</ele><time>2026-04-14T10:46:53.999Z</time></trkpt><trkpt lat="38.01830459832375" lon="15.738614743057957"><ele>831.0</ele><time>2026-04-14T10:46:54.999Z</time></trkpt><trkpt lat="38.01821168730565" lon="15.738587361723713"><ele>833.5</ele><time>2026-04-14T10:46:55.999Z</time></trkpt><trkpt lat="38.018145299432625" lon="15.738558167705799"><ele>836.0</ele><time>2026-04-14T10:46:56.999Z</time></trkpt><trkpt lat="38.018083473893036" lon="15.738480735216669"><ele>838.4999999999999</ele><time>2026-04-14T10:46:58.999Z</time></trkpt><trkpt lat="38.018020224599574" lon="15.738499475662424"><ele>841.0</ele><time>2026-04-14T10:47:54Z</time></trkpt><trkpt lat="38.01791774716526" lon="15.73857904350939"><ele>840.9999999999999</ele><time>2026-04-14T10:47:56Z</time></trkpt><trkpt lat="38.01783260721477" lon="15.738664813253655"><ele>841.0</ele><time>2026-04-14T10:47:58Z</time></trkpt><trkpt lat="38.01779683873661" lon="15.738732267477427"><ele>841.0</ele><time>2026-04-14T10:47:59Z</time></trkpt><trkpt lat="38.017760802933246" lon="15.738824235396129"><ele>841.0</ele><time>2026-04-14T10:48:00Z</time></trkpt><trkpt lat="38.01772754730748" lon="15.73889287751009"><ele>840.9999999999999</ele><time>2026-04-14T10:48:01Z</time></trkpt><trkpt lat="38.01766686496833" lon="15.738988951550773"><ele>841.0</ele><time>2026-04-14T10:48:03Z</time></trkpt><trkpt lat="38.017612224455355" lon="15.739031590432193"><ele>840.9999999999999</ele><time>2026-04-14T10:48:04Z</time></trkpt><trkpt lat="38.01752874555448" lon="15.73913001548471"><ele>841.0</ele><time>2026-04-14T10:48:06Z</time></trkpt><trkpt lat="38.017484774003464" lon="15.739219575099279"><ele>841.0</ele><time>2026-04-14T10:48:08Z</time></trkpt><trkpt lat="38.01743138977571" lon="15.739263865251552"><ele>841.0</ele><time>2026-04-14T10:48:10Z</time></trkpt><trkpt lat="38.017359991492185" lon="15.739293980554898"><ele>840.9999999999999</ele><time>2026-04-14T10:48:10.999Z</time></trkpt><trkpt lat="38.01729037668987" lon="15.739336012608746"><ele>841.0</ele><time>2026-04-14T10:48:11.999Z</time></trkpt><trkpt lat="38.01724648044813" lon="15.739402627321294"><ele>843.8333333333333</ele><time>2026-04-14T10:48:13.999Z</time></trkpt><trkpt lat="38.017261061972135" lon="15.739480624653432"><ele>846.6666666666666</ele><time>2026-04-14T10:48:15.999Z</time></trkpt><trkpt lat="38.017225414476094" lon="15.739576451830521"><ele>849.5</ele><time>2026-04-14T10:48:18.999Z</time></trkpt><trkpt lat="38.017222220482296" lon="15.739682075861563"><ele>852.3333333333333</ele><time>2026-04-14T10:48:20.999Z</time></trkpt><trkpt lat="38.01730600272061" lon="15.739694028212629"><ele>855.1666666666666</ele><time>2026-04-14T10:48:22.999Z</time></trkpt><trkpt lat="38.01732132475987" lon="15.739771639442493"><ele>858.0</ele><time>2026-04-14T10:48:25.999Z</time></trkpt><trkpt lat="38.017325955974165" lon="15.739867872493614"><ele>858.0</ele><time>2026-04-14T10:48:27.999Z</time></trkpt><trkpt lat="38.01734647642511" lon="15.739979738669904"><ele>858.0</ele><time>2026-04-14T10:49:59Z</time></trkpt><trkpt lat="38.017324204859854" lon="15.740125536071604"><ele>858.0</ele><time>2026-04-14T10:50:01Z</time></trkpt><trkpt lat="38.01729367661118" lon="15.740281819169718"><ele>858.0</ele><time>2026-04-14T10:50:03Z</time></trkpt><trkpt lat="38.01727994384602" lon="15.740370395529801"><ele>858.0</ele><time>2026-04-14T10:50:04Z</time></trkpt><trkpt lat="38.01725873482309" lon="15.740447984291999"><ele>857.8571428571429</ele><time>2026-04-14T10:50:05Z</time></trkpt><trkpt lat="38.01722705481988" lon="15.740519004556823"><ele>857.7142857142858</ele><time>2026-04-14T10:50:06Z</time></trkpt><trkpt lat="38.017176017515695" lon="15.740591171198846"><ele>857.5714285714286</ele><time>2026-04-14T10:50:07Z</time></trkpt><trkpt lat="38.01712336556398" lon="15.74065106831331"><ele>857.4285714285714</ele><time>2026-04-14T10:50:08Z</time></trkpt><trkpt lat="38.01705054858106" lon="15.74069252204094"><ele>857.2857142857142</ele><time>2026-04-14T10:50:09.001Z</time></trkpt><trkpt lat="38.0169882824363" lon="15.740760606105576"><ele>857.1428571428571</ele><time>2026-04-14T10:50:11.001Z</time></trkpt><trkpt lat="38.01697576319821" lon="15.740855744728364"><ele>857.0</ele><time>2026-04-14T10:50:14.001Z</time></trkpt><trkpt lat="38.016898020621184" lon="15.740882760008594"><ele>857.0000000000001</ele><time>2026-04-14T10:50:17.001Z</time></trkpt><trkpt lat="38.01679397296209" lon="15.740920108907519"><ele>857.0</ele><time>2026-04-14T10:50:19.001Z</time></trkpt><trkpt lat="38.01673582522476" lon="15.740961268810711"><ele>857.0</ele><time>2026-04-14T10:50:20.001Z</time></trkpt><trkpt lat="38.01666739758554" lon="15.741005267772428"><ele>857.0</ele><time>2026-04-14T10:50:21.001Z</time></trkpt><trkpt lat="38.01659058718427" lon="15.741033995543917"><ele>857.0000000000001</ele><time>2026-04-14T10:50:22.001Z</time></trkpt><trkpt lat="38.016512246789674" lon="15.74106674358695"><ele>857.0</ele><time>2026-04-14T10:50:23.001Z</time></trkpt><trkpt lat="38.016438548206814" lon="15.741104926122794"><ele>858.8</ele><time>2026-04-14T10:50:24.001Z</time></trkpt><trkpt lat="38.016338416214225" lon="15.741172509257257"><ele>860.6</ele><time>2026-04-14T10:50:26.001Z</time></trkpt><trkpt lat="38.016285144623986" lon="15.741228900432969"><ele>862.3999999999999</ele><time>2026-04-14T10:50:27.001Z</time></trkpt><trkpt lat="38.01624116843356" lon="15.741310705675168"><ele>864.1999999999999</ele><time>2026-04-14T10:50:28.001Z</time></trkpt><trkpt lat="38.016190785579866" lon="15.741408417097418"><ele>866.0</ele><time>2026-04-14T10:50:29.001Z</time></trkpt><trkpt lat="38.01613195114401" lon="15.741509212599459"><ele>866.0000000000001</ele><time>2026-04-14T10:50:30.001Z</time></trkpt><trkpt lat="38.016064028984694" lon="15.741606937244399"><ele>866.0</ele><time>2026-04-14T10:50:31.001Z</time></trkpt><trkpt lat="38.01600216976106" lon="15.741697176924237"><ele>866.0</ele><time>2026-04-14T10:50:32.001Z</time></trkpt><trkpt lat="38.01595954971783" lon="15.741773119464478"><ele>866.0</ele><time>2026-04-14T10:50:33.001Z</time></trkpt><trkpt lat="38.01592566507126" lon="15.741848799468034"><ele>866.0000000000001</ele><time>2026-04-14T10:50:34.001Z</time></trkpt><trkpt lat="38.015881065617435" lon="15.741931887253324"><ele>866.0</ele><time>2026-04-14T10:50:35.001Z</time></trkpt><trkpt lat="38.01583701906393" lon="15.742012745139647"><ele>866.8333333333334</ele><time>2026-04-14T10:50:36.001Z</time></trkpt><trkpt lat="38.01579491025199" lon="15.742096699492055"><ele>867.6666666666667</ele><time>2026-04-14T10:50:37.001Z</time></trkpt><trkpt lat="38.01574240807082" lon="15.742180670546409"><ele>868.5</ele><time>2026-04-14T10:50:38.001Z</time></trkpt><trkpt lat="38.01567959582276" lon="15.742265011494865"><ele>869.3333333333333</ele><time>2026-04-14T10:50:39.001Z</time></trkpt><trkpt lat="38.01561934047652" lon="15.742346365863545"><ele>870.1666666666666</ele><time>2026-04-14T10:50:40.001Z</time></trkpt><trkpt lat="38.01555578060852" lon="15.742438466667181"><ele>871.0</ele><time>2026-04-14T10:50:41.001Z</time></trkpt><trkpt lat="38.01550361845058" lon="15.742534719573438"><ele>871.0</ele><time>2026-04-14T10:50:42.001Z</time></trkpt><trkpt lat="38.01545845989876" lon="15.742642134700997"><ele>870.9999999999999</ele><time>2026-04-14T10:50:43.001Z</time></trkpt><trkpt lat="38.015419139219006" lon="15.742738756145918"><ele>870.9999999999999</ele><time>2026-04-14T10:50:44.001Z</time></trkpt><trkpt lat="38.01536215209042" lon="15.74284707564441"><ele>871.0</ele><time>2026-04-14T10:50:45.001Z</time></trkpt><trkpt lat="38.01529627626564" lon="15.742923931443718"><ele>871.0</ele><time>2026-04-14T10:50:46.001Z</time></trkpt><trkpt lat="38.01521906909371" lon="15.742995355051347"><ele>869.5999999999999</ele><time>2026-04-14T10:50:47.001Z</time></trkpt><trkpt lat="38.01513956837535" lon="15.743074754846988"><ele>868.1999999999999</ele><time>2026-04-14T10:50:48.001Z</time></trkpt><trkpt lat="38.015058959094056" lon="15.743154609751345"><ele>866.8000000000001</ele><time>2026-04-14T10:50:49.001Z</time></trkpt><trkpt lat="38.01497260665503" lon="15.743239939095183"><ele>865.4000000000001</ele><time>2026-04-14T10:50:50.001Z</time></trkpt><trkpt lat="38.01488224886585" lon="15.743333767607243"><ele>864.0</ele><time>2026-04-14T10:50:51Z</time></trkpt><trkpt lat="38.014798256908925" lon="15.743428183830838"><ele>864.0</ele><time>2026-04-14T10:50:52Z</time></trkpt><trkpt lat="38.014713210831644" lon="15.743508476480043"><ele>864.0000000000001</ele><time>2026-04-14T10:50:53Z</time></trkpt><trkpt lat="38.014641693868505" lon="15.743586995664094"><ele>864.0000000000001</ele><time>2026-04-14T10:50:54Z</time></trkpt><trkpt lat="38.014579292377505" lon="15.743671450077796"><ele>864.0</ele><time>2026-04-14T10:50:55Z</time></trkpt><trkpt lat="38.01452122871849" lon="15.743777927159712"><ele>864.0</ele><time>2026-04-14T10:50:56Z</time></trkpt><trkpt lat="38.01446758892574" lon="15.74389219554698"><ele>863.3333333333334</ele><time>2026-04-14T10:50:57Z</time></trkpt><trkpt lat="38.01442305621235" lon="15.743994775189059"><ele>862.6666666666667</ele><time>2026-04-14T10:50:58Z</time></trkpt><trkpt lat="38.01438228253933" lon="15.744079682149094"><ele>862.0</ele><time>2026-04-14T10:50:59Z</time></trkpt><trkpt lat="38.01434609279311" lon="15.744158790523473"><ele>861.3333333333334</ele><time>2026-04-14T10:51:00Z</time></trkpt><trkpt lat="38.01431862462693" lon="15.744239964455096"><ele>860.6666666666667</ele><time>2026-04-14T10:51:01Z</time></trkpt><trkpt lat="38.014331465173456" lon="15.74436940648641"><ele>860.0</ele><time>2026-04-14T10:51:03Z</time></trkpt><trkpt lat="38.01439319773195" lon="15.744474269611302"><ele>859.8333333333334</ele><time>2026-04-14T10:51:05Z</time></trkpt><trkpt lat="38.014440637587875" lon="15.744590546105263"><ele>859.6666666666667</ele><time>2026-04-14T10:51:07Z</time></trkpt><trkpt lat="38.01448465134601" lon="15.744682127795214"><ele>859.5</ele><time>2026-04-14T10:51:09Z</time></trkpt><trkpt lat="38.01455850660589" lon="15.744723365783154"><ele>859.3333333333333</ele><time>2026-04-14T10:51:11Z</time></trkpt><trkpt lat="38.01464219443288" lon="15.74478856610455"><ele>859.1666666666666</ele><time>2026-04-14T10:51:13Z</time></trkpt><trkpt lat="38.01468378587092" lon="15.744858231828884"><ele>859.0</ele><time>2026-04-14T10:51:14Z</time></trkpt><trkpt lat="38.014693422184855" lon="15.744974864735308"><ele>858.9999999999999</ele><time>2026-04-14T10:51:16Z</time></trkpt><trkpt lat="38.014740958829684" lon="15.745080629109214"><ele>859.0</ele><time>2026-04-14T10:51:18Z</time></trkpt><trkpt lat="38.01483321147716" lon="15.745137953142239"><ele>859.0</ele><time>2026-04-14T10:51:20Z</time></trkpt><trkpt lat="38.014897025009226" lon="15.745162177526582"><ele>859.0</ele><time>2026-04-14T10:51:21Z</time></trkpt><trkpt lat="38.0149696972848" lon="15.745190915302475"><ele>858.9999999999999</ele><time>2026-04-14T10:51:22Z</time></trkpt><trkpt lat="38.015035576181305" lon="15.745289282288729"><ele>859.0</ele><time>2026-04-14T10:51:24Z</time></trkpt><trkpt lat="38.014949542676305" lon="15.745424115601343"><ele>857.4000000000001</ele><time>2026-04-14T10:51:27Z</time></trkpt><trkpt lat="38.01488746805205" lon="15.745440113289613"><ele>855.8000000000001</ele><time>2026-04-14T10:51:29Z</time></trkpt><trkpt lat="38.01480991142277" lon="15.74539046512243"><ele>854.2</ele><time>2026-04-14T10:51:30Z</time></trkpt><trkpt lat="38.01469974170614" lon="15.745361022519889"><ele>852.5999999999999</ele><time>2026-04-14T10:51:32Z</time></trkpt><trkpt lat="38.0145910481814" lon="15.745340610943474"><ele>851.0</ele><time>2026-04-14T10:51:34Z</time></trkpt><trkpt lat="38.01451072965136" lon="15.745433303862912"><ele>851.0</ele><time>2026-04-14T10:51:36Z</time></trkpt><trkpt lat="38.01450103949655" lon="15.745520143102068"><ele>851.0</ele><time>2026-04-14T10:51:37Z</time></trkpt><trkpt lat="38.01448648258682" lon="15.745599627053057"><ele>851.0</ele><time>2026-04-14T10:51:38Z</time></trkpt><trkpt lat="38.01446845237807" lon="15.74568344487447"><ele>851.0</ele><time>2026-04-14T10:51:39Z</time></trkpt><trkpt lat="38.01443028518281" lon="15.74577105482046"><ele>851.0</ele><time>2026-04-14T10:51:40Z</time></trkpt><trkpt lat="38.01440966584265" lon="15.745859826487518"><ele>851.0</ele><time>2026-04-14T10:51:41Z</time></trkpt><trkpt lat="38.01439303604041" lon="15.745977766985375"><ele>851.0</ele><time>2026-04-14T10:51:42Z</time></trkpt><trkpt lat="38.01437244177527" lon="15.746162430486963"><ele>847.5999999999999</ele><time>2026-04-14T10:51:44Z</time></trkpt><trkpt lat="38.01436659620896" lon="15.746268933081263"><ele>844.2</ele><time>2026-04-14T10:51:45Z</time></trkpt><trkpt lat="38.014337619982015" lon="15.74638035452719"><ele>840.8</ele><time>2026-04-14T10:51:46Z</time></trkpt><trkpt lat="38.01430028509124" lon="15.746478414700215"><ele>837.4000000000001</ele><time>2026-04-14T10:51:47Z</time></trkpt><trkpt lat="38.01427249102205" lon="15.746593386636668"><ele>834.0</ele><time>2026-04-14T10:51:48Z</time></trkpt><trkpt lat="38.01424464217908" lon="15.746706867382445"><ele>834.0</ele><time>2026-04-14T10:51:49Z</time></trkpt><trkpt lat="38.0142182421867" lon="15.746815106449588"><ele>834.0</ele><time>2026-04-14T10:51:50Z</time></trkpt><trkpt lat="38.01419386361401" lon="15.746921186172662"><ele>834.0</ele><time>2026-04-14T10:51:51Z</time></trkpt><trkpt lat="38.014171253003354" lon="15.747013489248907"><ele>834.0</ele><time>2026-04-14T10:51:52Z</time></trkpt><trkpt lat="38.01414285665618" lon="15.747105859955958"><ele>834.0</ele><time>2026-04-14T10:51:53Z</time></trkpt><trkpt lat="38.01410489931877" lon="15.747182232254978"><ele>834.0</ele><time>2026-04-14T10:51:54Z</time></trkpt><trkpt lat="38.01399625456952" lon="15.7472558933608"><ele>829.3333333333334</ele><time>2026-04-14T10:51:56Z</time></trkpt><trkpt lat="38.013918740108004" lon="15.74728196166613"><ele>824.6666666666667</ele><time>2026-04-14T10:51:57.001Z</time></trkpt><trkpt lat="38.01382461805714" lon="15.747292689051744"><ele>820.0</ele><time>2026-04-14T10:51:58.001Z</time></trkpt><trkpt lat="38.01373757281604" lon="15.747285886585248"><ele>815.3333333333334</ele><time>2026-04-14T10:51:59.001Z</time></trkpt><trkpt lat="38.01365595876375" lon="15.74728248263732"><ele>810.6666666666667</ele><time>2026-04-14T10:52:00.001Z</time></trkpt><trkpt lat="38.013578672391425" lon="15.74727129395743"><ele>806.0</ele><time>2026-04-14T10:52:01.001Z</time></trkpt><trkpt lat="38.01349758841713" lon="15.747246431314789"><ele>806.0000000000001</ele><time>2026-04-14T10:52:02.001Z</time></trkpt><trkpt lat="38.01343195257629" lon="15.747215114959804"><ele>806.0</ele><time>2026-04-14T10:52:03.001Z</time></trkpt><trkpt lat="38.01336743913" lon="15.747173967093973"><ele>806.0</ele><time>2026-04-14T10:52:04.001Z</time></trkpt><trkpt lat="38.013318794959396" lon="15.747106410805"><ele>806.0</ele><time>2026-04-14T10:52:05.001Z</time></trkpt><trkpt lat="38.013276279678" lon="15.747009208310219"><ele>806.0000000000001</ele><time>2026-04-14T10:52:06.001Z</time></trkpt><trkpt lat="38.013223187238566" lon="15.746916378796056"><ele>806.0</ele><time>2026-04-14T10:52:07.001Z</time></trkpt><trkpt lat="38.01317549620519" lon="15.746832988256854"><ele>803.8571428571429</ele><time>2026-04-14T10:52:08.001Z</time></trkpt><trkpt lat="38.0131232923051" lon="15.746767666872381"><ele>801.7142857142857</ele><time>2026-04-14T10:52:09.001Z</time></trkpt><trkpt lat="38.01306664135636" lon="15.746720250804557"><ele>799.5714285714286</ele><time>2026-04-14T10:52:10.001Z</time></trkpt><trkpt lat="38.01298246751325" lon="15.746702691277696"><ele>797.4285714285714</ele><time>2026-04-14T10:52:11.001Z</time></trkpt><trkpt lat="38.012911089689084" lon="15.746689516773563"><ele>795.2857142857142</ele><time>2026-04-14T10:52:12.001Z</time></trkpt><trkpt lat="38.012858432123046" lon="15.746613479578636"><ele>793.1428571428571</ele><time>2026-04-14T10:52:13.001Z</time></trkpt><trkpt lat="38.01281510750367" lon="15.746545554126035"><ele>791.0</ele><time>2026-04-14T10:52:14.001Z</time></trkpt><trkpt lat="38.012775368507995" lon="15.746375576149294"><ele>791.0</ele><time>2026-04-14T10:52:16Z</time></trkpt><trkpt lat="38.01274314790145" lon="15.746273099665714"><ele>791.0</ele><time>2026-04-14T10:52:17Z</time></trkpt><trkpt lat="38.01270094484616" lon="15.746174550378157"><ele>791.0</ele><time>2026-04-14T10:52:18Z</time></trkpt><trkpt lat="38.01265802718844" lon="15.746059178397582"><ele>791.0</ele><time>2026-04-14T10:52:19Z</time></trkpt><trkpt lat="38.012606657375315" lon="15.745948246539562"><ele>791.0</ele><time>2026-04-14T10:52:20Z</time></trkpt><trkpt lat="38.01255473154868" lon="15.745859471114402"><ele>792.5000000000001</ele><time>2026-04-14T10:52:21Z</time></trkpt><trkpt lat="38.012513660277016" lon="15.745792166178552"><ele>794.0</ele><time>2026-04-14T10:52:22Z</time></trkpt><trkpt lat="38.01246266230407" lon="15.745654828337972"><ele>795.5</ele><time>2026-04-14T10:52:24Z</time></trkpt><trkpt lat="38.01240475810082" lon="15.745540552056724"><ele>797.0</ele><time>2026-04-14T10:52:26Z</time></trkpt><trkpt lat="38.012329938412776" lon="15.745511844229165"><ele>798.5000000000001</ele><time>2026-04-14T10:52:27Z</time></trkpt><trkpt lat="38.01226423956557" lon="15.74548591977854"><ele>800.0</ele><time>2026-04-14T10:52:28Z</time></trkpt><trkpt lat="38.01220519304412" lon="15.745452956081989"><ele>796.6666666666667</ele><time>2026-04-14T10:52:29Z</time></trkpt><trkpt lat="38.01215389534661" lon="15.745406555076093"><ele>793.3333333333334</ele><time>2026-04-14T10:52:30Z</time></trkpt><trkpt lat="38.01208485513838" lon="15.745360875979213"><ele>790.0</ele><time>2026-04-14T10:52:31Z</time></trkpt><trkpt lat="38.01198482076786" lon="15.745337598406556"><ele>786.6666666666667</ele><time>2026-04-14T10:52:32Z</time></trkpt><trkpt lat="38.01187541640839" lon="15.745327399226092"><ele>783.3333333333334</ele><time>2026-04-14T10:52:33Z</time></trkpt><trkpt lat="38.01178144189829" lon="15.74531706821954"><ele>780.0</ele><time>2026-04-14T10:52:34Z</time></trkpt><trkpt lat="38.011692462880596" lon="15.745317035767478"><ele>779.0</ele><time>2026-04-14T10:52:35Z</time></trkpt><trkpt lat="38.01161191656145" lon="15.745304486175073"><ele>778.0</ele><time>2026-04-14T10:52:36Z</time></trkpt><trkpt lat="38.011527193390236" lon="15.745278505533793"><ele>777.0</ele><time>2026-04-14T10:52:37Z</time></trkpt><trkpt lat="38.01146001099358" lon="15.745256590040123"><ele>776.0</ele><time>2026-04-14T10:52:38Z</time></trkpt><trkpt lat="38.011384164737365" lon="15.745255952173707"><ele>775.0</ele><time>2026-04-14T10:52:39Z</time></trkpt><trkpt lat="38.011309896295764" lon="15.74527290596189"><ele>774.0</ele><time>2026-04-14T10:52:40Z</time></trkpt><trkpt lat="38.01123191231186" lon="15.745311783741098"><ele>774.0</ele><time>2026-04-14T10:52:41Z</time></trkpt><trkpt lat="38.011150361773566" lon="15.745350053040985"><ele>774.0</ele><time>2026-04-14T10:52:42Z</time></trkpt><trkpt lat="38.01107323479726" lon="15.745381332996462"><ele>774.0</ele><time>2026-04-14T10:52:43Z</time></trkpt><trkpt lat="38.010999026056915" lon="15.745408703373126"><ele>774.0</ele><time>2026-04-14T10:52:44Z</time></trkpt><trkpt lat="38.01092550014924" lon="15.745447826550638"><ele>774.0</ele><time>2026-04-14T10:52:45Z</time></trkpt><trkpt lat="38.0108551368368" lon="15.74549485310775"><ele>774.0</ele><time>2026-04-14T10:52:46Z</time></trkpt><trkpt lat="38.010733700572345" lon="15.745462543706546"><ele>771.5</ele><time>2026-04-14T10:52:48Z</time></trkpt><trkpt lat="38.01063336238756" lon="15.745402577699608"><ele>769.0</ele><time>2026-04-14T10:52:49Z</time></trkpt><trkpt lat="38.01051204665264" lon="15.745350338226922"><ele>766.5</ele><time>2026-04-14T10:52:50Z</time></trkpt><trkpt lat="38.010377256465205" lon="15.74532172349335"><ele>764.0</ele><time>2026-04-14T10:52:51Z</time></trkpt><trkpt lat="38.01025651425755" lon="15.745306185903852"><ele>764.0</ele><time>2026-04-14T10:52:52Z</time></trkpt><trkpt lat="38.01016733182594" lon="15.745291989617916"><ele>764.0</ele><time>2026-04-14T10:52:53Z</time></trkpt><trkpt lat="38.01009754899338" lon="15.745266753364303"><ele>764.0</ele><time>2026-04-14T10:52:54Z</time></trkpt><trkpt lat="38.01001125959" lon="15.745157585135923"><ele>764.0</ele><time>2026-04-14T10:52:56Z</time></trkpt><trkpt lat="38.00993655034251" lon="15.745058278639856"><ele>764.0</ele><time>2026-04-14T10:52:58Z</time></trkpt><trkpt lat="38.00984851477933" lon="15.74513576005311"><ele>760.4000000000001</ele><time>2026-04-14T10:53:00Z</time></trkpt><trkpt lat="38.009849689712055" lon="15.74522907637753"><ele>756.8</ele><time>2026-04-14T10:53:01Z</time></trkpt><trkpt lat="38.00987281952865" lon="15.745347909586448"><ele>753.2</ele><time>2026-04-14T10:53:02Z</time></trkpt><trkpt lat="38.00989788103055" lon="15.745483581789545"><ele>749.5999999999999</ele><time>2026-04-14T10:53:03Z</time></trkpt><trkpt lat="38.00991504522441" lon="15.745599766063094"><ele>746.0</ele><time>2026-04-14T10:53:04Z</time></trkpt><trkpt lat="38.00997036265893" lon="15.745735677056528"><ele>745.5999999999999</ele><time>2026-04-14T10:53:06Z</time></trkpt><trkpt lat="38.01006645749923" lon="15.745844053679498"><ele>745.2</ele><time>2026-04-14T10:53:08Z</time></trkpt><trkpt lat="38.010120701332596" lon="15.745949442055231"><ele>744.8</ele><time>2026-04-14T10:53:09Z</time></trkpt><trkpt lat="38.01014785039832" lon="15.746040546302975"><ele>744.4000000000001</ele><time>2026-04-14T10:53:10Z</time></trkpt><trkpt lat="38.01017374660806" lon="15.746137773712563"><ele>744.0</ele><time>2026-04-14T10:53:11Z</time></trkpt><trkpt lat="38.01020863890091" lon="15.746214869510348"><ele>744.0</ele><time>2026-04-14T10:53:12Z</time></trkpt><trkpt lat="38.01026268401225" lon="15.746279628631513"><ele>744.0</ele><time>2026-04-14T10:53:13Z</time></trkpt><trkpt lat="38.01032046515797" lon="15.746344097157616"><ele>744.0</ele><time>2026-04-14T10:53:14Z</time></trkpt><trkpt lat="38.010369821186075" lon="15.746407567556558"><ele>744.0</ele><time>2026-04-14T10:53:15Z</time></trkpt><trkpt lat="38.01042419360712" lon="15.74647197902753"><ele>744.0</ele><time>2026-04-14T10:53:16Z</time></trkpt><trkpt lat="38.010484480756766" lon="15.746564499494152"><ele>744.0</ele><time>2026-04-14T10:53:18Z</time></trkpt><trkpt lat="38.01044812346707" lon="15.746665574195912"><ele>744.0</ele><time>2026-04-14T10:53:20Z</time></trkpt><trkpt lat="38.01033691218383" lon="15.746672913172143"><ele>744.0</ele><time>2026-04-14T10:53:22Z</time></trkpt><trkpt lat="38.010229614086334" lon="15.746587989310074"><ele>744.0</ele><time>2026-04-14T10:53:24Z</time></trkpt><trkpt lat="38.01015303612084" lon="15.746517767090392"><ele>744.0</ele><time>2026-04-14T10:53:25Z</time></trkpt><trkpt lat="38.01008652873587" lon="15.746448917549957"><ele>744.0</ele><time>2026-04-14T10:53:26Z</time></trkpt><trkpt lat="38.00999294821602" lon="15.746361677227487"><ele>744.4000000000001</ele><time>2026-04-14T10:53:27Z</time></trkpt><trkpt lat="38.00991915077101" lon="15.746293793377955"><ele>744.8</ele><time>2026-04-14T10:53:28Z</time></trkpt><trkpt lat="38.00984847707575" lon="15.746230371816203"><ele>745.2</ele><time>2026-04-14T10:53:29Z</time></trkpt><trkpt lat="38.00977612575058" lon="15.746160503347335"><ele>745.5999999999999</ele><time>2026-04-14T10:53:30Z</time></trkpt><trkpt lat="38.009711221596284" lon="15.746070768468467"><ele>746.0</ele><time>2026-04-14T10:53:31Z</time></trkpt><trkpt lat="38.009638583691824" lon="15.745974933654123"><ele>746.0</ele><time>2026-04-14T10:53:32Z</time></trkpt><trkpt lat="38.00954566292028" lon="15.74590919017658"><ele>746.0</ele><time>2026-04-14T10:53:33Z</time></trkpt><trkpt lat="38.00944744560493" lon="15.745864535175858"><ele>746.0</ele><time>2026-04-14T10:53:34Z</time></trkpt><trkpt lat="38.00936094287506" lon="15.745835360166964"><ele>746.0</ele><time>2026-04-14T10:53:35Z</time></trkpt><trkpt lat="38.0092762623646" lon="15.745830742919471"><ele>746.0</ele><time>2026-04-14T10:53:36Z</time></trkpt><trkpt lat="38.009183768016946" lon="15.74584721147658"><ele>741.8</ele><time>2026-04-14T10:53:37Z</time></trkpt><trkpt lat="38.009083397151365" lon="15.745828236957086"><ele>737.5999999999999</ele><time>2026-04-14T10:53:38Z</time></trkpt><trkpt lat="38.00898946490744" lon="15.745818499437473"><ele>733.4</ele><time>2026-04-14T10:53:39Z</time></trkpt><trkpt lat="38.00891175645527" lon="15.745801812804807"><ele>729.2</ele><time>2026-04-14T10:53:40Z</time></trkpt><trkpt lat="38.00885256409555" lon="15.745773000289216"><ele>725.0</ele><time>2026-04-14T10:53:41Z</time></trkpt><trkpt lat="38.00876639641922" lon="15.745660187666195"><ele>725.0</ele><time>2026-04-14T10:53:43Z</time></trkpt><trkpt lat="38.008720873175605" lon="15.745598308557845"><ele>725.0</ele><time>2026-04-14T10:53:44Z</time></trkpt><trkpt lat="38.00866030251988" lon="15.745528157126497"><ele>725.0</ele><time>2026-04-14T10:53:46Z</time></trkpt><trkpt lat="38.00860726904675" lon="15.745467188825941"><ele>725.0</ele><time>2026-04-14T10:53:48Z</time></trkpt><trkpt lat="38.00846160949705" lon="15.74556035033314"><ele>725.0</ele><time>2026-04-14T10:53:50Z</time></trkpt><trkpt lat="38.008368582701216" lon="15.745640689225302"><ele>725.0</ele><time>2026-04-14T10:53:52Z</time></trkpt><trkpt lat="38.00832248068582" lon="15.745733563107633"><ele>725.0</ele><time>2026-04-14T10:53:54Z</time></trkpt><trkpt lat="38.008425814341436" lon="15.745851074076304"><ele>725.0</ele><time>2026-04-14T10:53:55Z</time></trkpt><trkpt lat="38.00847518805969" lon="15.745933474735008"><ele>725.0</ele><time>2026-04-14T10:53:56Z</time></trkpt><trkpt lat="38.008518092619276" lon="15.746035179235546"><ele>725.0</ele><time>2026-04-14T10:53:57Z</time></trkpt><trkpt lat="38.008570186021295" lon="15.746118756785393"><ele>719.8</ele><time>2026-04-14T10:53:58Z</time></trkpt><trkpt lat="38.00863625617966" lon="15.746194926466671"><ele>714.6</ele><time>2026-04-14T10:53:59Z</time></trkpt><trkpt lat="38.00869078621319" lon="15.746283846762447"><ele>709.4000000000001</ele><time>2026-04-14T10:54:00Z</time></trkpt><trkpt lat="38.008738315209904" lon="15.74637405595408"><ele>704.2</ele><time>2026-04-14T10:54:01Z</time></trkpt><trkpt lat="38.008788574461136" lon="15.746443606844764"><ele>699.0</ele><time>2026-04-14T10:54:02Z</time></trkpt><trkpt lat="38.00888102617437" lon="15.746561914515494"><ele>699.0</ele><time>2026-04-14T10:54:04Z</time></trkpt><trkpt lat="38.00894826155366" lon="15.74661640030827"><ele>699.0</ele><time>2026-04-14T10:54:05Z</time></trkpt><trkpt lat="38.00902501601124" lon="15.74666504044759"><ele>699.0</ele><time>2026-04-14T10:54:06Z</time></trkpt><trkpt lat="38.00908514972097" lon="15.74673572086897"><ele>699.0</ele><time>2026-04-14T10:54:07Z</time></trkpt><trkpt lat="38.00914721669036" lon="15.746805870629197"><ele>699.0</ele><time>2026-04-14T10:54:08Z</time></trkpt><trkpt lat="38.009220290786004" lon="15.746865143339427"><ele>699.0</ele><time>2026-04-14T10:54:09Z</time></trkpt><trkpt lat="38.00927830508208" lon="15.746945261551025"><ele>699.0</ele><time>2026-04-14T10:54:10Z</time></trkpt><trkpt lat="38.00935689249885" lon="15.747051906930364"><ele>699.0</ele><time>2026-04-14T10:54:12Z</time></trkpt><trkpt lat="38.009362508433746" lon="15.747209580392738"><ele>699.0</ele><time>2026-04-14T10:54:14Z</time></trkpt><trkpt lat="38.009344445396316" lon="15.747292025354064"><ele>699.0</ele><time>2026-04-14T10:54:15Z</time></trkpt><trkpt lat="38.00931257304421" lon="15.74736942068633"><ele>699.0</ele><time>2026-04-14T10:54:16Z</time></trkpt><trkpt lat="38.00927717383618" lon="15.747438843697873"><ele>699.0</ele><time>2026-04-14T10:54:17Z</time></trkpt><trkpt lat="38.00918516515553" lon="15.747564768157968"><ele>699.0</ele><time>2026-04-14T10:54:19Z</time></trkpt><trkpt lat="38.009168209886624" lon="15.747641780371266"><ele>699.0</ele><time>2026-04-14T10:54:20Z</time></trkpt><trkpt lat="38.00920095487563" lon="15.747774748899202"><ele>699.0</ele><time>2026-04-14T10:54:22Z</time></trkpt><trkpt lat="38.009263083170744" lon="15.747836989735488"><ele>699.0</ele><time>2026-04-14T10:54:23Z</time></trkpt><trkpt lat="38.009315556721106" lon="15.74791493417077"><ele>699.0</ele><time>2026-04-14T10:54:24Z</time></trkpt><trkpt lat="38.00936898528709" lon="15.748012260115026"><ele>699.0</ele><time>2026-04-14T10:54:25Z</time></trkpt><trkpt lat="38.00941614553059" lon="15.748114803474921"><ele>695.6666666666666</ele><time>2026-04-14T10:54:26Z</time></trkpt><trkpt lat="38.009465423825496" lon="15.748206193696399"><ele>692.3333333333334</ele><time>2026-04-14T10:54:27Z</time></trkpt><trkpt lat="38.009517714787" lon="15.748356491616493"><ele>689.0</ele><time>2026-04-14T10:54:29Z</time></trkpt><trkpt lat="38.00954291313087" lon="15.748442194486046"><ele>685.6666666666667</ele><time>2026-04-14T10:54:30Z</time></trkpt><trkpt lat="38.00957347533147" lon="15.74852127316746"><ele>682.3333333333334</ele><time>2026-04-14T10:54:31Z</time></trkpt><trkpt lat="38.00962221761973" lon="15.748598484189834"><ele>679.0</ele><time>2026-04-14T10:54:32Z</time></trkpt><trkpt lat="38.00966954107144" lon="15.748663363030998"><ele>678.0</ele><time>2026-04-14T10:54:33Z</time></trkpt><trkpt lat="38.00972647074563" lon="15.748719111961254"><ele>677.0</ele><time>2026-04-14T10:54:34Z</time></trkpt><trkpt lat="38.009808486570606" lon="15.748777622504363"><ele>676.0</ele><time>2026-04-14T10:54:35Z</time></trkpt><trkpt lat="38.009882852235705" lon="15.748834843682966"><ele>675.0</ele><time>2026-04-14T10:54:36Z</time></trkpt><trkpt lat="38.009945717725024" lon="15.748896841820367"><ele>674.0</ele><time>2026-04-14T10:54:37Z</time></trkpt><trkpt lat="38.010019496757145" lon="15.74894122899246"><ele>673.0</ele><time>2026-04-14T10:54:38Z</time></trkpt><trkpt lat="38.01009018093722" lon="15.748960177218958"><ele>673.0</ele><time>2026-04-14T10:54:39Z</time></trkpt><trkpt lat="38.01016896693675" lon="15.748970932284688"><ele>673.0</ele><time>2026-04-14T10:54:40Z</time></trkpt><trkpt lat="38.010229147552145" lon="15.749004630294188"><ele>673.0</ele><time>2026-04-14T10:54:41Z</time></trkpt><trkpt lat="38.01029488581293" lon="15.749046302632399"><ele>673.0</ele><time>2026-04-14T10:54:42Z</time></trkpt><trkpt lat="38.01040661411749" lon="15.749113085492535"><ele>673.0</ele><time>2026-04-14T10:54:44Z</time></trkpt><trkpt lat="38.01046048571384" lon="15.749165501612508"><ele>673.0</ele><time>2026-04-14T10:54:45Z</time></trkpt><trkpt lat="38.01050169103869" lon="15.749236630985266"><ele>673.0</ele><time>2026-04-14T10:54:46Z</time></trkpt><trkpt lat="38.01055739328446" lon="15.749349079807278"><ele>673.0</ele><time>2026-04-14T10:54:48Z</time></trkpt><trkpt lat="38.01058011396164" lon="15.749476503090051"><ele>673.0</ele><time>2026-04-14T10:54:50Z</time></trkpt><trkpt lat="38.01063552442181" lon="15.74956286648927"><ele>673.0</ele><time>2026-04-14T10:54:52Z</time></trkpt><trkpt lat="38.01068683782394" lon="15.749681954094182"><ele>673.0</ele><time>2026-04-14T10:54:54Z</time></trkpt><trkpt lat="38.01068982988324" lon="15.74982204039674"><ele>667.5999999999999</ele><time>2026-04-14T10:54:56Z</time></trkpt><trkpt lat="38.01066636578887" lon="15.749936421660083"><ele>662.1999999999999</ele><time>2026-04-14T10:54:58Z</time></trkpt><trkpt lat="38.0105783129716" lon="15.749929526417109"><ele>656.8</ele><time>2026-04-14T10:55:00Z</time></trkpt><trkpt lat="38.010515226451915" lon="15.74981046418985"><ele>651.4</ele><time>2026-04-14T10:55:02Z</time></trkpt><trkpt lat="38.010408293683874" lon="15.749718047588747"><ele>646.0</ele><time>2026-04-14T10:55:04Z</time></trkpt><trkpt lat="38.01033942482397" lon="15.749676579894045"><ele>646.0</ele><time>2026-04-14T10:55:05Z</time></trkpt><trkpt lat="38.01020713763184" lon="15.749671893848063"><ele>646.0</ele><time>2026-04-14T10:55:07Z</time></trkpt><trkpt lat="38.01013884961824" lon="15.749685953581883"><ele>646.0</ele><time>2026-04-14T10:55:08Z</time></trkpt><trkpt lat="38.01001848775782" lon="15.749723641404858"><ele>646.0</ele><time>2026-04-14T10:55:10Z</time></trkpt><trkpt lat="38.009925313781025" lon="15.749862367234774"><ele>643.6666666666667</ele><time>2026-04-14T10:55:12Z</time></trkpt><trkpt lat="38.00988343025786" lon="15.74996413635862"><ele>641.3333333333334</ele><time>2026-04-14T10:55:13Z</time></trkpt><trkpt lat="38.0098352761605" lon="15.750039192624435"><ele>639.0</ele><time>2026-04-14T10:55:14Z</time></trkpt><trkpt lat="38.00978190573698" lon="15.750092130217949"><ele>636.6666666666666</ele><time>2026-04-14T10:55:15Z</time></trkpt><trkpt lat="38.00972788651962" lon="15.750140648431"><ele>634.3333333333333</ele><time>2026-04-14T10:55:16Z</time></trkpt><trkpt lat="38.00966214042349" lon="15.75018431117584"><ele>632.0</ele><time>2026-04-14T10:55:17Z</time></trkpt><trkpt lat="38.009588617424626" lon="15.750302017542966"><ele>632.0</ele><time>2026-04-14T10:55:19Z</time></trkpt><trkpt lat="38.00950989737575" lon="15.750370204098713"><ele>632.0</ele><time>2026-04-14T10:55:21Z</time></trkpt><trkpt lat="38.00943860282262" lon="15.750364499654248"><ele>632.0</ele><time>2026-04-14T10:55:23Z</time></trkpt><trkpt lat="38.00937073464312" lon="15.750187433930435"><ele>632.0</ele><time>2026-04-14T10:55:24Z</time></trkpt><trkpt lat="38.00927844759762" lon="15.750085720710148"><ele>632.0</ele><time>2026-04-14T10:55:26Z</time></trkpt><trkpt lat="38.00919484550101" lon="15.749991976937158"><ele>627.2</ele><time>2026-04-14T10:55:28Z</time></trkpt><trkpt lat="38.00911796205923" lon="15.749937875055483"><ele>622.4000000000001</ele><time>2026-04-14T10:55:30Z</time></trkpt><trkpt lat="38.009037001024794" lon="15.749872676943854"><ele>617.5999999999999</ele><time>2026-04-14T10:55:32Z</time></trkpt><trkpt lat="38.008950335163576" lon="15.749814602579875"><ele>612.8</ele><time>2026-04-14T10:55:34Z</time></trkpt><trkpt lat="38.00890065820775" lon="15.749943035880463"><ele>608.0</ele><time>2026-04-14T10:55:36Z</time></trkpt><trkpt lat="38.008944060825314" lon="15.750030661679062"><ele>608.0</ele><time>2026-04-14T10:55:37Z</time></trkpt><trkpt lat="38.0089452227004" lon="15.750147838894375"><ele>608.0</ele><time>2026-04-14T10:55:38Z</time></trkpt><trkpt lat="38.00895284351168" lon="15.750246488969763"><ele>608.0</ele><time>2026-04-14T10:55:39Z</time></trkpt><trkpt lat="38.008956353296696" lon="15.750341894765148"><ele>608.0</ele><time>2026-04-14T10:55:40Z</time></trkpt><trkpt lat="38.00894281465633" lon="15.750477286857294"><ele>608.0</ele><time>2026-04-14T10:55:42Z</time></trkpt><trkpt lat="38.00889420620171" lon="15.750532153029098"><ele>608.0</ele><time>2026-04-14T10:55:43Z</time></trkpt><trkpt lat="38.008822099287286" lon="15.750610917255178"><ele>604.8</ele><time>2026-04-14T10:55:45Z</time></trkpt><trkpt lat="38.008759815685785" lon="15.750480427041788"><ele>601.5999999999999</ele><time>2026-04-14T10:55:47Z</time></trkpt><trkpt lat="38.00867730452255" lon="15.750383234649867"><ele>598.4000000000001</ele><time>2026-04-14T10:55:49Z</time></trkpt><trkpt lat="38.008567952021956" lon="15.750396948426754"><ele>595.2</ele><time>2026-04-14T10:55:51Z</time></trkpt><trkpt lat="38.00849885729006" lon="15.75046789342223"><ele>592.0</ele><time>2026-04-14T10:55:53Z</time></trkpt><trkpt lat="38.00852042693505" lon="15.750561076665985"><ele>592.0</ele><time>2026-04-14T10:55:54Z</time></trkpt><trkpt lat="38.00859479211139" lon="15.750631699329395"><ele>592.0</ele><time>2026-04-14T10:55:55Z</time></trkpt><trkpt lat="38.0086142348821" lon="15.750726241152726"><ele>592.0</ele><time>2026-04-14T10:55:56Z</time></trkpt><trkpt lat="38.00855823440231" lon="15.75083465717942"><ele>592.0</ele><time>2026-04-14T10:55:57Z</time></trkpt><trkpt lat="38.00856438829425" lon="15.750924663244382"><ele>592.0</ele><time>2026-04-14T10:55:58Z</time></trkpt><trkpt lat="38.00862415773633" lon="15.75102389605387"><ele>592.0</ele><time>2026-04-14T10:55:59Z</time></trkpt><trkpt lat="38.008654588479814" lon="15.75109601518863"><ele>589.6666666666667</ele><time>2026-04-14T10:56:00Z</time></trkpt><trkpt lat="38.00868290562692" lon="15.751193113788364"><ele>587.3333333333334</ele><time>2026-04-14T10:56:01Z</time></trkpt><trkpt lat="38.008709623808336" lon="15.751294171535976"><ele>585.0</ele><time>2026-04-14T10:56:02Z</time></trkpt><trkpt lat="38.00874839979275" lon="15.751399139764686"><ele>582.6666666666666</ele><time>2026-04-14T10:56:03Z</time></trkpt><trkpt lat="38.00880237226477" lon="15.75149796635202"><ele>580.3333333333333</ele><time>2026-04-14T10:56:04Z</time></trkpt><trkpt lat="38.0088477524956" lon="15.751584453242176"><ele>578.0</ele><time>2026-04-14T10:56:05Z</time></trkpt><trkpt lat="38.00887447055448" lon="15.751659967755042"><ele>578.0</ele><time>2026-04-14T10:56:06Z</time></trkpt><trkpt lat="38.0088747069414" lon="15.75174237520467"><ele>578.0</ele><time>2026-04-14T10:56:07Z</time></trkpt><trkpt lat="38.00880831389543" lon="15.751797776389907"><ele>578.0</ele><time>2026-04-14T10:56:08Z</time></trkpt><trkpt lat="38.008747325895165" lon="15.751836751175961"><ele>578.0</ele><time>2026-04-14T10:56:09Z</time></trkpt><trkpt lat="38.008664392558416" lon="15.751828690379885"><ele>578.0</ele><time>2026-04-14T10:56:10Z</time></trkpt><trkpt lat="38.008592649804264" lon="15.751795494552542"><ele>578.0</ele><time>2026-04-14T10:56:11Z</time></trkpt><trkpt lat="38.00852682886498" lon="15.751663268208553"><ele>578.0</ele><time>2026-04-14T10:56:13Z</time></trkpt><trkpt lat="38.008461296398096" lon="15.751589497267117"><ele>578.0</ele><time>2026-04-14T10:56:14Z</time></trkpt><trkpt lat="38.00838802311429" lon="15.751499523592866"><ele>578.0</ele><time>2026-04-14T10:56:15Z</time></trkpt><trkpt lat="38.008323197707995" lon="15.751392702663917"><ele>578.0</ele><time>2026-04-14T10:56:16Z</time></trkpt><trkpt lat="38.00826039452572" lon="15.751289445802982"><ele>578.0</ele><time>2026-04-14T10:56:17Z</time></trkpt><trkpt lat="38.00818353795854" lon="15.751218381470032"><ele>577.6</ele><time>2026-04-14T10:56:18Z</time></trkpt><trkpt lat="38.00812177248962" lon="15.751136243346275"><ele>577.1999999999999</ele><time>2026-04-14T10:56:19Z</time></trkpt><trkpt lat="38.00803964184457" lon="15.75107696136081"><ele>576.8</ele><time>2026-04-14T10:56:20Z</time></trkpt><trkpt lat="38.00798479976596" lon="15.750986242247357"><ele>576.4</ele><time>2026-04-14T10:56:21Z</time></trkpt><trkpt lat="38.007932789311674" lon="15.75088882129153"><ele>576.0</ele><time>2026-04-14T10:56:22Z</time></trkpt><trkpt lat="38.00789233596516" lon="15.750782086348016"><ele>576.0</ele><time>2026-04-14T10:56:23Z</time></trkpt><trkpt lat="38.007840862958794" lon="15.750683102788996"><ele>576.0</ele><time>2026-04-14T10:56:24Z</time></trkpt><trkpt lat="38.00780684604773" lon="15.750571928241833"><ele>576.0</ele><time>2026-04-14T10:56:25Z</time></trkpt><trkpt lat="38.00776598218475" lon="15.75048182042319"><ele>576.0</ele><time>2026-04-14T10:56:26Z</time></trkpt><trkpt lat="38.00770504531001" lon="15.75041320582225"><ele>576.0</ele><time>2026-04-14T10:56:27Z</time></trkpt><trkpt lat="38.00763976249685" lon="15.750358846810846"><ele>576.0</ele><time>2026-04-14T10:56:28Z</time></trkpt><trkpt lat="38.007598438457784" lon="15.750275404038902"><ele>577.8333333333334</ele><time>2026-04-14T10:56:29Z</time></trkpt><trkpt lat="38.00755733976584" lon="15.750202504775457"><ele>579.6666666666666</ele><time>2026-04-14T10:56:30Z</time></trkpt><trkpt lat="38.007505953916194" lon="15.750124983328664"><ele>581.5</ele><time>2026-04-14T10:56:31Z</time></trkpt><trkpt lat="38.00744202729432" lon="15.750076423668528"><ele>583.3333333333333</ele><time>2026-04-14T10:56:32Z</time></trkpt><trkpt lat="38.00735335269485" lon="15.750087346212265"><ele>585.1666666666666</ele><time>2026-04-14T10:56:33Z</time></trkpt><trkpt lat="38.0072577860681" lon="15.750148109002062"><ele>587.0</ele><time>2026-04-14T10:56:35Z</time></trkpt><trkpt lat="38.00725897194272" lon="15.750264344506373"><ele>592.75</ele><time>2026-04-14T10:56:36Z</time></trkpt><trkpt lat="38.00728051552697" lon="15.750392940041584"><ele>598.5</ele><time>2026-04-14T10:56:37Z</time></trkpt><trkpt lat="38.00729423807417" lon="15.750543985052605"><ele>604.25</ele><time>2026-04-14T10:56:38Z</time></trkpt><trkpt lat="38.007305703603905" lon="15.750701496297784"><ele>610.0</ele><time>2026-04-14T10:56:39Z</time></trkpt><trkpt lat="38.00730066463449" lon="15.7508517167342"><ele>610.0</ele><time>2026-04-14T10:56:40Z</time></trkpt><trkpt lat="38.007265972313135" lon="15.750990338630547"><ele>610.0</ele><time>2026-04-14T10:56:41Z</time></trkpt><trkpt lat="38.00726810820655" lon="15.751126446813668"><ele>610.0</ele><time>2026-04-14T10:56:42Z</time></trkpt><trkpt lat="38.00727116061699" lon="15.751258998235702"><ele>610.0</ele><time>2026-04-14T10:56:43Z</time></trkpt><trkpt lat="38.00728233813082" lon="15.751407332754479"><ele>610.0</ele><time>2026-04-14T10:56:44Z</time></trkpt><trkpt lat="38.00730408579765" lon="15.751569550644689"><ele>603.25</ele><time>2026-04-14T10:56:45Z</time></trkpt><trkpt lat="38.00733419261356" lon="15.7517259461369"><ele>596.5</ele><time>2026-04-14T10:56:46Z</time></trkpt><trkpt lat="38.0073684858782" lon="15.75186635278458"><ele>589.75</ele><time>2026-04-14T10:56:47Z</time></trkpt><trkpt lat="38.007401600251974" lon="15.752002671938907"><ele>583.0</ele><time>2026-04-14T10:56:48Z</time></trkpt><trkpt lat="38.00745834438116" lon="15.752191946179297"><ele>578.1999999999999</ele><time>2026-04-14T10:56:49Z</time></trkpt><trkpt lat="38.007497594842896" lon="15.752317895979656"><ele>573.4</ele><time>2026-04-14T10:56:50Z</time></trkpt><trkpt lat="38.007534671313586" lon="15.752438008293526"><ele>568.5999999999999</ele><time>2026-04-14T10:56:51Z</time></trkpt><trkpt lat="38.007568942023255" lon="15.752544869264403"><ele>563.8</ele><time>2026-04-14T10:56:52Z</time></trkpt><trkpt lat="38.00757360352916" lon="15.75264938367918"><ele>559.0</ele><time>2026-04-14T10:56:53Z</time></trkpt><trkpt lat="38.00756549841156" lon="15.752747072526402"><ele>558.8</ele><time>2026-04-14T10:56:54Z</time></trkpt><trkpt lat="38.00754790539988" lon="15.75286389656516"><ele>558.5999999999999</ele><time>2026-04-14T10:56:55Z</time></trkpt><trkpt lat="38.007519478593935" lon="15.752988995683115"><ele>558.4</ele><time>2026-04-14T10:56:56Z</time></trkpt><trkpt lat="38.00748346186378" lon="15.75311769352096"><ele>558.1999999999999</ele><time>2026-04-14T10:56:57Z</time></trkpt><trkpt lat="38.00744953856813" lon="15.753238721790908"><ele>558.0</ele><time>2026-04-14T10:56:58Z</time></trkpt><trkpt lat="38.007430101263935" lon="15.753351109194448"><ele>558.0</ele><time>2026-04-14T10:56:59Z</time></trkpt><trkpt lat="38.00739549891676" lon="15.753460323822527"><ele>558.0</ele><time>2026-04-14T10:57:00Z</time></trkpt><trkpt lat="38.00736999988429" lon="15.753591549228618"><ele>558.0</ele><time>2026-04-14T10:57:01Z</time></trkpt><trkpt lat="38.007349108290924" lon="15.753745245138697"><ele>558.0</ele><time>2026-04-14T10:57:02Z</time></trkpt><trkpt lat="38.00731887556677" lon="15.753906980171312"><ele>555.0</ele><time>2026-04-14T10:57:03Z</time></trkpt><trkpt lat="38.00728495107026" lon="15.754068517138192"><ele>552.0</ele><time>2026-04-14T10:57:04Z</time></trkpt><trkpt lat="38.00725422362516" lon="15.754231266722861"><ele>549.0</ele><time>2026-04-14T10:57:05Z</time></trkpt><trkpt lat="38.00721231658461" lon="15.75439061980454"><ele>546.0</ele><time>2026-04-14T10:57:06Z</time></trkpt><trkpt lat="38.007175467663416" lon="15.75455177933395"><ele>543.5</ele><time>2026-04-14T10:57:07Z</time></trkpt><trkpt lat="38.007140620575974" lon="15.754714225961665"><ele>541.0</ele><time>2026-04-14T10:57:08Z</time></trkpt><trkpt lat="38.00710771503786" lon="15.7548766552935"><ele>538.5</ele><time>2026-04-14T10:57:09Z</time></trkpt><trkpt lat="38.00708244902891" lon="15.755042767633514"><ele>536.0</ele><time>2026-04-14T10:57:10Z</time></trkpt><trkpt lat="38.0070633133643" lon="15.755207554241526"><ele>534.25</ele><time>2026-04-14T10:57:11Z</time></trkpt><trkpt lat="38.00704086877207" lon="15.755372707524549"><ele>532.5</ele><time>2026-04-14T10:57:12Z</time></trkpt><trkpt lat="38.007013631936054" lon="15.75553718457911"><ele>530.75</ele><time>2026-04-14T10:57:13Z</time></trkpt><trkpt lat="38.006979389061364" lon="15.755697304020995"><ele>529.0</ele><time>2026-04-14T10:57:14Z</time></trkpt><trkpt lat="38.00694053687143" lon="15.75586439135516"><ele>529.0</ele><time>2026-04-14T10:57:15Z</time></trkpt><trkpt lat="38.0069040925114" lon="15.756029459336709"><ele>529.0</ele><time>2026-04-14T10:57:16Z</time></trkpt><trkpt lat="38.00686312406054" lon="15.756200964747155"><ele>529.0</ele><time>2026-04-14T10:57:17Z</time></trkpt><trkpt lat="38.006822435145715" lon="15.756369822435191"><ele>529.0</ele><time>2026-04-14T10:57:18Z</time></trkpt><trkpt lat="38.00678146478979" lon="15.756531609181826"><ele>527.0</ele><time>2026-04-14T10:57:19Z</time></trkpt><trkpt lat="38.00673885442843" lon="15.756685666581832"><ele>525.0</ele><time>2026-04-14T10:57:20Z</time></trkpt><trkpt lat="38.006685052560314" lon="15.756832901238477"><ele>523.0</ele><time>2026-04-14T10:57:21Z</time></trkpt><trkpt lat="38.00662765590141" lon="15.75695816158417"><ele>521.0</ele><time>2026-04-14T10:57:22Z</time></trkpt><trkpt lat="38.00657487518985" lon="15.757057046195643"><ele>520.6</ele><time>2026-04-14T10:57:23Z</time></trkpt><trkpt lat="38.0065365210108" lon="15.757127285565472"><ele>520.2</ele><time>2026-04-14T10:57:24Z</time></trkpt><trkpt lat="38.006492910128486" lon="15.757198003047737"><ele>519.8</ele><time>2026-04-14T10:57:27Z</time></trkpt><trkpt lat="38.006615747858" lon="15.757317851748954"><ele>519.4</ele><time>2026-04-14T10:57:28Z</time></trkpt><trkpt lat="38.00668919112364" lon="15.757378847536465"><ele>519.0</ele><time>2026-04-14T10:57:30Z</time></trkpt><trkpt lat="38.00676332142099" lon="15.757417363813273"><ele>518.0</ele><time>2026-04-14T10:57:33Z</time></trkpt><trkpt lat="38.006831350642656" lon="15.757289154204809"><ele>517.0</ele><time>2026-04-14T10:57:35Z</time></trkpt><trkpt lat="38.006895906771355" lon="15.75723566207717"><ele>516.0</ele><time>2026-04-14T10:57:44Z</time></trkpt><trkpt lat="38.00680592678738" lon="15.75747613167005"><ele>515.0</ele><time>2026-04-14T10:57:45Z</time></trkpt><trkpt lat="38.006749635783486" lon="15.757539862203831"><ele>515.0</ele><time>2026-04-14T10:57:47Z</time></trkpt><trkpt lat="38.006705206017244" lon="15.757599785218593"><ele>515.0</ele><time>2026-04-14T10:57:49Z</time></trkpt><trkpt lat="38.00666130482087" lon="15.757723999534953"><ele>515.0</ele><time>2026-04-14T10:57:52Z</time></trkpt><trkpt lat="38.00660182492845" lon="15.757783919886325"><ele>515.0</ele><time>2026-04-14T10:57:54Z</time></trkpt><trkpt lat="38.00653893736675" lon="15.757852913250803"><ele>515.0</ele><time>2026-04-14T10:57:56Z</time></trkpt><trkpt lat="38.006519032199705" lon="15.757950815146259"><ele>515.0</ele><time>2026-04-14T10:57:58Z</time></trkpt><trkpt lat="38.006490031085775" lon="15.758064494842673"><ele>514.5</ele><time>2026-04-14T10:58:00Z</time></trkpt><trkpt lat="38.00645185839843" lon="15.758153335599486"><ele>514.0</ele><time>2026-04-14T10:58:02Z</time></trkpt><trkpt lat="38.00641570999269" lon="15.758244629667415"><ele>513.5</ele><time>2026-04-14T10:58:04Z</time></trkpt><trkpt lat="38.00636590144669" lon="15.758329831823142"><ele>513.0</ele><time>2026-04-14T10:58:06Z</time></trkpt><trkpt lat="38.006296485229726" lon="15.758434441123288"><ele>512.5</ele><time>2026-04-14T10:58:09Z</time></trkpt><trkpt lat="38.006246972539294" lon="15.758508815358198"><ele>512.0</ele><time>2026-04-14T10:58:11Z</time></trkpt><trkpt lat="38.00622568351121" lon="15.758598337933877"><ele>510.8</ele><time>2026-04-14T10:58:13Z</time></trkpt><trkpt lat="38.00616225101804" lon="15.758728304932609"><ele>509.6</ele><time>2026-04-14T10:58:16Z</time></trkpt><trkpt lat="38.00609810650275" lon="15.758816374121938"><ele>508.40000000000003</ele><time>2026-04-14T10:58:18Z</time></trkpt><trkpt lat="38.00603924253978" lon="15.758887900061245"><ele>507.20000000000005</ele><time>2026-04-14T10:58:20Z</time></trkpt><trkpt lat="38.00596094046035" lon="15.75899060931763"><ele>506.0</ele><time>2026-04-14T10:58:22Z</time></trkpt><trkpt lat="38.005881656407624" lon="15.759066386930172"><ele>505.99999999999994</ele><time>2026-04-14T10:58:24Z</time></trkpt><trkpt lat="38.005829680583304" lon="15.759151444089035"><ele>506.0</ele><time>2026-04-14T10:58:26Z</time></trkpt><trkpt lat="38.00577470211037" lon="15.759259487067391"><ele>506.0</ele><time>2026-04-14T10:58:28Z</time></trkpt><trkpt lat="38.00571406544992" lon="15.759361044737624"><ele>506.0</ele><time>2026-04-14T10:58:30Z</time></trkpt><trkpt lat="38.00567616368833" lon="15.75945245824873"><ele>505.99999999999994</ele><time>2026-04-14T10:58:32Z</time></trkpt><trkpt lat="38.005628092244876" lon="15.759522354466762"><ele>506.0</ele><time>2026-04-14T10:58:34Z</time></trkpt><trkpt lat="38.005525987935194" lon="15.759606304950587"><ele>504.0</ele><time>2026-04-14T10:58:36Z</time></trkpt><trkpt lat="38.00540022847334" lon="15.759667493452861"><ele>502.0</ele><time>2026-04-14T10:58:38Z</time></trkpt><trkpt lat="38.00530547126138" lon="15.75977153671795"><ele>500.0</ele><time>2026-04-14T10:58:40Z</time></trkpt><trkpt lat="38.005266492469076" lon="15.759837207494973"><ele>498.0</ele><time>2026-04-14T10:58:41Z</time></trkpt><trkpt lat="38.00523128785381" lon="15.75990931809258"><ele>496.0</ele><time>2026-04-14T10:58:42Z</time></trkpt><trkpt lat="38.00518595253306" lon="15.760025030190556"><ele>496.0</ele><time>2026-04-14T10:58:44Z</time></trkpt><trkpt lat="38.0051041362671" lon="15.76012441977198"><ele>496.0</ele><time>2026-04-14T10:58:46Z</time></trkpt><trkpt lat="38.00504660982737" lon="15.760165621452991"><ele>496.0</ele><time>2026-04-14T10:58:47Z</time></trkpt><trkpt lat="38.00495631864537" lon="15.760267943360793"><ele>496.0</ele><time>2026-04-14T10:58:49Z</time></trkpt><trkpt lat="38.00490122023836" lon="15.760393487593896"><ele>496.0</ele><time>2026-04-14T10:58:51Z</time></trkpt><trkpt lat="38.004844090260605" lon="15.76049522723491"><ele>496.0</ele><time>2026-04-14T10:58:53Z</time></trkpt><trkpt lat="38.004800286546065" lon="15.760552768749475"><ele>496.0</ele><time>2026-04-14T10:58:54Z</time></trkpt><trkpt lat="38.00474478396797" lon="15.760613003425425"><ele>496.0</ele><time>2026-04-14T10:58:55Z</time></trkpt><trkpt lat="38.0046992217779" lon="15.760673634752697"><ele>496.0</ele><time>2026-04-14T10:58:56Z</time></trkpt><trkpt lat="38.004617899658435" lon="15.760772906424613"><ele>496.0</ele><time>2026-04-14T10:58:58Z</time></trkpt><trkpt lat="38.00453708284713" lon="15.760916973681274"><ele>496.00000000000006</ele><time>2026-04-14T10:59:00Z</time></trkpt><trkpt lat="38.00449626540978" lon="15.760997020392324"><ele>496.0</ele><time>2026-04-14T10:59:01Z</time></trkpt><trkpt lat="38.00445786094623" lon="15.76107834301494"><ele>496.0</ele><time>2026-04-14T10:59:02Z</time></trkpt><trkpt lat="38.00442913337261" lon="15.761172078007903"><ele>496.0</ele><time>2026-04-14T10:59:03Z</time></trkpt><trkpt lat="38.00441116378368" lon="15.761258973175316"><ele>496.00000000000006</ele><time>2026-04-14T10:59:04Z</time></trkpt><trkpt lat="38.004347545646816" lon="15.761400329911886"><ele>496.0</ele><time>2026-04-14T10:59:06Z</time></trkpt><trkpt lat="38.00429375103381" lon="15.761452003413954"><ele>493.6</ele><time>2026-04-14T10:59:07Z</time></trkpt><trkpt lat="38.004230611134005" lon="15.761512269490416"><ele>491.20000000000005</ele><time>2026-04-14T10:59:08Z</time></trkpt><trkpt lat="38.00417278912632" lon="15.761565067056454"><ele>488.79999999999995</ele><time>2026-04-14T10:59:09Z</time></trkpt><trkpt lat="38.004044131632334" lon="15.761625717774299"><ele>486.4</ele><time>2026-04-14T10:59:11Z</time></trkpt><trkpt lat="38.00395386313318" lon="15.761644305035144"><ele>484.0</ele><time>2026-04-14T10:59:12Z</time></trkpt><trkpt lat="38.00386579369451" lon="15.761667128329915"><ele>483.1666666666667</ele><time>2026-04-14T10:59:13Z</time></trkpt><trkpt lat="38.0037830157372" lon="15.761693536906044"><ele>482.33333333333337</ele><time>2026-04-14T10:59:14Z</time></trkpt><trkpt lat="38.00370602691755" lon="15.761718998522495"><ele>481.5</ele><time>2026-04-14T10:59:15Z</time></trkpt><trkpt lat="38.003630913384875" lon="15.761736323110632"><ele>480.66666666666663</ele><time>2026-04-14T10:59:16Z</time></trkpt><trkpt lat="38.003528417840954" lon="15.761775043079952"><ele>479.8333333333333</ele><time>2026-04-14T10:59:18Z</time></trkpt><trkpt lat="38.00354797761974" lon="15.761861255599237"><ele>479.0</ele><time>2026-04-14T10:59:22Z</time></trkpt><trkpt lat="38.00362510571337" lon="15.761849944440275"><ele>478.99999999999994</ele><time>2026-04-14T10:59:24Z</time></trkpt><trkpt lat="38.00369561450325" lon="15.761860923822502"><ele>479.0</ele><time>2026-04-14T10:59:25Z</time></trkpt><trkpt lat="38.00376705909661" lon="15.761894212117534"><ele>479.0</ele><time>2026-04-14T10:59:26Z</time></trkpt><trkpt lat="38.00383948138116" lon="15.761938781321673"><ele>479.0</ele><time>2026-04-14T10:59:27Z</time></trkpt><trkpt lat="38.003917594181196" lon="15.761990379755375"><ele>478.99999999999994</ele><time>2026-04-14T10:59:28Z</time></trkpt><trkpt lat="38.003997971163976" lon="15.762040442779046"><ele>479.0</ele><time>2026-04-14T10:59:29Z</time></trkpt><trkpt lat="38.004074517976136" lon="15.762079252088494"><ele>478.8333333333333</ele><time>2026-04-14T10:59:30Z</time></trkpt><trkpt lat="38.004146619741576" lon="15.762099592080226"><ele>478.66666666666663</ele><time>2026-04-14T10:59:31Z</time></trkpt><trkpt lat="38.004222680921174" lon="15.762110695868985"><ele>478.5</ele><time>2026-04-14T10:59:32Z</time></trkpt><trkpt lat="38.0043039511545" lon="15.762117687542014"><ele>478.33333333333337</ele><time>2026-04-14T10:59:33Z</time></trkpt><trkpt lat="38.00438641180737" lon="15.762116763752147"><ele>478.1666666666667</ele><time>2026-04-14T10:59:34Z</time></trkpt><trkpt lat="38.00446849709783" lon="15.762119174253298"><ele>478.0</ele><time>2026-04-14T10:59:35Z</time></trkpt><trkpt lat="38.00454855779026" lon="15.762149242993399"><ele>479.4</ele><time>2026-04-14T10:59:36Z</time></trkpt><trkpt lat="38.00462370679034" lon="15.762213850895995"><ele>480.79999999999995</ele><time>2026-04-14T10:59:37Z</time></trkpt><trkpt lat="38.00469998656109" lon="15.762288398400358"><ele>482.2</ele><time>2026-04-14T10:59:38Z</time></trkpt><trkpt lat="38.0047735360941" lon="15.76236136804184"><ele>483.6</ele><time>2026-04-14T10:59:39Z</time></trkpt><trkpt lat="38.0048585331566" lon="15.762411427954879"><ele>485.0</ele><time>2026-04-14T10:59:40Z</time></trkpt><trkpt lat="38.00495087913131" lon="15.762447486209085"><ele>486.6</ele><time>2026-04-14T10:59:41Z</time></trkpt><trkpt lat="38.00503172843424" lon="15.762466169957857"><ele>488.2</ele><time>2026-04-14T10:59:42Z</time></trkpt><trkpt lat="38.00511735750409" lon="15.762485184733942"><ele>489.79999999999995</ele><time>2026-04-14T10:59:43Z</time></trkpt><trkpt lat="38.00520569621929" lon="15.762511896399538"><ele>491.4</ele><time>2026-04-14T10:59:44Z</time></trkpt><trkpt lat="38.005298537542" lon="15.762544119332562"><ele>493.0</ele><time>2026-04-14T10:59:45Z</time></trkpt><trkpt lat="38.00539547426175" lon="15.762582515258524"><ele>493.0</ele><time>2026-04-14T10:59:46Z</time></trkpt><trkpt lat="38.00546548495837" lon="15.762641850419374"><ele>492.99999999999994</ele><time>2026-04-14T10:59:47Z</time></trkpt><trkpt lat="38.00555647882363" lon="15.76270737656183"><ele>492.99999999999994</ele><time>2026-04-14T10:59:48Z</time></trkpt><trkpt lat="38.00565820676183" lon="15.762766329409718"><ele>493.0</ele><time>2026-04-14T10:59:49Z</time></trkpt><trkpt lat="38.0057598375596" lon="15.762845886138722"><ele>493.0</ele><time>2026-04-14T10:59:50Z</time></trkpt><trkpt lat="38.00586735395844" lon="15.762912677474537"><ele>494.79999999999995</ele><time>2026-04-14T10:59:51Z</time></trkpt><trkpt lat="38.005972800188346" lon="15.76297941690172"><ele>496.59999999999997</ele><time>2026-04-14T10:59:52Z</time></trkpt><trkpt lat="38.00606738157095" lon="15.763041135432838"><ele>498.40000000000003</ele><time>2026-04-14T10:59:53Z</time></trkpt><trkpt lat="38.00615896048012" lon="15.763106917278217"><ele>500.20000000000005</ele><time>2026-04-14T10:59:54Z</time></trkpt><trkpt lat="38.00624117948666" lon="15.763183919171015"><ele>502.0</ele><time>2026-04-14T10:59:55Z</time></trkpt><trkpt lat="38.006332989091845" lon="15.76324333377018"><ele>502.0</ele><time>2026-04-14T10:59:56Z</time></trkpt><trkpt lat="38.00640570364545" lon="15.7633223554002"><ele>502.00000000000006</ele><time>2026-04-14T10:59:57Z</time></trkpt><trkpt lat="38.00651122240182" lon="15.763406618084751"><ele>502.00000000000006</ele><time>2026-04-14T10:59:59Z</time></trkpt><trkpt lat="38.006569313221405" lon="15.763485126113393"><ele>502.0</ele><time>2026-04-14T11:00:00Z</time></trkpt><trkpt lat="38.00661880389026" lon="15.763544339840564"><ele>502.0</ele><time>2026-04-14T11:00:01Z</time></trkpt><trkpt lat="38.006677012344916" lon="15.763717340560182"><ele>505.40000000000003</ele><time>2026-04-14T11:00:02Z</time></trkpt><trkpt lat="38.006760244802585" lon="15.763773791788914"><ele>508.80000000000007</ele><time>2026-04-14T11:00:03Z</time></trkpt><trkpt lat="38.006873635557056" lon="15.763838344908914"><ele>512.2</ele><time>2026-04-14T11:00:04Z</time></trkpt><trkpt lat="38.006978010117614" lon="15.76386512945396"><ele>515.6</ele><time>2026-04-14T11:00:05Z</time></trkpt><trkpt lat="38.00705537821355" lon="15.763888479369827"><ele>519.0</ele><time>2026-04-14T11:00:06Z</time></trkpt><trkpt lat="38.00716685143163" lon="15.763816527043055"><ele>519.0</ele><time>2026-04-14T11:00:07Z</time></trkpt><trkpt lat="38.007238505444946" lon="15.763942121757713"><ele>519.0</ele><time>2026-04-14T11:00:08Z</time></trkpt><trkpt lat="38.007315939269084" lon="15.764066908663855"><ele>519.0</ele><time>2026-04-14T11:00:09Z</time></trkpt><trkpt lat="38.00740648247345" lon="15.764177424090411"><ele>519.0</ele><time>2026-04-14T11:00:10Z</time></trkpt><trkpt lat="38.00750277671565" lon="15.764288489084906"><ele>521.5</ele><time>2026-04-14T11:00:11Z</time></trkpt><trkpt lat="38.00759657020194" lon="15.764396906560453"><ele>524.0</ele><time>2026-04-14T11:00:12Z</time></trkpt><trkpt lat="38.00768997777748" lon="15.764502406946248"><ele>526.5</ele><time>2026-04-14T11:00:13Z</time></trkpt><trkpt lat="38.007782189443155" lon="15.76460578369627"><ele>529.0</ele><time>2026-04-14T11:00:14Z</time></trkpt><trkpt lat="38.007872097312585" lon="15.764708789395714"><ele>529.0</ele><time>2026-04-14T11:00:15Z</time></trkpt><trkpt lat="38.00796069589466" lon="15.764807703528202"><ele>529.0</ele><time>2026-04-14T11:00:16Z</time></trkpt><trkpt lat="38.00805046467838" lon="15.764906309589703"><ele>529.0</ele><time>2026-04-14T11:00:17Z</time></trkpt><trkpt lat="38.00814122124123" lon="15.76500059706539"><ele>529.0</ele><time>2026-04-14T11:00:18Z</time></trkpt><trkpt lat="38.00823545315404" lon="15.765089173256312"><ele>529.0</ele><time>2026-04-14T11:00:19Z</time></trkpt><trkpt lat="38.00832798229913" lon="15.765179878493294"><ele>529.0</ele><time>2026-04-14T11:00:20Z</time></trkpt><trkpt lat="38.008414058651724" lon="15.765275775999315"><ele>529.0</ele><time>2026-04-14T11:00:21Z</time></trkpt><trkpt lat="38.00850416053435" lon="15.765364549390503"><ele>529.0</ele><time>2026-04-14T11:00:22Z</time></trkpt><trkpt lat="38.00859910258383" lon="15.765459128029798"><ele>530.75</ele><time>2026-04-14T11:00:23Z</time></trkpt><trkpt lat="38.008692226625044" lon="15.765554467399891"><ele>532.5</ele><time>2026-04-14T11:00:24Z</time></trkpt><trkpt lat="38.00878775560833" lon="15.765650747129794"><ele>534.25</ele><time>2026-04-14T11:00:25Z</time></trkpt><trkpt lat="38.008884259613424" lon="15.765749059785923"><ele>536.0</ele><time>2026-04-14T11:00:26Z</time></trkpt><trkpt lat="38.00897999166792" lon="15.765851099374657"><ele>536.0</ele><time>2026-04-14T11:00:27Z</time></trkpt><trkpt lat="38.00907684845558" lon="15.765946712318351"><ele>536.0</ele><time>2026-04-14T11:00:28Z</time></trkpt><trkpt lat="38.00917204211273" lon="15.766036596368012"><ele>536.0</ele><time>2026-04-14T11:00:29Z</time></trkpt><trkpt lat="38.009264332262795" lon="15.766131461543365"><ele>536.0</ele><time>2026-04-14T11:00:30Z</time></trkpt><trkpt lat="38.00936128369869" lon="15.766225130922514"><ele>538.25</ele><time>2026-04-14T11:00:31Z</time></trkpt><trkpt lat="38.009455383977304" lon="15.766327623420835"><ele>540.5</ele><time>2026-04-14T11:00:32Z</time></trkpt><trkpt lat="38.009552946201566" lon="15.766432142895013"><ele>542.75</ele><time>2026-04-14T11:00:33Z</time></trkpt><trkpt lat="38.00966224058168" lon="15.766543041261393"><ele>545.0</ele><time>2026-04-14T11:00:34Z</time></trkpt><trkpt lat="38.009776435242706" lon="15.76665378032396"><ele>545.0</ele><time>2026-04-14T11:00:35Z</time></trkpt><trkpt lat="38.00988991868082" lon="15.766764773242189"><ele>545.0</ele><time>2026-04-14T11:00:36Z</time></trkpt><trkpt lat="38.01000018720933" lon="15.766865681146815"><ele>545.0</ele><time>2026-04-14T11:00:37Z</time></trkpt><trkpt lat="38.01010316297558" lon="15.766948055278728"><ele>545.0</ele><time>2026-04-14T11:00:38Z</time></trkpt><trkpt lat="38.01020756519642" lon="15.767034000379219"><ele>548.5</ele><time>2026-04-14T11:00:39Z</time></trkpt><trkpt lat="38.010306365894856" lon="15.76714184384546"><ele>552.0</ele><time>2026-04-14T11:00:40Z</time></trkpt><trkpt lat="38.010406537888805" lon="15.767263897957353"><ele>555.5</ele><time>2026-04-14T11:00:41Z</time></trkpt><trkpt lat="38.01050605534269" lon="15.767382414498499"><ele>559.0</ele><time>2026-04-14T11:00:42Z</time></trkpt><trkpt lat="38.01060866826359" lon="15.767502135707614"><ele>559.0</ele><time>2026-04-14T11:00:43Z</time></trkpt><trkpt lat="38.010710687904364" lon="15.767626302466807"><ele>559.0</ele><time>2026-04-14T11:00:44Z</time></trkpt><trkpt lat="38.01080375602201" lon="15.76774423466914"><ele>559.0</ele><time>2026-04-14T11:00:45Z</time></trkpt><trkpt lat="38.01090788260566" lon="15.76786296745231"><ele>559.0</ele><time>2026-04-14T11:00:46Z</time></trkpt><trkpt lat="38.0110017018915" lon="15.767978152786478"><ele>561.0</ele><time>2026-04-14T11:00:47Z</time></trkpt><trkpt lat="38.01110660481452" lon="15.768100885840274"><ele>563.0</ele><time>2026-04-14T11:00:48Z</time></trkpt><trkpt lat="38.01121884159187" lon="15.768214289556251"><ele>565.0</ele><time>2026-04-14T11:00:49Z</time></trkpt><trkpt lat="38.01133730637851" lon="15.768328191899561"><ele>567.0</ele><time>2026-04-14T11:00:50Z</time></trkpt><trkpt lat="38.01145268318017" lon="15.76844956794341"><ele>570.75</ele><time>2026-04-14T11:00:51Z</time></trkpt><trkpt lat="38.01157392876531" lon="15.768547963680678"><ele>574.5</ele><time>2026-04-14T11:00:52Z</time></trkpt><trkpt lat="38.01168767532424" lon="15.76863792538905"><ele>578.25</ele><time>2026-04-14T11:00:53Z</time></trkpt><trkpt lat="38.011809548102015" lon="15.768717526816737"><ele>582.0</ele><time>2026-04-14T11:00:54Z</time></trkpt><trkpt lat="38.011939246379455" lon="15.768780766523388"><ele>582.0</ele><time>2026-04-14T11:00:55Z</time></trkpt><trkpt lat="38.012056226078464" lon="15.768869415660838"><ele>582.0</ele><time>2026-04-14T11:00:56Z</time></trkpt><trkpt lat="38.012186211649556" lon="15.768917729069884"><ele>582.0</ele><time>2026-04-14T11:00:57Z</time></trkpt><trkpt lat="38.01228513592368" lon="15.768999407689483"><ele>582.0</ele><time>2026-04-14T11:00:58Z</time></trkpt><trkpt lat="38.01237890064086" lon="15.769065364508823"><ele>581.0</ele><time>2026-04-14T11:00:59Z</time></trkpt><trkpt lat="38.01248966715744" lon="15.769090048345403"><ele>580.0</ele><time>2026-04-14T11:01:00Z</time></trkpt><trkpt lat="38.01262158098084" lon="15.769095362279874"><ele>579.0</ele><time>2026-04-14T11:01:01Z</time></trkpt><trkpt lat="38.012766376803974" lon="15.769102594827967"><ele>578.0</ele><time>2026-04-14T11:01:02Z</time></trkpt><trkpt lat="38.012921334245135" lon="15.769116533779648"><ele>578.0</ele><time>2026-04-14T11:01:03Z</time></trkpt><trkpt lat="38.013087885236324" lon="15.769134241607452"><ele>578.0</ele><time>2026-04-14T11:01:04Z</time></trkpt><trkpt lat="38.0132439435524" lon="15.769140373305913"><ele>578.0</ele><time>2026-04-14T11:01:05Z</time></trkpt><trkpt lat="38.01338129501782" lon="15.769136793987963"><ele>580.0</ele><time>2026-04-14T11:01:06Z</time></trkpt><trkpt lat="38.01350640206548" lon="15.769122325682572"><ele>582.0</ele><time>2026-04-14T11:01:07Z</time></trkpt><trkpt lat="38.01363851831796" lon="15.769091591176936"><ele>584.0</ele><time>2026-04-14T11:01:08Z</time></trkpt><trkpt lat="38.01375160894306" lon="15.769060756084398"><ele>586.0</ele><time>2026-04-14T11:01:09Z</time></trkpt><trkpt lat="38.01384112190345" lon="15.76904946068253"><ele>586.0</ele><time>2026-04-14T11:01:10Z</time></trkpt><trkpt lat="38.01390313899049" lon="15.76910379673428"><ele>586.0</ele><time>2026-04-14T11:01:12Z</time></trkpt><trkpt lat="38.01393914011269" lon="15.769274827078345"><ele>586.0</ele><time>2026-04-14T11:01:14Z</time></trkpt><trkpt lat="38.013950539522135" lon="15.769391542898463"><ele>586.0</ele><time>2026-04-14T11:01:15Z</time></trkpt><trkpt lat="38.01395123577526" lon="15.769517790816154"><ele>586.0</ele><time>2026-04-14T11:01:16Z</time></trkpt><trkpt lat="38.01395041997553" lon="15.76964624745081"><ele>586.2</ele><time>2026-04-14T11:01:17Z</time></trkpt><trkpt lat="38.01393377870103" lon="15.769779149172892"><ele>586.4000000000001</ele><time>2026-04-14T11:01:18Z</time></trkpt><trkpt lat="38.01393346849952" lon="15.769910683225632"><ele>586.6</ele><time>2026-04-14T11:01:19Z</time></trkpt><trkpt lat="38.01393150571566" lon="15.770031301303227"><ele>586.8000000000001</ele><time>2026-04-14T11:01:20Z</time></trkpt><trkpt lat="38.01391512450846" lon="15.770155833718816"><ele>587.0</ele><time>2026-04-14T11:01:21Z</time></trkpt><trkpt lat="38.013880403569694" lon="15.770283157051317"><ele>591.0</ele><time>2026-04-14T11:01:22Z</time></trkpt><trkpt lat="38.01384025571325" lon="15.77041453642003"><ele>595.0</ele><time>2026-04-14T11:01:23Z</time></trkpt><trkpt lat="38.013810514355875" lon="15.770552627197976"><ele>599.0</ele><time>2026-04-14T11:01:24Z</time></trkpt><trkpt lat="38.013764745500794" lon="15.770682981347665"><ele>603.0</ele><time>2026-04-14T11:01:25Z</time></trkpt><trkpt lat="38.0137166197116" lon="15.77081430628588"><ele>603.0</ele><time>2026-04-14T11:01:26Z</time></trkpt><trkpt lat="38.01371539211152" lon="15.770963793130775"><ele>603.0</ele><time>2026-04-14T11:01:27Z</time></trkpt><trkpt lat="38.01371422353019" lon="15.77111376805024"><ele>603.0</ele><time>2026-04-14T11:01:28Z</time></trkpt><trkpt lat="38.0137167029082" lon="15.771264411626165"><ele>603.0</ele><time>2026-04-14T11:01:29Z</time></trkpt><trkpt lat="38.013725888645446" lon="15.771427770890565"><ele>606.25</ele><time>2026-04-14T11:01:30Z</time></trkpt><trkpt lat="38.01374664709763" lon="15.771595041242524"><ele>609.5</ele><time>2026-04-14T11:01:31Z</time></trkpt><trkpt lat="38.01378222488766" lon="15.771761817227517"><ele>612.75</ele><time>2026-04-14T11:01:32Z</time></trkpt><trkpt lat="38.013827932906" lon="15.77192770118118"><ele>616.0</ele><time>2026-04-14T11:01:33Z</time></trkpt><trkpt lat="38.01387044295148" lon="15.772090060689894"><ele>618.25</ele><time>2026-04-14T11:01:34Z</time></trkpt><trkpt lat="38.01390776960587" lon="15.772252202020002"><ele>620.5</ele><time>2026-04-14T11:01:35Z</time></trkpt><trkpt lat="38.01395559064493" lon="15.772403188332936"><ele>622.75</ele><time>2026-04-14T11:01:36Z</time></trkpt><trkpt lat="38.01402806889994" lon="15.772539541560988"><ele>625.0</ele><time>2026-04-14T11:01:37Z</time></trkpt><trkpt lat="38.01411774997991" lon="15.772656964749276"><ele>621.5</ele><time>2026-04-14T11:01:38Z</time></trkpt><trkpt lat="38.01421835184704" lon="15.772763826116744"><ele>618.0</ele><time>2026-04-14T11:01:39Z</time></trkpt><trkpt lat="38.01432752063534" lon="15.772867765562117"><ele>614.5</ele><time>2026-04-14T11:01:40Z</time></trkpt><trkpt lat="38.01443952314703" lon="15.772976438463473"><ele>611.0</ele><time>2026-04-14T11:01:41Z</time></trkpt><trkpt lat="38.01455052953456" lon="15.773097217233461"><ele>611.0</ele><time>2026-04-14T11:01:42Z</time></trkpt><trkpt lat="38.0146643391666" lon="15.773224727126776"><ele>611.0</ele><time>2026-04-14T11:01:43Z</time></trkpt><trkpt lat="38.0147839296845" lon="15.773350674709189"><ele>611.0</ele><time>2026-04-14T11:01:44Z</time></trkpt><trkpt lat="38.014908816566106" lon="15.773471645365573"><ele>613.0</ele><time>2026-04-14T11:01:45Z</time></trkpt><trkpt lat="38.01504426846707" lon="15.77358840923902"><ele>615.0</ele><time>2026-04-14T11:01:46Z</time></trkpt><trkpt lat="38.01518064313332" lon="15.773692625199004"><ele>617.0</ele><time>2026-04-14T11:01:47Z</time></trkpt><trkpt lat="38.01529318638496" lon="15.77376178154313"><ele>619.0</ele><time>2026-04-14T11:01:48Z</time></trkpt><trkpt lat="38.01539248288539" lon="15.773808480172836"><ele>619.0</ele><time>2026-04-14T11:01:49Z</time></trkpt><trkpt lat="38.01548809064653" lon="15.77383059912461"><ele>619.0</ele><time>2026-04-14T11:01:50Z</time></trkpt><trkpt lat="38.01559556604582" lon="15.77380700647403"><ele>619.0</ele><time>2026-04-14T11:01:51Z</time></trkpt><trkpt lat="38.015710027306234" lon="15.773758410475445"><ele>619.0</ele><time>2026-04-14T11:01:52Z</time></trkpt><trkpt lat="38.0158291460519" lon="15.77373295921033"><ele>619.0</ele><time>2026-04-14T11:01:53Z</time></trkpt><trkpt lat="38.01595269490343" lon="15.773737898250825"><ele>620.0</ele><time>2026-04-14T11:01:54Z</time></trkpt><trkpt lat="38.01607020230305" lon="15.773775758404485"><ele>621.0</ele><time>2026-04-14T11:01:55Z</time></trkpt><trkpt lat="38.01616506292836" lon="15.77382650556804"><ele>622.0</ele><time>2026-04-14T11:01:56Z</time></trkpt><trkpt lat="38.0162192377516" lon="15.773892188869919"><ele>623.0</ele><time>2026-04-14T11:01:57Z</time></trkpt><trkpt lat="38.01624177966573" lon="15.773983116726287"><ele>624.0</ele><time>2026-04-14T11:01:58Z</time></trkpt><trkpt lat="38.016204142816264" lon="15.774080252923651"><ele>624.0</ele><time>2026-04-14T11:01:59Z</time></trkpt><trkpt lat="38.01617632067901" lon="15.774175549098544"><ele>624.0</ele><time>2026-04-14T11:02:00Z</time></trkpt><trkpt lat="38.01613736579124" lon="15.7742927353231"><ele>624.0</ele><time>2026-04-14T11:02:01Z</time></trkpt><trkpt lat="38.01610183463701" lon="15.774429217640796"><ele>624.0</ele><time>2026-04-14T11:02:02Z</time></trkpt><trkpt lat="38.01604522049604" lon="15.774569166293603"><ele>624.0</ele><time>2026-04-14T11:02:03Z</time></trkpt><trkpt lat="38.015989332591694" lon="15.774723176457798"><ele>626.4</ele><time>2026-04-14T11:02:04Z</time></trkpt><trkpt lat="38.015933917913536" lon="15.77487628322029"><ele>628.8</ele><time>2026-04-14T11:02:05Z</time></trkpt><trkpt lat="38.015878852433126" lon="15.775014809988056"><ele>631.2</ele><time>2026-04-14T11:02:06Z</time></trkpt><trkpt lat="38.01582548310395" lon="15.775121806141396"><ele>633.6</ele><time>2026-04-14T11:02:07Z</time></trkpt><trkpt lat="38.01575793322348" lon="15.77519013897544"><ele>636.0</ele><time>2026-04-14T11:02:08Z</time></trkpt><trkpt lat="38.01566004247562" lon="15.775177691560812"><ele>636.0</ele><time>2026-04-14T11:02:09Z</time></trkpt><trkpt lat="38.0155575697919" lon="15.775161080687402"><ele>636.0</ele><time>2026-04-14T11:02:10Z</time></trkpt><trkpt lat="38.01542095076147" lon="15.775157275752258"><ele>636.0</ele><time>2026-04-14T11:02:11Z</time></trkpt><trkpt lat="38.01529930160067" lon="15.775171409019977"><ele>636.0</ele><time>2026-04-14T11:02:12Z</time></trkpt><trkpt lat="38.01518296012063" lon="15.775193300147295"><ele>638.5</ele><time>2026-04-14T11:02:13Z</time></trkpt><trkpt lat="38.01506895494315" lon="15.77523694474728"><ele>641.0</ele><time>2026-04-14T11:02:14Z</time></trkpt><trkpt lat="38.01495940619603" lon="15.77528171370716"><ele>643.5</ele><time>2026-04-14T11:02:15Z</time></trkpt><trkpt lat="38.0148535426823" lon="15.775324979971531"><ele>646.0</ele><time>2026-04-14T11:02:16Z</time></trkpt><trkpt lat="38.01474713480613" lon="15.775362388633662"><ele>646.0</ele><time>2026-04-14T11:02:17Z</time></trkpt><trkpt lat="38.014652380385876" lon="15.775402550449542"><ele>646.0</ele><time>2026-04-14T11:02:18Z</time></trkpt><trkpt lat="38.01457492399872" lon="15.775447956038148"><ele>646.0</ele><time>2026-04-14T11:02:19Z</time></trkpt><trkpt lat="38.01453050812784" lon="15.775509932425912"><ele>646.0</ele><time>2026-04-14T11:02:20Z</time></trkpt><trkpt lat="38.01448846480967" lon="15.775569771343513"><ele>646.0</ele><time>2026-04-14T11:02:21Z</time></trkpt><trkpt lat="38.01450148062765" lon="15.77567074296057"><ele>646.0</ele><time>2026-04-14T11:02:22Z</time></trkpt><trkpt lat="38.01452093399126" lon="15.775772822489804"><ele>646.0</ele><time>2026-04-14T11:02:23Z</time></trkpt><trkpt lat="38.01452368211639" lon="15.775877229124115"><ele>646.0</ele><time>2026-04-14T11:02:24Z</time></trkpt><trkpt lat="38.014464434392714" lon="15.775946752394466"><ele>646.0</ele><time>2026-04-14T11:02:25Z</time></trkpt><trkpt lat="38.01440999559784" lon="15.776023896975728"><ele>646.0</ele><time>2026-04-14T11:02:26Z</time></trkpt><trkpt lat="38.014352790655074" lon="15.776091566083563"><ele>646.0</ele><time>2026-04-14T11:02:27Z</time></trkpt><trkpt lat="38.01426213416234" lon="15.776110957295272"><ele>646.0</ele><time>2026-04-14T11:02:28Z</time></trkpt><trkpt lat="38.014204469033274" lon="15.776185282330298"><ele>646.8333333333334</ele><time>2026-04-14T11:02:29Z</time></trkpt><trkpt lat="38.014156939592965" lon="15.776268508722215"><ele>647.6666666666667</ele><time>2026-04-14T11:02:30Z</time></trkpt><trkpt lat="38.01409359067852" lon="15.776345965405627"><ele>648.5</ele><time>2026-04-14T11:02:31Z</time></trkpt><trkpt lat="38.01402437755398" lon="15.776407268159792"><ele>649.3333333333334</ele><time>2026-04-14T11:02:32Z</time></trkpt><trkpt lat="38.01394009356108" lon="15.776471393825517"><ele>650.1666666666666</ele><time>2026-04-14T11:02:33Z</time></trkpt><trkpt lat="38.013871521453865" lon="15.776525390894417"><ele>651.0</ele><time>2026-04-14T11:02:34Z</time></trkpt><trkpt lat="38.01380696352502" lon="15.77658453271548"><ele>651.0</ele><time>2026-04-14T11:02:35Z</time></trkpt><trkpt lat="38.013762601846764" lon="15.776670061401994"><ele>651.0</ele><time>2026-04-14T11:02:36Z</time></trkpt><trkpt lat="38.0137067679077" lon="15.776806347548037"><ele>651.0</ele><time>2026-04-14T11:02:38Z</time></trkpt><trkpt lat="38.013683256484" lon="15.776891231167838"><ele>651.0</ele><time>2026-04-14T11:02:39Z</time></trkpt><trkpt lat="38.01364554796173" lon="15.77698594096737"><ele>651.0</ele><time>2026-04-14T11:02:40Z</time></trkpt><trkpt lat="38.01359958968744" lon="15.777095718153376"><ele>653.1999999999999</ele><time>2026-04-14T11:02:41Z</time></trkpt><trkpt lat="38.013583341503015" lon="15.777214306545291"><ele>655.4</ele><time>2026-04-14T11:02:42Z</time></trkpt><trkpt lat="38.01353857547167" lon="15.777322579936433"><ele>657.6</ele><time>2026-04-14T11:02:43Z</time></trkpt><trkpt lat="38.01350277078572" lon="15.777451398118437"><ele>659.8</ele><time>2026-04-14T11:02:44Z</time></trkpt><trkpt lat="38.01349863458361" lon="15.777586191542335"><ele>662.0</ele><time>2026-04-14T11:02:45Z</time></trkpt><trkpt lat="38.01350988954827" lon="15.777710164277657"><ele>663.8333333333333</ele><time>2026-04-14T11:02:46Z</time></trkpt><trkpt lat="38.01350971447155" lon="15.777821302311667"><ele>665.6666666666666</ele><time>2026-04-14T11:02:47Z</time></trkpt><trkpt lat="38.013499600317914" lon="15.777946714483605"><ele>667.5</ele><time>2026-04-14T11:02:48Z</time></trkpt><trkpt lat="38.01348590228636" lon="15.778065214284151"><ele>669.3333333333334</ele><time>2026-04-14T11:02:49Z</time></trkpt><trkpt lat="38.01347295062035" lon="15.778176442240916"><ele>671.1666666666667</ele><time>2026-04-14T11:02:50Z</time></trkpt><trkpt lat="38.01346184407643" lon="15.778271824447286"><ele>673.0</ele><time>2026-04-14T11:02:51Z</time></trkpt><trkpt lat="38.01343214175584" lon="15.778408926539727"><ele>673.0</ele><time>2026-04-14T11:02:53Z</time></trkpt><trkpt lat="38.01336518615939" lon="15.77844865559087"><ele>673.0</ele><time>2026-04-14T11:02:55Z</time></trkpt><trkpt lat="38.01324628354623" lon="15.778370481469553"><ele>673.0</ele><time>2026-04-14T11:02:57Z</time></trkpt><trkpt lat="38.01317544415111" lon="15.778311284090607"><ele>673.0</ele><time>2026-04-14T11:02:58Z</time></trkpt><trkpt lat="38.01309699263741" lon="15.778258664515398"><ele>673.0</ele><time>2026-04-14T11:02:59Z</time></trkpt><trkpt lat="38.01301854183044" lon="15.778226256214086"><ele>675.2</ele><time>2026-04-14T11:03:00Z</time></trkpt><trkpt lat="38.01294015944624" lon="15.778205378343433"><ele>677.4</ele><time>2026-04-14T11:03:01Z</time></trkpt><trkpt lat="38.01284402205332" lon="15.778132734570006"><ele>679.6</ele><time>2026-04-14T11:03:03Z</time></trkpt><trkpt lat="38.01279219155903" lon="15.778081184849192"><ele>681.8000000000001</ele><time>2026-04-14T11:03:04Z</time></trkpt><trkpt lat="38.01273572140697" lon="15.777992443981637"><ele>684.0</ele><time>2026-04-14T11:03:06Z</time></trkpt><trkpt lat="38.01267589303865" lon="15.777887204691474"><ele>684.0</ele><time>2026-04-14T11:08:14Z</time></trkpt><trkpt lat="38.012639743488315" lon="15.777741601012842"><ele>684.0</ele><time>2026-04-14T11:08:16Z</time></trkpt><trkpt lat="38.01265982480032" lon="15.777659057723383"><ele>684.0</ele><time>2026-04-14T11:08:17Z</time></trkpt><trkpt lat="38.012635990615436" lon="15.777582605158353"><ele>684.0</ele><time>2026-04-14T11:08:18Z</time></trkpt><trkpt lat="38.01258816473103" lon="15.77751326250371"><ele>684.0</ele><time>2026-04-14T11:08:19Z</time></trkpt><trkpt lat="38.012521802224505" lon="15.777472735309223"><ele>684.0</ele><time>2026-04-14T11:08:20Z</time></trkpt><trkpt lat="38.0124780924396" lon="15.777411101066608"><ele>684.0</ele><time>2026-04-14T11:08:21Z</time></trkpt><trkpt lat="38.01242043589729" lon="15.777358482097192"><ele>684.0</ele><time>2026-04-14T11:08:22Z</time></trkpt><trkpt lat="38.012366658077084" lon="15.777312159544385"><ele>684.0</ele><time>2026-04-14T11:08:23Z</time></trkpt><trkpt lat="38.01224909914214" lon="15.777214414729768"><ele>684.0</ele><time>2026-04-14T11:08:25Z</time></trkpt><trkpt lat="38.01218292755446" lon="15.777182935544044"><ele>684.0</ele><time>2026-04-14T11:08:26Z</time></trkpt><trkpt lat="38.01209703471182" lon="15.777116721425278"><ele>684.0</ele><time>2026-04-14T11:08:28Z</time></trkpt><trkpt lat="38.01198000082457" lon="15.777128313785552"><ele>684.0</ele><time>2026-04-14T11:08:30Z</time></trkpt><trkpt lat="38.01192625641435" lon="15.777199102971291"><ele>684.0</ele><time>2026-04-14T11:08:31Z</time></trkpt><trkpt lat="38.011869589803325" lon="15.777269878220421"><ele>684.0</ele><time>2026-04-14T11:08:32Z</time></trkpt><trkpt lat="38.01182618280087" lon="15.777357917429496"><ele>684.0</ele><time>2026-04-14T11:08:33Z</time></trkpt><trkpt lat="38.0117810849067" lon="15.777454405586246"><ele>684.0</ele><time>2026-04-14T11:08:34Z</time></trkpt><trkpt lat="38.0117291616981" lon="15.77753139177522"><ele>684.0</ele><time>2026-04-14T11:08:35Z</time></trkpt><trkpt lat="38.01168920662995" lon="15.777598581854374"><ele>683.2</ele><time>2026-04-14T11:08:36Z</time></trkpt><trkpt lat="38.01168860481623" lon="15.77776354545235"><ele>682.4000000000001</ele><time>2026-04-14T11:08:38Z</time></trkpt><trkpt lat="38.011732119448034" lon="15.777846044549456"><ele>681.6</ele><time>2026-04-14T11:08:39Z</time></trkpt><trkpt lat="38.01178092187456" lon="15.777924281548039"><ele>680.8</ele><time>2026-04-14T11:08:40Z</time></trkpt><trkpt lat="38.011838986176684" lon="15.778009992030094"><ele>680.0</ele><time>2026-04-14T11:08:41Z</time></trkpt><trkpt lat="38.01190189133197" lon="15.778086982085457"><ele>680.0</ele><time>2026-04-14T11:08:42Z</time></trkpt><trkpt lat="38.01195402451816" lon="15.778138855968727"><ele>680.0</ele><time>2026-04-14T11:08:43Z</time></trkpt><trkpt lat="38.01211227944122" lon="15.778236937361935"><ele>680.0</ele><time>2026-04-14T11:08:45.001Z</time></trkpt><trkpt lat="38.012181295862035" lon="15.77824362814748"><ele>680.0</ele><time>2026-04-14T11:08:46.001Z</time></trkpt><trkpt lat="38.01229511394277" lon="15.778290125314426"><ele>680.0</ele><time>2026-04-14T11:08:48Z</time></trkpt><trkpt lat="38.01233147574335" lon="15.778356812637213"><ele>680.0</ele><time>2026-04-14T11:08:49Z</time></trkpt><trkpt lat="38.012374490177955" lon="15.778430250543993"><ele>680.0</ele><time>2026-04-14T11:08:50Z</time></trkpt><trkpt lat="38.01242226520775" lon="15.778543745873135"><ele>680.0</ele><time>2026-04-14T11:08:52Z</time></trkpt><trkpt lat="38.01244154683349" lon="15.778621691558964"><ele>680.0</ele><time>2026-04-14T11:08:54Z</time></trkpt><trkpt lat="38.01246272823222" lon="15.778702332262705"><ele>680.0</ele><time>2026-04-14T11:08:57Z</time></trkpt><trkpt lat="38.012476424028264" lon="15.77880669227229"><ele>680.0</ele><time>2026-04-14T11:10:19Z</time></trkpt><trkpt lat="38.012489220475764" lon="15.778959037285277"><ele>682.1666666666666</ele><time>2026-04-14T11:10:20Z</time></trkpt><trkpt lat="38.0125032934203" lon="15.779119045710532"><ele>684.3333333333333</ele><time>2026-04-14T11:10:21Z</time></trkpt><trkpt lat="38.01250690505676" lon="15.779010412262078"><ele>686.5</ele><time>2026-04-14T11:10:22Z</time></trkpt><trkpt lat="38.012529306607085" lon="15.77909847578901"><ele>688.6666666666666</ele><time>2026-04-14T11:10:23Z</time></trkpt><trkpt lat="38.012524541231635" lon="15.77919550235166"><ele>690.8333333333334</ele><time>2026-04-14T11:10:24Z</time></trkpt><trkpt lat="38.01253037930532" lon="15.779290781391175"><ele>693.0</ele><time>2026-04-14T11:10:25Z</time></trkpt><trkpt lat="38.01253647074909" lon="15.77938960268903"><ele>694.5</ele><time>2026-04-14T11:10:26Z</time></trkpt><trkpt lat="38.01254066014768" lon="15.779491834872033"><ele>696.0</ele><time>2026-04-14T11:10:27Z</time></trkpt><trkpt lat="38.01253467771469" lon="15.77958552304498"><ele>697.5</ele><time>2026-04-14T11:10:28Z</time></trkpt><trkpt lat="38.01252101558808" lon="15.779689542874747"><ele>699.0</ele><time>2026-04-14T11:10:29Z</time></trkpt><trkpt lat="38.01250655508235" lon="15.779801485400919"><ele>700.5</ele><time>2026-04-14T11:10:30Z</time></trkpt><trkpt lat="38.012495198128164" lon="15.779901634601622"><ele>702.0</ele><time>2026-04-14T11:10:31Z</time></trkpt><trkpt lat="38.01248430469986" lon="15.780002222327346"><ele>702.0</ele><time>2026-04-14T11:10:32Z</time></trkpt><trkpt lat="38.01249052476512" lon="15.78010333805953"><ele>702.0</ele><time>2026-04-14T11:10:33Z</time></trkpt><trkpt lat="38.01247603433869" lon="15.7802029544656"><ele>702.0</ele><time>2026-04-14T11:10:34Z</time></trkpt><trkpt lat="38.012468466609306" lon="15.780307950735617"><ele>702.0</ele><time>2026-04-14T11:10:35Z</time></trkpt><trkpt lat="38.01247113398158" lon="15.780401237418928"><ele>702.0</ele><time>2026-04-14T11:10:36Z</time></trkpt><trkpt lat="38.01246885817266" lon="15.780504092942726"><ele>702.0</ele><time>2026-04-14T11:10:37Z</time></trkpt><trkpt lat="38.012430039488976" lon="15.780592629502763"><ele>700.6666666666666</ele><time>2026-04-14T11:10:38Z</time></trkpt><trkpt lat="38.01240645432645" lon="15.780689340777808"><ele>699.3333333333334</ele><time>2026-04-14T11:10:39Z</time></trkpt><trkpt lat="38.01239563364677" lon="15.780792857988402"><ele>698.0</ele><time>2026-04-14T11:10:40Z</time></trkpt><trkpt lat="38.0123922203323" lon="15.780890456930715"><ele>696.6666666666667</ele><time>2026-04-14T11:10:40.999Z</time></trkpt><trkpt lat="38.01240091818047" lon="15.78099431888217"><ele>695.3333333333334</ele><time>2026-04-14T11:10:41.999Z</time></trkpt><trkpt lat="38.01238266453963" lon="15.78109579921313"><ele>694.0</ele><time>2026-04-14T11:10:42.999Z</time></trkpt><trkpt lat="38.01236698601799" lon="15.781193657773779"><ele>694.0</ele><time>2026-04-14T11:10:43.999Z</time></trkpt><trkpt lat="38.01234881198915" lon="15.78129325213809"><ele>694.0</ele><time>2026-04-14T11:10:44.999Z</time></trkpt><trkpt lat="38.01232720196529" lon="15.781383843506877"><ele>694.0</ele><time>2026-04-14T11:10:45.999Z</time></trkpt><trkpt lat="38.0123006903657" lon="15.781458675522224"><ele>694.0</ele><time>2026-04-14T11:10:46.999Z</time></trkpt><trkpt lat="38.012250592227375" lon="15.781559644657781"><ele>694.0</ele><time>2026-04-14T11:10:48.999Z</time></trkpt><trkpt lat="38.01230929062827" lon="15.781640608766857"><ele>694.0</ele><time>2026-04-14T11:10:51Z</time></trkpt><trkpt lat="38.012370372036024" lon="15.7817222807966"><ele>694.0</ele><time>2026-04-14T11:10:53Z</time></trkpt><trkpt lat="38.01238759991229" lon="15.78184009625836"><ele>694.0</ele><time>2026-04-14T11:10:55Z</time></trkpt><trkpt lat="38.01239856398103" lon="15.781950801523207"><ele>694.0</ele><time>2026-04-14T11:10:57Z</time></trkpt><trkpt lat="38.012407777922235" lon="15.782094701175739"><ele>694.0</ele><time>2026-04-14T11:10:58.999Z</time></trkpt><trkpt lat="38.01238209683336" lon="15.782168815484907"><ele>694.0</ele><time>2026-04-14T11:10:59.999Z</time></trkpt><trkpt lat="38.01236372382031" lon="15.782249327832481"><ele>694.0</ele><time>2026-04-14T11:11:00.999Z</time></trkpt><trkpt lat="38.01233865160433" lon="15.782337181030178"><ele>696.6666666666667</ele><time>2026-04-14T11:11:02Z</time></trkpt><trkpt lat="38.012331142827506" lon="15.782431612366867"><ele>699.3333333333334</ele><time>2026-04-14T11:11:03Z</time></trkpt><trkpt lat="38.012312454730754" lon="15.782535545321092"><ele>702.0</ele><time>2026-04-14T11:11:04Z</time></trkpt><trkpt lat="38.01228956612821" lon="15.78262393478637"><ele>704.6666666666666</ele><time>2026-04-14T11:11:05Z</time></trkpt><trkpt lat="38.01227325310066" lon="15.782721622317494"><ele>707.3333333333333</ele><time>2026-04-14T11:11:06Z</time></trkpt><trkpt lat="38.01224883901525" lon="15.782823791492504"><ele>710.0</ele><time>2026-04-14T11:11:07Z</time></trkpt><trkpt lat="38.01222542699036" lon="15.782913866224726"><ele>710.0</ele><time>2026-04-14T11:11:08Z</time></trkpt><trkpt lat="38.01221001234756" lon="15.783027420560657"><ele>710.0</ele><time>2026-04-14T11:11:09Z</time></trkpt><trkpt lat="38.01217385110107" lon="15.78314483724979"><ele>710.0</ele><time>2026-04-14T11:11:10Z</time></trkpt><trkpt lat="38.01213482771355" lon="15.783247481383125"><ele>710.0</ele><time>2026-04-14T11:11:11Z</time></trkpt><trkpt lat="38.01211169691664" lon="15.783356559516722"><ele>710.0</ele><time>2026-04-14T11:11:12Z</time></trkpt><trkpt lat="38.01208800899278" lon="15.783456146550597"><ele>708.8571428571429</ele><time>2026-04-14T11:11:13Z</time></trkpt><trkpt lat="38.01205753558183" lon="15.783552367776538"><ele>707.7142857142858</ele><time>2026-04-14T11:11:14Z</time></trkpt><trkpt lat="38.01202522570848" lon="15.783644893623775"><ele>706.5714285714287</ele><time>2026-04-14T11:11:15Z</time></trkpt><trkpt lat="38.011996402794495" lon="15.783724527686285"><ele>705.4285714285714</ele><time>2026-04-14T11:11:16Z</time></trkpt><trkpt lat="38.01196717145951" lon="15.783805290202928"><ele>704.2857142857143</ele><time>2026-04-14T11:11:17Z</time></trkpt><trkpt lat="38.01193970585955" lon="15.783880768197072"><ele>703.1428571428572</ele><time>2026-04-14T11:11:18Z</time></trkpt><trkpt lat="38.01191026016174" lon="15.783961517604872"><ele>702.0</ele><time>2026-04-14T11:11:19Z</time></trkpt><trkpt lat="38.011895242445426" lon="15.78404469062134"><ele>702.0</ele><time>2026-04-14T11:11:20Z</time></trkpt><trkpt lat="38.01184592505297" lon="15.784160850935137"><ele>702.0</ele><time>2026-04-14T11:11:22Z</time></trkpt><trkpt lat="38.01190058691034" lon="15.78427027961323"><ele>702.0</ele><time>2026-04-14T11:11:24Z</time></trkpt><trkpt lat="38.01199830633999" lon="15.784199816834116"><ele>702.0</ele><time>2026-04-14T11:11:26Z</time></trkpt><trkpt lat="38.01205908730334" lon="15.784104214953665"><ele>702.0</ele><time>2026-04-14T11:11:27Z</time></trkpt><trkpt lat="38.01212703270096" lon="15.784004509382314"><ele>702.0</ele><time>2026-04-14T11:11:28Z</time></trkpt><trkpt lat="38.012205276832475" lon="15.783943514187047"><ele>702.0</ele><time>2026-04-14T11:11:29Z</time></trkpt><trkpt lat="38.01227085013416" lon="15.783881950397584"><ele>702.0</ele><time>2026-04-14T11:11:30Z</time></trkpt><trkpt lat="38.01233279555085" lon="15.783804779402239"><ele>702.0</ele><time>2026-04-14T11:11:31Z</time></trkpt><trkpt lat="38.01243683795544" lon="15.783734725127204"><ele>702.0</ele><time>2026-04-14T11:11:32.999Z</time></trkpt><trkpt lat="38.01253322180908" lon="15.78368798059952"><ele>695.0</ele><time>2026-04-14T11:11:34.999Z</time></trkpt><trkpt lat="38.01263508496102" lon="15.783691430859301"><ele>688.0</ele><time>2026-04-14T11:11:36.999Z</time></trkpt><trkpt lat="38.01271784268305" lon="15.783709378187876"><ele>681.0</ele><time>2026-04-14T11:11:38.999Z</time></trkpt><trkpt lat="38.01274467524971" lon="15.783815341005388"><ele>674.0</ele><time>2026-04-14T11:11:42.999Z</time></trkpt><trkpt lat="38.01270483979784" lon="15.783914874468238"><ele>667.0</ele><time>2026-04-14T11:11:44.999Z</time></trkpt><trkpt lat="38.012630902612976" lon="15.784041558672667"><ele>667.0</ele><time>2026-04-14T11:11:46.999Z</time></trkpt><trkpt lat="38.01259736976389" lon="15.784118858791365"><ele>667.0</ele><time>2026-04-14T11:11:47.999Z</time></trkpt><trkpt lat="38.01253024171546" lon="15.784259821262866"><ele>667.0</ele><time>2026-04-14T11:11:49.999Z</time></trkpt><trkpt lat="38.0125269481017" lon="15.784352771098597"><ele>667.0</ele><time>2026-04-14T11:11:50.999Z</time></trkpt><trkpt lat="38.01254865364478" lon="15.784432015160295"><ele>667.0</ele><time>2026-04-14T11:11:51.999Z</time></trkpt><trkpt lat="38.0125616596151" lon="15.784567654216575"><ele>667.0</ele><time>2026-04-14T11:11:53.999Z</time></trkpt><trkpt lat="38.01250040083372" lon="15.784674681398242"><ele>670.1666666666667</ele><time>2026-04-14T11:11:55.999Z</time></trkpt><trkpt lat="38.012396869023455" lon="15.784700363945552"><ele>673.3333333333334</ele><time>2026-04-14T11:11:57.999Z</time></trkpt><trkpt lat="38.012357689460785" lon="15.784764434883595"><ele>676.5</ele><time>2026-04-14T11:11:58.999Z</time></trkpt><trkpt lat="38.0123583239399" lon="15.784865454018632"><ele>679.6666666666666</ele><time>2026-04-14T11:11:59.999Z</time></trkpt><trkpt lat="38.012353299495544" lon="15.784967722586387"><ele>682.8333333333333</ele><time>2026-04-14T11:12:00.999Z</time></trkpt><trkpt lat="38.01235576471128" lon="15.785071324186514"><ele>686.0</ele><time>2026-04-14T11:12:01.999Z</time></trkpt><trkpt lat="38.01235976983144" lon="15.785159661420519"><ele>682.8333333333333</ele><time>2026-04-14T11:12:02.999Z</time></trkpt><trkpt lat="38.01234974331319" lon="15.78524583006739"><ele>679.6666666666666</ele><time>2026-04-14T11:12:03.999Z</time></trkpt><trkpt lat="38.01232687065586" lon="15.785347380262765"><ele>676.5</ele><time>2026-04-14T11:12:04.999Z</time></trkpt><trkpt lat="38.01229796427216" lon="15.785474505930438"><ele>673.3333333333334</ele><time>2026-04-14T11:12:05.999Z</time></trkpt><trkpt lat="38.012279319636406" lon="15.78558716183968"><ele>670.1666666666667</ele><time>2026-04-14T11:12:06.999Z</time></trkpt><trkpt lat="38.01226693875506" lon="15.785684013469167"><ele>667.0</ele><time>2026-04-14T11:12:07.999Z</time></trkpt><trkpt lat="38.01226435892114" lon="15.78578005579421"><ele>667.0</ele><time>2026-04-14T11:12:08.999Z</time></trkpt><trkpt lat="38.012256151167605" lon="15.785873196477903"><ele>667.0</ele><time>2026-04-14T11:12:09.999Z</time></trkpt><trkpt lat="38.01222329683027" lon="15.785959412952588"><ele>667.0</ele><time>2026-04-14T11:12:10.999Z</time></trkpt><trkpt lat="38.01222058192131" lon="15.786040556863057"><ele>667.0</ele><time>2026-04-14T11:12:11.999Z</time></trkpt><trkpt lat="38.012236678430185" lon="15.786164871470412"><ele>667.0</ele><time>2026-04-14T11:12:13.999Z</time></trkpt><trkpt lat="38.01236946099691" lon="15.786094022316904"><ele>667.0</ele><time>2026-04-14T11:12:16.999Z</time></trkpt><trkpt lat="38.012446326445186" lon="15.785988589651005"><ele>667.0</ele><time>2026-04-14T11:12:18.999Z</time></trkpt><trkpt lat="38.01248319895101" lon="15.785923178431426"><ele>667.0</ele><time>2026-04-14T11:12:19.999Z</time></trkpt><trkpt lat="38.01252677612054" lon="15.785858046028254"><ele>667.0</ele><time>2026-04-14T11:12:20.999Z</time></trkpt><trkpt lat="38.01255846600687" lon="15.785774524773387"><ele>667.0</ele><time>2026-04-14T11:12:21.999Z</time></trkpt><trkpt lat="38.012578034007" lon="15.78568071569244"><ele>667.0</ele><time>2026-04-14T11:12:22.999Z</time></trkpt><trkpt lat="38.0126345821328" lon="15.785608965433656"><ele>660.2</ele><time>2026-04-14T11:12:23.999Z</time></trkpt><trkpt lat="38.01269126550168" lon="15.785551053429836"><ele>653.4000000000001</ele><time>2026-04-14T11:12:24.999Z</time></trkpt><trkpt lat="38.01277128021082" lon="15.785464333290086"><ele>646.5999999999999</ele><time>2026-04-14T11:12:26.999Z</time></trkpt><trkpt lat="38.01286763296159" lon="15.785433751477006"><ele>639.8</ele><time>2026-04-14T11:12:28.999Z</time></trkpt><trkpt lat="38.01297211906591" lon="15.785438432791794"><ele>633.0</ele><time>2026-04-14T11:12:30.999Z</time></trkpt><trkpt lat="38.01308369476734" lon="15.785419240164792"><ele>633.0</ele><time>2026-04-14T11:12:32.999Z</time></trkpt><trkpt lat="38.01320675490521" lon="15.785378537030233"><ele>633.0</ele><time>2026-04-14T11:12:34.999Z</time></trkpt><trkpt lat="38.01326517390377" lon="15.785339294738884"><ele>633.0</ele><time>2026-04-14T11:12:35.999Z</time></trkpt><trkpt lat="38.01332036083006" lon="15.785287389038153"><ele>633.0</ele><time>2026-04-14T11:12:36.999Z</time></trkpt><trkpt lat="38.0133733557405" lon="15.785221923240723"><ele>633.0</ele><time>2026-04-14T11:12:37.999Z</time></trkpt><trkpt lat="38.01342095617679" lon="15.785152371604257"><ele>633.0</ele><time>2026-04-14T11:12:38.999Z</time></trkpt><trkpt lat="38.01348130391602" lon="15.785081872832889"><ele>631.3333333333334</ele><time>2026-04-14T11:12:39.999Z</time></trkpt><trkpt lat="38.013539303555646" lon="15.785028187119183"><ele>629.6666666666666</ele><time>2026-04-14T11:12:40.999Z</time></trkpt><trkpt lat="38.01359251516009" lon="15.78497486463504"><ele>628.0</ele><time>2026-04-14T11:12:41.999Z</time></trkpt><trkpt lat="38.01363779702123" lon="15.784918730238301"><ele>626.3333333333333</ele><time>2026-04-14T11:12:42.999Z</time></trkpt><trkpt lat="38.01367935093058" lon="15.784832587860514"><ele>624.6666666666666</ele><time>2026-04-14T11:12:44.999Z</time></trkpt><trkpt lat="38.013702719685455" lon="15.78469682558305"><ele>623.0</ele><time>2026-04-14T11:12:46.999Z</time></trkpt><trkpt lat="38.013764726778234" lon="15.784576677535766"><ele>623.0</ele><time>2026-04-14T11:12:48.999Z</time></trkpt><trkpt lat="38.01382318949954" lon="15.78445920681743"><ele>623.0</ele><time>2026-04-14T11:12:50.999Z</time></trkpt><trkpt lat="38.01390936115254" lon="15.78437742521873"><ele>623.0</ele><time>2026-04-14T11:12:52.999Z</time></trkpt><trkpt lat="38.01400833063494" lon="15.784351982882702"><ele>623.0</ele><time>2026-04-14T11:12:54.999Z</time></trkpt><trkpt lat="38.014081219369665" lon="15.784419770091821"><ele>623.0</ele><time>2026-04-14T11:12:56.999Z</time></trkpt><trkpt lat="38.014049613102586" lon="15.784535869383294"><ele>623.0</ele><time>2026-04-14T11:12:58.999Z</time></trkpt><trkpt lat="38.0140401222453" lon="15.7846226125925"><ele>623.0</ele><time>2026-04-14T11:12:59.999Z</time></trkpt><trkpt lat="38.01404261282124" lon="15.784720919845489"><ele>623.0</ele><time>2026-04-14T11:13:00.999Z</time></trkpt><trkpt lat="38.01402029080105" lon="15.784822645958878"><ele>623.0</ele><time>2026-04-14T11:13:01.999Z</time></trkpt><trkpt lat="38.0140068077994" lon="15.784911715890356"><ele>623.0</ele><time>2026-04-14T11:13:02.999Z</time></trkpt><trkpt lat="38.01401124656353" lon="15.785009019897396"><ele>623.0</ele><time>2026-04-14T11:13:03.999Z</time></trkpt><trkpt lat="38.01400746071239" lon="15.78511945362386"><ele>620.3333333333333</ele><time>2026-04-14T11:13:04.999Z</time></trkpt><trkpt lat="38.01401293492448" lon="15.785231017029032"><ele>617.6666666666666</ele><time>2026-04-14T11:13:05.999Z</time></trkpt><trkpt lat="38.01402180939098" lon="15.785341948284431"><ele>615.0</ele><time>2026-04-14T11:13:06.999Z</time></trkpt><trkpt lat="38.014022230975804" lon="15.785436617304432"><ele>612.3333333333334</ele><time>2026-04-14T11:13:07.999Z</time></trkpt><trkpt lat="38.01402179298829" lon="15.785545309772658"><ele>609.6666666666667</ele><time>2026-04-14T11:13:08.999Z</time></trkpt><trkpt lat="38.01401631065324" lon="15.785652336615474"><ele>607.0</ele><time>2026-04-14T11:13:09.999Z</time></trkpt><trkpt lat="38.014021583403114" lon="15.785754658679114"><ele>607.0</ele><time>2026-04-14T11:13:10.999Z</time></trkpt><trkpt lat="38.01404154936504" lon="15.785854443063487"><ele>607.0</ele><time>2026-04-14T11:13:11.999Z</time></trkpt><trkpt lat="38.014036862966364" lon="15.785947422157998"><ele>607.0</ele><time>2026-04-14T11:13:12.999Z</time></trkpt><trkpt lat="38.01404301548389" lon="15.786054557717959"><ele>607.0</ele><time>2026-04-14T11:13:13.999Z</time></trkpt><trkpt lat="38.014048280955194" lon="15.786160144314753"><ele>607.0</ele><time>2026-04-14T11:13:14.999Z</time></trkpt><trkpt lat="38.014050730716065" lon="15.786256238878698"><ele>607.0</ele><time>2026-04-14T11:13:15.999Z</time></trkpt><trkpt lat="38.01405000437948" lon="15.786340386193753"><ele>604.8333333333334</ele><time>2026-04-14T11:13:16.999Z</time></trkpt><trkpt lat="38.01404496487953" lon="15.786420996721201"><ele>602.6666666666667</ele><time>2026-04-14T11:13:17.999Z</time></trkpt><trkpt lat="38.01402581171184" lon="15.786542569685826"><ele>600.5</ele><time>2026-04-14T11:13:19.999Z</time></trkpt><trkpt lat="38.01397770745928" lon="15.786678064821865"><ele>598.3333333333334</ele><time>2026-04-14T11:13:21.999Z</time></trkpt><trkpt lat="38.01394866131166" lon="15.786752636990085"><ele>596.1666666666666</ele><time>2026-04-14T11:13:22.999Z</time></trkpt><trkpt lat="38.013931755837895" lon="15.786836929700641"><ele>594.0</ele><time>2026-04-14T11:13:23.999Z</time></trkpt><trkpt lat="38.013949105370834" lon="15.786929872600194"><ele>592.0</ele><time>2026-04-14T11:13:24.999Z</time></trkpt><trkpt lat="38.013935590808316" lon="15.787034157304609"><ele>590.0</ele><time>2026-04-14T11:13:25.999Z</time></trkpt><trkpt lat="38.01390026515316" lon="15.787116703546145"><ele>588.0</ele><time>2026-04-14T11:13:26.999Z</time></trkpt><trkpt lat="38.013886691789715" lon="15.787207814971511"><ele>586.0</ele><time>2026-04-14T11:13:27.999Z</time></trkpt><trkpt lat="38.01388878179029" lon="15.787305112875828"><ele>584.0</ele><time>2026-04-14T11:13:28.999Z</time></trkpt><trkpt lat="38.013895301969754" lon="15.787415846599357"><ele>582.0</ele><time>2026-04-14T11:13:30.999Z</time></trkpt><trkpt lat="38.01387443486051" lon="15.78753529885457"><ele>580.75</ele><time>2026-04-14T11:13:33.999Z</time></trkpt><trkpt lat="38.01388073698888" lon="15.787710548441673"><ele>579.5</ele><time>2026-04-14T11:13:35.999Z</time></trkpt><trkpt lat="38.01388954984521" lon="15.787854294416942"><ele>578.25</ele><time>2026-04-14T11:13:37.999Z</time></trkpt><trkpt lat="38.01389812389041" lon="15.787980436551152"><ele>577.0</ele><time>2026-04-14T11:13:39.999Z</time></trkpt><trkpt lat="38.01387572708447" lon="15.788111774904639"><ele>577.0</ele><time>2026-04-14T11:13:41.999Z</time></trkpt><trkpt lat="38.01383945411887" lon="15.788232598986772"><ele>577.0</ele><time>2026-04-14T11:13:43.999Z</time></trkpt><trkpt lat="38.0138217727468" lon="15.788344335614994"><ele>577.0</ele><time>2026-04-14T11:13:45.999Z</time></trkpt><trkpt lat="38.01382378910287" lon="15.788482166563314"><ele>577.0</ele><time>2026-04-14T11:13:47.999Z</time></trkpt><trkpt lat="38.0138348514983" lon="15.7886176680611"><ele>577.0</ele><time>2026-04-14T11:13:49.999Z</time></trkpt><trkpt lat="38.01382206705969" lon="15.788769558813794"><ele>575.8000000000001</ele><time>2026-04-14T11:13:51.999Z</time></trkpt><trkpt lat="38.013794906741936" lon="15.788909616007745"><ele>574.6</ele><time>2026-04-14T11:13:53.999Z</time></trkpt><trkpt lat="38.01378553348022" lon="15.789052584938908"><ele>573.4000000000001</ele><time>2026-04-14T11:13:55.999Z</time></trkpt><trkpt lat="38.01378914136936" lon="15.789195921522118"><ele>572.2</ele><time>2026-04-14T11:13:57.999Z</time></trkpt><trkpt lat="38.0137942497362" lon="15.789333010136046"><ele>571.0</ele><time>2026-04-14T11:13:59.999Z</time></trkpt><trkpt lat="38.01380804628335" lon="15.789473201410905"><ele>569.7142857142858</ele><time>2026-04-14T11:14:01.999Z</time></trkpt><trkpt lat="38.013805634090794" lon="15.78955895453101"><ele>568.4285714285714</ele><time>2026-04-14T11:14:02.999Z</time></trkpt><trkpt lat="38.01381360356458" lon="15.78964088856684"><ele>567.1428571428571</ele><time>2026-04-14T11:14:03.999Z</time></trkpt><trkpt lat="38.01382806220956" lon="15.789732588219083"><ele>565.8571428571429</ele><time>2026-04-14T11:14:04.999Z</time></trkpt><trkpt lat="38.0138439292554" lon="15.789826759997352"><ele>564.5714285714286</ele><time>2026-04-14T11:14:05.999Z</time></trkpt><trkpt lat="38.01385854691827" lon="15.789913873939149"><ele>563.2857142857143</ele><time>2026-04-14T11:14:06.999Z</time></trkpt><trkpt lat="38.013876434558725" lon="15.790001580374662"><ele>562.0</ele><time>2026-04-14T11:14:07.999Z</time></trkpt><trkpt lat="38.01388761984696" lon="15.790087801788678"><ele>560.8333333333334</ele><time>2026-04-14T11:14:08.999Z</time></trkpt><trkpt lat="38.01388832653129" lon="15.79020502096379"><ele>559.6666666666667</ele><time>2026-04-14T11:14:09.999Z</time></trkpt><trkpt lat="38.01388299137963" lon="15.790301163113911"><ele>558.5</ele><time>2026-04-14T11:14:10.999Z</time></trkpt><trkpt lat="38.013874827103386" lon="15.790401488609964"><ele>557.3333333333334</ele><time>2026-04-14T11:14:11.999Z</time></trkpt><trkpt lat="38.013865068935345" lon="15.790504116566378"><ele>556.1666666666666</ele><time>2026-04-14T11:14:12.999Z</time></trkpt><trkpt lat="38.01386457545739" lon="15.790621747091567"><ele>555.0</ele><time>2026-04-14T11:14:13.999Z</time></trkpt><trkpt lat="38.013871010430094" lon="15.790747304852486"><ele>555.0</ele><time>2026-04-14T11:14:14.999Z</time></trkpt><trkpt lat="38.01387171438613" lon="15.790858930406715"><ele>555.0</ele><time>2026-04-14T11:14:15.999Z</time></trkpt><trkpt lat="38.01386736098477" lon="15.790981113692485"><ele>555.0</ele><time>2026-04-14T11:14:16.999Z</time></trkpt><trkpt lat="38.013859435109254" lon="15.791090601379057"><ele>555.0</ele><time>2026-04-14T11:14:17.999Z</time></trkpt><trkpt lat="38.01385894270635" lon="15.791178741373246"><ele>555.0</ele><time>2026-04-14T11:14:18.999Z</time></trkpt><trkpt lat="38.013863873824505" lon="15.79126323567259"><ele>555.0</ele><time>2026-04-14T11:14:19.999Z</time></trkpt><trkpt lat="38.01389425967807" lon="15.79134958572592"><ele>554.3333333333334</ele><time>2026-04-14T11:14:20.999Z</time></trkpt><trkpt lat="38.0139281528197" lon="15.79143261820466"><ele>553.6666666666666</ele><time>2026-04-14T11:14:21.999Z</time></trkpt><trkpt lat="38.01396720200735" lon="15.791549182231092"><ele>553.0</ele><time>2026-04-14T11:14:22.999Z</time></trkpt><trkpt lat="38.01399898874705" lon="15.791675101906884"><ele>552.3333333333333</ele><time>2026-04-14T11:14:23.999Z</time></trkpt><trkpt lat="38.0140104126938" lon="15.791758989284416"><ele>551.6666666666666</ele><time>2026-04-14T11:14:24.999Z</time></trkpt><trkpt lat="38.01402639999959" lon="15.791865087913504"><ele>551.0</ele><time>2026-04-14T11:14:25.999Z</time></trkpt><trkpt lat="38.014040775213864" lon="15.791973847942742"><ele>549.6</ele><time>2026-04-14T11:14:26.999Z</time></trkpt><trkpt lat="38.01404709599858" lon="15.792103964858232"><ele>548.2</ele><time>2026-04-14T11:14:27.999Z</time></trkpt><trkpt lat="38.0140452589151" lon="15.792226204683056"><ele>546.8</ele><time>2026-04-14T11:14:28.999Z</time></trkpt><trkpt lat="38.01402595887015" lon="15.792344462656477"><ele>545.4</ele><time>2026-04-14T11:14:29.999Z</time></trkpt><trkpt lat="38.01400580753998" lon="15.79244981453928"><ele>544.0</ele><time>2026-04-14T11:14:30.999Z</time></trkpt><trkpt lat="38.01400004805786" lon="15.792557158000882"><ele>544.0</ele><time>2026-04-14T11:14:31.999Z</time></trkpt><trkpt lat="38.01400498892152" lon="15.792666958155237"><ele>544.0</ele><time>2026-04-14T11:14:32.999Z</time></trkpt><trkpt lat="38.01399384283069" lon="15.792766064852307"><ele>544.0</ele><time>2026-04-14T11:14:33.999Z</time></trkpt><trkpt lat="38.01398146961651" lon="15.792868496132154"><ele>544.0</ele><time>2026-04-14T11:14:34.999Z</time></trkpt><trkpt lat="38.01391842346192" lon="15.792963937001618"><ele>544.0</ele><time>2026-04-14T11:14:35.999Z</time></trkpt><trkpt lat="38.01391183423388" lon="15.793061650187669"><ele>544.0</ele><time>2026-04-14T11:14:36.999Z</time></trkpt><trkpt lat="38.01392712855812" lon="15.793165120434137"><ele>543.0</ele><time>2026-04-14T11:14:37.999Z</time></trkpt><trkpt lat="38.01395355741792" lon="15.793257852010479"><ele>542.0</ele><time>2026-04-14T11:14:38.999Z</time></trkpt><trkpt lat="38.0139732867962" lon="15.79333458709149"><ele>541.0</ele><time>2026-04-14T11:14:39.999Z</time></trkpt><trkpt lat="38.01399103650406" lon="15.793413981484072"><ele>540.0</ele><time>2026-04-14T11:14:40.999Z</time></trkpt><trkpt lat="38.01401448843582" lon="15.793510285033772"><ele>539.0</ele><time>2026-04-14T11:14:41.999Z</time></trkpt><trkpt lat="38.01403346244953" lon="15.793594406588037"><ele>538.0</ele><time>2026-04-14T11:14:42.999Z</time></trkpt><trkpt lat="38.014072946259155" lon="15.793740672908479"><ele>538.0</ele><time>2026-04-14T11:14:44.999Z</time></trkpt><trkpt lat="38.01410762953821" lon="15.793900980200398"><ele>538.0</ele><time>2026-04-14T11:14:46.999Z</time></trkpt><trkpt lat="38.01412821062519" lon="15.793999414040147"><ele>538.0</ele><time>2026-04-14T11:14:47.999Z</time></trkpt><trkpt lat="38.01414827612702" lon="15.794095381880927"><ele>538.0</ele><time>2026-04-14T11:14:48.999Z</time></trkpt><trkpt lat="38.0141667001884" lon="15.794183499194265"><ele>538.0</ele><time>2026-04-14T11:14:49.999Z</time></trkpt><trkpt lat="38.01418119149424" lon="15.794270350457781"><ele>538.0</ele><time>2026-04-14T11:14:50.999Z</time></trkpt><trkpt lat="38.01419572557146" lon="15.794375975357394"><ele>534.6</ele><time>2026-04-14T11:14:51.999Z</time></trkpt><trkpt lat="38.01420555185197" lon="15.794485997334453"><ele>531.1999999999999</ele><time>2026-04-14T11:14:52.999Z</time></trkpt><trkpt lat="38.014224772970174" lon="15.794593495088527"><ele>527.8</ele><time>2026-04-14T11:14:53.999Z</time></trkpt><trkpt lat="38.014242319924236" lon="15.794707914229727"><ele>524.4</ele><time>2026-04-14T11:14:54.999Z</time></trkpt><trkpt lat="38.014262954421454" lon="15.794842221642993"><ele>521.0</ele><time>2026-04-14T11:14:55.999Z</time></trkpt><trkpt lat="38.01423581610744" lon="15.794987072339397"><ele>521.0</ele><time>2026-04-14T11:14:56.999Z</time></trkpt><trkpt lat="38.01425013949016" lon="15.795101970427517"><ele>521.0</ele><time>2026-04-14T11:14:57.999Z</time></trkpt><trkpt lat="38.014259657327706" lon="15.795210719975705"><ele>521.0</ele><time>2026-04-14T11:14:58.999Z</time></trkpt><trkpt lat="38.01427520576939" lon="15.795310123035348"><ele>521.0</ele><time>2026-04-14T11:14:59.999Z</time></trkpt><trkpt lat="38.01430049500769" lon="15.79540319380715"><ele>521.0</ele><time>2026-04-14T11:15:00.999Z</time></trkpt><trkpt lat="38.014305984403805" lon="15.795542648547512"><ele>521.0</ele><time>2026-04-14T11:15:02.999Z</time></trkpt><trkpt lat="38.014240160461114" lon="15.795661925244373"><ele>521.1666666666666</ele><time>2026-04-14T11:15:04.999Z</time></trkpt><trkpt lat="38.014190763458984" lon="15.795740042368022"><ele>521.3333333333333</ele><time>2026-04-14T11:15:05.999Z</time></trkpt><trkpt lat="38.014170951196924" lon="15.795843956342557"><ele>521.5</ele><time>2026-04-14T11:15:06.999Z</time></trkpt><trkpt lat="38.01417026808442" lon="15.79595727423659"><ele>521.6666666666666</ele><time>2026-04-14T11:15:07.999Z</time></trkpt><trkpt lat="38.014166521009344" lon="15.79606185916547"><ele>521.8333333333334</ele><time>2026-04-14T11:15:08.999Z</time></trkpt><trkpt lat="38.01416996318937" lon="15.796158248954596"><ele>522.0</ele><time>2026-04-14T11:15:09.999Z</time></trkpt><trkpt lat="38.01419051129097" lon="15.796247724618214"><ele>522.0</ele><time>2026-04-14T11:15:10.999Z</time></trkpt><trkpt lat="38.014223221225244" lon="15.796338429582036"><ele>522.0</ele><time>2026-04-14T11:15:11.999Z</time></trkpt><trkpt lat="38.01425756276033" lon="15.796431117972254"><ele>522.0</ele><time>2026-04-14T11:15:12.999Z</time></trkpt><trkpt lat="38.01429154841212" lon="15.796528502791793"><ele>522.0</ele><time>2026-04-14T11:15:13.999Z</time></trkpt><trkpt lat="38.01432675215969" lon="15.796624502296796"><ele>522.0</ele><time>2026-04-14T11:15:14.999Z</time></trkpt><trkpt lat="38.01436850770227" lon="15.79672645985682"><ele>522.0</ele><time>2026-04-14T11:15:15.999Z</time></trkpt><trkpt lat="38.01440413054855" lon="15.796824470550524"><ele>523.0</ele><time>2026-04-14T11:15:16.999Z</time></trkpt><trkpt lat="38.01442729442114" lon="15.796912433581031"><ele>524.0</ele><time>2026-04-14T11:15:17.999Z</time></trkpt><trkpt lat="38.01445890909644" lon="15.797000659003047"><ele>525.0</ele><time>2026-04-14T11:15:18.999Z</time></trkpt><trkpt lat="38.014499503737255" lon="15.79708052510341"><ele>526.0</ele><time>2026-04-14T11:15:19.999Z</time></trkpt><trkpt lat="38.01455177530922" lon="15.797148160197766"><ele>527.0</ele><time>2026-04-14T11:15:20.999Z</time></trkpt><trkpt lat="38.01461181431045" lon="15.797198378613437"><ele>528.0</ele><time>2026-04-14T11:15:21.999Z</time></trkpt><trkpt lat="38.01467129457511" lon="15.797245924820356"><ele>529.0</ele><time>2026-04-14T11:15:22.999Z</time></trkpt><trkpt lat="38.014732804967416" lon="15.797288070559278"><ele>529.0</ele><time>2026-04-14T11:15:23.999Z</time></trkpt><trkpt lat="38.01479889512752" lon="15.797324881756499"><ele>529.0</ele><time>2026-04-14T11:15:24.999Z</time></trkpt><trkpt lat="38.014870421692756" lon="15.797362322501852"><ele>529.0</ele><time>2026-04-14T11:15:25.999Z</time></trkpt><trkpt lat="38.01493722055051" lon="15.797394984538954"><ele>529.0</ele><time>2026-04-14T11:15:26.999Z</time></trkpt><trkpt lat="38.01500107859918" lon="15.79741141092517"><ele>529.0</ele><time>2026-04-14T11:15:27.999Z</time></trkpt><trkpt lat="38.01505840664894" lon="15.797444954815717"><ele>529.0</ele><time>2026-04-14T11:15:28.999Z</time></trkpt><trkpt lat="38.015099325026135" lon="15.797509136485086"><ele>529.0</ele><time>2026-04-14T11:15:29.999Z</time></trkpt><trkpt lat="38.015133965528186" lon="15.797594305394904"><ele>525.3333333333334</ele><time>2026-04-14T11:15:30.999Z</time></trkpt><trkpt lat="38.015172147766094" lon="15.797662127589556"><ele>521.6666666666667</ele><time>2026-04-14T11:15:31.999Z</time></trkpt><trkpt lat="38.01526526863326" lon="15.797761161609932"><ele>518.0</ele><time>2026-04-14T11:15:33.999Z</time></trkpt><trkpt lat="38.01531964741687" lon="15.797827961505359"><ele>514.3333333333334</ele><time>2026-04-14T11:15:34.999Z</time></trkpt><trkpt lat="38.01536592299484" lon="15.79788497307813"><ele>510.6666666666667</ele><time>2026-04-14T11:15:35.999Z</time></trkpt><trkpt lat="38.015391112482455" lon="15.797965002900616"><ele>507.0</ele><time>2026-04-14T11:15:36.999Z</time></trkpt><trkpt lat="38.01544432331138" lon="15.79810413102428"><ele>507.0</ele><time>2026-04-14T11:15:38.999Z</time></trkpt><trkpt lat="38.01548465557401" lon="15.798203210086541"><ele>507.00000000000006</ele><time>2026-04-14T11:15:39.999Z</time></trkpt><trkpt lat="38.0155333659638" lon="15.798322870578032"><ele>507.00000000000006</ele><time>2026-04-14T11:15:40.999Z</time></trkpt><trkpt lat="38.01559111003493" lon="15.798438247757014"><ele>507.0</ele><time>2026-04-14T11:15:41.999Z</time></trkpt><trkpt lat="38.015633378293074" lon="15.798551650482484"><ele>507.0</ele><time>2026-04-14T11:15:42.999Z</time></trkpt><trkpt lat="38.01567951639391" lon="15.798642340285719"><ele>504.8</ele><time>2026-04-14T11:15:43.999Z</time></trkpt><trkpt lat="38.015740206841265" lon="15.798740862731464"><ele>502.6</ele><time>2026-04-14T11:15:44.999Z</time></trkpt><trkpt lat="38.01580629195172" lon="15.798836611870723"><ele>500.40000000000003</ele><time>2026-04-14T11:15:45.999Z</time></trkpt><trkpt lat="38.01584584797835" lon="15.798930729531543"><ele>498.20000000000005</ele><time>2026-04-14T11:15:46.999Z</time></trkpt><trkpt lat="38.01590357671485" lon="15.799016235414955"><ele>496.0</ele><time>2026-04-14T11:15:47.999Z</time></trkpt><trkpt lat="38.01595008175911" lon="15.799135080675534"><ele>496.0</ele><time>2026-04-14T11:15:48.999Z</time></trkpt><trkpt lat="38.01600409889774" lon="15.799227572679177"><ele>496.0</ele><time>2026-04-14T11:15:49.999Z</time></trkpt><trkpt lat="38.016064554839026" lon="15.799321372692116"><ele>496.0</ele><time>2026-04-14T11:15:50.999Z</time></trkpt><trkpt lat="38.01616603595811" lon="15.799429849252341"><ele>496.0</ele><time>2026-04-14T11:15:51.999Z</time></trkpt><trkpt lat="38.01631651142613" lon="15.799501768423431"><ele>495.25</ele><time>2026-04-14T11:15:52.999Z</time></trkpt><trkpt lat="38.01644175114294" lon="15.799553757881547"><ele>494.5</ele><time>2026-04-14T11:15:53.999Z</time></trkpt><trkpt lat="38.01655968820159" lon="15.79960165051214"><ele>493.75</ele><time>2026-04-14T11:15:54.999Z</time></trkpt><trkpt lat="38.016658205867124" lon="15.799651267978547"><ele>493.0</ele><time>2026-04-14T11:15:55.999Z</time></trkpt><trkpt lat="38.01675008321736" lon="15.799703593613936"><ele>493.0</ele><time>2026-04-14T11:15:56.999Z</time></trkpt><trkpt lat="38.016829448912304" lon="15.79975085566884"><ele>492.99999999999994</ele><time>2026-04-14T11:15:57.999Z</time></trkpt><trkpt lat="38.016919524807186" lon="15.79980579055166"><ele>492.99999999999994</ele><time>2026-04-14T11:15:58.999Z</time></trkpt><trkpt lat="38.01700075398646" lon="15.79986188613599"><ele>493.0</ele><time>2026-04-14T11:15:59.999Z</time></trkpt><trkpt lat="38.01710921610797" lon="15.799937822041487"><ele>493.0</ele><time>2026-04-14T11:16:00.999Z</time></trkpt><trkpt lat="38.017248396718664" lon="15.800025553224106"><ele>493.0</ele><time>2026-04-14T11:16:01.999Z</time></trkpt><trkpt lat="38.017363390360664" lon="15.800093996799706"><ele>493.0</ele><time>2026-04-14T11:16:02.999Z</time></trkpt><trkpt lat="38.017485154649805" lon="15.800157792315016"><ele>493.0</ele><time>2026-04-14T11:16:03.999Z</time></trkpt><trkpt lat="38.01758783910005" lon="15.80022765257344"><ele>493.0</ele><time>2026-04-14T11:16:04.999Z</time></trkpt><trkpt lat="38.01768508943966" lon="15.800313739975172"><ele>490.4</ele><time>2026-04-14T11:16:05.999Z</time></trkpt><trkpt lat="38.01775368799087" lon="15.800387324766195"><ele>487.79999999999995</ele><time>2026-04-14T11:16:06.999Z</time></trkpt><trkpt lat="38.017816634794116" lon="15.800459927767198"><ele>485.2</ele><time>2026-04-14T11:16:07.999Z</time></trkpt><trkpt lat="38.017887325764924" lon="15.800546317439599"><ele>482.6</ele><time>2026-04-14T11:16:08.999Z</time></trkpt><trkpt lat="38.017953529554816" lon="15.800638341403555"><ele>480.0</ele><time>2026-04-14T11:16:09.999Z</time></trkpt><trkpt lat="38.01800445888728" lon="15.80073420247143"><ele>480.0</ele><time>2026-04-14T11:16:10.999Z</time></trkpt><trkpt lat="38.018079034888316" lon="15.80086769150661"><ele>480.0</ele><time>2026-04-14T11:16:12.999Z</time></trkpt><trkpt lat="38.01814511602979" lon="15.800953109632324"><ele>480.0</ele><time>2026-04-14T11:16:13.999Z</time></trkpt><trkpt lat="38.018207198542385" lon="15.80102383870589"><ele>480.0</ele><time>2026-04-14T11:16:14.999Z</time></trkpt><trkpt lat="38.01826693940382" lon="15.801089742396519"><ele>480.0</ele><time>2026-04-14T11:16:15.999Z</time></trkpt><trkpt lat="38.018326068336776" lon="15.801147917649422"><ele>478.0</ele><time>2026-04-14T11:16:16.999Z</time></trkpt><trkpt lat="38.01840489773142" lon="15.801221196892016"><ele>476.0</ele><time>2026-04-14T11:16:17.999Z</time></trkpt><trkpt lat="38.01848176429654" lon="15.801299508575458"><ele>474.0</ele><time>2026-04-14T11:16:18.999Z</time></trkpt><trkpt lat="38.01857934737768" lon="15.801368930182289"><ele>472.0</ele><time>2026-04-14T11:16:19.999Z</time></trkpt><trkpt lat="38.01865984909998" lon="15.801434684195035"><ele>470.0</ele><time>2026-04-14T11:16:20.999Z</time></trkpt><trkpt lat="38.01872346040665" lon="15.801493227907763"><ele>469.99999999999994</ele><time>2026-04-14T11:16:21.999Z</time></trkpt><trkpt lat="38.01878473151227" lon="15.80156049915348"><ele>470.0</ele><time>2026-04-14T11:16:22.999Z</time></trkpt><trkpt lat="38.01887030088347" lon="15.801601404222541"><ele>470.0</ele><time>2026-04-14T11:16:23.999Z</time></trkpt><trkpt lat="38.01893589249958" lon="15.801654876357698"><ele>470.0</ele><time>2026-04-14T11:16:24.999Z</time></trkpt><trkpt lat="38.01900270749266" lon="15.801715076677878"><ele>469.99999999999994</ele><time>2026-04-14T11:16:25.999Z</time></trkpt><trkpt lat="38.019091484669616" lon="15.801805241828097"><ele>470.0</ele><time>2026-04-14T11:16:27.999Z</time></trkpt><trkpt lat="38.01914072004365" lon="15.801855246149293"><ele>469.2</ele><time>2026-04-14T11:16:28.999Z</time></trkpt><trkpt lat="38.01920363923937" lon="15.801919147991338"><ele>468.4</ele><time>2026-04-14T11:16:29.999Z</time></trkpt><trkpt lat="38.01927215528737" lon="15.801986598165223"><ele>467.6</ele><time>2026-04-14T11:16:30.999Z</time></trkpt><trkpt lat="38.01933692828475" lon="15.802048457284501"><ele>466.8</ele><time>2026-04-14T11:16:31.999Z</time></trkpt><trkpt lat="38.01944551655843" lon="15.802144501440257"><ele>466.0</ele><time>2026-04-14T11:16:33.999Z</time></trkpt><trkpt lat="38.019511502185395" lon="15.802198268956952"><ele>466.0</ele><time>2026-04-14T11:16:34.999Z</time></trkpt><trkpt lat="38.01956832677965" lon="15.80224457169379"><ele>466.0</ele><time>2026-04-14T11:16:35.999Z</time></trkpt><trkpt lat="38.01962294370299" lon="15.80228810851548"><ele>466.0</ele><time>2026-04-14T11:16:36.999Z</time></trkpt><trkpt lat="38.019687869912154" lon="15.80233660948724"><ele>466.0</ele><time>2026-04-14T11:16:37.999Z</time></trkpt><trkpt lat="38.01979708415494" lon="15.802441846120821"><ele>466.0</ele><time>2026-04-14T11:16:38.999Z</time></trkpt><trkpt lat="38.019866133504046" lon="15.802554178449332"><ele>466.0</ele><time>2026-04-14T11:16:39.999Z</time></trkpt><trkpt lat="38.019933677676896" lon="15.802568364263571"><ele>466.0</ele><time>2026-04-14T11:16:40.999Z</time></trkpt><trkpt lat="38.0199973807466" lon="15.802641909463537"><ele>466.0</ele><time>2026-04-14T11:16:41.999Z</time></trkpt><trkpt lat="38.01998944622001" lon="15.802867682905374"><ele>466.0</ele><time>2026-04-14T11:16:42.999Z</time></trkpt><trkpt lat="38.02003344836659" lon="15.8029572182239"><ele>466.0</ele><time>2026-04-14T11:16:43.999Z</time></trkpt><trkpt lat="38.02008197657819" lon="15.803049299256541"><ele>463.1666666666667</ele><time>2026-04-14T11:16:44.999Z</time></trkpt><trkpt lat="38.020138402624696" lon="15.803104102891083"><ele>460.33333333333337</ele><time>2026-04-14T11:16:45.999Z</time></trkpt><trkpt lat="38.02018442763381" lon="15.803226096504698"><ele>457.5</ele><time>2026-04-14T11:16:47.999Z</time></trkpt><trkpt lat="38.02022719770678" lon="15.80329102660614"><ele>454.66666666666663</ele><time>2026-04-14T11:16:49.999Z</time></trkpt><trkpt lat="38.02027364389965" lon="15.803361537764179"><ele>451.8333333333333</ele><time>2026-04-14T11:17:10.999Z</time></trkpt><trkpt lat="38.020328986007975" lon="15.80344677919661"><ele>449.0</ele><time>2026-04-14T11:17:12.999Z</time></trkpt><trkpt lat="38.02037884583693" lon="15.803528389317771"><ele>448.0</ele><time>2026-04-14T11:17:14.999Z</time></trkpt><trkpt lat="38.020426495071376" lon="15.803586791805703"><ele>447.0</ele><time>2026-04-14T11:17:16.999Z</time></trkpt><trkpt lat="38.020443793954044" lon="15.803692805823603"><ele>446.0</ele><time>2026-04-14T11:17:18.999Z</time></trkpt><trkpt lat="38.020421277110415" lon="15.803785807317208"><ele>445.0</ele><time>2026-04-14T11:17:21.999Z</time></trkpt><trkpt lat="38.02052737602133" lon="15.80376458370248"><ele>444.0</ele><time>2026-04-14T11:17:23.999Z</time></trkpt><trkpt lat="38.020612953450716" lon="15.803667125496201"><ele>444.0</ele><time>2026-04-14T11:17:25.999Z</time></trkpt><trkpt lat="38.020674784837226" lon="15.803604782352203"><ele>444.0</ele><time>2026-04-14T11:17:26.999Z</time></trkpt><trkpt lat="38.020731134161075" lon="15.803535691859377"><ele>444.0</ele><time>2026-04-14T11:17:27.999Z</time></trkpt><trkpt lat="38.02077123762284" lon="15.803462803149442"><ele>444.0</ele><time>2026-04-14T11:17:28.999Z</time></trkpt><trkpt lat="38.02080109812868" lon="15.803391659939791"><ele>444.0</ele><time>2026-04-14T11:17:29.999Z</time></trkpt><trkpt lat="38.02083241324506" lon="15.80324849164964"><ele>444.0</ele><time>2026-04-14T11:17:31.999Z</time></trkpt><trkpt lat="38.02085114459646" lon="15.80314841682967"><ele>446.0</ele><time>2026-04-14T11:17:33.999Z</time></trkpt><trkpt lat="38.0209149801939" lon="15.803044007718796"><ele>448.0</ele><time>2026-04-14T11:17:44.999Z</time></trkpt><trkpt lat="38.020989926271795" lon="15.802934079441476"><ele>450.0</ele><time>2026-04-14T11:17:46.999Z</time></trkpt><trkpt lat="38.021081079210546" lon="15.802838841520659"><ele>452.0</ele><time>2026-04-14T11:17:48.999Z</time></trkpt><trkpt lat="38.021201571172995" lon="15.802767546141848"><ele>452.75</ele><time>2026-04-14T11:17:51Z</time></trkpt><trkpt lat="38.02123168125927" lon="15.802585816883598"><ele>453.5</ele><time>2026-04-14T11:17:52Z</time></trkpt><trkpt lat="38.021358653951" lon="15.802573513793131"><ele>454.25</ele><time>2026-04-14T11:17:54Z</time></trkpt><trkpt lat="38.02140139104007" lon="15.802474686570486"><ele>455.0</ele><time>2026-04-14T11:17:55Z</time></trkpt><trkpt lat="38.021473455028435" lon="15.802353354225396"><ele>455.0</ele><time>2026-04-14T11:17:56Z</time></trkpt><trkpt lat="38.02154695533125" lon="15.802273220340357"><ele>455.0</ele><time>2026-04-14T11:17:57Z</time></trkpt><trkpt lat="38.021639111142086" lon="15.802227476286422"><ele>455.0</ele><time>2026-04-14T11:17:58Z</time></trkpt><trkpt lat="38.021710814539816" lon="15.802183343899207"><ele>455.0</ele><time>2026-04-14T11:17:59Z</time></trkpt><trkpt lat="38.02179836739356" lon="15.802153009195115"><ele>455.0</ele><time>2026-04-14T11:18:00Z</time></trkpt><trkpt lat="38.02190664173238" lon="15.802094432863505"><ele>455.75</ele><time>2026-04-14T11:18:01Z</time></trkpt><trkpt lat="38.02203507712157" lon="15.802087122128512"><ele>456.5</ele><time>2026-04-14T11:18:02Z</time></trkpt><trkpt lat="38.022152101819806" lon="15.802064416997336"><ele>457.25</ele><time>2026-04-14T11:18:03Z</time></trkpt><trkpt lat="38.02225930708337" lon="15.802012374353758"><ele>458.0</ele><time>2026-04-14T11:18:04Z</time></trkpt><trkpt lat="38.02236722757751" lon="15.801977865057578"><ele>460.5</ele><time>2026-04-14T11:18:05Z</time></trkpt><trkpt lat="38.02248232444742" lon="15.801937005256432"><ele>463.0</ele><time>2026-04-14T11:18:06Z</time></trkpt><trkpt lat="38.02260179800773" lon="15.801899547571665"><ele>465.5</ele><time>2026-04-14T11:18:07Z</time></trkpt><trkpt lat="38.022707683083" lon="15.801844479976733"><ele>468.0</ele><time>2026-04-14T11:18:08Z</time></trkpt><trkpt lat="38.02281699677646" lon="15.801791479834803"><ele>468.0</ele><time>2026-04-14T11:18:09Z</time></trkpt><trkpt lat="38.02292504182395" lon="15.80175433587946"><ele>468.0</ele><time>2026-04-14T11:18:10Z</time></trkpt><trkpt lat="38.02304322333705" lon="15.80171560150762"><ele>468.0</ele><time>2026-04-14T11:18:11Z</time></trkpt><trkpt lat="38.02318000903763" lon="15.801672050699608"><ele>468.0</ele><time>2026-04-14T11:18:12Z</time></trkpt><trkpt lat="38.023330287016584" lon="15.801613975929051"><ele>470.33333333333337</ele><time>2026-04-14T11:18:13Z</time></trkpt><trkpt lat="38.02349480570013" lon="15.80155120113781"><ele>472.6666666666667</ele><time>2026-04-14T11:18:14Z</time></trkpt><trkpt lat="38.02363998320177" lon="15.80147788729698"><ele>475.0</ele><time>2026-04-14T11:18:15Z</time></trkpt><trkpt lat="38.02379079456945" lon="15.801452620396256"><ele>475.0</ele><time>2026-04-14T11:18:16Z</time></trkpt><trkpt lat="38.02390578988463" lon="15.801410319729989"><ele>475.0</ele><time>2026-04-14T11:18:17Z</time></trkpt><trkpt lat="38.02400681542611" lon="15.801356530090228"><ele>475.0</ele><time>2026-04-14T11:18:18Z</time></trkpt><trkpt lat="38.02410776116684" lon="15.80130659695508"><ele>475.0</ele><time>2026-04-14T11:18:19Z</time></trkpt><trkpt lat="38.024216246497" lon="15.801255939633547"><ele>476.4</ele><time>2026-04-14T11:18:20Z</time></trkpt><trkpt lat="38.024348154888166" lon="15.801218493676137"><ele>477.8</ele><time>2026-04-14T11:18:21Z</time></trkpt><trkpt lat="38.02445482007453" lon="15.801194217840031"><ele>479.20000000000005</ele><time>2026-04-14T11:18:22Z</time></trkpt><trkpt lat="38.02452438957464" lon="15.801157992064772"><ele>480.6</ele><time>2026-04-14T11:18:23Z</time></trkpt><trkpt lat="38.02458626576945" lon="15.801102407479826"><ele>482.0</ele><time>2026-04-14T11:18:24Z</time></trkpt><trkpt lat="38.024682084757124" lon="15.801017649201881"><ele>483.25</ele><time>2026-04-14T11:18:26Z</time></trkpt><trkpt lat="38.02478393796406" lon="15.80098236071123"><ele>484.5</ele><time>2026-04-14T11:18:28Z</time></trkpt><trkpt lat="38.02490200621872" lon="15.800880624750496"><ele>485.75</ele><time>2026-04-14T11:18:30Z</time></trkpt><trkpt lat="38.02500166671989" lon="15.80090011393319"><ele>487.0</ele><time>2026-04-14T11:18:31Z</time></trkpt><trkpt lat="38.02509500494973" lon="15.800969121391635"><ele>488.25</ele><time>2026-04-14T11:18:32Z</time></trkpt><trkpt lat="38.02518554050638" lon="15.801080924570897"><ele>489.5</ele><time>2026-04-14T11:18:33Z</time></trkpt><trkpt lat="38.02525250793748" lon="15.801131077387625"><ele>490.75</ele><time>2026-04-14T11:18:34Z</time></trkpt><trkpt lat="38.02539376673446" lon="15.801146101585154"><ele>492.0</ele><time>2026-04-14T11:18:36Z</time></trkpt><trkpt lat="38.025495817149576" lon="15.801111106260768"><ele>492.0</ele><time>2026-04-14T11:18:37Z</time></trkpt><trkpt lat="38.02559680683666" lon="15.801088787985634"><ele>492.0</ele><time>2026-04-14T11:18:38Z</time></trkpt><trkpt lat="38.02566847878451" lon="15.801110188043353"><ele>492.0</ele><time>2026-04-14T11:18:39Z</time></trkpt><trkpt lat="38.02575038740667" lon="15.801111713718596"><ele>492.0</ele><time>2026-04-14T11:18:40Z</time></trkpt><trkpt lat="38.02582570627712" lon="15.801121037684641"><ele>492.0</ele><time>2026-04-14T11:18:41Z</time></trkpt><trkpt lat="38.025903407053704" lon="15.801136467743657"><ele>492.0</ele><time>2026-04-14T11:18:42Z</time></trkpt><trkpt lat="38.0260034217448" lon="15.80110895335377"><ele>492.6</ele><time>2026-04-14T11:18:43Z</time></trkpt><trkpt lat="38.02610599332603" lon="15.80107906586819"><ele>493.20000000000005</ele><time>2026-04-14T11:18:44Z</time></trkpt><trkpt lat="38.02620943841864" lon="15.801056781265542"><ele>493.8</ele><time>2026-04-14T11:18:45Z</time></trkpt><trkpt lat="38.02631487069772" lon="15.801010764662477"><ele>494.4</ele><time>2026-04-14T11:18:46Z</time></trkpt><trkpt lat="38.026408999613025" lon="15.80094750764628"><ele>495.0</ele><time>2026-04-14T11:18:47Z</time></trkpt><trkpt lat="38.026502005168524" lon="15.800894103035171"><ele>495.0</ele><time>2026-04-14T11:18:48Z</time></trkpt><trkpt lat="38.02660279578165" lon="15.80084996395225"><ele>495.0</ele><time>2026-04-14T11:18:49Z</time></trkpt><trkpt lat="38.0267119069954" lon="15.800810967895115"><ele>495.0</ele><time>2026-04-14T11:18:50Z</time></trkpt><trkpt lat="38.026804029471904" lon="15.800767770622135"><ele>495.0</ele><time>2026-04-14T11:18:51Z</time></trkpt><trkpt lat="38.02690015224176" lon="15.80069825984038"><ele>495.0</ele><time>2026-04-14T11:18:52Z</time></trkpt><trkpt lat="38.02698708363728" lon="15.80060557899749"><ele>498.5</ele><time>2026-04-14T11:18:53Z</time></trkpt><trkpt lat="38.02708067155065" lon="15.8005137022447"><ele>502.0</ele><time>2026-04-14T11:18:54Z</time></trkpt><trkpt lat="38.02722163414503" lon="15.800480787958898"><ele>505.5</ele><time>2026-04-14T11:18:55Z</time></trkpt><trkpt lat="38.02733600735284" lon="15.800391462882963"><ele>509.0</ele><time>2026-04-14T11:18:56Z</time></trkpt><trkpt lat="38.02744694917456" lon="15.80030230264273"><ele>509.5</ele><time>2026-04-14T11:18:57Z</time></trkpt><trkpt lat="38.02756310308361" lon="15.800220809550039"><ele>510.0</ele><time>2026-04-14T11:18:58Z</time></trkpt><trkpt lat="38.02767704779353" lon="15.800152009618884"><ele>510.5</ele><time>2026-04-14T11:18:59Z</time></trkpt><trkpt lat="38.027784701466565" lon="15.800084120013404"><ele>511.0</ele><time>2026-04-14T11:19:00Z</time></trkpt><trkpt lat="38.02788436241532" lon="15.800015920366247"><ele>511.0</ele><time>2026-04-14T11:19:01Z</time></trkpt><trkpt lat="38.02796567628935" lon="15.79996062400092"><ele>511.0</ele><time>2026-04-14T11:19:02Z</time></trkpt><trkpt lat="38.02804108521762" lon="15.799908077700733"><ele>511.0</ele><time>2026-04-14T11:19:03Z</time></trkpt><trkpt lat="38.02810224680591" lon="15.799815788763066"><ele>511.0</ele><time>2026-04-14T11:19:04Z</time></trkpt><trkpt lat="38.02818102326183" lon="15.799708581335898"><ele>511.0</ele><time>2026-04-14T11:19:05Z</time></trkpt><trkpt lat="38.028283925814335" lon="15.799593311143358"><ele>513.0</ele><time>2026-04-14T11:19:06Z</time></trkpt><trkpt lat="38.028380640360886" lon="15.799466760665373"><ele>515.0</ele><time>2026-04-14T11:19:07Z</time></trkpt><trkpt lat="38.02845868939856" lon="15.79936218658239"><ele>517.0</ele><time>2026-04-14T11:19:08Z</time></trkpt><trkpt lat="38.028542103990546" lon="15.799257434793981"><ele>519.0</ele><time>2026-04-14T11:19:09Z</time></trkpt><trkpt lat="38.028636942478585" lon="15.79916583220004"><ele>519.0</ele><time>2026-04-14T11:19:10Z</time></trkpt><trkpt lat="38.0287290070297" lon="15.799090213093603"><ele>519.0</ele><time>2026-04-14T11:19:11Z</time></trkpt><trkpt lat="38.0288280801626" lon="15.799000828002658"><ele>519.0</ele><time>2026-04-14T11:19:12Z</time></trkpt><trkpt lat="38.02895618647813" lon="15.798971536700005"><ele>519.0</ele><time>2026-04-14T11:19:13Z</time></trkpt><trkpt lat="38.0290908535886" lon="15.798941364980017"><ele>522.75</ele><time>2026-04-14T11:19:14.001Z</time></trkpt><trkpt lat="38.02921839383945" lon="15.798882919579807"><ele>526.5</ele><time>2026-04-14T11:19:15.001Z</time></trkpt><trkpt lat="38.0293326798001" lon="15.798853840946494"><ele>530.25</ele><time>2026-04-14T11:19:16.001Z</time></trkpt><trkpt lat="38.029446203340285" lon="15.798871307714306"><ele>534.0</ele><time>2026-04-14T11:19:17.001Z</time></trkpt><trkpt lat="38.0295708453416" lon="15.79886870958562"><ele>534.0</ele><time>2026-04-14T11:19:18.001Z</time></trkpt><trkpt lat="38.02969713791212" lon="15.79885410130138"><ele>534.0</ele><time>2026-04-14T11:19:19.001Z</time></trkpt><trkpt lat="38.02984116770066" lon="15.798841372317437"><ele>534.0</ele><time>2026-04-14T11:19:20.001Z</time></trkpt><trkpt lat="38.02996080983866" lon="15.798827530218018"><ele>534.0</ele><time>2026-04-14T11:19:21.001Z</time></trkpt><trkpt lat="38.03004995475504" lon="15.798829268639906"><ele>537.1666666666666</ele><time>2026-04-14T11:19:22.001Z</time></trkpt><trkpt lat="38.03011974710116" lon="15.798854618029612"><ele>540.3333333333334</ele><time>2026-04-14T11:19:23.001Z</time></trkpt><trkpt lat="38.03018854133108" lon="15.798895679293459"><ele>543.5</ele><time>2026-04-14T11:19:24.001Z</time></trkpt><trkpt lat="38.03027746931707" lon="15.798945539787203"><ele>546.6666666666667</ele><time>2026-04-14T11:19:25.001Z</time></trkpt><trkpt lat="38.03035963857653" lon="15.798991173120243"><ele>549.8333333333334</ele><time>2026-04-14T11:19:26.001Z</time></trkpt><trkpt lat="38.03044404372647" lon="15.799018874318968"><ele>553.0</ele><time>2026-04-14T11:19:27.001Z</time></trkpt><trkpt lat="38.030525767416734" lon="15.79904889706706"><ele>553.0</ele><time>2026-04-14T11:19:28.001Z</time></trkpt><trkpt lat="38.03061141177841" lon="15.799085134351959"><ele>553.0</ele><time>2026-04-14T11:19:29.001Z</time></trkpt><trkpt lat="38.03070220066231" lon="15.799119047123279"><ele>553.0</ele><time>2026-04-14T11:19:30.001Z</time></trkpt><trkpt lat="38.03079049357371" lon="15.799147341857346"><ele>553.0</ele><time>2026-04-14T11:19:31.001Z</time></trkpt><trkpt lat="38.03087753340676" lon="15.799170848394416"><ele>553.0</ele><time>2026-04-14T11:19:32.001Z</time></trkpt><trkpt lat="38.030952756593365" lon="15.799175857388844"><ele>553.0</ele><time>2026-04-14T11:19:33.001Z</time></trkpt><trkpt lat="38.03102404971931" lon="15.799156198118306"><ele>555.5</ele><time>2026-04-14T11:20:06Z</time></trkpt><trkpt lat="38.03109879154508" lon="15.799140396719615"><ele>558.0</ele><time>2026-04-14T11:20:09Z</time></trkpt><trkpt lat="38.03102576036124" lon="15.799154411015321"><ele>560.5</ele><time>2026-04-14T11:24:48Z</time></trkpt><trkpt lat="38.031093825113146" lon="15.799139726765809"><ele>563.0</ele><time>2026-04-14T11:25:40.999Z</time></trkpt><trkpt lat="38.0311566226706" lon="15.799123165335594"><ele>565.5</ele><time>2026-04-14T11:26:20Z</time></trkpt><trkpt lat="38.031245691377904" lon="15.79911075160321"><ele>568.0</ele><time>2026-04-14T11:27:24.999Z</time></trkpt><trkpt lat="38.03135045125855" lon="15.799100573121358"><ele>568.0</ele><time>2026-04-14T11:27:26.999Z</time></trkpt><trkpt lat="38.03146864300495" lon="15.799091566964977"><ele>568.0</ele><time>2026-04-14T11:27:28.999Z</time></trkpt><trkpt lat="38.03153452269997" lon="15.799081979190937"><ele>568.0</ele><time>2026-04-14T11:27:29.999Z</time></trkpt><trkpt lat="38.031601387269305" lon="15.799096038915836"><ele>568.0</ele><time>2026-04-14T11:27:30.999Z</time></trkpt><trkpt lat="38.03166505461538" lon="15.799064584280739"><ele>568.0</ele><time>2026-04-14T11:27:31.999Z</time></trkpt><trkpt lat="38.03173005484029" lon="15.79905447217358"><ele>568.0</ele><time>2026-04-14T11:27:32.999Z</time></trkpt><trkpt lat="38.03184482789881" lon="15.799040901011113"><ele>569.0</ele><time>2026-04-14T11:27:34.999Z</time></trkpt><trkpt lat="38.031912261329815" lon="15.799037641003109"><ele>570.0</ele><time>2026-04-14T11:27:35.999Z</time></trkpt><trkpt lat="38.03197960799982" lon="15.799057855892451"><ele>571.0</ele><time>2026-04-14T11:27:36.999Z</time></trkpt><trkpt lat="38.03204281935216" lon="15.799087591709474"><ele>572.0</ele><time>2026-04-14T11:27:37.999Z</time></trkpt><trkpt lat="38.0320971093866" lon="15.799129040438762"><ele>573.0</ele><time>2026-04-14T11:27:38.999Z</time></trkpt><trkpt lat="38.03220331936127" lon="15.799157623394873"><ele>574.0</ele><time>2026-04-14T11:27:40.999Z</time></trkpt><trkpt lat="38.03229022093519" lon="15.799118883519379"><ele>574.0</ele><time>2026-04-14T11:27:42.999Z</time></trkpt><trkpt lat="38.03240206442948" lon="15.7991153922794"><ele>574.0</ele><time>2026-04-14T11:27:44.999Z</time></trkpt><trkpt lat="38.032468335875805" lon="15.79912226739495"><ele>574.0</ele><time>2026-04-14T11:27:45.999Z</time></trkpt><trkpt lat="38.03253300253196" lon="15.799122052196177"><ele>574.0</ele><time>2026-04-14T11:27:46.999Z</time></trkpt><trkpt lat="38.03260755432688" lon="15.799120825080212"><ele>574.0</ele><time>2026-04-14T11:27:47.999Z</time></trkpt><trkpt lat="38.03268471528642" lon="15.799112170631604"><ele>574.0</ele><time>2026-04-14T11:27:48.999Z</time></trkpt><trkpt lat="38.032765452489976" lon="15.799104142813075"><ele>575.6666666666667</ele><time>2026-04-14T11:27:49.999Z</time></trkpt><trkpt lat="38.03285095333632" lon="15.79908520347106"><ele>577.3333333333334</ele><time>2026-04-14T11:27:50.999Z</time></trkpt><trkpt lat="38.032935660598575" lon="15.79906768416345"><ele>579.0</ele><time>2026-04-14T11:27:51.999Z</time></trkpt><trkpt lat="38.03301548502089" lon="15.799052816912639"><ele>580.6666666666666</ele><time>2026-04-14T11:27:52.999Z</time></trkpt><trkpt lat="38.03310817082851" lon="15.799023687583215"><ele>582.3333333333333</ele><time>2026-04-14T11:27:53.999Z</time></trkpt><trkpt lat="38.03320462968378" lon="15.799006754660903"><ele>584.0</ele><time>2026-04-14T11:27:54.999Z</time></trkpt><trkpt lat="38.03329761915987" lon="15.79898058403551"><ele>586.2</ele><time>2026-04-14T11:27:55.999Z</time></trkpt><trkpt lat="38.03339169097962" lon="15.798974404991004"><ele>588.4</ele><time>2026-04-14T11:27:56.999Z</time></trkpt><trkpt lat="38.03346931673524" lon="15.798962417869397"><ele>590.6</ele><time>2026-04-14T11:27:57.999Z</time></trkpt><trkpt lat="38.033543954365236" lon="15.798951429151568"><ele>592.8</ele><time>2026-04-14T11:27:58.999Z</time></trkpt><trkpt lat="38.03365875209401" lon="15.798912118052453"><ele>595.0</ele><time>2026-04-14T11:28:00.999Z</time></trkpt><trkpt lat="38.033747988800016" lon="15.79883311628594"><ele>595.0</ele><time>2026-04-14T11:28:02.999Z</time></trkpt><trkpt lat="38.03383508488134" lon="15.798735528148576"><ele>595.0</ele><time>2026-04-14T11:28:04.999Z</time></trkpt><trkpt lat="38.03389652420864" lon="15.798713440155225"><ele>595.0</ele><time>2026-04-14T11:28:05.999Z</time></trkpt><trkpt lat="38.033966016867396" lon="15.798710156498554"><ele>595.0</ele><time>2026-04-14T11:28:06.999Z</time></trkpt><trkpt lat="38.03403795636367" lon="15.798799314765397"><ele>595.0</ele><time>2026-04-14T11:28:07.999Z</time></trkpt><trkpt lat="38.0341198689887" lon="15.798796798826494"><ele>595.0</ele><time>2026-04-14T11:28:08.999Z</time></trkpt><trkpt lat="38.03419528640657" lon="15.798797829768287"><ele>596.8333333333334</ele><time>2026-04-14T11:28:09.999Z</time></trkpt><trkpt lat="38.03427310317282" lon="15.798797216584965"><ele>598.6666666666667</ele><time>2026-04-14T11:28:10.999Z</time></trkpt><trkpt lat="38.03436004957357" lon="15.79879210816213"><ele>600.5</ele><time>2026-04-14T11:28:11.999Z</time></trkpt><trkpt lat="38.03443967262172" lon="15.798777597672887"><ele>602.3333333333334</ele><time>2026-04-14T11:28:12.999Z</time></trkpt><trkpt lat="38.03451249604912" lon="15.798742837204026"><ele>604.1666666666666</ele><time>2026-04-14T11:28:13.999Z</time></trkpt><trkpt lat="38.034599624341425" lon="15.798735112948206"><ele>606.0</ele><time>2026-04-14T11:28:14.999Z</time></trkpt><trkpt lat="38.03469029383934" lon="15.798757671051108"><ele>606.0</ele><time>2026-04-14T11:28:15.999Z</time></trkpt><trkpt lat="38.034772396443365" lon="15.798759270456388"><ele>606.0</ele><time>2026-04-14T11:28:16.999Z</time></trkpt><trkpt lat="38.03484579195728" lon="15.798733230203968"><ele>606.0</ele><time>2026-04-14T11:28:17.999Z</time></trkpt><trkpt lat="38.03492572981354" lon="15.798701964638429"><ele>606.0</ele><time>2026-04-14T11:28:18.999Z</time></trkpt><trkpt lat="38.03500559573009" lon="15.798667847261884"><ele>606.0</ele><time>2026-04-14T11:28:19.999Z</time></trkpt><trkpt lat="38.035087241080284" lon="15.798649193653006"><ele>606.0</ele><time>2026-04-14T11:28:20.999Z</time></trkpt><trkpt lat="38.03517735585911" lon="15.79861473487914"><ele>607.6666666666666</ele><time>2026-04-14T11:28:21.999Z</time></trkpt><trkpt lat="38.03525891023791" lon="15.798577196142848"><ele>609.3333333333334</ele><time>2026-04-14T11:28:22.999Z</time></trkpt><trkpt lat="38.035335308394785" lon="15.798531315435085"><ele>611.0</ele><time>2026-04-14T11:28:23.999Z</time></trkpt><trkpt lat="38.0354243657051" lon="15.798507875589609"><ele>612.6666666666667</ele><time>2026-04-14T11:28:24.999Z</time></trkpt><trkpt lat="38.03550457706988" lon="15.79847295863182"><ele>614.3333333333334</ele><time>2026-04-14T11:28:25.999Z</time></trkpt><trkpt lat="38.03559888343549" lon="15.79842374860105"><ele>616.0</ele><time>2026-04-14T11:28:26.999Z</time></trkpt><trkpt lat="38.03566654091109" lon="15.798385618959742"><ele>613.6666666666667</ele><time>2026-04-14T11:28:27.999Z</time></trkpt><trkpt lat="38.035744999099094" lon="15.798341043994618"><ele>611.3333333333334</ele><time>2026-04-14T11:28:28.999Z</time></trkpt><trkpt lat="38.03581362916049" lon="15.79828030606303"><ele>609.0</ele><time>2026-04-14T11:28:29.999Z</time></trkpt><trkpt lat="38.035887571914614" lon="15.798238471153661"><ele>606.6666666666666</ele><time>2026-04-14T11:28:30.999Z</time></trkpt><trkpt lat="38.03596588469258" lon="15.798194335875337"><ele>604.3333333333333</ele><time>2026-04-14T11:28:31.999Z</time></trkpt><trkpt lat="38.03603928952285" lon="15.79815688153589"><ele>602.0</ele><time>2026-04-14T11:28:32.999Z</time></trkpt><trkpt lat="38.036120746120304" lon="15.798108377942405"><ele>602.0</ele><time>2026-04-14T11:28:33.999Z</time></trkpt><trkpt lat="38.03618660315066" lon="15.79806987989755"><ele>602.0</ele><time>2026-04-14T11:28:34.999Z</time></trkpt><trkpt lat="38.03626227314186" lon="15.798028061958902"><ele>602.0</ele><time>2026-04-14T11:28:35.999Z</time></trkpt><trkpt lat="38.036331452351526" lon="15.797997662953504"><ele>602.0</ele><time>2026-04-14T11:28:36.999Z</time></trkpt><trkpt lat="38.036416392123414" lon="15.797958559762206"><ele>602.0</ele><time>2026-04-14T11:28:37.999Z</time></trkpt><trkpt lat="38.03648436610748" lon="15.797927129735607"><ele>602.0</ele><time>2026-04-14T11:28:38.999Z</time></trkpt><trkpt lat="38.03656230362187" lon="15.79789530322019"><ele>603.1428571428571</ele><time>2026-04-14T11:28:39.999Z</time></trkpt><trkpt lat="38.036642733491625" lon="15.797893690479016"><ele>604.2857142857142</ele><time>2026-04-14T11:28:40.999Z</time></trkpt><trkpt lat="38.036715916560716" lon="15.797849712747356"><ele>605.4285714285714</ele><time>2026-04-14T11:28:41.999Z</time></trkpt><trkpt lat="38.036792228510066" lon="15.797821989777965"><ele>606.5714285714286</ele><time>2026-04-14T11:28:42.999Z</time></trkpt><trkpt lat="38.03686323205486" lon="15.797794156883615"><ele>607.7142857142857</ele><time>2026-04-14T11:28:43.999Z</time></trkpt><trkpt lat="38.03692906121003" lon="15.797765444080115"><ele>608.8571428571429</ele><time>2026-04-14T11:28:44.999Z</time></trkpt><trkpt lat="38.03698663786031" lon="15.797729440172464"><ele>610.0</ele><time>2026-04-14T11:28:45.999Z</time></trkpt><trkpt lat="38.03705138718224" lon="15.797684462586389"><ele>608.4</ele><time>2026-04-14T11:28:46.999Z</time></trkpt><trkpt lat="38.03711235275215" lon="15.79766306453551"><ele>606.8</ele><time>2026-04-14T11:28:47.999Z</time></trkpt><trkpt lat="38.037212235193266" lon="15.797585117397691"><ele>605.2</ele><time>2026-04-14T11:28:49.999Z</time></trkpt><trkpt lat="38.03731677451792" lon="15.79753278363055"><ele>603.6</ele><time>2026-04-14T11:28:51.999Z</time></trkpt><trkpt lat="38.03741344096679" lon="15.797439884383522"><ele>602.0</ele><time>2026-04-14T11:28:53.999Z</time></trkpt><trkpt lat="38.03746595164163" lon="15.797390849029242"><ele>604.3333333333333</ele><time>2026-04-14T11:28:54.999Z</time></trkpt><trkpt lat="38.03758063656724" lon="15.797332545683894"><ele>606.6666666666666</ele><time>2026-04-14T11:28:56.999Z</time></trkpt><trkpt lat="38.037636843731065" lon="15.797290670262047"><ele>609.0</ele><time>2026-04-14T11:28:57.999Z</time></trkpt><trkpt lat="38.03770639283409" lon="15.797275797636214"><ele>611.3333333333334</ele><time>2026-04-14T11:28:58.999Z</time></trkpt><trkpt lat="38.03777558535406" lon="15.797250395684081"><ele>613.6666666666667</ele><time>2026-04-14T11:28:59.999Z</time></trkpt><trkpt lat="38.03784591450048" lon="15.797236171643679"><ele>616.0</ele><time>2026-04-14T11:29:00.999Z</time></trkpt><trkpt lat="38.037919917086285" lon="15.797221085108912"><ele>616.0</ele><time>2026-04-14T11:29:01.999Z</time></trkpt><trkpt lat="38.03799423909153" lon="15.797206566939536"><ele>616.0</ele><time>2026-04-14T11:29:02.999Z</time></trkpt><trkpt lat="38.038062544910815" lon="15.79719489968717"><ele>616.0</ele><time>2026-04-14T11:29:03.999Z</time></trkpt><trkpt lat="38.03812922902512" lon="15.797183509413193"><ele>616.0</ele><time>2026-04-14T11:29:04.999Z</time></trkpt><trkpt lat="38.03819919891766" lon="15.79717155787161"><ele>616.0</ele><time>2026-04-14T11:29:05.999Z</time></trkpt><trkpt lat="38.03827200970474" lon="15.79715912110061"><ele>616.0</ele><time>2026-04-14T11:29:06.999Z</time></trkpt><trkpt lat="38.03840769233014" lon="15.797137393153585"><ele>618.0</ele><time>2026-04-14T11:29:08.999Z</time></trkpt><trkpt lat="38.03847432506426" lon="15.797129086703917"><ele>620.0</ele><time>2026-04-14T11:29:09.999Z</time></trkpt><trkpt lat="38.03854204192117" lon="15.797124029443086"><ele>622.0</ele><time>2026-04-14T11:29:10.999Z</time></trkpt><trkpt lat="38.038667739846154" lon="15.797144213940584"><ele>624.0</ele><time>2026-04-14T11:29:12.999Z</time></trkpt><trkpt lat="38.03881499643357" lon="15.797148476312906"><ele>626.0</ele><time>2026-04-14T11:29:14.999Z</time></trkpt><trkpt lat="38.038888714157984" lon="15.79716919730372"><ele>626.0</ele><time>2026-04-14T11:29:15.999Z</time></trkpt><trkpt lat="38.038951441300526" lon="15.797086581537458"><ele>626.0</ele><time>2026-04-14T11:29:16.999Z</time></trkpt><trkpt lat="38.03901824686061" lon="15.797088329045465"><ele>626.0</ele><time>2026-04-14T11:29:17.999Z</time></trkpt><trkpt lat="38.03909898005322" lon="15.79709128566711"><ele>626.0</ele><time>2026-04-14T11:29:18.999Z</time></trkpt><trkpt lat="38.039165323123626" lon="15.79710246611231"><ele>626.0</ele><time>2026-04-14T11:29:19.999Z</time></trkpt><trkpt lat="38.03923515673169" lon="15.797114235259183"><ele>626.0</ele><time>2026-04-14T11:29:20.999Z</time></trkpt><trkpt lat="38.039335122287525" lon="15.797116112226657"><ele>628.0</ele><time>2026-04-14T11:29:22.999Z</time></trkpt><trkpt lat="38.039350901029565" lon="15.79742935590602"><ele>630.0</ele><time>2026-04-14T11:29:25.999Z</time></trkpt><trkpt lat="38.0394158873199" lon="15.79752281416369"><ele>632.0</ele><time>2026-04-14T11:29:27.999Z</time></trkpt><trkpt lat="38.039451785205905" lon="15.797645657645234"><ele>634.0</ele><time>2026-04-14T11:29:29.999Z</time></trkpt><trkpt lat="38.039479813138186" lon="15.797719308228224"><ele>635.1666666666667</ele><time>2026-04-14T11:29:30.999Z</time></trkpt><trkpt lat="38.03952154703856" lon="15.79779119650778"><ele>636.3333333333334</ele><time>2026-04-14T11:29:31.999Z</time></trkpt><trkpt lat="38.039556962983866" lon="15.797862132267017"><ele>637.5</ele><time>2026-04-14T11:29:32.999Z</time></trkpt><trkpt lat="38.039586672609346" lon="15.797937892082878"><ele>638.6666666666666</ele><time>2026-04-14T11:29:33.999Z</time></trkpt><trkpt lat="38.039608426403476" lon="15.798017034186541"><ele>639.8333333333333</ele><time>2026-04-14T11:29:34.999Z</time></trkpt><trkpt lat="38.03966408922535" lon="15.798147071222035"><ele>641.0</ele><time>2026-04-14T11:29:36.999Z</time></trkpt><trkpt lat="38.039725630153264" lon="15.798273223078164"><ele>641.0</ele><time>2026-04-14T11:29:38.999Z</time></trkpt><trkpt lat="38.03974048281517" lon="15.798366936876647"><ele>641.0</ele><time>2026-04-14T11:29:40.999Z</time></trkpt><trkpt lat="38.03984190258538" lon="15.798350014142647"><ele>641.0</ele><time>2026-04-14T11:29:42.999Z</time></trkpt><trkpt lat="38.039931246077295" lon="15.798321797901618"><ele>641.0</ele><time>2026-04-14T11:30:12.999Z</time></trkpt><trkpt lat="38.04004334020266" lon="15.79825481857006"><ele>641.0</ele><time>2026-04-14T11:30:14.999Z</time></trkpt><trkpt lat="38.040110211940814" lon="15.798266947029743"><ele>643.0</ele><time>2026-04-14T11:30:15.999Z</time></trkpt><trkpt lat="38.040179472468736" lon="15.798258830910642"><ele>645.0</ele><time>2026-04-14T11:30:16.999Z</time></trkpt><trkpt lat="38.04024420857371" lon="15.798225818802745"><ele>647.0</ele><time>2026-04-14T11:30:17.999Z</time></trkpt><trkpt lat="38.040312424725826" lon="15.798200523920523"><ele>649.0</ele><time>2026-04-14T11:30:18.999Z</time></trkpt><trkpt lat="38.040386866515625" lon="15.798195894001816"><ele>651.0</ele><time>2026-04-14T11:30:19.999Z</time></trkpt><trkpt lat="38.04045741050214" lon="15.79817129766862"><ele>653.0</ele><time>2026-04-14T11:30:20.999Z</time></trkpt><trkpt lat="38.040527276454995" lon="15.798146937722697"><ele>655.0</ele><time>2026-04-14T11:30:21.999Z</time></trkpt><trkpt lat="38.04059808233397" lon="15.798122250102614"><ele>655.0</ele><time>2026-04-14T11:30:22.999Z</time></trkpt><trkpt lat="38.040668511340016" lon="15.798097447522835"><ele>655.0</ele><time>2026-04-14T11:30:23.999Z</time></trkpt><trkpt lat="38.04073960323568" lon="15.798070950189567"><ele>655.0</ele><time>2026-04-14T11:30:24.999Z</time></trkpt><trkpt lat="38.040805290723476" lon="15.798025061875983"><ele>655.0</ele><time>2026-04-14T11:30:25.999Z</time></trkpt><trkpt lat="38.04088147448769" lon="15.798011220450562"><ele>655.0</ele><time>2026-04-14T11:30:26.999Z</time></trkpt><trkpt lat="38.04094771907575" lon="15.797957461667455"><ele>655.0</ele><time>2026-04-14T11:30:27.999Z</time></trkpt><trkpt lat="38.04102085122288" lon="15.797938295763474"><ele>659.0</ele><time>2026-04-14T11:30:28.999Z</time></trkpt><trkpt lat="38.04108957923612" lon="15.797901204462333"><ele>663.0</ele><time>2026-04-14T11:30:29.999Z</time></trkpt><trkpt lat="38.041160246509584" lon="15.797863687462002"><ele>667.0</ele><time>2026-04-14T11:30:30.999Z</time></trkpt><trkpt lat="38.04123046839677" lon="15.797826522051775"><ele>671.0</ele><time>2026-04-14T11:30:31.999Z</time></trkpt><trkpt lat="38.0413032534706" lon="15.797767612933034"><ele>675.0</ele><time>2026-04-14T11:30:32.999Z</time></trkpt><trkpt lat="38.041376472745256" lon="15.797734415759106"><ele>679.0</ele><time>2026-04-14T11:30:33.999Z</time></trkpt><trkpt lat="38.041449738700614" lon="15.797706155324157"><ele>679.0</ele><time>2026-04-14T11:30:34.999Z</time></trkpt><trkpt lat="38.0415152626504" lon="15.797694807853228"><ele>679.0</ele><time>2026-04-14T11:30:35.999Z</time></trkpt><trkpt lat="38.041636578604795" lon="15.797660728800487"><ele>679.0</ele><time>2026-04-14T11:30:37.999Z</time></trkpt><trkpt lat="38.04172269417704" lon="15.797656426233534"><ele>679.0</ele><time>2026-04-14T11:30:39.999Z</time></trkpt><trkpt lat="38.041620111864624" lon="15.797681765131031"><ele>679.0</ele><time>2026-04-14T11:30:43.999Z</time></trkpt><trkpt lat="38.0414988426492" lon="15.797699656958555"><ele>679.0</ele><time>2026-04-14T11:30:45.999Z</time></trkpt><trkpt lat="38.041428364939264" lon="15.797714260105995"><ele>679.0</ele><time>2026-04-14T11:30:46.999Z</time></trkpt><trkpt lat="38.04137516826657" lon="15.797944655015511"><ele>679.0</ele><time>2026-04-14T11:30:47.999Z</time></trkpt><trkpt lat="38.04131333173355" lon="15.798024125785563"><ele>679.0</ele><time>2026-04-14T11:30:48.999Z</time></trkpt><trkpt lat="38.04125485165029" lon="15.79810267287427"><ele>679.0</ele><time>2026-04-14T11:30:49.999Z</time></trkpt><trkpt lat="38.041205466199074" lon="15.798176372754906"><ele>679.0</ele><time>2026-04-14T11:30:50.999Z</time></trkpt><trkpt lat="38.041202918477936" lon="15.798288203740658"><ele>679.0</ele><time>2026-04-14T11:30:52.999Z</time></trkpt><trkpt lat="38.04125792845109" lon="15.798336073228326"><ele>679.0</ele><time>2026-04-14T11:30:54.999Z</time></trkpt><trkpt lat="38.0413236560274" lon="15.798381006435509"><ele>679.0</ele><time>2026-04-14T11:31:13.999Z</time></trkpt><trkpt lat="38.04139426346396" lon="15.798440897544264"><ele>679.0</ele><time>2026-04-14T11:31:15.999Z</time></trkpt><trkpt lat="38.04148086992087" lon="15.79850770586538"><ele>679.0</ele><time>2026-04-14T11:31:17.999Z</time></trkpt><trkpt lat="38.04157030929129" lon="15.798601542306473"><ele>678.0</ele><time>2026-04-14T11:31:19.999Z</time></trkpt><trkpt lat="38.04161987706731" lon="15.798657314117284"><ele>677.0</ele><time>2026-04-14T11:31:20.999Z</time></trkpt><trkpt lat="38.04170209662909" lon="15.79874719319265"><ele>676.0</ele><time>2026-04-14T11:31:22.999Z</time></trkpt><trkpt lat="38.04177858409783" lon="15.798840619856303"><ele>675.0</ele><time>2026-04-14T11:31:24.999Z</time></trkpt><trkpt lat="38.041839205794055" lon="15.79895081860484"><ele>674.0</ele><time>2026-04-14T11:31:26.999Z</time></trkpt><trkpt lat="38.041880438068596" lon="15.799089446787457"><ele>680.6</ele><time>2026-04-14T11:31:28.999Z</time></trkpt><trkpt lat="38.0419165003197" lon="15.799232154205702"><ele>687.2</ele><time>2026-04-14T11:31:30.999Z</time></trkpt><trkpt lat="38.041948936821335" lon="15.799357733849797"><ele>693.8000000000001</ele><time>2026-04-14T11:31:32.999Z</time></trkpt><trkpt lat="38.04199078875563" lon="15.799488605643168"><ele>700.4000000000001</ele><time>2026-04-14T11:31:34.999Z</time></trkpt><trkpt lat="38.042019773673196" lon="15.79960126374585"><ele>707.0</ele><time>2026-04-14T11:31:36.999Z</time></trkpt><trkpt lat="38.042114102157626" lon="15.79959490335091"><ele>707.0</ele><time>2026-04-14T11:31:39.999Z</time></trkpt><trkpt lat="38.04211337730233" lon="15.799500269669736"><ele>707.0</ele><time>2026-04-14T11:31:41.999Z</time></trkpt><trkpt lat="38.0420831455814" lon="15.79935990670916"><ele>707.0</ele><time>2026-04-14T11:31:43.999Z</time></trkpt><trkpt lat="38.04207652505507" lon="15.799211211661135"><ele>707.0</ele><time>2026-04-14T11:31:45.999Z</time></trkpt><trkpt lat="38.042095114300416" lon="15.799062477248892"><ele>707.0</ele><time>2026-04-14T11:31:47.999Z</time></trkpt><trkpt lat="38.04210633072252" lon="15.798928438581335"><ele>707.4000000000001</ele><time>2026-04-14T11:31:49.999Z</time></trkpt><trkpt lat="38.04210607172236" lon="15.79879756168052"><ele>707.8000000000001</ele><time>2026-04-14T11:31:51.999Z</time></trkpt><trkpt lat="38.042077047921346" lon="15.798668128770784"><ele>708.2</ele><time>2026-04-14T11:31:53.999Z</time></trkpt><trkpt lat="38.04204084211757" lon="15.798523349712836"><ele>708.6</ele><time>2026-04-14T11:31:55.999Z</time></trkpt><trkpt lat="38.04204171106" lon="15.798375497679872"><ele>709.0</ele><time>2026-04-14T11:31:57.999Z</time></trkpt><trkpt lat="38.04214307560738" lon="15.79827438371103"><ele>710.0</ele><time>2026-04-14T11:31:59.999Z</time></trkpt><trkpt lat="38.04220804531845" lon="15.798228600923471"><ele>711.0</ele><time>2026-04-14T11:32:00.999Z</time></trkpt><trkpt lat="38.04225949454871" lon="15.798179654689479"><ele>712.0</ele><time>2026-04-14T11:32:01.999Z</time></trkpt><trkpt lat="38.04236170808662" lon="15.798103579635674"><ele>713.0</ele><time>2026-04-14T11:32:03.999Z</time></trkpt><trkpt lat="38.042425537398216" lon="15.798092942158284"><ele>714.0</ele><time>2026-04-14T11:32:04.999Z</time></trkpt><trkpt lat="38.042548615075226" lon="15.798077242206631"><ele>715.0</ele><time>2026-04-14T11:32:06.999Z</time></trkpt><trkpt lat="38.04265825313276" lon="15.798048783884266"><ele>723.6</ele><time>2026-04-14T11:32:08.999Z</time></trkpt><trkpt lat="38.042726076825126" lon="15.797997881167595"><ele>732.2</ele><time>2026-04-14T11:32:10.999Z</time></trkpt><trkpt lat="38.042770261812244" lon="15.797898600358797"><ele>740.8</ele><time>2026-04-14T11:32:12.999Z</time></trkpt><trkpt lat="38.042814944186894" lon="15.797778460555019"><ele>749.4</ele><time>2026-04-14T11:32:14.999Z</time></trkpt><trkpt lat="38.04289507181841" lon="15.797710083933941"><ele>758.0</ele><time>2026-04-14T11:32:16.999Z</time></trkpt><trkpt lat="38.042981194721705" lon="15.797742288619839"><ele>758.0</ele><time>2026-04-14T11:32:18.999Z</time></trkpt><trkpt lat="38.04304957139684" lon="15.797810530401847"><ele>758.0</ele><time>2026-04-14T11:32:20.999Z</time></trkpt><trkpt lat="38.043124801454766" lon="15.79786435782684"><ele>758.0</ele><time>2026-04-14T11:32:22.999Z</time></trkpt><trkpt lat="38.04323034581626" lon="15.79791561674861"><ele>758.0</ele><time>2026-04-14T11:32:24.999Z</time></trkpt><trkpt lat="38.04332600542866" lon="15.797948761671144"><ele>758.0</ele><time>2026-04-14T11:32:26.999Z</time></trkpt><trkpt lat="38.043415611264614" lon="15.797968561843069"><ele>758.0</ele><time>2026-04-14T11:32:28.999Z</time></trkpt><trkpt lat="38.04340644463202" lon="15.79806008996365"><ele>758.0</ele><time>2026-04-14T11:32:30.999Z</time></trkpt><trkpt lat="38.043320712064975" lon="15.798074905824867"><ele>758.0</ele><time>2026-04-14T11:32:33.999Z</time></trkpt><trkpt lat="38.04324380584978" lon="15.798073811942745"><ele>758.0</ele><time>2026-04-14T11:32:35.999Z</time></trkpt><trkpt lat="38.043144990224135" lon="15.798097524137228"><ele>758.0</ele><time>2026-04-14T11:32:37.999Z</time></trkpt><trkpt lat="38.04304221874394" lon="15.798129025990741"><ele>758.0</ele><time>2026-04-14T11:32:39.999Z</time></trkpt><trkpt lat="38.04295314725006" lon="15.798204477401343"><ele>758.0</ele><time>2026-04-14T11:32:41.999Z</time></trkpt><trkpt lat="38.04291803858905" lon="15.798281326306215"><ele>758.0</ele><time>2026-04-14T11:32:42.999Z</time></trkpt><trkpt lat="38.042887339104276" lon="15.798357622157031"><ele>758.0</ele><time>2026-04-14T11:32:43.999Z</time></trkpt><trkpt lat="38.04280908919407" lon="15.798472532593411"><ele>758.0</ele><time>2026-04-14T11:32:45.999Z</time></trkpt><trkpt lat="38.04275482752529" lon="15.798588930632588"><ele>758.0</ele><time>2026-04-14T11:32:47.999Z</time></trkpt><trkpt lat="38.04275701145243" lon="15.798669152746344"><ele>758.0</ele><time>2026-04-14T11:32:49.999Z</time></trkpt><trkpt lat="38.042822694939346" lon="15.798655297419135"><ele>758.0</ele><time>2026-04-14T11:32:51.999Z</time></trkpt><trkpt lat="38.04290610761621" lon="15.798554566788367"><ele>758.0</ele><time>2026-04-14T11:32:53.999Z</time></trkpt><trkpt lat="38.04294634131788" lon="15.79848527447482"><ele>758.0</ele><time>2026-04-14T11:32:54.999Z</time></trkpt><trkpt lat="38.04299891264091" lon="15.798439083307208"><ele>758.0</ele><time>2026-04-14T11:32:55.999Z</time></trkpt><trkpt lat="38.04306405318608" lon="15.79841114089682"><ele>758.0</ele><time>2026-04-14T11:32:56.999Z</time></trkpt><trkpt lat="38.04313479247855" lon="15.798404727262517"><ele>758.0</ele><time>2026-04-14T11:32:57.999Z</time></trkpt><trkpt lat="38.043205348480015" lon="15.798422572537797"><ele>758.0</ele><time>2026-04-14T11:32:58.999Z</time></trkpt><trkpt lat="38.0432719268615" lon="15.798452066601952"><ele>758.0</ele><time>2026-04-14T11:32:59.999Z</time></trkpt><trkpt lat="38.043338000920144" lon="15.798478093130232"><ele>758.0</ele><time>2026-04-14T11:33:00.999Z</time></trkpt><trkpt lat="38.043429886280535" lon="15.798504900029494"><ele>758.0</ele><time>2026-04-14T11:33:02.999Z</time></trkpt><trkpt lat="38.043385347008844" lon="15.798591008619816"><ele>758.0</ele><time>2026-04-14T11:33:06.999Z</time></trkpt><trkpt lat="38.04327894254142" lon="15.798573333762755"><ele>758.0</ele><time>2026-04-14T11:33:08.999Z</time></trkpt><trkpt lat="38.043177921997845" lon="15.798609911545187"><ele>758.6666666666666</ele><time>2026-04-14T11:33:10.999Z</time></trkpt><trkpt lat="38.04310903621425" lon="15.798708852442696"><ele>759.3333333333333</ele><time>2026-04-14T11:33:12.999Z</time></trkpt><trkpt lat="38.04309430060643" lon="15.798803384983817"><ele>760.0</ele><time>2026-04-14T11:33:14.999Z</time></trkpt><trkpt lat="38.04313230154652" lon="15.798878706624652"><ele>760.6666666666666</ele><time>2026-04-14T11:33:16.999Z</time></trkpt><trkpt lat="38.04323380573053" lon="15.798948110076362"><ele>761.3333333333334</ele><time>2026-04-14T11:33:18.999Z</time></trkpt><trkpt lat="38.0432960286008" lon="15.798979600035036"><ele>762.0</ele><time>2026-04-14T11:33:19.999Z</time></trkpt><trkpt lat="38.04336162128387" lon="15.798993904381675"><ele>769.1666666666666</ele><time>2026-04-14T11:33:20.999Z</time></trkpt><trkpt lat="38.04344706364667" lon="15.79901934337561"><ele>776.3333333333333</ele><time>2026-04-14T11:33:21.999Z</time></trkpt><trkpt lat="38.04352535386767" lon="15.799049855957458"><ele>783.5</ele><time>2026-04-14T11:33:22.999Z</time></trkpt><trkpt lat="38.04360319742705" lon="15.799095245577531"><ele>790.6666666666666</ele><time>2026-04-14T11:33:23.999Z</time></trkpt><trkpt lat="38.04366685479557" lon="15.799148826037758"><ele>797.8333333333333</ele><time>2026-04-14T11:33:24.999Z</time></trkpt><trkpt lat="38.043715571280046" lon="15.799214827815943"><ele>805.0</ele><time>2026-04-14T11:33:25.999Z</time></trkpt><trkpt lat="38.043775963645245" lon="15.79929139327535"><ele>801.8571428571429</ele><time>2026-04-14T11:33:26.999Z</time></trkpt><trkpt lat="38.04381816843714" lon="15.799361740556575"><ele>798.7142857142858</ele><time>2026-04-14T11:33:27.999Z</time></trkpt><trkpt lat="38.04386579726979" lon="15.799426685292818"><ele>795.5714285714286</ele><time>2026-04-14T11:33:28.999Z</time></trkpt><trkpt lat="38.043907347214876" lon="15.799508724813373"><ele>792.4285714285714</ele><time>2026-04-14T11:33:30Z</time></trkpt><trkpt lat="38.04395443468484" lon="15.799577872766857"><ele>789.2857142857143</ele><time>2026-04-14T11:33:31Z</time></trkpt><trkpt lat="38.043997910057186" lon="15.799640205663087"><ele>786.1428571428571</ele><time>2026-04-14T11:33:32Z</time></trkpt><trkpt lat="38.04405109143348" lon="15.799693928230058"><ele>783.0</ele><time>2026-04-14T11:33:33Z</time></trkpt><trkpt lat="38.044110772638156" lon="15.79973752490226"><ele>791.0</ele><time>2026-04-14T11:33:34Z</time></trkpt><trkpt lat="38.044226657022634" lon="15.799798847871115"><ele>799.0</ele><time>2026-04-14T11:33:36Z</time></trkpt><trkpt lat="38.04430357913982" lon="15.799839909594207"><ele>807.0</ele><time>2026-04-14T11:33:37Z</time></trkpt><trkpt lat="38.04436983940581" lon="15.799882593317601"><ele>815.0</ele><time>2026-04-14T11:33:38Z</time></trkpt><trkpt lat="38.04442336399772" lon="15.799940723360779"><ele>823.0</ele><time>2026-04-14T11:33:39Z</time></trkpt><trkpt lat="38.04446000716944" lon="15.800023105673228"><ele>831.0</ele><time>2026-04-14T11:33:40Z</time></trkpt><trkpt lat="38.04448530573888" lon="15.800105740887101"><ele>833.0</ele><time>2026-04-14T11:33:41Z</time></trkpt><trkpt lat="38.044552846351536" lon="15.800199018773517"><ele>835.0</ele><time>2026-04-14T11:33:43Z</time></trkpt><trkpt lat="38.04466810927119" lon="15.800257699441497"><ele>837.0</ele><time>2026-04-14T11:33:45Z</time></trkpt><trkpt lat="38.04472850877982" lon="15.800288216578208"><ele>839.0</ele><time>2026-04-14T11:33:46Z</time></trkpt><trkpt lat="38.04477923678479" lon="15.800344650880007"><ele>841.0</ele><time>2026-04-14T11:33:48Z</time></trkpt><trkpt lat="38.04477346914717" lon="15.800466486885316"><ele>841.0</ele><time>2026-04-14T11:33:50Z</time></trkpt><trkpt lat="38.044694942922646" lon="15.800539148117812"><ele>841.0</ele><time>2026-04-14T11:33:52Z</time></trkpt><trkpt lat="38.04461538936139" lon="15.80064840727819"><ele>841.0</ele><time>2026-04-14T11:33:53.999Z</time></trkpt><trkpt lat="38.04458090871449" lon="15.800762190699167"><ele>841.0</ele><time>2026-04-14T11:33:55.999Z</time></trkpt><trkpt lat="38.04449723220761" lon="15.800831140486832"><ele>841.0</ele><time>2026-04-14T11:33:57.999Z</time></trkpt><trkpt lat="38.04443068132027" lon="15.800873051328034"><ele>840.9999999999999</ele><time>2026-04-14T11:33:58.999Z</time></trkpt><trkpt lat="38.044361893742625" lon="15.800915855665764"><ele>841.0</ele><time>2026-04-14T11:33:59.999Z</time></trkpt><trkpt lat="38.04428103128361" lon="15.80098210922744"><ele>841.0</ele><time>2026-04-14T11:34:01.999Z</time></trkpt><trkpt lat="38.0442911559941" lon="15.801072234518552"><ele>841.0</ele><time>2026-04-14T11:34:03.999Z</time></trkpt><trkpt lat="38.0443739508117" lon="15.801064519314762"><ele>840.9999999999999</ele><time>2026-04-14T11:34:05.999Z</time></trkpt><trkpt lat="38.04443355000656" lon="15.801013801834767"><ele>841.0</ele><time>2026-04-14T11:34:06.999Z</time></trkpt><trkpt lat="38.04450598735979" lon="15.800936885922635"><ele>840.9999999999999</ele><time>2026-04-14T11:34:07.999Z</time></trkpt><trkpt lat="38.04458123212215" lon="15.800901544534463"><ele>841.0</ele><time>2026-04-14T11:34:08.999Z</time></trkpt><trkpt lat="38.044655510725754" lon="15.800873640451446"><ele>841.0</ele><time>2026-04-14T11:34:09.999Z</time></trkpt><trkpt lat="38.044770350133" lon="15.800778715345704"><ele>841.0</ele><time>2026-04-14T11:34:11.999Z</time></trkpt><trkpt lat="38.044838265887876" lon="15.800740429747254"><ele>840.9999999999999</ele><time>2026-04-14T11:34:12.999Z</time></trkpt><trkpt lat="38.044902527321334" lon="15.800743274853382"><ele>841.0</ele><time>2026-04-14T11:34:13.999Z</time></trkpt><trkpt lat="38.044975695118254" lon="15.800754899122028"><ele>847.8</ele><time>2026-04-14T11:34:14.999Z</time></trkpt><trkpt lat="38.04504656178172" lon="15.800754989383428"><ele>854.5999999999999</ele><time>2026-04-14T11:34:15.999Z</time></trkpt><trkpt lat="38.04511408733583" lon="15.800745302593429"><ele>861.4</ele><time>2026-04-14T11:34:16.999Z</time></trkpt><trkpt lat="38.04521207361905" lon="15.80065262872437"><ele>868.2</ele><time>2026-04-14T11:34:18.999Z</time></trkpt><trkpt lat="38.04528503011" lon="15.800544428749818"><ele>875.0</ele><time>2026-04-14T11:34:20.999Z</time></trkpt><trkpt lat="38.0453355905616" lon="15.800428627079249"><ele>875.0000000000001</ele><time>2026-04-14T11:34:22.999Z</time></trkpt><trkpt lat="38.04526444247361" lon="15.800325862911611"><ele>875.0</ele><time>2026-04-14T11:34:24.999Z</time></trkpt><trkpt lat="38.04521081357932" lon="15.800259778943522"><ele>875.0</ele><time>2026-04-14T11:34:25.999Z</time></trkpt><trkpt lat="38.045168920908075" lon="15.800198999016523"><ele>875.0</ele><time>2026-04-14T11:34:26.999Z</time></trkpt><trkpt lat="38.04514245014934" lon="15.800117403852996"><ele>875.0000000000001</ele><time>2026-04-14T11:34:27.999Z</time></trkpt><trkpt lat="38.04511278491161" lon="15.800025565660775"><ele>875.0</ele><time>2026-04-14T11:34:28.999Z</time></trkpt><trkpt lat="38.045072081941676" lon="15.799929657224157"><ele>875.4285714285714</ele><time>2026-04-14T11:34:29.999Z</time></trkpt><trkpt lat="38.04504429438055" lon="15.799852723795057"><ele>875.8571428571429</ele><time>2026-04-14T11:34:30.999Z</time></trkpt><trkpt lat="38.04501194813516" lon="15.799777749519754"><ele>876.2857142857142</ele><time>2026-04-14T11:34:31.999Z</time></trkpt><trkpt lat="38.0449913079336" lon="15.79969679599563"><ele>876.7142857142858</ele><time>2026-04-14T11:34:33Z</time></trkpt><trkpt lat="38.04500349300338" lon="15.799576303845825"><ele>877.1428571428571</ele><time>2026-04-14T11:34:35Z</time></trkpt><trkpt lat="38.04507444228221" lon="15.799620249506829"><ele>877.5714285714286</ele><time>2026-04-14T11:34:39Z</time></trkpt><trkpt lat="38.04509848694148" lon="15.799697763861891"><ele>878.0</ele><time>2026-04-14T11:34:40Z</time></trkpt><trkpt lat="38.04512797378951" lon="15.79981195274143"><ele>878.0000000000001</ele><time>2026-04-14T11:34:42Z</time></trkpt><trkpt lat="38.045222836762" lon="15.79989094611533"><ele>878.0</ele><time>2026-04-14T11:34:44Z</time></trkpt><trkpt lat="38.04527711407864" lon="15.799939277710855"><ele>878.0</ele><time>2026-04-14T11:34:45Z</time></trkpt><trkpt lat="38.045327051935956" lon="15.799997009513202"><ele>878.0</ele><time>2026-04-14T11:34:46Z</time></trkpt><trkpt lat="38.04537036257147" lon="15.800064774860667"><ele>878.0000000000001</ele><time>2026-04-14T11:34:47Z</time></trkpt><trkpt lat="38.045417635682064" lon="15.800134379779255"><ele>878.0</ele><time>2026-04-14T11:34:48Z</time></trkpt><trkpt lat="38.045513714684475" lon="15.800207811985377"><ele>877.5714285714286</ele><time>2026-04-14T11:34:50Z</time></trkpt><trkpt lat="38.04557585732794" lon="15.800236493436405"><ele>877.1428571428571</ele><time>2026-04-14T11:34:51Z</time></trkpt><trkpt lat="38.0456386755577" lon="15.800245794457398"><ele>876.7142857142858</ele><time>2026-04-14T11:34:52Z</time></trkpt><trkpt lat="38.04571133571608" lon="15.800245004631481"><ele>876.2857142857142</ele><time>2026-04-14T11:34:53Z</time></trkpt><trkpt lat="38.04578044555515" lon="15.800244715727965"><ele>875.8571428571429</ele><time>2026-04-14T11:34:54Z</time></trkpt><trkpt lat="38.04585289331603" lon="15.800243300274804"><ele>875.4285714285714</ele><time>2026-04-14T11:34:55Z</time></trkpt><trkpt lat="38.04592419684182" lon="15.800249971610468"><ele>875.0</ele><time>2026-04-14T11:34:56Z</time></trkpt><trkpt lat="38.046007687242984" lon="15.800337818642438"><ele>880.3333333333334</ele><time>2026-04-14T11:34:58Z</time></trkpt><trkpt lat="38.04597284360384" lon="15.800451553329506"><ele>885.6666666666667</ele><time>2026-04-14T11:35:00Z</time></trkpt><trkpt lat="38.04593312151302" lon="15.80051931095246"><ele>891.0</ele><time>2026-04-14T11:35:01Z</time></trkpt><trkpt lat="38.04589769862624" lon="15.800592346860991"><ele>896.3333333333333</ele><time>2026-04-14T11:35:02Z</time></trkpt><trkpt lat="38.04586851323129" lon="15.800683396832545"><ele>901.6666666666666</ele><time>2026-04-14T11:35:03Z</time></trkpt><trkpt lat="38.045834664932535" lon="15.800803212667379"><ele>907.0</ele><time>2026-04-14T11:35:04Z</time></trkpt><trkpt lat="38.04580413417348" lon="15.800898356730022"><ele>906.9999999999999</ele><time>2026-04-14T11:35:05Z</time></trkpt><trkpt lat="38.04577917021352" lon="15.800993389639654"><ele>907.0</ele><time>2026-04-14T11:35:07Z</time></trkpt><trkpt lat="38.045870536226076" lon="15.800968963742884"><ele>907.0</ele><time>2026-04-14T11:35:10Z</time></trkpt><trkpt lat="38.04594725165239" lon="15.800841425028484"><ele>907.0</ele><time>2026-04-14T11:35:12Z</time></trkpt><trkpt lat="38.045980464660815" lon="15.800763645541608"><ele>906.9999999999999</ele><time>2026-04-14T11:35:13Z</time></trkpt><trkpt lat="38.046019560765345" lon="15.80069413386848"><ele>907.0</ele><time>2026-04-14T11:35:14Z</time></trkpt><trkpt lat="38.04612576221291" lon="15.800598369093986"><ele>907.0000000000001</ele><time>2026-04-14T11:35:16Z</time></trkpt><trkpt lat="38.04618733796761" lon="15.800558730751266"><ele>907.0</ele><time>2026-04-14T11:35:17Z</time></trkpt><trkpt lat="38.046242888894405" lon="15.800504258177712"><ele>907.0000000000001</ele><time>2026-04-14T11:35:18Z</time></trkpt><trkpt lat="38.04629522231569" lon="15.800436935067527"><ele>907.0000000000001</ele><time>2026-04-14T11:35:19Z</time></trkpt><trkpt lat="38.04632716191853" lon="15.800357381311834"><ele>907.0</ele><time>2026-04-14T11:35:20Z</time></trkpt><trkpt lat="38.0463247470763" lon="15.800268709305936"><ele>907.0000000000001</ele><time>2026-04-14T11:35:21Z</time></trkpt><trkpt lat="38.04630106699305" lon="15.800181066375384"><ele>907.0000000000001</ele><time>2026-04-14T11:35:22Z</time></trkpt><trkpt lat="38.046250054865666" lon="15.800112029222486"><ele>908.1666666666666</ele><time>2026-04-14T11:35:23Z</time></trkpt><trkpt lat="38.04618557091377" lon="15.800064822477406"><ele>909.3333333333333</ele><time>2026-04-14T11:35:24Z</time></trkpt><trkpt lat="38.04612411948587" lon="15.799995785976773"><ele>910.5</ele><time>2026-04-14T11:35:25Z</time></trkpt><trkpt lat="38.046072560369986" lon="15.799927184799245"><ele>911.6666666666667</ele><time>2026-04-14T11:35:26Z</time></trkpt><trkpt lat="38.04604693687764" lon="15.799835057825174"><ele>912.8333333333334</ele><time>2026-04-14T11:35:28Z</time></trkpt><trkpt lat="38.04614948235442" lon="15.79978615162344"><ele>914.0</ele><time>2026-04-14T11:35:30Z</time></trkpt><trkpt lat="38.04624199972355" lon="15.799858061895874"><ele>914.0000000000001</ele><time>2026-04-14T11:35:32Z</time></trkpt><trkpt lat="38.04630269012623" lon="15.799921664718305"><ele>914.0</ele><time>2026-04-14T11:35:33Z</time></trkpt><trkpt lat="38.04637071731573" lon="15.799980781189241"><ele>914.0</ele><time>2026-04-14T11:35:34Z</time></trkpt><trkpt lat="38.04646013049387" lon="15.80001706714642"><ele>914.0</ele><time>2026-04-14T11:35:35Z</time></trkpt><trkpt lat="38.04653339454679" lon="15.80004460091937"><ele>914.0000000000001</ele><time>2026-04-14T11:35:36Z</time></trkpt><trkpt lat="38.04659630934181" lon="15.800091817676408"><ele>914.0</ele><time>2026-04-14T11:35:37Z</time></trkpt><trkpt lat="38.046648324029555" lon="15.800160714128136"><ele>912.8333333333334</ele><time>2026-04-14T11:35:38Z</time></trkpt><trkpt lat="38.04668955246387" lon="15.80025334053375"><ele>911.6666666666667</ele><time>2026-04-14T11:35:39Z</time></trkpt><trkpt lat="38.04671460236729" lon="15.80033601061157"><ele>910.5</ele><time>2026-04-14T11:35:40Z</time></trkpt><trkpt lat="38.04671397304397" lon="15.800421525450036"><ele>909.3333333333333</ele><time>2026-04-14T11:35:41Z</time></trkpt><trkpt lat="38.04667190987598" lon="15.800574700766818"><ele>908.1666666666666</ele><time>2026-04-14T11:35:43Z</time></trkpt><trkpt lat="38.04663619592822" lon="15.800652748544763"><ele>907.0</ele><time>2026-04-14T11:35:44Z</time></trkpt><trkpt lat="38.04658484054119" lon="15.80071590525477"><ele>906.9999999999999</ele><time>2026-04-14T11:35:45Z</time></trkpt><trkpt lat="38.04657031417636" lon="15.800796101473628"><ele>907.0</ele><time>2026-04-14T11:35:47Z</time></trkpt><trkpt lat="38.04667065797724" lon="15.800805038312433"><ele>907.0</ele><time>2026-04-14T11:35:49Z</time></trkpt><trkpt lat="38.04673037431923" lon="15.80069845224334"><ele>907.0</ele><time>2026-04-14T11:35:51Z</time></trkpt><trkpt lat="38.04675723458435" lon="15.800616421502811"><ele>906.9999999999999</ele><time>2026-04-14T11:35:52Z</time></trkpt><trkpt lat="38.04679049209306" lon="15.800534544327128"><ele>907.0</ele><time>2026-04-14T11:35:53Z</time></trkpt><trkpt lat="38.04683715208345" lon="15.800439643239676"><ele>908.1666666666666</ele><time>2026-04-14T11:35:55Z</time></trkpt><trkpt lat="38.04689563415185" lon="15.800527858284198"><ele>909.3333333333333</ele><time>2026-04-14T11:35:58Z</time></trkpt><trkpt lat="38.04687523713456" lon="15.80061422146709"><ele>910.5</ele><time>2026-04-14T11:35:59Z</time></trkpt><trkpt lat="38.04682825373255" lon="15.800718350630005"><ele>911.6666666666667</ele><time>2026-04-14T11:35:59.999Z</time></trkpt><trkpt lat="38.04679523946241" lon="15.800831316036154"><ele>912.8333333333334</ele><time>2026-04-14T11:36:00.999Z</time></trkpt><trkpt lat="38.04678798792637" lon="15.800928454620845"><ele>914.0</ele><time>2026-04-14T11:36:01.999Z</time></trkpt><trkpt lat="38.04684380348627" lon="15.801023586424174"><ele>914.0</ele><time>2026-04-14T11:36:03.999Z</time></trkpt><trkpt lat="38.04693589858712" lon="15.801117222382608"><ele>914.0000000000001</ele><time>2026-04-14T11:36:05.999Z</time></trkpt><trkpt lat="38.046999769190165" lon="15.801108030309628"><ele>914.0000000000001</ele><time>2026-04-14T11:36:06.999Z</time></trkpt><trkpt lat="38.04706864213808" lon="15.801093561368887"><ele>914.0</ele><time>2026-04-14T11:36:07.999Z</time></trkpt><trkpt lat="38.047153609460786" lon="15.801117401552009"><ele>914.0</ele><time>2026-04-14T11:36:08.999Z</time></trkpt><trkpt lat="38.0472668142376" lon="15.801155431486032"><ele>914.0</ele><time>2026-04-14T11:36:09.999Z</time></trkpt><trkpt lat="38.04736580999995" lon="15.8011797249872"><ele>914.0000000000001</ele><time>2026-04-14T11:36:10.999Z</time></trkpt><trkpt lat="38.04745869719023" lon="15.801193930915167"><ele>914.0000000000001</ele><time>2026-04-14T11:36:11.999Z</time></trkpt><trkpt lat="38.047555148494595" lon="15.801220148412327"><ele>914.0</ele><time>2026-04-14T11:36:12.999Z</time></trkpt><trkpt lat="38.04765819431545" lon="15.801260899496032"><ele>914.0</ele><time>2026-04-14T11:36:13.999Z</time></trkpt><trkpt lat="38.047777050436274" lon="15.801327876300878"><ele>922.0</ele><time>2026-04-14T11:36:14.999Z</time></trkpt><trkpt lat="38.04789371641431" lon="15.801406688731912"><ele>930.0000000000001</ele><time>2026-04-14T11:36:15.999Z</time></trkpt><trkpt lat="38.04797354630889" lon="15.801475099330222"><ele>938.0000000000001</ele><time>2026-04-14T11:36:16.999Z</time></trkpt><trkpt lat="38.048045539030916" lon="15.801522623670493"><ele>946.0</ele><time>2026-04-14T11:36:17.999Z</time></trkpt><trkpt lat="38.048115952463824" lon="15.801572587263959"><ele>954.0</ele><time>2026-04-14T11:36:18.999Z</time></trkpt><trkpt lat="38.04820457307766" lon="15.80159966993275"><ele>958.2</ele><time>2026-04-14T11:36:19.999Z</time></trkpt><trkpt lat="38.04831583481396" lon="15.801588253693746"><ele>962.4000000000001</ele><time>2026-04-14T11:36:20.999Z</time></trkpt><trkpt lat="38.04843579583251" lon="15.80159660827754"><ele>966.6</ele><time>2026-04-14T11:36:21.999Z</time></trkpt><trkpt lat="38.04854084763495" lon="15.801608951434789"><ele>970.8</ele><time>2026-04-14T11:36:22.999Z</time></trkpt><trkpt lat="38.04863277181534" lon="15.80163548224153"><ele>975.0</ele><time>2026-04-14T11:36:23.999Z</time></trkpt><trkpt lat="38.04872932751899" lon="15.801712496764667"><ele>975.0</ele><time>2026-04-14T11:36:24.999Z</time></trkpt><trkpt lat="38.04882117574624" lon="15.801785727901553"><ele>975.0</ele><time>2026-04-14T11:36:25.999Z</time></trkpt><trkpt lat="38.04891070253921" lon="15.801819002595277"><ele>975.0</ele><time>2026-04-14T11:36:26.999Z</time></trkpt><trkpt lat="38.04899856803718" lon="15.8018130193318"><ele>975.0</ele><time>2026-04-14T11:36:27.999Z</time></trkpt><trkpt lat="38.049088254322115" lon="15.801773864544636"><ele>975.0</ele><time>2026-04-14T11:36:29Z</time></trkpt><trkpt lat="38.04916756162694" lon="15.801700304886452"><ele>978.3333333333334</ele><time>2026-04-14T11:36:30Z</time></trkpt><trkpt lat="38.04924332081406" lon="15.801611101120084"><ele>981.6666666666667</ele><time>2026-04-14T11:36:31Z</time></trkpt><trkpt lat="38.049304981197885" lon="15.801519250516217"><ele>985.0</ele><time>2026-04-14T11:36:32Z</time></trkpt><trkpt lat="38.049378295236885" lon="15.801421173425986"><ele>988.3333333333334</ele><time>2026-04-14T11:36:33Z</time></trkpt><trkpt lat="38.049421171637775" lon="15.801350834138464"><ele>991.6666666666667</ele><time>2026-04-14T11:36:34Z</time></trkpt><trkpt lat="38.04947779211293" lon="15.801312723146923"><ele>995.0</ele><time>2026-04-14T11:36:35Z</time></trkpt><trkpt lat="38.049503978413085" lon="15.801432750249013"><ele>995.0</ele><time>2026-04-14T11:36:38Z</time></trkpt><trkpt lat="38.049452547428004" lon="15.801506142972087"><ele>995.0</ele><time>2026-04-14T11:36:39Z</time></trkpt><trkpt lat="38.0493927257826" lon="15.801579991183512"><ele>995.0</ele><time>2026-04-14T11:36:40Z</time></trkpt><trkpt lat="38.04935435152992" lon="15.801661463882603"><ele>995.0</ele><time>2026-04-14T11:36:41Z</time></trkpt><trkpt lat="38.04934918624763" lon="15.801793545070735"><ele>995.0</ele><time>2026-04-14T11:36:43Z</time></trkpt><trkpt lat="38.04942795426634" lon="15.801916576194193"><ele>993.6</ele><time>2026-04-14T11:36:45Z</time></trkpt><trkpt lat="38.04948750701601" lon="15.80199449034502"><ele>992.2</ele><time>2026-04-14T11:36:46Z</time></trkpt><trkpt lat="38.049546724400685" lon="15.802104800426392"><ele>990.8</ele><time>2026-04-14T11:36:47Z</time></trkpt><trkpt lat="38.049599682070344" lon="15.802221247554906"><ele>989.4</ele><time>2026-04-14T11:36:48Z</time></trkpt><trkpt lat="38.049633986664766" lon="15.802334289159495"><ele>988.0</ele><time>2026-04-14T11:36:49Z</time></trkpt><trkpt lat="38.04964643039883" lon="15.802440620337702"><ele>987.9999999999999</ele><time>2026-04-14T11:36:50Z</time></trkpt><trkpt lat="38.04966653625498" lon="15.802544981180558"><ele>988.0</ele><time>2026-04-14T11:36:51Z</time></trkpt><trkpt lat="38.04969987451633" lon="15.802628578259233"><ele>988.0</ele><time>2026-04-14T11:36:52Z</time></trkpt><trkpt lat="38.049738197907665" lon="15.802695177365436"><ele>988.0</ele><time>2026-04-14T11:36:53Z</time></trkpt><trkpt lat="38.049806461153295" lon="15.802826038720582"><ele>987.9999999999999</ele><time>2026-04-14T11:36:55Z</time></trkpt><trkpt lat="38.049839162924734" lon="15.802899952832849"><ele>988.0</ele><time>2026-04-14T11:36:56Z</time></trkpt><trkpt lat="38.049901850612216" lon="15.80297691176515"><ele>992.6666666666666</ele><time>2026-04-14T11:36:58Z</time></trkpt><trkpt lat="38.05000831739129" lon="15.80298412815981"><ele>997.3333333333333</ele><time>2026-04-14T11:37:00Z</time></trkpt><trkpt lat="38.05007785732616" lon="15.802973759676497"><ele>1002.0</ele><time>2026-04-14T11:37:01Z</time></trkpt><trkpt lat="38.05014224460543" lon="15.802990413764853"><ele>1006.6666666666667</ele><time>2026-04-14T11:37:02Z</time></trkpt><trkpt lat="38.050232879385334" lon="15.803066578677283"><ele>1011.3333333333334</ele><time>2026-04-14T11:37:04Z</time></trkpt><trkpt lat="38.05027398439927" lon="15.80317265551436"><ele>1016.0</ele><time>2026-04-14T11:37:06Z</time></trkpt><trkpt lat="38.05029078166835" lon="15.803250154503624"><ele>1016.0</ele><time>2026-04-14T11:37:07Z</time></trkpt><trkpt lat="38.050346402083356" lon="15.803350130104926"><ele>1015.9999999999999</ele><time>2026-04-14T11:37:09Z</time></trkpt><trkpt lat="38.050399289744185" lon="15.80339705667979"><ele>1015.9999999999999</ele><time>2026-04-14T11:37:10Z</time></trkpt><trkpt lat="38.050502043405515" lon="15.803485219520304"><ele>1016.0</ele><time>2026-04-14T11:37:12Z</time></trkpt><trkpt lat="38.05055391237519" lon="15.803543092965745"><ele>1016.0</ele><time>2026-04-14T11:37:13Z</time></trkpt><trkpt lat="38.05061680703513" lon="15.803637117489075"><ele>1015.1666666666667</ele><time>2026-04-14T11:37:15Z</time></trkpt><trkpt lat="38.05059913261564" lon="15.803752675027107"><ele>1014.3333333333334</ele><time>2026-04-14T11:37:17Z</time></trkpt><trkpt lat="38.05056383586282" lon="15.803841502286273"><ele>1013.5</ele><time>2026-04-14T11:37:19Z</time></trkpt><trkpt lat="38.05054600737021" lon="15.803944246241088"><ele>1012.6666666666667</ele><time>2026-04-14T11:37:21Z</time></trkpt><trkpt lat="38.05059170844585" lon="15.804076534501162"><ele>1011.8333333333334</ele><time>2026-04-14T11:37:23Z</time></trkpt><trkpt lat="38.05062084171278" lon="15.804156014456996"><ele>1011.0</ele><time>2026-04-14T11:37:24Z</time></trkpt><trkpt lat="38.05071103332912" lon="15.80427692887443"><ele>1007.5</ele><time>2026-04-14T11:37:26Z</time></trkpt><trkpt lat="38.05074979357866" lon="15.80435624535062"><ele>1004.0</ele><time>2026-04-14T11:37:27Z</time></trkpt><trkpt lat="38.05078222649788" lon="15.804466157190454"><ele>1000.5</ele><time>2026-04-14T11:37:28Z</time></trkpt><trkpt lat="38.050823266826065" lon="15.804548295232584"><ele>997.0</ele><time>2026-04-14T11:37:29Z</time></trkpt><trkpt lat="38.05086969803682" lon="15.804654954622183"><ele>993.5</ele><time>2026-04-14T11:37:30Z</time></trkpt><trkpt lat="38.05090683911128" lon="15.804721187923194"><ele>990.0</ele><time>2026-04-14T11:37:31Z</time></trkpt><trkpt lat="38.050989896684975" lon="15.804812761093196"><ele>999.4</ele><time>2026-04-14T11:37:33Z</time></trkpt><trkpt lat="38.051096477413175" lon="15.804817599925153"><ele>1008.8</ele><time>2026-04-14T11:37:35Z</time></trkpt><trkpt lat="38.051213473291405" lon="15.804878458171252"><ele>1018.2</ele><time>2026-04-14T11:37:37Z</time></trkpt><trkpt lat="38.051273834389804" lon="15.804933909053283"><ele>1027.6</ele><time>2026-04-14T11:37:38Z</time></trkpt><trkpt lat="38.05133301608664" lon="15.804977993862453"><ele>1037.0</ele><time>2026-04-14T11:37:39Z</time></trkpt><trkpt lat="38.05140442295413" lon="15.805012532562351"><ele>1037.0</ele><time>2026-04-14T11:37:41Z</time></trkpt><trkpt lat="38.051467745058225" lon="15.8049556011886"><ele>1037.0</ele><time>2026-04-14T11:37:43Z</time></trkpt><trkpt lat="38.05148746039993" lon="15.804790220956674"><ele>1037.0</ele><time>2026-04-14T11:37:45Z</time></trkpt><trkpt lat="38.051486079802515" lon="15.804652313242883"><ele>1037.0</ele><time>2026-04-14T11:37:46Z</time></trkpt><trkpt lat="38.05148507224961" lon="15.804518713375689"><ele>1037.0</ele><time>2026-04-14T11:37:47Z</time></trkpt><trkpt lat="38.05148689636819" lon="15.804394619184329"><ele>1039.6666666666667</ele><time>2026-04-14T11:37:48Z</time></trkpt><trkpt lat="38.051508528778164" lon="15.80427924381863"><ele>1042.3333333333335</ele><time>2026-04-14T11:37:49Z</time></trkpt><trkpt lat="38.051539277430905" lon="15.804195011054654"><ele>1045.0</ele><time>2026-04-14T11:37:50Z</time></trkpt><trkpt lat="38.051642710942915" lon="15.80414531133397"><ele>1047.6666666666667</ele><time>2026-04-14T11:37:52Z</time></trkpt><trkpt lat="38.05171608321999" lon="15.804160477755351"><ele>1050.3333333333333</ele><time>2026-04-14T11:37:53Z</time></trkpt><trkpt lat="38.0518021884139" lon="15.804187755208188"><ele>1053.0</ele><time>2026-04-14T11:37:54Z</time></trkpt><trkpt lat="38.05187156462175" lon="15.804238528120443"><ele>1054.4</ele><time>2026-04-14T11:37:55Z</time></trkpt><trkpt lat="38.05192959204719" lon="15.80428897843361"><ele>1055.8</ele><time>2026-04-14T11:37:56Z</time></trkpt><trkpt lat="38.052000603275225" lon="15.804378454041071"><ele>1057.2</ele><time>2026-04-14T11:37:57Z</time></trkpt><trkpt lat="38.05209079441546" lon="15.804461405398015"><ele>1058.6</ele><time>2026-04-14T11:37:58Z</time></trkpt><trkpt lat="38.05219045499184" lon="15.804538060303859"><ele>1060.0</ele><time>2026-04-14T11:37:59Z</time></trkpt><trkpt lat="38.052304300262406" lon="15.80462034410732"><ele>1062.0</ele><time>2026-04-14T11:38:00Z</time></trkpt><trkpt lat="38.05242807802659" lon="15.804716037934856"><ele>1064.0</ele><time>2026-04-14T11:38:01Z</time></trkpt><trkpt lat="38.05253036658779" lon="15.80479754332614"><ele>1066.0</ele><time>2026-04-14T11:38:02Z</time></trkpt><trkpt lat="38.052601585084446" lon="15.804867687333166"><ele>1068.0</ele><time>2026-04-14T11:38:03Z</time></trkpt><trkpt lat="38.05265447060528" lon="15.804920011936439"><ele>1070.0</ele><time>2026-04-14T11:38:04Z</time></trkpt><trkpt lat="38.052700668579035" lon="15.80497886073153"><ele>1069.6</ele><time>2026-04-14T11:38:36Z</time></trkpt><trkpt lat="38.05274989965378" lon="15.805082170014305"><ele>1069.2</ele><time>2026-04-14T11:39:13Z</time></trkpt><trkpt lat="38.05284211572191" lon="15.80519675511625"><ele>1068.8</ele><time>2026-04-14T11:39:15Z</time></trkpt><trkpt lat="38.05291474322686" lon="15.805241032472823"><ele>1068.4</ele><time>2026-04-14T11:39:16Z</time></trkpt><trkpt lat="38.0529892723301" lon="15.80528513223277"><ele>1068.0</ele><time>2026-04-14T11:39:17Z</time></trkpt><trkpt lat="38.05306812660179" lon="15.805336308629457"><ele>1068.0</ele><time>2026-04-14T11:39:18Z</time></trkpt><trkpt lat="38.053146554962595" lon="15.805394977261686"><ele>1068.0</ele><time>2026-04-14T11:39:19Z</time></trkpt><trkpt lat="38.05321162817078" lon="15.80546643451728"><ele>1068.0</ele><time>2026-04-14T11:39:20Z</time></trkpt><trkpt lat="38.05326572652274" lon="15.805508483367586"><ele>1068.0</ele><time>2026-04-14T11:39:21Z</time></trkpt><trkpt lat="38.0534094186373" lon="15.805555907168769"><ele>1068.0</ele><time>2026-04-14T11:39:23Z</time></trkpt><trkpt lat="38.05349358133991" lon="15.80560829900891"><ele>1069.6</ele><time>2026-04-14T11:39:24Z</time></trkpt><trkpt lat="38.05359173893258" lon="15.805661669548755"><ele>1071.1999999999998</ele><time>2026-04-14T11:39:25Z</time></trkpt><trkpt lat="38.053695254424866" lon="15.805716214136245"><ele>1072.8</ele><time>2026-04-14T11:39:26Z</time></trkpt><trkpt lat="38.05378366658443" lon="15.805752398472503"><ele>1074.3999999999999</ele><time>2026-04-14T11:39:27Z</time></trkpt><trkpt lat="38.053871876163996" lon="15.805779204815462"><ele>1076.0</ele><time>2026-04-14T11:39:28Z</time></trkpt><trkpt lat="38.05395582900245" lon="15.805798212185724"><ele>1076.0</ele><time>2026-04-14T11:39:29Z</time></trkpt><trkpt lat="38.054052930951414" lon="15.805815523269414"><ele>1076.0</ele><time>2026-04-14T11:39:30Z</time></trkpt><trkpt lat="38.054136819782066" lon="15.805839715025876"><ele>1076.0</ele><time>2026-04-14T11:39:31Z</time></trkpt><trkpt lat="38.054215200690926" lon="15.80585736050298"><ele>1076.0</ele><time>2026-04-14T11:39:32Z</time></trkpt><trkpt lat="38.054316206909476" lon="15.805879301879223"><ele>1076.0</ele><time>2026-04-14T11:39:33Z</time></trkpt><trkpt lat="38.05439810688163" lon="15.80589606705272"><ele>1076.0</ele><time>2026-04-14T11:39:34Z</time></trkpt><trkpt lat="38.054491254117366" lon="15.805913373020271"><ele>1078.1666666666667</ele><time>2026-04-14T11:39:35Z</time></trkpt><trkpt lat="38.05457435024078" lon="15.80593187560784"><ele>1080.3333333333335</ele><time>2026-04-14T11:39:36Z</time></trkpt><trkpt lat="38.054663598728304" lon="15.805952224722207"><ele>1082.5</ele><time>2026-04-14T11:39:37Z</time></trkpt><trkpt lat="38.054740778296804" lon="15.805976190113421"><ele>1084.6666666666667</ele><time>2026-04-14T11:39:38Z</time></trkpt><trkpt lat="38.054812087786885" lon="15.806000688476317"><ele>1086.8333333333333</ele><time>2026-04-14T11:39:39Z</time></trkpt><trkpt lat="38.05491041808902" lon="15.806025726618461"><ele>1089.0</ele><time>2026-04-14T11:39:41Z</time></trkpt><trkpt lat="38.05500265784148" lon="15.80593197124045"><ele>1091.6000000000001</ele><time>2026-04-14T11:39:44Z</time></trkpt><trkpt lat="38.055057886543835" lon="15.805844858573058"><ele>1094.2</ele><time>2026-04-14T11:39:46Z</time></trkpt><trkpt lat="38.055106850290095" lon="15.80592191173255"><ele>1096.8000000000002</ele><time>2026-04-14T11:39:49Z</time></trkpt><trkpt lat="38.055114901157964" lon="15.806100689210894"><ele>1099.4</ele><time>2026-04-14T11:39:51Z</time></trkpt><trkpt lat="38.055121390197385" lon="15.806204800201467"><ele>1102.0</ele><time>2026-04-14T11:39:52Z</time></trkpt><trkpt lat="38.05515389348622" lon="15.806309838286912"><ele>1102.0</ele><time>2026-04-14T11:39:53Z</time></trkpt><trkpt lat="38.055207002776186" lon="15.806408091676554"><ele>1102.0</ele><time>2026-04-14T11:39:54Z</time></trkpt><trkpt lat="38.0552658931823" lon="15.806475551561448"><ele>1102.0</ele><time>2026-04-14T11:39:55Z</time></trkpt><trkpt lat="38.05533218282982" lon="15.806494137115376"><ele>1102.0</ele><time>2026-04-14T11:39:56Z</time></trkpt><trkpt lat="38.05540071999971" lon="15.806474487758472"><ele>1102.0</ele><time>2026-04-14T11:39:57Z</time></trkpt><trkpt lat="38.055469337572404" lon="15.806455166785517"><ele>1102.0</ele><time>2026-04-14T11:39:58Z</time></trkpt><trkpt lat="38.05553879769619" lon="15.806431036586696"><ele>1102.0</ele><time>2026-04-14T11:39:59Z</time></trkpt><trkpt lat="38.05561621442112" lon="15.806406172047783"><ele>1102.0</ele><time>2026-04-14T11:40:00Z</time></trkpt><trkpt lat="38.05568880384418" lon="15.806373854193177"><ele>1102.0</ele><time>2026-04-14T11:40:01Z</time></trkpt><trkpt lat="38.05572951806769" lon="15.80631241706069"><ele>1102.0</ele><time>2026-04-14T11:40:02Z</time></trkpt><trkpt lat="38.055799074737095" lon="15.806155365713837"><ele>1102.0</ele><time>2026-04-14T11:40:04Z</time></trkpt><trkpt lat="38.05585956961655" lon="15.806069779543158"><ele>1103.8333333333333</ele><time>2026-04-14T11:40:05Z</time></trkpt><trkpt lat="38.055928182833185" lon="15.805997842839657"><ele>1105.6666666666665</ele><time>2026-04-14T11:40:06Z</time></trkpt><trkpt lat="38.05599122965512" lon="15.805939639023972"><ele>1107.5</ele><time>2026-04-14T11:40:07Z</time></trkpt><trkpt lat="38.056062149943756" lon="15.80587852996402"><ele>1109.3333333333333</ele><time>2026-04-14T11:40:08Z</time></trkpt><trkpt lat="38.056132650753504" lon="15.805830337618518"><ele>1111.1666666666667</ele><time>2026-04-14T11:40:09Z</time></trkpt><trkpt lat="38.056229459248904" lon="15.8057921699205"><ele>1113.0</ele><time>2026-04-14T11:40:10Z</time></trkpt><trkpt lat="38.05632045643472" lon="15.805761582328497"><ele>1113.0</ele><time>2026-04-14T11:40:11Z</time></trkpt><trkpt lat="38.05641452066945" lon="15.80574073787183"><ele>1113.0</ele><time>2026-04-14T11:40:12.001Z</time></trkpt><trkpt lat="38.05650472617216" lon="15.805726880314575"><ele>1113.0</ele><time>2026-04-14T11:40:13.001Z</time></trkpt><trkpt lat="38.05659317102076" lon="15.80572738612976"><ele>1113.0</ele><time>2026-04-14T11:40:15.001Z</time></trkpt><trkpt lat="38.056641090048714" lon="15.805866155284907"><ele>1113.0</ele><time>2026-04-14T11:40:18.001Z</time></trkpt><trkpt lat="38.056658578068884" lon="15.806007471820882"><ele>1116.5</ele><time>2026-04-14T11:40:19.001Z</time></trkpt><trkpt lat="38.056682294771434" lon="15.806164677794328"><ele>1120.0</ele><time>2026-04-14T11:40:20.001Z</time></trkpt><trkpt lat="38.05670436887333" lon="15.806340304431558"><ele>1123.5</ele><time>2026-04-14T11:40:21.001Z</time></trkpt><trkpt lat="38.0566985674665" lon="15.806497158130691"><ele>1127.0</ele><time>2026-04-14T11:40:22.001Z</time></trkpt><trkpt lat="38.056675805736496" lon="15.806639342594158"><ele>1127.0</ele><time>2026-04-14T11:40:23.001Z</time></trkpt><trkpt lat="38.056648355982524" lon="15.80677011805715"><ele>1127.0</ele><time>2026-04-14T11:40:24.001Z</time></trkpt><trkpt lat="38.056641377057815" lon="15.806904820974994"><ele>1127.0</ele><time>2026-04-14T11:40:25.001Z</time></trkpt><trkpt lat="38.0566565118977" lon="15.807044741008442"><ele>1127.0</ele><time>2026-04-14T11:40:26Z</time></trkpt><trkpt lat="38.05667750131174" lon="15.807189788620986"><ele>1127.0</ele><time>2026-04-14T11:40:27Z</time></trkpt><trkpt lat="38.056695875255436" lon="15.807338409117644"><ele>1127.5</ele><time>2026-04-14T11:40:28Z</time></trkpt><trkpt lat="38.05670971839986" lon="15.807487933872983"><ele>1128.0</ele><time>2026-04-14T11:40:29Z</time></trkpt><trkpt lat="38.056699934254326" lon="15.807638532245262"><ele>1128.5</ele><time>2026-04-14T11:40:30Z</time></trkpt><trkpt lat="38.05668428634196" lon="15.807780487270486"><ele>1129.0</ele><time>2026-04-14T11:40:31Z</time></trkpt><trkpt lat="38.0566736116407" lon="15.807917418897452"><ele>1129.2</ele><time>2026-04-14T11:40:32Z</time></trkpt><trkpt lat="38.05666628447202" lon="15.808043790842618"><ele>1129.4</ele><time>2026-04-14T11:40:33Z</time></trkpt><trkpt lat="38.05664715070486" lon="15.808166967398593"><ele>1129.6</ele><time>2026-04-14T11:40:34Z</time></trkpt><trkpt lat="38.056642361791425" lon="15.808268253003245"><ele>1129.8</ele><time>2026-04-14T11:40:35Z</time></trkpt><trkpt lat="38.05667335550089" lon="15.808373992704169"><ele>1130.0</ele><time>2026-04-14T11:40:37Z</time></trkpt><trkpt lat="38.05676885248688" lon="15.808321365739923"><ele>1130.0</ele><time>2026-04-14T11:40:40Z</time></trkpt><trkpt lat="38.056791876174614" lon="15.808231991937536"><ele>1130.0</ele><time>2026-04-14T11:40:41Z</time></trkpt><trkpt lat="38.056844375005895" lon="15.8081599029754"><ele>1130.0</ele><time>2026-04-14T11:40:43Z</time></trkpt><trkpt lat="38.05689889808128" lon="15.808085818579842"><ele>1130.0</ele><time>2026-04-14T11:40:46Z</time></trkpt><trkpt lat="38.056972507129984" lon="15.807999188351523"><ele>1130.0</ele><time>2026-04-14T11:43:03Z</time></trkpt><trkpt lat="38.057036354730954" lon="15.80796189540094"><ele>1130.0</ele><time>2026-04-14T11:43:04Z</time></trkpt><trkpt lat="38.05710418675998" lon="15.807915769912325"><ele>1130.0</ele><time>2026-04-14T11:43:05Z</time></trkpt><trkpt lat="38.05718115208053" lon="15.807878356248402"><ele>1130.0</ele><time>2026-04-14T11:43:06Z</time></trkpt><trkpt lat="38.05726159939544" lon="15.807840886126117"><ele>1130.0</ele><time>2026-04-14T11:43:07Z</time></trkpt><trkpt lat="38.057347624902484" lon="15.807794710540911"><ele>1130.0</ele><time>2026-04-14T11:43:08Z</time></trkpt><trkpt lat="38.057440845220896" lon="15.80774547960192"><ele>1130.0</ele><time>2026-04-14T11:43:09Z</time></trkpt><trkpt lat="38.057543885085956" lon="15.807693177310647"><ele>1131.75</ele><time>2026-04-14T11:43:10Z</time></trkpt><trkpt lat="38.05765190963746" lon="15.807638625437397"><ele>1133.5</ele><time>2026-04-14T11:43:11Z</time></trkpt><trkpt lat="38.05776553849784" lon="15.807595957654305"><ele>1135.25</ele><time>2026-04-14T11:43:12Z</time></trkpt><trkpt lat="38.05788711066918" lon="15.80756235204798"><ele>1137.0</ele><time>2026-04-14T11:43:13Z</time></trkpt><trkpt lat="38.0580124194383" lon="15.807532854771"><ele>1137.0</ele><time>2026-04-14T11:43:14Z</time></trkpt><trkpt lat="38.05814432448582" lon="15.807511378169854"><ele>1137.0</ele><time>2026-04-14T11:43:15Z</time></trkpt><trkpt lat="38.058276942251865" lon="15.807489104739258"><ele>1137.0</ele><time>2026-04-14T11:43:16Z</time></trkpt><trkpt lat="38.0584100448826" lon="15.80745722677868"><ele>1137.0</ele><time>2026-04-14T11:43:17Z</time></trkpt><trkpt lat="38.058544824283366" lon="15.807423593227547"><ele>1138.25</ele><time>2026-04-14T11:43:18Z</time></trkpt><trkpt lat="38.05868318175745" lon="15.807402533845586"><ele>1139.5</ele><time>2026-04-14T11:43:19Z</time></trkpt><trkpt lat="38.05882423902795" lon="15.807394513453525"><ele>1140.75</ele><time>2026-04-14T11:43:20Z</time></trkpt><trkpt lat="38.05896416795892" lon="15.807392304253955"><ele>1142.0</ele><time>2026-04-14T11:43:21Z</time></trkpt><trkpt lat="38.05910549520367" lon="15.807370219436677"><ele>1143.5</ele><time>2026-04-14T11:43:22Z</time></trkpt><trkpt lat="38.059242275035" lon="15.807336168663587"><ele>1145.0</ele><time>2026-04-14T11:43:23Z</time></trkpt><trkpt lat="38.05938100831965" lon="15.80731382401995"><ele>1146.5</ele><time>2026-04-14T11:43:24Z</time></trkpt><trkpt lat="38.059516950128426" lon="15.807309816615698"><ele>1148.0</ele><time>2026-04-14T11:43:25Z</time></trkpt><trkpt lat="38.05965430462714" lon="15.80732038943188"><ele>1148.0</ele><time>2026-04-14T11:43:26Z</time></trkpt><trkpt lat="38.05978728042595" lon="15.807346210593604"><ele>1148.0</ele><time>2026-04-14T11:43:27Z</time></trkpt><trkpt lat="38.05992036283685" lon="15.807381762299663"><ele>1148.0</ele><time>2026-04-14T11:43:28Z</time></trkpt><trkpt lat="38.060056247726855" lon="15.807425022983699"><ele>1148.0</ele><time>2026-04-14T11:43:29Z</time></trkpt><trkpt lat="38.06019114032602" lon="15.807480008499832"><ele>1148.75</ele><time>2026-04-14T11:43:30Z</time></trkpt><trkpt lat="38.06032467996295" lon="15.807543147195855"><ele>1149.5</ele><time>2026-04-14T11:43:31Z</time></trkpt><trkpt lat="38.06045915656672" lon="15.807606807396136"><ele>1150.25</ele><time>2026-04-14T11:43:32Z</time></trkpt><trkpt lat="38.06059213292675" lon="15.807677446509198"><ele>1151.0</ele><time>2026-04-14T11:43:33Z</time></trkpt><trkpt lat="38.06072647966604" lon="15.807760669510806"><ele>1153.0</ele><time>2026-04-14T11:43:34Z</time></trkpt><trkpt lat="38.060858525899285" lon="15.80784991300698"><ele>1155.0</ele><time>2026-04-14T11:43:35Z</time></trkpt><trkpt lat="38.06098881333332" lon="15.807945946989566"><ele>1157.0</ele><time>2026-04-14T11:43:36Z</time></trkpt><trkpt lat="38.061115879965726" lon="15.808055430276417"><ele>1157.0</ele><time>2026-04-14T11:43:37Z</time></trkpt><trkpt lat="38.0612390049444" lon="15.808175785644774"><ele>1157.0</ele><time>2026-04-14T11:43:38Z</time></trkpt><trkpt lat="38.0613570035361" lon="15.808302084967988"><ele>1157.0</ele><time>2026-04-14T11:43:39Z</time></trkpt><trkpt lat="38.06147083800301" lon="15.808429993442816"><ele>1157.75</ele><time>2026-04-14T11:43:40Z</time></trkpt><trkpt lat="38.06157518454145" lon="15.80856292794297"><ele>1158.5</ele><time>2026-04-14T11:43:41Z</time></trkpt><trkpt lat="38.061652425933566" lon="15.808695397357626"><ele>1159.25</ele><time>2026-04-14T11:43:42Z</time></trkpt><trkpt lat="38.061698604568605" lon="15.808835653589107"><ele>1160.0</ele><time>2026-04-14T11:43:43Z</time></trkpt><trkpt lat="38.061722298506126" lon="15.808993375317389"><ele>1160.0</ele><time>2026-04-14T11:43:44Z</time></trkpt><trkpt lat="38.061725487998366" lon="15.809173221605556"><ele>1160.0</ele><time>2026-04-14T11:43:45Z</time></trkpt><trkpt lat="38.06172092341235" lon="15.809360993694979"><ele>1160.0</ele><time>2026-04-14T11:43:46Z</time></trkpt><trkpt lat="38.06172091277741" lon="15.809552502098102"><ele>1160.0</ele><time>2026-04-14T11:43:47Z</time></trkpt><trkpt lat="38.06172425365533" lon="15.809748729208"><ele>1161.0</ele><time>2026-04-14T11:43:48Z</time></trkpt><trkpt lat="38.06173047435264" lon="15.809947922242545"><ele>1162.0</ele><time>2026-04-14T11:43:49Z</time></trkpt><trkpt lat="38.061747140340664" lon="15.810149825919389"><ele>1163.0</ele><time>2026-04-14T11:43:50Z</time></trkpt><trkpt lat="38.06177585800062" lon="15.810346861378571"><ele>1163.0</ele><time>2026-04-14T11:43:51Z</time></trkpt><trkpt lat="38.06181954996436" lon="15.810547704203984"><ele>1163.0</ele><time>2026-04-14T11:43:52Z</time></trkpt><trkpt lat="38.06187481913824" lon="15.810741604346044"><ele>1163.0</ele><time>2026-04-14T11:43:53Z</time></trkpt><trkpt lat="38.061929616189495" lon="15.81092428770871"><ele>1164.3333333333335</ele><time>2026-04-14T11:43:54Z</time></trkpt><trkpt lat="38.061999355531334" lon="15.811106035005572"><ele>1165.6666666666667</ele><time>2026-04-14T11:43:55Z</time></trkpt><trkpt lat="38.06206971050623" lon="15.811285386705318"><ele>1167.0</ele><time>2026-04-14T11:43:56Z</time></trkpt><trkpt lat="38.06213771415158" lon="15.811464716738023"><ele>1167.0</ele><time>2026-04-14T11:43:57Z</time></trkpt><trkpt lat="38.06220575140249" lon="15.811642857895729"><ele>1167.0</ele><time>2026-04-14T11:43:58Z</time></trkpt><trkpt lat="38.06227087887542" lon="15.811823724152278"><ele>1167.0</ele><time>2026-04-14T11:43:59Z</time></trkpt><trkpt lat="38.0623343026162" lon="15.812004630962255"><ele>1167.0</ele><time>2026-04-14T11:44:00Z</time></trkpt><trkpt lat="38.062395158873784" lon="15.812185199691172"><ele>1167.0</ele><time>2026-04-14T11:44:01Z</time></trkpt><trkpt lat="38.06246329507302" lon="15.812363724773954"><ele>1167.0</ele><time>2026-04-14T11:44:02Z</time></trkpt><trkpt lat="38.062532428483046" lon="15.81253954906067"><ele>1168.0</ele><time>2026-04-14T11:44:03Z</time></trkpt><trkpt lat="38.062595541397094" lon="15.812717315509333"><ele>1169.0</ele><time>2026-04-14T11:44:04Z</time></trkpt><trkpt lat="38.06265899086788" lon="15.812890162236222"><ele>1170.0</ele><time>2026-04-14T11:44:05Z</time></trkpt><trkpt lat="38.06273894690658" lon="15.813054469347563"><ele>1170.0</ele><time>2026-04-14T11:44:06Z</time></trkpt><trkpt lat="38.06283005828394" lon="15.813207339494136"><ele>1170.0</ele><time>2026-04-14T11:44:07Z</time></trkpt><trkpt lat="38.06293302212792" lon="15.81334787743493"><ele>1170.0</ele><time>2026-04-14T11:44:08Z</time></trkpt><trkpt lat="38.06304443586058" lon="15.813480919534195"><ele>1170.0</ele><time>2026-04-14T11:44:09Z</time></trkpt><trkpt lat="38.063159790787026" lon="15.813610393972146"><ele>1170.0</ele><time>2026-04-14T11:44:10Z</time></trkpt><trkpt lat="38.06327439052865" lon="15.813740972591674"><ele>1170.0</ele><time>2026-04-14T11:44:11Z</time></trkpt><trkpt lat="38.06338643038317" lon="15.813874554568534"><ele>1170.0</ele><time>2026-04-14T11:44:12Z</time></trkpt><trkpt lat="38.0634992455574" lon="15.814007178861743"><ele>1170.0</ele><time>2026-04-14T11:44:13Z</time></trkpt><trkpt lat="38.063615126176984" lon="15.814136975804983"><ele>1170.0</ele><time>2026-04-14T11:44:14Z</time></trkpt><trkpt lat="38.06372832174967" lon="15.814263397437347"><ele>1170.75</ele><time>2026-04-14T11:44:15Z</time></trkpt><trkpt lat="38.063839688941485" lon="15.814388225915483"><ele>1171.5</ele><time>2026-04-14T11:44:16Z</time></trkpt><trkpt lat="38.063950190870514" lon="15.814514029079954"><ele>1172.25</ele><time>2026-04-14T11:44:17Z</time></trkpt><trkpt lat="38.06405986639288" lon="15.814635568273896"><ele>1173.0</ele><time>2026-04-14T11:44:18Z</time></trkpt><trkpt lat="38.06417198925003" lon="15.814749783935083"><ele>1173.5</ele><time>2026-04-14T11:44:19Z</time></trkpt><trkpt lat="38.064282800697505" lon="15.814863998594483"><ele>1174.0</ele><time>2026-04-14T11:44:20Z</time></trkpt><trkpt lat="38.06438564563412" lon="15.81499070975914"><ele>1174.5</ele><time>2026-04-14T11:44:21Z</time></trkpt><trkpt lat="38.064488831639785" lon="15.81511711372013"><ele>1175.0</ele><time>2026-04-14T11:44:22Z</time></trkpt><trkpt lat="38.06459706159071" lon="15.815239899876168"><ele>1175.5</ele><time>2026-04-14T11:44:23.001Z</time></trkpt><trkpt lat="38.064705203289385" lon="15.815366001393413"><ele>1176.0</ele><time>2026-04-14T11:44:24.001Z</time></trkpt><trkpt lat="38.06481130920393" lon="15.815492592317733"><ele>1176.5</ele><time>2026-04-14T11:44:25.001Z</time></trkpt><trkpt lat="38.06492080226784" lon="15.815620506621151"><ele>1177.0</ele><time>2026-04-14T11:44:26.001Z</time></trkpt><trkpt lat="38.06503138461706" lon="15.815752388578618"><ele>1177.0</ele><time>2026-04-14T11:44:27.001Z</time></trkpt><trkpt lat="38.06514122055961" lon="15.81589210422211"><ele>1177.0</ele><time>2026-04-14T11:44:28.001Z</time></trkpt><trkpt lat="38.065254435352514" lon="15.816028909153097"><ele>1177.0</ele><time>2026-04-14T11:44:29.001Z</time></trkpt><trkpt lat="38.065363522064615" lon="15.816172317078884"><ele>1178.0</ele><time>2026-04-14T11:44:30.001Z</time></trkpt><trkpt lat="38.06547515757259" lon="15.81631829959447"><ele>1179.0</ele><time>2026-04-14T11:44:31.001Z</time></trkpt><trkpt lat="38.06559320948486" lon="15.816467528454849"><ele>1180.0</ele><time>2026-04-14T11:44:32.001Z</time></trkpt><trkpt lat="38.0657104267916" lon="15.816616400951698"><ele>1180.0</ele><time>2026-04-14T11:44:33.001Z</time></trkpt><trkpt lat="38.06582807484126" lon="15.816766692985349"><ele>1180.0</ele><time>2026-04-14T11:44:34.001Z</time></trkpt><trkpt lat="38.06594726223693" lon="15.816918340844738"><ele>1180.0</ele><time>2026-04-14T11:44:35.001Z</time></trkpt><trkpt lat="38.06606941518076" lon="15.817071439784995"><ele>1180.0</ele><time>2026-04-14T11:44:36.001Z</time></trkpt><trkpt lat="38.06619110521995" lon="15.817220324853254"><ele>1180.0</ele><time>2026-04-14T11:44:37.001Z</time></trkpt><trkpt lat="38.06631431364755" lon="15.817368544389195"><ele>1180.0</ele><time>2026-04-14T11:44:38.001Z</time></trkpt><trkpt lat="38.06643699441519" lon="15.817519551577261"><ele>1180.0</ele><time>2026-04-14T11:44:39.001Z</time></trkpt><trkpt lat="38.06655677911878" lon="15.817682125996773"><ele>1180.0</ele><time>2026-04-14T11:44:40.001Z</time></trkpt><trkpt lat="38.06667678396971" lon="15.817836698758658"><ele>1180.0</ele><time>2026-04-14T11:44:41Z</time></trkpt><trkpt lat="38.06679925744634" lon="15.81799290623792"><ele>1180.0</ele><time>2026-04-14T11:44:42Z</time></trkpt><trkpt lat="38.06692411900468" lon="15.81815043141924"><ele>1180.0</ele><time>2026-04-14T11:44:43Z</time></trkpt><trkpt lat="38.06704808485172" lon="15.818305992542808"><ele>1180.0</ele><time>2026-04-14T11:44:44Z</time></trkpt><trkpt lat="38.06717183296433" lon="15.818460986801703"><ele>1181.0</ele><time>2026-04-14T11:44:45Z</time></trkpt><trkpt lat="38.0672973795139" lon="15.81861981499407"><ele>1182.0</ele><time>2026-04-14T11:44:46Z</time></trkpt><trkpt lat="38.06742238691413" lon="15.818776503246664"><ele>1183.0</ele><time>2026-04-14T11:44:47Z</time></trkpt><trkpt lat="38.06754422100522" lon="15.818932221085467"><ele>1183.0</ele><time>2026-04-14T11:44:48Z</time></trkpt><trkpt lat="38.067667546975194" lon="15.819092078460695"><ele>1183.0</ele><time>2026-04-14T11:44:49Z</time></trkpt><trkpt lat="38.067792249771735" lon="15.819245680113688"><ele>1183.0</ele><time>2026-04-14T11:44:50Z</time></trkpt><trkpt lat="38.06792260320241" lon="15.819393539145487"><ele>1183.3333333333333</ele><time>2026-04-14T11:44:51Z</time></trkpt><trkpt lat="38.06805237247389" lon="15.819535534073413"><ele>1183.6666666666667</ele><time>2026-04-14T11:44:52Z</time></trkpt><trkpt lat="38.06818101152626" lon="15.81967623958706"><ele>1184.0</ele><time>2026-04-14T11:44:53Z</time></trkpt><trkpt lat="38.06830862161305" lon="15.819808911450913"><ele>1184.0</ele><time>2026-04-14T11:44:54Z</time></trkpt><trkpt lat="38.06843500952109" lon="15.81993597775668"><ele>1184.0</ele><time>2026-04-14T11:44:55Z</time></trkpt><trkpt lat="38.0685589653728" lon="15.82005815946339"><ele>1184.0</ele><time>2026-04-14T11:44:56Z</time></trkpt><trkpt lat="38.068683493373314" lon="15.820181622676794"><ele>1184.0</ele><time>2026-04-14T11:44:57Z</time></trkpt><trkpt lat="38.068805757162195" lon="15.82030040773626"><ele>1184.0</ele><time>2026-04-14T11:44:58Z</time></trkpt><trkpt lat="38.06892894780227" lon="15.820422949958353"><ele>1184.0</ele><time>2026-04-14T11:44:59Z</time></trkpt><trkpt lat="38.069053346601564" lon="15.820542929904114"><ele>1184.3333333333335</ele><time>2026-04-14T11:45:00Z</time></trkpt><trkpt lat="38.06917620507732" lon="15.820663847391959"><ele>1184.6666666666667</ele><time>2026-04-14T11:45:01Z</time></trkpt><trkpt lat="38.069298047915126" lon="15.820783319947829"><ele>1185.0</ele><time>2026-04-14T11:45:02Z</time></trkpt><trkpt lat="38.06941872632025" lon="15.820902308283642"><ele>1186.0</ele><time>2026-04-14T11:45:03Z</time></trkpt><trkpt lat="38.069536324560076" lon="15.821016624954972"><ele>1187.0</ele><time>2026-04-14T11:45:04Z</time></trkpt><trkpt lat="38.06965695226381" lon="15.821131440202205"><ele>1188.0</ele><time>2026-04-14T11:45:05Z</time></trkpt><trkpt lat="38.06977298616633" lon="15.821235530702488"><ele>1189.0</ele><time>2026-04-14T11:45:06Z</time></trkpt><trkpt lat="38.06989059671947" lon="15.821341242633771"><ele>1188.5</ele><time>2026-04-14T11:45:07Z</time></trkpt><trkpt lat="38.07000801552022" lon="15.821444703516262"><ele>1188.0</ele><time>2026-04-14T11:45:08Z</time></trkpt><trkpt lat="38.07012665104599" lon="15.821541350199768"><ele>1187.5</ele><time>2026-04-14T11:45:09Z</time></trkpt><trkpt lat="38.07024842657897" lon="15.821620832936967"><ele>1187.0</ele><time>2026-04-14T11:45:10Z</time></trkpt><trkpt lat="38.07037620009018" lon="15.821693928405455"><ele>1187.0</ele><time>2026-04-14T11:45:11Z</time></trkpt><trkpt lat="38.070505640781654" lon="15.821757791335623"><ele>1187.0</ele><time>2026-04-14T11:45:12Z</time></trkpt><trkpt lat="38.07063029085087" lon="15.821815036261896"><ele>1187.0</ele><time>2026-04-14T11:45:13Z</time></trkpt><trkpt lat="38.07075700758726" lon="15.82186555972546"><ele>1187.0</ele><time>2026-04-14T11:45:14Z</time></trkpt><trkpt lat="38.07087347168752" lon="15.82191108956264"><ele>1188.2</ele><time>2026-04-14T11:45:15Z</time></trkpt><trkpt lat="38.07097724472897" lon="15.821954842290303"><ele>1189.4</ele><time>2026-04-14T11:45:16Z</time></trkpt><trkpt lat="38.07106947002702" lon="15.82199864967148"><ele>1190.6</ele><time>2026-04-14T11:45:17Z</time></trkpt><trkpt lat="38.0711570670873" lon="15.822028311065445"><ele>1191.8</ele><time>2026-04-14T11:45:18Z</time></trkpt><trkpt lat="38.071235381099655" lon="15.822052206249785"><ele>1193.0</ele><time>2026-04-14T11:45:19Z</time></trkpt><trkpt lat="38.07130472312839" lon="15.822073078405882"><ele>1193.0</ele><time>2026-04-14T11:45:20Z</time></trkpt><trkpt lat="38.07136550739685" lon="15.82210023372142"><ele>1193.0</ele><time>2026-04-14T11:45:21Z</time></trkpt><trkpt lat="38.071464298528056" lon="15.822109661196514"><ele>1193.0</ele><time>2026-04-14T11:45:23Z</time></trkpt></trkseg><trkseg><trkpt lat="38.071533737348126" lon="15.822191061700465"><ele>1193.0</ele><time>2026-04-14T12:29:21.998Z</time></trkpt><trkpt lat="38.071604940006765" lon="15.822197095670255"><ele>1193.0</ele><time>2026-04-14T12:29:23.998Z</time></trkpt><trkpt lat="38.071701621485104" lon="15.822222230711203"><ele>1193.0</ele><time>2026-04-14T12:29:25.999Z</time></trkpt><trkpt lat="38.071802637613764" lon="15.822267741511808"><ele>1193.0</ele><time>2026-04-14T12:29:27.999Z</time></trkpt><trkpt lat="38.07190087502372" lon="15.822331133700603"><ele>1193.0</ele><time>2026-04-14T12:29:29.999Z</time></trkpt><trkpt lat="38.07196095622687" lon="15.822427838673152"><ele>1194.0</ele><time>2026-04-14T12:29:31.999Z</time></trkpt><trkpt lat="38.07191082653196" lon="15.822572618764665"><ele>1195.0</ele><time>2026-04-14T12:29:33.999Z</time></trkpt><trkpt lat="38.07185315752816" lon="15.822657096385761"><ele>1196.0</ele><time>2026-04-14T12:29:34.999Z</time></trkpt><trkpt lat="38.07179888405313" lon="15.822760894778877"><ele>1197.0</ele><time>2026-04-14T12:29:35.999Z</time></trkpt><trkpt lat="38.0717318449947" lon="15.822872178336192"><ele>1198.0</ele><time>2026-04-14T12:29:36.999Z</time></trkpt><trkpt lat="38.07165779238336" lon="15.822996894726478"><ele>1198.0</ele><time>2026-04-14T12:29:37.999Z</time></trkpt><trkpt lat="38.071566016078336" lon="15.823163015578677"><ele>1198.0</ele><time>2026-04-14T12:29:38.999Z</time></trkpt><trkpt lat="38.07146154957633" lon="15.823333118571862"><ele>1198.0</ele><time>2026-04-14T12:29:39.999Z</time></trkpt><trkpt lat="38.0713850259106" lon="15.823428467844382"><ele>1198.0</ele><time>2026-04-14T12:29:40.999Z</time></trkpt><trkpt lat="38.07131668630152" lon="15.82349328166436"><ele>1198.8333333333333</ele><time>2026-04-14T12:29:41.999Z</time></trkpt><trkpt lat="38.071260824140154" lon="15.823554766091583"><ele>1199.6666666666665</ele><time>2026-04-14T12:29:42.999Z</time></trkpt><trkpt lat="38.07121039478456" lon="15.823624032210747"><ele>1200.5</ele><time>2026-04-14T12:29:43.999Z</time></trkpt><trkpt lat="38.07117274613329" lon="15.823705156889305"><ele>1201.3333333333333</ele><time>2026-04-14T12:29:44.999Z</time></trkpt><trkpt lat="38.07112207511406" lon="15.823819276398472"><ele>1202.1666666666667</ele><time>2026-04-14T12:29:45.999Z</time></trkpt><trkpt lat="38.0710726383889" lon="15.823934960107325"><ele>1203.0</ele><time>2026-04-14T12:29:46.999Z</time></trkpt><trkpt lat="38.071011730136966" lon="15.824045047862851"><ele>1203.0</ele><time>2026-04-14T12:29:47.999Z</time></trkpt><trkpt lat="38.07095324071831" lon="15.824153164829115"><ele>1203.0</ele><time>2026-04-14T12:29:48.999Z</time></trkpt><trkpt lat="38.0709046657967" lon="15.82424035495875"><ele>1203.0</ele><time>2026-04-14T12:29:49.999Z</time></trkpt><trkpt lat="38.07087379643949" lon="15.824342899492251"><ele>1203.0</ele><time>2026-04-14T12:29:50.999Z</time></trkpt><trkpt lat="38.07083676234531" lon="15.824426342835316"><ele>1203.0</ele><time>2026-04-14T12:29:51.999Z</time></trkpt><trkpt lat="38.07080238955079" lon="15.82452276374174"><ele>1203.0</ele><time>2026-04-14T12:29:52.999Z</time></trkpt><trkpt lat="38.07077058264581" lon="15.824622344413735"><ele>1203.0</ele><time>2026-04-14T12:29:53.999Z</time></trkpt><trkpt lat="38.070741819101954" lon="15.824725154139497"><ele>1203.0</ele><time>2026-04-14T12:29:54.999Z</time></trkpt><trkpt lat="38.070720059116525" lon="15.82483064898222"><ele>1203.0</ele><time>2026-04-14T12:29:55.999Z</time></trkpt><trkpt lat="38.07069574834965" lon="15.824927509283617"><ele>1203.0</ele><time>2026-04-14T12:29:56.999Z</time></trkpt><trkpt lat="38.07067048353803" lon="15.825026529796414"><ele>1203.0</ele><time>2026-04-14T12:29:57.999Z</time></trkpt><trkpt lat="38.070643946107985" lon="15.825127410228962"><ele>1203.0</ele><time>2026-04-14T12:29:59Z</time></trkpt><trkpt lat="38.07063398691419" lon="15.825243216495512"><ele>1204.6</ele><time>2026-04-14T12:30:00Z</time></trkpt><trkpt lat="38.070602887268045" lon="15.825360553761291"><ele>1206.1999999999998</ele><time>2026-04-14T12:30:01Z</time></trkpt><trkpt lat="38.07056991128889" lon="15.825484805098553"><ele>1207.8</ele><time>2026-04-14T12:30:02Z</time></trkpt><trkpt lat="38.07053910651077" lon="15.82559744861122"><ele>1209.3999999999999</ele><time>2026-04-14T12:30:03Z</time></trkpt><trkpt lat="38.070513761144575" lon="15.825713179934942"><ele>1211.0</ele><time>2026-04-14T12:30:04Z</time></trkpt><trkpt lat="38.07048184503578" lon="15.825845251840533"><ele>1211.0</ele><time>2026-04-14T12:30:05Z</time></trkpt><trkpt lat="38.0704585317391" lon="15.82595573572999"><ele>1211.0</ele><time>2026-04-14T12:30:06Z</time></trkpt><trkpt lat="38.070437787727826" lon="15.826074382830809"><ele>1211.0</ele><time>2026-04-14T12:30:07Z</time></trkpt><trkpt lat="38.070414968889665" lon="15.826189441394124"><ele>1211.0</ele><time>2026-04-14T12:30:08Z</time></trkpt><trkpt lat="38.07039059700272" lon="15.826304823066112"><ele>1211.0</ele><time>2026-04-14T12:30:09Z</time></trkpt><trkpt lat="38.0703751862968" lon="15.826400918037768"><ele>1211.3999999999999</ele><time>2026-04-14T12:30:10Z</time></trkpt><trkpt lat="38.07035636253591" lon="15.826545891889856"><ele>1211.8</ele><time>2026-04-14T12:30:12Z</time></trkpt><trkpt lat="38.070376891762365" lon="15.82663952537866"><ele>1212.1999999999998</ele><time>2026-04-14T12:30:13Z</time></trkpt><trkpt lat="38.07041027822022" lon="15.826744431581925"><ele>1212.6</ele><time>2026-04-14T12:30:14Z</time></trkpt><trkpt lat="38.070429189478794" lon="15.82686801396522"><ele>1213.0</ele><time>2026-04-14T12:30:15Z</time></trkpt><trkpt lat="38.07043522175672" lon="15.826970828188795"><ele>1213.0</ele><time>2026-04-14T12:30:16Z</time></trkpt><trkpt lat="38.070438860579635" lon="15.827072059599251"><ele>1213.0</ele><time>2026-04-14T12:30:17Z</time></trkpt><trkpt lat="38.070457202316376" lon="15.827149830452573"><ele>1213.0</ele><time>2026-04-14T12:30:18Z</time></trkpt><trkpt lat="38.07054262579955" lon="15.827234563604591"><ele>1213.0</ele><time>2026-04-14T12:30:20Z</time></trkpt><trkpt lat="38.07061532226905" lon="15.827237830207828"><ele>1213.0</ele><time>2026-04-14T12:30:21Z</time></trkpt><trkpt lat="38.0707028999533" lon="15.827225693456098"><ele>1213.0</ele><time>2026-04-14T12:30:22Z</time></trkpt><trkpt lat="38.07078825772431" lon="15.827222380493067"><ele>1213.3333333333333</ele><time>2026-04-14T12:30:23Z</time></trkpt><trkpt lat="38.07087407035352" lon="15.827260821023517"><ele>1213.6666666666665</ele><time>2026-04-14T12:30:24Z</time></trkpt><trkpt lat="38.07093727283676" lon="15.827309655961802"><ele>1214.0</ele><time>2026-04-14T12:30:25Z</time></trkpt><trkpt lat="38.07101242063994" lon="15.827411964979074"><ele>1214.3333333333333</ele><time>2026-04-14T12:30:27Z</time></trkpt><trkpt lat="38.07098487177714" lon="15.827529706140664"><ele>1214.6666666666667</ele><time>2026-04-14T12:30:29Z</time></trkpt><trkpt lat="38.07093149270217" lon="15.827585175299005"><ele>1215.0</ele><time>2026-04-14T12:30:30Z</time></trkpt><trkpt lat="38.0708588106748" lon="15.827611639568852"><ele>1215.0</ele><time>2026-04-14T12:30:31Z</time></trkpt><trkpt lat="38.070789156659416" lon="15.827615793005814"><ele>1215.0</ele><time>2026-04-14T12:30:32Z</time></trkpt><trkpt lat="38.07071021621354" lon="15.82774095049933"><ele>1215.0</ele><time>2026-04-14T12:30:34Z</time></trkpt><trkpt lat="38.07069148184511" lon="15.827863659009164"><ele>1215.0</ele><time>2026-04-14T12:30:35Z</time></trkpt><trkpt lat="38.070700097034006" lon="15.828016577386208"><ele>1215.0</ele><time>2026-04-14T12:30:36Z</time></trkpt><trkpt lat="38.07072082464509" lon="15.828214508514497"><ele>1212.0</ele><time>2026-04-14T12:30:37Z</time></trkpt><trkpt lat="38.07072492088411" lon="15.82838217193188"><ele>1209.0</ele><time>2026-04-14T12:30:38Z</time></trkpt><trkpt lat="38.07073070599266" lon="15.828514135302672"><ele>1206.0</ele><time>2026-04-14T12:30:39Z</time></trkpt><trkpt lat="38.070731606625586" lon="15.828618676010306"><ele>1203.0</ele><time>2026-04-14T12:30:40Z</time></trkpt><trkpt lat="38.070733931352095" lon="15.82872478331397"><ele>1200.0</ele><time>2026-04-14T12:30:41Z</time></trkpt><trkpt lat="38.07076446166206" lon="15.828808416149014"><ele>1199.5</ele><time>2026-04-14T12:30:42Z</time></trkpt><trkpt lat="38.07079866825303" lon="15.828886430335599"><ele>1199.0</ele><time>2026-04-14T12:30:43Z</time></trkpt><trkpt lat="38.070853552763886" lon="15.828955109029456"><ele>1198.5</ele><time>2026-04-14T12:30:44Z</time></trkpt><trkpt lat="38.07091430224317" lon="15.82899247004108"><ele>1198.0</ele><time>2026-04-14T12:30:45Z</time></trkpt><trkpt lat="38.070978568209064" lon="15.82898386941157"><ele>1197.5</ele><time>2026-04-14T12:30:46Z</time></trkpt><trkpt lat="38.0710640501883" lon="15.828939574577959"><ele>1197.0</ele><time>2026-04-14T12:30:47Z</time></trkpt><trkpt lat="38.07114831452078" lon="15.82888890875859"><ele>1197.0</ele><time>2026-04-14T12:30:48Z</time></trkpt><trkpt lat="38.07122326398654" lon="15.828860667878256"><ele>1197.0</ele><time>2026-04-14T12:30:49Z</time></trkpt><trkpt lat="38.07135077527676" lon="15.828851896418444"><ele>1197.0</ele><time>2026-04-14T12:30:51Z</time></trkpt><trkpt lat="38.07145510939827" lon="15.828868153403379"><ele>1197.0</ele><time>2026-04-14T12:30:53Z</time></trkpt><trkpt lat="38.071549000088844" lon="15.828895617111476"><ele>1197.0</ele><time>2026-04-14T12:30:55Z</time></trkpt><trkpt lat="38.071610517364654" lon="15.828958984901952"><ele>1197.0</ele><time>2026-04-14T12:30:57Z</time></trkpt><trkpt lat="38.07163357510429" lon="15.82903582510001"><ele>1197.0</ele><time>2026-04-14T12:30:59Z</time></trkpt><trkpt lat="38.071612985855516" lon="15.829134228324667"><ele>1197.0</ele><time>2026-04-14T12:31:01Z</time></trkpt><trkpt lat="38.071514254452566" lon="15.829199462332008"><ele>1197.0</ele><time>2026-04-14T12:31:03Z</time></trkpt><trkpt lat="38.07144615722903" lon="15.829202654965787"><ele>1197.0</ele><time>2026-04-14T12:31:03.999Z</time></trkpt><trkpt lat="38.07132113045745" lon="15.829212357991537"><ele>1197.0</ele><time>2026-04-14T12:31:05.999Z</time></trkpt><trkpt lat="38.071256719107105" lon="15.82924122892269"><ele>1197.0</ele><time>2026-04-14T12:31:06.999Z</time></trkpt><trkpt lat="38.07113470363972" lon="15.829265467462786"><ele>1197.0</ele><time>2026-04-14T12:31:08.999Z</time></trkpt><trkpt lat="38.071030128599965" lon="15.829355114596321"><ele>1197.0</ele><time>2026-04-14T12:31:10.999Z</time></trkpt><trkpt lat="38.07099681060976" lon="15.829435929580358"><ele>1197.0</ele><time>2026-04-14T12:31:11.999Z</time></trkpt><trkpt lat="38.070948608617186" lon="15.829598234114643"><ele>1195.6666666666667</ele><time>2026-04-14T12:31:13.999Z</time></trkpt><trkpt lat="38.07088977151108" lon="15.829669183085132"><ele>1194.3333333333333</ele><time>2026-04-14T12:31:14.999Z</time></trkpt><trkpt lat="38.070831894929825" lon="15.82974840073658"><ele>1193.0</ele><time>2026-04-14T12:31:15.999Z</time></trkpt><trkpt lat="38.07079179363036" lon="15.829842500819215"><ele>1191.6666666666665</ele><time>2026-04-14T12:31:16.999Z</time></trkpt><trkpt lat="38.07076230324529" lon="15.82992253308419"><ele>1190.3333333333333</ele><time>2026-04-14T12:31:17.999Z</time></trkpt><trkpt lat="38.0706591879039" lon="15.829980250236149"><ele>1189.0</ele><time>2026-04-14T12:31:19.999Z</time></trkpt><trkpt lat="38.0705370818218" lon="15.829916261713166"><ele>1187.8333333333333</ele><time>2026-04-14T12:31:21.999Z</time></trkpt><trkpt lat="38.07047027434882" lon="15.829890013762611"><ele>1186.6666666666665</ele><time>2026-04-14T12:31:22.999Z</time></trkpt><trkpt lat="38.07040253897304" lon="15.82986885678569"><ele>1185.5</ele><time>2026-04-14T12:31:23.999Z</time></trkpt><trkpt lat="38.07032877332258" lon="15.829840738184009"><ele>1184.3333333333333</ele><time>2026-04-14T12:31:24.999Z</time></trkpt><trkpt lat="38.070251204652834" lon="15.829815910185149"><ele>1183.1666666666667</ele><time>2026-04-14T12:31:25.999Z</time></trkpt><trkpt lat="38.07017210960916" lon="15.829811584791313"><ele>1182.0</ele><time>2026-04-14T12:31:26.999Z</time></trkpt><trkpt lat="38.07009263400399" lon="15.82982542714969"><ele>1182.0</ele><time>2026-04-14T12:31:27.999Z</time></trkpt><trkpt lat="38.07001081683392" lon="15.829849812981385"><ele>1182.0</ele><time>2026-04-14T12:31:28.999Z</time></trkpt><trkpt lat="38.069933677861954" lon="15.82986845243203"><ele>1182.0</ele><time>2026-04-14T12:31:29.999Z</time></trkpt><trkpt lat="38.069847277995784" lon="15.829883598816664"><ele>1182.0</ele><time>2026-04-14T12:31:30.999Z</time></trkpt><trkpt lat="38.069780772680815" lon="15.82987985847628"><ele>1182.0</ele><time>2026-04-14T12:31:31.999Z</time></trkpt><trkpt lat="38.06962867129037" lon="15.829872887705525"><ele>1179.8333333333333</ele><time>2026-04-14T12:31:33.999Z</time></trkpt><trkpt lat="38.06954720779888" lon="15.829857590215287"><ele>1177.6666666666667</ele><time>2026-04-14T12:31:34.999Z</time></trkpt><trkpt lat="38.06946849436765" lon="15.829839620354925"><ele>1175.5</ele><time>2026-04-14T12:31:35.999Z</time></trkpt><trkpt lat="38.069340673656214" lon="15.829832587094868"><ele>1173.3333333333335</ele><time>2026-04-14T12:31:38Z</time></trkpt><trkpt lat="38.06927089272427" lon="15.829840851254852"><ele>1171.1666666666667</ele><time>2026-04-14T12:31:39Z</time></trkpt><trkpt lat="38.06919639922461" lon="15.829859925254167"><ele>1169.0</ele><time>2026-04-14T12:31:40Z</time></trkpt><trkpt lat="38.069121378257755" lon="15.829859505463917"><ele>1163.8</ele><time>2026-04-14T12:31:41Z</time></trkpt><trkpt lat="38.0690511443706" lon="15.829879713417903"><ele>1158.6000000000001</ele><time>2026-04-14T12:31:42Z</time></trkpt><trkpt lat="38.06898578383413" lon="15.82990666549287"><ele>1153.4</ele><time>2026-04-14T12:31:43Z</time></trkpt><trkpt lat="38.068882030543904" lon="15.829981224357965"><ele>1148.2</ele><time>2026-04-14T12:31:45Z</time></trkpt><trkpt lat="38.068888901048645" lon="15.830163742858666"><ele>1143.0</ele><time>2026-04-14T12:31:47Z</time></trkpt><trkpt lat="38.06897988512104" lon="15.830221137544862"><ele>1144.6666666666667</ele><time>2026-04-14T12:31:48Z</time></trkpt><trkpt lat="38.0690547100416" lon="15.830283873879928"><ele>1146.3333333333333</ele><time>2026-04-14T12:31:49Z</time></trkpt><trkpt lat="38.06909674775933" lon="15.830380943279618"><ele>1148.0</ele><time>2026-04-14T12:31:50Z</time></trkpt><trkpt lat="38.06914800542071" lon="15.830462684224674"><ele>1149.6666666666665</ele><time>2026-04-14T12:31:51Z</time></trkpt><trkpt lat="38.069208577713205" lon="15.830531053311304"><ele>1151.3333333333333</ele><time>2026-04-14T12:31:52Z</time></trkpt><trkpt lat="38.0692557252132" lon="15.830596193027484"><ele>1153.0</ele><time>2026-04-14T12:31:53Z</time></trkpt><trkpt lat="38.069307156288694" lon="15.830659886941127"><ele>1153.0</ele><time>2026-04-14T12:31:54Z</time></trkpt><trkpt lat="38.06934859406326" lon="15.830727220524857"><ele>1153.0</ele><time>2026-04-14T12:31:55Z</time></trkpt><trkpt lat="38.069355783757594" lon="15.830813448445724"><ele>1153.0</ele><time>2026-04-14T12:31:56Z</time></trkpt><trkpt lat="38.0693266015422" lon="15.83089179496996"><ele>1153.0</ele><time>2026-04-14T12:31:57Z</time></trkpt><trkpt lat="38.069325946613" lon="15.830984173343266"><ele>1153.0</ele><time>2026-04-14T12:31:58Z</time></trkpt><trkpt lat="38.06930562690578" lon="15.831069609404379"><ele>1153.0</ele><time>2026-04-14T12:31:59Z</time></trkpt><trkpt lat="38.0692940036033" lon="15.831218660224911"><ele>1148.4</ele><time>2026-04-14T12:32:01Z</time></trkpt><trkpt lat="38.069320732137" lon="15.83129131253493"><ele>1143.8</ele><time>2026-04-14T12:32:02Z</time></trkpt><trkpt lat="38.06941537715742" lon="15.831374208679865"><ele>1139.2</ele><time>2026-04-14T12:32:04Z</time></trkpt><trkpt lat="38.06952649287795" lon="15.83137664724409"><ele>1134.6</ele><time>2026-04-14T12:32:06Z</time></trkpt><trkpt lat="38.06959079683067" lon="15.831374824371684"><ele>1130.0</ele><time>2026-04-14T12:32:07Z</time></trkpt><trkpt lat="38.069711948344896" lon="15.831372910294517"><ele>1130.0</ele><time>2026-04-14T12:32:09Z</time></trkpt><trkpt lat="38.06979534502112" lon="15.83136526420427"><ele>1130.0</ele><time>2026-04-14T12:32:11Z</time></trkpt><trkpt lat="38.06980866892741" lon="15.831466070894034"><ele>1130.0</ele><time>2026-04-14T12:32:14Z</time></trkpt><trkpt lat="38.069725222432275" lon="15.831470973606617"><ele>1130.0</ele><time>2026-04-14T12:32:16Z</time></trkpt><trkpt lat="38.06961684867385" lon="15.831559743020303"><ele>1130.0</ele><time>2026-04-14T12:32:18Z</time></trkpt><trkpt lat="38.06956043785952" lon="15.831660959789346"><ele>1130.0</ele><time>2026-04-14T12:32:20Z</time></trkpt><trkpt lat="38.069636142784766" lon="15.831763419837815"><ele>1130.0</ele><time>2026-04-14T12:32:22Z</time></trkpt><trkpt lat="38.069705066677734" lon="15.831723190807434"><ele>1130.0</ele><time>2026-04-14T12:32:23Z</time></trkpt><trkpt lat="38.06981650083714" lon="15.831617617866288"><ele>1130.0</ele><time>2026-04-14T12:32:25Z</time></trkpt><trkpt lat="38.06990300813172" lon="15.831577690696303"><ele>1130.0</ele><time>2026-04-14T12:32:26Z</time></trkpt><trkpt lat="38.06998202671531" lon="15.831504655816056"><ele>1131.0</ele><time>2026-04-14T12:32:27Z</time></trkpt><trkpt lat="38.07005835894675" lon="15.831441628052346"><ele>1132.0</ele><time>2026-04-14T12:32:28Z</time></trkpt><trkpt lat="38.07012867160336" lon="15.83138630484917"><ele>1133.0</ele><time>2026-04-14T12:32:29Z</time></trkpt><trkpt lat="38.07019369072408" lon="15.83135109371775"><ele>1134.0</ele><time>2026-04-14T12:32:30Z</time></trkpt><trkpt lat="38.07026925738764" lon="15.831307669188957"><ele>1135.0</ele><time>2026-04-14T12:32:31Z</time></trkpt><trkpt lat="38.07033277683959" lon="15.831268765297175"><ele>1136.0</ele><time>2026-04-14T12:32:32Z</time></trkpt><trkpt lat="38.07041950104641" lon="15.83121328684142"><ele>1136.0</ele><time>2026-04-14T12:32:33Z</time></trkpt><trkpt lat="38.07050796349597" lon="15.831184268712951"><ele>1136.0</ele><time>2026-04-14T12:32:34Z</time></trkpt><trkpt lat="38.070583870284516" lon="15.83117556972"><ele>1136.0</ele><time>2026-04-14T12:32:34.999Z</time></trkpt><trkpt lat="38.07065543459836" lon="15.831156257774744"><ele>1136.0</ele><time>2026-04-14T12:32:35.999Z</time></trkpt><trkpt lat="38.07072182931609" lon="15.831137033371432"><ele>1136.0</ele><time>2026-04-14T12:32:36.999Z</time></trkpt><trkpt lat="38.070795688847795" lon="15.831095757830267"><ele>1136.0</ele><time>2026-04-14T12:32:37.999Z</time></trkpt><trkpt lat="38.07086550837574" lon="15.831110715793686"><ele>1132.5714285714284</ele><time>2026-04-14T12:32:38.999Z</time></trkpt><trkpt lat="38.07095302517351" lon="15.831120411010625"><ele>1129.142857142857</ele><time>2026-04-14T12:32:39.999Z</time></trkpt><trkpt lat="38.07100895035876" lon="15.831177628133654"><ele>1125.7142857142858</ele><time>2026-04-14T12:32:40.999Z</time></trkpt><trkpt lat="38.07107752253315" lon="15.831204419935201"><ele>1122.2857142857142</ele><time>2026-04-14T12:32:41.999Z</time></trkpt><trkpt lat="38.07114455684898" lon="15.831231508583631"><ele>1118.857142857143</ele><time>2026-04-14T12:32:42.999Z</time></trkpt><trkpt lat="38.07120722475145" lon="15.831261047920384"><ele>1115.4285714285713</ele><time>2026-04-14T12:32:43.999Z</time></trkpt><trkpt lat="38.07126430754311" lon="15.831299491705499"><ele>1112.0</ele><time>2026-04-14T12:32:44.999Z</time></trkpt><trkpt lat="38.071321340192476" lon="15.831335995119925"><ele>1112.0</ele><time>2026-04-14T12:32:45.999Z</time></trkpt><trkpt lat="38.07141750754033" lon="15.831399760242265"><ele>1112.0</ele><time>2026-04-14T12:32:47.999Z</time></trkpt><trkpt lat="38.07150033222553" lon="15.831445781256203"><ele>1112.0</ele><time>2026-04-14T12:32:49.999Z</time></trkpt><trkpt lat="38.071533400922796" lon="15.831545578056724"><ele>1112.0</ele><time>2026-04-14T12:32:51.999Z</time></trkpt><trkpt lat="38.07141129713752" lon="15.83155608418619"><ele>1112.0</ele><time>2026-04-14T12:32:53.999Z</time></trkpt><trkpt lat="38.071332885291625" lon="15.831475250823225"><ele>1112.0</ele><time>2026-04-14T12:32:54.999Z</time></trkpt><trkpt lat="38.07122828590443" lon="15.831452197090055"><ele>1112.0</ele><time>2026-04-14T12:32:55.999Z</time></trkpt><trkpt lat="38.071150570506575" lon="15.831457930731256"><ele>1112.0</ele><time>2026-04-14T12:32:56.999Z</time></trkpt><trkpt lat="38.07107921701029" lon="15.83148315139344"><ele>1112.0</ele><time>2026-04-14T12:32:57.999Z</time></trkpt><trkpt lat="38.0710254295842" lon="15.831581410261032"><ele>1112.0</ele><time>2026-04-14T12:32:58.999Z</time></trkpt><trkpt lat="38.070959155383875" lon="15.831659052305147"><ele>1112.0</ele><time>2026-04-14T12:32:59.999Z</time></trkpt><trkpt lat="38.070872041691494" lon="15.831744989526658"><ele>1105.75</ele><time>2026-04-14T12:33:00.999Z</time></trkpt><trkpt lat="38.07080610020046" lon="15.831879469534051"><ele>1099.5</ele><time>2026-04-14T12:33:01.999Z</time></trkpt><trkpt lat="38.07069853357528" lon="15.831959490805213"><ele>1093.25</ele><time>2026-04-14T12:33:02.999Z</time></trkpt><trkpt lat="38.07061616557624" lon="15.832054649767384"><ele>1087.0</ele><time>2026-04-14T12:33:03.999Z</time></trkpt><trkpt lat="38.07053608003679" lon="15.832148945962993"><ele>1087.0</ele><time>2026-04-14T12:33:04.999Z</time></trkpt><trkpt lat="38.07045142179849" lon="15.832203691960355"><ele>1087.0</ele><time>2026-04-14T12:33:05.999Z</time></trkpt><trkpt lat="38.07040711965107" lon="15.8322681044351"><ele>1087.0</ele><time>2026-04-14T12:33:06.999Z</time></trkpt><trkpt lat="38.07040544990855" lon="15.83235418026783"><ele>1087.0</ele><time>2026-04-14T12:33:08.999Z</time></trkpt><trkpt lat="38.07047340339451" lon="15.832381006525258"><ele>1087.0</ele><time>2026-04-14T12:33:09.999Z</time></trkpt><trkpt lat="38.07055031263919" lon="15.832396485992044"><ele>1087.0</ele><time>2026-04-14T12:33:10.999Z</time></trkpt><trkpt lat="38.070622631515356" lon="15.832415696549827"><ele>1087.0</ele><time>2026-04-14T12:33:11.999Z</time></trkpt><trkpt lat="38.07070126654401" lon="15.832481696716881"><ele>1087.0</ele><time>2026-04-14T12:33:13.999Z</time></trkpt><trkpt lat="38.070756962928215" lon="15.832532081373813"><ele>1087.0</ele><time>2026-04-14T12:33:15.999Z</time></trkpt><trkpt lat="38.07083491772946" lon="15.832580850493105"><ele>1087.0</ele><time>2026-04-14T12:33:17.999Z</time></trkpt><trkpt lat="38.070898659207515" lon="15.832625389209229"><ele>1087.0</ele><time>2026-04-14T12:33:19.999Z</time></trkpt><trkpt lat="38.07087409060497" lon="15.832719651233123"><ele>1087.0</ele><time>2026-04-14T12:33:21.999Z</time></trkpt><trkpt lat="38.070775263665425" lon="15.832678282645581"><ele>1087.0</ele><time>2026-04-14T12:33:23.999Z</time></trkpt><trkpt lat="38.070677848365605" lon="15.832619211036164"><ele>1087.0</ele><time>2026-04-14T12:33:25.999Z</time></trkpt><trkpt lat="38.07059705197601" lon="15.83270003082136"><ele>1087.0</ele><time>2026-04-14T12:33:27.999Z</time></trkpt><trkpt lat="38.070604735813205" lon="15.832784831076461"><ele>1087.0</ele><time>2026-04-14T12:33:28.999Z</time></trkpt><trkpt lat="38.0706803179358" lon="15.832802419330289"><ele>1087.0</ele><time>2026-04-14T12:33:29.999Z</time></trkpt><trkpt lat="38.070744161317954" lon="15.832819574934634"><ele>1087.0</ele><time>2026-04-14T12:33:31.999Z</time></trkpt><trkpt lat="38.070803175430925" lon="15.832884905131671"><ele>1080.5</ele><time>2026-04-14T12:33:33.999Z</time></trkpt><trkpt lat="38.07073312476518" lon="15.832947040169044"><ele>1074.0</ele><time>2026-04-14T12:33:35.999Z</time></trkpt><trkpt lat="38.07066228240178" lon="15.832908739869938"><ele>1067.5</ele><time>2026-04-14T12:33:37.999Z</time></trkpt><trkpt lat="38.07058869968062" lon="15.832882225792826"><ele>1061.0</ele><time>2026-04-14T12:33:40.999Z</time></trkpt><trkpt lat="38.070504880070395" lon="15.832851931855739"><ele>1054.5</ele><time>2026-04-14T12:33:43.999Z</time></trkpt><trkpt lat="38.07043976922301" lon="15.832826420122847"><ele>1048.0</ele><time>2026-04-14T12:33:44.999Z</time></trkpt><trkpt lat="38.070368924635545" lon="15.832810134131918"><ele>1048.0</ele><time>2026-04-14T12:33:45.999Z</time></trkpt><trkpt lat="38.07029323385032" lon="15.83284144799301"><ele>1048.0</ele><time>2026-04-14T12:33:46.999Z</time></trkpt><trkpt lat="38.070228917681185" lon="15.832860266881145"><ele>1048.0</ele><time>2026-04-14T12:33:47.999Z</time></trkpt><trkpt lat="38.07015982908746" lon="15.83289326289894"><ele>1048.0</ele><time>2026-04-14T12:33:48.999Z</time></trkpt><trkpt lat="38.07005770886052" lon="15.832918290971563"><ele>1048.0</ele><time>2026-04-14T12:33:49.999Z</time></trkpt><trkpt lat="38.06996332132394" lon="15.832956149017"><ele>1048.0</ele><time>2026-04-14T12:33:51Z</time></trkpt><trkpt lat="38.06989190799626" lon="15.832990248050749"><ele>1050.3333333333333</ele><time>2026-04-14T12:33:52Z</time></trkpt><trkpt lat="38.06980218026671" lon="15.833036496019899"><ele>1052.6666666666665</ele><time>2026-04-14T12:33:53Z</time></trkpt><trkpt lat="38.06972375551822" lon="15.833082234592943"><ele>1055.0</ele><time>2026-04-14T12:33:54Z</time></trkpt><trkpt lat="38.06964110517949" lon="15.833130428432531"><ele>1057.3333333333333</ele><time>2026-04-14T12:33:55Z</time></trkpt><trkpt lat="38.06958136661833" lon="15.833164265753146"><ele>1059.6666666666667</ele><time>2026-04-14T12:33:56Z</time></trkpt><trkpt lat="38.06950436674638" lon="15.833238524610081"><ele>1062.0</ele><time>2026-04-14T12:33:57Z</time></trkpt><trkpt lat="38.06941781155708" lon="15.833281690829734"><ele>1062.0</ele><time>2026-04-14T12:33:58Z</time></trkpt><trkpt lat="38.06934307630151" lon="15.8333083557164"><ele>1062.0</ele><time>2026-04-14T12:33:59Z</time></trkpt><trkpt lat="38.069260530823755" lon="15.833316418762887"><ele>1062.0</ele><time>2026-04-14T12:34:00Z</time></trkpt><trkpt lat="38.069178046540614" lon="15.83338601607766"><ele>1062.0</ele><time>2026-04-14T12:34:01Z</time></trkpt><trkpt lat="38.0690956779086" lon="15.83344129301565"><ele>1062.0</ele><time>2026-04-14T12:34:02Z</time></trkpt><trkpt lat="38.06900743720494" lon="15.833517621306674"><ele>1058.0</ele><time>2026-04-14T12:34:03Z</time></trkpt><trkpt lat="38.068963592820914" lon="15.833630730421463"><ele>1054.0</ele><time>2026-04-14T12:34:04Z</time></trkpt><trkpt lat="38.06885469630158" lon="15.833660353749906"><ele>1050.0</ele><time>2026-04-14T12:34:05Z</time></trkpt><trkpt lat="38.06878213562412" lon="15.83373204697316"><ele>1046.0</ele><time>2026-04-14T12:34:06Z</time></trkpt><trkpt lat="38.06870637458174" lon="15.833822346130829"><ele>1042.0</ele><time>2026-04-14T12:34:07Z</time></trkpt><trkpt lat="38.06864727722924" lon="15.833913232227038"><ele>1042.0</ele><time>2026-04-14T12:34:08Z</time></trkpt><trkpt lat="38.0685970181298" lon="15.834007585153628"><ele>1042.0</ele><time>2026-04-14T12:34:09Z</time></trkpt><trkpt lat="38.068545537234186" lon="15.834091426924028"><ele>1042.0</ele><time>2026-04-14T12:34:10Z</time></trkpt><trkpt lat="38.06850715430705" lon="15.834161682066254"><ele>1042.0</ele><time>2026-04-14T12:34:11Z</time></trkpt><trkpt lat="38.06846912321219" lon="15.834254418941015"><ele>1042.0</ele><time>2026-04-14T12:34:12Z</time></trkpt><trkpt lat="38.068430081337105" lon="15.834352894711763"><ele>1042.0</ele><time>2026-04-14T12:34:13Z</time></trkpt><trkpt lat="38.068384194734904" lon="15.834442490231567"><ele>1038.4285714285713</ele><time>2026-04-14T12:34:14Z</time></trkpt><trkpt lat="38.068351015189364" lon="15.83452310738608"><ele>1034.857142857143</ele><time>2026-04-14T12:34:15Z</time></trkpt><trkpt lat="38.068309200110534" lon="15.83459740779961"><ele>1031.2857142857142</ele><time>2026-04-14T12:34:16Z</time></trkpt><trkpt lat="38.068265705134394" lon="15.83466335895641"><ele>1027.7142857142858</ele><time>2026-04-14T12:34:17Z</time></trkpt><trkpt lat="38.068211620855195" lon="15.834735426713289"><ele>1024.142857142857</ele><time>2026-04-14T12:34:18Z</time></trkpt><trkpt lat="38.068149362763975" lon="15.83479156571566"><ele>1020.5714285714286</ele><time>2026-04-14T12:34:19Z</time></trkpt><trkpt lat="38.06809810928059" lon="15.834838915359391"><ele>1017.0</ele><time>2026-04-14T12:34:20Z</time></trkpt><trkpt lat="38.06799839933849" lon="15.83489905766627"><ele>1014.2</ele><time>2026-04-14T12:34:22Z</time></trkpt><trkpt lat="38.06787070549797" lon="15.83486340542028"><ele>1011.4000000000001</ele><time>2026-04-14T12:34:24Z</time></trkpt><trkpt lat="38.06781758877263" lon="15.834818900270697"><ele>1008.5999999999999</ele><time>2026-04-14T12:34:25Z</time></trkpt><trkpt lat="38.06773955179565" lon="15.834701257927497"><ele>1005.8</ele><time>2026-04-14T12:34:27Z</time></trkpt><trkpt lat="38.067684964263286" lon="15.83461690014187"><ele>1003.0</ele><time>2026-04-14T12:34:28Z</time></trkpt><trkpt lat="38.067641402613724" lon="15.83453563140969"><ele>1002.9999999999999</ele><time>2026-04-14T12:34:29Z</time></trkpt><trkpt lat="38.067605714051666" lon="15.834461698914762"><ele>1003.0</ele><time>2026-04-14T12:34:30Z</time></trkpt><trkpt lat="38.06756997838589" lon="15.834389913718157"><ele>1003.0</ele><time>2026-04-14T12:34:31Z</time></trkpt><trkpt lat="38.06751709023227" lon="15.834337389089999"><ele>1003.0</ele><time>2026-04-14T12:34:33Z</time></trkpt><trkpt lat="38.06747623875885" lon="15.834411737186551"><ele>1002.9999999999999</ele><time>2026-04-14T12:34:35Z</time></trkpt><trkpt lat="38.06747313851135" lon="15.834575958795861"><ele>1003.0</ele><time>2026-04-14T12:34:37Z</time></trkpt><trkpt lat="38.067486574461675" lon="15.83465691441112"><ele>1003.0</ele><time>2026-04-14T12:34:38Z</time></trkpt><trkpt lat="38.06750570343067" lon="15.834748479531447"><ele>1002.9999999999999</ele><time>2026-04-14T12:34:39Z</time></trkpt><trkpt lat="38.067519684641645" lon="15.83483157863618"><ele>1003.0</ele><time>2026-04-14T12:34:40Z</time></trkpt><trkpt lat="38.06753156114982" lon="15.834933751954312"><ele>1003.0</ele><time>2026-04-14T12:34:41Z</time></trkpt><trkpt lat="38.067561872661805" lon="15.835013576406562"><ele>1002.9999999999999</ele><time>2026-04-14T12:34:42Z</time></trkpt><trkpt lat="38.067608260897636" lon="15.835085555844069"><ele>1003.0</ele><time>2026-04-14T12:34:43Z</time></trkpt><trkpt lat="38.0676672001286" lon="15.835137389795962"><ele>1003.0</ele><time>2026-04-14T12:34:44Z</time></trkpt><trkpt lat="38.06772363651494" lon="15.835200505977056"><ele>997.0</ele><time>2026-04-14T12:34:45Z</time></trkpt><trkpt lat="38.06781834104875" lon="15.835291523256082"><ele>991.0</ele><time>2026-04-14T12:34:47Z</time></trkpt><trkpt lat="38.067874630727715" lon="15.835376564861237"><ele>985.0</ele><time>2026-04-14T12:34:48.999Z</time></trkpt><trkpt lat="38.067816761087606" lon="15.835433865135693"><ele>979.0</ele><time>2026-04-14T12:34:50.999Z</time></trkpt><trkpt lat="38.06774620654276" lon="15.835368700651136"><ele>973.0</ele><time>2026-04-14T12:34:52.999Z</time></trkpt><trkpt lat="38.067662857809715" lon="15.835283746868198"><ele>973.0</ele><time>2026-04-14T12:34:54.999Z</time></trkpt><trkpt lat="38.06760903607278" lon="15.8352295812423"><ele>973.0</ele><time>2026-04-14T12:34:55.999Z</time></trkpt><trkpt lat="38.06755624344186" lon="15.835166017370796"><ele>973.0</ele><time>2026-04-14T12:34:56.999Z</time></trkpt><trkpt lat="38.06746328040435" lon="15.835074404970532"><ele>973.0</ele><time>2026-04-14T12:34:58.999Z</time></trkpt><trkpt lat="38.067404021428715" lon="15.835031561528064"><ele>973.0</ele><time>2026-04-14T12:34:59.999Z</time></trkpt><trkpt lat="38.067310020438185" lon="15.834926844678186"><ele>970.3333333333333</ele><time>2026-04-14T12:35:01.999Z</time></trkpt><trkpt lat="38.067244151277784" lon="15.834810279275032"><ele>967.6666666666666</ele><time>2026-04-14T12:35:03.999Z</time></trkpt><trkpt lat="38.06719027587303" lon="15.834753403157958"><ele>965.0</ele><time>2026-04-14T12:35:05.999Z</time></trkpt><trkpt lat="38.067143537688025" lon="15.834814521767079"><ele>962.3333333333333</ele><time>2026-04-14T12:35:07.999Z</time></trkpt><trkpt lat="38.0671735486142" lon="15.834916405536777"><ele>959.6666666666666</ele><time>2026-04-14T12:35:09.999Z</time></trkpt><trkpt lat="38.06722661124561" lon="15.834988065117415"><ele>957.0</ele><time>2026-04-14T12:35:10.999Z</time></trkpt><trkpt lat="38.06728849303519" lon="15.8350652153699"><ele>960.2</ele><time>2026-04-14T12:35:11.999Z</time></trkpt><trkpt lat="38.06734793528083" lon="15.835157604542639"><ele>963.4000000000001</ele><time>2026-04-14T12:35:12.999Z</time></trkpt><trkpt lat="38.06740372149502" lon="15.835251508977342"><ele>966.5999999999999</ele><time>2026-04-14T12:35:13.999Z</time></trkpt><trkpt lat="38.0674596507528" lon="15.835321095580177"><ele>969.8</ele><time>2026-04-14T12:35:14.999Z</time></trkpt><trkpt lat="38.06750860654159" lon="15.835390185745345"><ele>973.0</ele><time>2026-04-14T12:35:15.999Z</time></trkpt><trkpt lat="38.06758127649148" lon="15.835528853979529"><ele>972.9999999999999</ele><time>2026-04-14T12:35:17.999Z</time></trkpt><trkpt lat="38.06760614552564" lon="15.835622361094522"><ele>973.0</ele><time>2026-04-14T12:35:18.999Z</time></trkpt><trkpt lat="38.067624823890206" lon="15.835708699172235"><ele>973.0</ele><time>2026-04-14T12:35:19.999Z</time></trkpt><trkpt lat="38.0676928401622" lon="15.835824802994003"><ele>973.0</ele><time>2026-04-14T12:35:21.999Z</time></trkpt><trkpt lat="38.06779043250526" lon="15.835852199255896"><ele>972.9999999999999</ele><time>2026-04-14T12:35:23.999Z</time></trkpt><trkpt lat="38.06782770149158" lon="15.83594127798111"><ele>973.0</ele><time>2026-04-14T12:35:26.999Z</time></trkpt><trkpt lat="38.06774687154058" lon="15.835959005431194"><ele>973.0</ele><time>2026-04-14T12:35:29.999Z</time></trkpt><trkpt lat="38.067645767501354" lon="15.83590145133856"><ele>973.0</ele><time>2026-04-14T12:35:31.999Z</time></trkpt><trkpt lat="38.06755662035486" lon="15.835864274866394"><ele>973.0</ele><time>2026-04-14T12:35:33.999Z</time></trkpt><trkpt lat="38.06747920505951" lon="15.835800322403253"><ele>973.0</ele><time>2026-04-14T12:38:19Z</time></trkpt><trkpt lat="38.06741716528636" lon="15.835689342404265"><ele>973.0</ele><time>2026-04-14T12:38:21Z</time></trkpt><trkpt lat="38.0673783113165" lon="15.8356126248782"><ele>967.4999999999999</ele><time>2026-04-14T12:38:22Z</time></trkpt><trkpt lat="38.06732867148801" lon="15.83554008875403"><ele>962.0</ele><time>2026-04-14T12:38:23Z</time></trkpt><trkpt lat="38.0672770442695" lon="15.83546626301547"><ele>956.5</ele><time>2026-04-14T12:38:24Z</time></trkpt><trkpt lat="38.067208647404925" lon="15.835394218732416"><ele>951.0</ele><time>2026-04-14T12:38:25Z</time></trkpt><trkpt lat="38.067129613407836" lon="15.835335136563396"><ele>945.4999999999999</ele><time>2026-04-14T12:38:26Z</time></trkpt><trkpt lat="38.06704941695772" lon="15.83528508952456"><ele>940.0</ele><time>2026-04-14T12:38:27Z</time></trkpt><trkpt lat="38.06692113174898" lon="15.835260200840125"><ele>939.9999999999999</ele><time>2026-04-14T12:38:29Z</time></trkpt><trkpt lat="38.06685325595237" lon="15.83524313069983"><ele>940.0</ele><time>2026-04-14T12:38:30Z</time></trkpt><trkpt lat="38.06678983018335" lon="15.835203077827634"><ele>940.0</ele><time>2026-04-14T12:38:31Z</time></trkpt><trkpt lat="38.06672565907767" lon="15.835071740525485"><ele>940.0</ele><time>2026-04-14T12:38:33Z</time></trkpt><trkpt lat="38.066705815713426" lon="15.834994852297593"><ele>939.9999999999999</ele><time>2026-04-14T12:38:34Z</time></trkpt><trkpt lat="38.06671440210526" lon="15.834869347919541"><ele>940.0</ele><time>2026-04-14T12:38:36Z</time></trkpt><trkpt lat="38.06675255653284" lon="15.834793934354614"><ele>942.3333333333333</ele><time>2026-04-14T12:38:37Z</time></trkpt><trkpt lat="38.06678532526139" lon="15.83470152779239"><ele>944.6666666666666</ele><time>2026-04-14T12:38:38Z</time></trkpt><trkpt lat="38.06680478462947" lon="15.834608039865065"><ele>947.0</ele><time>2026-04-14T12:38:39Z</time></trkpt><trkpt lat="38.066813201977894" lon="15.834519911814859"><ele>949.3333333333333</ele><time>2026-04-14T12:38:40Z</time></trkpt><trkpt lat="38.0668262915247" lon="15.834434472238573"><ele>951.6666666666666</ele><time>2026-04-14T12:38:41Z</time></trkpt><trkpt lat="38.066843336936415" lon="15.834293977925995"><ele>954.0</ele><time>2026-04-14T12:38:43Z</time></trkpt><trkpt lat="38.06680797561871" lon="15.834221326198502"><ele>954.0</ele><time>2026-04-14T12:38:45Z</time></trkpt><trkpt lat="38.066747469801925" lon="15.834253967335341"><ele>954.0</ele><time>2026-04-14T12:38:47Z</time></trkpt><trkpt lat="38.066731567866384" lon="15.834350841547652"><ele>954.0</ele><time>2026-04-14T12:38:49Z</time></trkpt><trkpt lat="38.066724948708604" lon="15.834448465794427"><ele>954.0</ele><time>2026-04-14T12:38:50Z</time></trkpt><trkpt lat="38.06669238780126" lon="15.83454442897683"><ele>954.0</ele><time>2026-04-14T12:38:51Z</time></trkpt><trkpt lat="38.06663155684683" lon="15.8346457595808"><ele>954.0</ele><time>2026-04-14T12:38:52Z</time></trkpt><trkpt lat="38.06657088060645" lon="15.834748334445464"><ele>951.6666666666666</ele><time>2026-04-14T12:38:53Z</time></trkpt><trkpt lat="38.066544038436746" lon="15.834820674170903"><ele>949.3333333333333</ele><time>2026-04-14T12:38:54Z</time></trkpt><trkpt lat="38.066523318887214" lon="15.834959660400427"><ele>947.0</ele><time>2026-04-14T12:38:56Z</time></trkpt><trkpt lat="38.06653636002063" lon="15.835051652000129"><ele>944.6666666666666</ele><time>2026-04-14T12:38:57Z</time></trkpt><trkpt lat="38.06655776316542" lon="15.835135297279523"><ele>942.3333333333333</ele><time>2026-04-14T12:38:58Z</time></trkpt><trkpt lat="38.06660687089331" lon="15.83524052676796"><ele>940.0</ele><time>2026-04-14T12:39:00Z</time></trkpt><trkpt lat="38.06664895040076" lon="15.835340768564688"><ele>939.9999999999999</ele><time>2026-04-14T12:39:02Z</time></trkpt><trkpt lat="38.06673398488401" lon="15.835414914000333"><ele>940.0</ele><time>2026-04-14T12:39:04Z</time></trkpt><trkpt lat="38.06679277632936" lon="15.835444853513875"><ele>940.0</ele><time>2026-04-14T12:39:05Z</time></trkpt><trkpt lat="38.06691887656552" lon="15.835482082065129"><ele>940.0</ele><time>2026-04-14T12:39:07Z</time></trkpt><trkpt lat="38.06697717666053" lon="15.835513279376144"><ele>939.9999999999999</ele><time>2026-04-14T12:39:08Z</time></trkpt><trkpt lat="38.067029175959284" lon="15.835564388610154"><ele>940.0</ele><time>2026-04-14T12:39:09Z</time></trkpt><trkpt lat="38.06707477443627" lon="15.835630467744988"><ele>939.9999999999999</ele><time>2026-04-14T12:39:10Z</time></trkpt><trkpt lat="38.06711258672289" lon="15.835698012406104"><ele>940.0</ele><time>2026-04-14T12:39:11Z</time></trkpt><trkpt lat="38.06715883947807" lon="15.835833125600018"><ele>940.0</ele><time>2026-04-14T12:39:13Z</time></trkpt><trkpt lat="38.067170684414286" lon="15.835913627156499"><ele>940.0</ele><time>2026-04-14T12:39:14Z</time></trkpt><trkpt lat="38.067211654830935" lon="15.836031130327504"><ele>939.9999999999999</ele><time>2026-04-14T12:39:16Z</time></trkpt><trkpt lat="38.067265363439056" lon="15.83613044897346"><ele>940.0</ele><time>2026-04-14T12:39:18Z</time></trkpt><trkpt lat="38.06735414552712" lon="15.836240465373983"><ele>937.0</ele><time>2026-04-14T12:39:20Z</time></trkpt><trkpt lat="38.06741170891578" lon="15.836274430720946"><ele>934.0</ele><time>2026-04-14T12:39:21Z</time></trkpt><trkpt lat="38.06752817616619" lon="15.836300024980376"><ele>931.0</ele><time>2026-04-14T12:39:23Z</time></trkpt><trkpt lat="38.06764570139965" lon="15.836326752350057"><ele>928.0</ele><time>2026-04-14T12:39:25Z</time></trkpt><trkpt lat="38.06773429173842" lon="15.836441138149322"><ele>925.0</ele><time>2026-04-14T12:39:27Z</time></trkpt><trkpt lat="38.067797278759414" lon="15.83653407212515"><ele>925.0</ele><time>2026-04-14T12:39:29Z</time></trkpt><trkpt lat="38.067878892238646" lon="15.836514309099364"><ele>925.0</ele><time>2026-04-14T12:39:30.999Z</time></trkpt><trkpt lat="38.06799459799143" lon="15.836452465628719"><ele>925.0</ele><time>2026-04-14T12:39:32.999Z</time></trkpt><trkpt lat="38.06806999662143" lon="15.836427596193996"><ele>925.0</ele><time>2026-04-14T12:39:33.999Z</time></trkpt><trkpt lat="38.068136404183356" lon="15.836428009599523"><ele>925.0</ele><time>2026-04-14T12:39:34.999Z</time></trkpt><trkpt lat="38.06824727093273" lon="15.83642346254667"><ele>925.3333333333333</ele><time>2026-04-14T12:39:36.999Z</time></trkpt><trkpt lat="38.06835444267415" lon="15.836345285330742"><ele>925.6666666666666</ele><time>2026-04-14T12:39:38.999Z</time></trkpt><trkpt lat="38.06841523467608" lon="15.836308008007757"><ele>926.0</ele><time>2026-04-14T12:39:39.999Z</time></trkpt><trkpt lat="38.068475870866465" lon="15.836265074730926"><ele>926.3333333333333</ele><time>2026-04-14T12:39:40.999Z</time></trkpt><trkpt lat="38.06852905834649" lon="15.83621762699425"><ele>926.6666666666666</ele><time>2026-04-14T12:39:41.999Z</time></trkpt><trkpt lat="38.06858043733799" lon="15.836169640806105"><ele>927.0</ele><time>2026-04-14T12:39:42.999Z</time></trkpt><trkpt lat="38.06865893785115" lon="15.836065454449871"><ele>927.0</ele><time>2026-04-14T12:39:44.999Z</time></trkpt><trkpt lat="38.06871939163505" lon="15.835970374361283"><ele>927.0</ele><time>2026-04-14T12:39:46.999Z</time></trkpt><trkpt lat="38.068780823336624" lon="15.835903715847019"><ele>927.0</ele><time>2026-04-14T12:39:49.999Z</time></trkpt><trkpt lat="38.068849555411504" lon="15.835889260290594"><ele>927.0</ele><time>2026-04-14T12:39:51.999Z</time></trkpt><trkpt lat="38.06893931014307" lon="15.835958515458444"><ele>927.0</ele><time>2026-04-14T12:39:54Z</time></trkpt><trkpt lat="38.068978846368026" lon="15.836026376221426"><ele>927.0</ele><time>2026-04-14T12:39:55Z</time></trkpt><trkpt lat="38.0690517972826" lon="15.836111275144578"><ele>925.4000000000001</ele><time>2026-04-14T12:39:57Z</time></trkpt><trkpt lat="38.0691849659433" lon="15.836195600252479"><ele>923.8000000000001</ele><time>2026-04-14T12:39:59Z</time></trkpt><trkpt lat="38.069247214933725" lon="15.83622405767555"><ele>922.2</ele><time>2026-04-14T12:40:00Z</time></trkpt><trkpt lat="38.069363643662484" lon="15.836255371258702"><ele>920.6</ele><time>2026-04-14T12:40:02Z</time></trkpt><trkpt lat="38.0694661374881" lon="15.836219472068882"><ele>919.0</ele><time>2026-04-14T12:40:04Z</time></trkpt><trkpt lat="38.06955867498491" lon="15.83612482242634"><ele>918.9999999999999</ele><time>2026-04-14T12:40:06Z</time></trkpt><trkpt lat="38.069659357680834" lon="15.83609253163714"><ele>919.0</ele><time>2026-04-14T12:40:08Z</time></trkpt><trkpt lat="38.06974056009127" lon="15.836088269546163"><ele>919.0</ele><time>2026-04-14T12:40:09Z</time></trkpt><trkpt lat="38.06981617174567" lon="15.836097950785021"><ele>919.0</ele><time>2026-04-14T12:40:10Z</time></trkpt><trkpt lat="38.06989141810581" lon="15.83611282885335"><ele>918.9999999999999</ele><time>2026-04-14T12:40:11Z</time></trkpt><trkpt lat="38.06995526609425" lon="15.8361295130126"><ele>919.0</ele><time>2026-04-14T12:40:12Z</time></trkpt><trkpt lat="38.07001507254611" lon="15.836162462916588"><ele>919.2</ele><time>2026-04-14T12:40:13Z</time></trkpt><trkpt lat="38.0700804774411" lon="15.836212189326691"><ele>919.4000000000001</ele><time>2026-04-14T12:40:14Z</time></trkpt><trkpt lat="38.07014362176746" lon="15.83626298350309"><ele>919.6</ele><time>2026-04-14T12:40:15Z</time></trkpt><trkpt lat="38.07020954872778" lon="15.836328677499756"><ele>919.8</ele><time>2026-04-14T12:40:16Z</time></trkpt><trkpt lat="38.07031463574963" lon="15.83639867619063"><ele>920.0</ele><time>2026-04-14T12:40:18Z</time></trkpt><trkpt lat="38.07039429685438" lon="15.836472669431382"><ele>920.0000000000001</ele><time>2026-04-14T12:40:20Z</time></trkpt><trkpt lat="38.07042605673451" lon="15.83654728506544"><ele>920.0</ele><time>2026-04-14T12:40:21Z</time></trkpt><trkpt lat="38.07045496111845" lon="15.836621627331052"><ele>920.0</ele><time>2026-04-14T12:40:22Z</time></trkpt><trkpt lat="38.07047574067203" lon="15.83669733359683"><ele>920.0</ele><time>2026-04-14T12:40:23Z</time></trkpt><trkpt lat="38.07050802151426" lon="15.836824957216288"><ele>920.0000000000001</ele><time>2026-04-14T12:40:25Z</time></trkpt><trkpt lat="38.07060285201691" lon="15.836905475344262"><ele>920.0</ele><time>2026-04-14T12:40:27Z</time></trkpt><trkpt lat="38.07067121193588" lon="15.836938603125953"><ele>920.8333333333334</ele><time>2026-04-14T12:40:28Z</time></trkpt><trkpt lat="38.07074645356377" lon="15.83698483688513"><ele>921.6666666666667</ele><time>2026-04-14T12:40:29Z</time></trkpt><trkpt lat="38.07081517606595" lon="15.837039269459783"><ele>922.5</ele><time>2026-04-14T12:40:30Z</time></trkpt><trkpt lat="38.0708666210924" lon="15.837102478555806"><ele>923.3333333333333</ele><time>2026-04-14T12:40:31Z</time></trkpt><trkpt lat="38.0709303438121" lon="15.837209668636962"><ele>924.1666666666666</ele><time>2026-04-14T12:40:33Z</time></trkpt><trkpt lat="38.07100414409416" lon="15.837203683985486"><ele>925.0</ele><time>2026-04-14T12:40:35Z</time></trkpt><trkpt lat="38.07102912529767" lon="15.83728198604373"><ele>924.9999999999999</ele><time>2026-04-14T12:40:38Z</time></trkpt><trkpt lat="38.07097454234764" lon="15.837363657132276"><ele>925.0</ele><time>2026-04-14T12:40:50Z</time></trkpt><trkpt lat="38.07092671579833" lon="15.837422069116123"><ele>925.0</ele><time>2026-04-14T12:41:07Z</time></trkpt><trkpt lat="38.070874205736466" lon="15.837481643666406"><ele>925.0</ele><time>2026-04-14T12:41:09Z</time></trkpt><trkpt lat="38.070794631139314" lon="15.83749441142728"><ele>924.9999999999999</ele><time>2026-04-14T12:41:11Z</time></trkpt><trkpt lat="38.07070862929336" lon="15.837442185069204"><ele>925.0</ele><time>2026-04-14T12:41:14Z</time></trkpt><trkpt lat="38.07064043590187" lon="15.837393987451549"><ele>924.9999999999999</ele><time>2026-04-14T12:41:36Z</time></trkpt><trkpt lat="38.0705806089591" lon="15.8373517383718"><ele>925.0</ele><time>2026-04-14T12:41:37Z</time></trkpt><trkpt lat="38.070518123598646" lon="15.837306979644064"><ele>925.0</ele><time>2026-04-14T12:41:38Z</time></trkpt><trkpt lat="38.07043354377764" lon="15.837311731598282"><ele>925.0</ele><time>2026-04-14T12:41:39Z</time></trkpt><trkpt lat="38.07035623719086" lon="15.837298216563655"><ele>924.9999999999999</ele><time>2026-04-14T12:41:40Z</time></trkpt><trkpt lat="38.0702586079475" lon="15.83727896399031"><ele>925.0</ele><time>2026-04-14T12:41:41Z</time></trkpt><trkpt lat="38.07017361354252" lon="15.837246285097713"><ele>925.0</ele><time>2026-04-14T12:41:42Z</time></trkpt><trkpt lat="38.07011390779383" lon="15.83719030298885"><ele>925.0</ele><time>2026-04-14T12:41:43Z</time></trkpt><trkpt lat="38.07005801674431" lon="15.837135152069287"><ele>925.0</ele><time>2026-04-14T12:41:44Z</time></trkpt><trkpt lat="38.06998688686099" lon="15.837246575797552"><ele>925.0</ele><time>2026-04-14T12:41:47Z</time></trkpt><trkpt lat="38.06995223232487" lon="15.837352108614029"><ele>925.0</ele><time>2026-04-14T12:41:48Z</time></trkpt><trkpt lat="38.06990005652819" lon="15.837490642283658"><ele>923.25</ele><time>2026-04-14T12:41:49Z</time></trkpt><trkpt lat="38.06984291570339" lon="15.837665607987203"><ele>921.5</ele><time>2026-04-14T12:41:50Z</time></trkpt><trkpt lat="38.06978399800615" lon="15.837834464781855"><ele>919.75</ele><time>2026-04-14T12:41:51Z</time></trkpt><trkpt lat="38.06974586609343" lon="15.837939015553202"><ele>918.0</ele><time>2026-04-14T12:41:52Z</time></trkpt><trkpt lat="38.069695082503046" lon="15.838019569291037"><ele>918.0</ele><time>2026-04-14T12:41:53Z</time></trkpt><trkpt lat="38.069625141928896" lon="15.838091717474983"><ele>918.0</ele><time>2026-04-14T12:41:54Z</time></trkpt><trkpt lat="38.069537426505306" lon="15.838140540124146"><ele>918.0</ele><time>2026-04-14T12:41:55Z</time></trkpt><trkpt lat="38.06947892321018" lon="15.838181164086228"><ele>918.0</ele><time>2026-04-14T12:41:56Z</time></trkpt><trkpt lat="38.06944859634757" lon="15.838256167130764"><ele>918.0</ele><time>2026-04-14T12:41:57Z</time></trkpt><trkpt lat="38.06944756545427" lon="15.838337389231244"><ele>918.0</ele><time>2026-04-14T12:41:58Z</time></trkpt><trkpt lat="38.06940899799438" lon="15.83846599784854"><ele>918.0</ele><time>2026-04-14T12:41:59Z</time></trkpt><trkpt lat="38.069355516140256" lon="15.83858236871088"><ele>918.0</ele><time>2026-04-14T12:42:00Z</time></trkpt><trkpt lat="38.069321956269874" lon="15.838669152638571"><ele>918.0</ele><time>2026-04-14T12:42:01Z</time></trkpt><trkpt lat="38.06926702366767" lon="15.838718432141524"><ele>918.0</ele><time>2026-04-14T12:42:02Z</time></trkpt><trkpt lat="38.06917211799001" lon="15.838753531285532"><ele>918.0</ele><time>2026-04-14T12:42:03Z</time></trkpt><trkpt lat="38.069099169122616" lon="15.838798776704277"><ele>918.0</ele><time>2026-04-14T12:42:04Z</time></trkpt><trkpt lat="38.0690564303086" lon="15.838880975371124"><ele>918.0</ele><time>2026-04-14T12:42:05Z</time></trkpt><trkpt lat="38.06901507947744" lon="15.839005323079075"><ele>918.0</ele><time>2026-04-14T12:42:06Z</time></trkpt><trkpt lat="38.06897761179149" lon="15.83912139015472"><ele>918.0</ele><time>2026-04-14T12:42:07Z</time></trkpt><trkpt lat="38.068965322043795" lon="15.83922094412349"><ele>918.0</ele><time>2026-04-14T12:42:08Z</time></trkpt><trkpt lat="38.0689476792536" lon="15.839327001213707"><ele>918.0</ele><time>2026-04-14T12:42:09Z</time></trkpt><trkpt lat="38.06892228726301" lon="15.83942641047668"><ele>925.3333333333334</ele><time>2026-04-14T12:42:10Z</time></trkpt><trkpt lat="38.068899159575714" lon="15.839564180414214"><ele>932.6666666666667</ele><time>2026-04-14T12:42:12Z</time></trkpt><trkpt lat="38.06882944234684" lon="15.839607037666026"><ele>940.0</ele><time>2026-04-14T12:42:14Z</time></trkpt><trkpt lat="38.06874960261492" lon="15.839577127443732"><ele>947.3333333333334</ele><time>2026-04-14T12:42:17Z</time></trkpt><trkpt lat="38.068667780435284" lon="15.839548825091745"><ele>954.6666666666667</ele><time>2026-04-14T12:43:09Z</time></trkpt><trkpt lat="38.068588449981114" lon="15.839505549280105"><ele>962.0</ele><time>2026-04-14T12:43:10Z</time></trkpt><trkpt lat="38.06851785644296" lon="15.839464249963568"><ele>962.0000000000001</ele><time>2026-04-14T12:43:11Z</time></trkpt><trkpt lat="38.06844919830903" lon="15.83941695121185"><ele>962.0</ele><time>2026-04-14T12:43:12Z</time></trkpt><trkpt lat="38.06835927614297" lon="15.839357049206749"><ele>962.0</ele><time>2026-04-14T12:43:13Z</time></trkpt><trkpt lat="38.06828679705405" lon="15.83930534660458"><ele>962.0</ele><time>2026-04-14T12:43:14Z</time></trkpt><trkpt lat="38.06820477518107" lon="15.839236394546935"><ele>962.0000000000001</ele><time>2026-04-14T12:43:15Z</time></trkpt><trkpt lat="38.068141066211304" lon="15.83920637895168"><ele>962.0</ele><time>2026-04-14T12:43:16Z</time></trkpt><trkpt lat="38.06806006486404" lon="15.839164218589774"><ele>955.4000000000001</ele><time>2026-04-14T12:43:17Z</time></trkpt><trkpt lat="38.06798163118188" lon="15.839120222597593"><ele>948.8000000000001</ele><time>2026-04-14T12:43:18Z</time></trkpt><trkpt lat="38.067894430676546" lon="15.839068204994334"><ele>942.2</ele><time>2026-04-14T12:43:19Z</time></trkpt><trkpt lat="38.06780946379274" lon="15.839013206907985"><ele>935.6</ele><time>2026-04-14T12:43:20Z</time></trkpt><trkpt lat="38.067723959942064" lon="15.83894269638525"><ele>929.0</ele><time>2026-04-14T12:43:21Z</time></trkpt><trkpt lat="38.067639720308044" lon="15.83888439034206"><ele>929.0000000000001</ele><time>2026-04-14T12:43:22Z</time></trkpt><trkpt lat="38.06755634391488" lon="15.8388366481981"><ele>929.0</ele><time>2026-04-14T12:43:23Z</time></trkpt><trkpt lat="38.06748682611371" lon="15.838791320072774"><ele>929.0</ele><time>2026-04-14T12:43:24Z</time></trkpt><trkpt lat="38.06741690853903" lon="15.83871825726509"><ele>929.0</ele><time>2026-04-14T12:43:25Z</time></trkpt><trkpt lat="38.0673677916402" lon="15.838641950410754"><ele>929.0000000000001</ele><time>2026-04-14T12:43:26Z</time></trkpt><trkpt lat="38.0673303082372" lon="15.838565851933687"><ele>929.0</ele><time>2026-04-14T12:43:27Z</time></trkpt><trkpt lat="38.067232748897055" lon="15.838491342126714"><ele>931.8000000000001</ele><time>2026-04-14T12:43:29Z</time></trkpt><trkpt lat="38.06713996782011" lon="15.838475344716821"><ele>934.6000000000001</ele><time>2026-04-14T12:43:30Z</time></trkpt><trkpt lat="38.06707217843347" lon="15.838449645093872"><ele>937.4</ele><time>2026-04-14T12:43:31Z</time></trkpt><trkpt lat="38.06698868776046" lon="15.838332301961078"><ele>940.2</ele><time>2026-04-14T12:43:33Z</time></trkpt><trkpt lat="38.06695784612127" lon="15.838262388576881"><ele>943.0</ele><time>2026-04-14T12:43:34Z</time></trkpt><trkpt lat="38.06685199136977" lon="15.838262653465524"><ele>935.8333333333333</ele><time>2026-04-14T12:43:36Z</time></trkpt><trkpt lat="38.0667717990794" lon="15.838290618658"><ele>928.6666666666666</ele><time>2026-04-14T12:43:37Z</time></trkpt><trkpt lat="38.06669886713951" lon="15.83833489057217"><ele>921.5</ele><time>2026-04-14T12:43:38Z</time></trkpt><trkpt lat="38.06663676488615" lon="15.838354927963413"><ele>914.3333333333333</ele><time>2026-04-14T12:43:39Z</time></trkpt><trkpt lat="38.06656915758388" lon="15.838370981974991"><ele>907.1666666666666</ele><time>2026-04-14T12:43:40Z</time></trkpt><trkpt lat="38.06647748043767" lon="15.838376312093112"><ele>900.0</ele><time>2026-04-14T12:43:41Z</time></trkpt><trkpt lat="38.06639538547654" lon="15.838359426682132"><ele>900.0</ele><time>2026-04-14T12:43:42Z</time></trkpt><trkpt lat="38.06632936211877" lon="15.838320067048201"><ele>900.0</ele><time>2026-04-14T12:43:43Z</time></trkpt><trkpt lat="38.06624459657827" lon="15.838266362000834"><ele>900.0</ele><time>2026-04-14T12:43:44Z</time></trkpt><trkpt lat="38.06616797455109" lon="15.83819686201506"><ele>900.0</ele><time>2026-04-14T12:43:45Z</time></trkpt><trkpt lat="38.06610869284582" lon="15.83812959840321"><ele>900.0</ele><time>2026-04-14T12:43:46Z</time></trkpt><trkpt lat="38.066023932656655" lon="15.838047760641711"><ele>900.0</ele><time>2026-04-14T12:43:47Z</time></trkpt><trkpt lat="38.0659305039378" lon="15.837965892276411"><ele>900.0</ele><time>2026-04-14T12:43:48Z</time></trkpt><trkpt lat="38.0658603330336" lon="15.837880582880533"><ele>900.0</ele><time>2026-04-14T12:43:49Z</time></trkpt><trkpt lat="38.06576971884681" lon="15.83784111411587"><ele>900.0</ele><time>2026-04-14T12:43:51Z</time></trkpt><trkpt lat="38.0656697800909" lon="15.837943874783436"><ele>900.0</ele><time>2026-04-14T12:43:53Z</time></trkpt><trkpt lat="38.06560972531527" lon="15.837991122907372"><ele>900.0</ele><time>2026-04-14T12:43:54Z</time></trkpt><trkpt lat="38.06553332107346" lon="15.838086335478616"><ele>899.0</ele><time>2026-04-14T12:43:56Z</time></trkpt><trkpt lat="38.06549587187814" lon="15.838263562046997"><ele>898.0</ele><time>2026-04-14T12:43:58Z</time></trkpt><trkpt lat="38.065479316683344" lon="15.838363222620089"><ele>897.0</ele><time>2026-04-14T12:43:59Z</time></trkpt><trkpt lat="38.06545826781145" lon="15.838448157188925"><ele>896.0</ele><time>2026-04-14T12:44:00Z</time></trkpt><trkpt lat="38.06538090647082" lon="15.838553280449306"><ele>895.0</ele><time>2026-04-14T12:44:02Z</time></trkpt><trkpt lat="38.06526393407469" lon="15.838539769695899"><ele>894.9999999999999</ele><time>2026-04-14T12:44:04Z</time></trkpt><trkpt lat="38.06520071693715" lon="15.838514242679416"><ele>895.0</ele><time>2026-04-14T12:44:05Z</time></trkpt><trkpt lat="38.065138018645506" lon="15.83844360411604"><ele>895.0</ele><time>2026-04-14T12:44:06Z</time></trkpt><trkpt lat="38.06508769898912" lon="15.838342763746535"><ele>895.0</ele><time>2026-04-14T12:44:07Z</time></trkpt><trkpt lat="38.06505262931413" lon="15.838235027785807"><ele>894.9999999999999</ele><time>2026-04-14T12:44:08Z</time></trkpt><trkpt lat="38.06502783015412" lon="15.838126383290275"><ele>895.0</ele><time>2026-04-14T12:44:09Z</time></trkpt><trkpt lat="38.064935038918506" lon="15.837976876584221"><ele>894.4</ele><time>2026-04-14T12:44:11Z</time></trkpt><trkpt lat="38.06486119869593" lon="15.837918514777984"><ele>893.8</ele><time>2026-04-14T12:44:12Z</time></trkpt><trkpt lat="38.064781861253664" lon="15.837859555771574"><ele>893.2</ele><time>2026-04-14T12:44:13Z</time></trkpt><trkpt lat="38.06467675750102" lon="15.837771409712682"><ele>892.6</ele><time>2026-04-14T12:44:14Z</time></trkpt><trkpt lat="38.06458377880518" lon="15.837683810652862"><ele>892.0</ele><time>2026-04-14T12:44:15Z</time></trkpt><trkpt lat="38.06452209766762" lon="15.83763436989587"><ele>892.0</ele><time>2026-04-14T12:44:16Z</time></trkpt><trkpt lat="38.06445818158082" lon="15.837622503721082"><ele>892.0</ele><time>2026-04-14T12:44:17Z</time></trkpt><trkpt lat="38.0643476292191" lon="15.837616861434334"><ele>892.0</ele><time>2026-04-14T12:44:18Z</time></trkpt><trkpt lat="38.064224808031035" lon="15.837606149435821"><ele>892.0</ele><time>2026-04-14T12:44:19Z</time></trkpt><trkpt lat="38.06409408714154" lon="15.837608070377804"><ele>892.0</ele><time>2026-04-14T12:44:20Z</time></trkpt><trkpt lat="38.06397014802573" lon="15.837617831032247"><ele>899.4000000000001</ele><time>2026-04-14T12:44:21Z</time></trkpt><trkpt lat="38.06386280334567" lon="15.837577055305085"><ele>906.8000000000001</ele><time>2026-04-14T12:44:22Z</time></trkpt><trkpt lat="38.063745037476664" lon="15.837527120686195"><ele>914.2</ele><time>2026-04-14T12:44:23Z</time></trkpt><trkpt lat="38.06365773500918" lon="15.837483237876624"><ele>921.6</ele><time>2026-04-14T12:44:24Z</time></trkpt><trkpt lat="38.06360456318557" lon="15.837430405389979"><ele>929.0</ele><time>2026-04-14T12:44:25Z</time></trkpt><trkpt lat="38.06356683467095" lon="15.837332967046011"><ele>929.0</ele><time>2026-04-14T12:44:26Z</time></trkpt><trkpt lat="38.063520745895474" lon="15.837211965842812"><ele>929.0000000000001</ele><time>2026-04-14T12:44:27Z</time></trkpt><trkpt lat="38.063468576025144" lon="15.837119485204273"><ele>929.0000000000001</ele><time>2026-04-14T12:44:28Z</time></trkpt><trkpt lat="38.06341975991628" lon="15.837033374169462"><ele>929.0</ele><time>2026-04-14T12:44:29Z</time></trkpt><trkpt lat="38.06335866266507" lon="15.836947211747548"><ele>929.0</ele><time>2026-04-14T12:44:30Z</time></trkpt><trkpt lat="38.06327593390848" lon="15.836877104764426"><ele>926.0000000000001</ele><time>2026-04-14T12:44:31Z</time></trkpt><trkpt lat="38.06317566205117" lon="15.836780987659036"><ele>923.0</ele><time>2026-04-14T12:44:32Z</time></trkpt><trkpt lat="38.063109346250315" lon="15.836692480112704"><ele>920.0</ele><time>2026-04-14T12:44:33Z</time></trkpt><trkpt lat="38.06305096033271" lon="15.836627898139486"><ele>917.0</ele><time>2026-04-14T12:44:34Z</time></trkpt><trkpt lat="38.06299083288845" lon="15.836596180746888"><ele>914.0000000000001</ele><time>2026-04-14T12:44:35Z</time></trkpt><trkpt lat="38.062921654071516" lon="15.836608820246884"><ele>911.0</ele><time>2026-04-14T12:44:36Z</time></trkpt><trkpt lat="38.06281843425452" lon="15.83662348059962"><ele>911.0</ele><time>2026-04-14T12:44:37Z</time></trkpt><trkpt lat="38.06270491937342" lon="15.836648672359502"><ele>910.9999999999999</ele><time>2026-04-14T12:44:38Z</time></trkpt><trkpt lat="38.062586782627505" lon="15.836686667382475"><ele>910.9999999999999</ele><time>2026-04-14T12:44:39Z</time></trkpt><trkpt lat="38.06247482349578" lon="15.836717584079487"><ele>911.0</ele><time>2026-04-14T12:44:40Z</time></trkpt><trkpt lat="38.062381977057875" lon="15.836725113549148"><ele>911.0</ele><time>2026-04-14T12:44:41Z</time></trkpt><trkpt lat="38.062349358624196" lon="15.836808538479412"><ele>919.4</ele><time>2026-04-14T12:44:45Z</time></trkpt><trkpt lat="38.06249650746538" lon="15.836837029158808"><ele>927.8</ele><time>2026-04-14T12:44:47Z</time></trkpt><trkpt lat="38.062587059048106" lon="15.83682881781772"><ele>936.1999999999999</ele><time>2026-04-14T12:44:48Z</time></trkpt><trkpt lat="38.062672216308584" lon="15.83684389286669"><ele>944.5999999999999</ele><time>2026-04-14T12:44:49Z</time></trkpt><trkpt lat="38.06275260035161" lon="15.836875043534874"><ele>953.0</ele><time>2026-04-14T12:44:50Z</time></trkpt><trkpt lat="38.06282305209269" lon="15.83691414499976"><ele>953.0000000000001</ele><time>2026-04-14T12:44:51Z</time></trkpt><trkpt lat="38.06293007195301" lon="15.83694093284652"><ele>953.0</ele><time>2026-04-14T12:44:52Z</time></trkpt><trkpt lat="38.06300060675724" lon="15.83697506259868"><ele>953.0</ele><time>2026-04-14T12:44:53Z</time></trkpt><trkpt lat="38.06309139042738" lon="15.837015813245559"><ele>953.0</ele><time>2026-04-14T12:44:54Z</time></trkpt><trkpt lat="38.06315980766657" lon="15.837059192015515"><ele>953.0000000000001</ele><time>2026-04-14T12:44:56Z</time></trkpt><trkpt lat="38.063118137932435" lon="15.837121425599552"><ele>953.0</ele><time>2026-04-14T12:44:58Z</time></trkpt><trkpt lat="38.06304071335155" lon="15.837116430077053"><ele>953.0000000000001</ele><time>2026-04-14T12:45:00Z</time></trkpt><trkpt lat="38.062985344591475" lon="15.837072360080088"><ele>953.0</ele><time>2026-04-14T12:45:01Z</time></trkpt><trkpt lat="38.062922756120386" lon="15.837037172059565"><ele>953.0</ele><time>2026-04-14T12:45:02Z</time></trkpt><trkpt lat="38.062854515218575" lon="15.837055685516617"><ele>953.0</ele><time>2026-04-14T12:45:03Z</time></trkpt><trkpt lat="38.06275601825844" lon="15.83709171161704"><ele>953.0000000000001</ele><time>2026-04-14T12:45:04Z</time></trkpt><trkpt lat="38.06264731831298" lon="15.8371289522315"><ele>953.0</ele><time>2026-04-14T12:45:05Z</time></trkpt><trkpt lat="38.06254042742722" lon="15.837171853707558"><ele>953.75</ele><time>2026-04-14T12:45:06Z</time></trkpt><trkpt lat="38.06244381290126" lon="15.837187104016571"><ele>954.5</ele><time>2026-04-14T12:45:07Z</time></trkpt><trkpt lat="38.06233268603035" lon="15.83719063316927"><ele>955.25</ele><time>2026-04-14T12:45:08Z</time></trkpt><trkpt lat="38.06219284131382" lon="15.837181308761066"><ele>956.0</ele><time>2026-04-14T12:45:09Z</time></trkpt><trkpt lat="38.062043093116344" lon="15.837157168087254"><ele>956.0</ele><time>2026-04-14T12:45:10Z</time></trkpt><trkpt lat="38.06193144540915" lon="15.837131159689289"><ele>955.9999999999999</ele><time>2026-04-14T12:45:11Z</time></trkpt><trkpt lat="38.06184687360995" lon="15.837119725628579"><ele>955.9999999999999</ele><time>2026-04-14T12:45:12Z</time></trkpt><trkpt lat="38.061753816345515" lon="15.837107740723015"><ele>956.0</ele><time>2026-04-14T12:45:13Z</time></trkpt><trkpt lat="38.06164065678095" lon="15.837093125280338"><ele>956.0</ele><time>2026-04-14T12:45:15Z</time></trkpt><trkpt lat="38.06158344818274" lon="15.837195557532535"><ele>953.5000000000001</ele><time>2026-04-14T12:45:17Z</time></trkpt><trkpt lat="38.0614993152509" lon="15.83726180540137"><ele>951.0</ele><time>2026-04-14T12:45:56Z</time></trkpt><trkpt lat="38.061424169581706" lon="15.837296121635125"><ele>948.5</ele><time>2026-04-14T12:46:38Z</time></trkpt><trkpt lat="38.06137357017559" lon="15.83734826035951"><ele>946.0</ele><time>2026-04-14T12:46:39Z</time></trkpt><trkpt lat="38.06131748378612" lon="15.83741642520872"><ele>943.5000000000001</ele><time>2026-04-14T12:46:40Z</time></trkpt><trkpt lat="38.06125016794095" lon="15.837488792558446"><ele>941.0</ele><time>2026-04-14T12:46:41Z</time></trkpt><trkpt lat="38.061176770184574" lon="15.837543154067792"><ele>941.0000000000001</ele><time>2026-04-14T12:46:42Z</time></trkpt><trkpt lat="38.06108247886597" lon="15.837595082848432"><ele>941.0</ele><time>2026-04-14T12:46:43Z</time></trkpt><trkpt lat="38.061003798068725" lon="15.837632324623305"><ele>941.0</ele><time>2026-04-14T12:46:44Z</time></trkpt><trkpt lat="38.06093210732041" lon="15.837659131835608"><ele>941.0</ele><time>2026-04-14T12:46:45Z</time></trkpt><trkpt lat="38.06086023797653" lon="15.837658430843279"><ele>941.0000000000001</ele><time>2026-04-14T12:46:46Z</time></trkpt><trkpt lat="38.060790678177355" lon="15.837652769073724"><ele>941.0</ele><time>2026-04-14T12:46:47Z</time></trkpt><trkpt lat="38.06068813385994" lon="15.837706580898073"><ele>934.5999999999999</ele><time>2026-04-14T12:46:49Z</time></trkpt><trkpt lat="38.06064201299688" lon="15.837766186120344"><ele>928.1999999999999</ele><time>2026-04-14T12:46:50Z</time></trkpt><trkpt lat="38.06060042378988" lon="15.837847960241708"><ele>921.8000000000001</ele><time>2026-04-14T12:46:51Z</time></trkpt><trkpt lat="38.060584730035615" lon="15.83792896758715"><ele>915.4000000000001</ele><time>2026-04-14T12:46:52Z</time></trkpt><trkpt lat="38.06062303920869" lon="15.83811694577144"><ele>909.0</ele><time>2026-04-14T12:46:54Z</time></trkpt><trkpt lat="38.06062920423229" lon="15.83824044865382"><ele>909.0</ele><time>2026-04-14T12:46:55Z</time></trkpt><trkpt lat="38.06061111092036" lon="15.838370361664918"><ele>909.0000000000001</ele><time>2026-04-14T12:46:56Z</time></trkpt><trkpt lat="38.06059303965208" lon="15.83850198256505"><ele>909.0000000000001</ele><time>2026-04-14T12:46:58Z</time></trkpt><trkpt lat="38.060652391499914" lon="15.838610984509183"><ele>909.0</ele><time>2026-04-14T12:47:00Z</time></trkpt><trkpt lat="38.060706945700495" lon="15.838679653060993"><ele>909.0</ele><time>2026-04-14T12:47:01Z</time></trkpt><trkpt lat="38.060768255277615" lon="15.83875302643382"><ele>918.8000000000001</ele><time>2026-04-14T12:47:02Z</time></trkpt><trkpt lat="38.060854434022865" lon="15.838857343591274"><ele>928.6000000000001</ele><time>2026-04-14T12:47:03Z</time></trkpt><trkpt lat="38.06093476242068" lon="15.838953034487968"><ele>938.4</ele><time>2026-04-14T12:47:04Z</time></trkpt><trkpt lat="38.06102372053156" lon="15.839028264121517"><ele>948.2</ele><time>2026-04-14T12:47:05Z</time></trkpt><trkpt lat="38.06111728374942" lon="15.839100109394085"><ele>958.0</ele><time>2026-04-14T12:47:06Z</time></trkpt><trkpt lat="38.06122314447662" lon="15.839183288452473"><ele>958.0</ele><time>2026-04-14T12:47:07Z</time></trkpt><trkpt lat="38.06132096951729" lon="15.839270630670876"><ele>958.0</ele><time>2026-04-14T12:47:08Z</time></trkpt><trkpt lat="38.0614054817484" lon="15.839376230680816"><ele>958.0</ele><time>2026-04-14T12:47:09Z</time></trkpt><trkpt lat="38.06150588778735" lon="15.839525553817326"><ele>958.0</ele><time>2026-04-14T12:47:10Z</time></trkpt><trkpt lat="38.061629757524635" lon="15.83968595367493"><ele>963.5999999999999</ele><time>2026-04-14T12:47:11Z</time></trkpt><trkpt lat="38.06170701059484" lon="15.839793144437824"><ele>969.1999999999999</ele><time>2026-04-14T12:47:12Z</time></trkpt><trkpt lat="38.06177691126413" lon="15.839876023001784"><ele>974.8</ele><time>2026-04-14T12:47:13Z</time></trkpt><trkpt lat="38.061832624512846" lon="15.839971723984787"><ele>980.4</ele><time>2026-04-14T12:47:14Z</time></trkpt><trkpt lat="38.06188507084002" lon="15.840081712938348"><ele>986.0</ele><time>2026-04-14T12:47:15Z</time></trkpt><trkpt lat="38.0619194120182" lon="15.840167471617539"><ele>988.4</ele><time>2026-04-14T12:47:16Z</time></trkpt><trkpt lat="38.06195539505347" lon="15.840286424633339"><ele>990.8</ele><time>2026-04-14T12:47:17Z</time></trkpt><trkpt lat="38.06197787289953" lon="15.840428798057093"><ele>993.1999999999999</ele><time>2026-04-14T12:47:18Z</time></trkpt><trkpt lat="38.06199659129395" lon="15.840576143428365"><ele>995.5999999999999</ele><time>2026-04-14T12:47:19Z</time></trkpt><trkpt lat="38.062013044248125" lon="15.84068815301037"><ele>998.0</ele><time>2026-04-14T12:47:20Z</time></trkpt><trkpt lat="38.0620318121292" lon="15.840784122805779"><ele>998.0</ele><time>2026-04-14T12:47:21Z</time></trkpt><trkpt lat="38.0620260164918" lon="15.84091487292688"><ele>998.0</ele><time>2026-04-14T12:47:23Z</time></trkpt><trkpt lat="38.0619220350023" lon="15.840984010915484"><ele>998.0</ele><time>2026-04-14T12:47:25Z</time></trkpt><trkpt lat="38.06182265494149" lon="15.840992415528994"><ele>998.0</ele><time>2026-04-14T12:47:26Z</time></trkpt><trkpt lat="38.061707001278535" lon="15.840976991439303"><ele>998.0</ele><time>2026-04-14T12:47:27Z</time></trkpt><trkpt lat="38.06158676839033" lon="15.840969161401665"><ele>998.8</ele><time>2026-04-14T12:47:28Z</time></trkpt><trkpt lat="38.061500278012524" lon="15.840976192949388"><ele>999.5999999999999</ele><time>2026-04-14T12:47:29Z</time></trkpt><trkpt lat="38.06142847082446" lon="15.841025314806553"><ele>1000.4000000000001</ele><time>2026-04-14T12:47:30Z</time></trkpt><trkpt lat="38.061329333427175" lon="15.841097572992524"><ele>1001.2</ele><time>2026-04-14T12:47:31Z</time></trkpt><trkpt lat="38.061253492250685" lon="15.841142175174069"><ele>1002.0</ele><time>2026-04-14T12:47:32Z</time></trkpt><trkpt lat="38.061163110618885" lon="15.841168395670504"><ele>1002.0</ele><time>2026-04-14T12:47:33Z</time></trkpt><trkpt lat="38.061095183283925" lon="15.841182863057869"><ele>1002.0</ele><time>2026-04-14T12:47:34Z</time></trkpt><trkpt lat="38.06103760078474" lon="15.841224010009473"><ele>1002.0</ele><time>2026-04-14T12:47:35Z</time></trkpt><trkpt lat="38.061003801683825" lon="15.84129324986563"><ele>1002.0</ele><time>2026-04-14T12:47:36Z</time></trkpt><trkpt lat="38.0609785001759" lon="15.841388609595386"><ele>1002.0</ele><time>2026-04-14T12:47:37Z</time></trkpt><trkpt lat="38.06095265519408" lon="15.841525272517437"><ele>1002.0</ele><time>2026-04-14T12:47:38Z</time></trkpt><trkpt lat="38.06092249377963" lon="15.84168081595848"><ele>1006.8</ele><time>2026-04-14T12:47:39Z</time></trkpt><trkpt lat="38.06088133864174" lon="15.841842025992667"><ele>1011.6</ele><time>2026-04-14T12:47:40Z</time></trkpt><trkpt lat="38.060838147400126" lon="15.841965400477724"><ele>1016.3999999999999</ele><time>2026-04-14T12:47:41Z</time></trkpt><trkpt lat="38.06079149597281" lon="15.842095727488593"><ele>1021.1999999999999</ele><time>2026-04-14T12:47:42Z</time></trkpt><trkpt lat="38.06078996814826" lon="15.84219890072263"><ele>1026.0</ele><time>2026-04-14T12:47:43Z</time></trkpt><trkpt lat="38.060809254412035" lon="15.84229633283752"><ele>1026.0</ele><time>2026-04-14T12:47:44Z</time></trkpt><trkpt lat="38.06082108932659" lon="15.84244135231499"><ele>1026.0</ele><time>2026-04-14T12:47:46Z</time></trkpt><trkpt lat="38.06073392858259" lon="15.84256451636545"><ele>1026.0</ele><time>2026-04-14T12:47:48Z</time></trkpt><trkpt lat="38.06065579862959" lon="15.84262112185494"><ele>1026.0</ele><time>2026-04-14T12:47:49Z</time></trkpt><trkpt lat="38.060549310432556" lon="15.842691825003037"><ele>1025.0</ele><time>2026-04-14T12:47:50Z</time></trkpt><trkpt lat="38.06044397469022" lon="15.842784919455555"><ele>1024.0</ele><time>2026-04-14T12:47:51Z</time></trkpt><trkpt lat="38.06033522808188" lon="15.84286175639535"><ele>1023.0</ele><time>2026-04-14T12:47:52Z</time></trkpt><trkpt lat="38.06020608380359" lon="15.842948596954365"><ele>1022.0</ele><time>2026-04-14T12:47:53Z</time></trkpt><trkpt lat="38.060100241493394" lon="15.84302016087673"><ele>1022.0000000000001</ele><time>2026-04-14T12:47:54Z</time></trkpt><trkpt lat="38.060020829383745" lon="15.843067165210348"><ele>1022.0</ele><time>2026-04-14T12:47:55Z</time></trkpt><trkpt lat="38.05996113723657" lon="15.843131765900784"><ele>1022.0</ele><time>2026-04-14T12:47:56Z</time></trkpt><trkpt lat="38.05989146365225" lon="15.843222792298288"><ele>1022.0</ele><time>2026-04-14T12:47:57Z</time></trkpt><trkpt lat="38.059840556823765" lon="15.843341340296444"><ele>1022.0000000000001</ele><time>2026-04-14T12:47:58Z</time></trkpt><trkpt lat="38.05981611637787" lon="15.84341667818215"><ele>1022.0</ele><time>2026-04-14T12:47:59Z</time></trkpt><trkpt lat="38.05982649858078" lon="15.843546560871848"><ele>1022.4000000000001</ele><time>2026-04-14T12:48:01Z</time></trkpt><trkpt lat="38.05986327496517" lon="15.843706093701531"><ele>1022.8000000000001</ele><time>2026-04-14T12:48:03Z</time></trkpt><trkpt lat="38.05987882053952" lon="15.84381674952185"><ele>1023.2</ele><time>2026-04-14T12:48:04Z</time></trkpt><trkpt lat="38.05990417567304" lon="15.843915111274091"><ele>1023.6</ele><time>2026-04-14T12:48:05Z</time></trkpt><trkpt lat="38.05994375946764" lon="15.84401339890364"><ele>1024.0</ele><time>2026-04-14T12:48:06Z</time></trkpt><trkpt lat="38.05999154927555" lon="15.844130424327632"><ele>1023.9999999999999</ele><time>2026-04-14T12:48:07Z</time></trkpt><trkpt lat="38.060023725784724" lon="15.84423289456832"><ele>1024.0</ele><time>2026-04-14T12:48:08Z</time></trkpt><trkpt lat="38.06004304388664" lon="15.844331052207355"><ele>1024.0</ele><time>2026-04-14T12:48:09Z</time></trkpt><trkpt lat="38.06005857333771" lon="15.844422947065967"><ele>1024.0</ele><time>2026-04-14T12:48:10Z</time></trkpt><trkpt lat="38.06007285223663" lon="15.844566048569954"><ele>1023.9999999999999</ele><time>2026-04-14T12:48:12Z</time></trkpt><trkpt lat="38.06004909583461" lon="15.844645687076236"><ele>1024.0</ele><time>2026-04-14T12:48:13Z</time></trkpt><trkpt lat="38.06000484058791" lon="15.844710792547646"><ele>1022.6</ele><time>2026-04-14T12:48:14Z</time></trkpt><trkpt lat="38.05996878356165" lon="15.844784291117145"><ele>1021.2</ele><time>2026-04-14T12:48:15Z</time></trkpt><trkpt lat="38.05998595846474" lon="15.844917784425894"><ele>1019.8000000000001</ele><time>2026-04-14T12:48:17Z</time></trkpt><trkpt lat="38.06012401935681" lon="15.844974481349222"><ele>1018.4000000000001</ele><time>2026-04-14T12:48:19Z</time></trkpt><trkpt lat="38.06023089509547" lon="15.845030674586623"><ele>1017.0</ele><time>2026-04-14T12:48:20Z</time></trkpt><trkpt lat="38.060298455572685" lon="15.845119453550705"><ele>1018.8333333333334</ele><time>2026-04-14T12:48:21Z</time></trkpt><trkpt lat="38.06033825592162" lon="15.845228989723697"><ele>1020.6666666666667</ele><time>2026-04-14T12:48:22Z</time></trkpt><trkpt lat="38.060375077963826" lon="15.845324452239005"><ele>1022.5</ele><time>2026-04-14T12:48:23Z</time></trkpt><trkpt lat="38.060419034305966" lon="15.845403454189523"><ele>1024.3333333333335</ele><time>2026-04-14T12:48:24Z</time></trkpt><trkpt lat="38.06047309185535" lon="15.84551155496446"><ele>1026.1666666666667</ele><time>2026-04-14T12:48:26Z</time></trkpt><trkpt lat="38.06041640321865" lon="15.84560015906474"><ele>1028.0</ele><time>2026-04-14T12:48:28Z</time></trkpt><trkpt lat="38.06027532507336" lon="15.84559928715448"><ele>1028.0</ele><time>2026-04-14T12:48:30Z</time></trkpt><trkpt lat="38.06017691182744" lon="15.84555961165326"><ele>1028.0</ele><time>2026-04-14T12:48:31Z</time></trkpt><trkpt lat="38.06009555997823" lon="15.845546716569284"><ele>1028.0</ele><time>2026-04-14T12:48:32Z</time></trkpt><trkpt lat="38.05999098289369" lon="15.8455931221472"><ele>1028.0</ele><time>2026-04-14T12:48:34Z</time></trkpt><trkpt lat="38.05994618082029" lon="15.845674693898173"><ele>1028.0</ele><time>2026-04-14T12:48:35Z</time></trkpt><trkpt lat="38.059900090890935" lon="15.845786481144472"><ele>1026.2</ele><time>2026-04-14T12:48:36Z</time></trkpt><trkpt lat="38.05985368076826" lon="15.845893890386902"><ele>1024.4</ele><time>2026-04-14T12:48:37Z</time></trkpt><trkpt lat="38.059788949880925" lon="15.84598823804169"><ele>1022.6000000000001</ele><time>2026-04-14T12:48:38Z</time></trkpt><trkpt lat="38.0597174379489" lon="15.84604641290564"><ele>1020.8000000000001</ele><time>2026-04-14T12:48:39Z</time></trkpt><trkpt lat="38.05962550974342" lon="15.84610950693798"><ele>1019.0</ele><time>2026-04-14T12:48:40Z</time></trkpt><trkpt lat="38.05955503888991" lon="15.846143770149578"><ele>1028.6000000000001</ele><time>2026-04-14T12:48:41Z</time></trkpt><trkpt lat="38.059474867841146" lon="15.846165072960707"><ele>1038.2</ele><time>2026-04-14T12:48:42Z</time></trkpt><trkpt lat="38.05937807452204" lon="15.84615384990991"><ele>1047.8000000000002</ele><time>2026-04-14T12:48:43Z</time></trkpt><trkpt lat="38.059269131248136" lon="15.84614213081777"><ele>1057.4</ele><time>2026-04-14T12:48:44Z</time></trkpt><trkpt lat="38.05916555069472" lon="15.8461268250166"><ele>1067.0</ele><time>2026-04-14T12:48:45Z</time></trkpt><trkpt lat="38.05908267561238" lon="15.84610062240177"><ele>1068.25</ele><time>2026-04-14T12:48:46Z</time></trkpt><trkpt lat="38.058981181656776" lon="15.845964516488413"><ele>1069.5</ele><time>2026-04-14T12:48:48Z</time></trkpt><trkpt lat="38.05891698975902" lon="15.845857006733809"><ele>1070.75</ele><time>2026-04-14T12:48:49Z</time></trkpt><trkpt lat="38.05881226377754" lon="15.845825763857759"><ele>1072.0</ele><time>2026-04-14T12:48:51Z</time></trkpt><trkpt lat="38.05872262899537" lon="15.845926517537524"><ele>1072.0</ele><time>2026-04-14T12:48:53Z</time></trkpt><trkpt lat="38.0586680941267" lon="15.846022269677713"><ele>1072.0</ele><time>2026-04-14T12:48:54Z</time></trkpt><trkpt lat="38.058607545903484" lon="15.846104527725554"><ele>1072.0</ele><time>2026-04-14T12:48:55Z</time></trkpt><trkpt lat="38.05855095934708" lon="15.846146342373926"><ele>1072.0</ele><time>2026-04-14T12:48:56Z</time></trkpt><trkpt lat="38.05845078450244" lon="15.846125011446832"><ele>1072.0</ele><time>2026-04-14T12:48:58Z</time></trkpt><trkpt lat="38.0584053491203" lon="15.846025636339895"><ele>1072.0</ele><time>2026-04-14T12:49:00Z</time></trkpt><trkpt lat="38.05838749339857" lon="15.845936035446718"><ele>1068.5</ele><time>2026-04-14T12:49:01Z</time></trkpt><trkpt lat="38.058349986575685" lon="15.845834777492511"><ele>1065.0</ele><time>2026-04-14T12:49:02Z</time></trkpt><trkpt lat="38.05829691618724" lon="15.845754108921474"><ele>1061.5</ele><time>2026-04-14T12:49:03Z</time></trkpt><trkpt lat="38.05823614000051" lon="15.845719561108528"><ele>1058.0</ele><time>2026-04-14T12:49:04Z</time></trkpt><trkpt lat="38.058141032269766" lon="15.845685829486841"><ele>1054.5</ele><time>2026-04-14T12:49:05Z</time></trkpt><trkpt lat="38.058034437088814" lon="15.845663858232237"><ele>1051.0</ele><time>2026-04-14T12:49:06Z</time></trkpt><trkpt lat="38.057933581884015" lon="15.845646508122558"><ele>1051.0</ele><time>2026-04-14T12:49:07Z</time></trkpt><trkpt lat="38.0578355787701" lon="15.84560037308532"><ele>1051.0</ele><time>2026-04-14T12:49:08Z</time></trkpt><trkpt lat="38.05774384027086" lon="15.845512394880013"><ele>1051.0</ele><time>2026-04-14T12:49:09Z</time></trkpt><trkpt lat="38.05763162221834" lon="15.845401314913824"><ele>1051.0</ele><time>2026-04-14T12:49:10Z</time></trkpt><trkpt lat="38.05754965998773" lon="15.845298925813733"><ele>1051.0</ele><time>2026-04-14T12:49:11Z</time></trkpt><trkpt lat="38.05748440883396" lon="15.845176540077755"><ele>1051.0</ele><time>2026-04-14T12:49:12Z</time></trkpt><trkpt lat="38.057441000070654" lon="15.845023041756914"><ele>1051.0</ele><time>2026-04-14T12:49:13Z</time></trkpt><trkpt lat="38.057416486156235" lon="15.844847200211865"><ele>1051.0</ele><time>2026-04-14T12:49:14Z</time></trkpt><trkpt lat="38.05740164794363" lon="15.844678209674065"><ele>1047.5</ele><time>2026-04-14T12:49:15Z</time></trkpt><trkpt lat="38.05739546838964" lon="15.844548211372238"><ele>1044.0</ele><time>2026-04-14T12:49:16Z</time></trkpt><trkpt lat="38.05739408598952" lon="15.844432314588492"><ele>1040.5</ele><time>2026-04-14T12:49:17Z</time></trkpt><trkpt lat="38.05737740707633" lon="15.84434757238501"><ele>1037.0</ele><time>2026-04-14T12:49:18Z</time></trkpt><trkpt lat="38.05732669579123" lon="15.844277508841289"><ele>1033.5</ele><time>2026-04-14T12:49:19Z</time></trkpt><trkpt lat="38.05724792492864" lon="15.844221681515972"><ele>1030.0</ele><time>2026-04-14T12:49:20Z</time></trkpt><trkpt lat="38.05716695090932" lon="15.844160271447361"><ele>1030.0</ele><time>2026-04-14T12:49:21Z</time></trkpt><trkpt lat="38.057101550141034" lon="15.844143099136305"><ele>1030.0</ele><time>2026-04-14T12:49:22Z</time></trkpt><trkpt lat="38.056979168744775" lon="15.844255156760857"><ele>1030.0</ele><time>2026-04-14T12:49:24Z</time></trkpt><trkpt lat="38.0568732900095" lon="15.844329675169254"><ele>1030.0</ele><time>2026-04-14T12:49:25Z</time></trkpt><trkpt lat="38.056762805664235" lon="15.844376476938129"><ele>1030.0</ele><time>2026-04-14T12:49:26Z</time></trkpt><trkpt lat="38.056641736245474" lon="15.84439945672935"><ele>1030.0</ele><time>2026-04-14T12:49:27Z</time></trkpt><trkpt lat="38.0565522527782" lon="15.844432271415846"><ele>1030.0</ele><time>2026-04-14T12:49:28Z</time></trkpt><trkpt lat="38.0564963556925" lon="15.844500010758663"><ele>1030.0</ele><time>2026-04-14T12:49:30Z</time></trkpt><trkpt lat="38.056492078880794" lon="15.844620065018669"><ele>1030.0</ele><time>2026-04-14T12:49:31Z</time></trkpt><trkpt lat="38.05650269774624" lon="15.844779317418604"><ele>1030.4</ele><time>2026-04-14T12:49:32Z</time></trkpt><trkpt lat="38.056519396342296" lon="15.84492624765065"><ele>1030.8</ele><time>2026-04-14T12:49:33Z</time></trkpt><trkpt lat="38.05650045327421" lon="15.845047625244522"><ele>1031.2</ele><time>2026-04-14T12:49:34Z</time></trkpt><trkpt lat="38.05646116966397" lon="15.84515113235987"><ele>1031.6</ele><time>2026-04-14T12:49:35Z</time></trkpt><trkpt lat="38.056405888619395" lon="15.845225848438385"><ele>1032.0</ele><time>2026-04-14T12:49:36Z</time></trkpt><trkpt lat="38.056339286188575" lon="15.845269942764254"><ele>1032.0</ele><time>2026-04-14T12:49:37Z</time></trkpt><trkpt lat="38.05622006229354" lon="15.845308408631114"><ele>1032.0</ele><time>2026-04-14T12:49:38Z</time></trkpt><trkpt lat="38.05610280777393" lon="15.845358452833182"><ele>1032.0</ele><time>2026-04-14T12:49:39Z</time></trkpt><trkpt lat="38.0560354974399" lon="15.84540681212057"><ele>1032.0</ele><time>2026-04-14T12:49:40Z</time></trkpt><trkpt lat="38.055998432355736" lon="15.845474522450466"><ele>1032.0</ele><time>2026-04-14T12:49:41Z</time></trkpt><trkpt lat="38.05594525660209" lon="15.845581427535311"><ele>1032.0</ele><time>2026-04-14T12:49:42Z</time></trkpt><trkpt lat="38.05592462174973" lon="15.84571329951354"><ele>1032.0</ele><time>2026-04-14T12:49:42.999Z</time></trkpt><trkpt lat="38.05590393918548" lon="15.84582262435014"><ele>1032.0</ele><time>2026-04-14T12:49:43.999Z</time></trkpt><trkpt lat="38.055854266493505" lon="15.845897056126493"><ele>1032.0</ele><time>2026-04-14T12:49:44.999Z</time></trkpt><trkpt lat="38.05576991070881" lon="15.845948480462187"><ele>1032.0</ele><time>2026-04-14T12:49:45.999Z</time></trkpt><trkpt lat="38.05568429516483" lon="15.845979025953644"><ele>1031.5</ele><time>2026-04-14T12:49:46.999Z</time></trkpt><trkpt lat="38.05559729626605" lon="15.846035750845221"><ele>1031.0</ele><time>2026-04-14T12:49:47.999Z</time></trkpt><trkpt lat="38.05550197782056" lon="15.84608384863519"><ele>1030.5</ele><time>2026-04-14T12:49:48.999Z</time></trkpt><trkpt lat="38.055425367035994" lon="15.846092362497401"><ele>1030.0</ele><time>2026-04-14T12:49:50.999Z</time></trkpt><trkpt lat="38.055375513502504" lon="15.846041191934084"><ele>1029.5</ele><time>2026-04-14T12:49:51.999Z</time></trkpt><trkpt lat="38.05532854233875" lon="15.845958252401578"><ele>1029.0</ele><time>2026-04-14T12:49:52.999Z</time></trkpt><trkpt lat="38.05531028277845" lon="15.845842672990063"><ele>1029.0</ele><time>2026-04-14T12:49:53.999Z</time></trkpt><trkpt lat="38.0552780714877" lon="15.845730458603908"><ele>1029.0</ele><time>2026-04-14T12:49:54.999Z</time></trkpt><trkpt lat="38.05522951570068" lon="15.845654864375794"><ele>1029.0</ele><time>2026-04-14T12:49:55.999Z</time></trkpt><trkpt lat="38.05517198419525" lon="15.845594090512673"><ele>1029.0</ele><time>2026-04-14T12:49:56.999Z</time></trkpt><trkpt lat="38.05510560271994" lon="15.8455676651998"><ele>1029.0</ele><time>2026-04-14T12:49:57.999Z</time></trkpt><trkpt lat="38.05500185801739" lon="15.845619203971696"><ele>1029.0</ele><time>2026-04-14T12:49:59.999Z</time></trkpt><trkpt lat="38.05496164187856" lon="15.845700956398469"><ele>1032.4</ele><time>2026-04-14T12:50:00.999Z</time></trkpt><trkpt lat="38.05490787133096" lon="15.845801466746622"><ele>1035.8000000000002</ele><time>2026-04-14T12:50:01.999Z</time></trkpt><trkpt lat="38.054856177372066" lon="15.845924794086397"><ele>1039.1999999999998</ele><time>2026-04-14T12:50:02.999Z</time></trkpt><trkpt lat="38.054796238825006" lon="15.846021510550365"><ele>1042.6</ele><time>2026-04-14T12:50:03.999Z</time></trkpt><trkpt lat="38.05474947640134" lon="15.846119287853336"><ele>1046.0</ele><time>2026-04-14T12:50:04.999Z</time></trkpt><trkpt lat="38.05461814393967" lon="15.846180326445607"><ele>1046.0</ele><time>2026-04-14T12:50:06.999Z</time></trkpt><trkpt lat="38.05450960170097" lon="15.846212636977773"><ele>1046.0</ele><time>2026-04-14T12:50:07.999Z</time></trkpt><trkpt lat="38.054414771222525" lon="15.846280233059764"><ele>1046.0</ele><time>2026-04-14T12:50:08.999Z</time></trkpt><trkpt lat="38.054330870285725" lon="15.846355745682333"><ele>1046.0</ele><time>2026-04-14T12:50:09.999Z</time></trkpt><trkpt lat="38.054265467296325" lon="15.846447803221523"><ele>1046.0</ele><time>2026-04-14T12:50:10.999Z</time></trkpt><trkpt lat="38.05418014639316" lon="15.846555573357845"><ele>1040.6</ele><time>2026-04-14T12:50:11.999Z</time></trkpt><trkpt lat="38.054092806592095" lon="15.846653037702897"><ele>1035.1999999999998</ele><time>2026-04-14T12:50:12.999Z</time></trkpt><trkpt lat="38.05401868472775" lon="15.846706575076343"><ele>1029.8000000000002</ele><time>2026-04-14T12:50:13.999Z</time></trkpt><trkpt lat="38.05388087483882" lon="15.846687528251225"><ele>1024.4</ele><time>2026-04-14T12:50:15.999Z</time></trkpt><trkpt lat="38.0537924568306" lon="15.846676112137636"><ele>1019.0</ele><time>2026-04-14T12:50:16.999Z</time></trkpt><trkpt lat="38.053723106748045" lon="15.846730621786472"><ele>1022.0</ele><time>2026-04-14T12:50:18.999Z</time></trkpt><trkpt lat="38.05370064713003" lon="15.846823979656538"><ele>1025.0</ele><time>2026-04-14T12:50:19.999Z</time></trkpt><trkpt lat="38.05363289371691" lon="15.84691500201193"><ele>1028.0</ele><time>2026-04-14T12:50:20.999Z</time></trkpt><trkpt lat="38.05352096518517" lon="15.84699949820141"><ele>1031.0</ele><time>2026-04-14T12:50:22Z</time></trkpt><trkpt lat="38.05341160047871" lon="15.84709045176574"><ele>1034.0</ele><time>2026-04-14T12:50:23Z</time></trkpt><trkpt lat="38.053348453585045" lon="15.8471592227319"><ele>1034.0</ele><time>2026-04-14T12:50:24Z</time></trkpt><trkpt lat="38.05332420250033" lon="15.84726582166803"><ele>1034.0</ele><time>2026-04-14T12:50:26Z</time></trkpt><trkpt lat="38.053383229899985" lon="15.847452221208057"><ele>1034.0</ele><time>2026-04-14T12:50:28Z</time></trkpt><trkpt lat="38.05340966462511" lon="15.847568594193504"><ele>1034.0</ele><time>2026-04-14T12:50:29Z</time></trkpt><trkpt lat="38.0534179514966" lon="15.847667339000152"><ele>1034.0</ele><time>2026-04-14T12:50:30Z</time></trkpt><trkpt lat="38.05341218607787" lon="15.84776091856472"><ele>1035.5</ele><time>2026-04-14T12:50:31Z</time></trkpt><trkpt lat="38.05341680635001" lon="15.847851223413185"><ele>1037.0</ele><time>2026-04-14T12:50:32Z</time></trkpt><trkpt lat="38.053444090303" lon="15.847934755709696"><ele>1038.5</ele><time>2026-04-14T12:50:33Z</time></trkpt><trkpt lat="38.0534896360505" lon="15.84801048372424"><ele>1040.0</ele><time>2026-04-14T12:50:34Z</time></trkpt><trkpt lat="38.05356522418478" lon="15.848089350645248"><ele>1041.5</ele><time>2026-04-14T12:50:35Z</time></trkpt><trkpt lat="38.05363480641811" lon="15.848131054183591"><ele>1043.0</ele><time>2026-04-14T12:50:36Z</time></trkpt><trkpt lat="38.053667640167696" lon="15.848243324380322"><ele>1043.0</ele><time>2026-04-14T12:50:38Z</time></trkpt><trkpt lat="38.05363673112906" lon="15.848318905696061"><ele>1043.0</ele><time>2026-04-14T12:50:39Z</time></trkpt><trkpt lat="38.053585178072254" lon="15.848405841918995"><ele>1043.0</ele><time>2026-04-14T12:50:40Z</time></trkpt><trkpt lat="38.05351498861418" lon="15.848472292942935"><ele>1043.0</ele><time>2026-04-14T12:50:41Z</time></trkpt><trkpt lat="38.053461394531205" lon="15.848525842615807"><ele>1043.0</ele><time>2026-04-14T12:50:42Z</time></trkpt><trkpt lat="38.05340106094531" lon="15.84857377537375"><ele>1043.0</ele><time>2026-04-14T12:50:43Z</time></trkpt><trkpt lat="38.05330276704024" lon="15.848598434488794"><ele>1040.8</ele><time>2026-04-14T12:50:45Z</time></trkpt><trkpt lat="38.05325648096629" lon="15.848673903143998"><ele>1038.6</ele><time>2026-04-14T12:52:19.999Z</time></trkpt><trkpt lat="38.05323594295078" lon="15.848815880107605"><ele>1036.4</ele><time>2026-04-14T12:52:21.999Z</time></trkpt><trkpt lat="38.05325586029633" lon="15.848926751331007"><ele>1034.2</ele><time>2026-04-14T12:52:22.999Z</time></trkpt><trkpt lat="38.05328843294372" lon="15.849060659561419"><ele>1032.0</ele><time>2026-04-14T12:52:23.999Z</time></trkpt><trkpt lat="38.05332208571476" lon="15.849189881722776"><ele>1038.3333333333333</ele><time>2026-04-14T12:52:24.999Z</time></trkpt><trkpt lat="38.05333920977091" lon="15.849305879201975"><ele>1044.6666666666667</ele><time>2026-04-14T12:52:25.999Z</time></trkpt><trkpt lat="38.05335322680625" lon="15.849393820290956"><ele>1051.0</ele><time>2026-04-14T12:52:26.999Z</time></trkpt><trkpt lat="38.05328301435572" lon="15.849477939679598"><ele>1057.3333333333335</ele><time>2026-04-14T12:52:28.999Z</time></trkpt><trkpt lat="38.053204144460395" lon="15.849490383107016"><ele>1063.6666666666667</ele><time>2026-04-14T12:52:29.999Z</time></trkpt><trkpt lat="38.053099927574124" lon="15.849489435677446"><ele>1070.0</ele><time>2026-04-14T12:52:30.999Z</time></trkpt><trkpt lat="38.05301551976661" lon="15.849492231138337"><ele>1070.0</ele><time>2026-04-14T12:52:31.999Z</time></trkpt><trkpt lat="38.05294117158713" lon="15.849613553324323"><ele>1070.0</ele><time>2026-04-14T12:52:33.999Z</time></trkpt><trkpt lat="38.052900906365025" lon="15.849764939637808"><ele>1070.0</ele><time>2026-04-14T12:52:34.999Z</time></trkpt><trkpt lat="38.052838791569016" lon="15.849926289179267"><ele>1070.0</ele><time>2026-04-14T12:52:35.999Z</time></trkpt><trkpt lat="38.0527541982758" lon="15.850125166981227"><ele>1078.8</ele><time>2026-04-14T12:52:37Z</time></trkpt><trkpt lat="38.05270012323708" lon="15.850272804279754"><ele>1087.6</ele><time>2026-04-14T12:52:38Z</time></trkpt><trkpt lat="38.05266970930864" lon="15.850372882858093"><ele>1096.4</ele><time>2026-04-14T12:52:39Z</time></trkpt><trkpt lat="38.052660233618155" lon="15.850514516736816"><ele>1105.2</ele><time>2026-04-14T12:52:41Z</time></trkpt><trkpt lat="38.05259376739901" lon="15.850523987217196"><ele>1114.0</ele><time>2026-04-14T12:52:43Z</time></trkpt><trkpt lat="38.052480992616395" lon="15.850477525810868"><ele>1118.0</ele><time>2026-04-14T12:52:44.999Z</time></trkpt><trkpt lat="38.05238411112483" lon="15.850374744370978"><ele>1122.0</ele><time>2026-04-14T12:52:45.999Z</time></trkpt><trkpt lat="38.052262330745855" lon="15.850253113926682"><ele>1126.0</ele><time>2026-04-14T12:52:46.999Z</time></trkpt><trkpt lat="38.05217828902661" lon="15.850209250856826"><ele>1130.0</ele><time>2026-04-14T12:52:47.999Z</time></trkpt><trkpt lat="38.05208115948227" lon="15.850222196955212"><ele>1130.0</ele><time>2026-04-14T12:52:48.999Z</time></trkpt><trkpt lat="38.051985297734696" lon="15.850203821646582"><ele>1130.0</ele><time>2026-04-14T12:52:49.999Z</time></trkpt><trkpt lat="38.05191297076869" lon="15.850145342294432"><ele>1130.0</ele><time>2026-04-14T12:52:50.999Z</time></trkpt><trkpt lat="38.051845989597304" lon="15.85002369234382"><ele>1130.0</ele><time>2026-04-14T12:52:51.999Z</time></trkpt><trkpt lat="38.05177540033791" lon="15.849893952659501"><ele>1130.0</ele><time>2026-04-14T12:52:52.999Z</time></trkpt><trkpt lat="38.051717088272994" lon="15.849851993247256"><ele>1126.1666666666667</ele><time>2026-04-14T12:54:43.999Z</time></trkpt><trkpt lat="38.05166171934754" lon="15.849804735939959"><ele>1122.3333333333335</ele><time>2026-04-14T12:54:44.999Z</time></trkpt><trkpt lat="38.05158955841415" lon="15.849717276486045"><ele>1118.5</ele><time>2026-04-14T12:54:45.999Z</time></trkpt><trkpt lat="38.051521976334136" lon="15.849609579934574"><ele>1114.6666666666667</ele><time>2026-04-14T12:54:46.999Z</time></trkpt><trkpt lat="38.05146610813816" lon="15.849526690745273"><ele>1110.8333333333333</ele><time>2026-04-14T12:54:47.999Z</time></trkpt><trkpt lat="38.051398605379624" lon="15.849472263074913"><ele>1107.0</ele><time>2026-04-14T12:54:48.999Z</time></trkpt><trkpt lat="38.0513179830791" lon="15.849443784923176"><ele>1107.0</ele><time>2026-04-14T12:54:49.999Z</time></trkpt><trkpt lat="38.05122350239745" lon="15.84945873611107"><ele>1107.0</ele><time>2026-04-14T12:54:50.999Z</time></trkpt><trkpt lat="38.051124500988315" lon="15.84950062691562"><ele>1107.0</ele><time>2026-04-14T12:54:51.999Z</time></trkpt><trkpt lat="38.05103798072557" lon="15.849563795108388"><ele>1107.0</ele><time>2026-04-14T12:54:52.999Z</time></trkpt><trkpt lat="38.050969783945746" lon="15.849623493986137"><ele>1107.0</ele><time>2026-04-14T12:54:53.999Z</time></trkpt><trkpt lat="38.050909633266414" lon="15.849650582960864"><ele>1107.0</ele><time>2026-04-14T12:54:54.999Z</time></trkpt><trkpt lat="38.05080832534105" lon="15.849555933336365"><ele>1108.5</ele><time>2026-04-14T12:54:56.999Z</time></trkpt><trkpt lat="38.050739745161195" lon="15.849438533198882"><ele>1110.0</ele><time>2026-04-14T12:54:57.999Z</time></trkpt><trkpt lat="38.05064213122823" lon="15.849305992505915"><ele>1111.5</ele><time>2026-04-14T12:54:58.999Z</time></trkpt><trkpt lat="38.05053038877902" lon="15.849175192780628"><ele>1113.0</ele><time>2026-04-14T12:54:59.999Z</time></trkpt><trkpt lat="38.05044322033206" lon="15.849053770904"><ele>1113.0</ele><time>2026-04-14T12:55:00.999Z</time></trkpt><trkpt lat="38.050377375276355" lon="15.848934385701607"><ele>1113.0</ele><time>2026-04-14T12:55:01.999Z</time></trkpt><trkpt lat="38.050338199812025" lon="15.848782106333699"><ele>1113.0</ele><time>2026-04-14T12:55:02.999Z</time></trkpt><trkpt lat="38.050306535005674" lon="15.848585233166336"><ele>1113.0</ele><time>2026-04-14T12:55:03.999Z</time></trkpt><trkpt lat="38.05028878985537" lon="15.84840584213193"><ele>1108.4</ele><time>2026-04-14T12:55:04.999Z</time></trkpt><trkpt lat="38.0502915779703" lon="15.848290765748981"><ele>1103.8</ele><time>2026-04-14T12:55:05.999Z</time></trkpt><trkpt lat="38.05031915919178" lon="15.848194573503351"><ele>1099.2</ele><time>2026-04-14T12:55:06.999Z</time></trkpt><trkpt lat="38.05032859190142" lon="15.84811155171734"><ele>1094.6</ele><time>2026-04-14T12:55:07.999Z</time></trkpt><trkpt lat="38.05024120846615" lon="15.847949934934762"><ele>1090.0</ele><time>2026-04-14T12:55:09.999Z</time></trkpt><trkpt lat="38.05013737427371" lon="15.847860923547293"><ele>1090.0</ele><time>2026-04-14T12:55:10.999Z</time></trkpt><trkpt lat="38.04999244432659" lon="15.847744951766902"><ele>1090.0</ele><time>2026-04-14T12:55:11.999Z</time></trkpt><trkpt lat="38.049864228615995" lon="15.84762277010781"><ele>1090.0</ele><time>2026-04-14T12:55:12.999Z</time></trkpt><trkpt lat="38.04978545162523" lon="15.847518653683942"><ele>1090.0</ele><time>2026-04-14T12:55:13.999Z</time></trkpt><trkpt lat="38.049742046672435" lon="15.84740357160787"><ele>1093.75</ele><time>2026-04-14T12:55:14.999Z</time></trkpt><trkpt lat="38.04971521202238" lon="15.847249224887248"><ele>1097.5</ele><time>2026-04-14T12:55:15.999Z</time></trkpt><trkpt lat="38.04969048500914" lon="15.8470602344241"><ele>1101.25</ele><time>2026-04-14T12:55:16.999Z</time></trkpt><trkpt lat="38.04969262691504" lon="15.846916801411723"><ele>1105.0</ele><time>2026-04-14T12:55:17.999Z</time></trkpt><trkpt lat="38.049639106131295" lon="15.846850163950025"><ele>1105.0</ele><time>2026-04-14T12:55:18.999Z</time></trkpt><trkpt lat="38.04956490757839" lon="15.846795657198863"><ele>1105.0</ele><time>2026-04-14T12:55:19.999Z</time></trkpt><trkpt lat="38.049469656270816" lon="15.846732650889031"><ele>1105.0</ele><time>2026-04-14T12:55:20.999Z</time></trkpt><trkpt lat="38.04934517555858" lon="15.846654362726248"><ele>1105.0</ele><time>2026-04-14T12:55:21.999Z</time></trkpt><trkpt lat="38.04919103512892" lon="15.84653916081661"><ele>1102.0</ele><time>2026-04-14T12:55:22.999Z</time></trkpt><trkpt lat="38.04910146819822" lon="15.846396003491115"><ele>1099.0</ele><time>2026-04-14T12:55:23.999Z</time></trkpt><trkpt lat="38.04904188736902" lon="15.846280587004598"><ele>1096.0</ele><time>2026-04-14T12:55:24.999Z</time></trkpt><trkpt lat="38.04898540227477" lon="15.846192030737233"><ele>1093.0</ele><time>2026-04-14T12:55:25.999Z</time></trkpt><trkpt lat="38.048916347636144" lon="15.846137523132963"><ele>1090.0</ele><time>2026-04-14T12:55:26.999Z</time></trkpt><trkpt lat="38.04880135220622" lon="15.846081157910234"><ele>1090.0</ele><time>2026-04-14T12:55:27.999Z</time></trkpt><trkpt lat="38.04870370201861" lon="15.846017333616476"><ele>1090.0</ele><time>2026-04-14T12:55:28.999Z</time></trkpt><trkpt lat="38.04862978006926" lon="15.845959808519686"><ele>1090.0</ele><time>2026-04-14T12:55:29.999Z</time></trkpt><trkpt lat="38.04851422118819" lon="15.846026172531152"><ele>1090.0</ele><time>2026-04-14T12:55:31.999Z</time></trkpt><trkpt lat="38.04839195658587" lon="15.846094450020146"><ele>1083.5</ele><time>2026-04-14T12:55:32.999Z</time></trkpt><trkpt lat="38.048236813993455" lon="15.846164763047291"><ele>1077.0</ele><time>2026-04-14T12:55:33.999Z</time></trkpt><trkpt lat="38.04811109334323" lon="15.846224417078123"><ele>1070.5</ele><time>2026-04-14T12:55:34.999Z</time></trkpt><trkpt lat="38.04798910659624" lon="15.84626008530827"><ele>1064.0</ele><time>2026-04-14T12:55:35.999Z</time></trkpt><trkpt lat="38.04786972954445" lon="15.846281358564207"><ele>1064.0</ele><time>2026-04-14T12:55:36.999Z</time></trkpt><trkpt lat="38.04776215693879" lon="15.846263653370345"><ele>1064.0</ele><time>2026-04-14T12:55:37.999Z</time></trkpt><trkpt lat="38.04767373561992" lon="15.846241730380472"><ele>1064.0</ele><time>2026-04-14T12:55:38.999Z</time></trkpt><trkpt lat="38.04760720879054" lon="15.846273683360428"><ele>1064.0</ele><time>2026-04-14T12:55:39.999Z</time></trkpt><trkpt lat="38.04755836500115" lon="15.846353015748164"><ele>1064.0</ele><time>2026-04-14T12:55:40.999Z</time></trkpt><trkpt lat="38.04750358425651" lon="15.846445676659728"><ele>1064.0</ele><time>2026-04-14T12:55:41.999Z</time></trkpt><trkpt lat="38.04746583235882" lon="15.846560954511672"><ele>1062.0</ele><time>2026-04-14T12:55:42.999Z</time></trkpt><trkpt lat="38.047414832748274" lon="15.846694189562593"><ele>1060.0</ele><time>2026-04-14T12:55:43.999Z</time></trkpt><trkpt lat="38.04736327810319" lon="15.846825032289754"><ele>1058.0</ele><time>2026-04-14T12:55:44.999Z</time></trkpt><trkpt lat="38.047320461678154" lon="15.84694208673529"><ele>1056.0</ele><time>2026-04-14T12:55:45.999Z</time></trkpt><trkpt lat="38.04728258946533" lon="15.847034656495579"><ele>1054.0</ele><time>2026-04-14T12:55:46.999Z</time></trkpt><trkpt lat="38.047250784706385" lon="15.847130189050908"><ele>1054.0</ele><time>2026-04-14T12:55:47.999Z</time></trkpt><trkpt lat="38.04722627956677" lon="15.847211835024645"><ele>1054.0</ele><time>2026-04-14T12:55:48.999Z</time></trkpt><trkpt lat="38.04718848925103" lon="15.84733656239137"><ele>1054.0</ele><time>2026-04-14T12:55:49.999Z</time></trkpt><trkpt lat="38.04715126572456" lon="15.847464408484186"><ele>1054.0</ele><time>2026-04-14T12:55:50.999Z</time></trkpt><trkpt lat="38.047139759445734" lon="15.847558708563334"><ele>1054.0</ele><time>2026-04-14T12:55:51.999Z</time></trkpt><trkpt lat="38.04706132880581" lon="15.84766915729217"><ele>1060.8</ele><time>2026-04-14T12:55:53.999Z</time></trkpt><trkpt lat="38.04697314202784" lon="15.847743574352478"><ele>1067.6000000000001</ele><time>2026-04-14T12:55:54.999Z</time></trkpt><trkpt lat="38.046888599741436" lon="15.847828196825278"><ele>1074.4</ele><time>2026-04-14T12:55:55.999Z</time></trkpt><trkpt lat="38.04681205043861" lon="15.847871634781347"><ele>1081.2</ele><time>2026-04-14T12:55:56.999Z</time></trkpt><trkpt lat="38.04673650184567" lon="15.847887464891711"><ele>1088.0</ele><time>2026-04-14T12:55:57.999Z</time></trkpt><trkpt lat="38.04663821860198" lon="15.847879427361017"><ele>1085.8333333333335</ele><time>2026-04-14T12:55:58.999Z</time></trkpt><trkpt lat="38.04653687706664" lon="15.84784695306126"><ele>1083.6666666666667</ele><time>2026-04-14T12:55:59.999Z</time></trkpt><trkpt lat="38.04645850660784" lon="15.84785189802486"><ele>1081.5</ele><time>2026-04-14T12:56:00.999Z</time></trkpt><trkpt lat="38.046388806036354" lon="15.84788196868941"><ele>1079.3333333333333</ele><time>2026-04-14T12:56:01.999Z</time></trkpt><trkpt lat="38.04631936325665" lon="15.847937962249274"><ele>1077.1666666666665</ele><time>2026-04-14T12:56:02.999Z</time></trkpt><trkpt lat="38.04623720138442" lon="15.848003219552645"><ele>1075.0</ele><time>2026-04-14T12:56:03.999Z</time></trkpt><trkpt lat="38.04614101643433" lon="15.848020299399682"><ele>1075.0</ele><time>2026-04-14T12:56:04.999Z</time></trkpt><trkpt lat="38.046040452346546" lon="15.847988287734804"><ele>1075.0</ele><time>2026-04-14T12:56:05.999Z</time></trkpt><trkpt lat="38.045903323362836" lon="15.847949833057934"><ele>1075.0</ele><time>2026-04-14T12:56:06.999Z</time></trkpt><trkpt lat="38.045781429461506" lon="15.847942737358544"><ele>1075.0</ele><time>2026-04-14T12:56:07.999Z</time></trkpt><trkpt lat="38.04564460480539" lon="15.847993890610153"><ele>1072.5</ele><time>2026-04-14T12:56:08.999Z</time></trkpt><trkpt lat="38.04549213612904" lon="15.848029562264095"><ele>1070.0</ele><time>2026-04-14T12:56:09.999Z</time></trkpt><trkpt lat="38.04534316297364" lon="15.848057456209618"><ele>1067.5</ele><time>2026-04-14T12:56:10.999Z</time></trkpt><trkpt lat="38.04521905492041" lon="15.84809086557937"><ele>1065.0</ele><time>2026-04-14T12:56:11.999Z</time></trkpt><trkpt lat="38.0450894877705" lon="15.848138899279736"><ele>1063.75</ele><time>2026-04-14T12:56:12.999Z</time></trkpt><trkpt lat="38.04494465687828" lon="15.848189919767156"><ele>1062.5</ele><time>2026-04-14T12:56:13.999Z</time></trkpt><trkpt lat="38.044829071442415" lon="15.84820706123469"><ele>1061.25</ele><time>2026-04-14T12:56:14.999Z</time></trkpt><trkpt lat="38.04473067776917" lon="15.848204607755278"><ele>1060.0</ele><time>2026-04-14T12:56:15.999Z</time></trkpt><trkpt lat="38.0446330612387" lon="15.84822197025847"><ele>1060.0</ele><time>2026-04-14T12:56:16.999Z</time></trkpt><trkpt lat="38.04453543902274" lon="15.848278596171955"><ele>1060.0</ele><time>2026-04-14T12:56:17.999Z</time></trkpt><trkpt lat="38.04442998958998" lon="15.848307694922966"><ele>1060.0</ele><time>2026-04-14T12:56:18.999Z</time></trkpt><trkpt lat="38.044324415686226" lon="15.848300447102021"><ele>1060.0</ele><time>2026-04-14T12:56:19.999Z</time></trkpt><trkpt lat="38.0442166544322" lon="15.84824932490812"><ele>1060.0</ele><time>2026-04-14T12:56:20.999Z</time></trkpt><trkpt lat="38.04410957309171" lon="15.848192335662848"><ele>1055.8</ele><time>2026-04-14T12:56:21.999Z</time></trkpt><trkpt lat="38.044013053752984" lon="15.848148394045788"><ele>1051.6</ele><time>2026-04-14T12:56:22.999Z</time></trkpt><trkpt lat="38.04392101789317" lon="15.848139607592115"><ele>1047.4</ele><time>2026-04-14T12:56:23.999Z</time></trkpt><trkpt lat="38.04383281648223" lon="15.848169609713379"><ele>1043.2</ele><time>2026-04-14T12:56:24.999Z</time></trkpt><trkpt lat="38.043755305223954" lon="15.848230241307954"><ele>1039.0</ele><time>2026-04-14T12:56:25.999Z</time></trkpt><trkpt lat="38.04371001606137" lon="15.848302576511438"><ele>1039.0</ele><time>2026-04-14T12:56:26.999Z</time></trkpt><trkpt lat="38.04369346413382" lon="15.848421819666713"><ele>1039.0</ele><time>2026-04-14T12:56:27.999Z</time></trkpt><trkpt lat="38.04365526838392" lon="15.848592154892719"><ele>1039.0</ele><time>2026-04-14T12:56:28.999Z</time></trkpt><trkpt lat="38.04359174396466" lon="15.848731832025301"><ele>1039.0</ele><time>2026-04-14T12:56:29.999Z</time></trkpt><trkpt lat="38.043519271098475" lon="15.848822891318267"><ele>1040.6000000000001</ele><time>2026-04-14T12:56:30.999Z</time></trkpt><trkpt lat="38.043443330056526" lon="15.848908168576084"><ele>1042.2</ele><time>2026-04-14T12:56:31.999Z</time></trkpt><trkpt lat="38.043384791846755" lon="15.849020545248019"><ele>1043.8000000000002</ele><time>2026-04-14T12:56:32.999Z</time></trkpt><trkpt lat="38.04333205018558" lon="15.84912696855799"><ele>1045.4</ele><time>2026-04-14T12:56:33.999Z</time></trkpt><trkpt lat="38.043295032978" lon="15.849212796995642"><ele>1047.0</ele><time>2026-04-14T12:56:34.999Z</time></trkpt><trkpt lat="38.04332473685647" lon="15.849328780934844"><ele>1047.0</ele><time>2026-04-14T12:56:36.999Z</time></trkpt><trkpt lat="38.043371217741644" lon="15.84940746496171"><ele>1047.0</ele><time>2026-04-14T12:56:37.999Z</time></trkpt><trkpt lat="38.04343748712067" lon="15.849488615241137"><ele>1047.0</ele><time>2026-04-14T12:56:38.999Z</time></trkpt><trkpt lat="38.04351549822065" lon="15.849534809019561"><ele>1047.0</ele><time>2026-04-14T12:56:39.999Z</time></trkpt><trkpt lat="38.04358609435588" lon="15.849525705437491"><ele>1047.0</ele><time>2026-04-14T12:56:40.999Z</time></trkpt><trkpt lat="38.04366593476644" lon="15.849474642642917"><ele>1047.0</ele><time>2026-04-14T12:56:41.999Z</time></trkpt><trkpt lat="38.04374253850565" lon="15.849386829544736"><ele>1047.0</ele><time>2026-04-14T12:56:42.999Z</time></trkpt><trkpt lat="38.043808676169384" lon="15.849321974301969"><ele>1047.0</ele><time>2026-04-14T12:56:43.999Z</time></trkpt><trkpt lat="38.04387375418121" lon="15.849300961883905"><ele>1047.0</ele><time>2026-04-14T12:56:44.999Z</time></trkpt><trkpt lat="38.044011549072664" lon="15.84931553363303"><ele>1047.0</ele><time>2026-04-14T12:56:46.999Z</time></trkpt><trkpt lat="38.04409760797674" lon="15.849350144104081"><ele>1047.0</ele><time>2026-04-14T12:56:47.999Z</time></trkpt><trkpt lat="38.044174525737496" lon="15.849423578422073"><ele>1045.8</ele><time>2026-04-14T12:56:48.999Z</time></trkpt><trkpt lat="38.044245798982594" lon="15.84950222396766"><ele>1044.6</ele><time>2026-04-14T12:56:49.999Z</time></trkpt><trkpt lat="38.04430285746311" lon="15.849540365322442"><ele>1043.3999999999999</ele><time>2026-04-14T12:56:50.999Z</time></trkpt><trkpt lat="38.04442094201132" lon="15.849442231000548"><ele>1042.2</ele><time>2026-04-14T12:56:52.999Z</time></trkpt><trkpt lat="38.044471072863175" lon="15.849352970716104"><ele>1041.0</ele><time>2026-04-14T12:56:53.999Z</time></trkpt><trkpt lat="38.04451481569284" lon="15.849287612006078"><ele>1041.0</ele><time>2026-04-14T12:56:54.999Z</time></trkpt><trkpt lat="38.04465359582551" lon="15.849293458376637"><ele>1041.0</ele><time>2026-04-14T12:56:56.999Z</time></trkpt><trkpt lat="38.04475587119093" lon="15.849353479521103"><ele>1041.0</ele><time>2026-04-14T12:56:57.999Z</time></trkpt><trkpt lat="38.04488223256338" lon="15.849449215087406"><ele>1041.0</ele><time>2026-04-14T12:56:58.999Z</time></trkpt><trkpt lat="38.045012050142724" lon="15.84952267122724"><ele>1042.2</ele><time>2026-04-14T12:56:59.999Z</time></trkpt><trkpt lat="38.04511554915102" lon="15.849568884295172"><ele>1043.3999999999999</ele><time>2026-04-14T12:57:00.999Z</time></trkpt><trkpt lat="38.04520295084499" lon="15.849667481320107"><ele>1044.6</ele><time>2026-04-14T12:57:01.999Z</time></trkpt><trkpt lat="38.04527027586835" lon="15.849762464782646"><ele>1045.8</ele><time>2026-04-14T12:57:02.999Z</time></trkpt><trkpt lat="38.045342507459004" lon="15.849805844098372"><ele>1047.0</ele><time>2026-04-14T12:57:03.999Z</time></trkpt><trkpt lat="38.045439306276855" lon="15.849812311417484"><ele>1047.0</ele><time>2026-04-14T12:57:04.999Z</time></trkpt><trkpt lat="38.04554729617211" lon="15.849802640254632"><ele>1047.0</ele><time>2026-04-14T12:57:05.999Z</time></trkpt><trkpt lat="38.04567126017125" lon="15.849799901988861"><ele>1047.0</ele><time>2026-04-14T12:57:06.999Z</time></trkpt><trkpt lat="38.04579943522736" lon="15.849847530502958"><ele>1047.0</ele><time>2026-04-14T12:57:07.999Z</time></trkpt><trkpt lat="38.04590708621708" lon="15.849930409090792"><ele>1048.25</ele><time>2026-04-14T12:57:08.999Z</time></trkpt><trkpt lat="38.04604124600112" lon="15.850034256170707"><ele>1049.5</ele><time>2026-04-14T12:57:09.999Z</time></trkpt><trkpt lat="38.046164061752584" lon="15.85012647783228"><ele>1050.75</ele><time>2026-04-14T12:57:10.999Z</time></trkpt><trkpt lat="38.046244518782586" lon="15.850180220569802"><ele>1052.0</ele><time>2026-04-14T12:57:11.999Z</time></trkpt><trkpt lat="38.046321501002836" lon="15.850242608131346"><ele>1052.0</ele><time>2026-04-14T12:57:12.999Z</time></trkpt><trkpt lat="38.046364238753846" lon="15.85031216471313"><ele>1052.0</ele><time>2026-04-14T12:57:13.999Z</time></trkpt><trkpt lat="38.04638306710199" lon="15.850426392564842"><ele>1052.0</ele><time>2026-04-14T12:57:15.999Z</time></trkpt><trkpt lat="38.04633061634751" lon="15.850485160412395"><ele>1052.0</ele><time>2026-04-14T12:57:16.999Z</time></trkpt><trkpt lat="38.046250899365845" lon="15.850547872609694"><ele>1052.0</ele><time>2026-04-14T12:57:17.999Z</time></trkpt><trkpt lat="38.046146372711426" lon="15.850588085203253"><ele>1052.0</ele><time>2026-04-14T12:57:18.999Z</time></trkpt><trkpt lat="38.046034810069784" lon="15.850613891951157"><ele>1052.0</ele><time>2026-04-14T12:57:19.999Z</time></trkpt><trkpt lat="38.045948092299355" lon="15.850676595909054"><ele>1052.0</ele><time>2026-04-14T12:57:20.999Z</time></trkpt><trkpt lat="38.04588078329787" lon="15.850758209369374"><ele>1052.0</ele><time>2026-04-14T12:57:21.999Z</time></trkpt><trkpt lat="38.045773334057145" lon="15.850893721380405"><ele>1052.0</ele><time>2026-04-14T12:57:22.999Z</time></trkpt><trkpt lat="38.04566242684087" lon="15.8510101009318"><ele>1049.0</ele><time>2026-04-14T12:57:23.999Z</time></trkpt><trkpt lat="38.04557854586604" lon="15.851093372389434"><ele>1046.0</ele><time>2026-04-14T12:57:24.999Z</time></trkpt><trkpt lat="38.04551782038384" lon="15.851155215849346"><ele>1043.0</ele><time>2026-04-14T12:57:25.999Z</time></trkpt><trkpt lat="38.04548229589901" lon="15.851223041982525"><ele>1040.0</ele><time>2026-04-14T12:57:27.999Z</time></trkpt><trkpt lat="38.04548595069307" lon="15.851368418037415"><ele>1037.0</ele><time>2026-04-14T12:58:10Z</time></trkpt><trkpt lat="38.045485510563495" lon="15.851463108361653"><ele>1034.0</ele><time>2026-04-14T12:58:11Z</time></trkpt><trkpt lat="38.045470978894215" lon="15.851585594626451"><ele>1034.0</ele><time>2026-04-14T12:58:12Z</time></trkpt><trkpt lat="38.04544779595163" lon="15.851715753504307"><ele>1034.0</ele><time>2026-04-14T12:58:13Z</time></trkpt><trkpt lat="38.04543771616314" lon="15.851841391945046"><ele>1034.0</ele><time>2026-04-14T12:58:14Z</time></trkpt><trkpt lat="38.04546032845464" lon="15.85193822445248"><ele>1034.0</ele><time>2026-04-14T12:58:15Z</time></trkpt><trkpt lat="38.045498355816875" lon="15.85201059689338"><ele>1034.0</ele><time>2026-04-14T12:58:16Z</time></trkpt><trkpt lat="38.045598596584355" lon="15.85204171970134"><ele>1034.4</ele><time>2026-04-14T12:58:17Z</time></trkpt><trkpt lat="38.04568543711864" lon="15.852115434186356"><ele>1034.8000000000002</ele><time>2026-04-14T12:58:18Z</time></trkpt><trkpt lat="38.0457809090907" lon="15.85219237283878"><ele>1035.1999999999998</ele><time>2026-04-14T12:58:19Z</time></trkpt><trkpt lat="38.04588112340808" lon="15.852251636598618"><ele>1035.6</ele><time>2026-04-14T12:58:20Z</time></trkpt><trkpt lat="38.045961521818924" lon="15.852273016458197"><ele>1036.0</ele><time>2026-04-14T12:58:21Z</time></trkpt><trkpt lat="38.04605508697073" lon="15.852246864315617"><ele>1039.25</ele><time>2026-04-14T12:58:22Z</time></trkpt><trkpt lat="38.04616796679354" lon="15.852201576768543"><ele>1042.5</ele><time>2026-04-14T12:58:23Z</time></trkpt><trkpt lat="38.04630896582998" lon="15.852166367359576"><ele>1045.75</ele><time>2026-04-14T12:58:24Z</time></trkpt><trkpt lat="38.046488355235695" lon="15.852138912846495"><ele>1049.0</ele><time>2026-04-14T12:58:25Z</time></trkpt><trkpt lat="38.04667413137434" lon="15.85214731392438"><ele>1052.25</ele><time>2026-04-14T12:58:26Z</time></trkpt><trkpt lat="38.04680815343396" lon="15.852160364130032"><ele>1055.5</ele><time>2026-04-14T12:58:27Z</time></trkpt><trkpt lat="38.0469403404113" lon="15.852168179939353"><ele>1058.75</ele><time>2026-04-14T12:58:28Z</time></trkpt><trkpt lat="38.04708336003537" lon="15.852223294266533"><ele>1062.0</ele><time>2026-04-14T12:58:29Z</time></trkpt><trkpt lat="38.04723327196139" lon="15.852281567267216"><ele>1062.0</ele><time>2026-04-14T12:58:30Z</time></trkpt><trkpt lat="38.04737626281285" lon="15.852350151216704"><ele>1062.0</ele><time>2026-04-14T12:58:31Z</time></trkpt><trkpt lat="38.04749461767517" lon="15.852410067355697"><ele>1062.0</ele><time>2026-04-14T12:58:32Z</time></trkpt><trkpt lat="38.04760090452486" lon="15.852424193081724"><ele>1062.0</ele><time>2026-04-14T12:58:33Z</time></trkpt><trkpt lat="38.0477106067525" lon="15.852404268102585"><ele>1065.0</ele><time>2026-04-14T12:58:34Z</time></trkpt><trkpt lat="38.04781518274234" lon="15.852353600129026"><ele>1068.0</ele><time>2026-04-14T12:58:35Z</time></trkpt><trkpt lat="38.0479079769952" lon="15.852356100723691"><ele>1071.0</ele><time>2026-04-14T12:58:36Z</time></trkpt><trkpt lat="38.04797786843519" lon="15.852361088837021"><ele>1074.0</ele><time>2026-04-14T12:58:37Z</time></trkpt><trkpt lat="38.04803331081031" lon="15.852458267898244"><ele>1077.0</ele><time>2026-04-14T12:58:38Z</time></trkpt><trkpt lat="38.048037468656155" lon="15.852591047524632"><ele>1077.4</ele><time>2026-04-14T12:58:39Z</time></trkpt><trkpt lat="38.04808893311022" lon="15.852732773946155"><ele>1077.8000000000002</ele><time>2026-04-14T12:58:40Z</time></trkpt><trkpt lat="38.048136790769796" lon="15.852866199587071"><ele>1078.2</ele><time>2026-04-14T12:58:41Z</time></trkpt><trkpt lat="38.04820519642253" lon="15.852964765150489"><ele>1078.6000000000001</ele><time>2026-04-14T12:58:42Z</time></trkpt><trkpt lat="38.04827806942456" lon="15.853010872467404"><ele>1079.0</ele><time>2026-04-14T12:58:43Z</time></trkpt><trkpt lat="38.048346771042254" lon="15.85304256668466"><ele>1079.0</ele><time>2026-04-14T12:58:44Z</time></trkpt><trkpt lat="38.04840954249312" lon="15.853030972130643"><ele>1079.0</ele><time>2026-04-14T12:58:45Z</time></trkpt><trkpt lat="38.0484639716608" lon="15.852931259771069"><ele>1079.0</ele><time>2026-04-14T12:58:47Z</time></trkpt><trkpt lat="38.04841275033917" lon="15.852807877124855"><ele>1079.0</ele><time>2026-04-14T12:59:12Z</time></trkpt><trkpt lat="38.04835640724227" lon="15.852738301709245"><ele>1079.0</ele><time>2026-04-14T12:59:13Z</time></trkpt><trkpt lat="38.0483198600789" lon="15.852652562841955"><ele>1079.0</ele><time>2026-04-14T12:59:14Z</time></trkpt><trkpt lat="38.048307691407615" lon="15.852544341226574"><ele>1078.5</ele><time>2026-04-14T12:59:15Z</time></trkpt><trkpt lat="38.04835390524141" lon="15.852416453099616"><ele>1078.0</ele><time>2026-04-14T12:59:16Z</time></trkpt><trkpt lat="38.04836281497223" lon="15.852271430783599"><ele>1077.5</ele><time>2026-04-14T12:59:17Z</time></trkpt><trkpt lat="38.048341090672686" lon="15.852113908536648"><ele>1077.0</ele><time>2026-04-14T12:59:18Z</time></trkpt><trkpt lat="38.04827702198815" lon="15.851973147025207"><ele>1077.0</ele><time>2026-04-14T12:59:19Z</time></trkpt><trkpt lat="38.048206304776635" lon="15.851844422159928"><ele>1077.0</ele><time>2026-04-14T12:59:20Z</time></trkpt><trkpt lat="38.048134037048605" lon="15.851705645354782"><ele>1077.0</ele><time>2026-04-14T12:59:21Z</time></trkpt><trkpt lat="38.04807341108355" lon="15.851563923610575"><ele>1077.0</ele><time>2026-04-14T12:59:22Z</time></trkpt><trkpt lat="38.04803264431446" lon="15.851396117683398"><ele>1084.0</ele><time>2026-04-14T12:59:23Z</time></trkpt><trkpt lat="38.047984977150406" lon="15.851169930136757"><ele>1091.0</ele><time>2026-04-14T12:59:24Z</time></trkpt><trkpt lat="38.047938407007756" lon="15.850951512913758"><ele>1098.0</ele><time>2026-04-14T12:59:25Z</time></trkpt><trkpt lat="38.047891469676095" lon="15.850773290107119"><ele>1098.5</ele><time>2026-04-14T12:59:26Z</time></trkpt><trkpt lat="38.04781667126361" lon="15.850635816963196"><ele>1099.0</ele><time>2026-04-14T12:59:27Z</time></trkpt><trkpt lat="38.04774014212501" lon="15.850486417199045"><ele>1099.5</ele><time>2026-04-14T12:59:28Z</time></trkpt><trkpt lat="38.04764906890243" lon="15.850341651454615"><ele>1100.0</ele><time>2026-04-14T12:59:29Z</time></trkpt><trkpt lat="38.04757673531387" lon="15.850174499080602"><ele>1103.5</ele><time>2026-04-14T12:59:30Z</time></trkpt><trkpt lat="38.04751232762943" lon="15.85000522297774"><ele>1107.0</ele><time>2026-04-14T12:59:31Z</time></trkpt><trkpt lat="38.047472612561926" lon="15.849837578193457"><ele>1110.5</ele><time>2026-04-14T12:59:32Z</time></trkpt><trkpt lat="38.04745421680047" lon="15.849690580085595"><ele>1114.0</ele><time>2026-04-14T12:59:33Z</time></trkpt><trkpt lat="38.04746346573593" lon="15.849599513193057"><ele>1114.0</ele><time>2026-04-14T12:59:34Z</time></trkpt><trkpt lat="38.04751013019154" lon="15.849532787892013"><ele>1114.0</ele><time>2026-04-14T12:59:36Z</time></trkpt><trkpt lat="38.04762088629497" lon="15.849587558664732"><ele>1114.0</ele><time>2026-04-14T12:59:37Z</time></trkpt><trkpt lat="38.047723984145655" lon="15.849620332984589"><ele>1114.0</ele><time>2026-04-14T12:59:38Z</time></trkpt><trkpt lat="38.04784221198363" lon="15.84969942585507"><ele>1114.0</ele><time>2026-04-14T12:59:39Z</time></trkpt><trkpt lat="38.047963490099534" lon="15.849775477986672"><ele>1114.0</ele><time>2026-04-14T12:59:40Z</time></trkpt><trkpt lat="38.04809092073717" lon="15.849848171961892"><ele>1114.0</ele><time>2026-04-14T12:59:41Z</time></trkpt><trkpt lat="38.048219542742004" lon="15.849913997310326"><ele>1114.0</ele><time>2026-04-14T12:59:42Z</time></trkpt><trkpt lat="38.04835304289072" lon="15.849972870079315"><ele>1114.0</ele><time>2026-04-14T12:59:43Z</time></trkpt><trkpt lat="38.04849048463765" lon="15.850034275053737"><ele>1115.75</ele><time>2026-04-14T12:59:44Z</time></trkpt><trkpt lat="38.048624349593496" lon="15.85010704883761"><ele>1117.5</ele><time>2026-04-14T12:59:45Z</time></trkpt><trkpt lat="38.04875563180242" lon="15.850186977727363"><ele>1119.25</ele><time>2026-04-14T12:59:46Z</time></trkpt><trkpt lat="38.04888506082442" lon="15.850263068349017"><ele>1121.0</ele><time>2026-04-14T12:59:47Z</time></trkpt><trkpt lat="38.04901253982278" lon="15.850332370490461"><ele>1125.25</ele><time>2026-04-14T12:59:48Z</time></trkpt><trkpt lat="38.04914002919243" lon="15.85040705300894"><ele>1129.5</ele><time>2026-04-14T12:59:49Z</time></trkpt><trkpt lat="38.04926056796047" lon="15.850493703196767"><ele>1133.75</ele><time>2026-04-14T12:59:50Z</time></trkpt><trkpt lat="38.04936941860142" lon="15.85059973663262"><ele>1138.0</ele><time>2026-04-14T12:59:51Z</time></trkpt><trkpt lat="38.0494764922842" lon="15.850718030673093"><ele>1138.0</ele><time>2026-04-14T12:59:52Z</time></trkpt><trkpt lat="38.04957273348144" lon="15.850840477996693"><ele>1138.0</ele><time>2026-04-14T12:59:53Z</time></trkpt><trkpt lat="38.049666287810496" lon="15.85096114673888"><ele>1138.0</ele><time>2026-04-14T12:59:54Z</time></trkpt><trkpt lat="38.04977511273844" lon="15.85105888940994"><ele>1138.0</ele><time>2026-04-14T12:59:55Z</time></trkpt><trkpt lat="38.04985813737815" lon="15.851189235363192"><ele>1136.0</ele><time>2026-04-14T12:59:56Z</time></trkpt><trkpt lat="38.0499460150269" lon="15.851304829066816"><ele>1134.0</ele><time>2026-04-14T12:59:57Z</time></trkpt><trkpt lat="38.050039025205514" lon="15.851415745870685"><ele>1132.0</ele><time>2026-04-14T12:59:58Z</time></trkpt><trkpt lat="38.05014813275214" lon="15.851502658834528"><ele>1130.0</ele><time>2026-04-14T12:59:59Z</time></trkpt><trkpt lat="38.050257944958176" lon="15.85159271997725"><ele>1131.0</ele><time>2026-04-14T13:00:00Z</time></trkpt><trkpt lat="38.05036566542674" lon="15.85168793519154"><ele>1132.0</ele><time>2026-04-14T13:00:01Z</time></trkpt><trkpt lat="38.0504726388849" lon="15.85179509143542"><ele>1133.0</ele><time>2026-04-14T13:00:02Z</time></trkpt><trkpt lat="38.050573952058194" lon="15.85191401365693"><ele>1134.0</ele><time>2026-04-14T13:00:03Z</time></trkpt><trkpt lat="38.0506637548154" lon="15.85204268091371"><ele>1134.0</ele><time>2026-04-14T13:00:04Z</time></trkpt><trkpt lat="38.0507440664914" lon="15.852169458844847"><ele>1134.0</ele><time>2026-04-14T13:00:05Z</time></trkpt><trkpt lat="38.050834173011374" lon="15.85228035282021"><ele>1134.0</ele><time>2026-04-14T13:00:06Z</time></trkpt><trkpt lat="38.05091441317194" lon="15.852375986260117"><ele>1134.0</ele><time>2026-04-14T13:00:07Z</time></trkpt><trkpt lat="38.05099163413612" lon="15.8524542888766"><ele>1137.2</ele><time>2026-04-14T13:00:08Z</time></trkpt><trkpt lat="38.05105987923343" lon="15.852522968718466"><ele>1140.4</ele><time>2026-04-14T13:00:09Z</time></trkpt><trkpt lat="38.051146853400446" lon="15.852557730020878"><ele>1143.6</ele><time>2026-04-14T13:00:10Z</time></trkpt><trkpt lat="38.05124290474458" lon="15.85255699015016"><ele>1146.8</ele><time>2026-04-14T13:00:11Z</time></trkpt><trkpt lat="38.05135101580369" lon="15.852545826746882"><ele>1150.0</ele><time>2026-04-14T13:00:12Z</time></trkpt><trkpt lat="38.05146363469672" lon="15.852548833195605"><ele>1150.0</ele><time>2026-04-14T13:00:13Z</time></trkpt><trkpt lat="38.051569609023424" lon="15.852540991139767"><ele>1150.0</ele><time>2026-04-14T13:00:14Z</time></trkpt><trkpt lat="38.05168204853365" lon="15.852553490631893"><ele>1150.0</ele><time>2026-04-14T13:00:15Z</time></trkpt><trkpt lat="38.05179551618019" lon="15.852527979231436"><ele>1150.0</ele><time>2026-04-14T13:00:16Z</time></trkpt><trkpt lat="38.05190666950285" lon="15.852544269061916"><ele>1150.0</ele><time>2026-04-14T13:00:17Z</time></trkpt><trkpt lat="38.05200453209351" lon="15.852526489906344"><ele>1151.5</ele><time>2026-04-14T13:00:18Z</time></trkpt><trkpt lat="38.05210110824116" lon="15.852540948118932"><ele>1153.0</ele><time>2026-04-14T13:00:19Z</time></trkpt><trkpt lat="38.052177028562575" lon="15.852533657217453"><ele>1154.5</ele><time>2026-04-14T13:00:20Z</time></trkpt><trkpt lat="38.0522410941286" lon="15.85249489224613"><ele>1156.0</ele><time>2026-04-14T13:00:21Z</time></trkpt><trkpt lat="38.05232557526059" lon="15.85242904527502"><ele>1157.5</ele><time>2026-04-14T13:00:22Z</time></trkpt><trkpt lat="38.05241056644745" lon="15.852351821817111"><ele>1159.0</ele><time>2026-04-14T13:00:23Z</time></trkpt><trkpt lat="38.0525091596834" lon="15.852318044265491"><ele>1159.5</ele><time>2026-04-14T13:00:24Z</time></trkpt><trkpt lat="38.05261393362335" lon="15.852271983703211"><ele>1160.0</ele><time>2026-04-14T13:00:25Z</time></trkpt><trkpt lat="38.052723065674456" lon="15.85223818269163"><ele>1160.5</ele><time>2026-04-14T13:00:26Z</time></trkpt><trkpt lat="38.05283539236275" lon="15.852178325137507"><ele>1161.0</ele><time>2026-04-14T13:00:27Z</time></trkpt><trkpt lat="38.052941894931166" lon="15.85214457507367"><ele>1161.0</ele><time>2026-04-14T13:00:28Z</time></trkpt><trkpt lat="38.05304258639598" lon="15.852157015442979"><ele>1161.0</ele><time>2026-04-14T13:00:29Z</time></trkpt><trkpt lat="38.05312363023298" lon="15.852237413017574"><ele>1161.0</ele><time>2026-04-14T13:00:30Z</time></trkpt><trkpt lat="38.05317290957351" lon="15.852315877852224"><ele>1161.0</ele><time>2026-04-14T13:00:31Z</time></trkpt><trkpt lat="38.05321171319759" lon="15.852396005973729"><ele>1161.0</ele><time>2026-04-14T13:00:32Z</time></trkpt><trkpt lat="38.053246946554154" lon="15.852486502368114"><ele>1161.0</ele><time>2026-04-14T13:00:33Z</time></trkpt><trkpt lat="38.05330018279142" lon="15.85255033421615"><ele>1162.3333333333333</ele><time>2026-04-14T13:00:34Z</time></trkpt><trkpt lat="38.053373226550534" lon="15.852559670470127"><ele>1163.6666666666667</ele><time>2026-04-14T13:00:35Z</time></trkpt><trkpt lat="38.05343814366231" lon="15.852526516634619"><ele>1165.0</ele><time>2026-04-14T13:00:36Z</time></trkpt><trkpt lat="38.053494581732906" lon="15.852446542838594"><ele>1166.3333333333335</ele><time>2026-04-14T13:00:37Z</time></trkpt><trkpt lat="38.053547334666" lon="15.852337650903246"><ele>1167.6666666666667</ele><time>2026-04-14T13:00:38Z</time></trkpt><trkpt lat="38.05361264831092" lon="15.852226380741994"><ele>1169.0</ele><time>2026-04-14T13:00:39Z</time></trkpt><trkpt lat="38.053676021834754" lon="15.852108343235315"><ele>1169.0</ele><time>2026-04-14T13:00:40Z</time></trkpt><trkpt lat="38.05370957323165" lon="15.851973853631904"><ele>1169.0</ele><time>2026-04-14T13:00:41Z</time></trkpt><trkpt lat="38.053763706502345" lon="15.851870284701958"><ele>1169.0</ele><time>2026-04-14T13:00:42Z</time></trkpt><trkpt lat="38.05383834109784" lon="15.85178977621374"><ele>1169.0</ele><time>2026-04-14T13:00:43Z</time></trkpt><trkpt lat="38.05394212175923" lon="15.851768915769796"><ele>1169.0</ele><time>2026-04-14T13:00:44Z</time></trkpt><trkpt lat="38.05407350496004" lon="15.85170056302936"><ele>1172.25</ele><time>2026-04-14T13:00:45Z</time></trkpt><trkpt lat="38.05419800820646" lon="15.851615969052013"><ele>1175.5</ele><time>2026-04-14T13:00:46Z</time></trkpt><trkpt lat="38.05429983455631" lon="15.851531552844833"><ele>1178.75</ele><time>2026-04-14T13:00:47Z</time></trkpt><trkpt lat="38.054404288938805" lon="15.851491543863627"><ele>1182.0</ele><time>2026-04-14T13:00:48Z</time></trkpt><trkpt lat="38.05449318619514" lon="15.851457402708643"><ele>1182.0</ele><time>2026-04-14T13:00:49Z</time></trkpt><trkpt lat="38.05460895894658" lon="15.851417300585373"><ele>1182.0</ele><time>2026-04-14T13:00:50Z</time></trkpt><trkpt lat="38.05473655144228" lon="15.851391832953961"><ele>1182.0</ele><time>2026-04-14T13:00:51.001Z</time></trkpt><trkpt lat="38.054876440492265" lon="15.851385739764646"><ele>1182.0</ele><time>2026-04-14T13:00:52.001Z</time></trkpt><trkpt lat="38.05501246394805" lon="15.851371974959292"><ele>1183.0</ele><time>2026-04-14T13:00:53.001Z</time></trkpt><trkpt lat="38.05514037748046" lon="15.851366003155016"><ele>1184.0</ele><time>2026-04-14T13:00:54.001Z</time></trkpt><trkpt lat="38.05525881866449" lon="15.851381584763455"><ele>1185.0</ele><time>2026-04-14T13:00:55.001Z</time></trkpt><trkpt lat="38.055358185032546" lon="15.851388715596304"><ele>1186.0</ele><time>2026-04-14T13:00:56.001Z</time></trkpt><trkpt lat="38.05542827797655" lon="15.85140155729687"><ele>1187.0</ele><time>2026-04-14T13:00:57.001Z</time></trkpt><trkpt lat="38.05551054932915" lon="15.851468874363823"><ele>1187.0</ele><time>2026-04-14T13:00:59.001Z</time></trkpt><trkpt lat="38.05547184479669" lon="15.851634508337654"><ele>1187.0</ele><time>2026-04-14T13:01:01.001Z</time></trkpt><trkpt lat="38.05546859486248" lon="15.8517433845048"><ele>1187.0</ele><time>2026-04-14T13:01:02.001Z</time></trkpt><trkpt lat="38.05549780648695" lon="15.851870029826888"><ele>1187.0</ele><time>2026-04-14T13:01:03.001Z</time></trkpt><trkpt lat="38.05553717160222" lon="15.85197985339032"><ele>1187.0</ele><time>2026-04-14T13:01:04.001Z</time></trkpt><trkpt lat="38.05559257885131" lon="15.85208329838118"><ele>1188.0</ele><time>2026-04-14T13:01:05.001Z</time></trkpt><trkpt lat="38.05568202212958" lon="15.852180310317758"><ele>1189.0</ele><time>2026-04-14T13:01:06.001Z</time></trkpt><trkpt lat="38.05577080140298" lon="15.852254175098208"><ele>1190.0</ele><time>2026-04-14T13:01:07.001Z</time></trkpt><trkpt lat="38.05585705965503" lon="15.852365579734043"><ele>1191.0</ele><time>2026-04-14T13:01:08.001Z</time></trkpt><trkpt lat="38.05593886216794" lon="15.852454534207281"><ele>1191.0</ele><time>2026-04-14T13:01:09.001Z</time></trkpt><trkpt lat="38.05598065099944" lon="15.852531832747013"><ele>1191.0</ele><time>2026-04-14T13:01:10.001Z</time></trkpt><trkpt lat="38.05599795398819" lon="15.852654318722687"><ele>1191.0</ele><time>2026-04-14T13:01:11.001Z</time></trkpt><trkpt lat="38.05603370958832" lon="15.852814391679399"><ele>1191.0</ele><time>2026-04-14T13:01:12.001Z</time></trkpt><trkpt lat="38.056064959228465" lon="15.852952357263394"><ele>1191.0</ele><time>2026-04-14T13:01:13.001Z</time></trkpt><trkpt lat="38.056044650025036" lon="15.853083800388143"><ele>1192.3999999999999</ele><time>2026-04-14T13:01:15.001Z</time></trkpt><trkpt lat="38.05593354144089" lon="15.853125270897596"><ele>1193.8</ele><time>2026-04-14T13:01:17Z</time></trkpt><trkpt lat="38.05585275437697" lon="15.853118556934833"><ele>1195.1999999999998</ele><time>2026-04-14T13:01:18Z</time></trkpt><trkpt lat="38.05577815408538" lon="15.85312995445514"><ele>1196.6</ele><time>2026-04-14T13:01:19Z</time></trkpt><trkpt lat="38.055726083008025" lon="15.853293782605713"><ele>1198.0</ele><time>2026-04-14T13:01:21Z</time></trkpt><trkpt lat="38.055776569472265" lon="15.853391049787021"><ele>1198.8</ele><time>2026-04-14T13:01:22Z</time></trkpt><trkpt lat="38.055823295828226" lon="15.853483000119766"><ele>1199.6</ele><time>2026-04-14T13:01:23Z</time></trkpt><trkpt lat="38.05586563331438" lon="15.853601397896892"><ele>1200.4</ele><time>2026-04-14T13:01:24Z</time></trkpt><trkpt lat="38.05591968299106" lon="15.853735559366402"><ele>1201.2</ele><time>2026-04-14T13:01:25Z</time></trkpt><trkpt lat="38.055973629905075" lon="15.85387112622163"><ele>1202.0</ele><time>2026-04-14T13:01:26Z</time></trkpt><trkpt lat="38.05603996882066" lon="15.85403825630012"><ele>1202.0</ele><time>2026-04-14T13:01:27Z</time></trkpt><trkpt lat="38.05610091379685" lon="15.85418162380882"><ele>1202.0</ele><time>2026-04-14T13:01:28Z</time></trkpt><trkpt lat="38.05611300691716" lon="15.854336697339521"><ele>1202.0</ele><time>2026-04-14T13:01:29Z</time></trkpt><trkpt lat="38.05612380155733" lon="15.854487432952483"><ele>1202.0</ele><time>2026-04-14T13:01:30Z</time></trkpt><trkpt lat="38.05613598357317" lon="15.854608214012817"><ele>1201.6</ele><time>2026-04-14T13:01:31Z</time></trkpt><trkpt lat="38.05616458816378" lon="15.854719605146839"><ele>1201.2</ele><time>2026-04-14T13:01:32Z</time></trkpt><trkpt lat="38.05618037214853" lon="15.854820425577685"><ele>1200.8</ele><time>2026-04-14T13:01:33Z</time></trkpt><trkpt lat="38.056223029831074" lon="15.854924432261587"><ele>1200.4</ele><time>2026-04-14T13:01:34Z</time></trkpt><trkpt lat="38.05629984525771" lon="15.85499080271325"><ele>1200.0</ele><time>2026-04-14T13:01:35Z</time></trkpt><trkpt lat="38.05640756312268" lon="15.85506660219386"><ele>1198.4</ele><time>2026-04-14T13:01:36Z</time></trkpt><trkpt lat="38.05652256962726" lon="15.855154833392907"><ele>1196.8</ele><time>2026-04-14T13:01:37Z</time></trkpt><trkpt lat="38.05662123022497" lon="15.855249556425123"><ele>1195.2</ele><time>2026-04-14T13:01:38Z</time></trkpt><trkpt lat="38.05667238065747" lon="15.855320009505084"><ele>1193.6</ele><time>2026-04-14T13:01:39Z</time></trkpt><trkpt lat="38.05673724826219" lon="15.855370351641"><ele>1192.0</ele><time>2026-04-14T13:01:40Z</time></trkpt><trkpt lat="38.056798257119624" lon="15.855401649439779"><ele>1196.25</ele><time>2026-04-14T13:01:41Z</time></trkpt><trkpt lat="38.05687973599514" lon="15.855453479930318"><ele>1200.5</ele><time>2026-04-14T13:01:42Z</time></trkpt><trkpt lat="38.0569663197421" lon="15.85550855774127"><ele>1204.75</ele><time>2026-04-14T13:01:43Z</time></trkpt><trkpt lat="38.05703641946133" lon="15.855544900222153"><ele>1209.0</ele><time>2026-04-14T13:01:44Z</time></trkpt><trkpt lat="38.05720690662771" lon="15.855267335554815"><ele>1209.0</ele><time>2026-04-14T13:01:45Z</time></trkpt><trkpt lat="38.05726437927813" lon="15.855323782348943"><ele>1209.0</ele><time>2026-04-14T13:01:47Z</time></trkpt><trkpt lat="38.05730564855781" lon="15.85549154829902"><ele>1209.0</ele><time>2026-04-14T13:01:49Z</time></trkpt><trkpt lat="38.05734807195643" lon="15.85561692431118"><ele>1209.0</ele><time>2026-04-14T13:01:50Z</time></trkpt><trkpt lat="38.057430552030596" lon="15.855755814943274"><ele>1211.0</ele><time>2026-04-14T13:01:51Z</time></trkpt><trkpt lat="38.05754373521205" lon="15.855831837663889"><ele>1213.0</ele><time>2026-04-14T13:01:52Z</time></trkpt><trkpt lat="38.05761002073527" lon="15.85588268126605"><ele>1215.0</ele><time>2026-04-14T13:01:53Z</time></trkpt><trkpt lat="38.05765751048248" lon="15.855813652008344"><ele>1217.0</ele><time>2026-04-14T13:01:55Z</time></trkpt><trkpt lat="38.05763561348111" lon="15.855733687475162"><ele>1219.0</ele><time>2026-04-14T13:01:56Z</time></trkpt><trkpt lat="38.057582339775" lon="15.855644382209634"><ele>1221.0</ele><time>2026-04-14T13:01:57Z</time></trkpt><trkpt lat="38.05751812146962" lon="15.855519239957092"><ele>1221.0</ele><time>2026-04-14T13:01:58Z</time></trkpt><trkpt lat="38.05749694271128" lon="15.85544291464323"><ele>1221.0</ele><time>2026-04-14T13:01:59Z</time></trkpt><trkpt lat="38.057512094859355" lon="15.85535715338224"><ele>1221.0</ele><time>2026-04-14T13:02:00Z</time></trkpt><trkpt lat="38.057558604278924" lon="15.855255769509435"><ele>1221.0</ele><time>2026-04-14T13:02:01Z</time></trkpt><trkpt lat="38.05762157232061" lon="15.85510598585722"><ele>1221.0</ele><time>2026-04-14T13:02:02Z</time></trkpt><trkpt lat="38.05766580123973" lon="15.854971201318094"><ele>1220.2</ele><time>2026-04-14T13:02:03Z</time></trkpt><trkpt lat="38.05766786011687" lon="15.854883069647737"><ele>1219.3999999999999</ele><time>2026-04-14T13:02:04Z</time></trkpt><trkpt lat="38.05756505405655" lon="15.854794471238474"><ele>1218.6</ele><time>2026-04-14T13:02:06Z</time></trkpt><trkpt lat="38.05745847806185" lon="15.854761975285033"><ele>1217.8</ele><time>2026-04-14T13:02:07Z</time></trkpt><trkpt lat="38.057350255364874" lon="15.854734708926816"><ele>1217.0</ele><time>2026-04-14T13:02:08Z</time></trkpt><trkpt lat="38.057284160068235" lon="15.854688302725936"><ele>1217.0</ele><time>2026-04-14T13:02:09Z</time></trkpt><trkpt lat="38.057257126674756" lon="15.854603828378753"><ele>1217.0</ele><time>2026-04-14T13:02:10Z</time></trkpt><trkpt lat="38.05726693494453" lon="15.854500749121188"><ele>1217.0</ele><time>2026-04-14T13:02:11Z</time></trkpt><trkpt lat="38.05731605286051" lon="15.854402140783833"><ele>1217.0</ele><time>2026-04-14T13:02:12Z</time></trkpt><trkpt lat="38.057394302815666" lon="15.854278423568234"><ele>1217.0</ele><time>2026-04-14T13:02:13Z</time></trkpt><trkpt lat="38.057478392800135" lon="15.85416507146013"><ele>1220.4</ele><time>2026-04-14T13:02:14Z</time></trkpt><trkpt lat="38.05755160028264" lon="15.854096955170538"><ele>1223.8000000000002</ele><time>2026-04-14T13:02:15Z</time></trkpt><trkpt lat="38.057637271315706" lon="15.85404972742105"><ele>1227.2</ele><time>2026-04-14T13:02:16Z</time></trkpt><trkpt lat="38.05774312112919" lon="15.85397015629779"><ele>1230.6000000000001</ele><time>2026-04-14T13:02:17Z</time></trkpt><trkpt lat="38.05781545001256" lon="15.853941219627089"><ele>1234.0</ele><time>2026-04-14T13:02:18Z</time></trkpt><trkpt lat="38.05785792312183" lon="15.854050936085667"><ele>1234.0</ele><time>2026-04-14T13:02:20Z</time></trkpt><trkpt lat="38.057867189067395" lon="15.854162181896298"><ele>1234.0</ele><time>2026-04-14T13:02:21Z</time></trkpt><trkpt lat="38.05792599409431" lon="15.854271812058323"><ele>1234.0</ele><time>2026-04-14T13:02:22Z</time></trkpt><trkpt lat="38.05803736400004" lon="15.854391748968638"><ele>1234.0</ele><time>2026-04-14T13:02:23Z</time></trkpt><trkpt lat="38.05812824814811" lon="15.854524297681838"><ele>1233.3333333333333</ele><time>2026-04-14T13:02:24Z</time></trkpt><trkpt lat="38.058165945626875" lon="15.854632659534785"><ele>1232.6666666666665</ele><time>2026-04-14T13:02:25Z</time></trkpt><trkpt lat="38.05816487780543" lon="15.854731068558433"><ele>1232.0</ele><time>2026-04-14T13:02:26Z</time></trkpt><trkpt lat="38.05814377466969" lon="15.85482908558242"><ele>1231.3333333333333</ele><time>2026-04-14T13:02:27Z</time></trkpt><trkpt lat="38.05819384526828" lon="15.854877586814657"><ele>1230.6666666666667</ele><time>2026-04-14T13:02:29Z</time></trkpt><trkpt lat="38.05826365456" lon="15.854873700855615"><ele>1230.0</ele><time>2026-04-14T13:02:30Z</time></trkpt><trkpt lat="38.05831643418376" lon="15.85472864736395"><ele>1230.0</ele><time>2026-04-14T13:02:32Z</time></trkpt><trkpt lat="38.05828902170955" lon="15.854587693507552"><ele>1230.0</ele><time>2026-04-14T13:02:33Z</time></trkpt><trkpt lat="38.05827387066353" lon="15.854414341142986"><ele>1230.0</ele><time>2026-04-14T13:02:34Z</time></trkpt><trkpt lat="38.058273857950205" lon="15.85428615780478"><ele>1230.0</ele><time>2026-04-14T13:02:35Z</time></trkpt><trkpt lat="38.05828788820145" lon="15.8541748482527"><ele>1230.0</ele><time>2026-04-14T13:02:36Z</time></trkpt><trkpt lat="38.05831865293817" lon="15.854047604571917"><ele>1234.0</ele><time>2026-04-14T13:02:37Z</time></trkpt><trkpt lat="38.05837857581841" lon="15.853939698894395"><ele>1238.0</ele><time>2026-04-14T13:02:38Z</time></trkpt><trkpt lat="38.05845811817912" lon="15.853848243686539"><ele>1242.0</ele><time>2026-04-14T13:02:39Z</time></trkpt><trkpt lat="38.05855630917315" lon="15.85378137420135"><ele>1246.0</ele><time>2026-04-14T13:02:40Z</time></trkpt><trkpt lat="38.058669500637926" lon="15.853718756527385"><ele>1250.0</ele><time>2026-04-14T13:02:41Z</time></trkpt><trkpt lat="38.05878759749524" lon="15.853659161256838"><ele>1250.0</ele><time>2026-04-14T13:02:42Z</time></trkpt><trkpt lat="38.05888291835771" lon="15.853636295556356"><ele>1250.0</ele><time>2026-04-14T13:02:43Z</time></trkpt><trkpt lat="38.058969802483986" lon="15.853642904196763"><ele>1250.0</ele><time>2026-04-14T13:02:44Z</time></trkpt><trkpt lat="38.05907652236555" lon="15.85366751553773"><ele>1250.0</ele><time>2026-04-14T13:02:45Z</time></trkpt><trkpt lat="38.05917160637747" lon="15.853653347380257"><ele>1250.0</ele><time>2026-04-14T13:02:46Z</time></trkpt><trkpt lat="38.059244974311234" lon="15.853594076455678"><ele>1249.2</ele><time>2026-04-14T13:02:47Z</time></trkpt><trkpt lat="38.05931097622552" lon="15.853502297572657"><ele>1248.4</ele><time>2026-04-14T13:02:48Z</time></trkpt><trkpt lat="38.05938282087141" lon="15.853405986670353"><ele>1247.6</ele><time>2026-04-14T13:02:49Z</time></trkpt><trkpt lat="38.05946842999583" lon="15.853361879142305"><ele>1246.8</ele><time>2026-04-14T13:02:50Z</time></trkpt><trkpt lat="38.059577739709766" lon="15.853355449514236"><ele>1246.0</ele><time>2026-04-14T13:02:51Z</time></trkpt><trkpt lat="38.05971176284331" lon="15.853363292519443"><ele>1249.8</ele><time>2026-04-14T13:02:52Z</time></trkpt><trkpt lat="38.05984821382907" lon="15.85337741775099"><ele>1253.6</ele><time>2026-04-14T13:02:53Z</time></trkpt><trkpt lat="38.05992962905016" lon="15.853382079475482"><ele>1257.4</ele><time>2026-04-14T13:02:54Z</time></trkpt><trkpt lat="38.05999936769813" lon="15.853357592843762"><ele>1261.2</ele><time>2026-04-14T13:02:55Z</time></trkpt><trkpt lat="38.06008463924244" lon="15.85328254571989"><ele>1265.0</ele><time>2026-04-14T13:02:56Z</time></trkpt><trkpt lat="38.060182493881875" lon="15.853183827807333"><ele>1265.0</ele><time>2026-04-14T13:02:57.001Z</time></trkpt><trkpt lat="38.060294475436166" lon="15.853049987280109"><ele>1265.0</ele><time>2026-04-14T13:02:58.001Z</time></trkpt><trkpt lat="38.060419086074994" lon="15.852911095505496"><ele>1265.0</ele><time>2026-04-14T13:02:59.001Z</time></trkpt><trkpt lat="38.0605301470876" lon="15.8528105214532"><ele>1265.0</ele><time>2026-04-14T13:03:00.001Z</time></trkpt><trkpt lat="38.06063909131888" lon="15.852722963916003"><ele>1265.0</ele><time>2026-04-14T13:03:01.001Z</time></trkpt><trkpt lat="38.060752594293994" lon="15.852633465808289"><ele>1265.0</ele><time>2026-04-14T13:03:02.001Z</time></trkpt><trkpt lat="38.06085850746279" lon="15.852540224349926"><ele>1265.0</ele><time>2026-04-14T13:03:03.001Z</time></trkpt><trkpt lat="38.060939884947544" lon="15.85245600525591"><ele>1267.8333333333335</ele><time>2026-04-14T13:03:04.001Z</time></trkpt><trkpt lat="38.061001444809115" lon="15.852395687009547"><ele>1270.6666666666667</ele><time>2026-04-14T13:03:05.001Z</time></trkpt><trkpt lat="38.06107936612034" lon="15.85232772484295"><ele>1273.5</ele><time>2026-04-14T13:03:07.001Z</time></trkpt><trkpt lat="38.06115063665084" lon="15.85228427143058"><ele>1276.3333333333333</ele><time>2026-04-14T13:03:10.001Z</time></trkpt><trkpt lat="38.06123544508583" lon="15.852347380478488"><ele>1279.1666666666665</ele><time>2026-04-14T13:03:18.001Z</time></trkpt><trkpt lat="38.061297212033494" lon="15.852414916199166"><ele>1282.0</ele><time>2026-04-14T13:03:19.001Z</time></trkpt><trkpt lat="38.06136233764371" lon="15.852482290864813"><ele>1282.0</ele><time>2026-04-14T13:03:20.001Z</time></trkpt><trkpt lat="38.06144847777889" lon="15.852554674813662"><ele>1282.0</ele><time>2026-04-14T13:03:21.001Z</time></trkpt><trkpt lat="38.0615253309314" lon="15.852599355243532"><ele>1282.0</ele><time>2026-04-14T13:03:22.001Z</time></trkpt><trkpt lat="38.06160195506871" lon="15.852622214086878"><ele>1282.0</ele><time>2026-04-14T13:03:23.001Z</time></trkpt><trkpt lat="38.06169631070638" lon="15.852643062025173"><ele>1282.0</ele><time>2026-04-14T13:03:24.001Z</time></trkpt><trkpt lat="38.06177253658824" lon="15.85265350904856"><ele>1282.0</ele><time>2026-04-14T13:03:25.001Z</time></trkpt><trkpt lat="38.06183735845351" lon="15.852647153222112"><ele>1280.0</ele><time>2026-04-14T13:03:26.001Z</time></trkpt><trkpt lat="38.06189389426801" lon="15.852608984380705"><ele>1278.0</ele><time>2026-04-14T13:03:27.001Z</time></trkpt><trkpt lat="38.06195670603222" lon="15.852539206134582"><ele>1276.0</ele><time>2026-04-14T13:03:28.001Z</time></trkpt><trkpt lat="38.062017044193276" lon="15.852441332185968"><ele>1274.0</ele><time>2026-04-14T13:03:29.001Z</time></trkpt><trkpt lat="38.062066546782525" lon="15.852349536288271"><ele>1272.0</ele><time>2026-04-14T13:03:30.001Z</time></trkpt><trkpt lat="38.062100607758865" lon="15.852268290760424"><ele>1270.0</ele><time>2026-04-14T13:03:31.001Z</time></trkpt><trkpt lat="38.06209491216768" lon="15.852124966992896"><ele>1270.0</ele><time>2026-04-14T13:03:33.001Z</time></trkpt><trkpt lat="38.06206308981977" lon="15.852041631245802"><ele>1270.0</ele><time>2026-04-14T13:03:34.001Z</time></trkpt><trkpt lat="38.06202733577451" lon="15.85193658540375"><ele>1270.0</ele><time>2026-04-14T13:03:35.001Z</time></trkpt><trkpt lat="38.062019771872954" lon="15.851800141255897"><ele>1270.0</ele><time>2026-04-14T13:03:37.001Z</time></trkpt><trkpt lat="38.06211125264082" lon="15.851701414475961"><ele>1270.0</ele><time>2026-04-14T13:03:39.001Z</time></trkpt><trkpt lat="38.062190236468" lon="15.85166973772963"><ele>1271.4</ele><time>2026-04-14T13:03:40.001Z</time></trkpt><trkpt lat="38.06230474588127" lon="15.851652837510443"><ele>1272.8</ele><time>2026-04-14T13:03:41.001Z</time></trkpt><trkpt lat="38.06240765559055" lon="15.851648521092224"><ele>1274.2</ele><time>2026-04-14T13:03:42.001Z</time></trkpt><trkpt lat="38.06247882098406" lon="15.851625282381308"><ele>1275.6</ele><time>2026-04-14T13:03:43.001Z</time></trkpt><trkpt lat="38.06254686730691" lon="15.851583073410795"><ele>1277.0</ele><time>2026-04-14T13:03:44.001Z</time></trkpt><trkpt lat="38.06264281714729" lon="15.851515161318456"><ele>1273.8</ele><time>2026-04-14T13:03:45.001Z</time></trkpt><trkpt lat="38.062753837660594" lon="15.851460383792995"><ele>1270.6</ele><time>2026-04-14T13:03:46Z</time></trkpt><trkpt lat="38.062846475546564" lon="15.851442598105104"><ele>1267.3999999999999</ele><time>2026-04-14T13:03:47Z</time></trkpt><trkpt lat="38.06293747924255" lon="15.851442355968528"><ele>1264.2</ele><time>2026-04-14T13:03:48Z</time></trkpt><trkpt lat="38.06300256802855" lon="15.85142705824117"><ele>1261.0</ele><time>2026-04-14T13:03:49Z</time></trkpt><trkpt lat="38.06309455314205" lon="15.85136856958569"><ele>1261.0</ele><time>2026-04-14T13:03:50Z</time></trkpt><trkpt lat="38.063175640455434" lon="15.851281176601416"><ele>1261.0</ele><time>2026-04-14T13:03:51Z</time></trkpt><trkpt lat="38.063286030549754" lon="15.851174690139246"><ele>1261.0</ele><time>2026-04-14T13:03:52Z</time></trkpt><trkpt lat="38.06342249332228" lon="15.851073769261147"><ele>1261.0</ele><time>2026-04-14T13:03:53Z</time></trkpt><trkpt lat="38.063580191252704" lon="15.85097514896876"><ele>1257.75</ele><time>2026-04-14T13:03:54Z</time></trkpt><trkpt lat="38.063720122849325" lon="15.850875440308064"><ele>1254.5</ele><time>2026-04-14T13:03:55Z</time></trkpt><trkpt lat="38.06383287831496" lon="15.850784461291404"><ele>1251.25</ele><time>2026-04-14T13:03:56Z</time></trkpt><trkpt lat="38.06393422329132" lon="15.850708954889024"><ele>1248.0</ele><time>2026-04-14T13:03:57Z</time></trkpt><trkpt lat="38.06403403758504" lon="15.850672775978639"><ele>1249.4</ele><time>2026-04-14T13:03:58Z</time></trkpt><trkpt lat="38.06413879819396" lon="15.85067142158827"><ele>1250.8</ele><time>2026-04-14T13:03:59Z</time></trkpt><trkpt lat="38.0642347028667" lon="15.850699933682924"><ele>1252.2</ele><time>2026-04-14T13:04:00Z</time></trkpt><trkpt lat="38.06429738261647" lon="15.85074966592241"><ele>1253.6</ele><time>2026-04-14T13:04:01Z</time></trkpt><trkpt lat="38.064384160275424" lon="15.850728633973302"><ele>1255.0</ele><time>2026-04-14T13:04:03Z</time></trkpt><trkpt lat="38.06445032884052" lon="15.850660254436953"><ele>1255.0</ele><time>2026-04-14T13:04:04Z</time></trkpt><trkpt lat="38.06455376111974" lon="15.850590621334618"><ele>1255.0</ele><time>2026-04-14T13:04:05Z</time></trkpt><trkpt lat="38.064666470120365" lon="15.850526297373694"><ele>1255.0</ele><time>2026-04-14T13:04:06Z</time></trkpt><trkpt lat="38.06478988641246" lon="15.8505031700829"><ele>1255.0</ele><time>2026-04-14T13:04:07Z</time></trkpt><trkpt lat="38.06489570717837" lon="15.850484314251501"><ele>1254.2</ele><time>2026-04-14T13:04:08Z</time></trkpt><trkpt lat="38.06497138503135" lon="15.850449675531472"><ele>1253.4</ele><time>2026-04-14T13:04:09Z</time></trkpt><trkpt lat="38.06501210825333" lon="15.850365520052886"><ele>1252.6</ele><time>2026-04-14T13:04:10Z</time></trkpt><trkpt lat="38.06505907744997" lon="15.850257784062448"><ele>1251.8</ele><time>2026-04-14T13:04:11Z</time></trkpt><trkpt lat="38.065123293290114" lon="15.850113163631274"><ele>1251.0</ele><time>2026-04-14T13:04:12Z</time></trkpt><trkpt lat="38.06518893963619" lon="15.849986641482177"><ele>1256.75</ele><time>2026-04-14T13:04:13Z</time></trkpt><trkpt lat="38.065228058226424" lon="15.8498723443118"><ele>1262.5</ele><time>2026-04-14T13:04:14Z</time></trkpt><trkpt lat="38.06525391935963" lon="15.849729681603316"><ele>1268.25</ele><time>2026-04-14T13:04:15Z</time></trkpt><trkpt lat="38.065283747160294" lon="15.849555792855005"><ele>1274.0</ele><time>2026-04-14T13:04:16Z</time></trkpt><trkpt lat="38.06530746123147" lon="15.849405531188262"><ele>1274.0</ele><time>2026-04-14T13:04:17Z</time></trkpt><trkpt lat="38.06533748552668" lon="15.849302489316285"><ele>1274.0</ele><time>2026-04-14T13:04:18Z</time></trkpt><trkpt lat="38.065390855557574" lon="15.84920744618245"><ele>1274.0</ele><time>2026-04-14T13:04:19Z</time></trkpt><trkpt lat="38.06547700233941" lon="15.849127656436314"><ele>1274.0</ele><time>2026-04-14T13:04:20Z</time></trkpt><trkpt lat="38.06556598719951" lon="15.849018303133741"><ele>1274.0</ele><time>2026-04-14T13:04:21Z</time></trkpt><trkpt lat="38.06563552882634" lon="15.848950916813257"><ele>1273.1666666666667</ele><time>2026-04-14T13:04:22Z</time></trkpt><trkpt lat="38.06571332646094" lon="15.848885836126074"><ele>1272.3333333333335</ele><time>2026-04-14T13:04:23Z</time></trkpt><trkpt lat="38.06577952878765" lon="15.848864499329585"><ele>1271.5</ele><time>2026-04-14T13:04:24Z</time></trkpt><trkpt lat="38.06586958553837" lon="15.8488701813262"><ele>1270.6666666666667</ele><time>2026-04-14T13:04:25Z</time></trkpt><trkpt lat="38.065965373497434" lon="15.848855539219395"><ele>1269.8333333333333</ele><time>2026-04-14T13:04:26Z</time></trkpt><trkpt lat="38.066035643293986" lon="15.848821776079449"><ele>1269.0</ele><time>2026-04-14T13:04:27Z</time></trkpt><trkpt lat="38.066054557389975" lon="15.848728457603354"><ele>1276.0</ele><time>2026-04-14T13:04:29Z</time></trkpt><trkpt lat="38.066167093804836" lon="15.84839190536624"><ele>1283.0</ele><time>2026-04-14T13:04:31Z</time></trkpt><trkpt lat="38.06619032301362" lon="15.848274212957227"><ele>1290.0</ele><time>2026-04-14T13:04:32Z</time></trkpt><trkpt lat="38.06626168019498" lon="15.84816221866087"><ele>1290.0</ele><time>2026-04-14T13:04:33Z</time></trkpt><trkpt lat="38.06634355883917" lon="15.848015083262753"><ele>1290.0</ele><time>2026-04-14T13:04:34Z</time></trkpt><trkpt lat="38.066410105001005" lon="15.847917160584728"><ele>1290.0</ele><time>2026-04-14T13:04:35Z</time></trkpt><trkpt lat="38.066477344605715" lon="15.847838224792964"><ele>1290.0</ele><time>2026-04-14T13:04:36Z</time></trkpt><trkpt lat="38.06653636780007" lon="15.84779176048603"><ele>1290.0</ele><time>2026-04-14T13:04:37Z</time></trkpt><trkpt lat="38.066646166598446" lon="15.847771438138524"><ele>1290.0</ele><time>2026-04-14T13:04:39Z</time></trkpt><trkpt lat="38.06669668928917" lon="15.847820998789423"><ele>1290.0</ele><time>2026-04-14T13:04:40Z</time></trkpt><trkpt lat="38.06673646435732" lon="15.847888361778294"><ele>1290.0</ele><time>2026-04-14T13:04:41Z</time></trkpt><trkpt lat="38.06678589647918" lon="15.847970151958203"><ele>1290.0</ele><time>2026-04-14T13:04:42Z</time></trkpt><trkpt lat="38.06684127879463" lon="15.848042954585827"><ele>1290.0</ele><time>2026-04-14T13:04:43Z</time></trkpt><trkpt lat="38.06691401132879" lon="15.84812367035869"><ele>1290.0</ele><time>2026-04-14T13:04:44Z</time></trkpt><trkpt lat="38.06699781194887" lon="15.848226898624578"><ele>1290.0</ele><time>2026-04-14T13:04:45Z</time></trkpt><trkpt lat="38.06705701553226" lon="15.848341268101608"><ele>1290.0</ele><time>2026-04-14T13:04:46Z</time></trkpt><trkpt lat="38.067108088865716" lon="15.84843557690024"><ele>1290.0</ele><time>2026-04-14T13:04:47Z</time></trkpt><trkpt lat="38.06723520121749" lon="15.848481220251921"><ele>1290.0</ele><time>2026-04-14T13:04:49Z</time></trkpt><trkpt lat="38.06734353722478" lon="15.848510606678435"><ele>1290.0</ele><time>2026-04-14T13:04:50Z</time></trkpt><trkpt lat="38.06746031596615" lon="15.848555197750025"><ele>1290.2</ele><time>2026-04-14T13:04:51Z</time></trkpt><trkpt lat="38.06754260003363" lon="15.848604366491568"><ele>1290.4</ele><time>2026-04-14T13:04:52Z</time></trkpt><trkpt lat="38.067604954688235" lon="15.848669202073314"><ele>1290.6</ele><time>2026-04-14T13:04:53Z</time></trkpt><trkpt lat="38.06767045260613" lon="15.848755769296845"><ele>1290.8</ele><time>2026-04-14T13:04:54Z</time></trkpt><trkpt lat="38.067731358443226" lon="15.84885273376627"><ele>1291.0</ele><time>2026-04-14T13:04:55Z</time></trkpt><trkpt lat="38.06779056906479" lon="15.848946669534879"><ele>1291.0</ele><time>2026-04-14T13:04:56Z</time></trkpt><trkpt lat="38.06785585869041" lon="15.84905111111133"><ele>1291.0</ele><time>2026-04-14T13:04:57Z</time></trkpt><trkpt lat="38.06790800523033" lon="15.849164947887719"><ele>1291.0</ele><time>2026-04-14T13:04:58Z</time></trkpt><trkpt lat="38.06794289712915" lon="15.849253139678083"><ele>1291.0</ele><time>2026-04-14T13:04:59Z</time></trkpt><trkpt lat="38.06798258353104" lon="15.849323864851602"><ele>1291.0</ele><time>2026-04-14T13:05:00Z</time></trkpt><trkpt lat="38.06809174490369" lon="15.849372046749165"><ele>1291.5</ele><time>2026-04-14T13:05:02Z</time></trkpt><trkpt lat="38.06817343620863" lon="15.849378861458177"><ele>1292.0</ele><time>2026-04-14T13:05:03.001Z</time></trkpt><trkpt lat="38.06824378811212" lon="15.849460846900515"><ele>1292.5</ele><time>2026-04-14T13:05:05.001Z</time></trkpt><trkpt lat="38.068227767132996" lon="15.849564045592695"><ele>1293.0</ele><time>2026-04-14T13:05:06.001Z</time></trkpt><trkpt lat="38.0682314456136" lon="15.84967477745344"><ele>1293.5</ele><time>2026-04-14T13:05:07.001Z</time></trkpt><trkpt lat="38.06824865038986" lon="15.849788171982603"><ele>1294.0</ele><time>2026-04-14T13:05:08.001Z</time></trkpt><trkpt lat="38.06827204568987" lon="15.849875623072643"><ele>1294.6666666666665</ele><time>2026-04-14T13:05:09.001Z</time></trkpt><trkpt lat="38.0683611083214" lon="15.849936901805618"><ele>1295.3333333333333</ele><time>2026-04-14T13:05:11.001Z</time></trkpt><trkpt lat="38.06844531243981" lon="15.849927028557998"><ele>1296.0</ele><time>2026-04-14T13:05:12.001Z</time></trkpt><trkpt lat="38.06852611967099" lon="15.849951346410702"><ele>1296.6666666666667</ele><time>2026-04-14T13:05:13.001Z</time></trkpt><trkpt lat="38.068568436282575" lon="15.850011283750051"><ele>1297.3333333333335</ele><time>2026-04-14T13:05:14.001Z</time></trkpt><trkpt lat="38.068600742864966" lon="15.850101970524047"><ele>1298.0</ele><time>2026-04-14T13:05:15.001Z</time></trkpt><trkpt lat="38.0686413502434" lon="15.85021028453786"><ele>1298.0</ele><time>2026-04-14T13:05:16.001Z</time></trkpt><trkpt lat="38.068686213839854" lon="15.85027729988684"><ele>1298.0</ele><time>2026-04-14T13:05:17.001Z</time></trkpt><trkpt lat="38.06875292592927" lon="15.850316674611566"><ele>1298.0</ele><time>2026-04-14T13:05:18.001Z</time></trkpt><trkpt lat="38.068836294919834" lon="15.850331199386138"><ele>1298.0</ele><time>2026-04-14T13:05:19.001Z</time></trkpt><trkpt lat="38.06897098413242" lon="15.850337407229793"><ele>1298.0</ele><time>2026-04-14T13:05:20.001Z</time></trkpt><trkpt lat="38.06909725543837" lon="15.850347218462804"><ele>1299.2</ele><time>2026-04-14T13:05:21.001Z</time></trkpt><trkpt lat="38.06916981591905" lon="15.85034979040451"><ele>1300.4</ele><time>2026-04-14T13:05:22.001Z</time></trkpt><trkpt lat="38.06930538175331" lon="15.850276145716728"><ele>1301.6000000000001</ele><time>2026-04-14T13:05:24.001Z</time></trkpt><trkpt lat="38.069391505267205" lon="15.850193113570757"><ele>1302.8000000000002</ele><time>2026-04-14T13:05:25.001Z</time></trkpt><trkpt lat="38.069464715980445" lon="15.850150126624904"><ele>1304.0</ele><time>2026-04-14T13:05:26.001Z</time></trkpt><trkpt lat="38.069548914599096" lon="15.85015143906508"><ele>1304.0</ele><time>2026-04-14T13:05:28.001Z</time></trkpt><trkpt lat="38.069555878972736" lon="15.850231070905624"><ele>1304.0</ele><time>2026-04-14T13:05:29.001Z</time></trkpt><trkpt lat="38.06957437664831" lon="15.85034821989709"><ele>1304.0</ele><time>2026-04-14T13:05:30.001Z</time></trkpt><trkpt lat="38.069593669338936" lon="15.85048030321921"><ele>1304.0</ele><time>2026-04-14T13:05:31.001Z</time></trkpt><trkpt lat="38.06967504247419" lon="15.85056045738556"><ele>1304.0</ele><time>2026-04-14T13:05:33Z</time></trkpt><trkpt lat="38.069758425644245" lon="15.85055650423701"><ele>1304.0</ele><time>2026-04-14T13:05:34Z</time></trkpt><trkpt lat="38.06985553696683" lon="15.850508317614626"><ele>1304.0</ele><time>2026-04-14T13:05:35Z</time></trkpt><trkpt lat="38.069918874246504" lon="15.850442571904333"><ele>1304.0</ele><time>2026-04-14T13:05:36Z</time></trkpt><trkpt lat="38.06999189469716" lon="15.850410531487851"><ele>1304.0</ele><time>2026-04-14T13:05:37Z</time></trkpt><trkpt lat="38.07010967720817" lon="15.850334444052068"><ele>1304.0</ele><time>2026-04-14T13:05:39Z</time></trkpt><trkpt lat="38.07018109065605" lon="15.850233267708079"><ele>1304.0</ele><time>2026-04-14T13:05:40Z</time></trkpt><trkpt lat="38.07024059383576" lon="15.850137926022072"><ele>1303.6</ele><time>2026-04-14T13:05:41Z</time></trkpt><trkpt lat="38.07032464677789" lon="15.850044291321844"><ele>1303.2</ele><time>2026-04-14T13:05:43Z</time></trkpt><trkpt lat="38.07044418123988" lon="15.85003508494285"><ele>1302.8</ele><time>2026-04-14T13:05:45Z</time></trkpt><trkpt lat="38.070516281970114" lon="15.850071568842063"><ele>1302.3999999999999</ele><time>2026-04-14T13:05:46Z</time></trkpt><trkpt lat="38.07058694861369" lon="15.850150433719636"><ele>1302.0</ele><time>2026-04-14T13:05:47Z</time></trkpt><trkpt lat="38.07060933603746" lon="15.850251083737605"><ele>1302.0</ele><time>2026-04-14T13:05:48Z</time></trkpt><trkpt lat="38.070620938095246" lon="15.850401552713867"><ele>1302.0</ele><time>2026-04-14T13:05:49Z</time></trkpt><trkpt lat="38.07063844470224" lon="15.850554631707505"><ele>1302.0</ele><time>2026-04-14T13:05:50Z</time></trkpt><trkpt lat="38.07068615466501" lon="15.850683607972538"><ele>1302.0</ele><time>2026-04-14T13:05:51Z</time></trkpt><trkpt lat="38.07072820845884" lon="15.850808055495381"><ele>1302.75</ele><time>2026-04-14T13:05:52Z</time></trkpt><trkpt lat="38.07078943705527" lon="15.850952835296404"><ele>1303.5</ele><time>2026-04-14T13:05:53Z</time></trkpt><trkpt lat="38.070855320635" lon="15.851089170874651"><ele>1304.25</ele><time>2026-04-14T13:05:54Z</time></trkpt><trkpt lat="38.07091662584697" lon="15.85122980439376"><ele>1305.0</ele><time>2026-04-14T13:05:55Z</time></trkpt><trkpt lat="38.07096151020555" lon="15.851375229579283"><ele>1305.0</ele><time>2026-04-14T13:05:56Z</time></trkpt><trkpt lat="38.070994005935795" lon="15.851513519439015"><ele>1305.0</ele><time>2026-04-14T13:05:57Z</time></trkpt><trkpt lat="38.07103279836215" lon="15.851677191829163"><ele>1305.0</ele><time>2026-04-14T13:05:58Z</time></trkpt><trkpt lat="38.07109296927911" lon="15.851821912599556"><ele>1305.0</ele><time>2026-04-14T13:05:59Z</time></trkpt><trkpt lat="38.07114614113212" lon="15.851929275064371"><ele>1304.5</ele><time>2026-04-14T13:06:00Z</time></trkpt><trkpt lat="38.071184385214494" lon="15.852015790164643"><ele>1304.0</ele><time>2026-04-14T13:06:01Z</time></trkpt><trkpt lat="38.071231988561735" lon="15.85211478329978"><ele>1303.5</ele><time>2026-04-14T13:06:02Z</time></trkpt><trkpt lat="38.07129286741887" lon="15.85221758298161"><ele>1303.0</ele><time>2026-04-14T13:06:03Z</time></trkpt><trkpt lat="38.07135233583809" lon="15.852282218399441"><ele>1302.5</ele><time>2026-04-14T13:06:04Z</time></trkpt><trkpt lat="38.07141447296901" lon="15.852330931587938"><ele>1302.0</ele><time>2026-04-14T13:06:05Z</time></trkpt><trkpt lat="38.071479211559655" lon="15.85236133736001"><ele>1302.0</ele><time>2026-04-14T13:06:06Z</time></trkpt><trkpt lat="38.07157307107208" lon="15.852391635971976"><ele>1302.0</ele><time>2026-04-14T13:06:07Z</time></trkpt><trkpt lat="38.07165161102546" lon="15.852421512204"><ele>1302.0</ele><time>2026-04-14T13:06:08Z</time></trkpt><trkpt lat="38.071728798806404" lon="15.852502617320999"><ele>1302.0</ele><time>2026-04-14T13:06:10Z</time></trkpt><trkpt lat="38.071779210892764" lon="15.852600466108072"><ele>1302.0</ele><time>2026-04-14T13:06:11Z</time></trkpt><trkpt lat="38.07180364714751" lon="15.852734380710146"><ele>1300.6</ele><time>2026-04-14T13:06:12Z</time></trkpt><trkpt lat="38.07184813661547" lon="15.852830387374345"><ele>1299.1999999999998</ele><time>2026-04-14T13:06:13Z</time></trkpt><trkpt lat="38.071905617533226" lon="15.852941155722375"><ele>1297.8</ele><time>2026-04-14T13:06:14Z</time></trkpt><trkpt lat="38.071966872780735" lon="15.853021801640041"><ele>1296.4</ele><time>2026-04-14T13:06:15Z</time></trkpt><trkpt lat="38.072027297131626" lon="15.853077476321518"><ele>1295.0</ele><time>2026-04-14T13:06:16Z</time></trkpt><trkpt lat="38.07213212845248" lon="15.853142421530181"><ele>1295.0</ele><time>2026-04-14T13:06:17Z</time></trkpt><trkpt lat="38.07224671017953" lon="15.853201118112434"><ele>1295.0</ele><time>2026-04-14T13:06:18Z</time></trkpt><trkpt lat="38.072369344037966" lon="15.853225252991567"><ele>1295.0</ele><time>2026-04-14T13:06:19Z</time></trkpt><trkpt lat="38.072454730434224" lon="15.853251837131685"><ele>1295.0</ele><time>2026-04-14T13:06:20Z</time></trkpt><trkpt lat="38.07253001159189" lon="15.853298941440954"><ele>1295.0</ele><time>2026-04-14T13:06:21Z</time></trkpt><trkpt lat="38.07263888880854" lon="15.853384107410623"><ele>1294.6</ele><time>2026-04-14T13:06:22Z</time></trkpt><trkpt lat="38.072755406741585" lon="15.853458507951967"><ele>1294.2</ele><time>2026-04-14T13:06:23Z</time></trkpt><trkpt lat="38.07283525990562" lon="15.853526496587214"><ele>1293.8000000000002</ele><time>2026-04-14T13:06:24Z</time></trkpt><trkpt lat="38.072898623772645" lon="15.85360388434586"><ele>1293.4</ele><time>2026-04-14T13:06:25Z</time></trkpt><trkpt lat="38.07295714907412" lon="15.853672025913168"><ele>1293.0</ele><time>2026-04-14T13:06:26Z</time></trkpt><trkpt lat="38.0730021081559" lon="15.853740931631219"><ele>1293.0</ele><time>2026-04-14T13:06:27Z</time></trkpt><trkpt lat="38.07302895912269" lon="15.853832203227151"><ele>1293.0</ele><time>2026-04-14T13:06:28Z</time></trkpt><trkpt lat="38.073014851695" lon="15.85395336319771"><ele>1293.0</ele><time>2026-04-14T13:06:29Z</time></trkpt><trkpt lat="38.07298136709609" lon="15.854083093048812"><ele>1293.0</ele><time>2026-04-14T13:06:30Z</time></trkpt><trkpt lat="38.07294195084725" lon="15.854189463836642"><ele>1293.0</ele><time>2026-04-14T13:06:31Z</time></trkpt><trkpt lat="38.072889583250024" lon="15.854271418881691"><ele>1292.6000000000001</ele><time>2026-04-14T13:06:32Z</time></trkpt><trkpt lat="38.07280947743995" lon="15.854379782893096"><ele>1292.2</ele><time>2026-04-14T13:06:33Z</time></trkpt><trkpt lat="38.0727377992853" lon="15.854493750160495"><ele>1291.8</ele><time>2026-04-14T13:06:34Z</time></trkpt><trkpt lat="38.07268559200376" lon="15.854590921348471"><ele>1291.4</ele><time>2026-04-14T13:06:35Z</time></trkpt><trkpt lat="38.07264192148649" lon="15.854661152132783"><ele>1291.0</ele><time>2026-04-14T13:06:36Z</time></trkpt><trkpt lat="38.07257645690912" lon="15.854707962267415"><ele>1291.0</ele><time>2026-04-14T13:06:37Z</time></trkpt><trkpt lat="38.07249775302962" lon="15.854732603320706"><ele>1291.0</ele><time>2026-04-14T13:06:38Z</time></trkpt><trkpt lat="38.07241256727116" lon="15.854768367733323"><ele>1291.0</ele><time>2026-04-14T13:06:39Z</time></trkpt><trkpt lat="38.07238522901598" lon="15.85488366267438"><ele>1291.0</ele><time>2026-04-14T13:06:41Z</time></trkpt><trkpt lat="38.07242150743717" lon="15.854970507509567"><ele>1291.0</ele><time>2026-04-14T13:06:42Z</time></trkpt><trkpt lat="38.07247425680989" lon="15.85508540255045"><ele>1291.0</ele><time>2026-04-14T13:06:43Z</time></trkpt><trkpt lat="38.07251138907625" lon="15.855212076394022"><ele>1291.0</ele><time>2026-04-14T13:06:44Z</time></trkpt><trkpt lat="38.072531441737716" lon="15.855374156437787"><ele>1291.0</ele><time>2026-04-14T13:06:45Z</time></trkpt><trkpt lat="38.0725414826936" lon="15.85549859629658"><ele>1291.0</ele><time>2026-04-14T13:06:46Z</time></trkpt><trkpt lat="38.072545736406745" lon="15.85563423602126"><ele>1291.0</ele><time>2026-04-14T13:06:47Z</time></trkpt><trkpt lat="38.07256095991334" lon="15.855741510010448"><ele>1291.0</ele><time>2026-04-14T13:06:48Z</time></trkpt><trkpt lat="38.07261365556091" lon="15.855824316775276"><ele>1291.0</ele><time>2026-04-14T13:06:50Z</time></trkpt><trkpt lat="38.072735380327515" lon="15.85578411283746"><ele>1291.0</ele><time>2026-04-14T13:06:52Z</time></trkpt><trkpt lat="38.07279977290287" lon="15.855742871395991"><ele>1291.0</ele><time>2026-04-14T13:06:53Z</time></trkpt><trkpt lat="38.07289056310505" lon="15.855740459420199"><ele>1291.0</ele><time>2026-04-14T13:06:54Z</time></trkpt><trkpt lat="38.07297353734357" lon="15.855707754850574"><ele>1291.0</ele><time>2026-04-14T13:06:55Z</time></trkpt><trkpt lat="38.07303918999646" lon="15.855620913173016"><ele>1291.0</ele><time>2026-04-14T13:06:56Z</time></trkpt><trkpt lat="38.07310154886471" lon="15.855518904048486"><ele>1291.0</ele><time>2026-04-14T13:06:57Z</time></trkpt><trkpt lat="38.07316732338671" lon="15.855497573705396"><ele>1291.0</ele><time>2026-04-14T13:06:59Z</time></trkpt><trkpt lat="38.07316726619425" lon="15.855590237219754"><ele>1291.0</ele><time>2026-04-14T13:07:01Z</time></trkpt><trkpt lat="38.07312831855686" lon="15.855682272125243"><ele>1291.0</ele><time>2026-04-14T13:07:02Z</time></trkpt><trkpt lat="38.073059301854265" lon="15.855772489783016"><ele>1291.0</ele><time>2026-04-14T13:07:03Z</time></trkpt><trkpt lat="38.07306576066665" lon="15.85594939666121"><ele>1289.0</ele><time>2026-04-14T13:07:04Z</time></trkpt><trkpt lat="38.073085967875805" lon="15.85607491364422"><ele>1287.0</ele><time>2026-04-14T13:07:05Z</time></trkpt><trkpt lat="38.07307800292769" lon="15.856162791958788"><ele>1285.0</ele><time>2026-04-14T13:07:06Z</time></trkpt><trkpt lat="38.07315275940813" lon="15.856207424805978"><ele>1283.0</ele><time>2026-04-14T13:07:08Z</time></trkpt><trkpt lat="38.073246241896115" lon="15.856170256260068"><ele>1281.0</ele><time>2026-04-14T13:07:10.001Z</time></trkpt><trkpt lat="38.07332541379006" lon="15.856033082437762"><ele>1286.0</ele><time>2026-04-14T13:07:12.001Z</time></trkpt><trkpt lat="38.07336025244769" lon="15.855912327912499"><ele>1291.0</ele><time>2026-04-14T13:07:13.001Z</time></trkpt><trkpt lat="38.073391471074785" lon="15.855796515205869"><ele>1296.0</ele><time>2026-04-14T13:07:14.001Z</time></trkpt><trkpt lat="38.07348260496189" lon="15.855834326692776"><ele>1301.0</ele><time>2026-04-14T13:07:17.001Z</time></trkpt><trkpt lat="38.07349664095783" lon="15.856023611463968"><ele>1306.0</ele><time>2026-04-14T13:07:19.001Z</time></trkpt><trkpt lat="38.07349892021922" lon="15.85614842830163"><ele>1306.0</ele><time>2026-04-14T13:07:20.001Z</time></trkpt><trkpt lat="38.0735219135037" lon="15.856271342593855"><ele>1306.0</ele><time>2026-04-14T13:07:21.001Z</time></trkpt><trkpt lat="38.0735520561973" lon="15.856366931522487"><ele>1306.0</ele><time>2026-04-14T13:07:22.001Z</time></trkpt><trkpt lat="38.07359163119601" lon="15.8564343372107"><ele>1306.0</ele><time>2026-04-14T13:07:23.001Z</time></trkpt><trkpt lat="38.07365104608819" lon="15.856517527469807"><ele>1306.0</ele><time>2026-04-14T13:07:24.001Z</time></trkpt><trkpt lat="38.07372624651528" lon="15.856575006016"><ele>1306.0</ele><time>2026-04-14T13:07:25.001Z</time></trkpt><trkpt lat="38.07382920056467" lon="15.856633549403766"><ele>1306.0</ele><time>2026-04-14T13:07:26.001Z</time></trkpt><trkpt lat="38.07391163254988" lon="15.856666803547848"><ele>1306.0</ele><time>2026-04-14T13:07:27.001Z</time></trkpt><trkpt lat="38.07398090462296" lon="15.856649197534601"><ele>1306.0</ele><time>2026-04-14T13:07:28.001Z</time></trkpt><trkpt lat="38.074046288906736" lon="15.85659729930679"><ele>1306.0</ele><time>2026-04-14T13:07:29.001Z</time></trkpt><trkpt lat="38.074119102322484" lon="15.856529753774796"><ele>1306.0</ele><time>2026-04-14T13:07:30.001Z</time></trkpt><trkpt lat="38.074228692295506" lon="15.85648605246358"><ele>1306.0</ele><time>2026-04-14T13:07:31.001Z</time></trkpt><trkpt lat="38.074339779714826" lon="15.856500311075141"><ele>1305.3333333333333</ele><time>2026-04-14T13:07:32.001Z</time></trkpt><trkpt lat="38.07443478672656" lon="15.856540037346011"><ele>1304.6666666666665</ele><time>2026-04-14T13:07:33.001Z</time></trkpt><trkpt lat="38.07450823070905" lon="15.856579363075262"><ele>1304.0</ele><time>2026-04-14T13:07:34.001Z</time></trkpt><trkpt lat="38.074568243540504" lon="15.856648007428939"><ele>1303.3333333333333</ele><time>2026-04-14T13:07:35.001Z</time></trkpt><trkpt lat="38.07463731580663" lon="15.8567230589477"><ele>1302.6666666666667</ele><time>2026-04-14T13:07:36.001Z</time></trkpt><trkpt lat="38.07471603336104" lon="15.856772525067848"><ele>1302.0</ele><time>2026-04-14T13:07:37.001Z</time></trkpt><trkpt lat="38.074800566586504" lon="15.856802562770618"><ele>1302.0</ele><time>2026-04-14T13:07:38.001Z</time></trkpt><trkpt lat="38.07488315787647" lon="15.85681233503531"><ele>1302.0</ele><time>2026-04-14T13:07:39Z</time></trkpt><trkpt lat="38.07499451310116" lon="15.856816164464849"><ele>1302.0</ele><time>2026-04-14T13:07:40Z</time></trkpt><trkpt lat="38.07511232846706" lon="15.85680897884656"><ele>1302.0</ele><time>2026-04-14T13:07:41Z</time></trkpt><trkpt lat="38.07522672984695" lon="15.856774468496011"><ele>1302.0</ele><time>2026-04-14T13:07:42Z</time></trkpt><trkpt lat="38.075347872731875" lon="15.856733576517556"><ele>1307.5</ele><time>2026-04-14T13:07:43Z</time></trkpt><trkpt lat="38.07548096511466" lon="15.856705381120097"><ele>1313.0</ele><time>2026-04-14T13:07:44Z</time></trkpt><trkpt lat="38.07560095376104" lon="15.856701372330646"><ele>1318.5</ele><time>2026-04-14T13:07:45Z</time></trkpt><trkpt lat="38.07570605407185" lon="15.856704408846612"><ele>1324.0</ele><time>2026-04-14T13:07:46Z</time></trkpt><trkpt lat="38.07580806268966" lon="15.85669422489232"><ele>1324.0</ele><time>2026-04-14T13:07:47Z</time></trkpt><trkpt lat="38.07590732383505" lon="15.856659595381787"><ele>1324.0</ele><time>2026-04-14T13:07:48Z</time></trkpt><trkpt lat="38.0759927824305" lon="15.856599335576494"><ele>1324.0</ele><time>2026-04-14T13:07:49Z</time></trkpt><trkpt lat="38.07606284642111" lon="15.856525344488876"><ele>1324.0</ele><time>2026-04-14T13:07:50Z</time></trkpt><trkpt lat="38.076118347005036" lon="15.85645437067901"><ele>1324.0</ele><time>2026-04-14T13:07:51Z</time></trkpt><trkpt lat="38.07617454509993" lon="15.856385039724294"><ele>1324.0</ele><time>2026-04-14T13:07:53Z</time></trkpt><trkpt lat="38.07625102684682" lon="15.856358669374341"><ele>1324.0</ele><time>2026-04-14T13:07:55Z</time></trkpt><trkpt lat="38.076324041428606" lon="15.856370654295805"><ele>1324.0</ele><time>2026-04-14T13:07:57Z</time></trkpt><trkpt lat="38.07638690213587" lon="15.856354680613068"><ele>1324.0</ele><time>2026-04-14T13:08:30Z</time></trkpt><trkpt lat="38.07646078708103" lon="15.856347603902279"><ele>1324.0</ele><time>2026-04-14T13:08:31Z</time></trkpt><trkpt lat="38.076553035163805" lon="15.85634461798858"><ele>1324.0</ele><time>2026-04-14T13:08:32Z</time></trkpt><trkpt lat="38.07664284604999" lon="15.856343419574854"><ele>1324.0</ele><time>2026-04-14T13:08:33Z</time></trkpt><trkpt lat="38.076719538548545" lon="15.85633798999609"><ele>1324.0</ele><time>2026-04-14T13:08:34Z</time></trkpt><trkpt lat="38.07679144694161" lon="15.8563411324339"><ele>1324.0</ele><time>2026-04-14T13:08:35Z</time></trkpt><trkpt lat="38.07688899200605" lon="15.856363472479888"><ele>1324.0</ele><time>2026-04-14T13:08:37Z</time></trkpt><trkpt lat="38.07693804944803" lon="15.856452191806527"><ele>1324.0</ele><time>2026-04-14T13:08:39Z</time></trkpt><trkpt lat="38.07692449323005" lon="15.856608395802493"><ele>1324.0</ele><time>2026-04-14T13:08:41Z</time></trkpt><trkpt lat="38.07695357446705" lon="15.856739477433324"><ele>1325.5</ele><time>2026-04-14T13:08:43Z</time></trkpt><trkpt lat="38.0770188679986" lon="15.856791420695739"><ele>1327.0</ele><time>2026-04-14T13:08:44Z</time></trkpt><trkpt lat="38.07710609878561" lon="15.856841317204706"><ele>1328.5</ele><time>2026-04-14T13:08:45Z</time></trkpt><trkpt lat="38.07717890587856" lon="15.856886171009922"><ele>1330.0</ele><time>2026-04-14T13:08:46Z</time></trkpt><trkpt lat="38.077261020316485" lon="15.85698720264957"><ele>1331.5</ele><time>2026-04-14T13:08:48Z</time></trkpt><trkpt lat="38.07723972123188" lon="15.857080561490141"><ele>1333.0</ele><time>2026-04-14T13:08:50Z</time></trkpt><trkpt lat="38.07711169627804" lon="15.857130431274083"><ele>1333.0</ele><time>2026-04-14T13:08:52Z</time></trkpt><trkpt lat="38.07699748652742" lon="15.857118132625953"><ele>1333.0</ele><time>2026-04-14T13:08:53Z</time></trkpt><trkpt lat="38.07685260355814" lon="15.857104291340576"><ele>1333.0</ele><time>2026-04-14T13:08:54Z</time></trkpt><trkpt lat="38.07668868810426" lon="15.85712115419828"><ele>1333.0</ele><time>2026-04-14T13:08:55Z</time></trkpt><trkpt lat="38.07656825451004" lon="15.857137605208347"><ele>1328.6000000000001</ele><time>2026-04-14T13:08:56Z</time></trkpt><trkpt lat="38.07649226023954" lon="15.857155376210489"><ele>1324.2</ele><time>2026-04-14T13:08:57Z</time></trkpt><trkpt lat="38.07639660502722" lon="15.857231095586439"><ele>1319.8</ele><time>2026-04-14T13:08:59Z</time></trkpt><trkpt lat="38.07635833405802" lon="15.857330832628707"><ele>1315.4</ele><time>2026-04-14T13:09:00Z</time></trkpt><trkpt lat="38.0763190871444" lon="15.857451802846029"><ele>1311.0</ele><time>2026-04-14T13:09:01Z</time></trkpt><trkpt lat="38.076253511256645" lon="15.857557484527659"><ele>1312.6</ele><time>2026-04-14T13:09:02Z</time></trkpt><trkpt lat="38.07618443256292" lon="15.857632460614058"><ele>1314.1999999999998</ele><time>2026-04-14T13:09:03Z</time></trkpt><trkpt lat="38.07615798142579" lon="15.857715238261553"><ele>1315.8000000000002</ele><time>2026-04-14T13:09:04Z</time></trkpt><trkpt lat="38.07612192123342" lon="15.857846861010684"><ele>1317.4</ele><time>2026-04-14T13:09:05Z</time></trkpt><trkpt lat="38.076099098894" lon="15.85801123354629"><ele>1319.0</ele><time>2026-04-14T13:09:06Z</time></trkpt><trkpt lat="38.07606268692904" lon="15.858169055257191"><ele>1319.0</ele><time>2026-04-14T13:09:07Z</time></trkpt><trkpt lat="38.07602636118336" lon="15.85830011194356"><ele>1319.0</ele><time>2026-04-14T13:09:08Z</time></trkpt><trkpt lat="38.07598048823353" lon="15.858421952716334"><ele>1319.0</ele><time>2026-04-14T13:09:09Z</time></trkpt><trkpt lat="38.07595004882824" lon="15.858544523024122"><ele>1319.0</ele><time>2026-04-14T13:09:10Z</time></trkpt><trkpt lat="38.07594442984741" lon="15.858662418526123"><ele>1319.0</ele><time>2026-04-14T13:09:11Z</time></trkpt><trkpt lat="38.075931486935836" lon="15.858811115276774"><ele>1322.0</ele><time>2026-04-14T13:09:12Z</time></trkpt><trkpt lat="38.07590463992468" lon="15.858994192034755"><ele>1325.0</ele><time>2026-04-14T13:09:13Z</time></trkpt><trkpt lat="38.07589528134836" lon="15.859176061771647"><ele>1328.0</ele><time>2026-04-14T13:09:14Z</time></trkpt><trkpt lat="38.07587740228394" lon="15.859342080214622"><ele>1331.0</ele><time>2026-04-14T13:09:15Z</time></trkpt><trkpt lat="38.0758604493994" lon="15.85944828309217"><ele>1333.1666666666667</ele><time>2026-04-14T13:09:16.001Z</time></trkpt><trkpt lat="38.07584843480204" lon="15.859552234911112"><ele>1335.3333333333335</ele><time>2026-04-14T13:09:17Z</time></trkpt><trkpt lat="38.07582964167489" lon="15.859668912983851"><ele>1337.5</ele><time>2026-04-14T13:09:18Z</time></trkpt><trkpt lat="38.075820558417924" lon="15.8597804550211"><ele>1339.6666666666667</ele><time>2026-04-14T13:09:19Z</time></trkpt><trkpt lat="38.0758254275132" lon="15.859875516481454"><ele>1341.8333333333333</ele><time>2026-04-14T13:09:20Z</time></trkpt><trkpt lat="38.0758531143295" lon="15.859966996449822"><ele>1344.0</ele><time>2026-04-14T13:09:21Z</time></trkpt><trkpt lat="38.075896873089604" lon="15.86007581940228"><ele>1344.5</ele><time>2026-04-14T13:09:22Z</time></trkpt><trkpt lat="38.07594416730173" lon="15.86018687143034"><ele>1345.0</ele><time>2026-04-14T13:09:23Z</time></trkpt><trkpt lat="38.075977085458064" lon="15.860264981668083"><ele>1345.5</ele><time>2026-04-14T13:09:24Z</time></trkpt><trkpt lat="38.075957886482236" lon="15.860355097714416"><ele>1346.0</ele><time>2026-04-14T13:09:26Z</time></trkpt><trkpt lat="38.07584620560042" lon="15.860381001923"><ele>1346.5</ele><time>2026-04-14T13:09:28Z</time></trkpt><trkpt lat="38.07576241556882" lon="15.860360420876638"><ele>1347.0</ele><time>2026-04-14T13:09:29Z</time></trkpt><trkpt lat="38.07565927897914" lon="15.8603308996962"><ele>1347.0</ele><time>2026-04-14T13:09:30Z</time></trkpt><trkpt lat="38.07554402592165" lon="15.860298400812182"><ele>1347.0</ele><time>2026-04-14T13:09:31Z</time></trkpt><trkpt lat="38.07544038912309" lon="15.860230721666518"><ele>1347.0</ele><time>2026-04-14T13:09:32Z</time></trkpt><trkpt lat="38.07535559814743" lon="15.860155698402833"><ele>1347.0</ele><time>2026-04-14T13:09:33Z</time></trkpt><trkpt lat="38.07529299974106" lon="15.860103542481106"><ele>1347.0</ele><time>2026-04-14T13:09:34Z</time></trkpt><trkpt lat="38.07518414479481" lon="15.860124752660413"><ele>1347.0</ele><time>2026-04-14T13:09:36Z</time></trkpt><trkpt lat="38.075112531793536" lon="15.860174155111695"><ele>1347.0</ele><time>2026-04-14T13:09:37Z</time></trkpt><trkpt lat="38.075057245813205" lon="15.860253681935667"><ele>1347.0</ele><time>2026-04-14T13:09:38Z</time></trkpt><trkpt lat="38.07499756391622" lon="15.860359930012871"><ele>1347.0</ele><time>2026-04-14T13:09:39Z</time></trkpt><trkpt lat="38.07494183567825" lon="15.860477266203043"><ele>1347.0</ele><time>2026-04-14T13:09:40Z</time></trkpt><trkpt lat="38.07491095314047" lon="15.860583349863532"><ele>1347.0</ele><time>2026-04-14T13:09:41Z</time></trkpt><trkpt lat="38.07490208103276" lon="15.86068804919475"><ele>1347.0</ele><time>2026-04-14T13:09:42Z</time></trkpt><trkpt lat="38.07492459099039" lon="15.860791301527764"><ele>1347.0</ele><time>2026-04-14T13:09:43Z</time></trkpt><trkpt lat="38.07496707418337" lon="15.860913610531906"><ele>1347.0</ele><time>2026-04-14T13:09:44Z</time></trkpt><trkpt lat="38.07500352470783" lon="15.861044557431939"><ele>1347.0</ele><time>2026-04-14T13:09:45Z</time></trkpt><trkpt lat="38.075013324160395" lon="15.861191769396465"><ele>1347.0</ele><time>2026-04-14T13:09:46Z</time></trkpt><trkpt lat="38.07500429339171" lon="15.861333541862917"><ele>1347.0</ele><time>2026-04-14T13:09:47Z</time></trkpt><trkpt lat="38.0749810156408" lon="15.861457317942854"><ele>1347.0</ele><time>2026-04-14T13:09:48Z</time></trkpt><trkpt lat="38.0749472635777" lon="15.861575340803657"><ele>1347.0</ele><time>2026-04-14T13:09:49Z</time></trkpt><trkpt lat="38.07490212167843" lon="15.86169036238886"><ele>1347.0</ele><time>2026-04-14T13:09:50Z</time></trkpt><trkpt lat="38.074863268709414" lon="15.86177681949832"><ele>1347.0</ele><time>2026-04-14T13:09:51Z</time></trkpt><trkpt lat="38.074826831818065" lon="15.861848665974431"><ele>1347.0</ele><time>2026-04-14T13:09:52Z</time></trkpt><trkpt lat="38.07472863275343" lon="15.86190670184278"><ele>1347.0</ele><time>2026-04-14T13:09:54Z</time></trkpt><trkpt lat="38.07464208800727" lon="15.861796552257166"><ele>1347.0</ele><time>2026-04-14T13:09:56Z</time></trkpt><trkpt lat="38.074592086029135" lon="15.861697639132633"><ele>1347.0</ele><time>2026-04-14T13:09:57Z</time></trkpt><trkpt lat="38.07453790775744" lon="15.861641461116228"><ele>1347.0</ele><time>2026-04-14T13:09:58Z</time></trkpt><trkpt lat="38.074454755432775" lon="15.86163241286443"><ele>1347.0</ele><time>2026-04-14T13:09:59Z</time></trkpt><trkpt lat="38.074350339449104" lon="15.861641206523586"><ele>1347.0</ele><time>2026-04-14T13:10:00Z</time></trkpt><trkpt lat="38.07424042466193" lon="15.861632863837492"><ele>1347.0</ele><time>2026-04-14T13:10:01Z</time></trkpt><trkpt lat="38.07415488673989" lon="15.861608648977546"><ele>1347.0</ele><time>2026-04-14T13:10:02Z</time></trkpt><trkpt lat="38.07408096883805" lon="15.861618636218813"><ele>1347.8</ele><time>2026-04-14T13:10:03Z</time></trkpt><trkpt lat="38.074016802287524" lon="15.8616695687777"><ele>1348.6</ele><time>2026-04-14T13:10:04Z</time></trkpt><trkpt lat="38.073961099342114" lon="15.861766601568673"><ele>1349.3999999999999</ele><time>2026-04-14T13:10:05Z</time></trkpt><trkpt lat="38.07391481639958" lon="15.861879004399253"><ele>1350.1999999999998</ele><time>2026-04-14T13:10:06Z</time></trkpt><trkpt lat="38.07389642105988" lon="15.862006237813816"><ele>1351.0</ele><time>2026-04-14T13:10:07Z</time></trkpt><trkpt lat="38.073889263545574" lon="15.862148763859842"><ele>1351.0</ele><time>2026-04-14T13:10:08Z</time></trkpt><trkpt lat="38.07387374070373" lon="15.86226579652771"><ele>1351.0</ele><time>2026-04-14T13:10:09Z</time></trkpt><trkpt lat="38.0738420651607" lon="15.862368091489307"><ele>1351.0</ele><time>2026-04-14T13:10:10Z</time></trkpt><trkpt lat="38.073786383065624" lon="15.862418629416432"><ele>1351.0</ele><time>2026-04-14T13:10:11Z</time></trkpt><trkpt lat="38.07369883907728" lon="15.862468702799678"><ele>1351.0</ele><time>2026-04-14T13:10:12Z</time></trkpt><trkpt lat="38.07359778512245" lon="15.862496569117093"><ele>1351.0</ele><time>2026-04-14T13:10:13Z</time></trkpt><trkpt lat="38.073518054847085" lon="15.862493691989428"><ele>1351.5</ele><time>2026-04-14T13:10:14Z</time></trkpt><trkpt lat="38.073535181120896" lon="15.862627291502704"><ele>1352.0</ele><time>2026-04-14T13:10:52Z</time></trkpt><trkpt lat="38.073528418201654" lon="15.86272260541315"><ele>1352.5</ele><time>2026-04-14T13:10:53Z</time></trkpt><trkpt lat="38.073501985100634" lon="15.86281004108383"><ele>1353.0</ele><time>2026-04-14T13:10:54Z</time></trkpt><trkpt lat="38.0734661432195" lon="15.862894197341015"><ele>1353.5</ele><time>2026-04-14T13:10:55Z</time></trkpt><trkpt lat="38.073471073642914" lon="15.863023311088345"><ele>1354.0</ele><time>2026-04-14T13:10:57Z</time></trkpt><trkpt lat="38.07359144242519" lon="15.86307901381519"><ele>1353.9999999999998</ele><time>2026-04-14T13:10:59Z</time></trkpt><trkpt lat="38.07365879607536" lon="15.863065944109211"><ele>1354.0</ele><time>2026-04-14T13:11:00Z</time></trkpt><trkpt lat="38.07372024288002" lon="15.863028217337813"><ele>1354.0</ele><time>2026-04-14T13:11:01Z</time></trkpt><trkpt lat="38.07377426755888" lon="15.86296686955349"><ele>1354.0</ele><time>2026-04-14T13:11:02Z</time></trkpt><trkpt lat="38.07382941719768" lon="15.8629040973152"><ele>1354.0</ele><time>2026-04-14T13:11:03Z</time></trkpt><trkpt lat="38.07389057039194" lon="15.862848198226322"><ele>1353.9999999999998</ele><time>2026-04-14T13:11:04Z</time></trkpt><trkpt lat="38.07396147067554" lon="15.86278553132817"><ele>1354.0</ele><time>2026-04-14T13:11:05Z</time></trkpt><trkpt lat="38.07404014528778" lon="15.862723935271442"><ele>1357.0</ele><time>2026-04-14T13:11:06Z</time></trkpt><trkpt lat="38.074128803442676" lon="15.862659524284387"><ele>1360.0</ele><time>2026-04-14T13:11:07Z</time></trkpt><trkpt lat="38.074203465833385" lon="15.86261749528576"><ele>1363.0</ele><time>2026-04-14T13:11:08Z</time></trkpt><trkpt lat="38.074265447488976" lon="15.862680769366193"><ele>1366.0</ele><time>2026-04-14T13:11:10Z</time></trkpt><trkpt lat="38.07421541832794" lon="15.862800176435686"><ele>1369.0</ele><time>2026-04-14T13:11:12Z</time></trkpt><trkpt lat="38.074121904233856" lon="15.862888258037374"><ele>1369.0</ele><time>2026-04-14T13:11:14Z</time></trkpt><trkpt lat="38.07419148896563" lon="15.86298062350911"><ele>1369.0</ele><time>2026-04-14T13:11:16Z</time></trkpt><trkpt lat="38.07425554220366" lon="15.862967980465923"><ele>1369.0</ele><time>2026-04-14T13:11:17Z</time></trkpt><trkpt lat="38.07433065285511" lon="15.862916611850453"><ele>1369.0</ele><time>2026-04-14T13:11:18Z</time></trkpt><trkpt lat="38.07440879676727" lon="15.862853535869512"><ele>1369.0</ele><time>2026-04-14T13:11:19Z</time></trkpt><trkpt lat="38.074494923976154" lon="15.862798842943855"><ele>1369.0</ele><time>2026-04-14T13:11:20Z</time></trkpt><trkpt lat="38.07459192814283" lon="15.862760203591671"><ele>1369.0</ele><time>2026-04-14T13:11:21.001Z</time></trkpt><trkpt lat="38.07470047617199" lon="15.862736790578397"><ele>1369.0</ele><time>2026-04-14T13:11:22.001Z</time></trkpt><trkpt lat="38.07481115118645" lon="15.862726343797817"><ele>1369.0</ele><time>2026-04-14T13:11:23.001Z</time></trkpt><trkpt lat="38.07492272748453" lon="15.862728332508352"><ele>1369.0</ele><time>2026-04-14T13:11:24.001Z</time></trkpt><trkpt lat="38.07503530371051" lon="15.86275123890526"><ele>1369.0</ele><time>2026-04-14T13:11:25.001Z</time></trkpt><trkpt lat="38.075136314140636" lon="15.862773895020785"><ele>1369.0</ele><time>2026-04-14T13:11:26.001Z</time></trkpt><trkpt lat="38.07522235653216" lon="15.862767454716778"><ele>1369.0</ele><time>2026-04-14T13:11:27.001Z</time></trkpt><trkpt lat="38.07529650169176" lon="15.86272467098736"><ele>1369.0</ele><time>2026-04-14T13:11:28.001Z</time></trkpt><trkpt lat="38.07534993671876" lon="15.862644618652668"><ele>1369.0</ele><time>2026-04-14T13:11:29.001Z</time></trkpt><trkpt lat="38.07538562453504" lon="15.862546213926343"><ele>1369.0</ele><time>2026-04-14T13:11:30.001Z</time></trkpt><trkpt lat="38.0754055432774" lon="15.862433284953786"><ele>1369.0</ele><time>2026-04-14T13:11:31.001Z</time></trkpt><trkpt lat="38.075422834487874" lon="15.862314915057189"><ele>1369.0</ele><time>2026-04-14T13:11:32.001Z</time></trkpt><trkpt lat="38.07546885549608" lon="15.86221484756772"><ele>1369.0</ele><time>2026-04-14T13:11:33.001Z</time></trkpt><trkpt lat="38.07554105153533" lon="15.86214832534509"><ele>1369.0</ele><time>2026-04-14T13:11:34.001Z</time></trkpt><trkpt lat="38.07564805310463" lon="15.862117295772904"><ele>1369.0</ele><time>2026-04-14T13:11:35.001Z</time></trkpt><trkpt lat="38.07574453874997" lon="15.862083862146328"><ele>1369.0</ele><time>2026-04-14T13:11:36.001Z</time></trkpt><trkpt lat="38.07584337429433" lon="15.862094427301502"><ele>1373.25</ele><time>2026-04-14T13:11:37.001Z</time></trkpt><trkpt lat="38.075954837534816" lon="15.862125802574898"><ele>1377.5</ele><time>2026-04-14T13:11:38.001Z</time></trkpt><trkpt lat="38.07607387649102" lon="15.862176028779986"><ele>1381.75</ele><time>2026-04-14T13:11:39.001Z</time></trkpt><trkpt lat="38.07621454661433" lon="15.862245321180607"><ele>1386.0</ele><time>2026-04-14T13:11:40.001Z</time></trkpt><trkpt lat="38.07635267515372" lon="15.862305008723649"><ele>1386.0</ele><time>2026-04-14T13:11:41.001Z</time></trkpt><trkpt lat="38.07647039054614" lon="15.862339473864212"><ele>1386.0</ele><time>2026-04-14T13:11:42Z</time></trkpt><trkpt lat="38.07658593799615" lon="15.86238451181429"><ele>1386.0</ele><time>2026-04-14T13:11:43Z</time></trkpt><trkpt lat="38.07666716467169" lon="15.862439063284477"><ele>1386.0</ele><time>2026-04-14T13:11:44Z</time></trkpt><trkpt lat="38.07672345622241" lon="15.86250669980323"><ele>1386.0</ele><time>2026-04-14T13:11:45Z</time></trkpt><trkpt lat="38.07676056465832" lon="15.86259541326617"><ele>1387.4</ele><time>2026-04-14T13:11:46Z</time></trkpt><trkpt lat="38.07680005417583" lon="15.862665387320694"><ele>1388.8</ele><time>2026-04-14T13:11:47Z</time></trkpt><trkpt lat="38.076890248553646" lon="15.862662214449307"><ele>1390.2</ele><time>2026-04-14T13:11:49Z</time></trkpt><trkpt lat="38.07695527012139" lon="15.86261854698677"><ele>1391.6000000000001</ele><time>2026-04-14T13:11:50Z</time></trkpt><trkpt lat="38.07703632618324" lon="15.86254409923443"><ele>1393.0</ele><time>2026-04-14T13:11:51Z</time></trkpt><trkpt lat="38.07714145186606" lon="15.862433471191414"><ele>1393.0</ele><time>2026-04-14T13:11:52Z</time></trkpt><trkpt lat="38.0772313178658" lon="15.862362563299069"><ele>1393.0</ele><time>2026-04-14T13:11:53Z</time></trkpt><trkpt lat="38.07730182173805" lon="15.862359314352998"><ele>1393.0</ele><time>2026-04-14T13:11:54Z</time></trkpt><trkpt lat="38.07738112238467" lon="15.862388764563885"><ele>1393.0</ele><time>2026-04-14T13:11:55Z</time></trkpt><trkpt lat="38.077446967133035" lon="15.862389112672895"><ele>1393.0</ele><time>2026-04-14T13:11:56Z</time></trkpt><trkpt lat="38.07748651419982" lon="15.862251144811049"><ele>1393.0</ele><time>2026-04-14T13:11:58Z</time></trkpt><trkpt lat="38.077479480279976" lon="15.862137483914498"><ele>1395.6000000000001</ele><time>2026-04-14T13:11:59Z</time></trkpt><trkpt lat="38.07747122249694" lon="15.86199816744627"><ele>1398.2</ele><time>2026-04-14T13:12:00Z</time></trkpt><trkpt lat="38.077491079217815" lon="15.861866273386463"><ele>1400.8</ele><time>2026-04-14T13:12:01Z</time></trkpt><trkpt lat="38.07753582539373" lon="15.86174872136469"><ele>1403.4</ele><time>2026-04-14T13:12:02Z</time></trkpt><trkpt lat="38.077604175023176" lon="15.861681357031076"><ele>1406.0</ele><time>2026-04-14T13:12:03Z</time></trkpt><trkpt lat="38.07769548116763" lon="15.861601082067818"><ele>1406.0</ele><time>2026-04-14T13:12:04Z</time></trkpt><trkpt lat="38.077790683744986" lon="15.861521940238399"><ele>1406.0</ele><time>2026-04-14T13:12:05Z</time></trkpt><trkpt lat="38.07788679135167" lon="15.86143546792143"><ele>1406.0</ele><time>2026-04-14T13:12:06Z</time></trkpt><trkpt lat="38.07798606122747" lon="15.861352074849165"><ele>1406.0</ele><time>2026-04-14T13:12:07Z</time></trkpt><trkpt lat="38.078077040653696" lon="15.861293034243742"><ele>1406.0</ele><time>2026-04-14T13:12:08Z</time></trkpt><trkpt lat="38.07815998344788" lon="15.861265039705566"><ele>1406.0</ele><time>2026-04-14T13:12:09Z</time></trkpt><trkpt lat="38.078243717571354" lon="15.86125666121328"><ele>1406.0</ele><time>2026-04-14T13:12:10Z</time></trkpt><trkpt lat="38.078341718914444" lon="15.861248888647024"><ele>1406.0</ele><time>2026-04-14T13:12:11Z</time></trkpt><trkpt lat="38.07844261331863" lon="15.861252234289836"><ele>1406.0</ele><time>2026-04-14T13:12:12Z</time></trkpt><trkpt lat="38.07855146185835" lon="15.861259848020259"><ele>1408.6</ele><time>2026-04-14T13:12:13Z</time></trkpt><trkpt lat="38.07866703345034" lon="15.861272433361513"><ele>1411.1999999999998</ele><time>2026-04-14T13:12:14Z</time></trkpt><trkpt lat="38.07878215005297" lon="15.86128439496518"><ele>1413.8000000000002</ele><time>2026-04-14T13:12:15Z</time></trkpt><trkpt lat="38.078892326229074" lon="15.861287082471035"><ele>1416.4</ele><time>2026-04-14T13:12:16Z</time></trkpt><trkpt lat="38.07899955697638" lon="15.861297636739115"><ele>1419.0</ele><time>2026-04-14T13:12:17Z</time></trkpt><trkpt lat="38.079099910858616" lon="15.861328354188126"><ele>1418.3333333333333</ele><time>2026-04-14T13:12:18Z</time></trkpt><trkpt lat="38.0791838460019" lon="15.86136537034446"><ele>1417.6666666666667</ele><time>2026-04-14T13:12:19Z</time></trkpt><trkpt lat="38.07926214241957" lon="15.86139431206996"><ele>1417.0</ele><time>2026-04-14T13:12:20Z</time></trkpt><trkpt lat="38.079353104266836" lon="15.861375452558852"><ele>1416.3333333333335</ele><time>2026-04-14T13:12:21Z</time></trkpt><trkpt lat="38.07944053257092" lon="15.861325581316557"><ele>1415.6666666666667</ele><time>2026-04-14T13:12:22Z</time></trkpt><trkpt lat="38.079512001282836" lon="15.861263962689149"><ele>1415.0</ele><time>2026-04-14T13:12:23Z</time></trkpt><trkpt lat="38.079586757446066" lon="15.861193496805358"><ele>1415.0</ele><time>2026-04-14T13:12:24Z</time></trkpt><trkpt lat="38.07966327771381" lon="15.861140458552518"><ele>1415.0</ele><time>2026-04-14T13:12:25Z</time></trkpt><trkpt lat="38.079732041086665" lon="15.861127536487611"><ele>1415.0</ele><time>2026-04-14T13:12:26Z</time></trkpt><trkpt lat="38.07980750130542" lon="15.861161727752755"><ele>1415.0</ele><time>2026-04-14T13:12:27Z</time></trkpt><trkpt lat="38.07989597251367" lon="15.86119633067472"><ele>1415.0</ele><time>2026-04-14T13:12:28Z</time></trkpt><trkpt lat="38.07999076868808" lon="15.861201800994786"><ele>1415.0</ele><time>2026-04-14T13:12:29Z</time></trkpt><trkpt lat="38.0800673205149" lon="15.861156707380646"><ele>1415.0</ele><time>2026-04-14T13:12:30Z</time></trkpt><trkpt lat="38.08012378919814" lon="15.861087966677635"><ele>1415.0</ele><time>2026-04-14T13:12:31Z</time></trkpt><trkpt lat="38.08019653726499" lon="15.861029414709087"><ele>1415.0</ele><time>2026-04-14T13:12:32Z</time></trkpt><trkpt lat="38.0802796446113" lon="15.861014026029082"><ele>1415.0</ele><time>2026-04-14T13:12:33Z</time></trkpt><trkpt lat="38.08036984815689" lon="15.86103448981788"><ele>1415.0</ele><time>2026-04-14T13:12:34Z</time></trkpt><trkpt lat="38.080453267589434" lon="15.861091492612667"><ele>1415.0</ele><time>2026-04-14T13:12:35Z</time></trkpt><trkpt lat="38.08053922461225" lon="15.86116352023316"><ele>1415.0</ele><time>2026-04-14T13:12:36Z</time></trkpt><trkpt lat="38.08061962059556" lon="15.861222361315694"><ele>1415.0</ele><time>2026-04-14T13:12:37Z</time></trkpt><trkpt lat="38.08070672784192" lon="15.861252306472515"><ele>1415.0</ele><time>2026-04-14T13:12:38Z</time></trkpt><trkpt lat="38.080791843265786" lon="15.861260035976896"><ele>1415.0</ele><time>2026-04-14T13:12:39Z</time></trkpt><trkpt lat="38.080883614679436" lon="15.861254874788823"><ele>1415.0</ele><time>2026-04-14T13:12:40Z</time></trkpt><trkpt lat="38.08096239319359" lon="15.861223728846062"><ele>1415.0</ele><time>2026-04-14T13:12:41Z</time></trkpt><trkpt lat="38.081048339728554" lon="15.861188906792465"><ele>1412.4</ele><time>2026-04-14T13:12:42Z</time></trkpt><trkpt lat="38.08114554709361" lon="15.861157984871667"><ele>1409.8</ele><time>2026-04-14T13:12:43Z</time></trkpt><trkpt lat="38.08124582197574" lon="15.86113453111955"><ele>1407.1999999999998</ele><time>2026-04-14T13:12:44Z</time></trkpt><trkpt lat="38.08135030962832" lon="15.861091747978465"><ele>1404.6</ele><time>2026-04-14T13:12:45Z</time></trkpt><trkpt lat="38.081426806286665" lon="15.861027804727417"><ele>1402.0</ele><time>2026-04-14T13:12:46Z</time></trkpt><trkpt lat="38.081507554145546" lon="15.860945213295894"><ele>1402.0</ele><time>2026-04-14T13:12:47Z</time></trkpt><trkpt lat="38.08157585496595" lon="15.860869341820882"><ele>1402.0</ele><time>2026-04-14T13:12:48Z</time></trkpt><trkpt lat="38.08166134495866" lon="15.860787709892573"><ele>1402.0</ele><time>2026-04-14T13:12:49Z</time></trkpt><trkpt lat="38.08175064893605" lon="15.860726190726119"><ele>1402.0</ele><time>2026-04-14T13:12:50Z</time></trkpt><trkpt lat="38.081849494888544" lon="15.86067993033558"><ele>1402.0</ele><time>2026-04-14T13:12:51Z</time></trkpt><trkpt lat="38.081944117554436" lon="15.860642928554311"><ele>1402.0</ele><time>2026-04-14T13:12:52Z</time></trkpt><trkpt lat="38.082046186760664" lon="15.860600815647016"><ele>1402.0</ele><time>2026-04-14T13:12:53Z</time></trkpt><trkpt lat="38.08214720553188" lon="15.860554198845367"><ele>1402.0</ele><time>2026-04-14T13:12:54Z</time></trkpt><trkpt lat="38.08224527196762" lon="15.860496610461205"><ele>1402.0</ele><time>2026-04-14T13:12:55Z</time></trkpt><trkpt lat="38.08233330928096" lon="15.86043015145301"><ele>1402.0</ele><time>2026-04-14T13:12:56Z</time></trkpt><trkpt lat="38.082411950143076" lon="15.860361600040392"><ele>1401.6666666666665</ele><time>2026-04-14T13:12:57Z</time></trkpt><trkpt lat="38.082483624206155" lon="15.86030465986705"><ele>1401.3333333333333</ele><time>2026-04-14T13:12:58Z</time></trkpt><trkpt lat="38.08255223814244" lon="15.860279902946726"><ele>1401.0</ele><time>2026-04-14T13:12:59Z</time></trkpt><trkpt lat="38.08263914662902" lon="15.86024437282628"><ele>1400.6666666666667</ele><time>2026-04-14T13:13:00Z</time></trkpt><trkpt lat="38.08273283180183" lon="15.860219607864977"><ele>1400.3333333333335</ele><time>2026-04-14T13:13:01Z</time></trkpt><trkpt lat="38.08280669207266" lon="15.860182412953764"><ele>1400.0</ele><time>2026-04-14T13:13:02Z</time></trkpt><trkpt lat="38.08287348738008" lon="15.860144858911402"><ele>1402.0</ele><time>2026-04-14T13:13:03Z</time></trkpt><trkpt lat="38.08296207308401" lon="15.860085117697961"><ele>1404.0</ele><time>2026-04-14T13:13:05Z</time></trkpt><trkpt lat="38.08300629935771" lon="15.859933874758159"><ele>1406.0</ele><time>2026-04-14T13:13:20Z</time></trkpt><trkpt lat="38.08304262082721" lon="15.859853146356961"><ele>1408.0</ele><time>2026-04-14T13:13:21Z</time></trkpt><trkpt lat="38.083083558079984" lon="15.859772361148808"><ele>1410.0</ele><time>2026-04-14T13:13:22Z</time></trkpt><trkpt lat="38.08314936779182" lon="15.859688395435326"><ele>1410.0</ele><time>2026-04-14T13:13:23Z</time></trkpt><trkpt lat="38.08321046838758" lon="15.859631248654287"><ele>1410.0</ele><time>2026-04-14T13:13:24Z</time></trkpt><trkpt lat="38.083258517976084" lon="15.859575344013125"><ele>1410.0</ele><time>2026-04-14T13:13:25Z</time></trkpt><trkpt lat="38.08336892600156" lon="15.859487570824507"><ele>1410.0</ele><time>2026-04-14T13:13:27.001Z</time></trkpt><trkpt lat="38.083429935587155" lon="15.859451926308923"><ele>1410.0</ele><time>2026-04-14T13:13:28.001Z</time></trkpt><trkpt lat="38.08349289194506" lon="15.859405929330096"><ele>1410.0</ele><time>2026-04-14T13:13:29.001Z</time></trkpt><trkpt lat="38.083547164609406" lon="15.859360619356567"><ele>1411.6</ele><time>2026-04-14T13:13:30.001Z</time></trkpt><trkpt lat="38.08361667945276" lon="15.859302562127304"><ele>1413.2</ele><time>2026-04-14T13:13:31.001Z</time></trkpt><trkpt lat="38.083676899609365" lon="15.859244849980806"><ele>1414.8000000000002</ele><time>2026-04-14T13:13:32.001Z</time></trkpt><trkpt lat="38.08375988231589" lon="15.859118101535982"><ele>1416.4</ele><time>2026-04-14T13:13:34.001Z</time></trkpt><trkpt lat="38.08378422202691" lon="15.859043301742448"><ele>1418.0</ele><time>2026-04-14T13:13:35.001Z</time></trkpt><trkpt lat="38.083783471374154" lon="15.858875531303493"><ele>1418.8000000000002</ele><time>2026-04-14T13:13:37.001Z</time></trkpt><trkpt lat="38.08377523022703" lon="15.858705206463993"><ele>1419.6</ele><time>2026-04-14T13:13:39.001Z</time></trkpt><trkpt lat="38.08378904851213" lon="15.85859736912551"><ele>1420.4</ele><time>2026-04-14T13:13:40.001Z</time></trkpt><trkpt lat="38.0837978810957" lon="15.85849257373809"><ele>1421.1999999999998</ele><time>2026-04-14T13:13:41.001Z</time></trkpt><trkpt lat="38.083796815009656" lon="15.858388136992085"><ele>1422.0</ele><time>2026-04-14T13:13:42.001Z</time></trkpt><trkpt lat="38.08382918116745" lon="15.85829514842824"><ele>1422.0</ele><time>2026-04-14T13:13:43.001Z</time></trkpt><trkpt lat="38.08387211793577" lon="15.858217455549848"><ele>1422.0</ele><time>2026-04-14T13:13:44.001Z</time></trkpt><trkpt lat="38.0839023369074" lon="15.858082648936538"><ele>1422.0</ele><time>2026-04-14T13:13:46Z</time></trkpt><trkpt lat="38.08389148425571" lon="15.857992104429806"><ele>1422.0</ele><time>2026-04-14T13:13:47Z</time></trkpt><trkpt lat="38.08387602598385" lon="15.857901548137631"><ele>1422.0</ele><time>2026-04-14T13:13:48Z</time></trkpt><trkpt lat="38.08388856797325" lon="15.85781044977087"><ele>1422.0</ele><time>2026-04-14T13:13:49Z</time></trkpt><trkpt lat="38.08392817843251" lon="15.857705581952212"><ele>1422.1666666666667</ele><time>2026-04-14T13:13:51Z</time></trkpt><trkpt lat="38.08395638982009" lon="15.85759038474817"><ele>1422.3333333333333</ele><time>2026-04-14T13:13:53Z</time></trkpt><trkpt lat="38.08396377362804" lon="15.8575085418451"><ele>1422.5</ele><time>2026-04-14T13:13:54Z</time></trkpt><trkpt lat="38.08398911864619" lon="15.857409162556435"><ele>1422.6666666666665</ele><time>2026-04-14T13:13:55Z</time></trkpt><trkpt lat="38.08404531470787" lon="15.857309439337392"><ele>1422.8333333333333</ele><time>2026-04-14T13:13:57Z</time></trkpt><trkpt lat="38.08406031082123" lon="15.857223623867759"><ele>1423.0</ele><time>2026-04-14T13:14:16Z</time></trkpt><trkpt lat="38.08399286009046" lon="15.857206799263082"><ele>1423.0</ele><time>2026-04-14T13:14:20Z</time></trkpt><trkpt lat="38.08398938960979" lon="15.857295118292166"><ele>1423.0</ele><time>2026-04-14T13:14:22Z</time></trkpt><trkpt lat="38.08399473881735" lon="15.857392116138767"><ele>1423.0</ele><time>2026-04-14T13:14:23Z</time></trkpt><trkpt lat="38.08398013527914" lon="15.857487718394092"><ele>1423.0</ele><time>2026-04-14T13:14:24Z</time></trkpt><trkpt lat="38.08395589291151" lon="15.85759579448717"><ele>1423.0</ele><time>2026-04-14T13:14:25Z</time></trkpt><trkpt lat="38.083920686054846" lon="15.857716039961765"><ele>1423.0</ele><time>2026-04-14T13:14:26Z</time></trkpt><trkpt lat="38.08388958709551" lon="15.85783740515444"><ele>1422.8000000000002</ele><time>2026-04-14T13:14:27Z</time></trkpt><trkpt lat="38.08388154329024" lon="15.857943891947002"><ele>1422.6</ele><time>2026-04-14T13:14:28Z</time></trkpt><trkpt lat="38.08388955092409" lon="15.858051992825557"><ele>1422.4</ele><time>2026-04-14T13:14:29Z</time></trkpt><trkpt lat="38.083902021925404" lon="15.858164823121259"><ele>1422.1999999999998</ele><time>2026-04-14T13:14:30Z</time></trkpt><trkpt lat="38.08388376764866" lon="15.858250154031882"><ele>1422.0</ele><time>2026-04-14T13:14:31Z</time></trkpt><trkpt lat="38.083819510421854" lon="15.858394237394"><ele>1422.0</ele><time>2026-04-14T13:14:33Z</time></trkpt><trkpt lat="38.08379888421645" lon="15.85847860847854"><ele>1422.0</ele><time>2026-04-14T13:14:34Z</time></trkpt><trkpt lat="38.083786639174434" lon="15.858580499409792"><ele>1422.0</ele><time>2026-04-14T13:14:35Z</time></trkpt><trkpt lat="38.0837879828769" lon="15.858743897044711"><ele>1422.0</ele><time>2026-04-14T13:14:36Z</time></trkpt><trkpt lat="38.083780337527955" lon="15.85886158980866"><ele>1422.0</ele><time>2026-04-14T13:14:37Z</time></trkpt><trkpt lat="38.08378372472581" lon="15.85897222407741"><ele>1422.0</ele><time>2026-04-14T13:14:38Z</time></trkpt><trkpt lat="38.0837874298737" lon="15.859061210238536"><ele>1422.0</ele><time>2026-04-14T13:14:39Z</time></trkpt><trkpt lat="38.08376016914194" lon="15.859197659982675"><ele>1422.0</ele><time>2026-04-14T13:14:41Z</time></trkpt><trkpt lat="38.08371332419006" lon="15.85925508388361"><ele>1422.0</ele><time>2026-04-14T13:14:42Z</time></trkpt><trkpt lat="38.083653028678505" lon="15.85930880154846"><ele>1422.0</ele><time>2026-04-14T13:14:43Z</time></trkpt><trkpt lat="38.083588822544094" lon="15.859376997934286"><ele>1422.0</ele><time>2026-04-14T13:14:44Z</time></trkpt><trkpt lat="38.083524792957725" lon="15.859432417484413"><ele>1421.3333333333333</ele><time>2026-04-14T13:14:45Z</time></trkpt><trkpt lat="38.08345221051956" lon="15.859466728913917"><ele>1420.6666666666667</ele><time>2026-04-14T13:14:46Z</time></trkpt><trkpt lat="38.083384315016225" lon="15.85947696219674"><ele>1420.0</ele><time>2026-04-14T13:14:47Z</time></trkpt><trkpt lat="38.0833182251526" lon="15.859516795668494"><ele>1419.3333333333335</ele><time>2026-04-14T13:14:48Z</time></trkpt><trkpt lat="38.083264451877895" lon="15.859574055972283"><ele>1418.6666666666667</ele><time>2026-04-14T13:14:49Z</time></trkpt><trkpt lat="38.08317077448303" lon="15.859679814714866"><ele>1418.0</ele><time>2026-04-14T13:14:51Z</time></trkpt><trkpt lat="38.083122052056595" lon="15.859741340288416"><ele>1416.6666666666667</ele><time>2026-04-14T13:14:52Z</time></trkpt><trkpt lat="38.08307347935486" lon="15.85980627014195"><ele>1415.3333333333335</ele><time>2026-04-14T13:14:53Z</time></trkpt><trkpt lat="38.083037430627485" lon="15.859895171332264"><ele>1414.0</ele><time>2026-04-14T13:14:54Z</time></trkpt><trkpt lat="38.082998619772106" lon="15.859980498708538"><ele>1412.6666666666667</ele><time>2026-04-14T13:14:55Z</time></trkpt><trkpt lat="38.082984890765886" lon="15.86008652342805"><ele>1411.3333333333333</ele><time>2026-04-14T13:14:58Z</time></trkpt><trkpt lat="38.08307191882809" lon="15.860082446552253"><ele>1410.0</ele><time>2026-04-14T13:15:00Z</time></trkpt><trkpt lat="38.08313512944283" lon="15.860030423487794"><ele>1410.0</ele><time>2026-04-14T13:15:01Z</time></trkpt><trkpt lat="38.08322453862572" lon="15.859941438033523"><ele>1410.0</ele><time>2026-04-14T13:15:02Z</time></trkpt><trkpt lat="38.083322079914424" lon="15.85984940535898"><ele>1410.0</ele><time>2026-04-14T13:15:03Z</time></trkpt><trkpt lat="38.083396696903684" lon="15.85980721551045"><ele>1410.0</ele><time>2026-04-14T13:15:04Z</time></trkpt><trkpt lat="38.08349929638313" lon="15.859876024003738"><ele>1410.0</ele><time>2026-04-14T13:15:06Z</time></trkpt><trkpt lat="38.083543265536896" lon="15.859958532640116"><ele>1409.2</ele><time>2026-04-14T13:15:07Z</time></trkpt><trkpt lat="38.08360289032442" lon="15.860053082592747"><ele>1408.4</ele><time>2026-04-14T13:15:08Z</time></trkpt><trkpt lat="38.08368322907183" lon="15.860133793700223"><ele>1407.6</ele><time>2026-04-14T13:15:09Z</time></trkpt><trkpt lat="38.08378172734891" lon="15.86020920211834"><ele>1406.8</ele><time>2026-04-14T13:15:10Z</time></trkpt><trkpt lat="38.08387650283566" lon="15.860261609982276"><ele>1406.0</ele><time>2026-04-14T13:15:11Z</time></trkpt><trkpt lat="38.08394749130048" lon="15.860266323122568"><ele>1406.0</ele><time>2026-04-14T13:15:12Z</time></trkpt><trkpt lat="38.08401199896583" lon="15.860256358695992"><ele>1406.0</ele><time>2026-04-14T13:15:13Z</time></trkpt><trkpt lat="38.08407293577377" lon="15.860230379098171"><ele>1406.0</ele><time>2026-04-14T13:15:14Z</time></trkpt><trkpt lat="38.08415338256884" lon="15.86017139982275"><ele>1406.0</ele><time>2026-04-14T13:15:15Z</time></trkpt><trkpt lat="38.084240852157755" lon="15.86010704392795"><ele>1406.0</ele><time>2026-04-14T13:15:16Z</time></trkpt><trkpt lat="38.08432878030009" lon="15.860035450196683"><ele>1406.0</ele><time>2026-04-14T13:15:17Z</time></trkpt><trkpt lat="38.08441400386734" lon="15.859970822358502"><ele>1408.4</ele><time>2026-04-14T13:15:18Z</time></trkpt><trkpt lat="38.084484832118534" lon="15.8598856193637"><ele>1410.8</ele><time>2026-04-14T13:15:19Z</time></trkpt><trkpt lat="38.0845442634753" lon="15.859802147186214"><ele>1413.2</ele><time>2026-04-14T13:15:20Z</time></trkpt><trkpt lat="38.08460019993726" lon="15.85972948135927"><ele>1415.6000000000001</ele><time>2026-04-14T13:15:21Z</time></trkpt><trkpt lat="38.084706900949136" lon="15.859751730588773"><ele>1418.0</ele><time>2026-04-14T13:15:23Z</time></trkpt><trkpt lat="38.08476837771624" lon="15.859884962438574"><ele>1418.0</ele><time>2026-04-14T13:15:25Z</time></trkpt><trkpt lat="38.084814730218554" lon="15.859983871430625"><ele>1418.0</ele><time>2026-04-14T13:15:26Z</time></trkpt><trkpt lat="38.08487751471713" lon="15.860077234984455"><ele>1418.0</ele><time>2026-04-14T13:15:27Z</time></trkpt><trkpt lat="38.0849622030258" lon="15.860152716755023"><ele>1418.0</ele><time>2026-04-14T13:15:28Z</time></trkpt><trkpt lat="38.085056481639384" lon="15.860227152537975"><ele>1418.0</ele><time>2026-04-14T13:15:29Z</time></trkpt><trkpt lat="38.08515157453855" lon="15.860317234696911"><ele>1417.6000000000001</ele><time>2026-04-14T13:15:30Z</time></trkpt><trkpt lat="38.08523223345527" lon="15.8604227749558"><ele>1417.2</ele><time>2026-04-14T13:15:31Z</time></trkpt><trkpt lat="38.08529863623352" lon="15.860509872479549"><ele>1416.8</ele><time>2026-04-14T13:15:32Z</time></trkpt><trkpt lat="38.08535910962417" lon="15.860600821443635"><ele>1416.4</ele><time>2026-04-14T13:15:33.001Z</time></trkpt><trkpt lat="38.08540759074533" lon="15.860704024362391"><ele>1416.0</ele><time>2026-04-14T13:15:34.001Z</time></trkpt><trkpt lat="38.08544926548498" lon="15.86083040437588"><ele>1414.75</ele><time>2026-04-14T13:15:35.001Z</time></trkpt><trkpt lat="38.085486458623414" lon="15.860967699838069"><ele>1413.5</ele><time>2026-04-14T13:15:36.001Z</time></trkpt><trkpt lat="38.085512493858396" lon="15.861122954036071"><ele>1412.25</ele><time>2026-04-14T13:15:37.001Z</time></trkpt><trkpt lat="38.0855261897477" lon="15.86127507424213"><ele>1411.0</ele><time>2026-04-14T13:15:38.001Z</time></trkpt><trkpt lat="38.08553876793619" lon="15.861434171839512"><ele>1411.0</ele><time>2026-04-14T13:15:39.001Z</time></trkpt><trkpt lat="38.085555905583085" lon="15.861576765847689"><ele>1411.0</ele><time>2026-04-14T13:15:40.001Z</time></trkpt><trkpt lat="38.085594871402" lon="15.861702147015684"><ele>1411.0</ele><time>2026-04-14T13:15:41.001Z</time></trkpt><trkpt lat="38.085659572953965" lon="15.861822995551133"><ele>1411.0</ele><time>2026-04-14T13:15:42.001Z</time></trkpt><trkpt lat="38.085745276668774" lon="15.861942037107742"><ele>1411.25</ele><time>2026-04-14T13:15:43.001Z</time></trkpt><trkpt lat="38.085826863104074" lon="15.86207814090858"><ele>1411.5</ele><time>2026-04-14T13:15:44.001Z</time></trkpt><trkpt lat="38.085918806631945" lon="15.862199618759883"><ele>1411.75</ele><time>2026-04-14T13:15:45.001Z</time></trkpt><trkpt lat="38.08602108749867" lon="15.862317435706874"><ele>1412.0</ele><time>2026-04-14T13:15:46.001Z</time></trkpt><trkpt lat="38.08612805232799" lon="15.862423899572434"><ele>1412.0</ele><time>2026-04-14T13:15:47.001Z</time></trkpt><trkpt lat="38.08623944759793" lon="15.862513192096918"><ele>1412.0</ele><time>2026-04-14T13:15:48.001Z</time></trkpt><trkpt lat="38.08636111050391" lon="15.862592984950561"><ele>1412.0</ele><time>2026-04-14T13:15:49.001Z</time></trkpt><trkpt lat="38.0864895299826" lon="15.862661066393692"><ele>1412.0</ele><time>2026-04-14T13:15:50Z</time></trkpt><trkpt lat="38.08661567952458" lon="15.862725974555238"><ele>1411.25</ele><time>2026-04-14T13:15:51Z</time></trkpt><trkpt lat="38.08673253011463" lon="15.862791856403856"><ele>1410.5</ele><time>2026-04-14T13:15:52Z</time></trkpt><trkpt lat="38.08684643596417" lon="15.862856216235068"><ele>1409.75</ele><time>2026-04-14T13:15:53Z</time></trkpt><trkpt lat="38.0869589709917" lon="15.86291519516003"><ele>1409.0</ele><time>2026-04-14T13:15:54Z</time></trkpt><trkpt lat="38.08706183958437" lon="15.862976434775476"><ele>1409.0</ele><time>2026-04-14T13:15:55Z</time></trkpt><trkpt lat="38.087156086922306" lon="15.863045254151462"><ele>1409.0</ele><time>2026-04-14T13:15:56Z</time></trkpt><trkpt lat="38.08725717371487" lon="15.863129174474794"><ele>1409.0</ele><time>2026-04-14T13:15:57Z</time></trkpt><trkpt lat="38.0873591217061" lon="15.863224601771408"><ele>1409.0</ele><time>2026-04-14T13:15:58Z</time></trkpt><trkpt lat="38.08745769717419" lon="15.863331464673434"><ele>1406.75</ele><time>2026-04-14T13:15:59Z</time></trkpt><trkpt lat="38.08755533562813" lon="15.86345269264598"><ele>1404.5</ele><time>2026-04-14T13:16:00Z</time></trkpt><trkpt lat="38.08764515356621" lon="15.86358595680928"><ele>1402.25</ele><time>2026-04-14T13:16:01Z</time></trkpt><trkpt lat="38.08772119609537" lon="15.863723859698215"><ele>1400.0</ele><time>2026-04-14T13:16:02Z</time></trkpt><trkpt lat="38.08778482835779" lon="15.863867215028375"><ele>1400.0</ele><time>2026-04-14T13:16:03Z</time></trkpt><trkpt lat="38.0878426795485" lon="15.864005678688368"><ele>1400.0</ele><time>2026-04-14T13:16:04Z</time></trkpt><trkpt lat="38.0878853875748" lon="15.864129959597786"><ele>1400.0</ele><time>2026-04-14T13:16:05Z</time></trkpt><trkpt lat="38.087913547481676" lon="15.86424217640223"><ele>1400.0</ele><time>2026-04-14T13:16:06Z</time></trkpt><trkpt lat="38.08790881697131" lon="15.864352276471338"><ele>1400.0</ele><time>2026-04-14T13:16:07Z</time></trkpt><trkpt lat="38.08787940853735" lon="15.864462953729452"><ele>1398.25</ele><time>2026-04-14T13:16:08Z</time></trkpt><trkpt lat="38.08782901278759" lon="15.864594085240546"><ele>1396.5</ele><time>2026-04-14T13:16:09Z</time></trkpt><trkpt lat="38.08776574046907" lon="15.864740421096746"><ele>1394.75</ele><time>2026-04-14T13:16:10Z</time></trkpt><trkpt lat="38.08772478106204" lon="15.864893670111494"><ele>1393.0</ele><time>2026-04-14T13:16:11Z</time></trkpt><trkpt lat="38.08769930077552" lon="15.865054538706474"><ele>1392.0</ele><time>2026-04-14T13:16:12Z</time></trkpt><trkpt lat="38.08767560753991" lon="15.865215630946723"><ele>1391.0</ele><time>2026-04-14T13:16:13Z</time></trkpt><trkpt lat="38.08766294014632" lon="15.865357552229636"><ele>1390.0</ele><time>2026-04-14T13:16:14Z</time></trkpt><trkpt lat="38.08765878193575" lon="15.86548811161244"><ele>1389.0</ele><time>2026-04-14T13:16:15Z</time></trkpt><trkpt lat="38.087679323236365" lon="15.865611104813159"><ele>1388.0</ele><time>2026-04-14T13:16:16Z</time></trkpt><trkpt lat="38.08772829886602" lon="15.865746051617064"><ele>1388.0</ele><time>2026-04-14T13:16:17Z</time></trkpt><trkpt lat="38.08778703264934" lon="15.86589452298451"><ele>1388.0</ele><time>2026-04-14T13:16:18Z</time></trkpt><trkpt lat="38.08784203085194" lon="15.866031875444794"><ele>1388.0</ele><time>2026-04-14T13:16:19Z</time></trkpt><trkpt lat="38.087885320941716" lon="15.866139682246525"><ele>1388.0</ele><time>2026-04-14T13:16:20Z</time></trkpt><trkpt lat="38.08790349526774" lon="15.866231131035688"><ele>1388.0</ele><time>2026-04-14T13:16:21Z</time></trkpt><trkpt lat="38.08790440312288" lon="15.866342993693438"><ele>1388.0</ele><time>2026-04-14T13:16:22Z</time></trkpt><trkpt lat="38.08788875693974" lon="15.866471303372633"><ele>1388.0</ele><time>2026-04-14T13:16:23Z</time></trkpt><trkpt lat="38.08787345781603" lon="15.866592884462367"><ele>1388.0</ele><time>2026-04-14T13:16:24Z</time></trkpt><trkpt lat="38.08788167399949" lon="15.866700732210223"><ele>1388.0</ele><time>2026-04-14T13:16:25Z</time></trkpt><trkpt lat="38.08791922695719" lon="15.866780820512536"><ele>1388.0</ele><time>2026-04-14T13:16:26Z</time></trkpt><trkpt lat="38.08798369005256" lon="15.866827533483795"><ele>1388.0</ele><time>2026-04-14T13:16:27Z</time></trkpt><trkpt lat="38.08807705812204" lon="15.866876475491955"><ele>1388.0</ele><time>2026-04-14T13:16:28Z</time></trkpt><trkpt lat="38.088184196402274" lon="15.866954090649001"><ele>1388.0</ele><time>2026-04-14T13:16:29Z</time></trkpt><trkpt lat="38.08829572692211" lon="15.867019746505427"><ele>1388.0</ele><time>2026-04-14T13:16:30Z</time></trkpt><trkpt lat="38.08841321994154" lon="15.867060872868299"><ele>1388.0</ele><time>2026-04-14T13:16:31Z</time></trkpt><trkpt lat="38.08852439421366" lon="15.867076176177026"><ele>1388.0</ele><time>2026-04-14T13:16:32Z</time></trkpt><trkpt lat="38.08863151054631" lon="15.867090196487508"><ele>1388.0</ele><time>2026-04-14T13:16:33Z</time></trkpt><trkpt lat="38.088727634251114" lon="15.867089807234832"><ele>1388.0</ele><time>2026-04-14T13:16:34Z</time></trkpt><trkpt lat="38.08880403032548" lon="15.867156753036081"><ele>1388.0</ele><time>2026-04-14T13:16:35Z</time></trkpt><trkpt lat="38.08887065460474" lon="15.867205599379025"><ele>1388.0</ele><time>2026-04-14T13:16:36Z</time></trkpt><trkpt lat="38.088937486997814" lon="15.86725665816657"><ele>1388.0</ele><time>2026-04-14T13:16:37Z</time></trkpt><trkpt lat="38.08899030396637" lon="15.86730999951014"><ele>1388.0</ele><time>2026-04-14T13:16:38Z</time></trkpt><trkpt lat="38.08907424994952" lon="15.867381297887173"><ele>1388.0</ele><time>2026-04-14T13:16:40Z</time></trkpt><trkpt lat="38.08916534769618" lon="15.8674447506693"><ele>1388.0</ele><time>2026-04-14T13:16:42Z</time></trkpt><trkpt lat="38.08924193124094" lon="15.867511785789977"><ele>1388.0</ele><time>2026-04-14T13:16:44Z</time></trkpt><trkpt lat="38.08930666675148" lon="15.867569386525954"><ele>1388.0</ele><time>2026-04-14T13:16:46Z</time></trkpt><trkpt lat="38.08935963023667" lon="15.867615445718155"><ele>1387.8000000000002</ele><time>2026-04-14T13:16:48Z</time></trkpt><trkpt lat="38.08931290680484" lon="15.867548343940111"><ele>1387.6</ele><time>2026-04-14T13:17:15Z</time></trkpt><trkpt lat="38.089233447065155" lon="15.867522842057056"><ele>1387.4</ele><time>2026-04-14T13:17:16Z</time></trkpt><trkpt lat="38.089167618949055" lon="15.867453865867544"><ele>1387.1999999999998</ele><time>2026-04-14T13:17:19Z</time></trkpt><trkpt lat="38.08910990370269" lon="15.867391649911685"><ele>1387.0</ele><time>2026-04-14T13:17:48.001Z</time></trkpt><trkpt lat="38.08923171634009" lon="15.867501032213951"><ele>1387.0</ele><time>2026-04-14T13:18:04Z</time></trkpt><trkpt lat="38.08934492225551" lon="15.867592791577422"><ele>1387.0</ele><time>2026-04-14T13:18:05Z</time></trkpt><trkpt lat="38.08944681071538" lon="15.867664043767032"><ele>1387.0</ele><time>2026-04-14T13:18:06Z</time></trkpt><trkpt lat="38.089546801625204" lon="15.867737689505361"><ele>1387.0</ele><time>2026-04-14T13:18:07Z</time></trkpt><trkpt lat="38.08962373946556" lon="15.867805989838967"><ele>1386.1666666666665</ele><time>2026-04-14T13:18:08Z</time></trkpt><trkpt lat="38.08969442688263" lon="15.867843555695297"><ele>1385.3333333333333</ele><time>2026-04-14T13:18:09Z</time></trkpt><trkpt lat="38.08976332001929" lon="15.867874670321497"><ele>1384.5</ele><time>2026-04-14T13:18:10Z</time></trkpt><trkpt lat="38.08984505010511" lon="15.867875854318166"><ele>1383.6666666666667</ele><time>2026-04-14T13:18:11Z</time></trkpt><trkpt lat="38.08993352894848" lon="15.867890283315829"><ele>1382.8333333333335</ele><time>2026-04-14T13:18:12Z</time></trkpt><trkpt lat="38.090018003193194" lon="15.867903365077296"><ele>1382.0</ele><time>2026-04-14T13:18:13Z</time></trkpt><trkpt lat="38.090090614193386" lon="15.867909931297218"><ele>1384.1999999999998</ele><time>2026-04-14T13:18:14Z</time></trkpt><trkpt lat="38.090161655649275" lon="15.867919730718674"><ele>1386.4</ele><time>2026-04-14T13:18:15Z</time></trkpt><trkpt lat="38.09025449750414" lon="15.867946249357411"><ele>1388.6</ele><time>2026-04-14T13:18:16Z</time></trkpt><trkpt lat="38.09034170275929" lon="15.86796423861466"><ele>1390.8000000000002</ele><time>2026-04-14T13:18:17Z</time></trkpt><trkpt lat="38.09043936693633" lon="15.867968781920736"><ele>1393.0</ele><time>2026-04-14T13:18:18Z</time></trkpt><trkpt lat="38.090543172679546" lon="15.867956441494645"><ele>1393.0</ele><time>2026-04-14T13:18:19Z</time></trkpt><trkpt lat="38.09061473655965" lon="15.867939906163697"><ele>1393.0</ele><time>2026-04-14T13:18:20Z</time></trkpt><trkpt lat="38.090739247645374" lon="15.867934795083288"><ele>1393.0</ele><time>2026-04-14T13:18:22Z</time></trkpt><trkpt lat="38.09080758752413" lon="15.86791553530785"><ele>1393.0</ele><time>2026-04-14T13:18:23Z</time></trkpt><trkpt lat="38.090875351178" lon="15.86786390244167"><ele>1393.0</ele><time>2026-04-14T13:18:24Z</time></trkpt><trkpt lat="38.09090922745362" lon="15.867790874464886"><ele>1393.0</ele><time>2026-04-14T13:18:25Z</time></trkpt><trkpt lat="38.090937424155165" lon="15.867707994431088"><ele>1394.8000000000002</ele><time>2026-04-14T13:18:26Z</time></trkpt><trkpt lat="38.09095319516738" lon="15.867626666421684"><ele>1396.6</ele><time>2026-04-14T13:18:27Z</time></trkpt><trkpt lat="38.09096859228772" lon="15.867526783654581"><ele>1398.4</ele><time>2026-04-14T13:18:28Z</time></trkpt><trkpt lat="38.09100269428086" lon="15.867375846310756"><ele>1400.1999999999998</ele><time>2026-04-14T13:18:30Z</time></trkpt><trkpt lat="38.09105200145349" lon="15.86728684691239"><ele>1402.0</ele><time>2026-04-14T13:18:31Z</time></trkpt><trkpt lat="38.09111845865569" lon="15.867196542806"><ele>1402.0</ele><time>2026-04-14T13:18:32Z</time></trkpt><trkpt lat="38.09118811850049" lon="15.867097420305889"><ele>1402.0</ele><time>2026-04-14T13:18:33Z</time></trkpt><trkpt lat="38.091243105158476" lon="15.867019169799015"><ele>1402.0</ele><time>2026-04-14T13:18:34Z</time></trkpt><trkpt lat="38.09130122231613" lon="15.866933303766107"><ele>1402.0</ele><time>2026-04-14T13:18:35Z</time></trkpt><trkpt lat="38.0913661748576" lon="15.866864979018002"><ele>1402.0</ele><time>2026-04-14T13:18:36Z</time></trkpt><trkpt lat="38.09144266560077" lon="15.866830779953203"><ele>1402.0</ele><time>2026-04-14T13:18:37Z</time></trkpt><trkpt lat="38.09156491440519" lon="15.866837984738657"><ele>1404.6</ele><time>2026-04-14T13:18:39Z</time></trkpt><trkpt lat="38.09166961680667" lon="15.86685888316669"><ele>1407.1999999999998</ele><time>2026-04-14T13:18:41Z</time></trkpt><trkpt lat="38.09173362584607" lon="15.86681968973728"><ele>1409.8</ele><time>2026-04-14T13:18:43Z</time></trkpt><trkpt lat="38.091774676314635" lon="15.866750433615053"><ele>1412.4</ele><time>2026-04-14T13:18:45Z</time></trkpt><trkpt lat="38.091763631842454" lon="15.866568124093922"><ele>1415.0</ele><time>2026-04-14T13:18:47Z</time></trkpt><trkpt lat="38.09175934530774" lon="15.866467393932354"><ele>1415.0</ele><time>2026-04-14T13:18:48Z</time></trkpt><trkpt lat="38.09178040020704" lon="15.866349601125178"><ele>1415.0</ele><time>2026-04-14T13:18:50Z</time></trkpt><trkpt lat="38.09187412782995" lon="15.866230739966802"><ele>1415.0</ele><time>2026-04-14T13:18:52Z</time></trkpt><trkpt lat="38.09192936920945" lon="15.866149922211127"><ele>1415.0</ele><time>2026-04-14T13:18:53Z</time></trkpt><trkpt lat="38.091943682907484" lon="15.866015564881366"><ele>1415.0</ele><time>2026-04-14T13:18:55Z</time></trkpt><trkpt lat="38.09186664038896" lon="15.865904660016708"><ele>1414.1666666666667</ele><time>2026-04-14T13:18:57Z</time></trkpt><trkpt lat="38.09180804978388" lon="15.865841632884761"><ele>1413.3333333333335</ele><time>2026-04-14T13:18:58Z</time></trkpt><trkpt lat="38.091746407965125" lon="15.86574890454508"><ele>1412.5</ele><time>2026-04-14T13:18:59Z</time></trkpt><trkpt lat="38.09170116501325" lon="15.865671080713813"><ele>1411.6666666666667</ele><time>2026-04-14T13:19:00Z</time></trkpt><trkpt lat="38.09167041002427" lon="15.865593807254287"><ele>1410.8333333333333</ele><time>2026-04-14T13:19:01Z</time></trkpt><trkpt lat="38.09165512687426" lon="15.865512123574957"><ele>1410.0</ele><time>2026-04-14T13:19:02Z</time></trkpt><trkpt lat="38.091645450335726" lon="15.865411624748694"><ele>1410.0</ele><time>2026-04-14T13:19:03Z</time></trkpt><trkpt lat="38.09164446397957" lon="15.865280289949913"><ele>1410.0</ele><time>2026-04-14T13:19:04Z</time></trkpt><trkpt lat="38.091654616126945" lon="15.865154678152354"><ele>1410.0</ele><time>2026-04-14T13:19:05Z</time></trkpt><trkpt lat="38.09166338017769" lon="15.865043519926756"><ele>1410.0</ele><time>2026-04-14T13:19:06Z</time></trkpt><trkpt lat="38.09167421139464" lon="15.86495405006316"><ele>1410.0</ele><time>2026-04-14T13:19:07Z</time></trkpt><trkpt lat="38.0917550980633" lon="15.864839896858507"><ele>1408.8</ele><time>2026-04-14T13:19:09Z</time></trkpt><trkpt lat="38.09181093512313" lon="15.864791249434221"><ele>1407.6</ele><time>2026-04-14T13:19:10Z</time></trkpt><trkpt lat="38.09187823569989" lon="15.864760062961663"><ele>1406.4</ele><time>2026-04-14T13:19:11Z</time></trkpt><trkpt lat="38.09195011755873" lon="15.864722060494255"><ele>1405.2</ele><time>2026-04-14T13:19:12Z</time></trkpt><trkpt lat="38.092001591134384" lon="15.864611999828327"><ele>1404.0</ele><time>2026-04-14T13:19:14Z</time></trkpt><trkpt lat="38.09192486654964" lon="15.864464622618662"><ele>1404.0</ele><time>2026-04-14T13:19:16Z</time></trkpt><trkpt lat="38.09189786627795" lon="15.864388599718533"><ele>1404.0</ele><time>2026-04-14T13:19:17Z</time></trkpt><trkpt lat="38.09192034018643" lon="15.864255952653995"><ele>1404.0</ele><time>2026-04-14T13:19:19Z</time></trkpt><trkpt lat="38.0918783221899" lon="15.864130539191084"><ele>1404.0</ele><time>2026-04-14T13:19:20.999Z</time></trkpt><trkpt lat="38.09180490009788" lon="15.86403305366094"><ele>1404.0</ele><time>2026-04-14T13:19:22.999Z</time></trkpt><trkpt lat="38.0918346932842" lon="15.863869949943275"><ele>1401.6666666666667</ele><time>2026-04-14T13:19:24.999Z</time></trkpt><trkpt lat="38.0918871038503" lon="15.863784775871519"><ele>1399.3333333333333</ele><time>2026-04-14T13:19:25.999Z</time></trkpt><trkpt lat="38.0919387611739" lon="15.863694947824795"><ele>1397.0</ele><time>2026-04-14T13:19:26.999Z</time></trkpt><trkpt lat="38.09203401928703" lon="15.863610146300067"><ele>1394.6666666666665</ele><time>2026-04-14T13:19:28.999Z</time></trkpt><trkpt lat="38.09209909438525" lon="15.863593313531185"><ele>1392.3333333333333</ele><time>2026-04-14T13:19:29.999Z</time></trkpt><trkpt lat="38.09217696480323" lon="15.86357744839557"><ele>1390.0</ele><time>2026-04-14T13:19:30.999Z</time></trkpt><trkpt lat="38.09227885517369" lon="15.863558925357367"><ele>1390.0</ele><time>2026-04-14T13:19:31.999Z</time></trkpt><trkpt lat="38.09234992233002" lon="15.86353611557655"><ele>1390.0</ele><time>2026-04-14T13:19:32.999Z</time></trkpt><trkpt lat="38.092460777126924" lon="15.863561304930899"><ele>1390.0</ele><time>2026-04-14T13:19:34.999Z</time></trkpt><trkpt lat="38.0925282368962" lon="15.863599947010284"><ele>1390.0</ele><time>2026-04-14T13:19:35.999Z</time></trkpt><trkpt lat="38.09259591159766" lon="15.863627254111277"><ele>1390.0</ele><time>2026-04-14T13:19:36.999Z</time></trkpt><trkpt lat="38.092694480895545" lon="15.863619160057894"><ele>1390.0</ele><time>2026-04-14T13:19:38.999Z</time></trkpt><trkpt lat="38.092780709515694" lon="15.863512297485505"><ele>1389.6</ele><time>2026-04-14T13:19:40.999Z</time></trkpt><trkpt lat="38.09282488212214" lon="15.863431795727529"><ele>1389.2</ele><time>2026-04-14T13:19:41.999Z</time></trkpt><trkpt lat="38.09291747598123" lon="15.863369217585594"><ele>1388.8000000000002</ele><time>2026-04-14T13:19:43.999Z</time></trkpt><trkpt lat="38.093016349901646" lon="15.863361965115082"><ele>1388.4</ele><time>2026-04-14T13:19:46Z</time></trkpt><trkpt lat="38.09307941796066" lon="15.86337612742974"><ele>1388.0</ele><time>2026-04-14T13:19:47Z</time></trkpt><trkpt lat="38.0932047993199" lon="15.863492435000042"><ele>1392.6000000000001</ele><time>2026-04-14T13:19:49Z</time></trkpt><trkpt lat="38.093278286103626" lon="15.863551941954482"><ele>1397.2</ele><time>2026-04-14T13:19:50Z</time></trkpt><trkpt lat="38.09334265895538" lon="15.863598809762527"><ele>1401.8</ele><time>2026-04-14T13:19:51Z</time></trkpt><trkpt lat="38.093432695539356" lon="15.863720053258755"><ele>1406.4</ele><time>2026-04-14T13:19:53Z</time></trkpt><trkpt lat="38.093467030911" lon="15.863798326471748"><ele>1411.0</ele><time>2026-04-14T13:19:54Z</time></trkpt><trkpt lat="38.09352792823086" lon="15.86390011750695"><ele>1411.0</ele><time>2026-04-14T13:19:55Z</time></trkpt><trkpt lat="38.093587741285724" lon="15.863982137151313"><ele>1411.0</ele><time>2026-04-14T13:19:56Z</time></trkpt><trkpt lat="38.09366201160022" lon="15.8641058618721"><ele>1411.0</ele><time>2026-04-14T13:19:58Z</time></trkpt><trkpt lat="38.09372656656367" lon="15.864180978499986"><ele>1411.0</ele><time>2026-04-14T13:20:00Z</time></trkpt><trkpt lat="38.09380174537748" lon="15.864161534587446"><ele>1411.0</ele><time>2026-04-14T13:20:02Z</time></trkpt><trkpt lat="38.093837479579136" lon="15.864065080815363"><ele>1411.0</ele><time>2026-04-14T13:20:04Z</time></trkpt><trkpt lat="38.09378451544102" lon="15.863904160939855"><ele>1411.0</ele><time>2026-04-14T13:20:06Z</time></trkpt><trkpt lat="38.09374864880772" lon="15.863811779260908"><ele>1411.0</ele><time>2026-04-14T13:20:08Z</time></trkpt><trkpt lat="38.093753954913325" lon="15.863711032649208"><ele>1411.0</ele><time>2026-04-14T13:20:09Z</time></trkpt><trkpt lat="38.09378949031977" lon="15.863620796774601"><ele>1411.0</ele><time>2026-04-14T13:20:10Z</time></trkpt><trkpt lat="38.09383841382005" lon="15.863560761004631"><ele>1411.0</ele><time>2026-04-14T13:20:11Z</time></trkpt><trkpt lat="38.09390290636327" lon="15.863510073372275"><ele>1407.0</ele><time>2026-04-14T13:20:12Z</time></trkpt><trkpt lat="38.09396427620126" lon="15.863387256782119"><ele>1403.0</ele><time>2026-04-14T13:20:14Z</time></trkpt><trkpt lat="38.09392770974595" lon="15.863286220640651"><ele>1399.0</ele><time>2026-04-14T13:20:16Z</time></trkpt><trkpt lat="38.09386846644467" lon="15.86325072794194"><ele>1395.0</ele><time>2026-04-14T13:20:17Z</time></trkpt><trkpt lat="38.093804131403985" lon="15.863193930816022"><ele>1391.0</ele><time>2026-04-14T13:20:18Z</time></trkpt><trkpt lat="38.09373995222763" lon="15.863123838325102"><ele>1387.0</ele><time>2026-04-14T13:20:19Z</time></trkpt><trkpt lat="38.09369553373692" lon="15.863049850260817"><ele>1387.0</ele><time>2026-04-14T13:20:20Z</time></trkpt><trkpt lat="38.093684058459495" lon="15.862971174432463"><ele>1387.0</ele><time>2026-04-14T13:20:21Z</time></trkpt><trkpt lat="38.09372546003504" lon="15.86282193398594"><ele>1387.0</ele><time>2026-04-14T13:20:23Z</time></trkpt><trkpt lat="38.093777591339624" lon="15.862758375768491"><ele>1387.0</ele><time>2026-04-14T13:20:24Z</time></trkpt><trkpt lat="38.09385565004642" lon="15.862710323731019"><ele>1387.0</ele><time>2026-04-14T13:20:25Z</time></trkpt><trkpt lat="38.09392467879958" lon="15.86269803281335"><ele>1387.0</ele><time>2026-04-14T13:20:26Z</time></trkpt><trkpt lat="38.09399646705218" lon="15.862686477263317"><ele>1384.3333333333333</ele><time>2026-04-14T13:20:27Z</time></trkpt><trkpt lat="38.09400530445675" lon="15.862577847009053"><ele>1381.6666666666665</ele><time>2026-04-14T13:20:29Z</time></trkpt><trkpt lat="38.094003978974605" lon="15.862484158734443"><ele>1379.0</ele><time>2026-04-14T13:20:30Z</time></trkpt><trkpt lat="38.094010895692065" lon="15.86239982486715"><ele>1376.3333333333333</ele><time>2026-04-14T13:20:31Z</time></trkpt><trkpt lat="38.09401674335582" lon="15.862280652249806"><ele>1373.6666666666667</ele><time>2026-04-14T13:20:33Z</time></trkpt><trkpt lat="38.09395788976725" lon="15.862209823986957"><ele>1371.0</ele><time>2026-04-14T13:20:35Z</time></trkpt><trkpt lat="38.09384095475884" lon="15.862170463049674"><ele>1371.0</ele><time>2026-04-14T13:20:37Z</time></trkpt><trkpt lat="38.093752735064854" lon="15.862149864879719"><ele>1371.0</ele><time>2026-04-14T13:20:38Z</time></trkpt><trkpt lat="38.09368971904188" lon="15.862126968346821"><ele>1371.0</ele><time>2026-04-14T13:20:39Z</time></trkpt><trkpt lat="38.093587726706865" lon="15.86202103718446"><ele>1371.0</ele><time>2026-04-14T13:20:41Z</time></trkpt><trkpt lat="38.093554384535636" lon="15.86193854639387"><ele>1371.0</ele><time>2026-04-14T13:20:42Z</time></trkpt><trkpt lat="38.09355903910501" lon="15.861778294652884"><ele>1370.8</ele><time>2026-04-14T13:20:44Z</time></trkpt><trkpt lat="38.09358673425903" lon="15.861667851187432"><ele>1370.6</ele><time>2026-04-14T13:20:45Z</time></trkpt><trkpt lat="38.0936225373489" lon="15.861534431157326"><ele>1370.4</ele><time>2026-04-14T13:20:46Z</time></trkpt><trkpt lat="38.093647103655044" lon="15.861412260543789"><ele>1370.2</ele><time>2026-04-14T13:20:47Z</time></trkpt><trkpt lat="38.09364561870789" lon="15.86130212655202"><ele>1370.0</ele><time>2026-04-14T13:20:48Z</time></trkpt><trkpt lat="38.09364214585795" lon="15.861200295233028"><ele>1370.0</ele><time>2026-04-14T13:20:49Z</time></trkpt><trkpt lat="38.09364573153922" lon="15.861107560921853"><ele>1370.0</ele><time>2026-04-14T13:20:50Z</time></trkpt><trkpt lat="38.093644351957" lon="15.861020123169292"><ele>1370.0</ele><time>2026-04-14T13:20:51Z</time></trkpt><trkpt lat="38.09364561836739" lon="15.860900817720045"><ele>1370.0</ele><time>2026-04-14T13:20:53Z</time></trkpt><trkpt lat="38.09360077429301" lon="15.86081869932316"><ele>1370.0</ele><time>2026-04-14T13:20:55Z</time></trkpt><trkpt lat="38.093493916285304" lon="15.860781449452984"><ele>1370.0</ele><time>2026-04-14T13:20:57Z</time></trkpt><trkpt lat="38.093429588929155" lon="15.860759993011099"><ele>1370.0</ele><time>2026-04-14T13:20:58Z</time></trkpt><trkpt lat="38.09334488727714" lon="15.860722531558952"><ele>1370.0</ele><time>2026-04-14T13:20:59.999Z</time></trkpt></trkseg><trkseg><trkpt lat="38.09327140842562" lon="15.860588165040896"><ele>1366.1666666666667</ele><time>2026-04-14T13:41:17Z</time></trkpt><trkpt lat="38.093231659207376" lon="15.86051471613927"><ele>1362.3333333333335</ele><time>2026-04-14T13:41:20Z</time></trkpt><trkpt lat="38.09318330408797" lon="15.860441797657046"><ele>1358.5</ele><time>2026-04-14T13:41:25Z</time></trkpt><trkpt lat="38.09313195499202" lon="15.860372181707163"><ele>1354.6666666666667</ele><time>2026-04-14T13:41:50.999Z</time></trkpt><trkpt lat="38.09309937501827" lon="15.860279864592785"><ele>1350.8333333333333</ele><time>2026-04-14T13:41:52.999Z</time></trkpt><trkpt lat="38.093046593340354" lon="15.860226797985403"><ele>1347.0</ele><time>2026-04-14T13:41:54.999Z</time></trkpt><trkpt lat="38.09297030849382" lon="15.86015982057408"><ele>1348.1999999999998</ele><time>2026-04-14T13:41:56.999Z</time></trkpt><trkpt lat="38.092920129747014" lon="15.860070612328542"><ele>1349.4</ele><time>2026-04-14T13:41:58.999Z</time></trkpt><trkpt lat="38.0929038572087" lon="15.85994046526187"><ele>1350.6</ele><time>2026-04-14T13:42:01.999Z</time></trkpt><trkpt lat="38.092896526315876" lon="15.859844755190878"><ele>1351.8000000000002</ele><time>2026-04-14T13:42:02.999Z</time></trkpt><trkpt lat="38.09291093683727" lon="15.859686602804404"><ele>1353.0</ele><time>2026-04-14T13:42:04.999Z</time></trkpt><trkpt lat="38.09296533482886" lon="15.859564348795722"><ele>1353.0</ele><time>2026-04-14T13:42:06.999Z</time></trkpt><trkpt lat="38.09300221065465" lon="15.859497563506626"><ele>1353.0</ele><time>2026-04-14T13:42:07.999Z</time></trkpt><trkpt lat="38.09305376287185" lon="15.85939737537424"><ele>1353.0</ele><time>2026-04-14T13:42:09.999Z</time></trkpt><trkpt lat="38.09301478142568" lon="15.85926527658148"><ele>1353.0</ele><time>2026-04-14T13:42:11.999Z</time></trkpt><trkpt lat="38.0930067725563" lon="15.85918343219898"><ele>1353.0</ele><time>2026-04-14T13:42:12.999Z</time></trkpt><trkpt lat="38.093012188744815" lon="15.859095343291015"><ele>1353.0</ele><time>2026-04-14T13:42:13.999Z</time></trkpt><trkpt lat="38.09302367949437" lon="15.858993392921063"><ele>1352.6666666666667</ele><time>2026-04-14T13:42:14.999Z</time></trkpt><trkpt lat="38.09304751777166" lon="15.858913674646342"><ele>1352.3333333333333</ele><time>2026-04-14T13:42:15.999Z</time></trkpt><trkpt lat="38.09308811116399" lon="15.858822978884469"><ele>1352.0</ele><time>2026-04-14T13:42:16.999Z</time></trkpt><trkpt lat="38.093144153202665" lon="15.858723500325885"><ele>1351.6666666666665</ele><time>2026-04-14T13:42:17.999Z</time></trkpt><trkpt lat="38.09318516784105" lon="15.85864341451775"><ele>1351.3333333333333</ele><time>2026-04-14T13:42:18.999Z</time></trkpt><trkpt lat="38.09322066646035" lon="15.858556902923924"><ele>1351.0</ele><time>2026-04-14T13:42:19.999Z</time></trkpt><trkpt lat="38.09328400049881" lon="15.858415458358804"><ele>1351.0</ele><time>2026-04-14T13:42:21.999Z</time></trkpt><trkpt lat="38.09331799194467" lon="15.858329069489304"><ele>1351.0</ele><time>2026-04-14T13:42:22.999Z</time></trkpt><trkpt lat="38.09340791283474" lon="15.858224507915413"><ele>1351.0</ele><time>2026-04-14T13:42:24.999Z</time></trkpt><trkpt lat="38.0934968998093" lon="15.85810455523423"><ele>1351.0</ele><time>2026-04-14T13:42:26.999Z</time></trkpt><trkpt lat="38.093576546245195" lon="15.857988397232752"><ele>1351.0</ele><time>2026-04-14T13:42:28.999Z</time></trkpt><trkpt lat="38.09365453608733" lon="15.857919510763644"><ele>1351.0</ele><time>2026-04-14T13:42:30.999Z</time></trkpt><trkpt lat="38.093738708894904" lon="15.857865823885305"><ele>1351.0</ele><time>2026-04-14T13:42:32.999Z</time></trkpt><trkpt lat="38.093801777272496" lon="15.857809091053978"><ele>1351.0</ele><time>2026-04-14T13:42:34.999Z</time></trkpt><trkpt lat="38.093866872369084" lon="15.857677660195124"><ele>1351.0</ele><time>2026-04-14T13:42:36.999Z</time></trkpt><trkpt lat="38.0938643325427" lon="15.857590325371582"><ele>1351.0</ele><time>2026-04-14T13:42:37.999Z</time></trkpt><trkpt lat="38.093833987743494" lon="15.857499600241413"><ele>1351.0</ele><time>2026-04-14T13:42:38.999Z</time></trkpt><trkpt lat="38.0938074009721" lon="15.857396092669251"><ele>1346.8</ele><time>2026-04-14T13:42:40.999Z</time></trkpt><trkpt lat="38.093771440345954" lon="15.857283740282837"><ele>1342.6</ele><time>2026-04-14T13:42:42.999Z</time></trkpt><trkpt lat="38.0936971444175" lon="15.857137438247438"><ele>1338.4</ele><time>2026-04-14T13:42:44.999Z</time></trkpt><trkpt lat="38.09365005335639" lon="15.857083536015788"><ele>1334.2</ele><time>2026-04-14T13:42:45.999Z</time></trkpt><trkpt lat="38.093602052704114" lon="15.856974588720519"><ele>1330.0</ele><time>2026-04-14T13:42:47.999Z</time></trkpt><trkpt lat="38.093617181834276" lon="15.856894737356168"><ele>1330.0</ele><time>2026-04-14T13:42:49Z</time></trkpt><trkpt lat="38.09364000526237" lon="15.856819082420504"><ele>1330.0</ele><time>2026-04-14T13:42:50Z</time></trkpt><trkpt lat="38.093721568880206" lon="15.856690554270855"><ele>1330.0</ele><time>2026-04-14T13:42:52Z</time></trkpt><trkpt lat="38.09377615460213" lon="15.856619233230258"><ele>1330.0</ele><time>2026-04-14T13:42:53Z</time></trkpt><trkpt lat="38.09383889354135" lon="15.856505028369492"><ele>1330.0</ele><time>2026-04-14T13:42:55Z</time></trkpt><trkpt lat="38.093878671468424" lon="15.856428734968388"><ele>1332.6666666666665</ele><time>2026-04-14T13:42:56Z</time></trkpt><trkpt lat="38.09392872710347" lon="15.85637614736276"><ele>1335.3333333333333</ele><time>2026-04-14T13:42:57Z</time></trkpt><trkpt lat="38.09402689802251" lon="15.856262156554099"><ele>1338.0</ele><time>2026-04-14T13:42:59Z</time></trkpt><trkpt lat="38.09406887964322" lon="15.856197629081194"><ele>1340.6666666666667</ele><time>2026-04-14T13:43:00Z</time></trkpt><trkpt lat="38.09411299229246" lon="15.856122671431276"><ele>1343.3333333333335</ele><time>2026-04-14T13:43:01Z</time></trkpt><trkpt lat="38.09415425294306" lon="15.856035737739088"><ele>1346.0</ele><time>2026-04-14T13:43:02Z</time></trkpt><trkpt lat="38.09420271716601" lon="15.855962511457639"><ele>1340.8</ele><time>2026-04-14T13:43:03Z</time></trkpt><trkpt lat="38.0942384260013" lon="15.855890238568175"><ele>1335.6</ele><time>2026-04-14T13:43:04Z</time></trkpt><trkpt lat="38.094311455808146" lon="15.855757263428277"><ele>1330.4</ele><time>2026-04-14T13:43:06Z</time></trkpt><trkpt lat="38.094354255445815" lon="15.855695735921566"><ele>1325.2</ele><time>2026-04-14T13:43:07Z</time></trkpt><trkpt lat="38.09441969340884" lon="15.855588882097178"><ele>1320.0</ele><time>2026-04-14T13:43:09Z</time></trkpt><trkpt lat="38.09448611508339" lon="15.85548850395689"><ele>1320.0</ele><time>2026-04-14T13:43:11Z</time></trkpt><trkpt lat="38.09454984372835" lon="15.85541427208797"><ele>1320.0</ele><time>2026-04-14T13:43:13Z</time></trkpt><trkpt lat="38.094566102550786" lon="15.855264265436919"><ele>1320.0</ele><time>2026-04-14T13:43:15Z</time></trkpt><trkpt lat="38.094575671415896" lon="15.855125017978636"><ele>1320.0</ele><time>2026-04-14T13:43:17Z</time></trkpt><trkpt lat="38.09459472203853" lon="15.855029888069275"><ele>1320.0</ele><time>2026-04-14T13:43:19Z</time></trkpt><trkpt lat="38.09462935045198" lon="15.854941440153285"><ele>1315.4</ele><time>2026-04-14T13:43:21Z</time></trkpt><trkpt lat="38.094691869742185" lon="15.854826441238387"><ele>1310.8</ele><time>2026-04-14T13:43:23Z</time></trkpt><trkpt lat="38.094743582534996" lon="15.854765983229171"><ele>1306.1999999999998</ele><time>2026-04-14T13:43:25Z</time></trkpt><trkpt lat="38.094809763502894" lon="15.854712213618603"><ele>1301.6</ele><time>2026-04-14T13:43:27Z</time></trkpt><trkpt lat="38.094852780929074" lon="15.85460653244215"><ele>1297.0</ele><time>2026-04-14T13:43:29Z</time></trkpt><trkpt lat="38.094876128693336" lon="15.854475008900046"><ele>1297.0</ele><time>2026-04-14T13:43:31Z</time></trkpt><trkpt lat="38.09485430441399" lon="15.854370212570975"><ele>1297.0</ele><time>2026-04-14T13:43:33Z</time></trkpt><trkpt lat="38.094851861278826" lon="15.854251173701009"><ele>1297.0</ele><time>2026-04-14T13:43:35Z</time></trkpt><trkpt lat="38.09485461234347" lon="15.854147887473383"><ele>1297.0</ele><time>2026-04-14T13:43:36.999Z</time></trkpt><trkpt lat="38.09488677154668" lon="15.85405069268615"><ele>1297.0</ele><time>2026-04-14T13:43:38.999Z</time></trkpt><trkpt lat="38.09492821991821" lon="15.85398797365454"><ele>1297.0</ele><time>2026-04-14T13:43:40.999Z</time></trkpt><trkpt lat="38.0949966489871" lon="15.853910437039666"><ele>1297.6666666666665</ele><time>2026-04-14T13:43:43.999Z</time></trkpt><trkpt lat="38.09505725246839" lon="15.853881167350625"><ele>1298.3333333333333</ele><time>2026-04-14T13:43:45.999Z</time></trkpt><trkpt lat="38.09510970406857" lon="15.85383131253889"><ele>1299.0</ele><time>2026-04-14T13:43:47.999Z</time></trkpt><trkpt lat="38.09518108463506" lon="15.853765495784911"><ele>1299.6666666666667</ele><time>2026-04-14T13:43:49.999Z</time></trkpt><trkpt lat="38.09527412118206" lon="15.853732345864838"><ele>1300.3333333333335</ele><time>2026-04-14T13:43:51.999Z</time></trkpt><trkpt lat="38.09536706645664" lon="15.853745123981401"><ele>1301.0</ele><time>2026-04-14T13:43:53.999Z</time></trkpt><trkpt lat="38.095455995947646" lon="15.853815527696959"><ele>1301.0</ele><time>2026-04-14T13:43:55.999Z</time></trkpt><trkpt lat="38.095510590677" lon="15.853875954577237"><ele>1301.0</ele><time>2026-04-14T13:43:56.999Z</time></trkpt><trkpt lat="38.09558083640885" lon="15.853998951012757"><ele>1301.0</ele><time>2026-04-14T13:43:58.999Z</time></trkpt><trkpt lat="38.09562841301253" lon="15.854054794408949"><ele>1301.0</ele><time>2026-04-14T13:43:59.999Z</time></trkpt><trkpt lat="38.09576000432344" lon="15.854086223528759"><ele>1301.0</ele><time>2026-04-14T13:44:01.999Z</time></trkpt><trkpt lat="38.09583255704606" lon="15.854094790780552"><ele>1298.5</ele><time>2026-04-14T13:44:02.999Z</time></trkpt><trkpt lat="38.095922246991044" lon="15.854164480301222"><ele>1296.0</ele><time>2026-04-14T13:44:04.999Z</time></trkpt><trkpt lat="38.095942175968375" lon="15.854297162393998"><ele>1293.5</ele><time>2026-04-14T13:44:06.999Z</time></trkpt><trkpt lat="38.09588074061502" lon="15.854445054468172"><ele>1291.0</ele><time>2026-04-14T13:44:08.999Z</time></trkpt><trkpt lat="38.09588247012352" lon="15.854582009747341"><ele>1294.5</ele><time>2026-04-14T13:44:10.999Z</time></trkpt><trkpt lat="38.09592399857743" lon="15.854691456179692"><ele>1298.0</ele><time>2026-04-14T13:44:12.999Z</time></trkpt><trkpt lat="38.09597270835953" lon="15.854749278602233"><ele>1301.5</ele><time>2026-04-14T13:44:14.999Z</time></trkpt><trkpt lat="38.09602454160869" lon="15.854811667905398"><ele>1305.0</ele><time>2026-04-14T13:44:18.999Z</time></trkpt><trkpt lat="38.09610820441672" lon="15.854820240739175"><ele>1308.5</ele><time>2026-04-14T13:44:22.999Z</time></trkpt><trkpt lat="38.09614520123999" lon="15.854743768470184"><ele>1312.0</ele><time>2026-04-14T13:44:24.999Z</time></trkpt><trkpt lat="38.09613153558686" lon="15.854645354330875"><ele>1312.0</ele><time>2026-04-14T13:44:26.999Z</time></trkpt><trkpt lat="38.09618916826085" lon="15.854556819976242"><ele>1312.0</ele><time>2026-04-14T13:44:28.999Z</time></trkpt><trkpt lat="38.09628084713185" lon="15.85456175356026"><ele>1312.0</ele><time>2026-04-14T13:44:30.999Z</time></trkpt><trkpt lat="38.09636843935333" lon="15.85458351330666"><ele>1312.0</ele><time>2026-04-14T13:44:32.999Z</time></trkpt><trkpt lat="38.09644037881003" lon="15.85449829250917"><ele>1312.0</ele><time>2026-04-14T13:44:34.999Z</time></trkpt><trkpt lat="38.09645054783571" lon="15.854366146052238"><ele>1307.8</ele><time>2026-04-14T13:44:36.999Z</time></trkpt><trkpt lat="38.09644512281701" lon="15.85421314049381"><ele>1303.6</ele><time>2026-04-14T13:44:38.999Z</time></trkpt><trkpt lat="38.09638877545877" lon="15.854096703440554"><ele>1299.3999999999999</ele><time>2026-04-14T13:44:40.999Z</time></trkpt><trkpt lat="38.096349792610205" lon="15.853942998337027"><ele>1295.1999999999998</ele><time>2026-04-14T13:44:42.999Z</time></trkpt><trkpt lat="38.096324857895034" lon="15.853841158439984"><ele>1291.0</ele><time>2026-04-14T13:44:43.999Z</time></trkpt><trkpt lat="38.096310409304" lon="15.853697380394543"><ele>1291.0</ele><time>2026-04-14T13:44:45.999Z</time></trkpt><trkpt lat="38.09627571757463" lon="15.853554801421966"><ele>1291.0</ele><time>2026-04-14T13:44:47.999Z</time></trkpt><trkpt lat="38.09633234563287" lon="15.853455636344988"><ele>1291.0</ele><time>2026-04-14T13:44:49.999Z</time></trkpt><trkpt lat="38.09635509469798" lon="15.853298996821348"><ele>1291.0</ele><time>2026-04-14T13:44:51.999Z</time></trkpt><trkpt lat="38.096348237555254" lon="15.853219471496093"><ele>1291.0</ele><time>2026-04-14T13:44:52.999Z</time></trkpt><trkpt lat="38.09633655431793" lon="15.853127167563638"><ele>1290.8</ele><time>2026-04-14T13:44:54Z</time></trkpt><trkpt lat="38.0963270583704" lon="15.853022915715938"><ele>1290.6</ele><time>2026-04-14T13:44:55Z</time></trkpt><trkpt lat="38.096310811578604" lon="15.85288591827144"><ele>1290.4</ele><time>2026-04-14T13:44:56Z</time></trkpt><trkpt lat="38.09631264920661" lon="15.852763697528506"><ele>1290.2</ele><time>2026-04-14T13:44:57Z</time></trkpt><trkpt lat="38.09627492283026" lon="15.852628358054474"><ele>1290.0</ele><time>2026-04-14T13:44:59Z</time></trkpt><trkpt lat="38.096170206634696" lon="15.852537540622189"><ele>1290.0</ele><time>2026-04-14T13:45:01Z</time></trkpt><trkpt lat="38.09608731568635" lon="15.852507702315348"><ele>1290.0</ele><time>2026-04-14T13:45:02Z</time></trkpt><trkpt lat="38.09600497255576" lon="15.852474180947091"><ele>1290.0</ele><time>2026-04-14T13:45:03Z</time></trkpt><trkpt lat="38.095924726360444" lon="15.852453710837832"><ele>1290.0</ele><time>2026-04-14T13:45:04Z</time></trkpt><trkpt lat="38.09583674659074" lon="15.852431991824389"><ele>1290.0</ele><time>2026-04-14T13:45:05Z</time></trkpt><trkpt lat="38.09575847460753" lon="15.852376279344437"><ele>1290.0</ele><time>2026-04-14T13:45:06Z</time></trkpt><trkpt lat="38.09569273068145" lon="15.852307899510986"><ele>1290.0</ele><time>2026-04-14T13:45:07Z</time></trkpt><trkpt lat="38.095671130425856" lon="15.852203722100628"><ele>1290.0</ele><time>2026-04-14T13:45:09Z</time></trkpt><trkpt lat="38.09571096157554" lon="15.852097099848715"><ele>1290.0</ele><time>2026-04-14T13:45:11Z</time></trkpt><trkpt lat="38.09576064527511" lon="15.852038022856664"><ele>1290.0</ele><time>2026-04-14T13:45:12Z</time></trkpt><trkpt lat="38.095826629472214" lon="15.851995569114392"><ele>1290.0</ele><time>2026-04-14T13:45:13Z</time></trkpt><trkpt lat="38.095917996562356" lon="15.851943978769638"><ele>1290.0</ele><time>2026-04-14T13:45:14Z</time></trkpt><trkpt lat="38.09602375743793" lon="15.851881317447761"><ele>1290.0</ele><time>2026-04-14T13:45:15Z</time></trkpt><trkpt lat="38.09610185595604" lon="15.85184449192572"><ele>1290.0</ele><time>2026-04-14T13:45:16Z</time></trkpt><trkpt lat="38.09616586593464" lon="15.851790046894795"><ele>1290.0</ele><time>2026-04-14T13:45:17Z</time></trkpt><trkpt lat="38.09622115424802" lon="15.851717701374595"><ele>1290.0</ele><time>2026-04-14T13:45:18Z</time></trkpt><trkpt lat="38.09626963087329" lon="15.85164726973366"><ele>1290.0</ele><time>2026-04-14T13:45:19Z</time></trkpt><trkpt lat="38.09633035107631" lon="15.851616028113368"><ele>1290.0</ele><time>2026-04-14T13:45:20Z</time></trkpt><trkpt lat="38.09640595909492" lon="15.85161646790292"><ele>1289.8</ele><time>2026-04-14T13:45:21Z</time></trkpt><trkpt lat="38.09649490581308" lon="15.851625537759"><ele>1289.6</ele><time>2026-04-14T13:45:22Z</time></trkpt><trkpt lat="38.096595475463204" lon="15.851620517239832"><ele>1289.4</ele><time>2026-04-14T13:45:23Z</time></trkpt><trkpt lat="38.096685576405896" lon="15.851626029494675"><ele>1289.2</ele><time>2026-04-14T13:45:24Z</time></trkpt><trkpt lat="38.096775485668616" lon="15.851616819109562"><ele>1289.0</ele><time>2026-04-14T13:45:25Z</time></trkpt><trkpt lat="38.09686655852981" lon="15.851587148746981"><ele>1294.2</ele><time>2026-04-14T13:45:26Z</time></trkpt><trkpt lat="38.096948511355414" lon="15.851561034246775"><ele>1299.4</ele><time>2026-04-14T13:45:27Z</time></trkpt><trkpt lat="38.09701815253108" lon="15.851529276681298"><ele>1304.6</ele><time>2026-04-14T13:45:27.999Z</time></trkpt><trkpt lat="38.09712708184621" lon="15.851439498954061"><ele>1309.8</ele><time>2026-04-14T13:45:29.999Z</time></trkpt><trkpt lat="38.09721079694847" lon="15.851340808252221"><ele>1315.0</ele><time>2026-04-14T13:45:31.999Z</time></trkpt><trkpt lat="38.09725181402976" lon="15.851251899300278"><ele>1315.0</ele><time>2026-04-14T13:45:33.999Z</time></trkpt><trkpt lat="38.0971629637309" lon="15.85119788358718"><ele>1315.0</ele><time>2026-04-14T13:45:35.999Z</time></trkpt><trkpt lat="38.09708957714654" lon="15.851196619683847"><ele>1315.0</ele><time>2026-04-14T13:45:36.999Z</time></trkpt><trkpt lat="38.09701968420198" lon="15.851217856348457"><ele>1315.0</ele><time>2026-04-14T13:45:37.999Z</time></trkpt><trkpt lat="38.096930473271605" lon="15.851230536830663"><ele>1315.0</ele><time>2026-04-14T13:45:38.999Z</time></trkpt><trkpt lat="38.096846658176766" lon="15.851210167968016"><ele>1315.0</ele><time>2026-04-14T13:45:39.999Z</time></trkpt><trkpt lat="38.096778287379365" lon="15.851155951859166"><ele>1315.0</ele><time>2026-04-14T13:45:40.999Z</time></trkpt><trkpt lat="38.09674107306777" lon="15.851088503490331"><ele>1315.0</ele><time>2026-04-14T13:45:41.999Z</time></trkpt><trkpt lat="38.09670091572455" lon="15.851009617059365"><ele>1315.0</ele><time>2026-04-14T13:45:42.999Z</time></trkpt><trkpt lat="38.09665444928166" lon="15.850935137311811"><ele>1315.0</ele><time>2026-04-14T13:45:43.999Z</time></trkpt><trkpt lat="38.0966117170572" lon="15.850842905839173"><ele>1315.0</ele><time>2026-04-14T13:45:44.999Z</time></trkpt><trkpt lat="38.096560235206276" lon="15.850736307528503"><ele>1315.0</ele><time>2026-04-14T13:45:45.999Z</time></trkpt><trkpt lat="38.096500955390944" lon="15.850638089450467"><ele>1314.8</ele><time>2026-04-14T13:45:46.999Z</time></trkpt><trkpt lat="38.09645534117769" lon="15.850553516674129"><ele>1314.6</ele><time>2026-04-14T13:45:47.999Z</time></trkpt><trkpt lat="38.096477269609686" lon="15.850412437819319"><ele>1314.4</ele><time>2026-04-14T13:45:49.999Z</time></trkpt><trkpt lat="38.096539221478174" lon="15.85032709368101"><ele>1314.2</ele><time>2026-04-14T13:45:50.999Z</time></trkpt><trkpt lat="38.09659936779935" lon="15.850229294459922"><ele>1314.0</ele><time>2026-04-14T13:45:51.999Z</time></trkpt><trkpt lat="38.09662582690409" lon="15.850134923332119"><ele>1314.8000000000002</ele><time>2026-04-14T13:45:52.999Z</time></trkpt><trkpt lat="38.09660424666296" lon="15.849989551716796"><ele>1315.6000000000001</ele><time>2026-04-14T13:45:54.999Z</time></trkpt><trkpt lat="38.09650981522597" lon="15.849869928416746"><ele>1316.4</ele><time>2026-04-14T13:45:56.999Z</time></trkpt><trkpt lat="38.09646553820342" lon="15.849804806562577"><ele>1317.2</ele><time>2026-04-14T13:45:57.999Z</time></trkpt><trkpt lat="38.09644574900172" lon="15.849716776525504"><ele>1318.0</ele><time>2026-04-14T13:45:58.999Z</time></trkpt><trkpt lat="38.09645260324793" lon="15.849610989258391"><ele>1318.4</ele><time>2026-04-14T13:45:59.999Z</time></trkpt><trkpt lat="38.09647545389134" lon="15.849489202305325"><ele>1318.8000000000002</ele><time>2026-04-14T13:46:00.999Z</time></trkpt><trkpt lat="38.09651202182813" lon="15.849362950480554"><ele>1319.2</ele><time>2026-04-14T13:46:01.999Z</time></trkpt><trkpt lat="38.09655824257073" lon="15.849223310434141"><ele>1319.6</ele><time>2026-04-14T13:46:02.999Z</time></trkpt><trkpt lat="38.09659897918105" lon="15.849117015092817"><ele>1320.0</ele><time>2026-04-14T13:46:03.999Z</time></trkpt><trkpt lat="38.09664489087451" lon="15.849040723872458"><ele>1320.0</ele><time>2026-04-14T13:46:04.999Z</time></trkpt><trkpt lat="38.09667065108877" lon="15.848923657720404"><ele>1320.0</ele><time>2026-04-14T13:46:06.999Z</time></trkpt><trkpt lat="38.096602126340535" lon="15.848858488334141"><ele>1320.0</ele><time>2026-04-14T13:46:08.999Z</time></trkpt><trkpt lat="38.0965492915241" lon="15.848802025767167"><ele>1320.0</ele><time>2026-04-14T13:46:09.999Z</time></trkpt><trkpt lat="38.096482437904626" lon="15.848720940372367"><ele>1320.0</ele><time>2026-04-14T13:46:10.999Z</time></trkpt><trkpt lat="38.09640223634971" lon="15.848693024788643"><ele>1320.0</ele><time>2026-04-14T13:46:11.999Z</time></trkpt><trkpt lat="38.09632185474932" lon="15.848697429186332"><ele>1317.8333333333333</ele><time>2026-04-14T13:46:12.999Z</time></trkpt><trkpt lat="38.096249440559" lon="15.84866749495206"><ele>1315.6666666666667</ele><time>2026-04-14T13:46:13.999Z</time></trkpt><trkpt lat="38.09620239505345" lon="15.848540322154847"><ele>1313.5</ele><time>2026-04-14T13:46:15.999Z</time></trkpt><trkpt lat="38.09622556722998" lon="15.848460375200098"><ele>1311.3333333333335</ele><time>2026-04-14T13:46:16.999Z</time></trkpt><trkpt lat="38.09627726829213" lon="15.84836791239923"><ele>1309.1666666666667</ele><time>2026-04-14T13:46:17.999Z</time></trkpt><trkpt lat="38.0963037446939" lon="15.848258292975911"><ele>1307.0</ele><time>2026-04-14T13:46:18.999Z</time></trkpt><trkpt lat="38.09630074968847" lon="15.848138386145925"><ele>1307.0</ele><time>2026-04-14T13:46:19.999Z</time></trkpt><trkpt lat="38.09631793231406" lon="15.848048597325825"><ele>1307.0</ele><time>2026-04-14T13:46:20.999Z</time></trkpt><trkpt lat="38.09634919885625" lon="15.847973161283534"><ele>1307.0</ele><time>2026-04-14T13:46:21.999Z</time></trkpt><trkpt lat="38.09631345167011" lon="15.847875955787003"><ele>1307.0</ele><time>2026-04-14T13:46:23.999Z</time></trkpt><trkpt lat="38.09625327003316" lon="15.84784206082654"><ele>1307.0</ele><time>2026-04-14T13:46:24.999Z</time></trkpt><trkpt lat="38.09616524955273" lon="15.847792986614637"><ele>1307.0</ele><time>2026-04-14T13:46:25.999Z</time></trkpt><trkpt lat="38.09605980900911" lon="15.847741729272515"><ele>1307.0</ele><time>2026-04-14T13:46:26.999Z</time></trkpt><trkpt lat="38.095936179949476" lon="15.847690367604695"><ele>1307.0</ele><time>2026-04-14T13:46:27.999Z</time></trkpt><trkpt lat="38.09582330959623" lon="15.847657358997694"><ele>1307.0</ele><time>2026-04-14T13:46:28.999Z</time></trkpt><trkpt lat="38.09574208560637" lon="15.84762042196281"><ele>1307.0</ele><time>2026-04-14T13:46:29.999Z</time></trkpt><trkpt lat="38.095684847181644" lon="15.847567037109771"><ele>1307.0</ele><time>2026-04-14T13:46:30.999Z</time></trkpt><trkpt lat="38.09564898062841" lon="15.847487066956457"><ele>1306.0</ele><time>2026-04-14T13:46:31.999Z</time></trkpt><trkpt lat="38.095684646176394" lon="15.847312238064385"><ele>1305.0</ele><time>2026-04-14T13:46:33.999Z</time></trkpt><trkpt lat="38.09570839741287" lon="15.847189024081281"><ele>1304.0</ele><time>2026-04-14T13:46:34.999Z</time></trkpt><trkpt lat="38.09570053136789" lon="15.847090807762585"><ele>1303.0</ele><time>2026-04-14T13:46:35.999Z</time></trkpt><trkpt lat="38.09565043666838" lon="15.84703175416587"><ele>1302.0</ele><time>2026-04-14T13:46:36.999Z</time></trkpt><trkpt lat="38.095585851000195" lon="15.846963512571515"><ele>1302.0</ele><time>2026-04-14T13:46:37.999Z</time></trkpt><trkpt lat="38.0955442400597" lon="15.846897867933057"><ele>1302.0</ele><time>2026-04-14T13:46:38.999Z</time></trkpt><trkpt lat="38.095579669032645" lon="15.846748554965165"><ele>1302.0</ele><time>2026-04-14T13:46:40.999Z</time></trkpt><trkpt lat="38.095627517568424" lon="15.846673558568847"><ele>1302.0</ele><time>2026-04-14T13:46:41.999Z</time></trkpt><trkpt lat="38.09566375886647" lon="15.846595301890664"><ele>1302.0</ele><time>2026-04-14T13:46:42.999Z</time></trkpt><trkpt lat="38.09562461140368" lon="15.84645165388043"><ele>1304.8</ele><time>2026-04-14T13:46:44.999Z</time></trkpt><trkpt lat="38.09555723062257" lon="15.846400675177831"><ele>1307.6</ele><time>2026-04-14T13:46:45.999Z</time></trkpt><trkpt lat="38.095472652681984" lon="15.84637367694021"><ele>1310.3999999999999</ele><time>2026-04-14T13:46:46.999Z</time></trkpt><trkpt lat="38.09535215653065" lon="15.846341389535532"><ele>1313.1999999999998</ele><time>2026-04-14T13:46:47.999Z</time></trkpt><trkpt lat="38.09520947044178" lon="15.84629330969675"><ele>1316.0</ele><time>2026-04-14T13:46:48.999Z</time></trkpt><trkpt lat="38.095073890788136" lon="15.846220617095312"><ele>1316.0</ele><time>2026-04-14T13:46:49.999Z</time></trkpt><trkpt lat="38.09497995274635" lon="15.84617436902862"><ele>1316.0</ele><time>2026-04-14T13:46:50.999Z</time></trkpt><trkpt lat="38.09490281421442" lon="15.846114672443644"><ele>1316.0</ele><time>2026-04-14T13:46:52.999Z</time></trkpt><trkpt lat="38.09485744276252" lon="15.845984224550925"><ele>1316.0</ele><time>2026-04-14T13:49:27Z</time></trkpt><trkpt lat="38.09482487223714" lon="15.845910660878495"><ele>1316.0</ele><time>2026-04-14T13:49:28Z</time></trkpt><trkpt lat="38.09478299812432" lon="15.845834566672941"><ele>1316.0</ele><time>2026-04-14T13:49:29Z</time></trkpt><trkpt lat="38.09472913978117" lon="15.845764853546294"><ele>1315.6666666666667</ele><time>2026-04-14T13:49:29.999Z</time></trkpt><trkpt lat="38.094667582661266" lon="15.845696945299327"><ele>1315.3333333333335</ele><time>2026-04-14T13:49:30.999Z</time></trkpt><trkpt lat="38.09460091208613" lon="15.845629783676976"><ele>1315.0</ele><time>2026-04-14T13:49:31.999Z</time></trkpt><trkpt lat="38.09453669615313" lon="15.845554209044751"><ele>1314.6666666666667</ele><time>2026-04-14T13:49:32.999Z</time></trkpt><trkpt lat="38.09448740034695" lon="15.845478403868698"><ele>1314.3333333333333</ele><time>2026-04-14T13:49:33.999Z</time></trkpt><trkpt lat="38.09445708557056" lon="15.845390426548864"><ele>1314.0</ele><time>2026-04-14T13:49:34.999Z</time></trkpt><trkpt lat="38.094444457589645" lon="15.845297364018785"><ele>1314.0</ele><time>2026-04-14T13:49:35.999Z</time></trkpt><trkpt lat="38.094447343818" lon="15.845196250370433"><ele>1314.0</ele><time>2026-04-14T13:49:36.999Z</time></trkpt><trkpt lat="38.09445531284668" lon="15.84509200100321"><ele>1314.0</ele><time>2026-04-14T13:49:37.999Z</time></trkpt><trkpt lat="38.094458747868835" lon="15.844996785134793"><ele>1314.0</ele><time>2026-04-14T13:49:38.999Z</time></trkpt><trkpt lat="38.09445142472061" lon="15.844916737726468"><ele>1314.0</ele><time>2026-04-14T13:49:39.999Z</time></trkpt><trkpt lat="38.094419350505916" lon="15.84483463882662"><ele>1314.0</ele><time>2026-04-14T13:49:41.999Z</time></trkpt><trkpt lat="38.094384299678296" lon="15.8447456229927"><ele>1313.1666666666667</ele><time>2026-04-14T13:49:45.999Z</time></trkpt><trkpt lat="38.094335647093544" lon="15.844680339333221"><ele>1312.3333333333333</ele><time>2026-04-14T13:50:36.999Z</time></trkpt><trkpt lat="38.09425474201627" lon="15.84463001080133"><ele>1311.5</ele><time>2026-04-14T13:50:38.999Z</time></trkpt><trkpt lat="38.094160619080135" lon="15.844613734326623"><ele>1310.6666666666665</ele><time>2026-04-14T13:50:40.999Z</time></trkpt><trkpt lat="38.0940651332876" lon="15.84460022926855"><ele>1309.8333333333333</ele><time>2026-04-14T13:50:42.999Z</time></trkpt><trkpt lat="38.093973968006836" lon="15.844570927278758"><ele>1309.0</ele><time>2026-04-14T13:50:44.999Z</time></trkpt><trkpt lat="38.093890121858266" lon="15.844526396481767"><ele>1309.0</ele><time>2026-04-14T13:50:46.999Z</time></trkpt><trkpt lat="38.09379966675647" lon="15.844447968453451"><ele>1309.0</ele><time>2026-04-14T13:50:48.999Z</time></trkpt><trkpt lat="38.0937046538089" lon="15.844342391869686"><ele>1309.0</ele><time>2026-04-14T13:50:50.999Z</time></trkpt><trkpt lat="38.09366236432252" lon="15.844280409022863"><ele>1309.0</ele><time>2026-04-14T13:50:51.999Z</time></trkpt><trkpt lat="38.09362835699183" lon="15.844197633284518"><ele>1309.0</ele><time>2026-04-14T13:50:52.999Z</time></trkpt><trkpt lat="38.09360795777233" lon="15.844101788988358"><ele>1313.3333333333333</ele><time>2026-04-14T13:50:53.999Z</time></trkpt><trkpt lat="38.09359526078253" lon="15.843994989936999"><ele>1317.6666666666665</ele><time>2026-04-14T13:50:54.999Z</time></trkpt><trkpt lat="38.09358558657318" lon="15.843903252774505"><ele>1322.0</ele><time>2026-04-14T13:50:55.999Z</time></trkpt><trkpt lat="38.09354609530796" lon="15.843814841944138"><ele>1326.3333333333333</ele><time>2026-04-14T13:50:56.999Z</time></trkpt><trkpt lat="38.093478227078165" lon="15.843738078883227"><ele>1330.6666666666667</ele><time>2026-04-14T13:50:57.999Z</time></trkpt><trkpt lat="38.09340858398449" lon="15.84367826748536"><ele>1335.0</ele><time>2026-04-14T13:50:58.999Z</time></trkpt><trkpt lat="38.09335641578153" lon="15.843608552794194"><ele>1335.0</ele><time>2026-04-14T13:50:59.999Z</time></trkpt><trkpt lat="38.0933173548421" lon="15.843533405356437"><ele>1335.0</ele><time>2026-04-14T13:51:00.999Z</time></trkpt><trkpt lat="38.093294505471064" lon="15.843451489401422"><ele>1335.0</ele><time>2026-04-14T13:51:01.999Z</time></trkpt><trkpt lat="38.09327810778933" lon="15.843306081934912"><ele>1335.0</ele><time>2026-04-14T13:51:03.999Z</time></trkpt><trkpt lat="38.09333923853057" lon="15.84319280644472"><ele>1335.0</ele><time>2026-04-14T13:51:05.999Z</time></trkpt><trkpt lat="38.09339900641667" lon="15.843063750377427"><ele>1337.0</ele><time>2026-04-14T13:51:07.999Z</time></trkpt><trkpt lat="38.0934224836276" lon="15.842969807719442"><ele>1339.0</ele><time>2026-04-14T13:51:08.998Z</time></trkpt><trkpt lat="38.09344596082906" lon="15.842844898082856"><ele>1341.0</ele><time>2026-04-14T13:51:09.998Z</time></trkpt><trkpt lat="38.093468687046" lon="15.842704005781256"><ele>1343.0</ele><time>2026-04-14T13:51:10.998Z</time></trkpt><trkpt lat="38.09347859876058" lon="15.842531261121831"><ele>1345.0</ele><time>2026-04-14T13:51:12Z</time></trkpt><trkpt lat="38.0934758952052" lon="15.842352804061514"><ele>1345.0</ele><time>2026-04-14T13:51:13Z</time></trkpt><trkpt lat="38.093465214381204" lon="15.842155793141057"><ele>1345.0</ele><time>2026-04-14T13:51:14Z</time></trkpt><trkpt lat="38.093451646274595" lon="15.841958913673619"><ele>1345.0</ele><time>2026-04-14T13:51:15Z</time></trkpt><trkpt lat="38.09345161776091" lon="15.84179588087298"><ele>1345.0</ele><time>2026-04-14T13:51:16Z</time></trkpt><trkpt lat="38.09346449195928" lon="15.841649433785516"><ele>1344.2</ele><time>2026-04-14T13:51:17Z</time></trkpt><trkpt lat="38.09349762600273" lon="15.841499731215983"><ele>1343.4</ele><time>2026-04-14T13:51:18Z</time></trkpt><trkpt lat="38.09355950004408" lon="15.84136658601868"><ele>1342.6</ele><time>2026-04-14T13:51:19Z</time></trkpt><trkpt lat="38.09362470262114" lon="15.841271210569422"><ele>1341.8</ele><time>2026-04-14T13:51:20Z</time></trkpt><trkpt lat="38.09370531770473" lon="15.84120892553036"><ele>1341.0</ele><time>2026-04-14T13:51:21Z</time></trkpt><trkpt lat="38.09380140500096" lon="15.84118717590994"><ele>1341.0</ele><time>2026-04-14T13:51:22Z</time></trkpt><trkpt lat="38.093918742430354" lon="15.841190104249538"><ele>1341.0</ele><time>2026-04-14T13:51:23Z</time></trkpt><trkpt lat="38.094049513690486" lon="15.841211891365099"><ele>1341.0</ele><time>2026-04-14T13:51:24Z</time></trkpt><trkpt lat="38.09418820889289" lon="15.841243105961281"><ele>1341.0</ele><time>2026-04-14T13:51:25Z</time></trkpt><trkpt lat="38.09432282494224" lon="15.841267894063044"><ele>1346.6</ele><time>2026-04-14T13:51:26Z</time></trkpt><trkpt lat="38.094446919354326" lon="15.84130633634269"><ele>1352.1999999999998</ele><time>2026-04-14T13:51:27Z</time></trkpt><trkpt lat="38.09455124217356" lon="15.841361268502833"><ele>1357.8000000000002</ele><time>2026-04-14T13:51:28Z</time></trkpt><trkpt lat="38.0946388629768" lon="15.841410604242752"><ele>1363.4</ele><time>2026-04-14T13:51:29Z</time></trkpt><trkpt lat="38.09471950959985" lon="15.841423855925369"><ele>1369.0</ele><time>2026-04-14T13:51:30Z</time></trkpt><trkpt lat="38.09480275280438" lon="15.84139544332721"><ele>1369.0</ele><time>2026-04-14T13:51:31Z</time></trkpt><trkpt lat="38.09487531950775" lon="15.841325287641139"><ele>1369.0</ele><time>2026-04-14T13:51:32Z</time></trkpt><trkpt lat="38.0949123808073" lon="15.841223933984022"><ele>1369.0</ele><time>2026-04-14T13:51:32.999Z</time></trkpt><trkpt lat="38.09490882353986" lon="15.841105404192207"><ele>1369.0</ele><time>2026-04-14T13:51:33.999Z</time></trkpt><trkpt lat="38.09487357572071" lon="15.840971717002704"><ele>1369.0</ele><time>2026-04-14T13:51:34.999Z</time></trkpt><trkpt lat="38.09481133974167" lon="15.840817436117305"><ele>1364.3333333333333</ele><time>2026-04-14T13:51:35.999Z</time></trkpt><trkpt lat="38.09473778059881" lon="15.840631514788011"><ele>1359.6666666666667</ele><time>2026-04-14T13:51:36.999Z</time></trkpt><trkpt lat="38.09466733546969" lon="15.840414957902233"><ele>1355.0</ele><time>2026-04-14T13:51:37.999Z</time></trkpt><trkpt lat="38.0946033653709" lon="15.840195868162265"><ele>1357.5</ele><time>2026-04-14T13:51:38.999Z</time></trkpt><trkpt lat="38.0945563100712" lon="15.84002191262498"><ele>1360.0</ele><time>2026-04-14T13:51:39.999Z</time></trkpt><trkpt lat="38.094517732358256" lon="15.839877365004291"><ele>1362.5</ele><time>2026-04-14T13:51:40.999Z</time></trkpt><trkpt lat="38.094481184270066" lon="15.839746907292456"><ele>1365.0</ele><time>2026-04-14T13:51:41.999Z</time></trkpt><trkpt lat="38.094442238712716" lon="15.839616160492776"><ele>1365.0</ele><time>2026-04-14T13:51:42.999Z</time></trkpt><trkpt lat="38.0944052317304" lon="15.839484590381423"><ele>1365.0</ele><time>2026-04-14T13:51:43.999Z</time></trkpt><trkpt lat="38.094366401085324" lon="15.839351485675364"><ele>1365.0</ele><time>2026-04-14T13:51:44.999Z</time></trkpt><trkpt lat="38.09433274623623" lon="15.839230931882474"><ele>1365.0</ele><time>2026-04-14T13:51:45.999Z</time></trkpt><trkpt lat="38.094327707351766" lon="15.839139792321275"><ele>1365.0</ele><time>2026-04-14T13:51:46.999Z</time></trkpt><trkpt lat="38.09440061838242" lon="15.839013039921324"><ele>1367.0</ele><time>2026-04-14T13:51:48.999Z</time></trkpt><trkpt lat="38.094477783711035" lon="15.83898294721156"><ele>1369.0</ele><time>2026-04-14T13:51:49.999Z</time></trkpt><trkpt lat="38.09457958354054" lon="15.838981329650808"><ele>1371.0</ele><time>2026-04-14T13:51:50.999Z</time></trkpt><trkpt lat="38.09469650498438" lon="15.839001229038484"><ele>1373.0</ele><time>2026-04-14T13:51:51.999Z</time></trkpt><trkpt lat="38.09481725985916" lon="15.83902734472987"><ele>1375.0</ele><time>2026-04-14T13:51:52.999Z</time></trkpt><trkpt lat="38.09494839972988" lon="15.839024962046151"><ele>1376.75</ele><time>2026-04-14T13:51:53.999Z</time></trkpt><trkpt lat="38.095082159478466" lon="15.838998686302483"><ele>1378.5</ele><time>2026-04-14T13:51:54.999Z</time></trkpt><trkpt lat="38.095217991191966" lon="15.838968929887107"><ele>1380.25</ele><time>2026-04-14T13:51:55.999Z</time></trkpt><trkpt lat="38.09534689888161" lon="15.838938081827774"><ele>1382.0</ele><time>2026-04-14T13:51:56.999Z</time></trkpt><trkpt lat="38.095464350892016" lon="15.83892680434309"><ele>1382.0</ele><time>2026-04-14T13:51:57.999Z</time></trkpt><trkpt lat="38.095566857188004" lon="15.838930540820538"><ele>1382.0</ele><time>2026-04-14T13:51:58.999Z</time></trkpt><trkpt lat="38.09566515154153" lon="15.838968852051892"><ele>1382.0</ele><time>2026-04-14T13:51:59.999Z</time></trkpt><trkpt lat="38.0957556870772" lon="15.83904127547884"><ele>1382.0</ele><time>2026-04-14T13:52:00.999Z</time></trkpt><trkpt lat="38.09584972469936" lon="15.839109505302522"><ele>1382.0</ele><time>2026-04-14T13:52:01.999Z</time></trkpt><trkpt lat="38.09594795094343" lon="15.839164458666398"><ele>1383.0</ele><time>2026-04-14T13:52:02.999Z</time></trkpt><trkpt lat="38.096066160831036" lon="15.839186434975023"><ele>1384.0</ele><time>2026-04-14T13:52:03.999Z</time></trkpt><trkpt lat="38.09617811557626" lon="15.839190359845457"><ele>1385.0</ele><time>2026-04-14T13:52:04.999Z</time></trkpt><trkpt lat="38.096292804415214" lon="15.839179257262991"><ele>1386.0</ele><time>2026-04-14T13:52:05.999Z</time></trkpt><trkpt lat="38.096401632295915" lon="15.839138100128336"><ele>1386.0</ele><time>2026-04-14T13:52:06.999Z</time></trkpt><trkpt lat="38.096518263007326" lon="15.839091496531859"><ele>1386.0</ele><time>2026-04-14T13:52:07.999Z</time></trkpt><trkpt lat="38.09663382574345" lon="15.839043588054246"><ele>1386.0</ele><time>2026-04-14T13:52:08.999Z</time></trkpt><trkpt lat="38.096739698150984" lon="15.838988776624655"><ele>1386.0</ele><time>2026-04-14T13:52:09.999Z</time></trkpt><trkpt lat="38.09684599748527" lon="15.838929655577857"><ele>1385.1999999999998</ele><time>2026-04-14T13:52:10.999Z</time></trkpt><trkpt lat="38.09694163562537" lon="15.83884903928918"><ele>1384.3999999999999</ele><time>2026-04-14T13:52:11.999Z</time></trkpt><trkpt lat="38.09704130610123" lon="15.838770788834516"><ele>1383.6</ele><time>2026-04-14T13:52:12.999Z</time></trkpt><trkpt lat="38.09713989721754" lon="15.83871084080596"><ele>1382.8</ele><time>2026-04-14T13:52:13.999Z</time></trkpt><trkpt lat="38.097226016675215" lon="15.838661778411414"><ele>1382.0</ele><time>2026-04-14T13:52:14.999Z</time></trkpt><trkpt lat="38.097314410183365" lon="15.838640940643641"><ele>1382.0</ele><time>2026-04-14T13:52:15.999Z</time></trkpt><trkpt lat="38.09741755702367" lon="15.83862632938259"><ele>1382.0</ele><time>2026-04-14T13:52:16.999Z</time></trkpt><trkpt lat="38.097517997606616" lon="15.838597020002487"><ele>1382.0</ele><time>2026-04-14T13:52:17.999Z</time></trkpt><trkpt lat="38.097613755898394" lon="15.838535412320098"><ele>1382.0</ele><time>2026-04-14T13:52:18.999Z</time></trkpt><trkpt lat="38.09770168225886" lon="15.838448306829546"><ele>1382.0</ele><time>2026-04-14T13:52:19.999Z</time></trkpt><trkpt lat="38.09778520455568" lon="15.838349061252439"><ele>1385.0</ele><time>2026-04-14T13:52:20.999Z</time></trkpt><trkpt lat="38.09786212162747" lon="15.838280669750686"><ele>1388.0</ele><time>2026-04-14T13:52:21.999Z</time></trkpt><trkpt lat="38.09795969067725" lon="15.838269064197439"><ele>1391.0</ele><time>2026-04-14T13:52:22.999Z</time></trkpt><trkpt lat="38.09805540045123" lon="15.838306076197538"><ele>1394.0</ele><time>2026-04-14T13:52:23.999Z</time></trkpt><trkpt lat="38.09812935217721" lon="15.83837400456813"><ele>1397.0</ele><time>2026-04-14T13:52:24.999Z</time></trkpt><trkpt lat="38.098183995759584" lon="15.838473882027394"><ele>1397.0</ele><time>2026-04-14T13:52:25.999Z</time></trkpt><trkpt lat="38.09822526754049" lon="15.838602415046175"><ele>1397.0</ele><time>2026-04-14T13:52:26.999Z</time></trkpt><trkpt lat="38.09826266580464" lon="15.838749549759669"><ele>1397.0</ele><time>2026-04-14T13:52:27.999Z</time></trkpt><trkpt lat="38.09830617852849" lon="15.838894621227233"><ele>1397.0</ele><time>2026-04-14T13:52:28.999Z</time></trkpt><trkpt lat="38.09836316434731" lon="15.83903327167651"><ele>1395.5</ele><time>2026-04-14T13:52:29.999Z</time></trkpt><trkpt lat="38.09843313466598" lon="15.839169900150157"><ele>1394.0</ele><time>2026-04-14T13:52:30.999Z</time></trkpt><trkpt lat="38.09849257514121" lon="15.839304791058298"><ele>1392.5</ele><time>2026-04-14T13:52:31.999Z</time></trkpt><trkpt lat="38.098537920159956" lon="15.839438193665675"><ele>1391.0</ele><time>2026-04-14T13:52:32.999Z</time></trkpt><trkpt lat="38.098574852640645" lon="15.839555882078521"><ele>1394.5</ele><time>2026-04-14T13:52:33.999Z</time></trkpt><trkpt lat="38.09861465827528" lon="15.83965437413199"><ele>1398.0</ele><time>2026-04-14T13:52:34.999Z</time></trkpt><trkpt lat="38.09866527259826" lon="15.839730421471227"><ele>1401.5</ele><time>2026-04-14T13:52:35.999Z</time></trkpt><trkpt lat="38.09873276447243" lon="15.839765011369614"><ele>1405.0</ele><time>2026-04-14T13:52:36.999Z</time></trkpt><trkpt lat="38.09880906455445" lon="15.839748146838755"><ele>1408.5</ele><time>2026-04-14T13:52:37.999Z</time></trkpt><trkpt lat="38.09888674426259" lon="15.839700186203743"><ele>1412.0</ele><time>2026-04-14T13:52:38.999Z</time></trkpt><trkpt lat="38.098964411348106" lon="15.8396367154476"><ele>1412.0</ele><time>2026-04-14T13:52:39.999Z</time></trkpt><trkpt lat="38.099048899015365" lon="15.839597717446035"><ele>1412.0</ele><time>2026-04-14T13:52:40.999Z</time></trkpt><trkpt lat="38.09913094139476" lon="15.839599881952052"><ele>1412.0</ele><time>2026-04-14T13:52:41.999Z</time></trkpt><trkpt lat="38.099208441407036" lon="15.839636794799924"><ele>1412.0</ele><time>2026-04-14T13:52:42.999Z</time></trkpt><trkpt lat="38.09929539048626" lon="15.839690499485314"><ele>1412.0</ele><time>2026-04-14T13:52:43.999Z</time></trkpt><trkpt lat="38.09939400630556" lon="15.839734966891431"><ele>1408.6</ele><time>2026-04-14T13:52:44.999Z</time></trkpt><trkpt lat="38.09949521002646" lon="15.839754242208272"><ele>1405.1999999999998</ele><time>2026-04-14T13:52:45.999Z</time></trkpt><trkpt lat="38.09959641659907" lon="15.839724475809717"><ele>1401.8</ele><time>2026-04-14T13:52:46.999Z</time></trkpt><trkpt lat="38.09969223469791" lon="15.839653891183291"><ele>1398.4</ele><time>2026-04-14T13:52:47.999Z</time></trkpt><trkpt lat="38.09977657865163" lon="15.839558917992766"><ele>1395.0</ele><time>2026-04-14T13:52:48.999Z</time></trkpt><trkpt lat="38.09984929425037" lon="15.839462048834385"><ele>1395.0</ele><time>2026-04-14T13:52:49.999Z</time></trkpt><trkpt lat="38.09991679068986" lon="15.839397989602022"><ele>1395.0</ele><time>2026-04-14T13:52:50.999Z</time></trkpt><trkpt lat="38.099990365153865" lon="15.839379557986975"><ele>1395.0</ele><time>2026-04-14T13:52:51.999Z</time></trkpt><trkpt lat="38.10007629103917" lon="15.839406525093645"><ele>1395.0</ele><time>2026-04-14T13:52:52.999Z</time></trkpt><trkpt lat="38.10017569883544" lon="15.839465966184452"><ele>1395.0</ele><time>2026-04-14T13:52:53.999Z</time></trkpt><trkpt lat="38.10027523704643" lon="15.839550409383413"><ele>1394.25</ele><time>2026-04-14T13:52:54.999Z</time></trkpt><trkpt lat="38.10038917047873" lon="15.839653238406415"><ele>1393.5</ele><time>2026-04-14T13:52:55.999Z</time></trkpt><trkpt lat="38.1005176342158" lon="15.839746494272205"><ele>1392.75</ele><time>2026-04-14T13:52:56.999Z</time></trkpt><trkpt lat="38.1006633321489" lon="15.83982470924103"><ele>1392.0</ele><time>2026-04-14T13:52:57.999Z</time></trkpt><trkpt lat="38.10080771995181" lon="15.839904176482433"><ele>1386.3333333333333</ele><time>2026-04-14T13:52:58.999Z</time></trkpt><trkpt lat="38.100951778860185" lon="15.840006965013819"><ele>1380.6666666666665</ele><time>2026-04-14T13:52:59.999Z</time></trkpt><trkpt lat="38.101078615861475" lon="15.840118196620166"><ele>1375.0</ele><time>2026-04-14T13:53:00.999Z</time></trkpt><trkpt lat="38.10119938301401" lon="15.840214596275445"><ele>1375.5</ele><time>2026-04-14T13:53:01.999Z</time></trkpt><trkpt lat="38.10131312048727" lon="15.840301960268551"><ele>1376.0</ele><time>2026-04-14T13:53:02.999Z</time></trkpt><trkpt lat="38.10143086736027" lon="15.840394426038726"><ele>1376.5</ele><time>2026-04-14T13:53:03.999Z</time></trkpt><trkpt lat="38.101554703020405" lon="15.84048563665321"><ele>1377.0</ele><time>2026-04-14T13:53:04.999Z</time></trkpt><trkpt lat="38.101670542363195" lon="15.84056935907431"><ele>1377.0</ele><time>2026-04-14T13:53:05.999Z</time></trkpt><trkpt lat="38.10177856272173" lon="15.840643840684024"><ele>1377.0</ele><time>2026-04-14T13:53:06.999Z</time></trkpt><trkpt lat="38.101879965043715" lon="15.840731086242299"><ele>1377.0</ele><time>2026-04-14T13:53:07.999Z</time></trkpt><trkpt lat="38.10197299923541" lon="15.840827230940294"><ele>1377.0</ele><time>2026-04-14T13:53:08.999Z</time></trkpt><trkpt lat="38.10205100242758" lon="15.840907359073059"><ele>1383.8</ele><time>2026-04-14T13:53:09.999Z</time></trkpt><trkpt lat="38.10211651289419" lon="15.840978050085909"><ele>1390.6</ele><time>2026-04-14T13:53:10.999Z</time></trkpt><trkpt lat="38.10217584781867" lon="15.841073266473671"><ele>1397.3999999999999</ele><time>2026-04-14T13:53:11.999Z</time></trkpt><trkpt lat="38.102221996080715" lon="15.841194371547648"><ele>1404.1999999999998</ele><time>2026-04-14T13:53:12.999Z</time></trkpt><trkpt lat="38.10225492410458" lon="15.841314293594865"><ele>1411.0</ele><time>2026-04-14T13:53:13.999Z</time></trkpt><trkpt lat="38.1023007811268" lon="15.841411914559092"><ele>1411.0</ele><time>2026-04-14T13:53:14.998Z</time></trkpt><trkpt lat="38.10237664498351" lon="15.841458152331702"><ele>1411.0</ele><time>2026-04-14T13:53:15.998Z</time></trkpt><trkpt lat="38.10247096575505" lon="15.841471293907835"><ele>1411.0</ele><time>2026-04-14T13:53:16.998Z</time></trkpt><trkpt lat="38.10257891441279" lon="15.84147314061456"><ele>1411.0</ele><time>2026-04-14T13:53:17.999Z</time></trkpt><trkpt lat="38.102700929460134" lon="15.841482501984709"><ele>1411.0</ele><time>2026-04-14T13:53:18.999Z</time></trkpt><trkpt lat="38.102827528836016" lon="15.84153834922827"><ele>1413.25</ele><time>2026-04-14T13:53:19.999Z</time></trkpt><trkpt lat="38.102953559456004" lon="15.841605576200763"><ele>1415.5</ele><time>2026-04-14T13:53:20.999Z</time></trkpt><trkpt lat="38.10306636866017" lon="15.841671991168985"><ele>1417.75</ele><time>2026-04-14T13:53:21.999Z</time></trkpt><trkpt lat="38.10316096877729" lon="15.84173877972206"><ele>1420.0</ele><time>2026-04-14T13:53:22.999Z</time></trkpt><trkpt lat="38.1032315747529" lon="15.841820734940702"><ele>1413.6</ele><time>2026-04-14T13:53:23.999Z</time></trkpt><trkpt lat="38.10327924270008" lon="15.841936128202398"><ele>1407.2</ele><time>2026-04-14T13:53:24.999Z</time></trkpt><trkpt lat="38.103320615076825" lon="15.842052863706417"><ele>1400.8000000000002</ele><time>2026-04-14T13:53:25.999Z</time></trkpt><trkpt lat="38.10338625016675" lon="15.842125091527178"><ele>1394.4</ele><time>2026-04-14T13:53:26.999Z</time></trkpt><trkpt lat="38.10347632186631" lon="15.842137183605445"><ele>1388.0</ele><time>2026-04-14T13:53:27.999Z</time></trkpt><trkpt lat="38.10357857084147" lon="15.842126941853877"><ele>1388.0</ele><time>2026-04-14T13:53:28.999Z</time></trkpt><trkpt lat="38.103691541915694" lon="15.842144361249511"><ele>1388.0</ele><time>2026-04-14T13:53:29.999Z</time></trkpt><trkpt lat="38.103798649562464" lon="15.84218830355969"><ele>1388.0</ele><time>2026-04-14T13:53:30.999Z</time></trkpt><trkpt lat="38.103903792999915" lon="15.842262238241615"><ele>1388.0</ele><time>2026-04-14T13:53:31.999Z</time></trkpt><trkpt lat="38.10400716401253" lon="15.842348474900195"><ele>1388.5</ele><time>2026-04-14T13:53:32.999Z</time></trkpt><trkpt lat="38.10410492207367" lon="15.842441696134358"><ele>1389.0</ele><time>2026-04-14T13:53:33.999Z</time></trkpt><trkpt lat="38.104189937146906" lon="15.842561272066773"><ele>1389.5</ele><time>2026-04-14T13:53:34.999Z</time></trkpt><trkpt lat="38.104272504648094" lon="15.842684828917095"><ele>1390.0</ele><time>2026-04-14T13:53:35.999Z</time></trkpt><trkpt lat="38.10435396691234" lon="15.842807212788284"><ele>1390.0</ele><time>2026-04-14T13:53:36.999Z</time></trkpt><trkpt lat="38.10443696040944" lon="15.842916002411574"><ele>1390.0</ele><time>2026-04-14T13:53:37.999Z</time></trkpt><trkpt lat="38.10452398574426" lon="15.84298921995201"><ele>1390.0</ele><time>2026-04-14T13:53:38.999Z</time></trkpt><trkpt lat="38.10462956091577" lon="15.843032927159804"><ele>1390.0</ele><time>2026-04-14T13:53:39.999Z</time></trkpt><trkpt lat="38.10472107118447" lon="15.84304445578188"><ele>1390.0</ele><time>2026-04-14T13:53:40.999Z</time></trkpt><trkpt lat="38.104801072718985" lon="15.843089240902618"><ele>1390.0</ele><time>2026-04-14T13:53:41.999Z</time></trkpt><trkpt lat="38.10486648637379" lon="15.843181238528311"><ele>1390.0</ele><time>2026-04-14T13:53:42.999Z</time></trkpt><trkpt lat="38.104929155329586" lon="15.843295245319943"><ele>1390.0</ele><time>2026-04-14T13:53:43.999Z</time></trkpt><trkpt lat="38.104993286547696" lon="15.843418444939415"><ele>1390.0</ele><time>2026-04-14T13:53:44.999Z</time></trkpt><trkpt lat="38.10503656035119" lon="15.843561506000869"><ele>1390.0</ele><time>2026-04-14T13:53:45.999Z</time></trkpt><trkpt lat="38.105071499810755" lon="15.843702987486273"><ele>1386.6</ele><time>2026-04-14T13:53:46.999Z</time></trkpt><trkpt lat="38.10510279190924" lon="15.84382199619865"><ele>1383.2</ele><time>2026-04-14T13:53:47.999Z</time></trkpt><trkpt lat="38.10516103893568" lon="15.843920536363932"><ele>1379.8000000000002</ele><time>2026-04-14T13:53:48.999Z</time></trkpt><trkpt lat="38.10523103672082" lon="15.843987956819213"><ele>1376.4</ele><time>2026-04-14T13:53:49.999Z</time></trkpt><trkpt lat="38.10530654540918" lon="15.844046532873579"><ele>1373.0</ele><time>2026-04-14T13:53:50.999Z</time></trkpt><trkpt lat="38.10537250889538" lon="15.844113828333608"><ele>1373.0</ele><time>2026-04-14T13:53:51.999Z</time></trkpt><trkpt lat="38.105420868253496" lon="15.844214131353457"><ele>1373.0</ele><time>2026-04-14T13:53:52.999Z</time></trkpt><trkpt lat="38.10544263404652" lon="15.844340767297737"><ele>1373.0</ele><time>2026-04-14T13:53:53.999Z</time></trkpt><trkpt lat="38.105456952551336" lon="15.844465784036732"><ele>1373.0</ele><time>2026-04-14T13:53:54.999Z</time></trkpt><trkpt lat="38.105459196167025" lon="15.844591400454132"><ele>1373.0</ele><time>2026-04-14T13:53:55.999Z</time></trkpt><trkpt lat="38.10544784770003" lon="15.844714317910363"><ele>1374.8333333333335</ele><time>2026-04-14T13:53:56.999Z</time></trkpt><trkpt lat="38.105435241674655" lon="15.844807242602384"><ele>1376.6666666666667</ele><time>2026-04-14T13:53:57.999Z</time></trkpt><trkpt lat="38.10545370057953" lon="15.844946895037511"><ele>1378.5</ele><time>2026-04-14T13:53:59.999Z</time></trkpt><trkpt lat="38.105499888466646" lon="15.845002228981645"><ele>1380.3333333333333</ele><time>2026-04-14T13:54:00.999Z</time></trkpt><trkpt lat="38.10556265719737" lon="15.845043878784505"><ele>1382.1666666666665</ele><time>2026-04-14T13:54:01.999Z</time></trkpt><trkpt lat="38.10565041395963" lon="15.845044551354064"><ele>1384.0</ele><time>2026-04-14T13:54:02.999Z</time></trkpt><trkpt lat="38.10573678059851" lon="15.845015779063685"><ele>1377.6</ele><time>2026-04-14T13:54:03.999Z</time></trkpt><trkpt lat="38.105823108313004" lon="15.844974127959812"><ele>1371.2</ele><time>2026-04-14T13:54:04.999Z</time></trkpt><trkpt lat="38.10592393299437" lon="15.844969467788163"><ele>1364.8</ele><time>2026-04-14T13:54:05.999Z</time></trkpt><trkpt lat="38.10602103768961" lon="15.84498418371278"><ele>1358.3999999999999</ele><time>2026-04-14T13:54:06.999Z</time></trkpt><trkpt lat="38.10612077419998" lon="15.84499515410544"><ele>1352.0</ele><time>2026-04-14T13:54:07.999Z</time></trkpt><trkpt lat="38.10621730629985" lon="15.84497841289019"><ele>1352.0</ele><time>2026-04-14T13:54:08.999Z</time></trkpt><trkpt lat="38.106311786180605" lon="15.844941044245834"><ele>1352.0</ele><time>2026-04-14T13:54:09.999Z</time></trkpt><trkpt lat="38.106406223465356" lon="15.844901798669227"><ele>1352.0</ele><time>2026-04-14T13:54:10.999Z</time></trkpt><trkpt lat="38.106502415295466" lon="15.844899629188884"><ele>1352.0</ele><time>2026-04-14T13:54:11.999Z</time></trkpt><trkpt lat="38.10658790282121" lon="15.844920107087752"><ele>1352.0</ele><time>2026-04-14T13:54:12.999Z</time></trkpt><trkpt lat="38.106680525308185" lon="15.844959491331467"><ele>1348.6</ele><time>2026-04-14T13:54:13.999Z</time></trkpt><trkpt lat="38.10676361046996" lon="15.845014755791562"><ele>1345.1999999999998</ele><time>2026-04-14T13:54:14.999Z</time></trkpt><trkpt lat="38.10684219547206" lon="15.845086905627657"><ele>1341.8</ele><time>2026-04-14T13:54:15.999Z</time></trkpt><trkpt lat="38.10692646972989" lon="15.845176603810991"><ele>1338.4</ele><time>2026-04-14T13:54:16.999Z</time></trkpt><trkpt lat="38.10700837580332" lon="15.845279698206992"><ele>1335.0</ele><time>2026-04-14T13:54:17.999Z</time></trkpt><trkpt lat="38.107083350861124" lon="15.84539537403639"><ele>1345.5</ele><time>2026-04-14T13:54:18.999Z</time></trkpt><trkpt lat="38.10715410145459" lon="15.845519506105708"><ele>1356.0</ele><time>2026-04-14T13:54:19.999Z</time></trkpt><trkpt lat="38.10722483940682" lon="15.845646531490399"><ele>1366.5</ele><time>2026-04-14T13:54:20.999Z</time></trkpt><trkpt lat="38.10728991907082" lon="15.845767756052716"><ele>1377.0</ele><time>2026-04-14T13:54:21.999Z</time></trkpt><trkpt lat="38.107338306119345" lon="15.845885727454913"><ele>1378.8</ele><time>2026-04-14T13:54:22.999Z</time></trkpt><trkpt lat="38.10737310986152" lon="15.846022934138215"><ele>1380.6</ele><time>2026-04-14T13:54:23.999Z</time></trkpt><trkpt lat="38.10739230288953" lon="15.846167590238363"><ele>1382.3999999999999</ele><time>2026-04-14T13:54:25Z</time></trkpt><trkpt lat="38.10739303514304" lon="15.846316234606164"><ele>1384.1999999999998</ele><time>2026-04-14T13:54:26Z</time></trkpt><trkpt lat="38.10738547881424" lon="15.84644360978517"><ele>1386.0</ele><time>2026-04-14T13:54:27Z</time></trkpt><trkpt lat="38.10736483993059" lon="15.846546872464316"><ele>1386.0</ele><time>2026-04-14T13:54:28Z</time></trkpt><trkpt lat="38.10732190722797" lon="15.846638286957667"><ele>1386.0</ele><time>2026-04-14T13:54:29Z</time></trkpt><trkpt lat="38.10725948412839" lon="15.846720488697692"><ele>1386.0</ele><time>2026-04-14T13:54:30Z</time></trkpt><trkpt lat="38.107186672148416" lon="15.846807274966404"><ele>1386.0</ele><time>2026-04-14T13:54:31Z</time></trkpt><trkpt lat="38.107125470125524" lon="15.846904991089712"><ele>1386.0</ele><time>2026-04-14T13:54:32Z</time></trkpt><trkpt lat="38.10708655489797" lon="15.847021433896828"><ele>1384.4</ele><time>2026-04-14T13:54:33Z</time></trkpt><trkpt lat="38.10706614907162" lon="15.847154348060085"><ele>1382.8</ele><time>2026-04-14T13:54:34Z</time></trkpt><trkpt lat="38.107045165170085" lon="15.847283514218816"><ele>1381.2</ele><time>2026-04-14T13:54:35Z</time></trkpt><trkpt lat="38.10701498976436" lon="15.84738754600241"><ele>1379.6000000000001</ele><time>2026-04-14T13:54:36Z</time></trkpt><trkpt lat="38.106996165908456" lon="15.847487494273818"><ele>1378.0</ele><time>2026-04-14T13:54:37Z</time></trkpt><trkpt lat="38.106997957200356" lon="15.847578718780442"><ele>1377.5</ele><time>2026-04-14T13:54:38Z</time></trkpt><trkpt lat="38.10702012720657" lon="15.847664518898263"><ele>1377.0</ele><time>2026-04-14T13:54:39Z</time></trkpt><trkpt lat="38.1070584736621" lon="15.847743461175792"><ele>1376.5</ele><time>2026-04-14T13:54:40Z</time></trkpt><trkpt lat="38.10711306219893" lon="15.847811682173665"><ele>1376.0</ele><time>2026-04-14T13:54:41Z</time></trkpt><trkpt lat="38.10718991168634" lon="15.847860095385858"><ele>1375.5</ele><time>2026-04-14T13:54:42Z</time></trkpt><trkpt lat="38.10726942309321" lon="15.847874053786407"><ele>1375.0</ele><time>2026-04-14T13:54:43Z</time></trkpt><trkpt lat="38.10734670795347" lon="15.84786291544395"><ele>1375.0</ele><time>2026-04-14T13:54:44Z</time></trkpt><trkpt lat="38.107409518664866" lon="15.847828735799595"><ele>1375.0</ele><time>2026-04-14T13:54:45Z</time></trkpt><trkpt lat="38.10748219650701" lon="15.847774978785697"><ele>1375.0</ele><time>2026-04-14T13:54:46Z</time></trkpt><trkpt lat="38.10757563040643" lon="15.847712023725588"><ele>1375.0</ele><time>2026-04-14T13:54:47Z</time></trkpt><trkpt lat="38.10768986337621" lon="15.847658239332715"><ele>1375.0</ele><time>2026-04-14T13:54:48Z</time></trkpt><trkpt lat="38.10781523287127" lon="15.847611869487867"><ele>1369.25</ele><time>2026-04-14T13:54:49Z</time></trkpt><trkpt lat="38.10794531121439" lon="15.84755166828957"><ele>1363.5</ele><time>2026-04-14T13:54:50Z</time></trkpt><trkpt lat="38.10806315021046" lon="15.847490354989336"><ele>1357.75</ele><time>2026-04-14T13:54:51Z</time></trkpt><trkpt lat="38.108178615650544" lon="15.847439890254545"><ele>1352.0</ele><time>2026-04-14T13:54:52Z</time></trkpt><trkpt lat="38.10828106729083" lon="15.847386279197554"><ele>1352.0</ele><time>2026-04-14T13:54:53Z</time></trkpt><trkpt lat="38.10836459424292" lon="15.847300883630421"><ele>1352.0</ele><time>2026-04-14T13:54:54Z</time></trkpt><trkpt lat="38.10842952727208" lon="15.847189353488753"><ele>1352.0</ele><time>2026-04-14T13:54:55Z</time></trkpt><trkpt lat="38.108488228300004" lon="15.847070703080181"><ele>1352.0</ele><time>2026-04-14T13:54:56Z</time></trkpt><trkpt lat="38.10856593724539" lon="15.846969379038883"><ele>1352.0</ele><time>2026-04-14T13:54:57Z</time></trkpt><trkpt lat="38.10868063068926" lon="15.84688036479837"><ele>1353.0</ele><time>2026-04-14T13:54:58Z</time></trkpt><trkpt lat="38.108830715446175" lon="15.84678125366828"><ele>1354.0</ele><time>2026-04-14T13:54:59Z</time></trkpt><trkpt lat="38.10897041021999" lon="15.8466711083655"><ele>1355.0</ele><time>2026-04-14T13:55:00Z</time></trkpt><trkpt lat="38.10909630109143" lon="15.846570761717242"><ele>1355.0</ele><time>2026-04-14T13:55:00.999Z</time></trkpt><trkpt lat="38.10919633079481" lon="15.846489050706614"><ele>1355.0</ele><time>2026-04-14T13:55:01.999Z</time></trkpt><trkpt lat="38.109268452386765" lon="15.846408574458076"><ele>1355.0</ele><time>2026-04-14T13:55:02.999Z</time></trkpt><trkpt lat="38.109330742134254" lon="15.846316489841628"><ele>1355.0</ele><time>2026-04-14T13:55:03.999Z</time></trkpt><trkpt lat="38.10935880042381" lon="15.846183044998787"><ele>1355.0</ele><time>2026-04-14T13:55:04.999Z</time></trkpt><trkpt lat="38.109381010953506" lon="15.846051952451296"><ele>1355.0</ele><time>2026-04-14T13:55:05.999Z</time></trkpt><trkpt lat="38.10942145832382" lon="15.845963043252103"><ele>1355.0</ele><time>2026-04-14T13:55:06.999Z</time></trkpt><trkpt lat="38.10949054934438" lon="15.845909458192766"><ele>1355.0</ele><time>2026-04-14T13:55:07.999Z</time></trkpt><trkpt lat="38.10957991936489" lon="15.845888298828182"><ele>1355.0</ele><time>2026-04-14T13:55:08.999Z</time></trkpt><trkpt lat="38.10967308352475" lon="15.845902339521809"><ele>1355.0</ele><time>2026-04-14T13:55:09.999Z</time></trkpt><trkpt lat="38.109785553446216" lon="15.845934473048333"><ele>1355.0</ele><time>2026-04-14T13:55:10.999Z</time></trkpt><trkpt lat="38.10987238952548" lon="15.845967610808884"><ele>1355.0</ele><time>2026-04-14T13:55:11.999Z</time></trkpt><trkpt lat="38.10993835114489" lon="15.84599183034961"><ele>1355.0</ele><time>2026-04-14T13:55:12.999Z</time></trkpt><trkpt lat="38.11000548537846" lon="15.845982331136593"><ele>1355.0</ele><time>2026-04-14T13:55:13.999Z</time></trkpt><trkpt lat="38.1100580514724" lon="15.845928836071623"><ele>1355.0</ele><time>2026-04-14T13:55:14.999Z</time></trkpt><trkpt lat="38.11009833681446" lon="15.84584351686276"><ele>1355.0</ele><time>2026-04-14T13:55:15.999Z</time></trkpt><trkpt lat="38.11012160013853" lon="15.845731900867937"><ele>1355.75</ele><time>2026-04-14T13:55:16.999Z</time></trkpt><trkpt lat="38.110125005711545" lon="15.845593799960843"><ele>1356.5</ele><time>2026-04-14T13:55:17.999Z</time></trkpt><trkpt lat="38.11012903608997" lon="15.845437722256682"><ele>1357.25</ele><time>2026-04-14T13:55:18.999Z</time></trkpt><trkpt lat="38.11013836370072" lon="15.845272833974503"><ele>1358.0</ele><time>2026-04-14T13:55:19.999Z</time></trkpt><trkpt lat="38.11013080295011" lon="15.845110680653306"><ele>1359.0</ele><time>2026-04-14T13:55:20.999Z</time></trkpt><trkpt lat="38.110101302342336" lon="15.844955232705459"><ele>1360.0</ele><time>2026-04-14T13:55:21.999Z</time></trkpt><trkpt lat="38.110058409735764" lon="15.844806334992946"><ele>1361.0</ele><time>2026-04-14T13:55:22.999Z</time></trkpt><trkpt lat="38.11000086894889" lon="15.84468090794099"><ele>1362.0</ele><time>2026-04-14T13:55:24Z</time></trkpt><trkpt lat="38.109922238988204" lon="15.844585969167303"><ele>1364.0</ele><time>2026-04-14T13:55:25Z</time></trkpt><trkpt lat="38.109816550074626" lon="15.844510434828731"><ele>1366.0</ele><time>2026-04-14T13:55:26Z</time></trkpt><trkpt lat="38.10971170759364" lon="15.84442447354862"><ele>1368.0</ele><time>2026-04-14T13:55:27Z</time></trkpt><trkpt lat="38.10961025421163" lon="15.844323133864313"><ele>1370.0</ele><time>2026-04-14T13:55:28Z</time></trkpt><trkpt lat="38.10950425984931" lon="15.844219370043092"><ele>1370.0</ele><time>2026-04-14T13:55:29Z</time></trkpt><trkpt lat="38.10939410170038" lon="15.84413854278313"><ele>1370.0</ele><time>2026-04-14T13:55:30Z</time></trkpt><trkpt lat="38.1092862778059" lon="15.84406749480889"><ele>1370.0</ele><time>2026-04-14T13:55:31Z</time></trkpt><trkpt lat="38.109188829728296" lon="15.843978091788392"><ele>1370.0</ele><time>2026-04-14T13:55:32Z</time></trkpt><trkpt lat="38.109110755640266" lon="15.843875716045666"><ele>1364.2</ele><time>2026-04-14T13:55:33Z</time></trkpt><trkpt lat="38.10904692423709" lon="15.84378776525687"><ele>1358.4</ele><time>2026-04-14T13:55:34Z</time></trkpt><trkpt lat="38.10899067064667" lon="15.843702894343881"><ele>1352.6</ele><time>2026-04-14T13:55:35Z</time></trkpt><trkpt lat="38.10895098632073" lon="15.843596165300458"><ele>1346.8</ele><time>2026-04-14T13:55:36Z</time></trkpt><trkpt lat="38.10893151719993" lon="15.84346824802263"><ele>1341.0</ele><time>2026-04-14T13:55:37Z</time></trkpt><trkpt lat="38.10892216205946" lon="15.843348573050948"><ele>1341.0</ele><time>2026-04-14T13:55:38Z</time></trkpt><trkpt lat="38.10891544785237" lon="15.843221566270534"><ele>1341.0</ele><time>2026-04-14T13:55:39Z</time></trkpt><trkpt lat="38.10891013275263" lon="15.843097441455868"><ele>1341.0</ele><time>2026-04-14T13:55:40Z</time></trkpt><trkpt lat="38.10889624603572" lon="15.842993972034863"><ele>1341.0</ele><time>2026-04-14T13:55:41Z</time></trkpt><trkpt lat="38.108881545114635" lon="15.842882883498683"><ele>1341.0</ele><time>2026-04-14T13:55:42Z</time></trkpt><trkpt lat="38.10883926009546" lon="15.842783995892791"><ele>1341.0</ele><time>2026-04-14T13:55:43Z</time></trkpt><trkpt lat="38.10880428979378" lon="15.842674788119925"><ele>1341.0</ele><time>2026-04-14T13:55:44Z</time></trkpt><trkpt lat="38.10874960441287" lon="15.842575024001803"><ele>1341.0</ele><time>2026-04-14T13:55:45Z</time></trkpt><trkpt lat="38.10869181022139" lon="15.842475727984798"><ele>1341.0</ele><time>2026-04-14T13:55:46Z</time></trkpt><trkpt lat="38.10862165664574" lon="15.842388752231846"><ele>1341.0</ele><time>2026-04-14T13:55:47Z</time></trkpt><trkpt lat="38.108547243768015" lon="15.842305329925841"><ele>1345.1999999999998</ele><time>2026-04-14T13:55:48Z</time></trkpt><trkpt lat="38.10847502397154" lon="15.84221856216758"><ele>1349.3999999999999</ele><time>2026-04-14T13:55:49Z</time></trkpt><trkpt lat="38.10842947311974" lon="15.84212056992102"><ele>1353.6</ele><time>2026-04-14T13:55:50Z</time></trkpt><trkpt lat="38.108403569150774" lon="15.842011891765026"><ele>1357.8</ele><time>2026-04-14T13:55:51Z</time></trkpt><trkpt lat="38.108388107665434" lon="15.841894107921322"><ele>1362.0</ele><time>2026-04-14T13:55:52Z</time></trkpt><trkpt lat="38.10837417942858" lon="15.841773925431783"><ele>1364.5</ele><time>2026-04-14T13:55:53Z</time></trkpt><trkpt lat="38.108356546595765" lon="15.84165544186821"><ele>1367.0</ele><time>2026-04-14T13:55:54Z</time></trkpt><trkpt lat="38.108337393899966" lon="15.84154277273727"><ele>1369.5</ele><time>2026-04-14T13:55:55Z</time></trkpt><trkpt lat="38.10834537140146" lon="15.841443268254547"><ele>1372.0</ele><time>2026-04-14T13:55:56Z</time></trkpt><trkpt lat="38.10837360512823" lon="15.841355509103387"><ele>1374.5</ele><time>2026-04-14T13:55:57Z</time></trkpt><trkpt lat="38.10842320267318" lon="15.841293404081252"><ele>1377.0</ele><time>2026-04-14T13:55:58Z</time></trkpt><trkpt lat="38.10848654099206" lon="15.841263849336741"><ele>1377.0</ele><time>2026-04-14T13:55:59Z</time></trkpt><trkpt lat="38.10856414106253" lon="15.841284529394423"><ele>1377.0</ele><time>2026-04-14T13:56:00Z</time></trkpt><trkpt lat="38.10864687920072" lon="15.841334132126017"><ele>1377.0</ele><time>2026-04-14T13:56:01Z</time></trkpt><trkpt lat="38.10873613928083" lon="15.841380216175383"><ele>1377.0</ele><time>2026-04-14T13:56:02Z</time></trkpt><trkpt lat="38.10882884285768" lon="15.841412902756216"><ele>1377.0</ele><time>2026-04-14T13:56:03Z</time></trkpt><trkpt lat="38.10892980514861" lon="15.841449081340379"><ele>1377.0</ele><time>2026-04-14T13:56:04Z</time></trkpt><trkpt lat="38.10903052137317" lon="15.841492990251801"><ele>1377.0</ele><time>2026-04-14T13:56:05Z</time></trkpt><trkpt lat="38.10912801068867" lon="15.841530582334462"><ele>1377.0</ele><time>2026-04-14T13:56:06Z</time></trkpt><trkpt lat="38.10922695568648" lon="15.841561417646819"><ele>1377.0</ele><time>2026-04-14T13:56:07Z</time></trkpt><trkpt lat="38.10932322175353" lon="15.841581130926606"><ele>1377.0</ele><time>2026-04-14T13:56:08Z</time></trkpt><trkpt lat="38.10942097793625" lon="15.841581360431734"><ele>1379.6</ele><time>2026-04-14T13:56:09Z</time></trkpt><trkpt lat="38.10951848650954" lon="15.84156323961508"><ele>1382.1999999999998</ele><time>2026-04-14T13:56:10Z</time></trkpt><trkpt lat="38.10961680698377" lon="15.841515608647313"><ele>1384.8</ele><time>2026-04-14T13:56:11Z</time></trkpt><trkpt lat="38.10970036350435" lon="15.841451897507053"><ele>1387.4</ele><time>2026-04-14T13:56:12Z</time></trkpt><trkpt lat="38.10975681878409" lon="15.841355610546508"><ele>1390.0</ele><time>2026-04-14T13:56:13Z</time></trkpt><trkpt lat="38.10979343326415" lon="15.841245167384292"><ele>1390.0</ele><time>2026-04-14T13:56:14Z</time></trkpt><trkpt lat="38.10980282648235" lon="15.841126507820306"><ele>1390.0</ele><time>2026-04-14T13:56:15Z</time></trkpt><trkpt lat="38.10979663407976" lon="15.840997427424726"><ele>1390.0</ele><time>2026-04-14T13:56:16Z</time></trkpt><trkpt lat="38.109806425400755" lon="15.840879207045958"><ele>1390.0</ele><time>2026-04-14T13:56:17Z</time></trkpt><trkpt lat="38.109860525831245" lon="15.840780429155286"><ele>1390.0</ele><time>2026-04-14T13:56:18Z</time></trkpt><trkpt lat="38.10992676289256" lon="15.840683961242997"><ele>1390.2</ele><time>2026-04-14T13:56:19Z</time></trkpt><trkpt lat="38.11000468012339" lon="15.840623211381127"><ele>1390.4</ele><time>2026-04-14T13:56:20Z</time></trkpt><trkpt lat="38.110108279265106" lon="15.840599182615955"><ele>1390.6</ele><time>2026-04-14T13:56:21Z</time></trkpt><trkpt lat="38.11021960728216" lon="15.840622089775515"><ele>1390.8</ele><time>2026-04-14T13:56:22Z</time></trkpt><trkpt lat="38.1103284822321" lon="15.8406594607253"><ele>1391.0</ele><time>2026-04-14T13:56:23Z</time></trkpt><trkpt lat="38.110432058004946" lon="15.84070045554862"><ele>1391.0</ele><time>2026-04-14T13:56:24Z</time></trkpt><trkpt lat="38.11051504280021" lon="15.840617156237775"><ele>1391.0</ele><time>2026-04-14T13:56:25Z</time></trkpt><trkpt lat="38.11061779287741" lon="15.8406800799337"><ele>1391.0</ele><time>2026-04-14T13:56:26Z</time></trkpt><trkpt lat="38.11071974006759" lon="15.840743766421499"><ele>1391.0</ele><time>2026-04-14T13:56:27Z</time></trkpt><trkpt lat="38.110825715303335" lon="15.840830807964684"><ele>1390.0</ele><time>2026-04-14T13:56:28Z</time></trkpt><trkpt lat="38.11091240421907" lon="15.840932979180726"><ele>1389.0</ele><time>2026-04-14T13:56:29Z</time></trkpt><trkpt lat="38.111003319958975" lon="15.841021825181707"><ele>1388.0</ele><time>2026-04-14T13:56:30Z</time></trkpt><trkpt lat="38.11109050308167" lon="15.841101413030186"><ele>1387.0</ele><time>2026-04-14T13:56:31Z</time></trkpt><trkpt lat="38.11117485197389" lon="15.841223211234226"><ele>1386.1999999999998</ele><time>2026-04-14T13:56:32Z</time></trkpt><trkpt lat="38.11125678408842" lon="15.841332325316166"><ele>1385.4</ele><time>2026-04-14T13:56:33Z</time></trkpt><trkpt lat="38.11134031678176" lon="15.841430795673064"><ele>1384.6</ele><time>2026-04-14T13:56:34Z</time></trkpt><trkpt lat="38.11142326047231" lon="15.841514463002923"><ele>1383.8000000000002</ele><time>2026-04-14T13:56:35Z</time></trkpt><trkpt lat="38.111497608396135" lon="15.841598036954075"><ele>1383.0</ele><time>2026-04-14T13:56:36Z</time></trkpt><trkpt lat="38.11158357553213" lon="15.841694147807965"><ele>1388.6000000000001</ele><time>2026-04-14T13:56:37Z</time></trkpt><trkpt lat="38.11164937322814" lon="15.841812791491824"><ele>1394.2</ele><time>2026-04-14T13:56:38Z</time></trkpt><trkpt lat="38.11171141252095" lon="15.841922662225093"><ele>1399.8</ele><time>2026-04-14T13:56:39Z</time></trkpt><trkpt lat="38.11176279321893" lon="15.842044743734883"><ele>1405.4</ele><time>2026-04-14T13:56:40Z</time></trkpt><trkpt lat="38.11180488407043" lon="15.842166342868515"><ele>1411.0</ele><time>2026-04-14T13:56:41Z</time></trkpt><trkpt lat="38.11182920208225" lon="15.842293869995311"><ele>1411.0</ele><time>2026-04-14T13:56:42Z</time></trkpt><trkpt lat="38.11186045889769" lon="15.842400723933853"><ele>1411.0</ele><time>2026-04-14T13:56:43Z</time></trkpt><trkpt lat="38.11193109300406" lon="15.842473555411239"><ele>1411.0</ele><time>2026-04-14T13:56:44Z</time></trkpt><trkpt lat="38.112021167963434" lon="15.842523132678053"><ele>1411.0</ele><time>2026-04-14T13:56:45Z</time></trkpt><trkpt lat="38.11212769393675" lon="15.842557237727611"><ele>1411.0</ele><time>2026-04-14T13:56:46Z</time></trkpt><trkpt lat="38.11224970678183" lon="15.842576293584434"><ele>1411.0</ele><time>2026-04-14T13:56:47Z</time></trkpt><trkpt lat="38.1123945565381" lon="15.84256820434476"><ele>1411.0</ele><time>2026-04-14T13:56:48Z</time></trkpt><trkpt lat="38.112526607310286" lon="15.842600916900105"><ele>1411.0</ele><time>2026-04-14T13:56:49Z</time></trkpt><trkpt lat="38.112640006415745" lon="15.842629316884599"><ele>1411.0</ele><time>2026-04-14T13:56:50Z</time></trkpt><trkpt lat="38.112750053689425" lon="15.842657141167136"><ele>1414.25</ele><time>2026-04-14T13:56:51Z</time></trkpt><trkpt lat="38.112873118608974" lon="15.842683674138799"><ele>1417.5</ele><time>2026-04-14T13:56:52Z</time></trkpt><trkpt lat="38.11298109274475" lon="15.84267992521162"><ele>1420.75</ele><time>2026-04-14T13:56:53Z</time></trkpt><trkpt lat="38.11308650229455" lon="15.842655153782045"><ele>1424.0</ele><time>2026-04-14T13:56:54Z</time></trkpt><trkpt lat="38.11319937794798" lon="15.842638423044287"><ele>1422.0</ele><time>2026-04-14T13:56:55Z</time></trkpt><trkpt lat="38.11329843136146" lon="15.842645857574038"><ele>1420.0</ele><time>2026-04-14T13:56:56Z</time></trkpt><trkpt lat="38.113426241714" lon="15.84268914436046"><ele>1418.0</ele><time>2026-04-14T13:56:57Z</time></trkpt><trkpt lat="38.1135293345931" lon="15.842761936113483"><ele>1416.0</ele><time>2026-04-14T13:56:58Z</time></trkpt><trkpt lat="38.113616916384466" lon="15.842843613250276"><ele>1416.0</ele><time>2026-04-14T13:56:59Z</time></trkpt><trkpt lat="38.11368953060102" lon="15.842906468135595"><ele>1416.0</ele><time>2026-04-14T13:57:00Z</time></trkpt><trkpt lat="38.113773083406215" lon="15.84291722621585"><ele>1416.0</ele><time>2026-04-14T13:57:01Z</time></trkpt><trkpt lat="38.11386289205252" lon="15.842879766616274"><ele>1416.0</ele><time>2026-04-14T13:57:02Z</time></trkpt><trkpt lat="38.113946383066356" lon="15.8428017134093"><ele>1416.0</ele><time>2026-04-14T13:57:03Z</time></trkpt><trkpt lat="38.114025009201946" lon="15.842736039046734"><ele>1412.6</ele><time>2026-04-14T13:57:04Z</time></trkpt><trkpt lat="38.114100050847256" lon="15.842725883835273"><ele>1409.1999999999998</ele><time>2026-04-14T13:57:05Z</time></trkpt><trkpt lat="38.11418249618338" lon="15.842779956928599"><ele>1405.8000000000002</ele><time>2026-04-14T13:57:06Z</time></trkpt><trkpt lat="38.11425126293871" lon="15.842874899659309"><ele>1402.4</ele><time>2026-04-14T13:57:07Z</time></trkpt><trkpt lat="38.114317479346724" lon="15.843005733426883"><ele>1399.0</ele><time>2026-04-14T13:57:08Z</time></trkpt><trkpt lat="38.11438071149679" lon="15.843151150552975"><ele>1399.0</ele><time>2026-04-14T13:57:09Z</time></trkpt><trkpt lat="38.11444793571351" lon="15.84326953226411"><ele>1399.0</ele><time>2026-04-14T13:57:10Z</time></trkpt><trkpt lat="38.114489667071986" lon="15.843329717100296"><ele>1399.0</ele><time>2026-04-14T13:57:10.999Z</time></trkpt><trkpt lat="38.114600325967515" lon="15.84338523463447"><ele>1399.0</ele><time>2026-04-14T13:57:12.999Z</time></trkpt><trkpt lat="38.11473533980835" lon="15.84339759052447"><ele>1399.0</ele><time>2026-04-14T13:57:14.999Z</time></trkpt><trkpt lat="38.11481731362172" lon="15.843368509885755"><ele>1396.2</ele><time>2026-04-14T13:57:15.999Z</time></trkpt><trkpt lat="38.11490702194907" lon="15.843317548495756"><ele>1393.4</ele><time>2026-04-14T13:57:16.999Z</time></trkpt><trkpt lat="38.11499376059646" lon="15.843248159452877"><ele>1390.6</ele><time>2026-04-14T13:57:17.999Z</time></trkpt><trkpt lat="38.11507053456441" lon="15.843170701594374"><ele>1387.8</ele><time>2026-04-14T13:57:18.999Z</time></trkpt><trkpt lat="38.1151468359336" lon="15.843083505822372"><ele>1385.0</ele><time>2026-04-14T13:57:19.999Z</time></trkpt><trkpt lat="38.11521070097234" lon="15.843002546118376"><ele>1385.0</ele><time>2026-04-14T13:57:20.999Z</time></trkpt><trkpt lat="38.11527801789169" lon="15.842931911369405"><ele>1385.0</ele><time>2026-04-14T13:57:21.999Z</time></trkpt><trkpt lat="38.11535835510222" lon="15.8428888188898"><ele>1385.0</ele><time>2026-04-14T13:57:22.999Z</time></trkpt><trkpt lat="38.11544563019003" lon="15.842855536181256"><ele>1385.0</ele><time>2026-04-14T13:57:23.999Z</time></trkpt><trkpt lat="38.11553264461539" lon="15.842843661322378"><ele>1385.0</ele><time>2026-04-14T13:57:24.999Z</time></trkpt><trkpt lat="38.11560957298593" lon="15.84284533000201"><ele>1385.0</ele><time>2026-04-14T13:57:25.999Z</time></trkpt><trkpt lat="38.115679127532985" lon="15.84287728486864"><ele>1386.5</ele><time>2026-04-14T13:57:26.999Z</time></trkpt><trkpt lat="38.1157435614781" lon="15.84292534865163"><ele>1388.0</ele><time>2026-04-14T13:57:27.999Z</time></trkpt><trkpt lat="38.11580889562535" lon="15.84299467467071"><ele>1389.5</ele><time>2026-04-14T13:57:28.999Z</time></trkpt><trkpt lat="38.11587420643762" lon="15.843064659670782"><ele>1391.0</ele><time>2026-04-14T13:57:30Z</time></trkpt><trkpt lat="38.11595403176682" lon="15.843128688039693"><ele>1392.5</ele><time>2026-04-14T13:57:31Z</time></trkpt><trkpt lat="38.116038745506344" lon="15.843171289143646"><ele>1394.0</ele><time>2026-04-14T13:57:32Z</time></trkpt><trkpt lat="38.11612549736143" lon="15.84317201244783"><ele>1394.0</ele><time>2026-04-14T13:57:33Z</time></trkpt><trkpt lat="38.1162348081558" lon="15.843170801857593"><ele>1394.0</ele><time>2026-04-14T13:57:34Z</time></trkpt><trkpt lat="38.11633868474955" lon="15.84316334818577"><ele>1394.0</ele><time>2026-04-14T13:57:35Z</time></trkpt><trkpt lat="38.116438230880796" lon="15.843136939861958"><ele>1394.0</ele><time>2026-04-14T13:57:36Z</time></trkpt><trkpt lat="38.11652869322962" lon="15.843084360283642"><ele>1394.0</ele><time>2026-04-14T13:57:37Z</time></trkpt><trkpt lat="38.116604995466936" lon="15.843052297383668"><ele>1390.4</ele><time>2026-04-14T13:57:38Z</time></trkpt><trkpt lat="38.11669343286457" lon="15.843049635940261"><ele>1386.8000000000002</ele><time>2026-04-14T13:57:39Z</time></trkpt><trkpt lat="38.11679335294109" lon="15.843084748541488"><ele>1383.1999999999998</ele><time>2026-04-14T13:57:40Z</time></trkpt><trkpt lat="38.11689964959229" lon="15.843151005936672"><ele>1379.6</ele><time>2026-04-14T13:57:41Z</time></trkpt><trkpt lat="38.117014516340475" lon="15.843216465758667"><ele>1376.0</ele><time>2026-04-14T13:57:42Z</time></trkpt><trkpt lat="38.11713403335607" lon="15.843282208610967"><ele>1376.0</ele><time>2026-04-14T13:57:43Z</time></trkpt><trkpt lat="38.11725191740379" lon="15.843335442706776"><ele>1376.0</ele><time>2026-04-14T13:57:44Z</time></trkpt><trkpt lat="38.117335122377696" lon="15.843397561287414"><ele>1376.0</ele><time>2026-04-14T13:57:45Z</time></trkpt><trkpt lat="38.117406631884776" lon="15.843438724408427"><ele>1376.0</ele><time>2026-04-14T13:57:46Z</time></trkpt><trkpt lat="38.117468993451425" lon="15.843460075369915"><ele>1376.0</ele><time>2026-04-14T13:57:47Z</time></trkpt><trkpt lat="38.11757890702553" lon="15.843490970732683"><ele>1375.3333333333335</ele><time>2026-04-14T13:57:49Z</time></trkpt><trkpt lat="38.117674893874124" lon="15.843432793328297"><ele>1374.6666666666667</ele><time>2026-04-14T13:57:51Z</time></trkpt><trkpt lat="38.11771211752648" lon="15.843356977300363"><ele>1374.0</ele><time>2026-04-14T13:57:52Z</time></trkpt><trkpt lat="38.11773167134706" lon="15.843259978394412"><ele>1373.3333333333333</ele><time>2026-04-14T13:57:53Z</time></trkpt><trkpt lat="38.11773343539941" lon="15.84314979794059"><ele>1372.6666666666665</ele><time>2026-04-14T13:57:54Z</time></trkpt><trkpt lat="38.117716989818604" lon="15.84303021733693"><ele>1372.0</ele><time>2026-04-14T13:57:55Z</time></trkpt><trkpt lat="38.11768455461129" lon="15.8429069033207"><ele>1372.0</ele><time>2026-04-14T13:57:56Z</time></trkpt><trkpt lat="38.11763780816812" lon="15.842792476322872"><ele>1372.0</ele><time>2026-04-14T13:57:57Z</time></trkpt><trkpt lat="38.11756376039867" lon="15.842699683451357"><ele>1372.0</ele><time>2026-04-14T13:57:58Z</time></trkpt><trkpt lat="38.117481667607144" lon="15.842623862356557"><ele>1372.0</ele><time>2026-04-14T13:57:59Z</time></trkpt><trkpt lat="38.117401295742226" lon="15.842562351006508"><ele>1372.0</ele><time>2026-04-14T13:58:00Z</time></trkpt><trkpt lat="38.11733865820661" lon="15.842469960687806"><ele>1368.5</ele><time>2026-04-14T13:58:01Z</time></trkpt><trkpt lat="38.11729306305986" lon="15.842337619807557"><ele>1365.0</ele><time>2026-04-14T13:58:02Z</time></trkpt><trkpt lat="38.11724939669537" lon="15.842163153593363"><ele>1361.5</ele><time>2026-04-14T13:58:03Z</time></trkpt><trkpt lat="38.11719620534903" lon="15.84200782956734"><ele>1358.0</ele><time>2026-04-14T13:58:04Z</time></trkpt><trkpt lat="38.11713165161" lon="15.841881324787431"><ele>1362.6000000000001</ele><time>2026-04-14T13:58:05Z</time></trkpt><trkpt lat="38.11705005440764" lon="15.841776347553994"><ele>1367.2</ele><time>2026-04-14T13:58:06Z</time></trkpt><trkpt lat="38.11696270654217" lon="15.841697950858801"><ele>1371.8</ele><time>2026-04-14T13:58:07Z</time></trkpt><trkpt lat="38.11686840997864" lon="15.8416528405579"><ele>1376.4</ele><time>2026-04-14T13:58:08Z</time></trkpt><trkpt lat="38.11677277254994" lon="15.841651257027543"><ele>1381.0</ele><time>2026-04-14T13:58:09Z</time></trkpt><trkpt lat="38.11665138964721" lon="15.841648420082704"><ele>1374.75</ele><time>2026-04-14T13:58:10Z</time></trkpt><trkpt lat="38.116506881101074" lon="15.841611287030098"><ele>1368.5</ele><time>2026-04-14T13:58:11Z</time></trkpt><trkpt lat="38.11638679563286" lon="15.841562539213701"><ele>1362.25</ele><time>2026-04-14T13:58:12Z</time></trkpt><trkpt lat="38.1162741264029" lon="15.84149157786707"><ele>1356.0</ele><time>2026-04-14T13:58:13Z</time></trkpt><trkpt lat="38.11616925018506" lon="15.84140637827712"><ele>1356.0</ele><time>2026-04-14T13:58:14Z</time></trkpt><trkpt lat="38.11606426721078" lon="15.841301781752179"><ele>1356.0</ele><time>2026-04-14T13:58:15Z</time></trkpt><trkpt lat="38.11595931872569" lon="15.841214865113498"><ele>1356.0</ele><time>2026-04-14T13:58:16Z</time></trkpt><trkpt lat="38.115866002138766" lon="15.841121837068673"><ele>1356.0</ele><time>2026-04-14T13:58:17Z</time></trkpt><trkpt lat="38.11582321715414" lon="15.841037765618156"><ele>1352.75</ele><time>2026-04-14T13:58:18Z</time></trkpt><trkpt lat="38.115785611463096" lon="15.840912364729316"><ele>1349.5</ele><time>2026-04-14T13:58:19Z</time></trkpt><trkpt lat="38.11574678316738" lon="15.840772815622213"><ele>1346.25</ele><time>2026-04-14T13:58:20Z</time></trkpt><trkpt lat="38.1156847057237" lon="15.840639322365192"><ele>1343.0</ele><time>2026-04-14T13:58:21Z</time></trkpt><trkpt lat="38.11560679149437" lon="15.84049917335314"><ele>1343.0</ele><time>2026-04-14T13:58:22Z</time></trkpt><trkpt lat="38.11551820967721" lon="15.840357740140028"><ele>1343.0</ele><time>2026-04-14T13:58:23Z</time></trkpt><trkpt lat="38.115416685426894" lon="15.840219063357516"><ele>1343.0</ele><time>2026-04-14T13:58:24Z</time></trkpt><trkpt lat="38.11531464470634" lon="15.840085823923927"><ele>1343.0</ele><time>2026-04-14T13:58:25Z</time></trkpt><trkpt lat="38.11522437543692" lon="15.839941682892857"><ele>1349.75</ele><time>2026-04-14T13:58:26Z</time></trkpt><trkpt lat="38.11514854313542" lon="15.839791511020536"><ele>1356.5</ele><time>2026-04-14T13:58:27Z</time></trkpt><trkpt lat="38.1150830622624" lon="15.83965054108037"><ele>1363.25</ele><time>2026-04-14T13:58:28Z</time></trkpt><trkpt lat="38.11503236590139" lon="15.839541133595654"><ele>1370.0</ele><time>2026-04-14T13:58:29Z</time></trkpt><trkpt lat="38.11501243528624" lon="15.83943276017755"><ele>1370.0</ele><time>2026-04-14T13:58:30Z</time></trkpt><trkpt lat="38.115017797772694" lon="15.83931991162782"><ele>1370.0</ele><time>2026-04-14T13:58:31Z</time></trkpt><trkpt lat="38.11503028130608" lon="15.839192990873467"><ele>1370.0</ele><time>2026-04-14T13:58:32Z</time></trkpt><trkpt lat="38.115063007805" lon="15.839058466057578"><ele>1370.0</ele><time>2026-04-14T13:58:33Z</time></trkpt><trkpt lat="38.11511427355693" lon="15.838938451043594"><ele>1370.0</ele><time>2026-04-14T13:58:34Z</time></trkpt><trkpt lat="38.11519944002742" lon="15.838833404715002"><ele>1370.0</ele><time>2026-04-14T13:58:35Z</time></trkpt><trkpt lat="38.11529899525187" lon="15.838746911212095"><ele>1370.0</ele><time>2026-04-14T13:58:36Z</time></trkpt><trkpt lat="38.11540551402863" lon="15.83864571043576"><ele>1370.0</ele><time>2026-04-14T13:58:37Z</time></trkpt><trkpt lat="38.115510966261056" lon="15.838547978547277"><ele>1370.0</ele><time>2026-04-14T13:58:38Z</time></trkpt><trkpt lat="38.11559315785221" lon="15.838414294776927"><ele>1370.0</ele><time>2026-04-14T13:58:39Z</time></trkpt><trkpt lat="38.11566805350116" lon="15.838272478930271"><ele>1370.0</ele><time>2026-04-14T13:58:40Z</time></trkpt><trkpt lat="38.11573204773583" lon="15.838121052854385"><ele>1370.0</ele><time>2026-04-14T13:58:41Z</time></trkpt><trkpt lat="38.11579501707716" lon="15.83798004257872"><ele>1370.0</ele><time>2026-04-14T13:58:42Z</time></trkpt><trkpt lat="38.11586766599569" lon="15.837857742208987"><ele>1377.0</ele><time>2026-04-14T13:58:43Z</time></trkpt><trkpt lat="38.11595559312118" lon="15.83776029752383"><ele>1384.0</ele><time>2026-04-14T13:58:44Z</time></trkpt><trkpt lat="38.11604377044921" lon="15.837690698953233"><ele>1391.0</ele><time>2026-04-14T13:58:45Z</time></trkpt><trkpt lat="38.11616552081301" lon="15.837659652710366"><ele>1398.0</ele><time>2026-04-14T13:58:46Z</time></trkpt><trkpt lat="38.11629843776144" lon="15.837664680866675"><ele>1398.0</ele><time>2026-04-14T13:58:47Z</time></trkpt><trkpt lat="38.116457513906376" lon="15.837710093650543"><ele>1398.0</ele><time>2026-04-14T13:58:48Z</time></trkpt><trkpt lat="38.11659499911267" lon="15.83775022801926"><ele>1398.0</ele><time>2026-04-14T13:58:49Z</time></trkpt><trkpt lat="38.11670424876978" lon="15.83775657911965"><ele>1398.0</ele><time>2026-04-14T13:58:50Z</time></trkpt><trkpt lat="38.11679397105369" lon="15.837718808758181"><ele>1401.5</ele><time>2026-04-14T13:58:51Z</time></trkpt><trkpt lat="38.11688095499391" lon="15.837644045963312"><ele>1405.0</ele><time>2026-04-14T13:58:52Z</time></trkpt><trkpt lat="38.11696453882249" lon="15.837522492880186"><ele>1408.5</ele><time>2026-04-14T13:58:53Z</time></trkpt><trkpt lat="38.11705325015548" lon="15.837378488296135"><ele>1412.0</ele><time>2026-04-14T13:58:54Z</time></trkpt><trkpt lat="38.1171417488514" lon="15.837254714643892"><ele>1404.25</ele><time>2026-04-14T13:58:55Z</time></trkpt><trkpt lat="38.11719472038082" lon="15.83709831820427"><ele>1396.5</ele><time>2026-04-14T13:58:56Z</time></trkpt><trkpt lat="38.11721848612595" lon="15.83693939868326"><ele>1388.75</ele><time>2026-04-14T13:58:57Z</time></trkpt><trkpt lat="38.11723358864307" lon="15.836813566128123"><ele>1381.0</ele><time>2026-04-14T13:58:58Z</time></trkpt><trkpt lat="38.11727775475457" lon="15.836714573132754"><ele>1381.5</ele><time>2026-04-14T13:58:59Z</time></trkpt><trkpt lat="38.11736760121843" lon="15.836622380886794"><ele>1382.0</ele><time>2026-04-14T13:59:00Z</time></trkpt><trkpt lat="38.11749448564627" lon="15.836524106913432"><ele>1382.5</ele><time>2026-04-14T13:59:01Z</time></trkpt><trkpt lat="38.11762770707793" lon="15.836440002071459"><ele>1383.0</ele><time>2026-04-14T13:59:02Z</time></trkpt><trkpt lat="38.1177650114891" lon="15.83635505246523"><ele>1383.0</ele><time>2026-04-14T13:59:03Z</time></trkpt><trkpt lat="38.11791013936537" lon="15.836265539037282"><ele>1383.0</ele><time>2026-04-14T13:59:04Z</time></trkpt><trkpt lat="38.11805819277851" lon="15.836173921354183"><ele>1383.0</ele><time>2026-04-14T13:59:05Z</time></trkpt><trkpt lat="38.118211648697375" lon="15.836084563109226"><ele>1381.75</ele><time>2026-04-14T13:59:06Z</time></trkpt><trkpt lat="38.11836132525673" lon="15.836000968292025"><ele>1380.5</ele><time>2026-04-14T13:59:07Z</time></trkpt><trkpt lat="38.11849492169001" lon="15.835920950327173"><ele>1379.25</ele><time>2026-04-14T13:59:08Z</time></trkpt><trkpt lat="38.11860807536944" lon="15.835836286594002"><ele>1378.0</ele><time>2026-04-14T13:59:09Z</time></trkpt><trkpt lat="38.11868833112563" lon="15.835729569322977"><ele>1378.0</ele><time>2026-04-14T13:59:10Z</time></trkpt><trkpt lat="38.118746490730366" lon="15.83559623506565"><ele>1378.0</ele><time>2026-04-14T13:59:11Z</time></trkpt><trkpt lat="38.118793178422344" lon="15.835454640273696"><ele>1378.0</ele><time>2026-04-14T13:59:12Z</time></trkpt><trkpt lat="38.11883290213216" lon="15.835306348122208"><ele>1378.0</ele><time>2026-04-14T13:59:13Z</time></trkpt><trkpt lat="38.11888145620622" lon="15.835174186479497"><ele>1379.0</ele><time>2026-04-14T13:59:14Z</time></trkpt><trkpt lat="38.11894890645422" lon="15.835066166849138"><ele>1380.0</ele><time>2026-04-14T13:59:15Z</time></trkpt><trkpt lat="38.119046436995085" lon="15.834987018217216"><ele>1381.0</ele><time>2026-04-14T13:59:16Z</time></trkpt><trkpt lat="38.11916888190159" lon="15.83494368245703"><ele>1382.0</ele><time>2026-04-14T13:59:17Z</time></trkpt><trkpt lat="38.119314244807526" lon="15.834921451524815"><ele>1382.0</ele><time>2026-04-14T13:59:18Z</time></trkpt><trkpt lat="38.119429268442595" lon="15.834906153695743"><ele>1382.0</ele><time>2026-04-14T13:59:18.999Z</time></trkpt><trkpt lat="38.11951707863326" lon="15.834896404925999"><ele>1382.0</ele><time>2026-04-14T13:59:19.999Z</time></trkpt><trkpt lat="38.11958775949035" lon="15.834917913789054"><ele>1382.0</ele><time>2026-04-14T13:59:20.999Z</time></trkpt><trkpt lat="38.119637404398915" lon="15.83499181129511"><ele>1382.0</ele><time>2026-04-14T13:59:21.999Z</time></trkpt><trkpt lat="38.11965755747045" lon="15.835097435198257"><ele>1382.0</ele><time>2026-04-14T13:59:22.999Z</time></trkpt><trkpt lat="38.1196290059457" lon="15.8352252174616"><ele>1386.6</ele><time>2026-04-14T13:59:23.999Z</time></trkpt><trkpt lat="38.119590025811505" lon="15.835351509913727"><ele>1391.1999999999998</ele><time>2026-04-14T13:59:24.999Z</time></trkpt><trkpt lat="38.11958539803874" lon="15.835477649426263"><ele>1395.8</ele><time>2026-04-14T13:59:25.999Z</time></trkpt><trkpt lat="38.11960943166864" lon="15.835593586356786"><ele>1400.4</ele><time>2026-04-14T13:59:26.999Z</time></trkpt><trkpt lat="38.11965030251606" lon="15.835694801744882"><ele>1405.0</ele><time>2026-04-14T13:59:27.999Z</time></trkpt><trkpt lat="38.119707745388794" lon="15.835777203086414"><ele>1405.0</ele><time>2026-04-14T13:59:28.999Z</time></trkpt><trkpt lat="38.11979126188652" lon="15.835847967869864"><ele>1405.0</ele><time>2026-04-14T13:59:29.999Z</time></trkpt><trkpt lat="38.11989135812052" lon="15.835912192002723"><ele>1405.0</ele><time>2026-04-14T13:59:30.999Z</time></trkpt><trkpt lat="38.11999147947142" lon="15.835934368020785"><ele>1405.0</ele><time>2026-04-14T13:59:31.999Z</time></trkpt><trkpt lat="38.120088941323246" lon="15.835925592826896"><ele>1405.0</ele><time>2026-04-14T13:59:32.999Z</time></trkpt><trkpt lat="38.12017836302245" lon="15.835883172386213"><ele>1405.25</ele><time>2026-04-14T13:59:33.999Z</time></trkpt><trkpt lat="38.120287736190456" lon="15.83586459567671"><ele>1405.5</ele><time>2026-04-14T13:59:34.999Z</time></trkpt><trkpt lat="38.120396705782525" lon="15.835889937423572"><ele>1405.75</ele><time>2026-04-14T13:59:36Z</time></trkpt><trkpt lat="38.12050796308169" lon="15.83593867214667"><ele>1406.0</ele><time>2026-04-14T13:59:37Z</time></trkpt><trkpt lat="38.12062314623929" lon="15.835971836741606"><ele>1406.1999999999998</ele><time>2026-04-14T13:59:38Z</time></trkpt><trkpt lat="38.120729543528846" lon="15.835981828734568"><ele>1406.3999999999999</ele><time>2026-04-14T13:59:39Z</time></trkpt><trkpt lat="38.120815751325765" lon="15.835973330340297"><ele>1406.6</ele><time>2026-04-14T13:59:40Z</time></trkpt><trkpt lat="38.12088791043965" lon="15.835926538164045"><ele>1406.8</ele><time>2026-04-14T13:59:41Z</time></trkpt><trkpt lat="38.120954848957616" lon="15.835856342507542"><ele>1407.0</ele><time>2026-04-14T13:59:42Z</time></trkpt><trkpt lat="38.12099519464277" lon="15.835755210594805"><ele>1407.0</ele><time>2026-04-14T13:59:43Z</time></trkpt><trkpt lat="38.121016098759" lon="15.835634466465574"><ele>1407.0</ele><time>2026-04-14T13:59:44Z</time></trkpt><trkpt lat="38.121026171293224" lon="15.835501006538188"><ele>1407.0</ele><time>2026-04-14T13:59:45Z</time></trkpt><trkpt lat="38.12103342189908" lon="15.835359625344532"><ele>1407.0</ele><time>2026-04-14T13:59:46Z</time></trkpt><trkpt lat="38.12105163056188" lon="15.835216887527308"><ele>1407.0</ele><time>2026-04-14T13:59:47Z</time></trkpt><trkpt lat="38.12108020238308" lon="15.835066195776902"><ele>1403.25</ele><time>2026-04-14T13:59:48Z</time></trkpt><trkpt lat="38.121123969465685" lon="15.834921302941982"><ele>1399.5</ele><time>2026-04-14T13:59:49Z</time></trkpt><trkpt lat="38.121185034837595" lon="15.834785818481391"><ele>1395.75</ele><time>2026-04-14T13:59:50Z</time></trkpt><trkpt lat="38.12125944020567" lon="15.83465588435574"><ele>1392.0</ele><time>2026-04-14T13:59:51Z</time></trkpt><trkpt lat="38.12131974129653" lon="15.834525181269543"><ele>1392.0</ele><time>2026-04-14T13:59:52Z</time></trkpt><trkpt lat="38.12135866422473" lon="15.834384375900857"><ele>1392.0</ele><time>2026-04-14T13:59:53Z</time></trkpt><trkpt lat="38.12138415602713" lon="15.834244717351483"><ele>1392.0</ele><time>2026-04-14T13:59:54Z</time></trkpt><trkpt lat="38.12140087630925" lon="15.83412134414805"><ele>1392.0</ele><time>2026-04-14T13:59:55Z</time></trkpt><trkpt lat="38.12140677148084" lon="15.83402842372252"><ele>1392.0</ele><time>2026-04-14T13:59:56Z</time></trkpt><trkpt lat="38.12141443842047" lon="15.833928082037602"><ele>1393.1999999999998</ele><time>2026-04-14T13:59:58Z</time></trkpt><trkpt lat="38.12142308726704" lon="15.833829698390293"><ele>1394.4</ele><time>2026-04-14T14:01:13Z</time></trkpt><trkpt lat="38.12140805775673" lon="15.833734358285513"><ele>1395.6</ele><time>2026-04-14T14:01:14Z</time></trkpt><trkpt lat="38.12138190338994" lon="15.83358917950634"><ele>1396.8000000000002</ele><time>2026-04-14T14:01:15Z</time></trkpt><trkpt lat="38.1213545416441" lon="15.833441227552147"><ele>1398.0</ele><time>2026-04-14T14:01:15.999Z</time></trkpt><trkpt lat="38.12133841218604" lon="15.833313108752538"><ele>1398.0</ele><time>2026-04-14T14:01:16.999Z</time></trkpt><trkpt lat="38.121327190993696" lon="15.83321048589999"><ele>1398.0</ele><time>2026-04-14T14:01:17.999Z</time></trkpt><trkpt lat="38.12133896009206" lon="15.833118354376676"><ele>1398.0</ele><time>2026-04-14T14:01:18.999Z</time></trkpt><trkpt lat="38.1213771809352" lon="15.833045962637732"><ele>1398.0</ele><time>2026-04-14T14:01:19.999Z</time></trkpt><trkpt lat="38.12144138751967" lon="15.832987357778277"><ele>1398.0</ele><time>2026-04-14T14:01:20.999Z</time></trkpt><trkpt lat="38.121532095879786" lon="15.832959315255511"><ele>1398.0</ele><time>2026-04-14T14:01:21.999Z</time></trkpt><trkpt lat="38.12163088393889" lon="15.832952844441433"><ele>1402.0</ele><time>2026-04-14T14:01:22.999Z</time></trkpt><trkpt lat="38.121737724365055" lon="15.832970995341372"><ele>1406.0</ele><time>2026-04-14T14:01:23.999Z</time></trkpt><trkpt lat="38.12184712397908" lon="15.83299163125641"><ele>1410.0</ele><time>2026-04-14T14:01:24.999Z</time></trkpt><trkpt lat="38.12195408479754" lon="15.833008267243496"><ele>1414.0</ele><time>2026-04-14T14:01:25.999Z</time></trkpt><trkpt lat="38.122059952405785" lon="15.833025993699557"><ele>1418.0</ele><time>2026-04-14T14:01:26.999Z</time></trkpt><trkpt lat="38.12216007188185" lon="15.833037750796267"><ele>1418.0</ele><time>2026-04-14T14:01:27.999Z</time></trkpt><trkpt lat="38.12225712749965" lon="15.833052371487886"><ele>1418.0</ele><time>2026-04-14T14:01:28.999Z</time></trkpt><trkpt lat="38.122345929444506" lon="15.833070414316733"><ele>1418.0</ele><time>2026-04-14T14:01:29.999Z</time></trkpt><trkpt lat="38.122437287343004" lon="15.833102628350757"><ele>1418.0</ele><time>2026-04-14T14:01:30.999Z</time></trkpt><trkpt lat="38.12253485702758" lon="15.833161517387525"><ele>1418.0</ele><time>2026-04-14T14:01:31.999Z</time></trkpt><trkpt lat="38.12261935567364" lon="15.833250762249213"><ele>1417.6000000000001</ele><time>2026-04-14T14:01:32.999Z</time></trkpt><trkpt lat="38.12268376808194" lon="15.83336190065247"><ele>1417.2</ele><time>2026-04-14T14:01:33.999Z</time></trkpt><trkpt lat="38.122732158196115" lon="15.83348950407541"><ele>1416.8</ele><time>2026-04-14T14:01:34.999Z</time></trkpt><trkpt lat="38.122766839081415" lon="15.833610148804546"><ele>1416.4</ele><time>2026-04-14T14:01:35.999Z</time></trkpt><trkpt lat="38.1227882312036" lon="15.833715454570164"><ele>1416.0</ele><time>2026-04-14T14:01:36.999Z</time></trkpt><trkpt lat="38.122845621271516" lon="15.833808130212756"><ele>1418.8333333333333</ele><time>2026-04-14T14:01:37.999Z</time></trkpt><trkpt lat="38.12286549166749" lon="15.833910558946602"><ele>1421.6666666666667</ele><time>2026-04-14T14:01:38.999Z</time></trkpt><trkpt lat="38.1229027320915" lon="15.83398913470048"><ele>1424.5</ele><time>2026-04-14T14:01:39.999Z</time></trkpt><trkpt lat="38.12296954987473" lon="15.834049795884889"><ele>1427.3333333333335</ele><time>2026-04-14T14:01:42Z</time></trkpt><trkpt lat="38.12307023872494" lon="15.834094194098375"><ele>1430.1666666666667</ele><time>2026-04-14T14:02:46Z</time></trkpt><trkpt lat="38.12313740967941" lon="15.834032895841599"><ele>1433.0</ele><time>2026-04-14T14:02:47Z</time></trkpt><trkpt lat="38.12320633221449" lon="15.834064617677328"><ele>1428.8000000000002</ele><time>2026-04-14T14:02:48Z</time></trkpt><trkpt lat="38.123286636550574" lon="15.834025499596558"><ele>1424.6</ele><time>2026-04-14T14:02:49Z</time></trkpt><trkpt lat="38.12337896583975" lon="15.833994864720648"><ele>1420.4</ele><time>2026-04-14T14:02:50Z</time></trkpt><trkpt lat="38.12347621408326" lon="15.833987818331114"><ele>1416.1999999999998</ele><time>2026-04-14T14:02:51Z</time></trkpt><trkpt lat="38.12357226528525" lon="15.834028824449982"><ele>1412.0</ele><time>2026-04-14T14:02:52Z</time></trkpt><trkpt lat="38.12366131596499" lon="15.834111017144249"><ele>1412.0</ele><time>2026-04-14T14:02:53Z</time></trkpt><trkpt lat="38.12374316645724" lon="15.834234616564885"><ele>1412.0</ele><time>2026-04-14T14:02:54Z</time></trkpt><trkpt lat="38.12382416764452" lon="15.8343760297035"><ele>1412.0</ele><time>2026-04-14T14:02:55Z</time></trkpt><trkpt lat="38.123905785566734" lon="15.834510773023533"><ele>1412.0</ele><time>2026-04-14T14:02:56Z</time></trkpt><trkpt lat="38.12398493169482" lon="15.83462590150326"><ele>1411.6</ele><time>2026-04-14T14:02:57Z</time></trkpt><trkpt lat="38.1240528831069" lon="15.83472312484457"><ele>1411.1999999999998</ele><time>2026-04-14T14:02:58Z</time></trkpt><trkpt lat="38.12411869603008" lon="15.834814179553756"><ele>1410.8</ele><time>2026-04-14T14:02:59Z</time></trkpt><trkpt lat="38.12418015976907" lon="15.834877900567717"><ele>1410.4</ele><time>2026-04-14T14:03:00Z</time></trkpt><trkpt lat="38.124242476635466" lon="15.834905501977634"><ele>1410.0</ele><time>2026-04-14T14:03:01Z</time></trkpt><trkpt lat="38.12435957152348" lon="15.834866045853051"><ele>1410.0</ele><time>2026-04-14T14:03:03Z</time></trkpt><trkpt lat="38.12441129984715" lon="15.83478702951755"><ele>1410.0</ele><time>2026-04-14T14:03:04Z</time></trkpt><trkpt lat="38.124467256836944" lon="15.834681985234612"><ele>1410.0</ele><time>2026-04-14T14:03:05Z</time></trkpt><trkpt lat="38.124521649826825" lon="15.8345502036498"><ele>1410.0</ele><time>2026-04-14T14:03:06Z</time></trkpt><trkpt lat="38.124576465481326" lon="15.834411865535268"><ele>1410.0</ele><time>2026-04-14T14:03:06.999Z</time></trkpt><trkpt lat="38.12462369325858" lon="15.834252334389078"><ele>1407.2</ele><time>2026-04-14T14:03:07.999Z</time></trkpt><trkpt lat="38.124677198449284" lon="15.834127307712448"><ele>1404.4</ele><time>2026-04-14T14:03:08.999Z</time></trkpt><trkpt lat="38.124746663574484" lon="15.834059031590307"><ele>1401.6</ele><time>2026-04-14T14:03:09.999Z</time></trkpt><trkpt lat="38.124825396211655" lon="15.834024718084775"><ele>1398.8</ele><time>2026-04-14T14:03:10.999Z</time></trkpt><trkpt lat="38.12491940609799" lon="15.834006315593511"><ele>1396.0</ele><time>2026-04-14T14:03:11.999Z</time></trkpt><trkpt lat="38.125016487899046" lon="15.834011890504902"><ele>1396.0</ele><time>2026-04-14T14:03:12.999Z</time></trkpt><trkpt lat="38.12511027108631" lon="15.8340305205877"><ele>1396.0</ele><time>2026-04-14T14:03:13.999Z</time></trkpt><trkpt lat="38.12520954924234" lon="15.834070175655782"><ele>1396.0</ele><time>2026-04-14T14:03:14.999Z</time></trkpt><trkpt lat="38.12532089843451" lon="15.834108385243406"><ele>1396.0</ele><time>2026-04-14T14:03:15.999Z</time></trkpt><trkpt lat="38.12543515727397" lon="15.834153261285806"><ele>1396.0</ele><time>2026-04-14T14:03:16.999Z</time></trkpt><trkpt lat="38.12555180974072" lon="15.834197251106191"><ele>1396.0</ele><time>2026-04-14T14:03:17.999Z</time></trkpt><trkpt lat="38.12565620884297" lon="15.834246753406603"><ele>1396.0</ele><time>2026-04-14T14:03:18.999Z</time></trkpt><trkpt lat="38.12574266172445" lon="15.834294170229239"><ele>1396.0</ele><time>2026-04-14T14:03:19.999Z</time></trkpt><trkpt lat="38.12581787866586" lon="15.834357147258283"><ele>1396.0</ele><time>2026-04-14T14:03:20.999Z</time></trkpt><trkpt lat="38.12589355690073" lon="15.834450494474607"><ele>1396.0</ele><time>2026-04-14T14:03:21.999Z</time></trkpt><trkpt lat="38.12594770029752" lon="15.834569659583822"><ele>1398.0</ele><time>2026-04-14T14:03:22.999Z</time></trkpt><trkpt lat="38.12597440589959" lon="15.834705935073645"><ele>1400.0</ele><time>2026-04-14T14:03:23.999Z</time></trkpt><trkpt lat="38.12598941825505" lon="15.83483670353176"><ele>1402.0</ele><time>2026-04-14T14:03:24.999Z</time></trkpt><trkpt lat="38.12602342062533" lon="15.834952743887786"><ele>1404.0</ele><time>2026-04-14T14:03:25.999Z</time></trkpt><trkpt lat="38.12609209217671" lon="15.835045510294686"><ele>1406.0</ele><time>2026-04-14T14:03:26.999Z</time></trkpt><trkpt lat="38.12618952294707" lon="15.835120148139476"><ele>1406.0</ele><time>2026-04-14T14:03:27.999Z</time></trkpt><trkpt lat="38.12630580883351" lon="15.835188301848191"><ele>1406.0</ele><time>2026-04-14T14:03:28.999Z</time></trkpt><trkpt lat="38.12643655248565" lon="15.835269611225394"><ele>1406.0</ele><time>2026-04-14T14:03:29.999Z</time></trkpt><trkpt lat="38.126563645593386" lon="15.835362877611727"><ele>1406.0</ele><time>2026-04-14T14:03:30.999Z</time></trkpt><trkpt lat="38.12669156884893" lon="15.835466009698175"><ele>1406.0</ele><time>2026-04-14T14:03:31.999Z</time></trkpt><trkpt lat="38.12681682971206" lon="15.835569868002244"><ele>1406.0</ele><time>2026-04-14T14:03:32.999Z</time></trkpt><trkpt lat="38.12693695327401" lon="15.835674886570468"><ele>1406.0</ele><time>2026-04-14T14:03:33.999Z</time></trkpt><trkpt lat="38.12705481114717" lon="15.835768809823225"><ele>1406.0</ele><time>2026-04-14T14:03:34.999Z</time></trkpt><trkpt lat="38.12718019641449" lon="15.83583365736246"><ele>1406.0</ele><time>2026-04-14T14:03:35.999Z</time></trkpt><trkpt lat="38.12730370835666" lon="15.835881115470631"><ele>1406.0</ele><time>2026-04-14T14:03:36.999Z</time></trkpt><trkpt lat="38.12741406963405" lon="15.835936829497589"><ele>1406.0</ele><time>2026-04-14T14:03:37.999Z</time></trkpt><trkpt lat="38.12751127748376" lon="15.835993789902002"><ele>1406.0</ele><time>2026-04-14T14:03:38.999Z</time></trkpt><trkpt lat="38.127606077389856" lon="15.836036708883562"><ele>1406.1999999999998</ele><time>2026-04-14T14:03:39.999Z</time></trkpt><trkpt lat="38.12769858591338" lon="15.836041082359186"><ele>1406.3999999999999</ele><time>2026-04-14T14:03:40.999Z</time></trkpt><trkpt lat="38.127784179295595" lon="15.83601020883439"><ele>1406.6</ele><time>2026-04-14T14:03:41.999Z</time></trkpt><trkpt lat="38.12787079398938" lon="15.835946255782689"><ele>1406.8</ele><time>2026-04-14T14:03:42.999Z</time></trkpt><trkpt lat="38.12795768840826" lon="15.835859187582672"><ele>1407.0</ele><time>2026-04-14T14:03:43.999Z</time></trkpt><trkpt lat="38.12803564028058" lon="15.835803771966702"><ele>1402.25</ele><time>2026-04-14T14:03:44.999Z</time></trkpt><trkpt lat="38.128125522649086" lon="15.835796350152041"><ele>1397.5</ele><time>2026-04-14T14:03:45.999Z</time></trkpt><trkpt lat="38.12822378556376" lon="15.835839182317963"><ele>1392.75</ele><time>2026-04-14T14:03:46.999Z</time></trkpt><trkpt lat="38.12832798038437" lon="15.835924679664313"><ele>1388.0</ele><time>2026-04-14T14:03:47.999Z</time></trkpt><trkpt lat="38.12842649538619" lon="15.836046939398907"><ele>1388.0</ele><time>2026-04-14T14:03:48.999Z</time></trkpt><trkpt lat="38.128516444930696" lon="15.836168825613637"><ele>1388.0</ele><time>2026-04-14T14:03:49.999Z</time></trkpt><trkpt lat="38.1285960682585" lon="15.836285059146125"><ele>1388.0</ele><time>2026-04-14T14:03:50.999Z</time></trkpt><trkpt lat="38.12865718094762" lon="15.836400901376779"><ele>1388.0</ele><time>2026-04-14T14:03:51.999Z</time></trkpt><trkpt lat="38.12870171348055" lon="15.83653689527228"><ele>1388.0</ele><time>2026-04-14T14:03:52.999Z</time></trkpt><trkpt lat="38.12871310583226" lon="15.836689032402072"><ele>1388.0</ele><time>2026-04-14T14:03:53.999Z</time></trkpt><trkpt lat="38.12871405409226" lon="15.836834469486417"><ele>1388.0</ele><time>2026-04-14T14:03:54.999Z</time></trkpt><trkpt lat="38.12873300979377" lon="15.83697969289888"><ele>1388.0</ele><time>2026-04-14T14:03:55.999Z</time></trkpt><trkpt lat="38.128773750604246" lon="15.837117073612406"><ele>1386.0</ele><time>2026-04-14T14:03:56.999Z</time></trkpt><trkpt lat="38.12883096896559" lon="15.837255035215666"><ele>1384.0</ele><time>2026-04-14T14:03:57.999Z</time></trkpt><trkpt lat="38.12890743500909" lon="15.837352533472961"><ele>1382.0</ele><time>2026-04-14T14:03:58.999Z</time></trkpt><trkpt lat="38.128995368140075" lon="15.837425054290508"><ele>1380.0</ele><time>2026-04-14T14:03:59.999Z</time></trkpt><trkpt lat="38.129094435471245" lon="15.837479101215852"><ele>1378.0</ele><time>2026-04-14T14:04:00.999Z</time></trkpt><trkpt lat="38.12919856289329" lon="15.837507064440077"><ele>1378.0</ele><time>2026-04-14T14:04:01.999Z</time></trkpt><trkpt lat="38.12930663862048" lon="15.83749021104554"><ele>1378.0</ele><time>2026-04-14T14:04:02.999Z</time></trkpt><trkpt lat="38.12939975031674" lon="15.837427879051821"><ele>1378.0</ele><time>2026-04-14T14:04:04Z</time></trkpt><trkpt lat="38.12948044267505" lon="15.837344697308941"><ele>1378.0</ele><time>2026-04-14T14:04:05Z</time></trkpt><trkpt lat="38.12954438961057" lon="15.837229293619128"><ele>1378.0</ele><time>2026-04-14T14:04:06Z</time></trkpt><trkpt lat="38.12960769318786" lon="15.8370884555637"><ele>1378.0</ele><time>2026-04-14T14:04:07Z</time></trkpt><trkpt lat="38.12968114430448" lon="15.836954017280531"><ele>1378.0</ele><time>2026-04-14T14:04:08Z</time></trkpt><trkpt lat="38.12976080771367" lon="15.836821671672435"><ele>1378.0</ele><time>2026-04-14T14:04:09Z</time></trkpt><trkpt lat="38.129850912546985" lon="15.836694462161939"><ele>1378.0</ele><time>2026-04-14T14:04:10Z</time></trkpt><trkpt lat="38.129936445670765" lon="15.836558646021443"><ele>1377.5</ele><time>2026-04-14T14:04:11Z</time></trkpt><trkpt lat="38.13002814170653" lon="15.836427970283186"><ele>1377.0</ele><time>2026-04-14T14:04:12Z</time></trkpt><trkpt lat="38.13012202120311" lon="15.836302900201945"><ele>1376.5</ele><time>2026-04-14T14:04:13Z</time></trkpt><trkpt lat="38.13021174082531" lon="15.836137901497162"><ele>1376.0</ele><time>2026-04-14T14:04:14Z</time></trkpt><trkpt lat="38.1302862686088" lon="15.835966324369567"><ele>1373.5</ele><time>2026-04-14T14:04:15Z</time></trkpt><trkpt lat="38.13035877960647" lon="15.835806246698908"><ele>1371.0</ele><time>2026-04-14T14:04:16Z</time></trkpt><trkpt lat="38.13042751776478" lon="15.835676117004216"><ele>1368.5</ele><time>2026-04-14T14:04:17Z</time></trkpt><trkpt lat="38.1304927414777" lon="15.835568648828541"><ele>1366.0</ele><time>2026-04-14T14:04:18Z</time></trkpt><trkpt lat="38.13057347899275" lon="15.835491197627453"><ele>1366.0</ele><time>2026-04-14T14:04:19Z</time></trkpt><trkpt lat="38.130662246236874" lon="15.835455005605679"><ele>1366.0</ele><time>2026-04-14T14:04:20Z</time></trkpt><trkpt lat="38.13076056448176" lon="15.835466733451945"><ele>1366.0</ele><time>2026-04-14T14:04:21Z</time></trkpt><trkpt lat="38.13086711116038" lon="15.835524807670216"><ele>1366.0</ele><time>2026-04-14T14:04:22Z</time></trkpt><trkpt lat="38.13097917295177" lon="15.83562294688425"><ele>1366.0</ele><time>2026-04-14T14:04:23Z</time></trkpt><trkpt lat="38.13111608348476" lon="15.835755774788302"><ele>1368.8</ele><time>2026-04-14T14:04:24Z</time></trkpt><trkpt lat="38.13123143941432" lon="15.835899722285282"><ele>1371.6</ele><time>2026-04-14T14:04:25Z</time></trkpt><trkpt lat="38.13132857236495" lon="15.835992476117553"><ele>1374.4</ele><time>2026-04-14T14:04:26Z</time></trkpt><trkpt lat="38.13140153561084" lon="15.836048977788897"><ele>1377.2</ele><time>2026-04-14T14:04:27Z</time></trkpt><trkpt lat="38.131469409506124" lon="15.836072611661322"><ele>1380.0</ele><time>2026-04-14T14:04:28Z</time></trkpt><trkpt lat="38.131548064107946" lon="15.83606773013393"><ele>1380.4</ele><time>2026-04-14T14:04:29Z</time></trkpt><trkpt lat="38.13163628838845" lon="15.836031684364926"><ele>1380.8</ele><time>2026-04-14T14:04:29.999Z</time></trkpt><trkpt lat="38.13170484541749" lon="15.835940829562265"><ele>1381.1999999999998</ele><time>2026-04-14T14:04:30.999Z</time></trkpt><trkpt lat="38.131754161365706" lon="15.835808370024496"><ele>1381.6</ele><time>2026-04-14T14:04:31.999Z</time></trkpt><trkpt lat="38.13179584626298" lon="15.835649901254369"><ele>1382.0</ele><time>2026-04-14T14:04:32.999Z</time></trkpt><trkpt lat="38.13184855853176" lon="15.835505609050166"><ele>1382.0</ele><time>2026-04-14T14:04:33.999Z</time></trkpt><trkpt lat="38.131926054582465" lon="15.835418743223471"><ele>1382.0</ele><time>2026-04-14T14:04:34.999Z</time></trkpt><trkpt lat="38.1320284378904" lon="15.83539080255417"><ele>1382.0</ele><time>2026-04-14T14:04:35.999Z</time></trkpt><trkpt lat="38.13214659840265" lon="15.835396126560754"><ele>1382.0</ele><time>2026-04-14T14:04:36.999Z</time></trkpt><trkpt lat="38.13229769178239" lon="15.835425261345756"><ele>1382.75</ele><time>2026-04-14T14:04:37.999Z</time></trkpt><trkpt lat="38.13245378582291" lon="15.83545312145092"><ele>1383.5</ele><time>2026-04-14T14:04:38.999Z</time></trkpt><trkpt lat="38.13258826239474" lon="15.835468289790569"><ele>1384.25</ele><time>2026-04-14T14:04:39.999Z</time></trkpt><trkpt lat="38.13269888295196" lon="15.835493397339661"><ele>1385.0</ele><time>2026-04-14T14:04:40.999Z</time></trkpt><trkpt lat="38.132783801294586" lon="15.835553784170719"><ele>1385.0</ele><time>2026-04-14T14:04:41.999Z</time></trkpt><trkpt lat="38.132851740024705" lon="15.835650909640758"><ele>1385.0</ele><time>2026-04-14T14:04:42.999Z</time></trkpt><trkpt lat="38.1328960317573" lon="15.835773233911691"><ele>1385.0</ele><time>2026-04-14T14:04:43.999Z</time></trkpt><trkpt lat="38.13291648122162" lon="15.83592860301889"><ele>1385.0</ele><time>2026-04-14T14:04:44.999Z</time></trkpt><trkpt lat="38.13292299427425" lon="15.836086061495523"><ele>1388.6</ele><time>2026-04-14T14:04:45.999Z</time></trkpt><trkpt lat="38.13294043226053" lon="15.836224154827764"><ele>1392.2</ele><time>2026-04-14T14:04:46.999Z</time></trkpt><trkpt lat="38.13297935861117" lon="15.83634851361229"><ele>1395.8000000000002</ele><time>2026-04-14T14:04:47.999Z</time></trkpt><trkpt lat="38.13304132185067" lon="15.836467274216938"><ele>1399.4</ele><time>2026-04-14T14:04:48.999Z</time></trkpt><trkpt lat="38.13310143008656" lon="15.836578747422411"><ele>1403.0</ele><time>2026-04-14T14:04:49.999Z</time></trkpt><trkpt lat="38.13315248440407" lon="15.836699165108758"><ele>1405.8000000000002</ele><time>2026-04-14T14:04:50.999Z</time></trkpt><trkpt lat="38.133180303066915" lon="15.836820439325816"><ele>1408.6</ele><time>2026-04-14T14:04:51.999Z</time></trkpt><trkpt lat="38.13319136588489" lon="15.836934575746001"><ele>1411.4</ele><time>2026-04-14T14:04:52.999Z</time></trkpt><trkpt lat="38.13317810660254" lon="15.837066028382146"><ele>1414.1999999999998</ele><time>2026-04-14T14:04:53.999Z</time></trkpt><trkpt lat="38.133163599812704" lon="15.837189274558026"><ele>1417.0</ele><time>2026-04-14T14:04:54.999Z</time></trkpt><trkpt lat="38.13316652991285" lon="15.837304048969736"><ele>1417.0</ele><time>2026-04-14T14:04:55.999Z</time></trkpt><trkpt lat="38.13320343643267" lon="15.837399052557247"><ele>1417.0</ele><time>2026-04-14T14:04:56.999Z</time></trkpt><trkpt lat="38.1332655122389" lon="15.837489131679343"><ele>1417.0</ele><time>2026-04-14T14:04:57.999Z</time></trkpt><trkpt lat="38.133350617767555" lon="15.837554029300032"><ele>1417.0</ele><time>2026-04-14T14:04:58.999Z</time></trkpt><trkpt lat="38.13344663252522" lon="15.837579706544174"><ele>1417.0</ele><time>2026-04-14T14:04:59.999Z</time></trkpt><trkpt lat="38.133548736919906" lon="15.83756018658924"><ele>1408.5</ele><time>2026-04-14T14:05:00.999Z</time></trkpt><trkpt lat="38.13362974569288" lon="15.837481246247654"><ele>1400.0</ele><time>2026-04-14T14:05:01.999Z</time></trkpt><trkpt lat="38.13369698429869" lon="15.837365793897959"><ele>1391.5</ele><time>2026-04-14T14:05:02.999Z</time></trkpt><trkpt lat="38.13373776605863" lon="15.837209278440907"><ele>1383.0</ele><time>2026-04-14T14:05:03.999Z</time></trkpt><trkpt lat="38.133788829135945" lon="15.83703811117357"><ele>1383.0</ele><time>2026-04-14T14:05:04.999Z</time></trkpt><trkpt lat="38.133856350279395" lon="15.836854644271076"><ele>1383.0</ele><time>2026-04-14T14:05:05.999Z</time></trkpt><trkpt lat="38.13391071855313" lon="15.836682405670722"><ele>1383.0</ele><time>2026-04-14T14:05:06.999Z</time></trkpt><trkpt lat="38.133974280164395" lon="15.836533877952773"><ele>1383.0</ele><time>2026-04-14T14:05:07.999Z</time></trkpt><trkpt lat="38.13407327262926" lon="15.836407548969333"><ele>1382.5</ele><time>2026-04-14T14:05:08.999Z</time></trkpt><trkpt lat="38.134175370864654" lon="15.83626947167056"><ele>1382.0</ele><time>2026-04-14T14:05:09.999Z</time></trkpt><trkpt lat="38.13428646125357" lon="15.836145423071939"><ele>1381.5</ele><time>2026-04-14T14:05:10.999Z</time></trkpt><trkpt lat="38.13439879158974" lon="15.836034103403101"><ele>1381.0</ele><time>2026-04-14T14:05:11.999Z</time></trkpt><trkpt lat="38.13452490192142" lon="15.835947321627184"><ele>1378.25</ele><time>2026-04-14T14:05:12.999Z</time></trkpt><trkpt lat="38.134657942061" lon="15.835887556630306"><ele>1375.5</ele><time>2026-04-14T14:05:13.999Z</time></trkpt><trkpt lat="38.13479836121552" lon="15.835859162992064"><ele>1372.75</ele><time>2026-04-14T14:05:14.999Z</time></trkpt><trkpt lat="38.13495492052118" lon="15.835874025469089"><ele>1370.0</ele><time>2026-04-14T14:05:15.999Z</time></trkpt><trkpt lat="38.135131575962106" lon="15.835911603819083"><ele>1370.0</ele><time>2026-04-14T14:05:16.999Z</time></trkpt><trkpt lat="38.13529478949147" lon="15.835948365965159"><ele>1370.0</ele><time>2026-04-14T14:05:17.999Z</time></trkpt><trkpt lat="38.13542393878861" lon="15.835987276636779"><ele>1370.0</ele><time>2026-04-14T14:05:18.999Z</time></trkpt><trkpt lat="38.135535470314245" lon="15.836035240769023"><ele>1370.0</ele><time>2026-04-14T14:05:19.999Z</time></trkpt><trkpt lat="38.13565205569185" lon="15.83611077147239"><ele>1373.25</ele><time>2026-04-14T14:05:20.999Z</time></trkpt><trkpt lat="38.13575814670881" lon="15.836219659603756"><ele>1376.5</ele><time>2026-04-14T14:05:21.999Z</time></trkpt><trkpt lat="38.135853037498336" lon="15.836356789841421"><ele>1379.75</ele><time>2026-04-14T14:05:22.999Z</time></trkpt><trkpt lat="38.13593967617416" lon="15.836495277020568"><ele>1383.0</ele><time>2026-04-14T14:05:23.999Z</time></trkpt><trkpt lat="38.136029981409926" lon="15.836610124364007"><ele>1383.0</ele><time>2026-04-14T14:05:24.999Z</time></trkpt><trkpt lat="38.136121749142326" lon="15.836688505796804"><ele>1383.0</ele><time>2026-04-14T14:05:25.999Z</time></trkpt><trkpt lat="38.13621776769983" lon="15.836721527639954"><ele>1383.0</ele><time>2026-04-14T14:05:26.999Z</time></trkpt><trkpt lat="38.13632476383045" lon="15.836722609335538"><ele>1383.0</ele><time>2026-04-14T14:05:27.999Z</time></trkpt><trkpt lat="38.13643057883385" lon="15.836687902099053"><ele>1383.0</ele><time>2026-04-14T14:05:28.999Z</time></trkpt><trkpt lat="38.13650344873937" lon="15.83661053771391"><ele>1383.0</ele><time>2026-04-14T14:05:29.999Z</time></trkpt><trkpt lat="38.13654008768951" lon="15.836511109240526"><ele>1383.0</ele><time>2026-04-14T14:05:30.999Z</time></trkpt><trkpt lat="38.13654559189219" lon="15.836393514844945"><ele>1383.0</ele><time>2026-04-14T14:05:31.999Z</time></trkpt><trkpt lat="38.13652141813985" lon="15.836265552671788"><ele>1383.0</ele><time>2026-04-14T14:05:32.999Z</time></trkpt><trkpt lat="38.1364691943109" lon="15.836136510901612"><ele>1383.0</ele><time>2026-04-14T14:05:33.999Z</time></trkpt><trkpt lat="38.13642680168079" lon="15.835978631024854"><ele>1378.0</ele><time>2026-04-14T14:05:34.999Z</time></trkpt><trkpt lat="38.13641889616631" lon="15.835798933782463"><ele>1373.0</ele><time>2026-04-14T14:05:35.999Z</time></trkpt><trkpt lat="38.136418092594404" lon="15.835630254752864"><ele>1368.0</ele><time>2026-04-14T14:05:36.999Z</time></trkpt><trkpt lat="38.13644090508623" lon="15.835487832380755"><ele>1363.0</ele><time>2026-04-14T14:05:37.999Z</time></trkpt><trkpt lat="38.136467256857586" lon="15.83536323010002"><ele>1363.0</ele><time>2026-04-14T14:05:38.999Z</time></trkpt><trkpt lat="38.136515745727024" lon="15.835263014347627"><ele>1363.0</ele><time>2026-04-14T14:05:39.999Z</time></trkpt><trkpt lat="38.13658774253659" lon="15.83518030449595"><ele>1363.0</ele><time>2026-04-14T14:05:40.999Z</time></trkpt><trkpt lat="38.13668442991381" lon="15.835123923709238"><ele>1363.0</ele><time>2026-04-14T14:05:41.999Z</time></trkpt><trkpt lat="38.13679408173767" lon="15.83509931585602"><ele>1363.0</ele><time>2026-04-14T14:05:42.999Z</time></trkpt><trkpt lat="38.13690335524447" lon="15.835113370159407"><ele>1367.0</ele><time>2026-04-14T14:05:43.999Z</time></trkpt><trkpt lat="38.13701140558221" lon="15.835166940497547"><ele>1371.0</ele><time>2026-04-14T14:05:44.999Z</time></trkpt><trkpt lat="38.137118708842806" lon="15.835254567968423"><ele>1375.0</ele><time>2026-04-14T14:05:45.999Z</time></trkpt><trkpt lat="38.137233255304714" lon="15.835366528495753"><ele>1379.0</ele><time>2026-04-14T14:05:46.999Z</time></trkpt><trkpt lat="38.13736005136604" lon="15.835465675977495"><ele>1383.3333333333335</ele><time>2026-04-14T14:05:47.999Z</time></trkpt><trkpt lat="38.137503287755955" lon="15.83554547219246"><ele>1387.6666666666667</ele><time>2026-04-14T14:05:48.999Z</time></trkpt><trkpt lat="38.13765277752491" lon="15.835591573225352"><ele>1392.0</ele><time>2026-04-14T14:05:49.999Z</time></trkpt><trkpt lat="38.13779161789214" lon="15.835619189354349"><ele>1392.0</ele><time>2026-04-14T14:05:50.999Z</time></trkpt><trkpt lat="38.13791990019031" lon="15.835648893560702"><ele>1392.0</ele><time>2026-04-14T14:05:51.999Z</time></trkpt><trkpt lat="38.13803802841967" lon="15.835675070982704"><ele>1392.0</ele><time>2026-04-14T14:05:52.999Z</time></trkpt><trkpt lat="38.13814548808293" lon="15.8356823095906"><ele>1392.0</ele><time>2026-04-14T14:05:53.999Z</time></trkpt><trkpt lat="38.13824991465754" lon="15.835668566148835"><ele>1391.6</ele><time>2026-04-14T14:05:54.999Z</time></trkpt><trkpt lat="38.13833817244833" lon="15.835628549642145"><ele>1391.1999999999998</ele><time>2026-04-14T14:05:55.999Z</time></trkpt><trkpt lat="38.13839223440324" lon="15.835548059993545"><ele>1390.8</ele><time>2026-04-14T14:05:56.999Z</time></trkpt><trkpt lat="38.13841261354675" lon="15.835437603942738"><ele>1390.4</ele><time>2026-04-14T14:05:57.999Z</time></trkpt><trkpt lat="38.138403958166975" lon="15.835296263730507"><ele>1390.0</ele><time>2026-04-14T14:05:58.999Z</time></trkpt><trkpt lat="38.1383747524467" lon="15.83515618746643"><ele>1387.5</ele><time>2026-04-14T14:05:59.999Z</time></trkpt><trkpt lat="38.13832710283628" lon="15.835003045403255"><ele>1385.0</ele><time>2026-04-14T14:06:00.999Z</time></trkpt><trkpt lat="38.13828927017175" lon="15.834838229008426"><ele>1382.5</ele><time>2026-04-14T14:06:01.999Z</time></trkpt><trkpt lat="38.13827726302963" lon="15.834677019688355"><ele>1380.0</ele><time>2026-04-14T14:06:02.999Z</time></trkpt><trkpt lat="38.138278810772" lon="15.834536176004935"><ele>1380.0</ele><time>2026-04-14T14:06:03.999Z</time></trkpt><trkpt lat="38.138285573050084" lon="15.834405538574337"><ele>1380.0</ele><time>2026-04-14T14:06:04.999Z</time></trkpt><trkpt lat="38.13830317505999" lon="15.834284440286577"><ele>1380.0</ele><time>2026-04-14T14:06:06Z</time></trkpt><trkpt lat="38.13833429447548" lon="15.83417528167898"><ele>1380.0</ele><time>2026-04-14T14:06:07Z</time></trkpt><trkpt lat="38.138384170416224" lon="15.834083596545323"><ele>1380.0</ele><time>2026-04-14T14:06:08Z</time></trkpt><trkpt lat="38.138456218166255" lon="15.834023918679126"><ele>1378.2</ele><time>2026-04-14T14:06:09Z</time></trkpt><trkpt lat="38.138541053602594" lon="15.833996054651061"><ele>1376.4</ele><time>2026-04-14T14:06:10Z</time></trkpt><trkpt lat="38.13864003183413" lon="15.833995463139937"><ele>1374.6</ele><time>2026-04-14T14:06:11Z</time></trkpt><trkpt lat="38.138739737939055" lon="15.834023145274502"><ele>1372.8</ele><time>2026-04-14T14:06:12Z</time></trkpt><trkpt lat="38.138840039542984" lon="15.834074591287408"><ele>1371.0</ele><time>2026-04-14T14:06:13Z</time></trkpt><trkpt lat="38.13894292119981" lon="15.83412017998037"><ele>1371.0</ele><time>2026-04-14T14:06:14Z</time></trkpt><trkpt lat="38.13904691517313" lon="15.834125670488323"><ele>1371.0</ele><time>2026-04-14T14:06:15Z</time></trkpt><trkpt lat="38.13914975022306" lon="15.834089830599472"><ele>1371.0</ele><time>2026-04-14T14:06:16Z</time></trkpt><trkpt lat="38.13924753170635" lon="15.834032328287442"><ele>1371.0</ele><time>2026-04-14T14:06:17Z</time></trkpt><trkpt lat="38.13934415866453" lon="15.833959070542429"><ele>1371.0</ele><time>2026-04-14T14:06:18Z</time></trkpt><trkpt lat="38.13943477535772" lon="15.833881994888701"><ele>1371.8</ele><time>2026-04-14T14:06:19Z</time></trkpt><trkpt lat="38.139521740347234" lon="15.833817513765979"><ele>1372.6</ele><time>2026-04-14T14:06:20Z</time></trkpt><trkpt lat="38.139614165520726" lon="15.833776247187197"><ele>1373.4</ele><time>2026-04-14T14:06:21Z</time></trkpt><trkpt lat="38.139710285325556" lon="15.833771316180462"><ele>1374.2</ele><time>2026-04-14T14:06:22Z</time></trkpt><trkpt lat="38.13979975789679" lon="15.833800270842277"><ele>1375.0</ele><time>2026-04-14T14:06:23Z</time></trkpt><trkpt lat="38.13988102887625" lon="15.833847677767093"><ele>1374.6666666666665</ele><time>2026-04-14T14:06:24Z</time></trkpt><trkpt lat="38.139953947241125" lon="15.833891885894454"><ele>1374.3333333333333</ele><time>2026-04-14T14:06:25Z</time></trkpt><trkpt lat="38.14002124056183" lon="15.833939481176952"><ele>1374.0</ele><time>2026-04-14T14:06:26Z</time></trkpt><trkpt lat="38.140086237185514" lon="15.833987852331243"><ele>1373.6666666666667</ele><time>2026-04-14T14:06:27Z</time></trkpt><trkpt lat="38.14014980746013" lon="15.83402730986849"><ele>1373.3333333333335</ele><time>2026-04-14T14:06:28Z</time></trkpt><trkpt lat="38.14021827768708" lon="15.83409193866967"><ele>1373.0</ele><time>2026-04-14T14:06:29Z</time></trkpt><trkpt lat="38.140286712565484" lon="15.834184119107888"><ele>1375.8000000000002</ele><time>2026-04-14T14:06:30Z</time></trkpt><trkpt lat="38.14034949869074" lon="15.834306374351995"><ele>1378.6</ele><time>2026-04-14T14:06:31Z</time></trkpt><trkpt lat="38.14039913432072" lon="15.834433946259894"><ele>1381.4</ele><time>2026-04-14T14:06:32Z</time></trkpt><trkpt lat="38.14044683433802" lon="15.83453571206164"><ele>1384.1999999999998</ele><time>2026-04-14T14:06:33Z</time></trkpt><trkpt lat="38.140518373617084" lon="15.834603285901409"><ele>1387.0</ele><time>2026-04-14T14:06:34Z</time></trkpt><trkpt lat="38.14059994702083" lon="15.834632893538387"><ele>1387.0</ele><time>2026-04-14T14:06:35Z</time></trkpt><trkpt lat="38.14068864846494" lon="15.834619007758244"><ele>1387.0</ele><time>2026-04-14T14:06:36Z</time></trkpt><trkpt lat="38.140777280915614" lon="15.834563244866732"><ele>1387.0</ele><time>2026-04-14T14:06:37Z</time></trkpt><trkpt lat="38.140863170216086" lon="15.8344831038025"><ele>1387.0</ele><time>2026-04-14T14:06:38Z</time></trkpt><trkpt lat="38.140957754244596" lon="15.83440185132436"><ele>1387.0</ele><time>2026-04-14T14:06:39Z</time></trkpt><trkpt lat="38.14106348087475" lon="15.834338791702985"><ele>1380.75</ele><time>2026-04-14T14:06:40Z</time></trkpt><trkpt lat="38.14117359769247" lon="15.834294787414164"><ele>1374.5</ele><time>2026-04-14T14:06:40.999Z</time></trkpt><trkpt lat="38.14128563827002" lon="15.834258631704987"><ele>1368.25</ele><time>2026-04-14T14:06:41.999Z</time></trkpt><trkpt lat="38.14140573716352" lon="15.834238370344723"><ele>1362.0</ele><time>2026-04-14T14:06:42.999Z</time></trkpt><trkpt lat="38.14153360092285" lon="15.83422701872045"><ele>1361.5</ele><time>2026-04-14T14:06:43.999Z</time></trkpt><trkpt lat="38.14166526397697" lon="15.834224455703671"><ele>1361.0</ele><time>2026-04-14T14:06:44.999Z</time></trkpt><trkpt lat="38.14179356140015" lon="15.834223731633637"><ele>1360.5</ele><time>2026-04-14T14:06:45.999Z</time></trkpt><trkpt lat="38.14192233030701" lon="15.834219919587724"><ele>1360.0</ele><time>2026-04-14T14:06:46.999Z</time></trkpt><trkpt lat="38.142045292530135" lon="15.834228043594877"><ele>1360.0</ele><time>2026-04-14T14:06:47.999Z</time></trkpt><trkpt lat="38.14216441996316" lon="15.83425179605483"><ele>1360.0</ele><time>2026-04-14T14:06:48.999Z</time></trkpt><trkpt lat="38.14226637532392" lon="15.834284548790128"><ele>1360.0</ele><time>2026-04-14T14:06:49.999Z</time></trkpt><trkpt lat="38.14235633716096" lon="15.834368605797472"><ele>1360.0</ele><time>2026-04-14T14:06:50.999Z</time></trkpt><trkpt lat="38.14243033914269" lon="15.834472364348041"><ele>1360.0</ele><time>2026-04-14T14:06:51.999Z</time></trkpt><trkpt lat="38.14249182927622" lon="15.834608589924706"><ele>1360.2</ele><time>2026-04-14T14:06:52.999Z</time></trkpt><trkpt lat="38.14256044870813" lon="15.83473171561341"><ele>1360.4</ele><time>2026-04-14T14:06:53.999Z</time></trkpt><trkpt lat="38.14262038970998" lon="15.834826325505063"><ele>1360.6</ele><time>2026-04-14T14:06:54.999Z</time></trkpt><trkpt lat="38.14268809840347" lon="15.834884565941383"><ele>1360.8</ele><time>2026-04-14T14:06:55.999Z</time></trkpt><trkpt lat="38.14277459162105" lon="15.834902319694844"><ele>1361.0</ele><time>2026-04-14T14:06:56.999Z</time></trkpt><trkpt lat="38.14287252888683" lon="15.834879244884066"><ele>1361.0</ele><time>2026-04-14T14:06:57.999Z</time></trkpt><trkpt lat="38.14298940381838" lon="15.834828712817778"><ele>1361.0</ele><time>2026-04-14T14:06:58.999Z</time></trkpt><trkpt lat="38.14311709060412" lon="15.834787259000283"><ele>1361.0</ele><time>2026-04-14T14:06:59.999Z</time></trkpt><trkpt lat="38.143247906290256" lon="15.834772077721587"><ele>1361.0</ele><time>2026-04-14T14:07:00.999Z</time></trkpt><trkpt lat="38.14339817350785" lon="15.834799591041238"><ele>1361.6666666666667</ele><time>2026-04-14T14:07:01.999Z</time></trkpt><trkpt lat="38.143561671501416" lon="15.834841083439334"><ele>1362.3333333333333</ele><time>2026-04-14T14:07:02.999Z</time></trkpt><trkpt lat="38.14370357291603" lon="15.834889560310323"><ele>1363.0</ele><time>2026-04-14T14:07:03.999Z</time></trkpt><trkpt lat="38.14384850539878" lon="15.8349616453225"><ele>1363.0</ele><time>2026-04-14T14:07:04.999Z</time></trkpt><trkpt lat="38.1439822959133" lon="15.835034731649113"><ele>1363.0</ele><time>2026-04-14T14:07:05.999Z</time></trkpt><trkpt lat="38.14411870241917" lon="15.835109741302178"><ele>1363.0</ele><time>2026-04-14T14:07:06.999Z</time></trkpt><trkpt lat="38.144246713320804" lon="15.835169471396416"><ele>1363.0</ele><time>2026-04-14T14:07:07.999Z</time></trkpt><trkpt lat="38.14437517097227" lon="15.835213438331678"><ele>1365.0</ele><time>2026-04-14T14:07:08.999Z</time></trkpt><trkpt lat="38.144492112409715" lon="15.835268058654398"><ele>1367.0</ele><time>2026-04-14T14:07:09.999Z</time></trkpt><trkpt lat="38.1446089498341" lon="15.835316394130075"><ele>1369.0</ele><time>2026-04-14T14:07:10.999Z</time></trkpt><trkpt lat="38.14471728551286" lon="15.835357690826896"><ele>1371.0</ele><time>2026-04-14T14:07:11.999Z</time></trkpt><trkpt lat="38.14479720544622" lon="15.835447665750022"><ele>1366.8</ele><time>2026-04-14T14:07:12.999Z</time></trkpt><trkpt lat="38.1448876325901" lon="15.835569438133852"><ele>1362.6</ele><time>2026-04-14T14:07:13.999Z</time></trkpt><trkpt lat="38.144962740012616" lon="15.835681816136095"><ele>1358.4</ele><time>2026-04-14T14:07:14.999Z</time></trkpt><trkpt lat="38.14503901759677" lon="15.835758665951936"><ele>1354.2</ele><time>2026-04-14T14:07:15.999Z</time></trkpt><trkpt lat="38.145121535585425" lon="15.835788347554324"><ele>1350.0</ele><time>2026-04-14T14:07:16.999Z</time></trkpt><trkpt lat="38.145214090424304" lon="15.835786945299821"><ele>1350.0</ele><time>2026-04-14T14:07:17.999Z</time></trkpt><trkpt lat="38.14529053346497" lon="15.835747392859433"><ele>1350.0</ele><time>2026-04-14T14:07:18.999Z</time></trkpt><trkpt lat="38.145353530946316" lon="15.835664719345505"><ele>1350.0</ele><time>2026-04-14T14:07:19.999Z</time></trkpt><trkpt lat="38.14539707189818" lon="15.83554872225558"><ele>1350.0</ele><time>2026-04-14T14:07:20.999Z</time></trkpt><trkpt lat="38.14544349324812" lon="15.835392712406415"><ele>1350.0</ele><time>2026-04-14T14:07:21.999Z</time></trkpt><trkpt lat="38.145481586712364" lon="15.835196730813712"><ele>1346.0</ele><time>2026-04-14T14:07:22.999Z</time></trkpt><trkpt lat="38.145516746233874" lon="15.834997779745045"><ele>1342.0</ele><time>2026-04-14T14:07:23.999Z</time></trkpt><trkpt lat="38.14553573373358" lon="15.834833635480027"><ele>1338.0</ele><time>2026-04-14T14:07:24.999Z</time></trkpt><trkpt lat="38.145566826791715" lon="15.834714082419026"><ele>1334.0</ele><time>2026-04-14T14:07:25.999Z</time></trkpt><trkpt lat="38.145615026023556" lon="15.834614911068913"><ele>1334.0</ele><time>2026-04-14T14:07:26.999Z</time></trkpt><trkpt lat="38.14569444360766" lon="15.834568624174217"><ele>1334.0</ele><time>2026-04-14T14:07:27.999Z</time></trkpt><trkpt lat="38.14580149851657" lon="15.83455207281882"><ele>1334.0</ele><time>2026-04-14T14:07:28.999Z</time></trkpt><trkpt lat="38.14592962518421" lon="15.834553694172149"><ele>1334.0</ele><time>2026-04-14T14:07:29.999Z</time></trkpt><trkpt lat="38.14603995952148" lon="15.834523330078062"><ele>1334.0</ele><time>2026-04-14T14:07:30.999Z</time></trkpt><trkpt lat="38.14613928942735" lon="15.834423114395252"><ele>1333.5</ele><time>2026-04-14T14:07:31.999Z</time></trkpt><trkpt lat="38.14620986223202" lon="15.834278468289483"><ele>1333.0</ele><time>2026-04-14T14:07:32.999Z</time></trkpt><trkpt lat="38.14627624774148" lon="15.83415682126028"><ele>1332.5</ele><time>2026-04-14T14:07:33.999Z</time></trkpt><trkpt lat="38.14635674685333" lon="15.834056712711577"><ele>1332.0</ele><time>2026-04-14T14:07:34.999Z</time></trkpt><trkpt lat="38.1464690666171" lon="15.83399909460897"><ele>1338.5</ele><time>2026-04-14T14:07:35.999Z</time></trkpt><trkpt lat="38.146594654227734" lon="15.833939218746014"><ele>1345.0</ele><time>2026-04-14T14:07:36.999Z</time></trkpt><trkpt lat="38.14669966692908" lon="15.83383155268603"><ele>1351.5</ele><time>2026-04-14T14:07:37.999Z</time></trkpt><trkpt lat="38.14677780885285" lon="15.833703944297131"><ele>1358.0</ele><time>2026-04-14T14:07:38.999Z</time></trkpt><trkpt lat="38.14684634469457" lon="15.83359785719246"><ele>1358.0</ele><time>2026-04-14T14:07:39.999Z</time></trkpt><trkpt lat="38.14690306091606" lon="15.833479754934762"><ele>1358.0</ele><time>2026-04-14T14:07:40.999Z</time></trkpt><trkpt lat="38.146940809177124" lon="15.833334210846393"><ele>1358.0</ele><time>2026-04-14T14:07:41.999Z</time></trkpt><trkpt lat="38.14693317782776" lon="15.833171732950152"><ele>1358.0</ele><time>2026-04-14T14:07:42.999Z</time></trkpt><trkpt lat="38.14693085557412" lon="15.833014539065504"><ele>1352.5</ele><time>2026-04-14T14:07:43.999Z</time></trkpt><trkpt lat="38.14692670114227" lon="15.832868002734918"><ele>1347.0</ele><time>2026-04-14T14:07:44.999Z</time></trkpt><trkpt lat="38.14694609571172" lon="15.832765900872229"><ele>1341.5</ele><time>2026-04-14T14:07:45.999Z</time></trkpt><trkpt lat="38.14706362650107" lon="15.83251118497265"><ele>1336.0</ele><time>2026-04-14T14:07:47.999Z</time></trkpt><trkpt lat="38.147162720694084" lon="15.832411590958099"><ele>1333.0</ele><time>2026-04-14T14:07:48.999Z</time></trkpt><trkpt lat="38.147282897881894" lon="15.8323063342503"><ele>1330.0</ele><time>2026-04-14T14:07:49.999Z</time></trkpt><trkpt lat="38.14741458636507" lon="15.832190343073918"><ele>1327.0</ele><time>2026-04-14T14:07:50.999Z</time></trkpt><trkpt lat="38.14751919474764" lon="15.832122234829495"><ele>1324.0</ele><time>2026-04-14T14:07:51.999Z</time></trkpt><trkpt lat="38.1475882952259" lon="15.832082395341363"><ele>1331.75</ele><time>2026-04-14T14:07:52.999Z</time></trkpt><trkpt lat="38.14766167231894" lon="15.83205370043733"><ele>1339.5</ele><time>2026-04-14T14:07:53.999Z</time></trkpt><trkpt lat="38.14777692138619" lon="15.831947388824918"><ele>1347.25</ele><time>2026-04-14T14:07:54.999Z</time></trkpt><trkpt lat="38.147905749590805" lon="15.831968163153359"><ele>1355.0</ele><time>2026-04-14T14:07:55.999Z</time></trkpt><trkpt lat="38.1480321665781" lon="15.831999468819175"><ele>1355.0</ele><time>2026-04-14T14:07:56.999Z</time></trkpt><trkpt lat="38.14815157282416" lon="15.832014792665694"><ele>1355.0</ele><time>2026-04-14T14:07:57.999Z</time></trkpt><trkpt lat="38.148247411815866" lon="15.831971852843285"><ele>1355.0</ele><time>2026-04-14T14:07:59Z</time></trkpt><trkpt lat="38.148331119065006" lon="15.831890496682588"><ele>1355.0</ele><time>2026-04-14T14:08:00Z</time></trkpt><trkpt lat="38.148398300769365" lon="15.831783877299312"><ele>1355.0</ele><time>2026-04-14T14:08:01Z</time></trkpt><trkpt lat="38.148443955433116" lon="15.831657115624163"><ele>1354.0</ele><time>2026-04-14T14:08:02Z</time></trkpt><trkpt lat="38.14849136569546" lon="15.831522106815232"><ele>1353.0</ele><time>2026-04-14T14:08:03Z</time></trkpt><trkpt lat="38.148544354798794" lon="15.831410823824113"><ele>1352.0</ele><time>2026-04-14T14:08:03.999Z</time></trkpt><trkpt lat="38.148602221121884" lon="15.831345101962354"><ele>1351.0</ele><time>2026-04-14T14:08:04.999Z</time></trkpt><trkpt lat="38.148657853522884" lon="15.831306746628384"><ele>1350.0</ele><time>2026-04-14T14:08:05.999Z</time></trkpt><trkpt lat="38.14873785639932" lon="15.831320433642933"><ele>1349.0</ele><time>2026-04-14T14:08:08Z</time></trkpt><trkpt lat="38.1487950897571" lon="15.831361567064617"><ele>1349.0</ele><time>2026-04-14T14:08:11Z</time></trkpt><trkpt lat="38.14888569002021" lon="15.831323111561213"><ele>1349.0</ele><time>2026-04-14T14:08:14Z</time></trkpt><trkpt lat="38.14895004732281" lon="15.831322109373815"><ele>1349.0</ele><time>2026-04-14T14:08:15Z</time></trkpt><trkpt lat="38.14901934731829" lon="15.831332836257868"><ele>1349.0</ele><time>2026-04-14T14:08:16Z</time></trkpt><trkpt lat="38.14909484948674" lon="15.831349710466613"><ele>1349.0</ele><time>2026-04-14T14:08:17Z</time></trkpt><trkpt lat="38.149171824779806" lon="15.831387351792676"><ele>1349.0</ele><time>2026-04-14T14:08:18Z</time></trkpt><trkpt lat="38.149239063008245" lon="15.831447257889794"><ele>1349.8000000000002</ele><time>2026-04-14T14:08:19Z</time></trkpt><trkpt lat="38.14929458777398" lon="15.831521275767527"><ele>1350.6000000000001</ele><time>2026-04-14T14:08:20Z</time></trkpt><trkpt lat="38.149350086804674" lon="15.831614756214991"><ele>1351.4</ele><time>2026-04-14T14:08:21Z</time></trkpt><trkpt lat="38.14939873166145" lon="15.83170776777498"><ele>1352.2</ele><time>2026-04-14T14:08:22Z</time></trkpt><trkpt lat="38.149459145796264" lon="15.831795450872843"><ele>1353.0</ele><time>2026-04-14T14:08:23Z</time></trkpt><trkpt lat="38.14954010431923" lon="15.831878876914224"><ele>1353.0</ele><time>2026-04-14T14:08:24Z</time></trkpt><trkpt lat="38.14962503676164" lon="15.83191808234552"><ele>1353.0</ele><time>2026-04-14T14:08:25Z</time></trkpt><trkpt lat="38.14972146425804" lon="15.831945874575185"><ele>1353.0</ele><time>2026-04-14T14:08:26Z</time></trkpt><trkpt lat="38.14984377824841" lon="15.831932139449483"><ele>1353.0</ele><time>2026-04-14T14:08:27Z</time></trkpt><trkpt lat="38.14995971368857" lon="15.831929700738241"><ele>1353.0</ele><time>2026-04-14T14:08:28Z</time></trkpt><trkpt lat="38.150073448258034" lon="15.83191390637949"><ele>1353.25</ele><time>2026-04-14T14:08:29Z</time></trkpt><trkpt lat="38.150183334523184" lon="15.831870592455187"><ele>1353.5</ele><time>2026-04-14T14:08:30Z</time></trkpt><trkpt lat="38.15028449717444" lon="15.831789539406538"><ele>1353.75</ele><time>2026-04-14T14:08:31Z</time></trkpt><trkpt lat="38.15037527136401" lon="15.831695764776862"><ele>1354.0</ele><time>2026-04-14T14:08:32Z</time></trkpt><trkpt lat="38.15046397863382" lon="15.83161772149971"><ele>1352.6</ele><time>2026-04-14T14:08:33Z</time></trkpt><trkpt lat="38.150560781384925" lon="15.831563787019466"><ele>1351.2</ele><time>2026-04-14T14:08:34Z</time></trkpt><trkpt lat="38.150664849772504" lon="15.831552535449326"><ele>1349.8</ele><time>2026-04-14T14:08:35Z</time></trkpt><trkpt lat="38.1507648678248" lon="15.831576274436678"><ele>1348.3999999999999</ele><time>2026-04-14T14:08:36Z</time></trkpt><trkpt lat="38.15086058059003" lon="15.831641643928188"><ele>1347.0</ele><time>2026-04-14T14:08:37Z</time></trkpt><trkpt lat="38.15094926792164" lon="15.831738547080446"><ele>1347.0</ele><time>2026-04-14T14:08:38Z</time></trkpt><trkpt lat="38.15102913457934" lon="15.831839239807874"><ele>1347.0</ele><time>2026-04-14T14:08:39Z</time></trkpt><trkpt lat="38.15111995058667" lon="15.831870726760528"><ele>1347.0</ele><time>2026-04-14T14:08:40Z</time></trkpt><trkpt lat="38.15122124862381" lon="15.831856167172695"><ele>1347.0</ele><time>2026-04-14T14:08:41Z</time></trkpt><trkpt lat="38.151333151288746" lon="15.831811245875267"><ele>1347.0</ele><time>2026-04-14T14:08:42Z</time></trkpt><trkpt lat="38.15143309147204" lon="15.831750023591736"><ele>1347.0</ele><time>2026-04-14T14:08:43Z</time></trkpt><trkpt lat="38.15152890537533" lon="15.831681432988422"><ele>1347.0</ele><time>2026-04-14T14:08:44Z</time></trkpt><trkpt lat="38.15161869048417" lon="15.831631882837476"><ele>1347.0</ele><time>2026-04-14T14:08:45Z</time></trkpt><trkpt lat="38.15169546726023" lon="15.831600895663936"><ele>1347.0</ele><time>2026-04-14T14:08:46Z</time></trkpt><trkpt lat="38.15179444411919" lon="15.83161617978727"><ele>1347.0</ele><time>2026-04-14T14:08:47Z</time></trkpt><trkpt lat="38.15189252758715" lon="15.831651408509362"><ele>1347.6</ele><time>2026-04-14T14:08:48Z</time></trkpt><trkpt lat="38.15200175073682" lon="15.83168462782577"><ele>1348.1999999999998</ele><time>2026-04-14T14:08:49Z</time></trkpt><trkpt lat="38.152107592723524" lon="15.831714353928405"><ele>1348.8</ele><time>2026-04-14T14:08:50Z</time></trkpt><trkpt lat="38.15221566538872" lon="15.83175070053353"><ele>1349.4</ele><time>2026-04-14T14:08:51Z</time></trkpt><trkpt lat="38.15232536676652" lon="15.831787910347044"><ele>1350.0</ele><time>2026-04-14T14:08:52Z</time></trkpt><trkpt lat="38.15243529946189" lon="15.831816313853382"><ele>1352.25</ele><time>2026-04-14T14:08:53Z</time></trkpt><trkpt lat="38.15255066983346" lon="15.831849925657185"><ele>1354.5</ele><time>2026-04-14T14:08:54Z</time></trkpt><trkpt lat="38.15266966235777" lon="15.83187853511102"><ele>1356.75</ele><time>2026-04-14T14:08:55Z</time></trkpt><trkpt lat="38.152782953788375" lon="15.831905828570303"><ele>1359.0</ele><time>2026-04-14T14:08:56Z</time></trkpt><trkpt lat="38.15289185206799" lon="15.831932888924756"><ele>1359.0</ele><time>2026-04-14T14:08:57Z</time></trkpt><trkpt lat="38.15301929643161" lon="15.831965660832838"><ele>1359.0</ele><time>2026-04-14T14:08:58Z</time></trkpt><trkpt lat="38.15316198981509" lon="15.832026930269224"><ele>1359.0</ele><time>2026-04-14T14:08:59Z</time></trkpt><trkpt lat="38.153315142491884" lon="15.832082415139155"><ele>1359.0</ele><time>2026-04-14T14:09:00Z</time></trkpt><trkpt lat="38.153462388544774" lon="15.832122224009458"><ele>1357.0</ele><time>2026-04-14T14:09:01Z</time></trkpt><trkpt lat="38.15360980552669" lon="15.83216082747167"><ele>1355.0</ele><time>2026-04-14T14:09:02Z</time></trkpt><trkpt lat="38.153739599111375" lon="15.832198742189975"><ele>1353.0</ele><time>2026-04-14T14:09:03Z</time></trkpt><trkpt lat="38.15387107732211" lon="15.832239951396144"><ele>1351.0</ele><time>2026-04-14T14:09:04Z</time></trkpt><trkpt lat="38.15400713543251" lon="15.832267813083886"><ele>1351.5</ele><time>2026-04-14T14:09:05Z</time></trkpt><trkpt lat="38.15413654432307" lon="15.832292727703605"><ele>1352.0</ele><time>2026-04-14T14:09:06Z</time></trkpt><trkpt lat="38.15426071406898" lon="15.832325345930373"><ele>1352.5</ele><time>2026-04-14T14:09:07Z</time></trkpt><trkpt lat="38.1543777400608" lon="15.832364280151335"><ele>1353.0</ele><time>2026-04-14T14:09:08Z</time></trkpt><trkpt lat="38.154497019845905" lon="15.832401346318036"><ele>1353.0</ele><time>2026-04-14T14:09:09Z</time></trkpt><trkpt lat="38.15461349355482" lon="15.832442094880816"><ele>1353.0</ele><time>2026-04-14T14:09:10Z</time></trkpt><trkpt lat="38.154725897419574" lon="15.832476260315063"><ele>1353.0</ele><time>2026-04-14T14:09:11Z</time></trkpt><trkpt lat="38.15484707502102" lon="15.83251206516638"><ele>1353.0</ele><time>2026-04-14T14:09:12Z</time></trkpt><trkpt lat="38.15496428429812" lon="15.83254404997974"><ele>1352.75</ele><time>2026-04-14T14:09:13Z</time></trkpt><trkpt lat="38.15508348184831" lon="15.832582980993624"><ele>1352.5</ele><time>2026-04-14T14:09:14Z</time></trkpt><trkpt lat="38.155206466834365" lon="15.832632820696833"><ele>1352.25</ele><time>2026-04-14T14:09:15Z</time></trkpt><trkpt lat="38.15531066146804" lon="15.832687392763367"><ele>1352.0</ele><time>2026-04-14T14:09:16Z</time></trkpt><trkpt lat="38.155408340963945" lon="15.832748830892054"><ele>1353.0</ele><time>2026-04-14T14:09:17Z</time></trkpt><trkpt lat="38.155503523215685" lon="15.832810076426242"><ele>1354.0</ele><time>2026-04-14T14:09:18Z</time></trkpt><trkpt lat="38.15560012757728" lon="15.832871067721273"><ele>1355.0</ele><time>2026-04-14T14:09:18.999Z</time></trkpt><trkpt lat="38.15569186176614" lon="15.832923401637212"><ele>1356.0</ele><time>2026-04-14T14:09:19.999Z</time></trkpt><trkpt lat="38.15578192543217" lon="15.832974930027573"><ele>1357.0</ele><time>2026-04-14T14:09:20.999Z</time></trkpt><trkpt lat="38.15587884264021" lon="15.8330206954376"><ele>1357.0</ele><time>2026-04-14T14:09:21.999Z</time></trkpt><trkpt lat="38.15597261966626" lon="15.833036467009329"><ele>1357.0</ele><time>2026-04-14T14:09:22.999Z</time></trkpt><trkpt lat="38.15606808545479" lon="15.833050088252547"><ele>1357.0</ele><time>2026-04-14T14:09:23.999Z</time></trkpt><trkpt lat="38.156171861382845" lon="15.833060800290948"><ele>1357.0</ele><time>2026-04-14T14:09:24.999Z</time></trkpt><trkpt lat="38.1562871937923" lon="15.833076976281184"><ele>1357.0</ele><time>2026-04-14T14:09:25.999Z</time></trkpt><trkpt lat="38.156399189017655" lon="15.833087770181326"><ele>1357.0</ele><time>2026-04-14T14:09:26.999Z</time></trkpt><trkpt lat="38.156513297543256" lon="15.833098471148917"><ele>1357.0</ele><time>2026-04-14T14:09:27.999Z</time></trkpt><trkpt lat="38.156622229867345" lon="15.833117528873336"><ele>1357.0</ele><time>2026-04-14T14:09:28.999Z</time></trkpt><trkpt lat="38.15672017815174" lon="15.833125115291066"><ele>1357.0</ele><time>2026-04-14T14:09:29.999Z</time></trkpt><trkpt lat="38.156819715914395" lon="15.833132823749564"><ele>1357.0</ele><time>2026-04-14T14:09:30.999Z</time></trkpt><trkpt lat="38.1569209809588" lon="15.833138440422196"><ele>1356.8</ele><time>2026-04-14T14:09:31.999Z</time></trkpt><trkpt lat="38.1570226146636" lon="15.833145278303583"><ele>1356.6</ele><time>2026-04-14T14:09:32.999Z</time></trkpt><trkpt lat="38.15712393972863" lon="15.833152763677475"><ele>1356.3999999999999</ele><time>2026-04-14T14:09:33.999Z</time></trkpt><trkpt lat="38.15722643889141" lon="15.833162638637342"><ele>1356.1999999999998</ele><time>2026-04-14T14:09:34.999Z</time></trkpt><trkpt lat="38.15732626328435" lon="15.833171315607963"><ele>1356.0</ele><time>2026-04-14T14:09:35.999Z</time></trkpt><trkpt lat="38.15743619319835" lon="15.833191618172373"><ele>1355.5</ele><time>2026-04-14T14:09:36.999Z</time></trkpt><trkpt lat="38.15754828217055" lon="15.833208162555849"><ele>1355.0</ele><time>2026-04-14T14:09:37.999Z</time></trkpt><trkpt lat="38.157660088890644" lon="15.833221040723567"><ele>1354.5</ele><time>2026-04-14T14:09:38.999Z</time></trkpt><trkpt lat="38.157775251491245" lon="15.833232082479741"><ele>1354.0</ele><time>2026-04-14T14:09:39.999Z</time></trkpt><trkpt lat="38.15788990659751" lon="15.833240290856047"><ele>1354.0</ele><time>2026-04-14T14:09:40.999Z</time></trkpt><trkpt lat="38.15800695721153" lon="15.833250360074208"><ele>1354.0</ele><time>2026-04-14T14:09:41.999Z</time></trkpt><trkpt lat="38.15812712581815" lon="15.833261048139045"><ele>1354.0</ele><time>2026-04-14T14:09:42.999Z</time></trkpt><trkpt lat="38.15824556913671" lon="15.833272950715017"><ele>1354.0</ele><time>2026-04-14T14:09:43.999Z</time></trkpt><trkpt lat="38.15836775399125" lon="15.833287834604025"><ele>1353.25</ele><time>2026-04-14T14:09:44.999Z</time></trkpt><trkpt lat="38.15849420713275" lon="15.833296156551325"><ele>1352.5</ele><time>2026-04-14T14:09:45.999Z</time></trkpt><trkpt lat="38.1586233050432" lon="15.833302945977724"><ele>1351.75</ele><time>2026-04-14T14:09:46.999Z</time></trkpt><trkpt lat="38.158756163237236" lon="15.833312083228446"><ele>1351.0</ele><time>2026-04-14T14:09:47.999Z</time></trkpt><trkpt lat="38.15888956674159" lon="15.833322245751315"><ele>1351.0</ele><time>2026-04-14T14:09:48.999Z</time></trkpt><trkpt lat="38.15902464822938" lon="15.833335575431088"><ele>1351.0</ele><time>2026-04-14T14:09:49.999Z</time></trkpt><trkpt lat="38.159164462322295" lon="15.833336744835968"><ele>1351.0</ele><time>2026-04-14T14:09:50.999Z</time></trkpt><trkpt lat="38.159303758831754" lon="15.833333569913238"><ele>1351.0</ele><time>2026-04-14T14:09:51.999Z</time></trkpt><trkpt lat="38.15945249779371" lon="15.833346014933486"><ele>1350.5</ele><time>2026-04-14T14:09:52.999Z</time></trkpt><trkpt lat="38.15960046782222" lon="15.833361060528652"><ele>1350.0</ele><time>2026-04-14T14:09:53.999Z</time></trkpt><trkpt lat="38.15974492175512" lon="15.833369915968909"><ele>1349.5</ele><time>2026-04-14T14:09:54.999Z</time></trkpt><trkpt lat="38.15989571382843" lon="15.833373929350344"><ele>1349.0</ele><time>2026-04-14T14:09:55.999Z</time></trkpt><trkpt lat="38.160040744070244" lon="15.833373371614627"><ele>1347.75</ele><time>2026-04-14T14:09:56.999Z</time></trkpt><trkpt lat="38.16017533324245" lon="15.833378061871558"><ele>1346.5</ele><time>2026-04-14T14:09:57.999Z</time></trkpt><trkpt lat="38.1602909518156" lon="15.833389225641127"><ele>1345.25</ele><time>2026-04-14T14:09:58.999Z</time></trkpt><trkpt lat="38.16040039725269" lon="15.833398955654038"><ele>1344.0</ele><time>2026-04-14T14:09:59.999Z</time></trkpt><trkpt lat="38.16051327165926" lon="15.833403092028924"><ele>1344.0</ele><time>2026-04-14T14:10:00.999Z</time></trkpt><trkpt lat="38.160628017536915" lon="15.833405956064208"><ele>1344.0</ele><time>2026-04-14T14:10:01.999Z</time></trkpt><trkpt lat="38.160741664262055" lon="15.833405589718051"><ele>1344.0</ele><time>2026-04-14T14:10:02.999Z</time></trkpt><trkpt lat="38.16085474777888" lon="15.833423009748568"><ele>1344.0</ele><time>2026-04-14T14:10:03.999Z</time></trkpt><trkpt lat="38.16095258501899" lon="15.833466906564414"><ele>1344.0</ele><time>2026-04-14T14:10:05Z</time></trkpt><trkpt lat="38.16103302282195" lon="15.833532761589952"><ele>1345.25</ele><time>2026-04-14T14:10:06Z</time></trkpt><trkpt lat="38.16109701221455" lon="15.833628673008521"><ele>1346.5</ele><time>2026-04-14T14:10:07Z</time></trkpt><trkpt lat="38.16114836453762" lon="15.833757513343647"><ele>1347.75</ele><time>2026-04-14T14:10:08Z</time></trkpt><trkpt lat="38.161188717200694" lon="15.83391015896848"><ele>1349.0</ele><time>2026-04-14T14:10:09Z</time></trkpt><trkpt lat="38.161230231348604" lon="15.834075314554156"><ele>1349.0</ele><time>2026-04-14T14:10:10Z</time></trkpt><trkpt lat="38.16129028111638" lon="15.83423265076821"><ele>1349.0</ele><time>2026-04-14T14:10:11Z</time></trkpt><trkpt lat="38.16135139981199" lon="15.83437162790435"><ele>1349.0</ele><time>2026-04-14T14:10:12Z</time></trkpt><trkpt lat="38.16141661061942" lon="15.8344924956696"><ele>1349.0</ele><time>2026-04-14T14:10:13Z</time></trkpt><trkpt lat="38.161487321592816" lon="15.834607921238954"><ele>1347.75</ele><time>2026-04-14T14:10:14Z</time></trkpt><trkpt lat="38.16156943991315" lon="15.834717860317804"><ele>1346.5</ele><time>2026-04-14T14:10:15Z</time></trkpt><trkpt lat="38.161648609966406" lon="15.834835359214175"><ele>1345.25</ele><time>2026-04-14T14:10:16Z</time></trkpt><trkpt lat="38.16170854172044" lon="15.834962990181085"><ele>1344.0</ele><time>2026-04-14T14:10:17Z</time></trkpt><trkpt lat="38.16174440666911" lon="15.835112201887714"><ele>1343.5</ele><time>2026-04-14T14:10:18Z</time></trkpt><trkpt lat="38.16176247685743" lon="15.835272143182928"><ele>1343.0</ele><time>2026-04-14T14:10:19Z</time></trkpt><trkpt lat="38.16175620025209" lon="15.83542570994442"><ele>1342.5</ele><time>2026-04-14T14:10:20Z</time></trkpt><trkpt lat="38.161736182730195" lon="15.835599866482793"><ele>1342.0</ele><time>2026-04-14T14:10:21Z</time></trkpt><trkpt lat="38.16170182295969" lon="15.83577508812643"><ele>1342.0</ele><time>2026-04-14T14:10:22Z</time></trkpt><trkpt lat="38.161655828095874" lon="15.835947894517794"><ele>1342.0</ele><time>2026-04-14T14:10:23Z</time></trkpt><trkpt lat="38.16160450180145" lon="15.83611240974136"><ele>1342.0</ele><time>2026-04-14T14:10:24Z</time></trkpt><trkpt lat="38.161558712337765" lon="15.836259727530683"><ele>1342.0</ele><time>2026-04-14T14:10:25Z</time></trkpt><trkpt lat="38.16151625995216" lon="15.836384804527862"><ele>1341.6666666666665</ele><time>2026-04-14T14:10:26Z</time></trkpt><trkpt lat="38.16148881508517" lon="15.836493909225842"><ele>1341.3333333333333</ele><time>2026-04-14T14:10:27Z</time></trkpt><trkpt lat="38.1614859518072" lon="15.836586378022822"><ele>1341.0</ele><time>2026-04-14T14:10:28Z</time></trkpt><trkpt lat="38.161519418619015" lon="15.83667136338235"><ele>1340.6666666666667</ele><time>2026-04-14T14:10:29Z</time></trkpt><trkpt lat="38.161574800500055" lon="15.836735440967365"><ele>1340.3333333333335</ele><time>2026-04-14T14:10:30Z</time></trkpt><trkpt lat="38.161653034724765" lon="15.836768456115077"><ele>1340.0</ele><time>2026-04-14T14:10:31Z</time></trkpt><trkpt lat="38.16175102932072" lon="15.83677522636606"><ele>1340.0</ele><time>2026-04-14T14:10:32Z</time></trkpt><trkpt lat="38.16185764277551" lon="15.836748912849009"><ele>1340.0</ele><time>2026-04-14T14:10:33Z</time></trkpt><trkpt lat="38.16197418388326" lon="15.836702074669205"><ele>1340.0</ele><time>2026-04-14T14:10:34Z</time></trkpt><trkpt lat="38.16208735589372" lon="15.836629050209075"><ele>1340.0</ele><time>2026-04-14T14:10:35Z</time></trkpt><trkpt lat="38.16218331321823" lon="15.836523629218508"><ele>1340.0</ele><time>2026-04-14T14:10:36Z</time></trkpt><trkpt lat="38.162255204076075" lon="15.836378204690886"><ele>1340.0</ele><time>2026-04-14T14:10:37Z</time></trkpt><trkpt lat="38.16231355201388" lon="15.836209655921197"><ele>1340.0</ele><time>2026-04-14T14:10:38Z</time></trkpt><trkpt lat="38.16238542668127" lon="15.836052657472907"><ele>1340.0</ele><time>2026-04-14T14:10:39Z</time></trkpt><trkpt lat="38.16248955436194" lon="15.835930565235511"><ele>1336.0</ele><time>2026-04-14T14:10:40Z</time></trkpt><trkpt lat="38.1626282372998" lon="15.835820952877013"><ele>1332.0</ele><time>2026-04-14T14:10:41Z</time></trkpt><trkpt lat="38.162765943448676" lon="15.835664419779539"><ele>1328.0</ele><time>2026-04-14T14:10:42Z</time></trkpt><trkpt lat="38.16288118143953" lon="15.835461493340715"><ele>1328.0</ele><time>2026-04-14T14:10:43Z</time></trkpt><trkpt lat="38.1629679258151" lon="15.83526375819152"><ele>1328.0</ele><time>2026-04-14T14:10:44Z</time></trkpt><trkpt lat="38.16304740473728" lon="15.835089531351235"><ele>1328.0</ele><time>2026-04-14T14:10:45Z</time></trkpt><trkpt lat="38.16312961844089" lon="15.83494001875176"><ele>1328.75</ele><time>2026-04-14T14:10:46Z</time></trkpt><trkpt lat="38.16321110609704" lon="15.83481373808068"><ele>1329.5</ele><time>2026-04-14T14:10:47Z</time></trkpt><trkpt lat="38.16329980579605" lon="15.834700485713638"><ele>1330.25</ele><time>2026-04-14T14:10:48Z</time></trkpt><trkpt lat="38.16341458525479" lon="15.834585924465067"><ele>1331.0</ele><time>2026-04-14T14:10:49Z</time></trkpt><trkpt lat="38.16354300014671" lon="15.834497702081391"><ele>1331.0</ele><time>2026-04-14T14:10:50Z</time></trkpt><trkpt lat="38.163677668781304" lon="15.834433722567065"><ele>1331.0</ele><time>2026-04-14T14:10:51Z</time></trkpt><trkpt lat="38.16382341390945" lon="15.834383566444917"><ele>1331.0</ele><time>2026-04-14T14:10:52Z</time></trkpt><trkpt lat="38.163976422258656" lon="15.834344193446213"><ele>1329.5</ele><time>2026-04-14T14:10:53Z</time></trkpt><trkpt lat="38.16412196195119" lon="15.834305041779329"><ele>1328.0</ele><time>2026-04-14T14:10:54Z</time></trkpt><trkpt lat="38.16425919697475" lon="15.834272742917204"><ele>1326.5</ele><time>2026-04-14T14:10:55Z</time></trkpt><trkpt lat="38.164383101059876" lon="15.834234411294288"><ele>1325.0</ele><time>2026-04-14T14:10:56Z</time></trkpt><trkpt lat="38.164490635924274" lon="15.834207735203673"><ele>1325.0</ele><time>2026-04-14T14:10:57Z</time></trkpt><trkpt lat="38.164586487700774" lon="15.834192647192202"><ele>1325.0</ele><time>2026-04-14T14:10:58Z</time></trkpt><trkpt lat="38.16467373793824" lon="15.834207696936973"><ele>1325.0</ele><time>2026-04-14T14:10:59Z</time></trkpt><trkpt lat="38.16475477031384" lon="15.83426801684518"><ele>1325.0</ele><time>2026-04-14T14:11:00Z</time></trkpt><trkpt lat="38.1648321819214" lon="15.834367209648931"><ele>1325.0</ele><time>2026-04-14T14:11:01Z</time></trkpt><trkpt lat="38.16487641879528" lon="15.834498787735873"><ele>1326.6</ele><time>2026-04-14T14:11:02Z</time></trkpt><trkpt lat="38.16488075270097" lon="15.834642142616305"><ele>1328.2</ele><time>2026-04-14T14:11:03Z</time></trkpt><trkpt lat="38.164855132009855" lon="15.834766576339595"><ele>1329.8000000000002</ele><time>2026-04-14T14:11:04Z</time></trkpt><trkpt lat="38.16485220814898" lon="15.834877913131074"><ele>1331.4</ele><time>2026-04-14T14:11:05Z</time></trkpt><trkpt lat="38.16489075771491" lon="15.83497867583443"><ele>1333.0</ele><time>2026-04-14T14:11:06Z</time></trkpt><trkpt lat="38.16495852514466" lon="15.835060893393825"><ele>1333.0</ele><time>2026-04-14T14:11:07Z</time></trkpt><trkpt lat="38.16504207051525" lon="15.835083819367517"><ele>1333.0</ele><time>2026-04-14T14:11:08Z</time></trkpt><trkpt lat="38.16512624922167" lon="15.835077106212397"><ele>1333.0</ele><time>2026-04-14T14:11:09Z</time></trkpt><trkpt lat="38.16520150779717" lon="15.835030563919728"><ele>1333.0</ele><time>2026-04-14T14:11:10Z</time></trkpt><trkpt lat="38.16527967501844" lon="15.834948834872844"><ele>1333.0</ele><time>2026-04-14T14:11:11Z</time></trkpt><trkpt lat="38.16535630739655" lon="15.834832519242985"><ele>1333.0</ele><time>2026-04-14T14:11:12Z</time></trkpt><trkpt lat="38.16543289287385" lon="15.834714234096172"><ele>1333.0</ele><time>2026-04-14T14:11:13Z</time></trkpt><trkpt lat="38.16550884326961" lon="15.8345929840787"><ele>1333.0</ele><time>2026-04-14T14:11:13.999Z</time></trkpt><trkpt lat="38.165589347035485" lon="15.834480461407301"><ele>1333.0</ele><time>2026-04-14T14:11:14.999Z</time></trkpt><trkpt lat="38.16567705361004" lon="15.834389974150147"><ele>1331.5</ele><time>2026-04-14T14:11:15.999Z</time></trkpt><trkpt lat="38.1657768605001" lon="15.834332214553845"><ele>1330.0</ele><time>2026-04-14T14:11:16.999Z</time></trkpt><trkpt lat="38.16589421261175" lon="15.834316286901245"><ele>1328.5</ele><time>2026-04-14T14:11:17.999Z</time></trkpt><trkpt lat="38.166006326978845" lon="15.834319740257069"><ele>1327.0</ele><time>2026-04-14T14:11:18.999Z</time></trkpt><trkpt lat="38.166114056078555" lon="15.834364939030179"><ele>1327.0</ele><time>2026-04-14T14:11:19.999Z</time></trkpt><trkpt lat="38.166215791471906" lon="15.83443996197703"><ele>1327.0</ele><time>2026-04-14T14:11:20.999Z</time></trkpt><trkpt lat="38.16632610373366" lon="15.834532530896869"><ele>1327.0</ele><time>2026-04-14T14:11:21.999Z</time></trkpt><trkpt lat="38.16643922520487" lon="15.834632386014196"><ele>1327.0</ele><time>2026-04-14T14:11:22.999Z</time></trkpt><trkpt lat="38.16656000443298" lon="15.834731613332224"><ele>1325.25</ele><time>2026-04-14T14:11:23.999Z</time></trkpt><trkpt lat="38.16666979690062" lon="15.834836457732786"><ele>1323.5</ele><time>2026-04-14T14:11:24.999Z</time></trkpt><trkpt lat="38.16677050838503" lon="15.834955478443469"><ele>1321.75</ele><time>2026-04-14T14:11:25.999Z</time></trkpt><trkpt lat="38.166859641369875" lon="15.835073895596668"><ele>1320.0</ele><time>2026-04-14T14:11:26.999Z</time></trkpt><trkpt lat="38.166944068097486" lon="15.835188937543917"><ele>1320.0</ele><time>2026-04-14T14:11:27.999Z</time></trkpt><trkpt lat="38.16701765366921" lon="15.835321039205162"><ele>1320.0</ele><time>2026-04-14T14:11:28.999Z</time></trkpt><trkpt lat="38.1670760796492" lon="15.835466946011003"><ele>1320.0</ele><time>2026-04-14T14:11:29.999Z</time></trkpt><trkpt lat="38.16712645271811" lon="15.835613540058409"><ele>1320.0</ele><time>2026-04-14T14:11:30.999Z</time></trkpt><trkpt lat="38.16716423914762" lon="15.835743512819317"><ele>1320.0</ele><time>2026-04-14T14:11:31.999Z</time></trkpt><trkpt lat="38.16719096846382" lon="15.835857342273037"><ele>1320.0</ele><time>2026-04-14T14:11:32.999Z</time></trkpt><trkpt lat="38.16719873878935" lon="15.83595477197517"><ele>1320.0</ele><time>2026-04-14T14:11:33.999Z</time></trkpt><trkpt lat="38.167156611341845" lon="15.836090022968605"><ele>1320.0</ele><time>2026-04-14T14:11:35.999Z</time></trkpt><trkpt lat="38.16715191882533" lon="15.836217884904633"><ele>1320.0</ele><time>2026-04-14T14:11:37.999Z</time></trkpt><trkpt lat="38.16707716014268" lon="15.836286646616166"><ele>1320.2</ele><time>2026-04-14T14:11:38.999Z</time></trkpt><trkpt lat="38.16697505233537" lon="15.836356853230644"><ele>1320.4</ele><time>2026-04-14T14:11:39.999Z</time></trkpt><trkpt lat="38.16685928320535" lon="15.83643637911483"><ele>1320.6</ele><time>2026-04-14T14:11:40.999Z</time></trkpt><trkpt lat="38.16676134360991" lon="15.836497523171673"><ele>1320.8</ele><time>2026-04-14T14:11:41.999Z</time></trkpt><trkpt lat="38.16668956852031" lon="15.83655143685848"><ele>1321.0</ele><time>2026-04-14T14:11:42.999Z</time></trkpt><trkpt lat="38.16661827348337" lon="15.836675951477954"><ele>1322.1999999999998</ele><time>2026-04-14T14:11:44.999Z</time></trkpt><trkpt lat="38.16662886489976" lon="15.83682991479094"><ele>1323.3999999999999</ele><time>2026-04-14T14:11:46.999Z</time></trkpt><trkpt lat="38.1666401919184" lon="15.83692476838918"><ele>1324.6</ele><time>2026-04-14T14:11:47.999Z</time></trkpt><trkpt lat="38.166627540944425" lon="15.837023909264524"><ele>1325.8</ele><time>2026-04-14T14:11:48.999Z</time></trkpt><trkpt lat="38.166588179890844" lon="15.83712817839463"><ele>1327.0</ele><time>2026-04-14T14:11:49.999Z</time></trkpt><trkpt lat="38.16652097661946" lon="15.837245809305982"><ele>1328.0</ele><time>2026-04-14T14:11:50.999Z</time></trkpt><trkpt lat="38.16644120773021" lon="15.837380126786998"><ele>1329.0</ele><time>2026-04-14T14:11:51.999Z</time></trkpt><trkpt lat="38.16634253581161" lon="15.837568379725077"><ele>1330.0</ele><time>2026-04-14T14:11:52.999Z</time></trkpt><trkpt lat="38.16624847832966" lon="15.837762423479644"><ele>1332.0</ele><time>2026-04-14T14:11:53.999Z</time></trkpt><trkpt lat="38.16616465765244" lon="15.837932063364716"><ele>1334.0</ele><time>2026-04-14T14:11:54.999Z</time></trkpt><trkpt lat="38.16608147234997" lon="15.838093658082979"><ele>1336.0</ele><time>2026-04-14T14:11:55.999Z</time></trkpt><trkpt lat="38.16600749413979" lon="15.838233759719989"><ele>1338.0</ele><time>2026-04-14T14:11:56.999Z</time></trkpt><trkpt lat="38.165941621708896" lon="15.838370344642605"><ele>1339.8000000000002</ele><time>2026-04-14T14:11:57.999Z</time></trkpt><trkpt lat="38.165879512724665" lon="15.838503134831411"><ele>1341.6</ele><time>2026-04-14T14:11:58.999Z</time></trkpt><trkpt lat="38.16581723230844" lon="15.838617989399971"><ele>1343.4</ele><time>2026-04-14T14:11:59.999Z</time></trkpt><trkpt lat="38.16575893043411" lon="15.83872801833855"><ele>1345.1999999999998</ele><time>2026-04-14T14:12:00.999Z</time></trkpt><trkpt lat="38.16569763042641" lon="15.838844127826881"><ele>1347.0</ele><time>2026-04-14T14:12:01.999Z</time></trkpt><trkpt lat="38.165635528276205" lon="15.83895081362024"><ele>1347.8</ele><time>2026-04-14T14:12:02.999Z</time></trkpt><trkpt lat="38.1655729995246" lon="15.839060723334207"><ele>1348.6</ele><time>2026-04-14T14:12:03.999Z</time></trkpt><trkpt lat="38.16550567174177" lon="15.839156530203978"><ele>1349.3999999999999</ele><time>2026-04-14T14:12:04.999Z</time></trkpt><trkpt lat="38.16544265650741" lon="15.83923193402754"><ele>1350.1999999999998</ele><time>2026-04-14T14:12:05.999Z</time></trkpt><trkpt lat="38.16536993344929" lon="15.839314883261082"><ele>1351.0</ele><time>2026-04-14T14:12:06.999Z</time></trkpt><trkpt lat="38.16530066688938" lon="15.839390584254339"><ele>1352.6</ele><time>2026-04-14T14:12:07.999Z</time></trkpt><trkpt lat="38.165240193483726" lon="15.83948006936151"><ele>1354.1999999999998</ele><time>2026-04-14T14:12:08.999Z</time></trkpt><trkpt lat="38.16517960519555" lon="15.839576055107928"><ele>1355.8000000000002</ele><time>2026-04-14T14:12:10Z</time></trkpt><trkpt lat="38.165142021200914" lon="15.839679949948465"><ele>1357.4</ele><time>2026-04-14T14:12:11Z</time></trkpt><trkpt lat="38.165111944952194" lon="15.839795657440074"><ele>1359.0</ele><time>2026-04-14T14:12:12Z</time></trkpt><trkpt lat="38.16509448099872" lon="15.839929872061864"><ele>1359.0</ele><time>2026-04-14T14:12:13Z</time></trkpt><trkpt lat="38.16509064119376" lon="15.84006335090777"><ele>1359.0</ele><time>2026-04-14T14:12:14Z</time></trkpt><trkpt lat="38.165081462419316" lon="15.840186179288755"><ele>1359.0</ele><time>2026-04-14T14:12:15Z</time></trkpt><trkpt lat="38.16506203517987" lon="15.840306684196817"><ele>1359.0</ele><time>2026-04-14T14:12:16Z</time></trkpt><trkpt lat="38.16504340568312" lon="15.84042559532959"><ele>1359.0</ele><time>2026-04-14T14:12:17Z</time></trkpt><trkpt lat="38.165026845474145" lon="15.84054119264515"><ele>1360.8000000000002</ele><time>2026-04-14T14:12:18Z</time></trkpt><trkpt lat="38.16501310415354" lon="15.84067051945511"><ele>1362.6000000000001</ele><time>2026-04-14T14:12:20Z</time></trkpt><trkpt lat="38.164939226556825" lon="15.840693912365136"><ele>1364.4</ele><time>2026-04-14T14:12:23Z</time></trkpt><trkpt lat="38.16487527457024" lon="15.84059370585131"><ele>1366.2</ele><time>2026-04-14T14:12:25Z</time></trkpt><trkpt lat="38.16483082293892" lon="15.840496009350792"><ele>1368.0</ele><time>2026-04-14T14:12:27Z</time></trkpt><trkpt lat="38.164774117879375" lon="15.840404184868985"><ele>1368.0</ele><time>2026-04-14T14:12:30Z</time></trkpt><trkpt lat="38.16471085392684" lon="15.84032725297405"><ele>1368.0</ele><time>2026-04-14T14:12:34Z</time></trkpt><trkpt lat="38.16464420634066" lon="15.84033098844954"><ele>1368.0</ele><time>2026-04-14T14:12:37Z</time></trkpt><trkpt lat="38.164588737594045" lon="15.840410426902599"><ele>1368.0</ele><time>2026-04-14T14:12:39Z</time></trkpt><trkpt lat="38.16451847431109" lon="15.840393988389767"><ele>1368.0</ele><time>2026-04-14T14:12:42Z</time></trkpt></trkseg></trk></gpx>